<?xml version="1.0" encoding="UTF-8" standalone="no" ?>
<gpx xmlns="http://www.topografix.com/GPX/1/1" xmlns:xsi="http://www.w3.org/2001/XMLSchema-instance" xsi:schemaLocation="http://www.topografix.com/GPX/1/1 http://www.topografix.com/GPX/1/1/gpx.xsd" version="1.1" creator="VisuGPX - https://www.visugpx.com">
  <metadata>
    <name>VTT Gravel 14 juillet</name>
  </metadata>
  <trk>
    <name><![CDATA[VTT Gravel 14 juillet_1]]></name>
    <trkseg>
      <trkpt lat="46.29201" lon="-0.21518">
        <ele>142.2</ele>
        <time>2025-07-11T08:31:52.002000+02:00</time>
      </trkpt>
      <trkpt lat="46.29201" lon="-0.2152">
        <ele>142.2</ele>
        <time>2025-07-11T08:31:55.002000+02:00</time>
      </trkpt>
      <trkpt lat="46.29201" lon="-0.21523">
        <ele>142.2</ele>
        <time>2025-07-11T08:31:56.003000+02:00</time>
      </trkpt>
      <trkpt lat="46.29201" lon="-0.21529">
        <ele>142.2</ele>
        <time>2025-07-11T08:31:58.002000+02:00</time>
      </trkpt>
      <trkpt lat="46.292" lon="-0.21532">
        <ele>142.2</ele>
        <time>2025-07-11T08:31:59.002000+02:00</time>
      </trkpt>
      <trkpt lat="46.29199" lon="-0.2154">
        <ele>142.2</ele>
        <time>2025-07-11T08:32:01.002000+02:00</time>
      </trkpt>
      <trkpt lat="46.29199" lon="-0.21545">
        <ele>142.3</ele>
        <time>2025-07-11T08:32:02.002000+02:00</time>
      </trkpt>
      <trkpt lat="46.29198" lon="-0.21554">
        <ele>142.3</ele>
        <time>2025-07-11T08:32:04.002000+02:00</time>
      </trkpt>
      <trkpt lat="46.29198" lon="-0.21562">
        <ele>142.4</ele>
        <time>2025-07-11T08:32:06.002000+02:00</time>
      </trkpt>
      <trkpt lat="46.29198" lon="-0.21566">
        <ele>142.6</ele>
        <time>2025-07-11T08:32:07.003000+02:00</time>
      </trkpt>
      <trkpt lat="46.29198" lon="-0.21576">
        <ele>142.9</ele>
        <time>2025-07-11T08:32:09.003000+02:00</time>
      </trkpt>
      <trkpt lat="46.29198" lon="-0.21585">
        <ele>143.1</ele>
        <time>2025-07-11T08:32:11.004000+02:00</time>
      </trkpt>
      <trkpt lat="46.29197" lon="-0.21595">
        <ele>143.1</ele>
        <time>2025-07-11T08:32:13.002000+02:00</time>
      </trkpt>
      <trkpt lat="46.29196" lon="-0.21606">
        <ele>143</ele>
        <time>2025-07-11T08:32:15.002000+02:00</time>
      </trkpt>
      <trkpt lat="46.29196" lon="-0.21611">
        <ele>143</ele>
        <time>2025-07-11T08:32:16.002000+02:00</time>
      </trkpt>
      <trkpt lat="46.29196" lon="-0.21617">
        <ele>143</ele>
        <time>2025-07-11T08:32:17.003000+02:00</time>
      </trkpt>
      <trkpt lat="46.29195" lon="-0.21622">
        <ele>143</ele>
        <time>2025-07-11T08:32:18.003000+02:00</time>
      </trkpt>
      <trkpt lat="46.29194" lon="-0.21634">
        <ele>143</ele>
        <time>2025-07-11T08:32:20.003000+02:00</time>
      </trkpt>
      <trkpt lat="46.29194" lon="-0.21646">
        <ele>143</ele>
        <time>2025-07-11T08:32:22.002000+02:00</time>
      </trkpt>
      <trkpt lat="46.29193" lon="-0.21652">
        <ele>143</ele>
        <time>2025-07-11T08:32:23.002000+02:00</time>
      </trkpt>
      <trkpt lat="46.29193" lon="-0.21657">
        <ele>143</ele>
        <time>2025-07-11T08:32:24.002000+02:00</time>
      </trkpt>
      <trkpt lat="46.29192" lon="-0.21663">
        <ele>143</ele>
        <time>2025-07-11T08:32:25.002000+02:00</time>
      </trkpt>
      <trkpt lat="46.29192" lon="-0.21669">
        <ele>143.1</ele>
        <time>2025-07-11T08:32:26.002000+02:00</time>
      </trkpt>
      <trkpt lat="46.29191" lon="-0.21675">
        <ele>143.3</ele>
        <time>2025-07-11T08:32:27.002000+02:00</time>
      </trkpt>
      <trkpt lat="46.29191" lon="-0.21685">
        <ele>143.6</ele>
        <time>2025-07-11T08:32:29.002000+02:00</time>
      </trkpt>
      <trkpt lat="46.2919" lon="-0.21695">
        <ele>143.8</ele>
        <time>2025-07-11T08:32:31.001000+02:00</time>
      </trkpt>
      <trkpt lat="46.29189" lon="-0.217">
        <ele>143.8</ele>
        <time>2025-07-11T08:32:32.004000+02:00</time>
      </trkpt>
      <trkpt lat="46.29187" lon="-0.21712">
        <ele>143.7</ele>
        <time>2025-07-11T08:32:34.002000+02:00</time>
      </trkpt>
      <trkpt lat="46.29187" lon="-0.21717">
        <ele>143.7</ele>
        <time>2025-07-11T08:32:35.002000+02:00</time>
      </trkpt>
      <trkpt lat="46.29186" lon="-0.21723">
        <ele>143.7</ele>
        <time>2025-07-11T08:32:36.002000+02:00</time>
      </trkpt>
      <trkpt lat="46.29186" lon="-0.21729">
        <ele>143.7</ele>
        <time>2025-07-11T08:32:37.002000+02:00</time>
      </trkpt>
      <trkpt lat="46.29185" lon="-0.21735">
        <ele>143.7</ele>
        <time>2025-07-11T08:32:38.004000+02:00</time>
      </trkpt>
      <trkpt lat="46.29184" lon="-0.21748">
        <ele>143.6</ele>
        <time>2025-07-11T08:32:40.002000+02:00</time>
      </trkpt>
      <trkpt lat="46.29183" lon="-0.21761">
        <ele>143.4</ele>
        <time>2025-07-11T08:32:42.002000+02:00</time>
      </trkpt>
      <trkpt lat="46.29182" lon="-0.21767">
        <ele>143.2</ele>
        <time>2025-07-11T08:32:43.002000+02:00</time>
      </trkpt>
      <trkpt lat="46.29181" lon="-0.21773">
        <ele>143.1</ele>
        <time>2025-07-11T08:32:44.002000+02:00</time>
      </trkpt>
      <trkpt lat="46.2918" lon="-0.2178">
        <ele>142.9</ele>
        <time>2025-07-11T08:32:45.003000+02:00</time>
      </trkpt>
      <trkpt lat="46.29179" lon="-0.21793">
        <ele>142.4</ele>
        <time>2025-07-11T08:32:47.001000+02:00</time>
      </trkpt>
      <trkpt lat="46.29178" lon="-0.218">
        <ele>142.2</ele>
        <time>2025-07-11T08:32:48.003000+02:00</time>
      </trkpt>
      <trkpt lat="46.29177" lon="-0.21813">
        <ele>142</ele>
        <time>2025-07-11T08:32:50.003000+02:00</time>
      </trkpt>
      <trkpt lat="46.29175" lon="-0.21828">
        <ele>142</ele>
        <time>2025-07-11T08:32:52.001000+02:00</time>
      </trkpt>
      <trkpt lat="46.29174" lon="-0.21835">
        <ele>142</ele>
        <time>2025-07-11T08:32:53.002000+02:00</time>
      </trkpt>
      <trkpt lat="46.29173" lon="-0.21842">
        <ele>142</ele>
        <time>2025-07-11T08:32:54.002000+02:00</time>
      </trkpt>
      <trkpt lat="46.29172" lon="-0.21855">
        <ele>142</ele>
        <time>2025-07-11T08:32:56.002000+02:00</time>
      </trkpt>
      <trkpt lat="46.29171" lon="-0.21862">
        <ele>142</ele>
        <time>2025-07-11T08:32:57.003000+02:00</time>
      </trkpt>
      <trkpt lat="46.2917" lon="-0.21876">
        <ele>142</ele>
        <time>2025-07-11T08:32:59.001000+02:00</time>
      </trkpt>
      <trkpt lat="46.29169" lon="-0.21883">
        <ele>142</ele>
        <time>2025-07-11T08:33:00.002000+02:00</time>
      </trkpt>
      <trkpt lat="46.29168" lon="-0.2189">
        <ele>142</ele>
        <time>2025-07-11T08:33:01.003000+02:00</time>
      </trkpt>
      <trkpt lat="46.29168" lon="-0.21897">
        <ele>142</ele>
        <time>2025-07-11T08:33:02.003000+02:00</time>
      </trkpt>
      <trkpt lat="46.29167" lon="-0.21904">
        <ele>142</ele>
        <time>2025-07-11T08:33:03.003000+02:00</time>
      </trkpt>
      <trkpt lat="46.29167" lon="-0.21917">
        <ele>142</ele>
        <time>2025-07-11T08:33:05.002000+02:00</time>
      </trkpt>
      <trkpt lat="46.29167" lon="-0.21924">
        <ele>141.7</ele>
        <time>2025-07-11T08:33:06.003000+02:00</time>
      </trkpt>
      <trkpt lat="46.29166" lon="-0.21938">
        <ele>141.2</ele>
        <time>2025-07-11T08:33:08.002000+02:00</time>
      </trkpt>
      <trkpt lat="46.29166" lon="-0.21945">
        <ele>141</ele>
        <time>2025-07-11T08:33:09.003000+02:00</time>
      </trkpt>
      <trkpt lat="46.29165" lon="-0.21958">
        <ele>141</ele>
        <time>2025-07-11T08:33:11.002000+02:00</time>
      </trkpt>
      <trkpt lat="46.29164" lon="-0.21965">
        <ele>140.9</ele>
        <time>2025-07-11T08:33:12.002000+02:00</time>
      </trkpt>
      <trkpt lat="46.29164" lon="-0.21973">
        <ele>140.9</ele>
        <time>2025-07-11T08:33:13.002000+02:00</time>
      </trkpt>
      <trkpt lat="46.29163" lon="-0.21979">
        <ele>140.9</ele>
        <time>2025-07-11T08:33:14.003000+02:00</time>
      </trkpt>
      <trkpt lat="46.29163" lon="-0.21987">
        <ele>140.9</ele>
        <time>2025-07-11T08:33:15.003000+02:00</time>
      </trkpt>
      <trkpt lat="46.29162" lon="-0.21994">
        <ele>140.8</ele>
        <time>2025-07-11T08:33:16.004000+02:00</time>
      </trkpt>
      <trkpt lat="46.29161" lon="-0.22008">
        <ele>140.8</ele>
        <time>2025-07-11T08:33:18.003000+02:00</time>
      </trkpt>
      <trkpt lat="46.29161" lon="-0.22021">
        <ele>140.8</ele>
        <time>2025-07-11T08:33:20.002000+02:00</time>
      </trkpt>
      <trkpt lat="46.29161" lon="-0.22028">
        <ele>140.8</ele>
        <time>2025-07-11T08:33:21.003000+02:00</time>
      </trkpt>
      <trkpt lat="46.2916" lon="-0.22042">
        <ele>140.8</ele>
        <time>2025-07-11T08:33:23.002000+02:00</time>
      </trkpt>
      <trkpt lat="46.2916" lon="-0.22049">
        <ele>140.8</ele>
        <time>2025-07-11T08:33:24.003000+02:00</time>
      </trkpt>
      <trkpt lat="46.29159" lon="-0.22062">
        <ele>140.7</ele>
        <time>2025-07-11T08:33:26.003000+02:00</time>
      </trkpt>
      <trkpt lat="46.29159" lon="-0.22076">
        <ele>140.7</ele>
        <time>2025-07-11T08:33:28.002000+02:00</time>
      </trkpt>
      <trkpt lat="46.29159" lon="-0.22083">
        <ele>140.7</ele>
        <time>2025-07-11T08:33:29.003000+02:00</time>
      </trkpt>
      <trkpt lat="46.29157" lon="-0.22097">
        <ele>140.3</ele>
        <time>2025-07-11T08:33:31.001000+02:00</time>
      </trkpt>
      <trkpt lat="46.29156" lon="-0.22104">
        <ele>140.2</ele>
        <time>2025-07-11T08:33:32.001000+02:00</time>
      </trkpt>
      <trkpt lat="46.29156" lon="-0.22111">
        <ele>140</ele>
        <time>2025-07-11T08:33:33.002000+02:00</time>
      </trkpt>
      <trkpt lat="46.29155" lon="-0.22118">
        <ele>140</ele>
        <time>2025-07-11T08:33:34.002000+02:00</time>
      </trkpt>
      <trkpt lat="46.29154" lon="-0.22126">
        <ele>140</ele>
        <time>2025-07-11T08:33:35.002000+02:00</time>
      </trkpt>
      <trkpt lat="46.29153" lon="-0.22133">
        <ele>140</ele>
        <time>2025-07-11T08:33:36.002000+02:00</time>
      </trkpt>
      <trkpt lat="46.29151" lon="-0.22141">
        <ele>140</ele>
        <time>2025-07-11T08:33:37.002000+02:00</time>
      </trkpt>
      <trkpt lat="46.2915" lon="-0.22148">
        <ele>140.2</ele>
        <time>2025-07-11T08:33:38.002000+02:00</time>
      </trkpt>
      <trkpt lat="46.29149" lon="-0.22155">
        <ele>140.4</ele>
        <time>2025-07-11T08:33:39.003000+02:00</time>
      </trkpt>
      <trkpt lat="46.29147" lon="-0.22169">
        <ele>140.6</ele>
        <time>2025-07-11T08:33:41.002000+02:00</time>
      </trkpt>
      <trkpt lat="46.29146" lon="-0.22176">
        <ele>140.5</ele>
        <time>2025-07-11T08:33:42.002000+02:00</time>
      </trkpt>
      <trkpt lat="46.29145" lon="-0.22183">
        <ele>140.3</ele>
        <time>2025-07-11T08:33:43.002000+02:00</time>
      </trkpt>
      <trkpt lat="46.29142" lon="-0.22197">
        <ele>140.1</ele>
        <time>2025-07-11T08:33:45.002000+02:00</time>
      </trkpt>
      <trkpt lat="46.29141" lon="-0.22205">
        <ele>140.3</ele>
        <time>2025-07-11T08:33:46.002000+02:00</time>
      </trkpt>
      <trkpt lat="46.2914" lon="-0.22212">
        <ele>140.6</ele>
        <time>2025-07-11T08:33:47.002000+02:00</time>
      </trkpt>
      <trkpt lat="46.29139" lon="-0.22219">
        <ele>140.9</ele>
        <time>2025-07-11T08:33:48.002000+02:00</time>
      </trkpt>
      <trkpt lat="46.29137" lon="-0.22233">
        <ele>140.5</ele>
        <time>2025-07-11T08:33:50.001000+02:00</time>
      </trkpt>
      <trkpt lat="46.29136" lon="-0.2224">
        <ele>140.3</ele>
        <time>2025-07-11T08:33:51.003000+02:00</time>
      </trkpt>
      <trkpt lat="46.29135" lon="-0.22253">
        <ele>140.1</ele>
        <time>2025-07-11T08:33:53.001000+02:00</time>
      </trkpt>
      <trkpt lat="46.29134" lon="-0.22259">
        <ele>140.3</ele>
        <time>2025-07-11T08:33:54.002000+02:00</time>
      </trkpt>
      <trkpt lat="46.29133" lon="-0.22264">
        <ele>140.4</ele>
        <time>2025-07-11T08:33:55.002000+02:00</time>
      </trkpt>
      <trkpt lat="46.29133" lon="-0.22268">
        <ele>140.5</ele>
        <time>2025-07-11T08:33:56.002000+02:00</time>
      </trkpt>
      <trkpt lat="46.29133" lon="-0.22272">
        <ele>140.6</ele>
        <time>2025-07-11T08:33:57.002000+02:00</time>
      </trkpt>
      <trkpt lat="46.29131" lon="-0.22278">
        <ele>140.7</ele>
        <time>2025-07-11T08:33:59.002000+02:00</time>
      </trkpt>
      <trkpt lat="46.29129" lon="-0.22278">
        <ele>140.6</ele>
        <time>2025-07-11T08:34:00.002000+02:00</time>
      </trkpt>
      <trkpt lat="46.29122" lon="-0.22279">
        <ele>140.4</ele>
        <time>2025-07-11T08:34:02.002000+02:00</time>
      </trkpt>
      <trkpt lat="46.29118" lon="-0.2228">
        <ele>140.3</ele>
        <time>2025-07-11T08:34:03.002000+02:00</time>
      </trkpt>
      <trkpt lat="46.29114" lon="-0.22281">
        <ele>140.2</ele>
        <time>2025-07-11T08:34:04.002000+02:00</time>
      </trkpt>
      <trkpt lat="46.2911" lon="-0.22282">
        <ele>140.1</ele>
        <time>2025-07-11T08:34:05.003000+02:00</time>
      </trkpt>
      <trkpt lat="46.29103" lon="-0.22284">
        <ele>139.9</ele>
        <time>2025-07-11T08:34:07.002000+02:00</time>
      </trkpt>
      <trkpt lat="46.29099" lon="-0.22286">
        <ele>139.9</ele>
        <time>2025-07-11T08:34:08.003000+02:00</time>
      </trkpt>
      <trkpt lat="46.29094" lon="-0.22289">
        <ele>139.8</ele>
        <time>2025-07-11T08:34:09.003000+02:00</time>
      </trkpt>
      <trkpt lat="46.29084" lon="-0.22294">
        <ele>139.6</ele>
        <time>2025-07-11T08:34:11.003000+02:00</time>
      </trkpt>
      <trkpt lat="46.29075" lon="-0.22301">
        <ele>139.5</ele>
        <time>2025-07-11T08:34:13.001000+02:00</time>
      </trkpt>
      <trkpt lat="46.2907" lon="-0.22304">
        <ele>139.5</ele>
        <time>2025-07-11T08:34:14.002000+02:00</time>
      </trkpt>
      <trkpt lat="46.29065" lon="-0.22306">
        <ele>139.3</ele>
        <time>2025-07-11T08:34:15.002000+02:00</time>
      </trkpt>
      <trkpt lat="46.2906" lon="-0.22309">
        <ele>139.2</ele>
        <time>2025-07-11T08:34:16.002000+02:00</time>
      </trkpt>
      <trkpt lat="46.29051" lon="-0.22315">
        <ele>138.8</ele>
        <time>2025-07-11T08:34:18.002000+02:00</time>
      </trkpt>
      <trkpt lat="46.29046" lon="-0.22318">
        <ele>138.7</ele>
        <time>2025-07-11T08:34:19.002000+02:00</time>
      </trkpt>
      <trkpt lat="46.29041" lon="-0.22321">
        <ele>138.5</ele>
        <time>2025-07-11T08:34:20.003000+02:00</time>
      </trkpt>
      <trkpt lat="46.29036" lon="-0.22323">
        <ele>138.3</ele>
        <time>2025-07-11T08:34:21.003000+02:00</time>
      </trkpt>
      <trkpt lat="46.29026" lon="-0.22329">
        <ele>137.9</ele>
        <time>2025-07-11T08:34:23.001000+02:00</time>
      </trkpt>
      <trkpt lat="46.29021" lon="-0.22331">
        <ele>137.8</ele>
        <time>2025-07-11T08:34:24.002000+02:00</time>
      </trkpt>
      <trkpt lat="46.29011" lon="-0.22337">
        <ele>137.4</ele>
        <time>2025-07-11T08:34:26.001000+02:00</time>
      </trkpt>
      <trkpt lat="46.29006" lon="-0.2234">
        <ele>137.2</ele>
        <time>2025-07-11T08:34:27.002000+02:00</time>
      </trkpt>
      <trkpt lat="46.29001" lon="-0.22344">
        <ele>137.1</ele>
        <time>2025-07-11T08:34:28.002000+02:00</time>
      </trkpt>
      <trkpt lat="46.28992" lon="-0.2235">
        <ele>136.9</ele>
        <time>2025-07-11T08:34:30.001000+02:00</time>
      </trkpt>
      <trkpt lat="46.28987" lon="-0.22354">
        <ele>136.9</ele>
        <time>2025-07-11T08:34:31.002000+02:00</time>
      </trkpt>
      <trkpt lat="46.28982" lon="-0.22356">
        <ele>136.9</ele>
        <time>2025-07-11T08:34:32.002000+02:00</time>
      </trkpt>
      <trkpt lat="46.28977" lon="-0.2236">
        <ele>137</ele>
        <time>2025-07-11T08:34:33.004000+02:00</time>
      </trkpt>
      <trkpt lat="46.28967" lon="-0.22365">
        <ele>136.7</ele>
        <time>2025-07-11T08:34:35.002000+02:00</time>
      </trkpt>
      <trkpt lat="46.28962" lon="-0.22368">
        <ele>136.5</ele>
        <time>2025-07-11T08:34:36.003000+02:00</time>
      </trkpt>
      <trkpt lat="46.28957" lon="-0.2237">
        <ele>136.3</ele>
        <time>2025-07-11T08:34:37.003000+02:00</time>
      </trkpt>
      <trkpt lat="46.28947" lon="-0.22376">
        <ele>136</ele>
        <time>2025-07-11T08:34:39.003000+02:00</time>
      </trkpt>
      <trkpt lat="46.28942" lon="-0.22378">
        <ele>135.9</ele>
        <time>2025-07-11T08:34:40.003000+02:00</time>
      </trkpt>
      <trkpt lat="46.28933" lon="-0.22384">
        <ele>135.6</ele>
        <time>2025-07-11T08:34:42.004000+02:00</time>
      </trkpt>
      <trkpt lat="46.28924" lon="-0.22389">
        <ele>135.3</ele>
        <time>2025-07-11T08:34:44.003000+02:00</time>
      </trkpt>
      <trkpt lat="46.28915" lon="-0.22394">
        <ele>135</ele>
        <time>2025-07-11T08:34:46.003000+02:00</time>
      </trkpt>
      <trkpt lat="46.28911" lon="-0.22396">
        <ele>135</ele>
        <time>2025-07-11T08:34:47.003000+02:00</time>
      </trkpt>
      <trkpt lat="46.28906" lon="-0.22398">
        <ele>135</ele>
        <time>2025-07-11T08:34:48.003000+02:00</time>
      </trkpt>
      <trkpt lat="46.28897" lon="-0.22402">
        <ele>135</ele>
        <time>2025-07-11T08:34:50.002000+02:00</time>
      </trkpt>
      <trkpt lat="46.28893" lon="-0.22404">
        <ele>135</ele>
        <time>2025-07-11T08:34:51.002000+02:00</time>
      </trkpt>
      <trkpt lat="46.28885" lon="-0.22407">
        <ele>135</ele>
        <time>2025-07-11T08:34:53.001000+02:00</time>
      </trkpt>
      <trkpt lat="46.2888" lon="-0.22408">
        <ele>135</ele>
        <time>2025-07-11T08:34:54.001000+02:00</time>
      </trkpt>
      <trkpt lat="46.28876" lon="-0.2241">
        <ele>135</ele>
        <time>2025-07-11T08:34:55.002000+02:00</time>
      </trkpt>
      <trkpt lat="46.28872" lon="-0.22413">
        <ele>135</ele>
        <time>2025-07-11T08:34:56.002000+02:00</time>
      </trkpt>
      <trkpt lat="46.28867" lon="-0.22415">
        <ele>135</ele>
        <time>2025-07-11T08:34:57.003000+02:00</time>
      </trkpt>
      <trkpt lat="46.28857" lon="-0.22419">
        <ele>134.9</ele>
        <time>2025-07-11T08:34:59.001000+02:00</time>
      </trkpt>
      <trkpt lat="46.28852" lon="-0.22421">
        <ele>134.8</ele>
        <time>2025-07-11T08:35:00.003000+02:00</time>
      </trkpt>
      <trkpt lat="46.28842" lon="-0.22425">
        <ele>134.7</ele>
        <time>2025-07-11T08:35:02.002000+02:00</time>
      </trkpt>
      <trkpt lat="46.28837" lon="-0.22427">
        <ele>134.6</ele>
        <time>2025-07-11T08:35:03.003000+02:00</time>
      </trkpt>
      <trkpt lat="46.28828" lon="-0.22432">
        <ele>134.4</ele>
        <time>2025-07-11T08:35:05.001000+02:00</time>
      </trkpt>
      <trkpt lat="46.28823" lon="-0.22435">
        <ele>134.2</ele>
        <time>2025-07-11T08:35:06.001000+02:00</time>
      </trkpt>
      <trkpt lat="46.28818" lon="-0.22437">
        <ele>134.1</ele>
        <time>2025-07-11T08:35:07.001000+02:00</time>
      </trkpt>
      <trkpt lat="46.28813" lon="-0.22439">
        <ele>134.1</ele>
        <time>2025-07-11T08:35:08.002000+02:00</time>
      </trkpt>
      <trkpt lat="46.28803" lon="-0.22444">
        <ele>134</ele>
        <time>2025-07-11T08:35:10.001000+02:00</time>
      </trkpt>
      <trkpt lat="46.28798" lon="-0.22446">
        <ele>133.9</ele>
        <time>2025-07-11T08:35:11.002000+02:00</time>
      </trkpt>
      <trkpt lat="46.28793" lon="-0.22449">
        <ele>133.8</ele>
        <time>2025-07-11T08:35:12.002000+02:00</time>
      </trkpt>
      <trkpt lat="46.28788" lon="-0.22451">
        <ele>133.7</ele>
        <time>2025-07-11T08:35:13.002000+02:00</time>
      </trkpt>
      <trkpt lat="46.28777" lon="-0.22458">
        <ele>133.5</ele>
        <time>2025-07-11T08:35:15.002000+02:00</time>
      </trkpt>
      <trkpt lat="46.28771" lon="-0.22461">
        <ele>133.3</ele>
        <time>2025-07-11T08:35:16.002000+02:00</time>
      </trkpt>
      <trkpt lat="46.28766" lon="-0.22464">
        <ele>133.2</ele>
        <time>2025-07-11T08:35:17.002000+02:00</time>
      </trkpt>
      <trkpt lat="46.2876" lon="-0.22467">
        <ele>133.1</ele>
        <time>2025-07-11T08:35:18.003000+02:00</time>
      </trkpt>
      <trkpt lat="46.28749" lon="-0.22475">
        <ele>133</ele>
        <time>2025-07-11T08:35:20.002000+02:00</time>
      </trkpt>
      <trkpt lat="46.28743" lon="-0.22478">
        <ele>133</ele>
        <time>2025-07-11T08:35:21.002000+02:00</time>
      </trkpt>
      <trkpt lat="46.28738" lon="-0.22482">
        <ele>133</ele>
        <time>2025-07-11T08:35:22.002000+02:00</time>
      </trkpt>
      <trkpt lat="46.28732" lon="-0.22485">
        <ele>133</ele>
        <time>2025-07-11T08:35:23.002000+02:00</time>
      </trkpt>
      <trkpt lat="46.28727" lon="-0.22488">
        <ele>133</ele>
        <time>2025-07-11T08:35:24.002000+02:00</time>
      </trkpt>
      <trkpt lat="46.28721" lon="-0.2249">
        <ele>132.9</ele>
        <time>2025-07-11T08:35:25.094000+02:00</time>
      </trkpt>
      <trkpt lat="46.28709" lon="-0.22496">
        <ele>132.5</ele>
        <time>2025-07-11T08:35:27.002000+02:00</time>
      </trkpt>
      <trkpt lat="46.28703" lon="-0.22498">
        <ele>132.3</ele>
        <time>2025-07-11T08:35:28.002000+02:00</time>
      </trkpt>
      <trkpt lat="46.28696" lon="-0.22499">
        <ele>132.1</ele>
        <time>2025-07-11T08:35:29.002000+02:00</time>
      </trkpt>
      <trkpt lat="46.28684" lon="-0.22502">
        <ele>131.6</ele>
        <time>2025-07-11T08:35:31.002000+02:00</time>
      </trkpt>
      <trkpt lat="46.28672" lon="-0.22505">
        <ele>131.2</ele>
        <time>2025-07-11T08:35:33.002000+02:00</time>
      </trkpt>
      <trkpt lat="46.2866" lon="-0.22509">
        <ele>130.8</ele>
        <time>2025-07-11T08:35:35.002000+02:00</time>
      </trkpt>
      <trkpt lat="46.28649" lon="-0.22513">
        <ele>130.4</ele>
        <time>2025-07-11T08:35:37.002000+02:00</time>
      </trkpt>
      <trkpt lat="46.28637" lon="-0.22518">
        <ele>129.9</ele>
        <time>2025-07-11T08:35:39.001000+02:00</time>
      </trkpt>
      <trkpt lat="46.28634" lon="-0.22519">
        <ele>129.8</ele>
        <time>2025-07-11T08:35:40.002000+02:00</time>
      </trkpt>
      <trkpt lat="46.28627" lon="-0.22514">
        <ele>129.4</ele>
        <time>2025-07-11T08:35:41.003000+02:00</time>
      </trkpt>
      <trkpt lat="46.28614" lon="-0.22522">
        <ele>128.9</ele>
        <time>2025-07-11T08:35:43.002000+02:00</time>
      </trkpt>
      <trkpt lat="46.28603" lon="-0.22538">
        <ele>128.8</ele>
        <time>2025-07-11T08:35:45.002000+02:00</time>
      </trkpt>
      <trkpt lat="46.28594" lon="-0.22552">
        <ele>128.7</ele>
        <time>2025-07-11T08:35:47.001000+02:00</time>
      </trkpt>
      <trkpt lat="46.28586" lon="-0.22563">
        <ele>128.7</ele>
        <time>2025-07-11T08:35:49+02:00</time>
      </trkpt>
      <trkpt lat="46.28583" lon="-0.22568">
        <ele>128.9</ele>
        <time>2025-07-11T08:35:50+02:00</time>
      </trkpt>
      <trkpt lat="46.28581" lon="-0.22573">
        <ele>129</ele>
        <time>2025-07-11T08:35:51+02:00</time>
      </trkpt>
      <trkpt lat="46.28578" lon="-0.22573">
        <ele>128.9</ele>
        <time>2025-07-11T08:35:52+02:00</time>
      </trkpt>
      <trkpt lat="46.28574" lon="-0.22578">
        <ele>128.8</ele>
        <time>2025-07-11T08:35:53.001000+02:00</time>
      </trkpt>
      <trkpt lat="46.28566" lon="-0.22585">
        <ele>128.1</ele>
        <time>2025-07-11T08:35:55+02:00</time>
      </trkpt>
      <trkpt lat="46.28563" lon="-0.22588">
        <ele>127.9</ele>
        <time>2025-07-11T08:35:56+02:00</time>
      </trkpt>
      <trkpt lat="46.2856" lon="-0.22593">
        <ele>127.7</ele>
        <time>2025-07-11T08:35:57.002000+02:00</time>
      </trkpt>
      <trkpt lat="46.28558" lon="-0.22597">
        <ele>127.7</ele>
        <time>2025-07-11T08:35:58.002000+02:00</time>
      </trkpt>
      <trkpt lat="46.28555" lon="-0.22602">
        <ele>127.6</ele>
        <time>2025-07-11T08:36:00+02:00</time>
      </trkpt>
      <trkpt lat="46.28554" lon="-0.22601">
        <ele>127.6</ele>
        <time>2025-07-11T08:36:01+02:00</time>
      </trkpt>
      <trkpt lat="46.28553" lon="-0.22598">
        <ele>127.4</ele>
        <time>2025-07-11T08:36:02+02:00</time>
      </trkpt>
      <trkpt lat="46.28552" lon="-0.22594">
        <ele>127.2</ele>
        <time>2025-07-11T08:36:03.003000+02:00</time>
      </trkpt>
      <trkpt lat="46.28551" lon="-0.22581">
        <ele>126.8</ele>
        <time>2025-07-11T08:36:05.003000+02:00</time>
      </trkpt>
      <trkpt lat="46.28551" lon="-0.22568">
        <ele>126.8</ele>
        <time>2025-07-11T08:36:07.001000+02:00</time>
      </trkpt>
      <trkpt lat="46.28551" lon="-0.22561">
        <ele>126.7</ele>
        <time>2025-07-11T08:36:08.001000+02:00</time>
      </trkpt>
      <trkpt lat="46.28551" lon="-0.22554">
        <ele>126.6</ele>
        <time>2025-07-11T08:36:09.001000+02:00</time>
      </trkpt>
      <trkpt lat="46.2855" lon="-0.22547">
        <ele>126.3</ele>
        <time>2025-07-11T08:36:10.001000+02:00</time>
      </trkpt>
      <trkpt lat="46.28549" lon="-0.22541">
        <ele>126</ele>
        <time>2025-07-11T08:36:11.002000+02:00</time>
      </trkpt>
      <trkpt lat="46.28546" lon="-0.22535">
        <ele>125.6</ele>
        <time>2025-07-11T08:36:12.002000+02:00</time>
      </trkpt>
      <trkpt lat="46.28542" lon="-0.22522">
        <ele>124.8</ele>
        <time>2025-07-11T08:36:14+02:00</time>
      </trkpt>
      <trkpt lat="46.2854" lon="-0.22514">
        <ele>124.4</ele>
        <time>2025-07-11T08:36:15.001000+02:00</time>
      </trkpt>
      <trkpt lat="46.28535" lon="-0.22498">
        <ele>123.5</ele>
        <time>2025-07-11T08:36:17+02:00</time>
      </trkpt>
      <trkpt lat="46.28532" lon="-0.2249">
        <ele>123.3</ele>
        <time>2025-07-11T08:36:18+02:00</time>
      </trkpt>
      <trkpt lat="46.2853" lon="-0.22483">
        <ele>123.1</ele>
        <time>2025-07-11T08:36:19+02:00</time>
      </trkpt>
      <trkpt lat="46.28527" lon="-0.22475">
        <ele>123</ele>
        <time>2025-07-11T08:36:20.001000+02:00</time>
      </trkpt>
      <trkpt lat="46.28522" lon="-0.22458">
        <ele>122.1</ele>
        <time>2025-07-11T08:36:22.001000+02:00</time>
      </trkpt>
      <trkpt lat="46.28516" lon="-0.22441">
        <ele>121.1</ele>
        <time>2025-07-11T08:36:24.001000+02:00</time>
      </trkpt>
      <trkpt lat="46.28513" lon="-0.22432">
        <ele>120.7</ele>
        <time>2025-07-11T08:36:25.001000+02:00</time>
      </trkpt>
      <trkpt lat="46.28507" lon="-0.22415">
        <ele>120.3</ele>
        <time>2025-07-11T08:36:27.001000+02:00</time>
      </trkpt>
      <trkpt lat="46.28504" lon="-0.22407">
        <ele>120.2</ele>
        <time>2025-07-11T08:36:28.001000+02:00</time>
      </trkpt>
      <trkpt lat="46.28499" lon="-0.2239">
        <ele>120</ele>
        <time>2025-07-11T08:36:30.002000+02:00</time>
      </trkpt>
      <trkpt lat="46.28496" lon="-0.22383">
        <ele>119.9</ele>
        <time>2025-07-11T08:36:31.002000+02:00</time>
      </trkpt>
      <trkpt lat="46.28493" lon="-0.22375">
        <ele>119.9</ele>
        <time>2025-07-11T08:36:32.003000+02:00</time>
      </trkpt>
      <trkpt lat="46.28486" lon="-0.22363">
        <ele>120</ele>
        <time>2025-07-11T08:36:34+02:00</time>
      </trkpt>
      <trkpt lat="46.28483" lon="-0.22356">
        <ele>120.1</ele>
        <time>2025-07-11T08:36:35.001000+02:00</time>
      </trkpt>
      <trkpt lat="46.2848" lon="-0.2235">
        <ele>120.3</ele>
        <time>2025-07-11T08:36:36.001000+02:00</time>
      </trkpt>
      <trkpt lat="46.28475" lon="-0.2234">
        <ele>120.7</ele>
        <time>2025-07-11T08:36:38+02:00</time>
      </trkpt>
      <trkpt lat="46.28472" lon="-0.22334">
        <ele>121</ele>
        <time>2025-07-11T08:36:39.001000+02:00</time>
      </trkpt>
      <trkpt lat="46.28467" lon="-0.22324">
        <ele>121.4</ele>
        <time>2025-07-11T08:36:41+02:00</time>
      </trkpt>
      <trkpt lat="46.28464" lon="-0.22319">
        <ele>121.7</ele>
        <time>2025-07-11T08:36:42+02:00</time>
      </trkpt>
      <trkpt lat="46.28462" lon="-0.22314">
        <ele>121.9</ele>
        <time>2025-07-11T08:36:43.002000+02:00</time>
      </trkpt>
      <trkpt lat="46.28457" lon="-0.22305">
        <ele>122.6</ele>
        <time>2025-07-11T08:36:45+02:00</time>
      </trkpt>
      <trkpt lat="46.28454" lon="-0.22301">
        <ele>122.8</ele>
        <time>2025-07-11T08:36:46.001000+02:00</time>
      </trkpt>
      <trkpt lat="46.28449" lon="-0.22293">
        <ele>123.2</ele>
        <time>2025-07-11T08:36:48.001000+02:00</time>
      </trkpt>
      <trkpt lat="46.28445" lon="-0.22284">
        <ele>123.7</ele>
        <time>2025-07-11T08:36:50+02:00</time>
      </trkpt>
      <trkpt lat="46.28443" lon="-0.22281">
        <ele>123.9</ele>
        <time>2025-07-11T08:36:51.002000+02:00</time>
      </trkpt>
      <trkpt lat="46.28441" lon="-0.22277">
        <ele>124.1</ele>
        <time>2025-07-11T08:36:52.002000+02:00</time>
      </trkpt>
      <trkpt lat="46.28437" lon="-0.2227">
        <ele>124.6</ele>
        <time>2025-07-11T08:36:54.001000+02:00</time>
      </trkpt>
      <trkpt lat="46.28435" lon="-0.22266">
        <ele>124.8</ele>
        <time>2025-07-11T08:36:55.002000+02:00</time>
      </trkpt>
      <trkpt lat="46.28431" lon="-0.22259">
        <ele>125.2</ele>
        <time>2025-07-11T08:36:57.001000+02:00</time>
      </trkpt>
      <trkpt lat="46.28429" lon="-0.22255">
        <ele>125.4</ele>
        <time>2025-07-11T08:36:58.001000+02:00</time>
      </trkpt>
      <trkpt lat="46.28427" lon="-0.22252">
        <ele>125.6</ele>
        <time>2025-07-11T08:36:59.001000+02:00</time>
      </trkpt>
      <trkpt lat="46.28423" lon="-0.22245">
        <ele>126</ele>
        <time>2025-07-11T08:37:00.999000+02:00</time>
      </trkpt>
      <trkpt lat="46.28421" lon="-0.22242">
        <ele>126.1</ele>
        <time>2025-07-11T08:37:02+02:00</time>
      </trkpt>
      <trkpt lat="46.28419" lon="-0.22238">
        <ele>126.3</ele>
        <time>2025-07-11T08:37:03.001000+02:00</time>
      </trkpt>
      <trkpt lat="46.28417" lon="-0.22235">
        <ele>126.5</ele>
        <time>2025-07-11T08:37:04.001000+02:00</time>
      </trkpt>
      <trkpt lat="46.28413" lon="-0.22229">
        <ele>126.8</ele>
        <time>2025-07-11T08:37:06.001000+02:00</time>
      </trkpt>
      <trkpt lat="46.28409" lon="-0.22223">
        <ele>127</ele>
        <time>2025-07-11T08:37:08.001000+02:00</time>
      </trkpt>
      <trkpt lat="46.28405" lon="-0.22217">
        <ele>127.1</ele>
        <time>2025-07-11T08:37:09.999000+02:00</time>
      </trkpt>
      <trkpt lat="46.28403" lon="-0.22214">
        <ele>127.2</ele>
        <time>2025-07-11T08:37:11.001000+02:00</time>
      </trkpt>
      <trkpt lat="46.28399" lon="-0.22208">
        <ele>127.3</ele>
        <time>2025-07-11T08:37:13+02:00</time>
      </trkpt>
      <trkpt lat="46.28394" lon="-0.22209">
        <ele>127.4</ele>
        <time>2025-07-11T08:37:15+02:00</time>
      </trkpt>
      <trkpt lat="46.28392" lon="-0.22212">
        <ele>127.3</ele>
        <time>2025-07-11T08:37:16.001000+02:00</time>
      </trkpt>
      <trkpt lat="46.28387" lon="-0.22219">
        <ele>127.1</ele>
        <time>2025-07-11T08:37:17.999000+02:00</time>
      </trkpt>
      <trkpt lat="46.28385" lon="-0.22222">
        <ele>127</ele>
        <time>2025-07-11T08:37:18.999000+02:00</time>
      </trkpt>
      <trkpt lat="46.28382" lon="-0.22225">
        <ele>127</ele>
        <time>2025-07-11T08:37:20.002000+02:00</time>
      </trkpt>
      <trkpt lat="46.28378" lon="-0.22231">
        <ele>127</ele>
        <time>2025-07-11T08:37:22.001000+02:00</time>
      </trkpt>
      <trkpt lat="46.28376" lon="-0.22234">
        <ele>127</ele>
        <time>2025-07-11T08:37:23.001000+02:00</time>
      </trkpt>
      <trkpt lat="46.28373" lon="-0.22237">
        <ele>127</ele>
        <time>2025-07-11T08:37:24.001000+02:00</time>
      </trkpt>
      <trkpt lat="46.28371" lon="-0.2224">
        <ele>127</ele>
        <time>2025-07-11T08:37:25.001000+02:00</time>
      </trkpt>
      <trkpt lat="46.28369" lon="-0.22244">
        <ele>127</ele>
        <time>2025-07-11T08:37:26.001000+02:00</time>
      </trkpt>
      <trkpt lat="46.28366" lon="-0.22247">
        <ele>127</ele>
        <time>2025-07-11T08:37:27.003000+02:00</time>
      </trkpt>
      <trkpt lat="46.28361" lon="-0.22254">
        <ele>127</ele>
        <time>2025-07-11T08:37:29.002000+02:00</time>
      </trkpt>
      <trkpt lat="46.28359" lon="-0.22258">
        <ele>126.9</ele>
        <time>2025-07-11T08:37:30.002000+02:00</time>
      </trkpt>
      <trkpt lat="46.28355" lon="-0.22266">
        <ele>126.9</ele>
        <time>2025-07-11T08:37:32+02:00</time>
      </trkpt>
      <trkpt lat="46.28352" lon="-0.22269">
        <ele>126.9</ele>
        <time>2025-07-11T08:37:33.001000+02:00</time>
      </trkpt>
      <trkpt lat="46.2835" lon="-0.22273">
        <ele>126.9</ele>
        <time>2025-07-11T08:37:34.001000+02:00</time>
      </trkpt>
      <trkpt lat="46.28348" lon="-0.22276">
        <ele>127</ele>
        <time>2025-07-11T08:37:35.001000+02:00</time>
      </trkpt>
      <trkpt lat="46.28343" lon="-0.22285">
        <ele>126.9</ele>
        <time>2025-07-11T08:37:37+02:00</time>
      </trkpt>
      <trkpt lat="46.2834" lon="-0.22289">
        <ele>126.9</ele>
        <time>2025-07-11T08:37:38+02:00</time>
      </trkpt>
      <trkpt lat="46.28338" lon="-0.22293">
        <ele>126.9</ele>
        <time>2025-07-11T08:37:39.001000+02:00</time>
      </trkpt>
      <trkpt lat="46.28336" lon="-0.22296">
        <ele>126.9</ele>
        <time>2025-07-11T08:37:40.001000+02:00</time>
      </trkpt>
      <trkpt lat="46.28333" lon="-0.223">
        <ele>127</ele>
        <time>2025-07-11T08:37:41.001000+02:00</time>
      </trkpt>
      <trkpt lat="46.28328" lon="-0.22309">
        <ele>126.7</ele>
        <time>2025-07-11T08:37:43+02:00</time>
      </trkpt>
      <trkpt lat="46.28325" lon="-0.22312">
        <ele>126.6</ele>
        <time>2025-07-11T08:37:44+02:00</time>
      </trkpt>
      <trkpt lat="46.28323" lon="-0.22316">
        <ele>126.5</ele>
        <time>2025-07-11T08:37:45+02:00</time>
      </trkpt>
      <trkpt lat="46.28318" lon="-0.22324">
        <ele>126.5</ele>
        <time>2025-07-11T08:37:47+02:00</time>
      </trkpt>
      <trkpt lat="46.28315" lon="-0.22328">
        <ele>126.6</ele>
        <time>2025-07-11T08:37:48+02:00</time>
      </trkpt>
      <trkpt lat="46.28312" lon="-0.22332">
        <ele>126.7</ele>
        <time>2025-07-11T08:37:49+02:00</time>
      </trkpt>
      <trkpt lat="46.2831" lon="-0.22336">
        <ele>126.8</ele>
        <time>2025-07-11T08:37:50+02:00</time>
      </trkpt>
      <trkpt lat="46.28307" lon="-0.2234">
        <ele>126.7</ele>
        <time>2025-07-11T08:37:51.001000+02:00</time>
      </trkpt>
      <trkpt lat="46.28305" lon="-0.22344">
        <ele>126.6</ele>
        <time>2025-07-11T08:37:52.002000+02:00</time>
      </trkpt>
      <trkpt lat="46.28299" lon="-0.22351">
        <ele>126.3</ele>
        <time>2025-07-11T08:37:54.001000+02:00</time>
      </trkpt>
      <trkpt lat="46.28292" lon="-0.22359">
        <ele>126</ele>
        <time>2025-07-11T08:37:56+02:00</time>
      </trkpt>
      <trkpt lat="46.28289" lon="-0.22362">
        <ele>126</ele>
        <time>2025-07-11T08:37:57.001000+02:00</time>
      </trkpt>
      <trkpt lat="46.28283" lon="-0.2237">
        <ele>126</ele>
        <time>2025-07-11T08:37:59+02:00</time>
      </trkpt>
      <trkpt lat="46.28279" lon="-0.22373">
        <ele>126</ele>
        <time>2025-07-11T08:38:00+02:00</time>
      </trkpt>
      <trkpt lat="46.28276" lon="-0.22377">
        <ele>126</ele>
        <time>2025-07-11T08:38:01+02:00</time>
      </trkpt>
      <trkpt lat="46.28273" lon="-0.2238">
        <ele>126</ele>
        <time>2025-07-11T08:38:02+02:00</time>
      </trkpt>
      <trkpt lat="46.2827" lon="-0.22384">
        <ele>126</ele>
        <time>2025-07-11T08:38:03.002000+02:00</time>
      </trkpt>
      <trkpt lat="46.28263" lon="-0.22391">
        <ele>126</ele>
        <time>2025-07-11T08:38:05+02:00</time>
      </trkpt>
      <trkpt lat="46.2826" lon="-0.22395">
        <ele>125.9</ele>
        <time>2025-07-11T08:38:06.001000+02:00</time>
      </trkpt>
      <trkpt lat="46.28257" lon="-0.22399">
        <ele>125.9</ele>
        <time>2025-07-11T08:38:07.001000+02:00</time>
      </trkpt>
      <trkpt lat="46.28253" lon="-0.22403">
        <ele>125.9</ele>
        <time>2025-07-11T08:38:08.001000+02:00</time>
      </trkpt>
      <trkpt lat="46.2825" lon="-0.22408">
        <ele>126</ele>
        <time>2025-07-11T08:38:09.001000+02:00</time>
      </trkpt>
      <trkpt lat="46.28242" lon="-0.22416">
        <ele>125.7</ele>
        <time>2025-07-11T08:38:11+02:00</time>
      </trkpt>
      <trkpt lat="46.28235" lon="-0.22425">
        <ele>125.3</ele>
        <time>2025-07-11T08:38:13+02:00</time>
      </trkpt>
      <trkpt lat="46.28231" lon="-0.22429">
        <ele>125.2</ele>
        <time>2025-07-11T08:38:14.001000+02:00</time>
      </trkpt>
      <trkpt lat="46.28227" lon="-0.22433">
        <ele>125.1</ele>
        <time>2025-07-11T08:38:15.001000+02:00</time>
      </trkpt>
      <trkpt lat="46.28223" lon="-0.22438">
        <ele>125</ele>
        <time>2025-07-11T08:38:16.001000+02:00</time>
      </trkpt>
      <trkpt lat="46.28216" lon="-0.22446">
        <ele>124.9</ele>
        <time>2025-07-11T08:38:18+02:00</time>
      </trkpt>
      <trkpt lat="46.28212" lon="-0.22451">
        <ele>124.9</ele>
        <time>2025-07-11T08:38:19.001000+02:00</time>
      </trkpt>
      <trkpt lat="46.28208" lon="-0.22455">
        <ele>124.8</ele>
        <time>2025-07-11T08:38:20.001000+02:00</time>
      </trkpt>
      <trkpt lat="46.282" lon="-0.22464">
        <ele>124.9</ele>
        <time>2025-07-11T08:38:22+02:00</time>
      </trkpt>
      <trkpt lat="46.28196" lon="-0.22469">
        <ele>125</ele>
        <time>2025-07-11T08:38:23.001000+02:00</time>
      </trkpt>
      <trkpt lat="46.28192" lon="-0.22473">
        <ele>125</ele>
        <time>2025-07-11T08:38:24.001000+02:00</time>
      </trkpt>
      <trkpt lat="46.28184" lon="-0.22481">
        <ele>125</ele>
        <time>2025-07-11T08:38:26.001000+02:00</time>
      </trkpt>
      <trkpt lat="46.28181" lon="-0.22484">
        <ele>125</ele>
        <time>2025-07-11T08:38:27.001000+02:00</time>
      </trkpt>
      <trkpt lat="46.28177" lon="-0.22488">
        <ele>125</ele>
        <time>2025-07-11T08:38:28.001000+02:00</time>
      </trkpt>
      <trkpt lat="46.28173" lon="-0.22492">
        <ele>125</ele>
        <time>2025-07-11T08:38:29.001000+02:00</time>
      </trkpt>
      <trkpt lat="46.2817" lon="-0.22497">
        <ele>125</ele>
        <time>2025-07-11T08:38:30.001000+02:00</time>
      </trkpt>
      <trkpt lat="46.28162" lon="-0.22505">
        <ele>124.7</ele>
        <time>2025-07-11T08:38:32.001000+02:00</time>
      </trkpt>
      <trkpt lat="46.28158" lon="-0.2251">
        <ele>124.5</ele>
        <time>2025-07-11T08:38:33.002000+02:00</time>
      </trkpt>
      <trkpt lat="46.28151" lon="-0.22518">
        <ele>124.2</ele>
        <time>2025-07-11T08:38:35.001000+02:00</time>
      </trkpt>
      <trkpt lat="46.28147" lon="-0.22522">
        <ele>124.1</ele>
        <time>2025-07-11T08:38:36.001000+02:00</time>
      </trkpt>
      <trkpt lat="46.28144" lon="-0.22526">
        <ele>124</ele>
        <time>2025-07-11T08:38:37.001000+02:00</time>
      </trkpt>
      <trkpt lat="46.2814" lon="-0.2253">
        <ele>124</ele>
        <time>2025-07-11T08:38:38.001000+02:00</time>
      </trkpt>
      <trkpt lat="46.28132" lon="-0.22537">
        <ele>124</ele>
        <time>2025-07-11T08:38:40.001000+02:00</time>
      </trkpt>
      <trkpt lat="46.28125" lon="-0.22546">
        <ele>124</ele>
        <time>2025-07-11T08:38:41.999000+02:00</time>
      </trkpt>
      <trkpt lat="46.28121" lon="-0.2255">
        <ele>124</ele>
        <time>2025-07-11T08:38:43+02:00</time>
      </trkpt>
      <trkpt lat="46.28117" lon="-0.22554">
        <ele>124</ele>
        <time>2025-07-11T08:38:44.001000+02:00</time>
      </trkpt>
      <trkpt lat="46.28113" lon="-0.22558">
        <ele>123.9</ele>
        <time>2025-07-11T08:38:45.001000+02:00</time>
      </trkpt>
      <trkpt lat="46.28109" lon="-0.22563">
        <ele>123.7</ele>
        <time>2025-07-11T08:38:46.001000+02:00</time>
      </trkpt>
      <trkpt lat="46.281" lon="-0.22572">
        <ele>123.4</ele>
        <time>2025-07-11T08:38:48.001000+02:00</time>
      </trkpt>
      <trkpt lat="46.28096" lon="-0.22576">
        <ele>123.3</ele>
        <time>2025-07-11T08:38:49.001000+02:00</time>
      </trkpt>
      <trkpt lat="46.28092" lon="-0.22581">
        <ele>123.1</ele>
        <time>2025-07-11T08:38:50.001000+02:00</time>
      </trkpt>
      <trkpt lat="46.28085" lon="-0.2259">
        <ele>123</ele>
        <time>2025-07-11T08:38:52+02:00</time>
      </trkpt>
      <trkpt lat="46.28081" lon="-0.22594">
        <ele>123</ele>
        <time>2025-07-11T08:38:53.001000+02:00</time>
      </trkpt>
      <trkpt lat="46.28073" lon="-0.22603">
        <ele>123</ele>
        <time>2025-07-11T08:38:55+02:00</time>
      </trkpt>
      <trkpt lat="46.28069" lon="-0.22608">
        <ele>123</ele>
        <time>2025-07-11T08:38:56.001000+02:00</time>
      </trkpt>
      <trkpt lat="46.28061" lon="-0.22616">
        <ele>122.8</ele>
        <time>2025-07-11T08:38:58+02:00</time>
      </trkpt>
      <trkpt lat="46.28058" lon="-0.2262">
        <ele>122.7</ele>
        <time>2025-07-11T08:38:59+02:00</time>
      </trkpt>
      <trkpt lat="46.28055" lon="-0.22624">
        <ele>122.5</ele>
        <time>2025-07-11T08:39:00+02:00</time>
      </trkpt>
      <trkpt lat="46.28051" lon="-0.22628">
        <ele>122.4</ele>
        <time>2025-07-11T08:39:01.001000+02:00</time>
      </trkpt>
      <trkpt lat="46.28043" lon="-0.22636">
        <ele>122.1</ele>
        <time>2025-07-11T08:39:03.001000+02:00</time>
      </trkpt>
      <trkpt lat="46.28035" lon="-0.22645">
        <ele>121.9</ele>
        <time>2025-07-11T08:39:05+02:00</time>
      </trkpt>
      <trkpt lat="46.28031" lon="-0.2265">
        <ele>122</ele>
        <time>2025-07-11T08:39:06.001000+02:00</time>
      </trkpt>
      <trkpt lat="46.28026" lon="-0.22654">
        <ele>122</ele>
        <time>2025-07-11T08:39:07.001000+02:00</time>
      </trkpt>
      <trkpt lat="46.28018" lon="-0.22664">
        <ele>122</ele>
        <time>2025-07-11T08:39:09.001000+02:00</time>
      </trkpt>
      <trkpt lat="46.2801" lon="-0.22673">
        <ele>121.8</ele>
        <time>2025-07-11T08:39:11+02:00</time>
      </trkpt>
      <trkpt lat="46.28006" lon="-0.22677">
        <ele>121.6</ele>
        <time>2025-07-11T08:39:12+02:00</time>
      </trkpt>
      <trkpt lat="46.27997" lon="-0.22686">
        <ele>121.3</ele>
        <time>2025-07-11T08:39:14.001000+02:00</time>
      </trkpt>
      <trkpt lat="46.27993" lon="-0.22691">
        <ele>121.1</ele>
        <time>2025-07-11T08:39:15.001000+02:00</time>
      </trkpt>
      <trkpt lat="46.27985" lon="-0.227">
        <ele>121</ele>
        <time>2025-07-11T08:39:17+02:00</time>
      </trkpt>
      <trkpt lat="46.27981" lon="-0.22705">
        <ele>121</ele>
        <time>2025-07-11T08:39:18.001000+02:00</time>
      </trkpt>
      <trkpt lat="46.27977" lon="-0.22709">
        <ele>121</ele>
        <time>2025-07-11T08:39:19.001000+02:00</time>
      </trkpt>
      <trkpt lat="46.27969" lon="-0.22718">
        <ele>121</ele>
        <time>2025-07-11T08:39:21.001000+02:00</time>
      </trkpt>
      <trkpt lat="46.27961" lon="-0.22726">
        <ele>120.9</ele>
        <time>2025-07-11T08:39:23.001000+02:00</time>
      </trkpt>
      <trkpt lat="46.27958" lon="-0.2273">
        <ele>120.7</ele>
        <time>2025-07-11T08:39:24.003000+02:00</time>
      </trkpt>
      <trkpt lat="46.2795" lon="-0.22739">
        <ele>120.4</ele>
        <time>2025-07-11T08:39:26.001000+02:00</time>
      </trkpt>
      <trkpt lat="46.27946" lon="-0.22743">
        <ele>120.2</ele>
        <time>2025-07-11T08:39:27.003000+02:00</time>
      </trkpt>
      <trkpt lat="46.27937" lon="-0.22752">
        <ele>119.9</ele>
        <time>2025-07-11T08:39:29.001000+02:00</time>
      </trkpt>
      <trkpt lat="46.27933" lon="-0.22757">
        <ele>119.7</ele>
        <time>2025-07-11T08:39:30.003000+02:00</time>
      </trkpt>
      <trkpt lat="46.27923" lon="-0.22768">
        <ele>119.4</ele>
        <time>2025-07-11T08:39:32+02:00</time>
      </trkpt>
      <trkpt lat="46.27919" lon="-0.22773">
        <ele>119.2</ele>
        <time>2025-07-11T08:39:33.002000+02:00</time>
      </trkpt>
      <trkpt lat="46.2791" lon="-0.22783">
        <ele>118.8</ele>
        <time>2025-07-11T08:39:35.001000+02:00</time>
      </trkpt>
      <trkpt lat="46.27905" lon="-0.22787">
        <ele>118.7</ele>
        <time>2025-07-11T08:39:36.001000+02:00</time>
      </trkpt>
      <trkpt lat="46.279" lon="-0.22792">
        <ele>118.5</ele>
        <time>2025-07-11T08:39:37.001000+02:00</time>
      </trkpt>
      <trkpt lat="46.2789" lon="-0.22801">
        <ele>118.2</ele>
        <time>2025-07-11T08:39:39.003000+02:00</time>
      </trkpt>
      <trkpt lat="46.27882" lon="-0.22813">
        <ele>117.8</ele>
        <time>2025-07-11T08:39:41+02:00</time>
      </trkpt>
      <trkpt lat="46.27877" lon="-0.22818">
        <ele>117.7</ele>
        <time>2025-07-11T08:39:42.001000+02:00</time>
      </trkpt>
      <trkpt lat="46.27873" lon="-0.22824">
        <ele>117.7</ele>
        <time>2025-07-11T08:39:43.002000+02:00</time>
      </trkpt>
      <trkpt lat="46.27868" lon="-0.22829">
        <ele>117.8</ele>
        <time>2025-07-11T08:39:44.002000+02:00</time>
      </trkpt>
      <trkpt lat="46.27859" lon="-0.22839">
        <ele>117.8</ele>
        <time>2025-07-11T08:39:46.005000+02:00</time>
      </trkpt>
      <trkpt lat="46.2785" lon="-0.22849">
        <ele>117.7</ele>
        <time>2025-07-11T08:39:48.001000+02:00</time>
      </trkpt>
      <trkpt lat="46.27841" lon="-0.22859">
        <ele>117.7</ele>
        <time>2025-07-11T08:39:50+02:00</time>
      </trkpt>
      <trkpt lat="46.27837" lon="-0.22863">
        <ele>117.8</ele>
        <time>2025-07-11T08:39:51.001000+02:00</time>
      </trkpt>
      <trkpt lat="46.2783" lon="-0.2287">
        <ele>117.7</ele>
        <time>2025-07-11T08:39:53+02:00</time>
      </trkpt>
      <trkpt lat="46.27826" lon="-0.22875">
        <ele>117.6</ele>
        <time>2025-07-11T08:39:54.001000+02:00</time>
      </trkpt>
      <trkpt lat="46.27823" lon="-0.22879">
        <ele>117.6</ele>
        <time>2025-07-11T08:39:55.001000+02:00</time>
      </trkpt>
      <trkpt lat="46.27819" lon="-0.22883">
        <ele>117.6</ele>
        <time>2025-07-11T08:39:56.001000+02:00</time>
      </trkpt>
      <trkpt lat="46.27815" lon="-0.22888">
        <ele>117.7</ele>
        <time>2025-07-11T08:39:57.001000+02:00</time>
      </trkpt>
      <trkpt lat="46.27811" lon="-0.22892">
        <ele>117.7</ele>
        <time>2025-07-11T08:39:58.001000+02:00</time>
      </trkpt>
      <trkpt lat="46.27803" lon="-0.22902">
        <ele>117.5</ele>
        <time>2025-07-11T08:40:00.001000+02:00</time>
      </trkpt>
      <trkpt lat="46.27794" lon="-0.22911">
        <ele>117.1</ele>
        <time>2025-07-11T08:40:02.001000+02:00</time>
      </trkpt>
      <trkpt lat="46.2779" lon="-0.22915">
        <ele>117</ele>
        <time>2025-07-11T08:40:03.001000+02:00</time>
      </trkpt>
      <trkpt lat="46.27778" lon="-0.2292">
        <ele>117</ele>
        <time>2025-07-11T08:40:05.001000+02:00</time>
      </trkpt>
      <trkpt lat="46.27774" lon="-0.22924">
        <ele>117</ele>
        <time>2025-07-11T08:40:06.002000+02:00</time>
      </trkpt>
      <trkpt lat="46.27767" lon="-0.22935">
        <ele>117</ele>
        <time>2025-07-11T08:40:08+02:00</time>
      </trkpt>
      <trkpt lat="46.27763" lon="-0.2294">
        <ele>117</ele>
        <time>2025-07-11T08:40:09+02:00</time>
      </trkpt>
      <trkpt lat="46.27759" lon="-0.22945">
        <ele>117</ele>
        <time>2025-07-11T08:40:10.001000+02:00</time>
      </trkpt>
      <trkpt lat="46.27755" lon="-0.2295">
        <ele>117</ele>
        <time>2025-07-11T08:40:11.003000+02:00</time>
      </trkpt>
      <trkpt lat="46.27747" lon="-0.22959">
        <ele>116.9</ele>
        <time>2025-07-11T08:40:13.001000+02:00</time>
      </trkpt>
      <trkpt lat="46.27743" lon="-0.22964">
        <ele>116.7</ele>
        <time>2025-07-11T08:40:14.001000+02:00</time>
      </trkpt>
      <trkpt lat="46.27739" lon="-0.22968">
        <ele>116.6</ele>
        <time>2025-07-11T08:40:15.001000+02:00</time>
      </trkpt>
      <trkpt lat="46.27735" lon="-0.22973">
        <ele>116.5</ele>
        <time>2025-07-11T08:40:16.001000+02:00</time>
      </trkpt>
      <trkpt lat="46.27728" lon="-0.22983">
        <ele>116.4</ele>
        <time>2025-07-11T08:40:18.002000+02:00</time>
      </trkpt>
      <trkpt lat="46.2772" lon="-0.22991">
        <ele>116.6</ele>
        <time>2025-07-11T08:40:20+02:00</time>
      </trkpt>
      <trkpt lat="46.27717" lon="-0.22995">
        <ele>116.7</ele>
        <time>2025-07-11T08:40:21.001000+02:00</time>
      </trkpt>
      <trkpt lat="46.27709" lon="-0.23003">
        <ele>116.5</ele>
        <time>2025-07-11T08:40:23.001000+02:00</time>
      </trkpt>
      <trkpt lat="46.27703" lon="-0.2301">
        <ele>116.2</ele>
        <time>2025-07-11T08:40:25+02:00</time>
      </trkpt>
      <trkpt lat="46.27701" lon="-0.23013">
        <ele>116.1</ele>
        <time>2025-07-11T08:40:26.001000+02:00</time>
      </trkpt>
      <trkpt lat="46.27699" lon="-0.23016">
        <ele>116.1</ele>
        <time>2025-07-11T08:40:27.001000+02:00</time>
      </trkpt>
      <trkpt lat="46.27696" lon="-0.23022">
        <ele>116</ele>
        <time>2025-07-11T08:40:29+02:00</time>
      </trkpt>
      <trkpt lat="46.27694" lon="-0.23024">
        <ele>116</ele>
        <time>2025-07-11T08:40:30+02:00</time>
      </trkpt>
      <trkpt lat="46.27692" lon="-0.23026">
        <ele>116</ele>
        <time>2025-07-11T08:40:31+02:00</time>
      </trkpt>
      <trkpt lat="46.2769" lon="-0.23029">
        <ele>116</ele>
        <time>2025-07-11T08:40:32+02:00</time>
      </trkpt>
      <trkpt lat="46.27688" lon="-0.23032">
        <ele>116</ele>
        <time>2025-07-11T08:40:33+02:00</time>
      </trkpt>
      <trkpt lat="46.27683" lon="-0.23039">
        <ele>116</ele>
        <time>2025-07-11T08:40:35.002000+02:00</time>
      </trkpt>
      <trkpt lat="46.27678" lon="-0.23046">
        <ele>116</ele>
        <time>2025-07-11T08:40:37+02:00</time>
      </trkpt>
      <trkpt lat="46.27672" lon="-0.23053">
        <ele>116</ele>
        <time>2025-07-11T08:40:39.001000+02:00</time>
      </trkpt>
      <trkpt lat="46.27669" lon="-0.23056">
        <ele>116</ele>
        <time>2025-07-11T08:40:40.001000+02:00</time>
      </trkpt>
      <trkpt lat="46.27666" lon="-0.2306">
        <ele>116</ele>
        <time>2025-07-11T08:40:41.001000+02:00</time>
      </trkpt>
      <trkpt lat="46.27659" lon="-0.23066">
        <ele>116</ele>
        <time>2025-07-11T08:40:43.002000+02:00</time>
      </trkpt>
      <trkpt lat="46.27653" lon="-0.23074">
        <ele>116</ele>
        <time>2025-07-11T08:40:45.002000+02:00</time>
      </trkpt>
      <trkpt lat="46.27646" lon="-0.23082">
        <ele>116</ele>
        <time>2025-07-11T08:40:46.999000+02:00</time>
      </trkpt>
      <trkpt lat="46.27643" lon="-0.23086">
        <ele>116</ele>
        <time>2025-07-11T08:40:48.001000+02:00</time>
      </trkpt>
      <trkpt lat="46.27635" lon="-0.23093">
        <ele>116</ele>
        <time>2025-07-11T08:40:50.001000+02:00</time>
      </trkpt>
      <trkpt lat="46.27632" lon="-0.23097">
        <ele>116</ele>
        <time>2025-07-11T08:40:51.001000+02:00</time>
      </trkpt>
      <trkpt lat="46.27626" lon="-0.23105">
        <ele>116</ele>
        <time>2025-07-11T08:40:53.001000+02:00</time>
      </trkpt>
      <trkpt lat="46.27623" lon="-0.23108">
        <ele>116</ele>
        <time>2025-07-11T08:40:54.001000+02:00</time>
      </trkpt>
      <trkpt lat="46.27619" lon="-0.23112">
        <ele>116</ele>
        <time>2025-07-11T08:40:55.001000+02:00</time>
      </trkpt>
      <trkpt lat="46.27612" lon="-0.23119">
        <ele>116</ele>
        <time>2025-07-11T08:40:57+02:00</time>
      </trkpt>
      <trkpt lat="46.27609" lon="-0.2312">
        <ele>115.9</ele>
        <time>2025-07-11T08:40:58+02:00</time>
      </trkpt>
      <trkpt lat="46.27605" lon="-0.23125">
        <ele>115.8</ele>
        <time>2025-07-11T08:41:00.001000+02:00</time>
      </trkpt>
      <trkpt lat="46.27603" lon="-0.23128">
        <ele>115.7</ele>
        <time>2025-07-11T08:41:01.001000+02:00</time>
      </trkpt>
      <trkpt lat="46.27599" lon="-0.23134">
        <ele>115.6</ele>
        <time>2025-07-11T08:41:03.003000+02:00</time>
      </trkpt>
      <trkpt lat="46.27594" lon="-0.23141">
        <ele>115.4</ele>
        <time>2025-07-11T08:41:05+02:00</time>
      </trkpt>
      <trkpt lat="46.27588" lon="-0.23148">
        <ele>115.2</ele>
        <time>2025-07-11T08:41:07.002000+02:00</time>
      </trkpt>
      <trkpt lat="46.27582" lon="-0.23156">
        <ele>115</ele>
        <time>2025-07-11T08:41:09+02:00</time>
      </trkpt>
      <trkpt lat="46.27578" lon="-0.2316">
        <ele>115</ele>
        <time>2025-07-11T08:41:10+02:00</time>
      </trkpt>
      <trkpt lat="46.27575" lon="-0.23164">
        <ele>115</ele>
        <time>2025-07-11T08:41:11+02:00</time>
      </trkpt>
      <trkpt lat="46.27572" lon="-0.23168">
        <ele>115</ele>
        <time>2025-07-11T08:41:12.001000+02:00</time>
      </trkpt>
      <trkpt lat="46.27568" lon="-0.23173">
        <ele>115</ele>
        <time>2025-07-11T08:41:13.001000+02:00</time>
      </trkpt>
      <trkpt lat="46.27562" lon="-0.2318">
        <ele>115</ele>
        <time>2025-07-11T08:41:15.001000+02:00</time>
      </trkpt>
      <trkpt lat="46.27555" lon="-0.23188">
        <ele>115</ele>
        <time>2025-07-11T08:41:17.001000+02:00</time>
      </trkpt>
      <trkpt lat="46.27552" lon="-0.23192">
        <ele>114.9</ele>
        <time>2025-07-11T08:41:18.001000+02:00</time>
      </trkpt>
      <trkpt lat="46.27544" lon="-0.23201">
        <ele>114.7</ele>
        <time>2025-07-11T08:41:20+02:00</time>
      </trkpt>
      <trkpt lat="46.27541" lon="-0.23205">
        <ele>114.7</ele>
        <time>2025-07-11T08:41:21.001000+02:00</time>
      </trkpt>
      <trkpt lat="46.27538" lon="-0.23209">
        <ele>114.7</ele>
        <time>2025-07-11T08:41:22.001000+02:00</time>
      </trkpt>
      <trkpt lat="46.27531" lon="-0.23217">
        <ele>114.8</ele>
        <time>2025-07-11T08:41:24+02:00</time>
      </trkpt>
      <trkpt lat="46.27528" lon="-0.23221">
        <ele>114.9</ele>
        <time>2025-07-11T08:41:25+02:00</time>
      </trkpt>
      <trkpt lat="46.27521" lon="-0.23228">
        <ele>114.8</ele>
        <time>2025-07-11T08:41:27.001000+02:00</time>
      </trkpt>
      <trkpt lat="46.27514" lon="-0.23237">
        <ele>114.5</ele>
        <time>2025-07-11T08:41:29+02:00</time>
      </trkpt>
      <trkpt lat="46.27511" lon="-0.23241">
        <ele>114.4</ele>
        <time>2025-07-11T08:41:30.002000+02:00</time>
      </trkpt>
      <trkpt lat="46.27503" lon="-0.2325">
        <ele>114.1</ele>
        <time>2025-07-11T08:41:32.002000+02:00</time>
      </trkpt>
      <trkpt lat="46.27496" lon="-0.23258">
        <ele>113.7</ele>
        <time>2025-07-11T08:41:34.001000+02:00</time>
      </trkpt>
      <trkpt lat="46.27492" lon="-0.23263">
        <ele>113.5</ele>
        <time>2025-07-11T08:41:35.001000+02:00</time>
      </trkpt>
      <trkpt lat="46.27484" lon="-0.23271">
        <ele>113.3</ele>
        <time>2025-07-11T08:41:37+02:00</time>
      </trkpt>
      <trkpt lat="46.2748" lon="-0.23275">
        <ele>113.2</ele>
        <time>2025-07-11T08:41:38.001000+02:00</time>
      </trkpt>
      <trkpt lat="46.27473" lon="-0.23284">
        <ele>113</ele>
        <time>2025-07-11T08:41:40+02:00</time>
      </trkpt>
      <trkpt lat="46.27469" lon="-0.23288">
        <ele>112.9</ele>
        <time>2025-07-11T08:41:41.001000+02:00</time>
      </trkpt>
      <trkpt lat="46.27461" lon="-0.23296">
        <ele>112.6</ele>
        <time>2025-07-11T08:41:43.001000+02:00</time>
      </trkpt>
      <trkpt lat="46.27458" lon="-0.233">
        <ele>112.5</ele>
        <time>2025-07-11T08:41:44.001000+02:00</time>
      </trkpt>
      <trkpt lat="46.27451" lon="-0.23309">
        <ele>112.2</ele>
        <time>2025-07-11T08:41:46+02:00</time>
      </trkpt>
      <trkpt lat="46.27448" lon="-0.23313">
        <ele>112.1</ele>
        <time>2025-07-11T08:41:47+02:00</time>
      </trkpt>
      <trkpt lat="46.27444" lon="-0.23317">
        <ele>112</ele>
        <time>2025-07-11T08:41:48.001000+02:00</time>
      </trkpt>
      <trkpt lat="46.27437" lon="-0.23327">
        <ele>111.7</ele>
        <time>2025-07-11T08:41:50+02:00</time>
      </trkpt>
      <trkpt lat="46.27433" lon="-0.23331">
        <ele>111.6</ele>
        <time>2025-07-11T08:41:51+02:00</time>
      </trkpt>
      <trkpt lat="46.27429" lon="-0.23336">
        <ele>111.5</ele>
        <time>2025-07-11T08:41:52+02:00</time>
      </trkpt>
      <trkpt lat="46.27425" lon="-0.23341">
        <ele>111.3</ele>
        <time>2025-07-11T08:41:53+02:00</time>
      </trkpt>
      <trkpt lat="46.27418" lon="-0.2335">
        <ele>111</ele>
        <time>2025-07-11T08:41:55+02:00</time>
      </trkpt>
      <trkpt lat="46.27414" lon="-0.23354">
        <ele>110.9</ele>
        <time>2025-07-11T08:41:56.001000+02:00</time>
      </trkpt>
      <trkpt lat="46.2741" lon="-0.23359">
        <ele>110.7</ele>
        <time>2025-07-11T08:41:57.001000+02:00</time>
      </trkpt>
      <trkpt lat="46.27402" lon="-0.23369">
        <ele>110.5</ele>
        <time>2025-07-11T08:41:59+02:00</time>
      </trkpt>
      <trkpt lat="46.27397" lon="-0.23374">
        <ele>110.3</ele>
        <time>2025-07-11T08:42:00.001000+02:00</time>
      </trkpt>
      <trkpt lat="46.27393" lon="-0.2338">
        <ele>110.1</ele>
        <time>2025-07-11T08:42:01.001000+02:00</time>
      </trkpt>
      <trkpt lat="46.27384" lon="-0.23391">
        <ele>109.6</ele>
        <time>2025-07-11T08:42:03.001000+02:00</time>
      </trkpt>
      <trkpt lat="46.27379" lon="-0.23396">
        <ele>109.4</ele>
        <time>2025-07-11T08:42:04.001000+02:00</time>
      </trkpt>
      <trkpt lat="46.27375" lon="-0.23402">
        <ele>109.2</ele>
        <time>2025-07-11T08:42:05.001000+02:00</time>
      </trkpt>
      <trkpt lat="46.27367" lon="-0.23413">
        <ele>109.1</ele>
        <time>2025-07-11T08:42:07.001000+02:00</time>
      </trkpt>
      <trkpt lat="46.27363" lon="-0.23418">
        <ele>109.1</ele>
        <time>2025-07-11T08:42:08.001000+02:00</time>
      </trkpt>
      <trkpt lat="46.27358" lon="-0.23422">
        <ele>108.8</ele>
        <time>2025-07-11T08:42:09.001000+02:00</time>
      </trkpt>
      <trkpt lat="46.27354" lon="-0.23427">
        <ele>108.5</ele>
        <time>2025-07-11T08:42:10.002000+02:00</time>
      </trkpt>
      <trkpt lat="46.27346" lon="-0.23437">
        <ele>107.9</ele>
        <time>2025-07-11T08:42:12.002000+02:00</time>
      </trkpt>
      <trkpt lat="46.27337" lon="-0.23447">
        <ele>107.3</ele>
        <time>2025-07-11T08:42:14.001000+02:00</time>
      </trkpt>
      <trkpt lat="46.27333" lon="-0.23452">
        <ele>107</ele>
        <time>2025-07-11T08:42:15.002000+02:00</time>
      </trkpt>
      <trkpt lat="46.27324" lon="-0.23462">
        <ele>106.9</ele>
        <time>2025-07-11T08:42:17.001000+02:00</time>
      </trkpt>
      <trkpt lat="46.2732" lon="-0.23466">
        <ele>106.9</ele>
        <time>2025-07-11T08:42:18.001000+02:00</time>
      </trkpt>
      <trkpt lat="46.27315" lon="-0.2347">
        <ele>107</ele>
        <time>2025-07-11T08:42:19.002000+02:00</time>
      </trkpt>
      <trkpt lat="46.27307" lon="-0.23478">
        <ele>106.8</ele>
        <time>2025-07-11T08:42:21.003000+02:00</time>
      </trkpt>
      <trkpt lat="46.27299" lon="-0.23485">
        <ele>106.4</ele>
        <time>2025-07-11T08:42:23.001000+02:00</time>
      </trkpt>
      <trkpt lat="46.27296" lon="-0.23488">
        <ele>106.3</ele>
        <time>2025-07-11T08:42:24.001000+02:00</time>
      </trkpt>
      <trkpt lat="46.27292" lon="-0.23491">
        <ele>106.2</ele>
        <time>2025-07-11T08:42:25.002000+02:00</time>
      </trkpt>
      <trkpt lat="46.27285" lon="-0.23497">
        <ele>106</ele>
        <time>2025-07-11T08:42:27.002000+02:00</time>
      </trkpt>
      <trkpt lat="46.27282" lon="-0.23501">
        <ele>106</ele>
        <time>2025-07-11T08:42:28.003000+02:00</time>
      </trkpt>
      <trkpt lat="46.27275" lon="-0.23507">
        <ele>106</ele>
        <time>2025-07-11T08:42:30.001000+02:00</time>
      </trkpt>
      <trkpt lat="46.27272" lon="-0.23509">
        <ele>106</ele>
        <time>2025-07-11T08:42:31.002000+02:00</time>
      </trkpt>
      <trkpt lat="46.27268" lon="-0.23514">
        <ele>106</ele>
        <time>2025-07-11T08:42:33.001000+02:00</time>
      </trkpt>
      <trkpt lat="46.27265" lon="-0.23516">
        <ele>106</ele>
        <time>2025-07-11T08:42:34.001000+02:00</time>
      </trkpt>
      <trkpt lat="46.27263" lon="-0.23518">
        <ele>106</ele>
        <time>2025-07-11T08:42:35.001000+02:00</time>
      </trkpt>
      <trkpt lat="46.27262" lon="-0.23518">
        <ele>106</ele>
        <time>2025-07-11T08:42:37.001000+02:00</time>
      </trkpt>
      <trkpt lat="46.27262" lon="-0.23518">
        <ele>106</ele>
        <time>2025-07-11T08:42:38.001000+02:00</time>
      </trkpt>
      <trkpt lat="46.27262" lon="-0.23518">
        <ele>106</ele>
        <time>2025-07-11T08:42:39.001000+02:00</time>
      </trkpt>
      <trkpt lat="46.27262" lon="-0.23518">
        <ele>106</ele>
        <time>2025-07-11T08:42:40.001000+02:00</time>
      </trkpt>
      <trkpt lat="46.27262" lon="-0.23518">
        <ele>106</ele>
        <time>2025-07-11T08:42:41.001000+02:00</time>
      </trkpt>
      <trkpt lat="46.27262" lon="-0.23518">
        <ele>106</ele>
        <time>2025-07-11T08:42:42.002000+02:00</time>
      </trkpt>
      <trkpt lat="46.27259" lon="-0.23521">
        <ele>106</ele>
        <time>2025-07-11T08:43:03.002000+02:00</time>
      </trkpt>
      <trkpt lat="46.27254" lon="-0.23525">
        <ele>106</ele>
        <time>2025-07-11T08:43:05.001000+02:00</time>
      </trkpt>
      <trkpt lat="46.27252" lon="-0.23527">
        <ele>106</ele>
        <time>2025-07-11T08:43:06.001000+02:00</time>
      </trkpt>
      <trkpt lat="46.27248" lon="-0.23529">
        <ele>106</ele>
        <time>2025-07-11T08:43:07.001000+02:00</time>
      </trkpt>
      <trkpt lat="46.27245" lon="-0.23532">
        <ele>106</ele>
        <time>2025-07-11T08:43:08.001000+02:00</time>
      </trkpt>
      <trkpt lat="46.27242" lon="-0.23534">
        <ele>106.1</ele>
        <time>2025-07-11T08:43:09.003000+02:00</time>
      </trkpt>
      <trkpt lat="46.27234" lon="-0.2354">
        <ele>106.2</ele>
        <time>2025-07-11T08:43:11+02:00</time>
      </trkpt>
      <trkpt lat="46.27231" lon="-0.23543">
        <ele>106.4</ele>
        <time>2025-07-11T08:43:12.001000+02:00</time>
      </trkpt>
      <trkpt lat="46.27227" lon="-0.23546">
        <ele>106.5</ele>
        <time>2025-07-11T08:43:13.001000+02:00</time>
      </trkpt>
      <trkpt lat="46.27223" lon="-0.23548">
        <ele>106.7</ele>
        <time>2025-07-11T08:43:14.002000+02:00</time>
      </trkpt>
      <trkpt lat="46.27219" lon="-0.23551">
        <ele>106.9</ele>
        <time>2025-07-11T08:43:15.002000+02:00</time>
      </trkpt>
      <trkpt lat="46.27213" lon="-0.23557">
        <ele>107.3</ele>
        <time>2025-07-11T08:43:17.001000+02:00</time>
      </trkpt>
      <trkpt lat="46.27207" lon="-0.23564">
        <ele>107.6</ele>
        <time>2025-07-11T08:43:18.999000+02:00</time>
      </trkpt>
      <trkpt lat="46.27204" lon="-0.23567">
        <ele>107.7</ele>
        <time>2025-07-11T08:43:20.001000+02:00</time>
      </trkpt>
      <trkpt lat="46.272" lon="-0.23571">
        <ele>107.8</ele>
        <time>2025-07-11T08:43:21.002000+02:00</time>
      </trkpt>
      <trkpt lat="46.27194" lon="-0.23578">
        <ele>108</ele>
        <time>2025-07-11T08:43:23.001000+02:00</time>
      </trkpt>
      <trkpt lat="46.27191" lon="-0.23581">
        <ele>108.2</ele>
        <time>2025-07-11T08:43:24.002000+02:00</time>
      </trkpt>
      <trkpt lat="46.27185" lon="-0.23587">
        <ele>108.8</ele>
        <time>2025-07-11T08:43:26.002000+02:00</time>
      </trkpt>
      <trkpt lat="46.27181" lon="-0.23591">
        <ele>109.1</ele>
        <time>2025-07-11T08:43:27.002000+02:00</time>
      </trkpt>
      <trkpt lat="46.27175" lon="-0.23598">
        <ele>109.6</ele>
        <time>2025-07-11T08:43:29.002000+02:00</time>
      </trkpt>
      <trkpt lat="46.27169" lon="-0.23604">
        <ele>109.9</ele>
        <time>2025-07-11T08:43:31.001000+02:00</time>
      </trkpt>
      <trkpt lat="46.27166" lon="-0.23608">
        <ele>110</ele>
        <time>2025-07-11T08:43:32.002000+02:00</time>
      </trkpt>
      <trkpt lat="46.27163" lon="-0.23612">
        <ele>110.1</ele>
        <time>2025-07-11T08:43:33.004000+02:00</time>
      </trkpt>
      <trkpt lat="46.27157" lon="-0.23619">
        <ele>110.3</ele>
        <time>2025-07-11T08:43:35.002000+02:00</time>
      </trkpt>
      <trkpt lat="46.2715" lon="-0.23626">
        <ele>110.3</ele>
        <time>2025-07-11T08:43:37.001000+02:00</time>
      </trkpt>
      <trkpt lat="46.27147" lon="-0.23629">
        <ele>110.2</ele>
        <time>2025-07-11T08:43:38.001000+02:00</time>
      </trkpt>
      <trkpt lat="46.27143" lon="-0.23633">
        <ele>110.2</ele>
        <time>2025-07-11T08:43:39.002000+02:00</time>
      </trkpt>
      <trkpt lat="46.27137" lon="-0.2364">
        <ele>110.2</ele>
        <time>2025-07-11T08:43:41.001000+02:00</time>
      </trkpt>
      <trkpt lat="46.27134" lon="-0.23643">
        <ele>110.4</ele>
        <time>2025-07-11T08:43:42.001000+02:00</time>
      </trkpt>
      <trkpt lat="46.27131" lon="-0.23647">
        <ele>110.7</ele>
        <time>2025-07-11T08:43:43.001000+02:00</time>
      </trkpt>
      <trkpt lat="46.27127" lon="-0.2365">
        <ele>110.9</ele>
        <time>2025-07-11T08:43:44.001000+02:00</time>
      </trkpt>
      <trkpt lat="46.27121" lon="-0.23657">
        <ele>111.1</ele>
        <time>2025-07-11T08:43:46.001000+02:00</time>
      </trkpt>
      <trkpt lat="46.27118" lon="-0.23661">
        <ele>111.1</ele>
        <time>2025-07-11T08:43:47.001000+02:00</time>
      </trkpt>
      <trkpt lat="46.27115" lon="-0.23664">
        <ele>111.1</ele>
        <time>2025-07-11T08:43:48.001000+02:00</time>
      </trkpt>
      <trkpt lat="46.27111" lon="-0.23668">
        <ele>111</ele>
        <time>2025-07-11T08:43:49.001000+02:00</time>
      </trkpt>
      <trkpt lat="46.27108" lon="-0.23671">
        <ele>111.1</ele>
        <time>2025-07-11T08:43:50.001000+02:00</time>
      </trkpt>
      <trkpt lat="46.27105" lon="-0.23675">
        <ele>111.2</ele>
        <time>2025-07-11T08:43:51.002000+02:00</time>
      </trkpt>
      <trkpt lat="46.27099" lon="-0.23681">
        <ele>111.4</ele>
        <time>2025-07-11T08:43:53.001000+02:00</time>
      </trkpt>
      <trkpt lat="46.27094" lon="-0.23688">
        <ele>111.6</ele>
        <time>2025-07-11T08:43:55.004000+02:00</time>
      </trkpt>
      <trkpt lat="46.27089" lon="-0.23695">
        <ele>111.8</ele>
        <time>2025-07-11T08:43:57.001000+02:00</time>
      </trkpt>
      <trkpt lat="46.27082" lon="-0.23703">
        <ele>111.7</ele>
        <time>2025-07-11T08:43:59.001000+02:00</time>
      </trkpt>
      <trkpt lat="46.2708" lon="-0.23706">
        <ele>111.7</ele>
        <time>2025-07-11T08:44:00.001000+02:00</time>
      </trkpt>
      <trkpt lat="46.27077" lon="-0.23711">
        <ele>111.7</ele>
        <time>2025-07-11T08:44:01.001000+02:00</time>
      </trkpt>
      <trkpt lat="46.27074" lon="-0.23715">
        <ele>111.6</ele>
        <time>2025-07-11T08:44:02.001000+02:00</time>
      </trkpt>
      <trkpt lat="46.27071" lon="-0.23719">
        <ele>111.6</ele>
        <time>2025-07-11T08:44:03.002000+02:00</time>
      </trkpt>
      <trkpt lat="46.27065" lon="-0.23726">
        <ele>111.7</ele>
        <time>2025-07-11T08:44:05.001000+02:00</time>
      </trkpt>
      <trkpt lat="46.27061" lon="-0.2373">
        <ele>111.8</ele>
        <time>2025-07-11T08:44:06.001000+02:00</time>
      </trkpt>
      <trkpt lat="46.27058" lon="-0.23734">
        <ele>111.9</ele>
        <time>2025-07-11T08:44:07.001000+02:00</time>
      </trkpt>
      <trkpt lat="46.27056" lon="-0.23738">
        <ele>112</ele>
        <time>2025-07-11T08:44:08.001000+02:00</time>
      </trkpt>
      <trkpt lat="46.27052" lon="-0.23742">
        <ele>112.1</ele>
        <time>2025-07-11T08:44:09.001000+02:00</time>
      </trkpt>
      <trkpt lat="46.27049" lon="-0.23746">
        <ele>112.2</ele>
        <time>2025-07-11T08:44:10.001000+02:00</time>
      </trkpt>
      <trkpt lat="46.27042" lon="-0.23754">
        <ele>112.3</ele>
        <time>2025-07-11T08:44:12.001000+02:00</time>
      </trkpt>
      <trkpt lat="46.27039" lon="-0.23758">
        <ele>112.1</ele>
        <time>2025-07-11T08:44:13.001000+02:00</time>
      </trkpt>
      <trkpt lat="46.27035" lon="-0.23762">
        <ele>112</ele>
        <time>2025-07-11T08:44:14.001000+02:00</time>
      </trkpt>
      <trkpt lat="46.27031" lon="-0.23767">
        <ele>111.8</ele>
        <time>2025-07-11T08:44:15.001000+02:00</time>
      </trkpt>
      <trkpt lat="46.27024" lon="-0.23776">
        <ele>111.4</ele>
        <time>2025-07-11T08:44:17.001000+02:00</time>
      </trkpt>
      <trkpt lat="46.27021" lon="-0.23781">
        <ele>111.5</ele>
        <time>2025-07-11T08:44:18.001000+02:00</time>
      </trkpt>
      <trkpt lat="46.27018" lon="-0.23786">
        <ele>111.7</ele>
        <time>2025-07-11T08:44:19.001000+02:00</time>
      </trkpt>
      <trkpt lat="46.27015" lon="-0.23791">
        <ele>111.9</ele>
        <time>2025-07-11T08:44:20.003000+02:00</time>
      </trkpt>
      <trkpt lat="46.27009" lon="-0.238">
        <ele>112.3</ele>
        <time>2025-07-11T08:44:22.002000+02:00</time>
      </trkpt>
      <trkpt lat="46.27007" lon="-0.23805">
        <ele>112.5</ele>
        <time>2025-07-11T08:44:23.002000+02:00</time>
      </trkpt>
      <trkpt lat="46.27002" lon="-0.23815">
        <ele>112.6</ele>
        <time>2025-07-11T08:44:25.001000+02:00</time>
      </trkpt>
      <trkpt lat="46.26999" lon="-0.2382">
        <ele>112.5</ele>
        <time>2025-07-11T08:44:26.001000+02:00</time>
      </trkpt>
      <trkpt lat="46.26997" lon="-0.23825">
        <ele>112.5</ele>
        <time>2025-07-11T08:44:27.001000+02:00</time>
      </trkpt>
      <trkpt lat="46.26995" lon="-0.23831">
        <ele>112.4</ele>
        <time>2025-07-11T08:44:28.001000+02:00</time>
      </trkpt>
      <trkpt lat="46.26994" lon="-0.23842">
        <ele>112.7</ele>
        <time>2025-07-11T08:44:30.001000+02:00</time>
      </trkpt>
      <trkpt lat="46.26994" lon="-0.23848">
        <ele>112.8</ele>
        <time>2025-07-11T08:44:31.003000+02:00</time>
      </trkpt>
      <trkpt lat="46.26994" lon="-0.2386">
        <ele>113.2</ele>
        <time>2025-07-11T08:44:33+02:00</time>
      </trkpt>
      <trkpt lat="46.26995" lon="-0.23865">
        <ele>113.2</ele>
        <time>2025-07-11T08:44:34+02:00</time>
      </trkpt>
      <trkpt lat="46.26995" lon="-0.23871">
        <ele>113.2</ele>
        <time>2025-07-11T08:44:35.001000+02:00</time>
      </trkpt>
      <trkpt lat="46.26995" lon="-0.23876">
        <ele>113.2</ele>
        <time>2025-07-11T08:44:36.001000+02:00</time>
      </trkpt>
      <trkpt lat="46.26996" lon="-0.23881">
        <ele>113.1</ele>
        <time>2025-07-11T08:44:37.001000+02:00</time>
      </trkpt>
      <trkpt lat="46.26996" lon="-0.23887">
        <ele>113.1</ele>
        <time>2025-07-11T08:44:38.001000+02:00</time>
      </trkpt>
      <trkpt lat="46.26997" lon="-0.23893">
        <ele>113.1</ele>
        <time>2025-07-11T08:44:39.001000+02:00</time>
      </trkpt>
      <trkpt lat="46.26997" lon="-0.23899">
        <ele>113.1</ele>
        <time>2025-07-11T08:44:40.001000+02:00</time>
      </trkpt>
      <trkpt lat="46.26997" lon="-0.23905">
        <ele>113.1</ele>
        <time>2025-07-11T08:44:41.001000+02:00</time>
      </trkpt>
      <trkpt lat="46.26997" lon="-0.23912">
        <ele>113.1</ele>
        <time>2025-07-11T08:44:42.001000+02:00</time>
      </trkpt>
      <trkpt lat="46.26996" lon="-0.23919">
        <ele>113.1</ele>
        <time>2025-07-11T08:44:43.001000+02:00</time>
      </trkpt>
      <trkpt lat="46.26996" lon="-0.23925">
        <ele>112.9</ele>
        <time>2025-07-11T08:44:44.002000+02:00</time>
      </trkpt>
      <trkpt lat="46.26995" lon="-0.23931">
        <ele>112.6</ele>
        <time>2025-07-11T08:44:45.003000+02:00</time>
      </trkpt>
      <trkpt lat="46.26994" lon="-0.23943">
        <ele>112.2</ele>
        <time>2025-07-11T08:44:47+02:00</time>
      </trkpt>
      <trkpt lat="46.26994" lon="-0.23949">
        <ele>112.2</ele>
        <time>2025-07-11T08:44:48+02:00</time>
      </trkpt>
      <trkpt lat="46.26993" lon="-0.23954">
        <ele>112.3</ele>
        <time>2025-07-11T08:44:49.001000+02:00</time>
      </trkpt>
      <trkpt lat="46.26991" lon="-0.23965">
        <ele>112.3</ele>
        <time>2025-07-11T08:44:51.002000+02:00</time>
      </trkpt>
      <trkpt lat="46.2699" lon="-0.23977">
        <ele>112.4</ele>
        <time>2025-07-11T08:44:53+02:00</time>
      </trkpt>
      <trkpt lat="46.26989" lon="-0.23982">
        <ele>112.5</ele>
        <time>2025-07-11T08:44:54.001000+02:00</time>
      </trkpt>
      <trkpt lat="46.26988" lon="-0.23987">
        <ele>112.6</ele>
        <time>2025-07-11T08:44:55.001000+02:00</time>
      </trkpt>
      <trkpt lat="46.26988" lon="-0.23992">
        <ele>112.8</ele>
        <time>2025-07-11T08:44:56.002000+02:00</time>
      </trkpt>
      <trkpt lat="46.26987" lon="-0.23997">
        <ele>112.9</ele>
        <time>2025-07-11T08:44:57.003000+02:00</time>
      </trkpt>
      <trkpt lat="46.26988" lon="-0.24007">
        <ele>113</ele>
        <time>2025-07-11T08:44:59.002000+02:00</time>
      </trkpt>
      <trkpt lat="46.26987" lon="-0.24017">
        <ele>113.2</ele>
        <time>2025-07-11T08:45:01.001000+02:00</time>
      </trkpt>
      <trkpt lat="46.26986" lon="-0.24022">
        <ele>113.4</ele>
        <time>2025-07-11T08:45:02.001000+02:00</time>
      </trkpt>
      <trkpt lat="46.26985" lon="-0.24028">
        <ele>113.5</ele>
        <time>2025-07-11T08:45:03.002000+02:00</time>
      </trkpt>
      <trkpt lat="46.26983" lon="-0.24037">
        <ele>113.6</ele>
        <time>2025-07-11T08:45:05.001000+02:00</time>
      </trkpt>
      <trkpt lat="46.26981" lon="-0.24045">
        <ele>113.7</ele>
        <time>2025-07-11T08:45:07.002000+02:00</time>
      </trkpt>
      <trkpt lat="46.26978" lon="-0.24054">
        <ele>113.8</ele>
        <time>2025-07-11T08:45:09.001000+02:00</time>
      </trkpt>
      <trkpt lat="46.26976" lon="-0.24058">
        <ele>113.9</ele>
        <time>2025-07-11T08:45:10.001000+02:00</time>
      </trkpt>
      <trkpt lat="46.26975" lon="-0.24062">
        <ele>113.9</ele>
        <time>2025-07-11T08:45:11.001000+02:00</time>
      </trkpt>
      <trkpt lat="46.26973" lon="-0.24066">
        <ele>114</ele>
        <time>2025-07-11T08:45:12.001000+02:00</time>
      </trkpt>
      <trkpt lat="46.26971" lon="-0.24071">
        <ele>114.1</ele>
        <time>2025-07-11T08:45:13.001000+02:00</time>
      </trkpt>
      <trkpt lat="46.26968" lon="-0.24077">
        <ele>114.2</ele>
        <time>2025-07-11T08:45:14.001000+02:00</time>
      </trkpt>
      <trkpt lat="46.26966" lon="-0.24082">
        <ele>114.3</ele>
        <time>2025-07-11T08:45:15.002000+02:00</time>
      </trkpt>
      <trkpt lat="46.26963" lon="-0.24086">
        <ele>114.3</ele>
        <time>2025-07-11T08:45:16.002000+02:00</time>
      </trkpt>
      <trkpt lat="46.26961" lon="-0.2409">
        <ele>114.3</ele>
        <time>2025-07-11T08:45:17.002000+02:00</time>
      </trkpt>
      <trkpt lat="46.26955" lon="-0.241">
        <ele>114.4</ele>
        <time>2025-07-11T08:45:19.001000+02:00</time>
      </trkpt>
      <trkpt lat="46.26953" lon="-0.24104">
        <ele>114.5</ele>
        <time>2025-07-11T08:45:20.001000+02:00</time>
      </trkpt>
      <trkpt lat="46.26951" lon="-0.24108">
        <ele>114.6</ele>
        <time>2025-07-11T08:45:21.003000+02:00</time>
      </trkpt>
      <trkpt lat="46.26946" lon="-0.24116">
        <ele>114.7</ele>
        <time>2025-07-11T08:45:23+02:00</time>
      </trkpt>
      <trkpt lat="46.26944" lon="-0.2412">
        <ele>114.7</ele>
        <time>2025-07-11T08:45:24.001000+02:00</time>
      </trkpt>
      <trkpt lat="46.26941" lon="-0.24125">
        <ele>114.6</ele>
        <time>2025-07-11T08:45:25.001000+02:00</time>
      </trkpt>
      <trkpt lat="46.26938" lon="-0.24129">
        <ele>114.5</ele>
        <time>2025-07-11T08:45:26.002000+02:00</time>
      </trkpt>
      <trkpt lat="46.26935" lon="-0.24133">
        <ele>114.5</ele>
        <time>2025-07-11T08:45:27.002000+02:00</time>
      </trkpt>
      <trkpt lat="46.26929" lon="-0.24141">
        <ele>114.5</ele>
        <time>2025-07-11T08:45:29.001000+02:00</time>
      </trkpt>
      <trkpt lat="46.26925" lon="-0.24145">
        <ele>114.5</ele>
        <time>2025-07-11T08:45:30.001000+02:00</time>
      </trkpt>
      <trkpt lat="46.26919" lon="-0.24153">
        <ele>114.4</ele>
        <time>2025-07-11T08:45:32.001000+02:00</time>
      </trkpt>
      <trkpt lat="46.26916" lon="-0.24157">
        <ele>114.3</ele>
        <time>2025-07-11T08:45:33.002000+02:00</time>
      </trkpt>
      <trkpt lat="46.26913" lon="-0.24162">
        <ele>114.3</ele>
        <time>2025-07-11T08:45:34.002000+02:00</time>
      </trkpt>
      <trkpt lat="46.26908" lon="-0.2417">
        <ele>114.3</ele>
        <time>2025-07-11T08:45:36.004000+02:00</time>
      </trkpt>
      <trkpt lat="46.26901" lon="-0.24178">
        <ele>114.6</ele>
        <time>2025-07-11T08:45:38.001000+02:00</time>
      </trkpt>
      <trkpt lat="46.26898" lon="-0.24182">
        <ele>114.7</ele>
        <time>2025-07-11T08:45:39.001000+02:00</time>
      </trkpt>
      <trkpt lat="46.26892" lon="-0.2419">
        <ele>114.9</ele>
        <time>2025-07-11T08:45:41.001000+02:00</time>
      </trkpt>
      <trkpt lat="46.26889" lon="-0.24194">
        <ele>115</ele>
        <time>2025-07-11T08:45:42.001000+02:00</time>
      </trkpt>
      <trkpt lat="46.26886" lon="-0.24198">
        <ele>115</ele>
        <time>2025-07-11T08:45:43.001000+02:00</time>
      </trkpt>
      <trkpt lat="46.26884" lon="-0.24202">
        <ele>114.9</ele>
        <time>2025-07-11T08:45:44.001000+02:00</time>
      </trkpt>
      <trkpt lat="46.26881" lon="-0.24205">
        <ele>114.9</ele>
        <time>2025-07-11T08:45:45.001000+02:00</time>
      </trkpt>
      <trkpt lat="46.26878" lon="-0.24208">
        <ele>114.9</ele>
        <time>2025-07-11T08:45:46.002000+02:00</time>
      </trkpt>
      <trkpt lat="46.26875" lon="-0.24208">
        <ele>115</ele>
        <time>2025-07-11T08:45:47.002000+02:00</time>
      </trkpt>
      <trkpt lat="46.26868" lon="-0.24207">
        <ele>115.3</ele>
        <time>2025-07-11T08:45:49.001000+02:00</time>
      </trkpt>
      <trkpt lat="46.26865" lon="-0.24204">
        <ele>115.5</ele>
        <time>2025-07-11T08:45:50.001000+02:00</time>
      </trkpt>
      <trkpt lat="46.26861" lon="-0.24203">
        <ele>115.7</ele>
        <time>2025-07-11T08:45:51.005000+02:00</time>
      </trkpt>
      <trkpt lat="46.26854" lon="-0.242">
        <ele>115.9</ele>
        <time>2025-07-11T08:45:53.001000+02:00</time>
      </trkpt>
      <trkpt lat="46.26846" lon="-0.24197">
        <ele>116</ele>
        <time>2025-07-11T08:45:55.001000+02:00</time>
      </trkpt>
      <trkpt lat="46.26843" lon="-0.24196">
        <ele>116</ele>
        <time>2025-07-11T08:45:56.001000+02:00</time>
      </trkpt>
      <trkpt lat="46.26839" lon="-0.24195">
        <ele>116</ele>
        <time>2025-07-11T08:45:57.001000+02:00</time>
      </trkpt>
      <trkpt lat="46.26832" lon="-0.24191">
        <ele>116.4</ele>
        <time>2025-07-11T08:45:59.001000+02:00</time>
      </trkpt>
      <trkpt lat="46.26829" lon="-0.24189">
        <ele>116.9</ele>
        <time>2025-07-11T08:46:00.002000+02:00</time>
      </trkpt>
      <trkpt lat="46.26821" lon="-0.24186">
        <ele>117.7</ele>
        <time>2025-07-11T08:46:02.002000+02:00</time>
      </trkpt>
      <trkpt lat="46.26815" lon="-0.24182">
        <ele>118.3</ele>
        <time>2025-07-11T08:46:04.001000+02:00</time>
      </trkpt>
      <trkpt lat="46.26808" lon="-0.24181">
        <ele>118.8</ele>
        <time>2025-07-11T08:46:06.001000+02:00</time>
      </trkpt>
      <trkpt lat="46.26805" lon="-0.2418">
        <ele>119</ele>
        <time>2025-07-11T08:46:07.002000+02:00</time>
      </trkpt>
      <trkpt lat="46.26798" lon="-0.24178">
        <ele>119.1</ele>
        <time>2025-07-11T08:46:09.001000+02:00</time>
      </trkpt>
      <trkpt lat="46.26791" lon="-0.24174">
        <ele>119.1</ele>
        <time>2025-07-11T08:46:11.001000+02:00</time>
      </trkpt>
      <trkpt lat="46.26784" lon="-0.24172">
        <ele>119.2</ele>
        <time>2025-07-11T08:46:13+02:00</time>
      </trkpt>
      <trkpt lat="46.26776" lon="-0.24173">
        <ele>119.3</ele>
        <time>2025-07-11T08:46:15.001000+02:00</time>
      </trkpt>
      <trkpt lat="46.26773" lon="-0.24176">
        <ele>119.4</ele>
        <time>2025-07-11T08:46:16.002000+02:00</time>
      </trkpt>
      <trkpt lat="46.26767" lon="-0.24183">
        <ele>119.7</ele>
        <time>2025-07-11T08:46:18.002000+02:00</time>
      </trkpt>
      <trkpt lat="46.2676" lon="-0.24191">
        <ele>120</ele>
        <time>2025-07-11T08:46:20.001000+02:00</time>
      </trkpt>
      <trkpt lat="46.26757" lon="-0.24195">
        <ele>120</ele>
        <time>2025-07-11T08:46:21.001000+02:00</time>
      </trkpt>
      <trkpt lat="46.26754" lon="-0.24199">
        <ele>120</ele>
        <time>2025-07-11T08:46:22.002000+02:00</time>
      </trkpt>
      <trkpt lat="46.2675" lon="-0.24203">
        <ele>120</ele>
        <time>2025-07-11T08:46:23.003000+02:00</time>
      </trkpt>
      <trkpt lat="46.26743" lon="-0.24211">
        <ele>119.9</ele>
        <time>2025-07-11T08:46:25.001000+02:00</time>
      </trkpt>
      <trkpt lat="46.26739" lon="-0.24215">
        <ele>119.9</ele>
        <time>2025-07-11T08:46:26.001000+02:00</time>
      </trkpt>
      <trkpt lat="46.26736" lon="-0.24219">
        <ele>119.9</ele>
        <time>2025-07-11T08:46:27.002000+02:00</time>
      </trkpt>
      <trkpt lat="46.26728" lon="-0.24226">
        <ele>120</ele>
        <time>2025-07-11T08:46:29+02:00</time>
      </trkpt>
      <trkpt lat="46.26725" lon="-0.24229">
        <ele>120</ele>
        <time>2025-07-11T08:46:30.001000+02:00</time>
      </trkpt>
      <trkpt lat="46.26721" lon="-0.24233">
        <ele>120</ele>
        <time>2025-07-11T08:46:31.002000+02:00</time>
      </trkpt>
      <trkpt lat="46.26714" lon="-0.24239">
        <ele>119.9</ele>
        <time>2025-07-11T08:46:33.001000+02:00</time>
      </trkpt>
      <trkpt lat="46.26711" lon="-0.24242">
        <ele>119.9</ele>
        <time>2025-07-11T08:46:34.001000+02:00</time>
      </trkpt>
      <trkpt lat="46.26708" lon="-0.24246">
        <ele>119.9</ele>
        <time>2025-07-11T08:46:35.001000+02:00</time>
      </trkpt>
      <trkpt lat="46.26705" lon="-0.2425">
        <ele>120</ele>
        <time>2025-07-11T08:46:36.001000+02:00</time>
      </trkpt>
      <trkpt lat="46.26698" lon="-0.24257">
        <ele>120</ele>
        <time>2025-07-11T08:46:38.001000+02:00</time>
      </trkpt>
      <trkpt lat="46.2669" lon="-0.24264">
        <ele>120</ele>
        <time>2025-07-11T08:46:40.001000+02:00</time>
      </trkpt>
      <trkpt lat="46.26684" lon="-0.2427">
        <ele>120</ele>
        <time>2025-07-11T08:46:42.001000+02:00</time>
      </trkpt>
      <trkpt lat="46.26681" lon="-0.24274">
        <ele>120</ele>
        <time>2025-07-11T08:46:43.001000+02:00</time>
      </trkpt>
      <trkpt lat="46.26677" lon="-0.24277">
        <ele>120</ele>
        <time>2025-07-11T08:46:44.001000+02:00</time>
      </trkpt>
      <trkpt lat="46.26674" lon="-0.2428">
        <ele>120</ele>
        <time>2025-07-11T08:46:45.001000+02:00</time>
      </trkpt>
      <trkpt lat="46.26671" lon="-0.24283">
        <ele>120</ele>
        <time>2025-07-11T08:46:46.001000+02:00</time>
      </trkpt>
      <trkpt lat="46.26663" lon="-0.2429">
        <ele>119.9</ele>
        <time>2025-07-11T08:46:48+02:00</time>
      </trkpt>
      <trkpt lat="46.26659" lon="-0.24294">
        <ele>119.7</ele>
        <time>2025-07-11T08:46:49.001000+02:00</time>
      </trkpt>
      <trkpt lat="46.26651" lon="-0.24301">
        <ele>119.4</ele>
        <time>2025-07-11T08:46:51.002000+02:00</time>
      </trkpt>
      <trkpt lat="46.26646" lon="-0.24305">
        <ele>119.3</ele>
        <time>2025-07-11T08:46:52.002000+02:00</time>
      </trkpt>
      <trkpt lat="46.26638" lon="-0.24313">
        <ele>119</ele>
        <time>2025-07-11T08:46:54.001000+02:00</time>
      </trkpt>
      <trkpt lat="46.26633" lon="-0.24316">
        <ele>119</ele>
        <time>2025-07-11T08:46:55.002000+02:00</time>
      </trkpt>
      <trkpt lat="46.26625" lon="-0.24324">
        <ele>119</ele>
        <time>2025-07-11T08:46:57.001000+02:00</time>
      </trkpt>
      <trkpt lat="46.26616" lon="-0.24331">
        <ele>119</ele>
        <time>2025-07-11T08:46:59.001000+02:00</time>
      </trkpt>
      <trkpt lat="46.26609" lon="-0.24338">
        <ele>118.8</ele>
        <time>2025-07-11T08:47:01+02:00</time>
      </trkpt>
      <trkpt lat="46.26605" lon="-0.24342">
        <ele>118.7</ele>
        <time>2025-07-11T08:47:02.002000+02:00</time>
      </trkpt>
      <trkpt lat="46.26601" lon="-0.24345">
        <ele>118.6</ele>
        <time>2025-07-11T08:47:03.003000+02:00</time>
      </trkpt>
      <trkpt lat="46.26594" lon="-0.24351">
        <ele>118.4</ele>
        <time>2025-07-11T08:47:05+02:00</time>
      </trkpt>
      <trkpt lat="46.2659" lon="-0.24353">
        <ele>118.3</ele>
        <time>2025-07-11T08:47:06+02:00</time>
      </trkpt>
      <trkpt lat="46.26586" lon="-0.24357">
        <ele>118.2</ele>
        <time>2025-07-11T08:47:07.001000+02:00</time>
      </trkpt>
      <trkpt lat="46.26578" lon="-0.24362">
        <ele>118</ele>
        <time>2025-07-11T08:47:09.002000+02:00</time>
      </trkpt>
      <trkpt lat="46.2657" lon="-0.24367">
        <ele>117.8</ele>
        <time>2025-07-11T08:47:11+02:00</time>
      </trkpt>
      <trkpt lat="46.26567" lon="-0.24369">
        <ele>117.7</ele>
        <time>2025-07-11T08:47:12.002000+02:00</time>
      </trkpt>
      <trkpt lat="46.26559" lon="-0.24373">
        <ele>117.6</ele>
        <time>2025-07-11T08:47:14.001000+02:00</time>
      </trkpt>
      <trkpt lat="46.26554" lon="-0.24375">
        <ele>117.5</ele>
        <time>2025-07-11T08:47:15.002000+02:00</time>
      </trkpt>
      <trkpt lat="46.26546" lon="-0.24379">
        <ele>117.4</ele>
        <time>2025-07-11T08:47:17.002000+02:00</time>
      </trkpt>
      <trkpt lat="46.26541" lon="-0.24381">
        <ele>117.3</ele>
        <time>2025-07-11T08:47:18.002000+02:00</time>
      </trkpt>
      <trkpt lat="46.26532" lon="-0.24385">
        <ele>117.2</ele>
        <time>2025-07-11T08:47:20.001000+02:00</time>
      </trkpt>
      <trkpt lat="46.26527" lon="-0.24386">
        <ele>117.1</ele>
        <time>2025-07-11T08:47:21.001000+02:00</time>
      </trkpt>
      <trkpt lat="46.26523" lon="-0.24388">
        <ele>117</ele>
        <time>2025-07-11T08:47:22.001000+02:00</time>
      </trkpt>
      <trkpt lat="46.26513" lon="-0.24392">
        <ele>116.9</ele>
        <time>2025-07-11T08:47:24.001000+02:00</time>
      </trkpt>
      <trkpt lat="46.26504" lon="-0.24396">
        <ele>116.8</ele>
        <time>2025-07-11T08:47:26.001000+02:00</time>
      </trkpt>
      <trkpt lat="46.26499" lon="-0.24398">
        <ele>116.7</ele>
        <time>2025-07-11T08:47:27.001000+02:00</time>
      </trkpt>
      <trkpt lat="46.2649" lon="-0.24403">
        <ele>116.3</ele>
        <time>2025-07-11T08:47:29.002000+02:00</time>
      </trkpt>
      <trkpt lat="46.26482" lon="-0.24409">
        <ele>116.1</ele>
        <time>2025-07-11T08:47:31.002000+02:00</time>
      </trkpt>
      <trkpt lat="46.26478" lon="-0.24413">
        <ele>116</ele>
        <time>2025-07-11T08:47:32.002000+02:00</time>
      </trkpt>
      <trkpt lat="46.2647" lon="-0.24421">
        <ele>116</ele>
        <time>2025-07-11T08:47:34.001000+02:00</time>
      </trkpt>
      <trkpt lat="46.26465" lon="-0.24425">
        <ele>116</ele>
        <time>2025-07-11T08:47:35.001000+02:00</time>
      </trkpt>
      <trkpt lat="46.26461" lon="-0.24429">
        <ele>116</ele>
        <time>2025-07-11T08:47:36.001000+02:00</time>
      </trkpt>
      <trkpt lat="46.26457" lon="-0.24434">
        <ele>116</ele>
        <time>2025-07-11T08:47:37.005000+02:00</time>
      </trkpt>
      <trkpt lat="46.26449" lon="-0.24443">
        <ele>116</ele>
        <time>2025-07-11T08:47:39.001000+02:00</time>
      </trkpt>
      <trkpt lat="46.26445" lon="-0.24447">
        <ele>116</ele>
        <time>2025-07-11T08:47:40.001000+02:00</time>
      </trkpt>
      <trkpt lat="46.26441" lon="-0.24451">
        <ele>115.9</ele>
        <time>2025-07-11T08:47:41.001000+02:00</time>
      </trkpt>
      <trkpt lat="46.26433" lon="-0.24462">
        <ele>115.6</ele>
        <time>2025-07-11T08:47:43.001000+02:00</time>
      </trkpt>
      <trkpt lat="46.26429" lon="-0.24467">
        <ele>115.4</ele>
        <time>2025-07-11T08:47:44.001000+02:00</time>
      </trkpt>
      <trkpt lat="46.26425" lon="-0.24473">
        <ele>115.3</ele>
        <time>2025-07-11T08:47:45.001000+02:00</time>
      </trkpt>
      <trkpt lat="46.26421" lon="-0.24478">
        <ele>115.1</ele>
        <time>2025-07-11T08:47:46.001000+02:00</time>
      </trkpt>
      <trkpt lat="46.26417" lon="-0.24484">
        <ele>115</ele>
        <time>2025-07-11T08:47:47.001000+02:00</time>
      </trkpt>
      <trkpt lat="46.26412" lon="-0.2449">
        <ele>114.8</ele>
        <time>2025-07-11T08:47:48.001000+02:00</time>
      </trkpt>
      <trkpt lat="46.26404" lon="-0.24502">
        <ele>114.5</ele>
        <time>2025-07-11T08:47:50.001000+02:00</time>
      </trkpt>
      <trkpt lat="46.264" lon="-0.24509">
        <ele>114.1</ele>
        <time>2025-07-11T08:47:51.002000+02:00</time>
      </trkpt>
      <trkpt lat="46.26392" lon="-0.24522">
        <ele>113.3</ele>
        <time>2025-07-11T08:47:53+02:00</time>
      </trkpt>
      <trkpt lat="46.26388" lon="-0.24528">
        <ele>113</ele>
        <time>2025-07-11T08:47:54+02:00</time>
      </trkpt>
      <trkpt lat="46.26385" lon="-0.24535">
        <ele>113</ele>
        <time>2025-07-11T08:47:55.001000+02:00</time>
      </trkpt>
      <trkpt lat="46.26377" lon="-0.24547">
        <ele>113</ele>
        <time>2025-07-11T08:47:57.003000+02:00</time>
      </trkpt>
      <trkpt lat="46.2637" lon="-0.24559">
        <ele>113</ele>
        <time>2025-07-11T08:47:59.001000+02:00</time>
      </trkpt>
      <trkpt lat="46.26366" lon="-0.24564">
        <ele>113</ele>
        <time>2025-07-11T08:48:00.001000+02:00</time>
      </trkpt>
      <trkpt lat="46.26358" lon="-0.24575">
        <ele>112.9</ele>
        <time>2025-07-11T08:48:02.001000+02:00</time>
      </trkpt>
      <trkpt lat="46.26353" lon="-0.24581">
        <ele>112.7</ele>
        <time>2025-07-11T08:48:03.003000+02:00</time>
      </trkpt>
      <trkpt lat="46.26344" lon="-0.24592">
        <ele>112.3</ele>
        <time>2025-07-11T08:48:05.001000+02:00</time>
      </trkpt>
      <trkpt lat="46.2634" lon="-0.24599">
        <ele>112.1</ele>
        <time>2025-07-11T08:48:06.001000+02:00</time>
      </trkpt>
      <trkpt lat="46.26334" lon="-0.24611">
        <ele>112</ele>
        <time>2025-07-11T08:48:08.001000+02:00</time>
      </trkpt>
      <trkpt lat="46.26331" lon="-0.24616">
        <ele>112</ele>
        <time>2025-07-11T08:48:09.002000+02:00</time>
      </trkpt>
      <trkpt lat="46.26326" lon="-0.24625">
        <ele>111.9</ele>
        <time>2025-07-11T08:48:11.001000+02:00</time>
      </trkpt>
      <trkpt lat="46.26324" lon="-0.24629">
        <ele>111.8</ele>
        <time>2025-07-11T08:48:12.001000+02:00</time>
      </trkpt>
      <trkpt lat="46.26321" lon="-0.24632">
        <ele>111.7</ele>
        <time>2025-07-11T08:48:13.001000+02:00</time>
      </trkpt>
      <trkpt lat="46.26318" lon="-0.24635">
        <ele>111.5</ele>
        <time>2025-07-11T08:48:14.001000+02:00</time>
      </trkpt>
      <trkpt lat="46.26315" lon="-0.24637">
        <ele>111.4</ele>
        <time>2025-07-11T08:48:15.001000+02:00</time>
      </trkpt>
      <trkpt lat="46.26311" lon="-0.24637">
        <ele>111.3</ele>
        <time>2025-07-11T08:48:16.001000+02:00</time>
      </trkpt>
      <trkpt lat="46.26307" lon="-0.24637">
        <ele>111.1</ele>
        <time>2025-07-11T08:48:17.001000+02:00</time>
      </trkpt>
      <trkpt lat="46.26303" lon="-0.24635">
        <ele>111.1</ele>
        <time>2025-07-11T08:48:18.001000+02:00</time>
      </trkpt>
      <trkpt lat="46.26299" lon="-0.24633">
        <ele>111.2</ele>
        <time>2025-07-11T08:48:19.001000+02:00</time>
      </trkpt>
      <trkpt lat="46.26294" lon="-0.24631">
        <ele>111.3</ele>
        <time>2025-07-11T08:48:20.002000+02:00</time>
      </trkpt>
      <trkpt lat="46.26285" lon="-0.24625">
        <ele>111.5</ele>
        <time>2025-07-11T08:48:22.001000+02:00</time>
      </trkpt>
      <trkpt lat="46.2628" lon="-0.24622">
        <ele>111.6</ele>
        <time>2025-07-11T08:48:23.001000+02:00</time>
      </trkpt>
      <trkpt lat="46.26272" lon="-0.24616">
        <ele>111.6</ele>
        <time>2025-07-11T08:48:25+02:00</time>
      </trkpt>
      <trkpt lat="46.26268" lon="-0.24614">
        <ele>111.6</ele>
        <time>2025-07-11T08:48:26+02:00</time>
      </trkpt>
      <trkpt lat="46.26264" lon="-0.24611">
        <ele>111.5</ele>
        <time>2025-07-11T08:48:27.003000+02:00</time>
      </trkpt>
      <trkpt lat="46.26255" lon="-0.24606">
        <ele>111.2</ele>
        <time>2025-07-11T08:48:29.001000+02:00</time>
      </trkpt>
      <trkpt lat="46.26251" lon="-0.24603">
        <ele>111</ele>
        <time>2025-07-11T08:48:30.001000+02:00</time>
      </trkpt>
      <trkpt lat="46.26246" lon="-0.24601">
        <ele>111</ele>
        <time>2025-07-11T08:48:31.002000+02:00</time>
      </trkpt>
      <trkpt lat="46.26237" lon="-0.24596">
        <ele>111</ele>
        <time>2025-07-11T08:48:33.001000+02:00</time>
      </trkpt>
      <trkpt lat="46.26233" lon="-0.24594">
        <ele>111</ele>
        <time>2025-07-11T08:48:34.001000+02:00</time>
      </trkpt>
      <trkpt lat="46.26229" lon="-0.24591">
        <ele>111</ele>
        <time>2025-07-11T08:48:35.001000+02:00</time>
      </trkpt>
      <trkpt lat="46.26225" lon="-0.24588">
        <ele>111</ele>
        <time>2025-07-11T08:48:36.001000+02:00</time>
      </trkpt>
      <trkpt lat="46.26221" lon="-0.24585">
        <ele>111</ele>
        <time>2025-07-11T08:48:37.001000+02:00</time>
      </trkpt>
      <trkpt lat="46.26217" lon="-0.24583">
        <ele>111</ele>
        <time>2025-07-11T08:48:38.001000+02:00</time>
      </trkpt>
      <trkpt lat="46.26212" lon="-0.2458">
        <ele>111</ele>
        <time>2025-07-11T08:48:39.002000+02:00</time>
      </trkpt>
      <trkpt lat="46.26203" lon="-0.24574">
        <ele>110.8</ele>
        <time>2025-07-11T08:48:41.001000+02:00</time>
      </trkpt>
      <trkpt lat="46.26192" lon="-0.2457">
        <ele>110.4</ele>
        <time>2025-07-11T08:48:43.001000+02:00</time>
      </trkpt>
      <trkpt lat="46.26187" lon="-0.24569">
        <ele>110.2</ele>
        <time>2025-07-11T08:48:44.001000+02:00</time>
      </trkpt>
      <trkpt lat="46.26181" lon="-0.24568">
        <ele>110</ele>
        <time>2025-07-11T08:48:45.001000+02:00</time>
      </trkpt>
      <trkpt lat="46.2617" lon="-0.24566">
        <ele>109.7</ele>
        <time>2025-07-11T08:48:47.001000+02:00</time>
      </trkpt>
      <trkpt lat="46.26166" lon="-0.24565">
        <ele>109.6</ele>
        <time>2025-07-11T08:48:48.002000+02:00</time>
      </trkpt>
      <trkpt lat="46.26158" lon="-0.24564">
        <ele>109.5</ele>
        <time>2025-07-11T08:48:50.001000+02:00</time>
      </trkpt>
      <trkpt lat="46.26156" lon="-0.24564">
        <ele>109.4</ele>
        <time>2025-07-11T08:48:51.001000+02:00</time>
      </trkpt>
      <trkpt lat="46.26154" lon="-0.24564">
        <ele>109.4</ele>
        <time>2025-07-11T08:48:52.001000+02:00</time>
      </trkpt>
      <trkpt lat="46.26152" lon="-0.24563">
        <ele>109.3</ele>
        <time>2025-07-11T08:48:53.001000+02:00</time>
      </trkpt>
      <trkpt lat="46.2615" lon="-0.24563">
        <ele>109.3</ele>
        <time>2025-07-11T08:48:54.003000+02:00</time>
      </trkpt>
      <trkpt lat="46.26145" lon="-0.24563">
        <ele>109.2</ele>
        <time>2025-07-11T08:48:56.001000+02:00</time>
      </trkpt>
      <trkpt lat="46.26142" lon="-0.24563">
        <ele>109.1</ele>
        <time>2025-07-11T08:48:57.002000+02:00</time>
      </trkpt>
      <trkpt lat="46.26134" lon="-0.24562">
        <ele>108.8</ele>
        <time>2025-07-11T08:48:59.001000+02:00</time>
      </trkpt>
      <trkpt lat="46.26127" lon="-0.24559">
        <ele>108.6</ele>
        <time>2025-07-11T08:49:01.002000+02:00</time>
      </trkpt>
      <trkpt lat="46.26123" lon="-0.24558">
        <ele>108.4</ele>
        <time>2025-07-11T08:49:02.003000+02:00</time>
      </trkpt>
      <trkpt lat="46.26115" lon="-0.24554">
        <ele>108.1</ele>
        <time>2025-07-11T08:49:04.001000+02:00</time>
      </trkpt>
      <trkpt lat="46.2611" lon="-0.24553">
        <ele>108</ele>
        <time>2025-07-11T08:49:05.004000+02:00</time>
      </trkpt>
      <trkpt lat="46.26102" lon="-0.24549">
        <ele>108</ele>
        <time>2025-07-11T08:49:07.001000+02:00</time>
      </trkpt>
      <trkpt lat="46.26093" lon="-0.24546">
        <ele>108</ele>
        <time>2025-07-11T08:49:09.002000+02:00</time>
      </trkpt>
      <trkpt lat="46.26083" lon="-0.24541">
        <ele>108</ele>
        <time>2025-07-11T08:49:11.001000+02:00</time>
      </trkpt>
      <trkpt lat="46.26079" lon="-0.24539">
        <ele>107.8</ele>
        <time>2025-07-11T08:49:12.001000+02:00</time>
      </trkpt>
      <trkpt lat="46.26074" lon="-0.24536">
        <ele>107.7</ele>
        <time>2025-07-11T08:49:13.001000+02:00</time>
      </trkpt>
      <trkpt lat="46.26065" lon="-0.2453">
        <ele>107.3</ele>
        <time>2025-07-11T08:49:15.001000+02:00</time>
      </trkpt>
      <trkpt lat="46.26061" lon="-0.24526">
        <ele>107.2</ele>
        <time>2025-07-11T08:49:16.001000+02:00</time>
      </trkpt>
      <trkpt lat="46.26056" lon="-0.24522">
        <ele>107</ele>
        <time>2025-07-11T08:49:17.001000+02:00</time>
      </trkpt>
      <trkpt lat="46.26052" lon="-0.24519">
        <ele>106.9</ele>
        <time>2025-07-11T08:49:18.001000+02:00</time>
      </trkpt>
      <trkpt lat="46.26047" lon="-0.24515">
        <ele>106.7</ele>
        <time>2025-07-11T08:49:19.001000+02:00</time>
      </trkpt>
      <trkpt lat="46.26043" lon="-0.24511">
        <ele>106.5</ele>
        <time>2025-07-11T08:49:20.001000+02:00</time>
      </trkpt>
      <trkpt lat="46.26039" lon="-0.24507">
        <ele>106.4</ele>
        <time>2025-07-11T08:49:21.002000+02:00</time>
      </trkpt>
      <trkpt lat="46.2603" lon="-0.24498">
        <ele>106.1</ele>
        <time>2025-07-11T08:49:23+02:00</time>
      </trkpt>
      <trkpt lat="46.26026" lon="-0.24493">
        <ele>105.9</ele>
        <time>2025-07-11T08:49:24+02:00</time>
      </trkpt>
      <trkpt lat="46.26022" lon="-0.24489">
        <ele>105.8</ele>
        <time>2025-07-11T08:49:25.001000+02:00</time>
      </trkpt>
      <trkpt lat="46.26016" lon="-0.2448">
        <ele>105.6</ele>
        <time>2025-07-11T08:49:27.001000+02:00</time>
      </trkpt>
      <trkpt lat="46.26013" lon="-0.24475">
        <ele>105.5</ele>
        <time>2025-07-11T08:49:28.001000+02:00</time>
      </trkpt>
      <trkpt lat="46.2601" lon="-0.24471">
        <ele>105.4</ele>
        <time>2025-07-11T08:49:29.002000+02:00</time>
      </trkpt>
      <trkpt lat="46.26008" lon="-0.24466">
        <ele>105.3</ele>
        <time>2025-07-11T08:49:30.004000+02:00</time>
      </trkpt>
      <trkpt lat="46.26002" lon="-0.24457">
        <ele>105.1</ele>
        <time>2025-07-11T08:49:32.001000+02:00</time>
      </trkpt>
      <trkpt lat="46.25999" lon="-0.24453">
        <ele>105</ele>
        <time>2025-07-11T08:49:33.002000+02:00</time>
      </trkpt>
      <trkpt lat="46.25993" lon="-0.24443">
        <ele>104.7</ele>
        <time>2025-07-11T08:49:35+02:00</time>
      </trkpt>
      <trkpt lat="46.2599" lon="-0.24438">
        <ele>104.5</ele>
        <time>2025-07-11T08:49:36.001000+02:00</time>
      </trkpt>
      <trkpt lat="46.25983" lon="-0.24429">
        <ele>104</ele>
        <time>2025-07-11T08:49:38+02:00</time>
      </trkpt>
      <trkpt lat="46.25979" lon="-0.24424">
        <ele>103.7</ele>
        <time>2025-07-11T08:49:39.003000+02:00</time>
      </trkpt>
      <trkpt lat="46.25972" lon="-0.24415">
        <ele>103.1</ele>
        <time>2025-07-11T08:49:41.001000+02:00</time>
      </trkpt>
      <trkpt lat="46.25969" lon="-0.2441">
        <ele>103.2</ele>
        <time>2025-07-11T08:49:42.001000+02:00</time>
      </trkpt>
      <trkpt lat="46.25962" lon="-0.244">
        <ele>103.4</ele>
        <time>2025-07-11T08:49:44+02:00</time>
      </trkpt>
      <trkpt lat="46.25959" lon="-0.24396">
        <ele>103.4</ele>
        <time>2025-07-11T08:49:45+02:00</time>
      </trkpt>
      <trkpt lat="46.25956" lon="-0.24392">
        <ele>103.4</ele>
        <time>2025-07-11T08:49:46.001000+02:00</time>
      </trkpt>
      <trkpt lat="46.25953" lon="-0.24387">
        <ele>103.3</ele>
        <time>2025-07-11T08:49:47.002000+02:00</time>
      </trkpt>
      <trkpt lat="46.2595" lon="-0.24383">
        <ele>103.1</ele>
        <time>2025-07-11T08:49:48.003000+02:00</time>
      </trkpt>
      <trkpt lat="46.25944" lon="-0.24374">
        <ele>103</ele>
        <time>2025-07-11T08:49:50+02:00</time>
      </trkpt>
      <trkpt lat="46.25941" lon="-0.2437">
        <ele>102.9</ele>
        <time>2025-07-11T08:49:51.002000+02:00</time>
      </trkpt>
      <trkpt lat="46.25938" lon="-0.24367">
        <ele>102.8</ele>
        <time>2025-07-11T08:49:52.002000+02:00</time>
      </trkpt>
      <trkpt lat="46.25936" lon="-0.24363">
        <ele>102.7</ele>
        <time>2025-07-11T08:49:53.003000+02:00</time>
      </trkpt>
      <trkpt lat="46.2593" lon="-0.24353">
        <ele>102.4</ele>
        <time>2025-07-11T08:49:55.001000+02:00</time>
      </trkpt>
      <trkpt lat="46.25928" lon="-0.24349">
        <ele>102.2</ele>
        <time>2025-07-11T08:49:56.003000+02:00</time>
      </trkpt>
      <trkpt lat="46.25923" lon="-0.24339">
        <ele>102</ele>
        <time>2025-07-11T08:49:58.001000+02:00</time>
      </trkpt>
      <trkpt lat="46.2592" lon="-0.24334">
        <ele>102</ele>
        <time>2025-07-11T08:49:59.002000+02:00</time>
      </trkpt>
      <trkpt lat="46.25918" lon="-0.24329">
        <ele>101.9</ele>
        <time>2025-07-11T08:50:00.002000+02:00</time>
      </trkpt>
      <trkpt lat="46.25913" lon="-0.24319">
        <ele>101.7</ele>
        <time>2025-07-11T08:50:02+02:00</time>
      </trkpt>
      <trkpt lat="46.25911" lon="-0.24315">
        <ele>101.7</ele>
        <time>2025-07-11T08:50:03.002000+02:00</time>
      </trkpt>
      <trkpt lat="46.25909" lon="-0.24311">
        <ele>101.7</ele>
        <time>2025-07-11T08:50:04.002000+02:00</time>
      </trkpt>
      <trkpt lat="46.25906" lon="-0.24307">
        <ele>101.8</ele>
        <time>2025-07-11T08:50:06.002000+02:00</time>
      </trkpt>
      <trkpt lat="46.259" lon="-0.24309">
        <ele>102.2</ele>
        <time>2025-07-11T08:50:08.001000+02:00</time>
      </trkpt>
      <trkpt lat="46.25895" lon="-0.24313">
        <ele>102.6</ele>
        <time>2025-07-11T08:50:10.001000+02:00</time>
      </trkpt>
      <trkpt lat="46.25893" lon="-0.24315">
        <ele>102.7</ele>
        <time>2025-07-11T08:50:11.002000+02:00</time>
      </trkpt>
      <trkpt lat="46.25891" lon="-0.24319">
        <ele>102.9</ele>
        <time>2025-07-11T08:50:13+02:00</time>
      </trkpt>
      <trkpt lat="46.2589" lon="-0.24324">
        <ele>103</ele>
        <time>2025-07-11T08:50:15.001000+02:00</time>
      </trkpt>
      <trkpt lat="46.25889" lon="-0.24326">
        <ele>103</ele>
        <time>2025-07-11T08:50:16.001000+02:00</time>
      </trkpt>
      <trkpt lat="46.25887" lon="-0.24325">
        <ele>102.8</ele>
        <time>2025-07-11T08:50:18+02:00</time>
      </trkpt>
      <trkpt lat="46.25887" lon="-0.24323">
        <ele>102.8</ele>
        <time>2025-07-11T08:50:19.001000+02:00</time>
      </trkpt>
      <trkpt lat="46.25888" lon="-0.24315">
        <ele>102.9</ele>
        <time>2025-07-11T08:50:21.001000+02:00</time>
      </trkpt>
      <trkpt lat="46.25889" lon="-0.24311">
        <ele>103</ele>
        <time>2025-07-11T08:50:22.002000+02:00</time>
      </trkpt>
      <trkpt lat="46.2589" lon="-0.24303">
        <ele>102.9</ele>
        <time>2025-07-11T08:50:24.001000+02:00</time>
      </trkpt>
      <trkpt lat="46.2589" lon="-0.24294">
        <ele>102.9</ele>
        <time>2025-07-11T08:50:26.005000+02:00</time>
      </trkpt>
      <trkpt lat="46.25891" lon="-0.24285">
        <ele>102.9</ele>
        <time>2025-07-11T08:50:28.001000+02:00</time>
      </trkpt>
      <trkpt lat="46.25891" lon="-0.24279">
        <ele>102.8</ele>
        <time>2025-07-11T08:50:29.001000+02:00</time>
      </trkpt>
      <trkpt lat="46.25891" lon="-0.24274">
        <ele>102.7</ele>
        <time>2025-07-11T08:50:30.001000+02:00</time>
      </trkpt>
      <trkpt lat="46.25892" lon="-0.24269">
        <ele>102.5</ele>
        <time>2025-07-11T08:50:31.001000+02:00</time>
      </trkpt>
      <trkpt lat="46.25893" lon="-0.24263">
        <ele>102.2</ele>
        <time>2025-07-11T08:50:32.001000+02:00</time>
      </trkpt>
      <trkpt lat="46.25894" lon="-0.24258">
        <ele>101.9</ele>
        <time>2025-07-11T08:50:33.002000+02:00</time>
      </trkpt>
      <trkpt lat="46.25895" lon="-0.24248">
        <ele>101.4</ele>
        <time>2025-07-11T08:50:35.001000+02:00</time>
      </trkpt>
      <trkpt lat="46.25895" lon="-0.24243">
        <ele>101.2</ele>
        <time>2025-07-11T08:50:36.001000+02:00</time>
      </trkpt>
      <trkpt lat="46.25895" lon="-0.24237">
        <ele>100.9</ele>
        <time>2025-07-11T08:50:37.002000+02:00</time>
      </trkpt>
      <trkpt lat="46.25896" lon="-0.24226">
        <ele>100.2</ele>
        <time>2025-07-11T08:50:39.001000+02:00</time>
      </trkpt>
      <trkpt lat="46.25898" lon="-0.24214">
        <ele>100.2</ele>
        <time>2025-07-11T08:50:41+02:00</time>
      </trkpt>
      <trkpt lat="46.25898" lon="-0.24208">
        <ele>100.3</ele>
        <time>2025-07-11T08:50:42+02:00</time>
      </trkpt>
      <trkpt lat="46.25899" lon="-0.24201">
        <ele>100.5</ele>
        <time>2025-07-11T08:50:43+02:00</time>
      </trkpt>
      <trkpt lat="46.259" lon="-0.24195">
        <ele>100.6</ele>
        <time>2025-07-11T08:50:44.004000+02:00</time>
      </trkpt>
      <trkpt lat="46.25903" lon="-0.24183">
        <ele>100.7</ele>
        <time>2025-07-11T08:50:46.001000+02:00</time>
      </trkpt>
      <trkpt lat="46.25904" lon="-0.24177">
        <ele>100.8</ele>
        <time>2025-07-11T08:50:47.002000+02:00</time>
      </trkpt>
      <trkpt lat="46.25906" lon="-0.24164">
        <ele>101.1</ele>
        <time>2025-07-11T08:50:49.002000+02:00</time>
      </trkpt>
      <trkpt lat="46.25907" lon="-0.24151">
        <ele>101.6</ele>
        <time>2025-07-11T08:50:51.002000+02:00</time>
      </trkpt>
      <trkpt lat="46.25909" lon="-0.24138">
        <ele>102</ele>
        <time>2025-07-11T08:50:53+02:00</time>
      </trkpt>
      <trkpt lat="46.2591" lon="-0.24132">
        <ele>102</ele>
        <time>2025-07-11T08:50:54.001000+02:00</time>
      </trkpt>
      <trkpt lat="46.25911" lon="-0.24126">
        <ele>102</ele>
        <time>2025-07-11T08:50:55.003000+02:00</time>
      </trkpt>
      <trkpt lat="46.25913" lon="-0.24114">
        <ele>102</ele>
        <time>2025-07-11T08:50:57.001000+02:00</time>
      </trkpt>
      <trkpt lat="46.25914" lon="-0.24108">
        <ele>102.1</ele>
        <time>2025-07-11T08:50:58.001000+02:00</time>
      </trkpt>
      <trkpt lat="46.25914" lon="-0.24101">
        <ele>102.3</ele>
        <time>2025-07-11T08:50:59.001000+02:00</time>
      </trkpt>
      <trkpt lat="46.25915" lon="-0.24095">
        <ele>102.6</ele>
        <time>2025-07-11T08:51:00.002000+02:00</time>
      </trkpt>
      <trkpt lat="46.25915" lon="-0.24089">
        <ele>102.8</ele>
        <time>2025-07-11T08:51:01.002000+02:00</time>
      </trkpt>
      <trkpt lat="46.25917" lon="-0.24076">
        <ele>103.3</ele>
        <time>2025-07-11T08:51:03.002000+02:00</time>
      </trkpt>
      <trkpt lat="46.25918" lon="-0.24063">
        <ele>103.7</ele>
        <time>2025-07-11T08:51:05+02:00</time>
      </trkpt>
      <trkpt lat="46.25919" lon="-0.24057">
        <ele>103.9</ele>
        <time>2025-07-11T08:51:06.001000+02:00</time>
      </trkpt>
      <trkpt lat="46.2592" lon="-0.24051">
        <ele>103.9</ele>
        <time>2025-07-11T08:51:07.001000+02:00</time>
      </trkpt>
      <trkpt lat="46.25921" lon="-0.24037">
        <ele>103.8</ele>
        <time>2025-07-11T08:51:09.002000+02:00</time>
      </trkpt>
      <trkpt lat="46.25923" lon="-0.24024">
        <ele>103.8</ele>
        <time>2025-07-11T08:51:11.001000+02:00</time>
      </trkpt>
      <trkpt lat="46.25923" lon="-0.24018">
        <ele>103.8</ele>
        <time>2025-07-11T08:51:12.001000+02:00</time>
      </trkpt>
      <trkpt lat="46.25925" lon="-0.24004">
        <ele>103.7</ele>
        <time>2025-07-11T08:51:14+02:00</time>
      </trkpt>
      <trkpt lat="46.25926" lon="-0.23998">
        <ele>103.7</ele>
        <time>2025-07-11T08:51:15.003000+02:00</time>
      </trkpt>
      <trkpt lat="46.25927" lon="-0.23984">
        <ele>103.8</ele>
        <time>2025-07-11T08:51:17.001000+02:00</time>
      </trkpt>
      <trkpt lat="46.25928" lon="-0.23978">
        <ele>103.9</ele>
        <time>2025-07-11T08:51:18.003000+02:00</time>
      </trkpt>
      <trkpt lat="46.2593" lon="-0.23965">
        <ele>104.1</ele>
        <time>2025-07-11T08:51:20.004000+02:00</time>
      </trkpt>
      <trkpt lat="46.25932" lon="-0.23953">
        <ele>104.3</ele>
        <time>2025-07-11T08:51:22.001000+02:00</time>
      </trkpt>
      <trkpt lat="46.25932" lon="-0.23947">
        <ele>104.4</ele>
        <time>2025-07-11T08:51:23.001000+02:00</time>
      </trkpt>
      <trkpt lat="46.25933" lon="-0.23935">
        <ele>104.8</ele>
        <time>2025-07-11T08:51:25.001000+02:00</time>
      </trkpt>
      <trkpt lat="46.25934" lon="-0.23928">
        <ele>105</ele>
        <time>2025-07-11T08:51:26.002000+02:00</time>
      </trkpt>
      <trkpt lat="46.25935" lon="-0.23921">
        <ele>105.2</ele>
        <time>2025-07-11T08:51:27.002000+02:00</time>
      </trkpt>
      <trkpt lat="46.25936" lon="-0.23914">
        <ele>105.3</ele>
        <time>2025-07-11T08:51:28.002000+02:00</time>
      </trkpt>
      <trkpt lat="46.25938" lon="-0.23903">
        <ele>105.2</ele>
        <time>2025-07-11T08:51:30.001000+02:00</time>
      </trkpt>
      <trkpt lat="46.25939" lon="-0.23898">
        <ele>105.2</ele>
        <time>2025-07-11T08:51:31.001000+02:00</time>
      </trkpt>
      <trkpt lat="46.25939" lon="-0.23893">
        <ele>105.2</ele>
        <time>2025-07-11T08:51:32.001000+02:00</time>
      </trkpt>
      <trkpt lat="46.2594" lon="-0.23887">
        <ele>105.2</ele>
        <time>2025-07-11T08:51:33.001000+02:00</time>
      </trkpt>
      <trkpt lat="46.25939" lon="-0.23877">
        <ele>105.2</ele>
        <time>2025-07-11T08:51:35+02:00</time>
      </trkpt>
      <trkpt lat="46.2594" lon="-0.23872">
        <ele>105.2</ele>
        <time>2025-07-11T08:51:36.001000+02:00</time>
      </trkpt>
      <trkpt lat="46.2594" lon="-0.23866">
        <ele>105.1</ele>
        <time>2025-07-11T08:51:37.002000+02:00</time>
      </trkpt>
      <trkpt lat="46.25942" lon="-0.23854">
        <ele>105.1</ele>
        <time>2025-07-11T08:51:39.001000+02:00</time>
      </trkpt>
      <trkpt lat="46.25942" lon="-0.23848">
        <ele>105.1</ele>
        <time>2025-07-11T08:51:40.001000+02:00</time>
      </trkpt>
      <trkpt lat="46.25943" lon="-0.23842">
        <ele>105.1</ele>
        <time>2025-07-11T08:51:41.002000+02:00</time>
      </trkpt>
      <trkpt lat="46.25943" lon="-0.23836">
        <ele>105.1</ele>
        <time>2025-07-11T08:51:42.003000+02:00</time>
      </trkpt>
      <trkpt lat="46.25945" lon="-0.23822">
        <ele>105.9</ele>
        <time>2025-07-11T08:51:44.002000+02:00</time>
      </trkpt>
      <trkpt lat="46.25948" lon="-0.2381">
        <ele>106.7</ele>
        <time>2025-07-11T08:51:46+02:00</time>
      </trkpt>
      <trkpt lat="46.25948" lon="-0.23805">
        <ele>107</ele>
        <time>2025-07-11T08:51:47.002000+02:00</time>
      </trkpt>
      <trkpt lat="46.25949" lon="-0.238">
        <ele>107.2</ele>
        <time>2025-07-11T08:51:48.003000+02:00</time>
      </trkpt>
      <trkpt lat="46.2595" lon="-0.23795">
        <ele>107.4</ele>
        <time>2025-07-11T08:51:49.003000+02:00</time>
      </trkpt>
      <trkpt lat="46.25951" lon="-0.23784">
        <ele>107.8</ele>
        <time>2025-07-11T08:51:51.003000+02:00</time>
      </trkpt>
      <trkpt lat="46.25953" lon="-0.23773">
        <ele>108</ele>
        <time>2025-07-11T08:51:53.002000+02:00</time>
      </trkpt>
      <trkpt lat="46.25954" lon="-0.23767">
        <ele>108</ele>
        <time>2025-07-11T08:51:54.002000+02:00</time>
      </trkpt>
      <trkpt lat="46.25955" lon="-0.23761">
        <ele>108</ele>
        <time>2025-07-11T08:51:55.002000+02:00</time>
      </trkpt>
      <trkpt lat="46.25956" lon="-0.23755">
        <ele>108</ele>
        <time>2025-07-11T08:51:56.003000+02:00</time>
      </trkpt>
      <trkpt lat="46.25958" lon="-0.23743">
        <ele>108.1</ele>
        <time>2025-07-11T08:51:58.002000+02:00</time>
      </trkpt>
      <trkpt lat="46.25961" lon="-0.23731">
        <ele>108.3</ele>
        <time>2025-07-11T08:52:00.002000+02:00</time>
      </trkpt>
      <trkpt lat="46.25962" lon="-0.23726">
        <ele>108.3</ele>
        <time>2025-07-11T08:52:01.002000+02:00</time>
      </trkpt>
      <trkpt lat="46.25964" lon="-0.23713">
        <ele>107.8</ele>
        <time>2025-07-11T08:52:03.002000+02:00</time>
      </trkpt>
      <trkpt lat="46.25966" lon="-0.23707">
        <ele>107.4</ele>
        <time>2025-07-11T08:52:04.005000+02:00</time>
      </trkpt>
      <trkpt lat="46.25969" lon="-0.23693">
        <ele>106.4</ele>
        <time>2025-07-11T08:52:06.005000+02:00</time>
      </trkpt>
      <trkpt lat="46.25972" lon="-0.23678">
        <ele>106.6</ele>
        <time>2025-07-11T08:52:08.002000+02:00</time>
      </trkpt>
      <trkpt lat="46.25976" lon="-0.23663">
        <ele>107.4</ele>
        <time>2025-07-11T08:52:10.001000+02:00</time>
      </trkpt>
      <trkpt lat="46.25979" lon="-0.23656">
        <ele>107.8</ele>
        <time>2025-07-11T08:52:11.004000+02:00</time>
      </trkpt>
      <trkpt lat="46.25984" lon="-0.23641">
        <ele>108.4</ele>
        <time>2025-07-11T08:52:13.004000+02:00</time>
      </trkpt>
      <trkpt lat="46.25989" lon="-0.23626">
        <ele>107.8</ele>
        <time>2025-07-11T08:52:15.002000+02:00</time>
      </trkpt>
      <trkpt lat="46.25994" lon="-0.23612">
        <ele>106.5</ele>
        <time>2025-07-11T08:52:17.003000+02:00</time>
      </trkpt>
      <trkpt lat="46.25995" lon="-0.23605">
        <ele>106.1</ele>
        <time>2025-07-11T08:52:18.003000+02:00</time>
      </trkpt>
      <trkpt lat="46.25996" lon="-0.23589">
        <ele>105.5</ele>
        <time>2025-07-11T08:52:20.002000+02:00</time>
      </trkpt>
      <trkpt lat="46.25998" lon="-0.23581">
        <ele>105.2</ele>
        <time>2025-07-11T08:52:21.004000+02:00</time>
      </trkpt>
      <trkpt lat="46.26002" lon="-0.23563">
        <ele>105.8</ele>
        <time>2025-07-11T08:52:23.003000+02:00</time>
      </trkpt>
      <trkpt lat="46.26005" lon="-0.23547">
        <ele>106.1</ele>
        <time>2025-07-11T08:52:25.002000+02:00</time>
      </trkpt>
      <trkpt lat="46.26008" lon="-0.23538">
        <ele>106.1</ele>
        <time>2025-07-11T08:52:26.003000+02:00</time>
      </trkpt>
      <trkpt lat="46.2601" lon="-0.23529">
        <ele>106</ele>
        <time>2025-07-11T08:52:27.003000+02:00</time>
      </trkpt>
      <trkpt lat="46.26015" lon="-0.23512">
        <ele>105.4</ele>
        <time>2025-07-11T08:52:29.002000+02:00</time>
      </trkpt>
      <trkpt lat="46.2602" lon="-0.23494">
        <ele>104.8</ele>
        <time>2025-07-11T08:52:31+02:00</time>
      </trkpt>
      <trkpt lat="46.26023" lon="-0.23485">
        <ele>104.4</ele>
        <time>2025-07-11T08:52:32.003000+02:00</time>
      </trkpt>
      <trkpt lat="46.26028" lon="-0.23468">
        <ele>104</ele>
        <time>2025-07-11T08:52:34.001000+02:00</time>
      </trkpt>
      <trkpt lat="46.2603" lon="-0.2346">
        <ele>104.1</ele>
        <time>2025-07-11T08:52:35.001000+02:00</time>
      </trkpt>
      <trkpt lat="46.26035" lon="-0.23444">
        <ele>104.2</ele>
        <time>2025-07-11T08:52:37.003000+02:00</time>
      </trkpt>
      <trkpt lat="46.26039" lon="-0.23427">
        <ele>104.4</ele>
        <time>2025-07-11T08:52:39.001000+02:00</time>
      </trkpt>
      <trkpt lat="46.26042" lon="-0.23419">
        <ele>104.5</ele>
        <time>2025-07-11T08:52:40.001000+02:00</time>
      </trkpt>
      <trkpt lat="46.26044" lon="-0.23411">
        <ele>104.4</ele>
        <time>2025-07-11T08:52:41.001000+02:00</time>
      </trkpt>
      <trkpt lat="46.26045" lon="-0.23403">
        <ele>104.1</ele>
        <time>2025-07-11T08:52:42.001000+02:00</time>
      </trkpt>
      <trkpt lat="46.26047" lon="-0.23395">
        <ele>103.9</ele>
        <time>2025-07-11T08:52:43.001000+02:00</time>
      </trkpt>
      <trkpt lat="46.26049" lon="-0.23387">
        <ele>103.7</ele>
        <time>2025-07-11T08:52:44.001000+02:00</time>
      </trkpt>
      <trkpt lat="46.26052" lon="-0.23379">
        <ele>103.5</ele>
        <time>2025-07-11T08:52:45.001000+02:00</time>
      </trkpt>
      <trkpt lat="46.26054" lon="-0.23372">
        <ele>103.3</ele>
        <time>2025-07-11T08:52:46.001000+02:00</time>
      </trkpt>
      <trkpt lat="46.26056" lon="-0.23364">
        <ele>103.1</ele>
        <time>2025-07-11T08:52:47.001000+02:00</time>
      </trkpt>
      <trkpt lat="46.26058" lon="-0.23356">
        <ele>103.1</ele>
        <time>2025-07-11T08:52:48.002000+02:00</time>
      </trkpt>
      <trkpt lat="46.26059" lon="-0.23349">
        <ele>103.1</ele>
        <time>2025-07-11T08:52:49.002000+02:00</time>
      </trkpt>
      <trkpt lat="46.26061" lon="-0.23343">
        <ele>103.2</ele>
        <time>2025-07-11T08:52:50.002000+02:00</time>
      </trkpt>
      <trkpt lat="46.26063" lon="-0.23337">
        <ele>103.3</ele>
        <time>2025-07-11T08:52:51.003000+02:00</time>
      </trkpt>
      <trkpt lat="46.26064" lon="-0.23328">
        <ele>103.2</ele>
        <time>2025-07-11T08:52:53.002000+02:00</time>
      </trkpt>
      <trkpt lat="46.26063" lon="-0.23325">
        <ele>103.2</ele>
        <time>2025-07-11T08:52:54.002000+02:00</time>
      </trkpt>
      <trkpt lat="46.26061" lon="-0.23323">
        <ele>103.1</ele>
        <time>2025-07-11T08:52:55.003000+02:00</time>
      </trkpt>
      <trkpt lat="46.26057" lon="-0.23323">
        <ele>103</ele>
        <time>2025-07-11T08:52:57.002000+02:00</time>
      </trkpt>
      <trkpt lat="46.26055" lon="-0.23326">
        <ele>103</ele>
        <time>2025-07-11T08:52:58.004000+02:00</time>
      </trkpt>
      <trkpt lat="46.26052" lon="-0.23332">
        <ele>103</ele>
        <time>2025-07-11T08:53:00.002000+02:00</time>
      </trkpt>
      <trkpt lat="46.26047" lon="-0.23337">
        <ele>103</ele>
        <time>2025-07-11T08:53:02+02:00</time>
      </trkpt>
      <trkpt lat="46.26044" lon="-0.2334">
        <ele>103</ele>
        <time>2025-07-11T08:53:03.001000+02:00</time>
      </trkpt>
      <trkpt lat="46.26038" lon="-0.23345">
        <ele>103</ele>
        <time>2025-07-11T08:53:04.999000+02:00</time>
      </trkpt>
      <trkpt lat="46.26035" lon="-0.23348">
        <ele>103</ele>
        <time>2025-07-11T08:53:06.001000+02:00</time>
      </trkpt>
      <trkpt lat="46.26031" lon="-0.2335">
        <ele>103</ele>
        <time>2025-07-11T08:53:07.001000+02:00</time>
      </trkpt>
      <trkpt lat="46.26023" lon="-0.23355">
        <ele>102.8</ele>
        <time>2025-07-11T08:53:09.001000+02:00</time>
      </trkpt>
      <trkpt lat="46.26014" lon="-0.2336">
        <ele>102.5</ele>
        <time>2025-07-11T08:53:11+02:00</time>
      </trkpt>
      <trkpt lat="46.26009" lon="-0.23363">
        <ele>102.3</ele>
        <time>2025-07-11T08:53:12.001000+02:00</time>
      </trkpt>
      <trkpt lat="46.25999" lon="-0.23369">
        <ele>102</ele>
        <time>2025-07-11T08:53:14+02:00</time>
      </trkpt>
      <trkpt lat="46.25994" lon="-0.23372">
        <ele>101.8</ele>
        <time>2025-07-11T08:53:15.001000+02:00</time>
      </trkpt>
      <trkpt lat="46.25985" lon="-0.23378">
        <ele>101.6</ele>
        <time>2025-07-11T08:53:17+02:00</time>
      </trkpt>
      <trkpt lat="46.2598" lon="-0.23381">
        <ele>101.6</ele>
        <time>2025-07-11T08:53:18.001000+02:00</time>
      </trkpt>
      <trkpt lat="46.25971" lon="-0.23387">
        <ele>101.8</ele>
        <time>2025-07-11T08:53:20.001000+02:00</time>
      </trkpt>
      <trkpt lat="46.25967" lon="-0.23389">
        <ele>101.8</ele>
        <time>2025-07-11T08:53:21.001000+02:00</time>
      </trkpt>
      <trkpt lat="46.25958" lon="-0.23395">
        <ele>101.6</ele>
        <time>2025-07-11T08:53:23+02:00</time>
      </trkpt>
      <trkpt lat="46.25954" lon="-0.23398">
        <ele>101.5</ele>
        <time>2025-07-11T08:53:24.001000+02:00</time>
      </trkpt>
      <trkpt lat="46.2595" lon="-0.234">
        <ele>101.5</ele>
        <time>2025-07-11T08:53:25.001000+02:00</time>
      </trkpt>
      <trkpt lat="46.25941" lon="-0.23406">
        <ele>101.5</ele>
        <time>2025-07-11T08:53:27+02:00</time>
      </trkpt>
      <trkpt lat="46.25937" lon="-0.23409">
        <ele>101.4</ele>
        <time>2025-07-11T08:53:28+02:00</time>
      </trkpt>
      <trkpt lat="46.25933" lon="-0.23411">
        <ele>101.4</ele>
        <time>2025-07-11T08:53:29+02:00</time>
      </trkpt>
      <trkpt lat="46.25929" lon="-0.23414">
        <ele>101.3</ele>
        <time>2025-07-11T08:53:30.001000+02:00</time>
      </trkpt>
      <trkpt lat="46.25921" lon="-0.23421">
        <ele>101.3</ele>
        <time>2025-07-11T08:53:32+02:00</time>
      </trkpt>
      <trkpt lat="46.25917" lon="-0.23424">
        <ele>101.3</ele>
        <time>2025-07-11T08:53:33.001000+02:00</time>
      </trkpt>
      <trkpt lat="46.2591" lon="-0.2343">
        <ele>101.5</ele>
        <time>2025-07-11T08:53:35.001000+02:00</time>
      </trkpt>
      <trkpt lat="46.25906" lon="-0.23433">
        <ele>101.6</ele>
        <time>2025-07-11T08:53:36.001000+02:00</time>
      </trkpt>
      <trkpt lat="46.25899" lon="-0.2344">
        <ele>101.8</ele>
        <time>2025-07-11T08:53:38.001000+02:00</time>
      </trkpt>
      <trkpt lat="46.25892" lon="-0.23447">
        <ele>102</ele>
        <time>2025-07-11T08:53:40.002000+02:00</time>
      </trkpt>
      <trkpt lat="46.25888" lon="-0.23451">
        <ele>102</ele>
        <time>2025-07-11T08:53:41.002000+02:00</time>
      </trkpt>
      <trkpt lat="46.25882" lon="-0.23458">
        <ele>101.9</ele>
        <time>2025-07-11T08:53:43+02:00</time>
      </trkpt>
      <trkpt lat="46.25875" lon="-0.23464">
        <ele>101.9</ele>
        <time>2025-07-11T08:53:45.001000+02:00</time>
      </trkpt>
      <trkpt lat="46.25868" lon="-0.2347">
        <ele>102</ele>
        <time>2025-07-11T08:53:47.001000+02:00</time>
      </trkpt>
      <trkpt lat="46.25861" lon="-0.23478">
        <ele>102.2</ele>
        <time>2025-07-11T08:53:49.001000+02:00</time>
      </trkpt>
      <trkpt lat="46.25858" lon="-0.23481">
        <ele>102.2</ele>
        <time>2025-07-11T08:53:50.004000+02:00</time>
      </trkpt>
      <trkpt lat="46.25851" lon="-0.23488">
        <ele>102.2</ele>
        <time>2025-07-11T08:53:52.002000+02:00</time>
      </trkpt>
      <trkpt lat="46.25847" lon="-0.23492">
        <ele>102.2</ele>
        <time>2025-07-11T08:53:53.002000+02:00</time>
      </trkpt>
      <trkpt lat="46.25844" lon="-0.23495">
        <ele>102.2</ele>
        <time>2025-07-11T08:53:54.002000+02:00</time>
      </trkpt>
      <trkpt lat="46.25837" lon="-0.23502">
        <ele>102.2</ele>
        <time>2025-07-11T08:53:56.001000+02:00</time>
      </trkpt>
      <trkpt lat="46.25831" lon="-0.23509">
        <ele>102.3</ele>
        <time>2025-07-11T08:53:57.999000+02:00</time>
      </trkpt>
      <trkpt lat="46.25828" lon="-0.23513">
        <ele>102.5</ele>
        <time>2025-07-11T08:53:59+02:00</time>
      </trkpt>
      <trkpt lat="46.25825" lon="-0.23518">
        <ele>102.6</ele>
        <time>2025-07-11T08:54:00.002000+02:00</time>
      </trkpt>
      <trkpt lat="46.25822" lon="-0.23521">
        <ele>102.8</ele>
        <time>2025-07-11T08:54:01.002000+02:00</time>
      </trkpt>
      <trkpt lat="46.25815" lon="-0.23529">
        <ele>103</ele>
        <time>2025-07-11T08:54:03+02:00</time>
      </trkpt>
      <trkpt lat="46.25812" lon="-0.23533">
        <ele>103.2</ele>
        <time>2025-07-11T08:54:04.001000+02:00</time>
      </trkpt>
      <trkpt lat="46.25809" lon="-0.23537">
        <ele>103.3</ele>
        <time>2025-07-11T08:54:05.001000+02:00</time>
      </trkpt>
      <trkpt lat="46.25806" lon="-0.23541">
        <ele>103.5</ele>
        <time>2025-07-11T08:54:06.001000+02:00</time>
      </trkpt>
      <trkpt lat="46.258" lon="-0.23548">
        <ele>103.8</ele>
        <time>2025-07-11T08:54:08.001000+02:00</time>
      </trkpt>
      <trkpt lat="46.25797" lon="-0.23552">
        <ele>103.9</ele>
        <time>2025-07-11T08:54:09.002000+02:00</time>
      </trkpt>
      <trkpt lat="46.25791" lon="-0.2356">
        <ele>104.1</ele>
        <time>2025-07-11T08:54:11+02:00</time>
      </trkpt>
      <trkpt lat="46.25788" lon="-0.23563">
        <ele>104.2</ele>
        <time>2025-07-11T08:54:12.001000+02:00</time>
      </trkpt>
      <trkpt lat="46.25786" lon="-0.23567">
        <ele>104.3</ele>
        <time>2025-07-11T08:54:13.001000+02:00</time>
      </trkpt>
      <trkpt lat="46.25783" lon="-0.23571">
        <ele>104.5</ele>
        <time>2025-07-11T08:54:14.002000+02:00</time>
      </trkpt>
      <trkpt lat="46.25776" lon="-0.23578">
        <ele>104.8</ele>
        <time>2025-07-11T08:54:16.001000+02:00</time>
      </trkpt>
      <trkpt lat="46.2577" lon="-0.23584">
        <ele>105</ele>
        <time>2025-07-11T08:54:18.001000+02:00</time>
      </trkpt>
      <trkpt lat="46.25764" lon="-0.2359">
        <ele>105</ele>
        <time>2025-07-11T08:54:20.001000+02:00</time>
      </trkpt>
      <trkpt lat="46.25761" lon="-0.23593">
        <ele>105</ele>
        <time>2025-07-11T08:54:21.001000+02:00</time>
      </trkpt>
      <trkpt lat="46.25757" lon="-0.23597">
        <ele>105</ele>
        <time>2025-07-11T08:54:22.001000+02:00</time>
      </trkpt>
      <trkpt lat="46.25751" lon="-0.23603">
        <ele>105</ele>
        <time>2025-07-11T08:54:23.999000+02:00</time>
      </trkpt>
      <trkpt lat="46.25749" lon="-0.23606">
        <ele>105</ele>
        <time>2025-07-11T08:54:25+02:00</time>
      </trkpt>
      <trkpt lat="46.25746" lon="-0.2361">
        <ele>105.1</ele>
        <time>2025-07-11T08:54:26+02:00</time>
      </trkpt>
      <trkpt lat="46.25743" lon="-0.23613">
        <ele>105.3</ele>
        <time>2025-07-11T08:54:27.001000+02:00</time>
      </trkpt>
      <trkpt lat="46.25739" lon="-0.23616">
        <ele>105.4</ele>
        <time>2025-07-11T08:54:28.001000+02:00</time>
      </trkpt>
      <trkpt lat="46.25733" lon="-0.23622">
        <ele>105.6</ele>
        <time>2025-07-11T08:54:30.001000+02:00</time>
      </trkpt>
      <trkpt lat="46.2573" lon="-0.23624">
        <ele>105.7</ele>
        <time>2025-07-11T08:54:31.002000+02:00</time>
      </trkpt>
      <trkpt lat="46.25724" lon="-0.23631">
        <ele>105.9</ele>
        <time>2025-07-11T08:54:33+02:00</time>
      </trkpt>
      <trkpt lat="46.25721" lon="-0.23633">
        <ele>106</ele>
        <time>2025-07-11T08:54:34.002000+02:00</time>
      </trkpt>
      <trkpt lat="46.25714" lon="-0.23638">
        <ele>106</ele>
        <time>2025-07-11T08:54:36+02:00</time>
      </trkpt>
      <trkpt lat="46.2571" lon="-0.23641">
        <ele>106</ele>
        <time>2025-07-11T08:54:37.004000+02:00</time>
      </trkpt>
      <trkpt lat="46.25703" lon="-0.23645">
        <ele>106.2</ele>
        <time>2025-07-11T08:54:39.003000+02:00</time>
      </trkpt>
      <trkpt lat="46.25696" lon="-0.2365">
        <ele>106.4</ele>
        <time>2025-07-11T08:54:41.001000+02:00</time>
      </trkpt>
      <trkpt lat="46.25693" lon="-0.23653">
        <ele>106.5</ele>
        <time>2025-07-11T08:54:42.001000+02:00</time>
      </trkpt>
      <trkpt lat="46.25689" lon="-0.23656">
        <ele>106.5</ele>
        <time>2025-07-11T08:54:43.001000+02:00</time>
      </trkpt>
      <trkpt lat="46.25686" lon="-0.23658">
        <ele>106.5</ele>
        <time>2025-07-11T08:54:44.001000+02:00</time>
      </trkpt>
      <trkpt lat="46.25682" lon="-0.23661">
        <ele>106.4</ele>
        <time>2025-07-11T08:54:45.001000+02:00</time>
      </trkpt>
      <trkpt lat="46.25675" lon="-0.23666">
        <ele>106.3</ele>
        <time>2025-07-11T08:54:46.999000+02:00</time>
      </trkpt>
      <trkpt lat="46.25671" lon="-0.23669">
        <ele>106.2</ele>
        <time>2025-07-11T08:54:48.001000+02:00</time>
      </trkpt>
      <trkpt lat="46.25662" lon="-0.23675">
        <ele>106.1</ele>
        <time>2025-07-11T08:54:49.999000+02:00</time>
      </trkpt>
      <trkpt lat="46.25658" lon="-0.23677">
        <ele>106.1</ele>
        <time>2025-07-11T08:54:51+02:00</time>
      </trkpt>
      <trkpt lat="46.25654" lon="-0.23679">
        <ele>106</ele>
        <time>2025-07-11T08:54:52+02:00</time>
      </trkpt>
      <trkpt lat="46.2565" lon="-0.23682">
        <ele>106</ele>
        <time>2025-07-11T08:54:53+02:00</time>
      </trkpt>
      <trkpt lat="46.25646" lon="-0.23685">
        <ele>105.9</ele>
        <time>2025-07-11T08:54:54.001000+02:00</time>
      </trkpt>
      <trkpt lat="46.25638" lon="-0.23691">
        <ele>105.9</ele>
        <time>2025-07-11T08:54:56+02:00</time>
      </trkpt>
      <trkpt lat="46.25634" lon="-0.23693">
        <ele>106</ele>
        <time>2025-07-11T08:54:57.001000+02:00</time>
      </trkpt>
      <trkpt lat="46.2563" lon="-0.23696">
        <ele>106.1</ele>
        <time>2025-07-11T08:54:58.002000+02:00</time>
      </trkpt>
      <trkpt lat="46.25621" lon="-0.23701">
        <ele>106.2</ele>
        <time>2025-07-11T08:55:00+02:00</time>
      </trkpt>
      <trkpt lat="46.25617" lon="-0.23704">
        <ele>106.3</ele>
        <time>2025-07-11T08:55:01+02:00</time>
      </trkpt>
      <trkpt lat="46.25613" lon="-0.23706">
        <ele>106.4</ele>
        <time>2025-07-11T08:55:02.002000+02:00</time>
      </trkpt>
      <trkpt lat="46.25608" lon="-0.23708">
        <ele>106.4</ele>
        <time>2025-07-11T08:55:03.004000+02:00</time>
      </trkpt>
      <trkpt lat="46.25599" lon="-0.23714">
        <ele>106.3</ele>
        <time>2025-07-11T08:55:05.003000+02:00</time>
      </trkpt>
      <trkpt lat="46.2559" lon="-0.23719">
        <ele>106.1</ele>
        <time>2025-07-11T08:55:07.001000+02:00</time>
      </trkpt>
      <trkpt lat="46.25585" lon="-0.23721">
        <ele>106</ele>
        <time>2025-07-11T08:55:08.001000+02:00</time>
      </trkpt>
      <trkpt lat="46.2558" lon="-0.23724">
        <ele>106.1</ele>
        <time>2025-07-11T08:55:09.001000+02:00</time>
      </trkpt>
      <trkpt lat="46.25571" lon="-0.2373">
        <ele>106.3</ele>
        <time>2025-07-11T08:55:11+02:00</time>
      </trkpt>
      <trkpt lat="46.25566" lon="-0.23732">
        <ele>106.4</ele>
        <time>2025-07-11T08:55:12.002000+02:00</time>
      </trkpt>
      <trkpt lat="46.25556" lon="-0.23737">
        <ele>106.5</ele>
        <time>2025-07-11T08:55:14.001000+02:00</time>
      </trkpt>
      <trkpt lat="46.25552" lon="-0.23739">
        <ele>106.6</ele>
        <time>2025-07-11T08:55:15.002000+02:00</time>
      </trkpt>
      <trkpt lat="46.25547" lon="-0.23742">
        <ele>106.6</ele>
        <time>2025-07-11T08:55:16.002000+02:00</time>
      </trkpt>
      <trkpt lat="46.25543" lon="-0.23745">
        <ele>106.7</ele>
        <time>2025-07-11T08:55:17.002000+02:00</time>
      </trkpt>
      <trkpt lat="46.25538" lon="-0.23749">
        <ele>106.9</ele>
        <time>2025-07-11T08:55:18.002000+02:00</time>
      </trkpt>
      <trkpt lat="46.2553" lon="-0.23754">
        <ele>107</ele>
        <time>2025-07-11T08:55:20.001000+02:00</time>
      </trkpt>
      <trkpt lat="46.25525" lon="-0.23757">
        <ele>106.9</ele>
        <time>2025-07-11T08:55:21.001000+02:00</time>
      </trkpt>
      <trkpt lat="46.25517" lon="-0.23763">
        <ele>106.8</ele>
        <time>2025-07-11T08:55:23.001000+02:00</time>
      </trkpt>
      <trkpt lat="46.25509" lon="-0.23768">
        <ele>106.8</ele>
        <time>2025-07-11T08:55:25+02:00</time>
      </trkpt>
      <trkpt lat="46.25505" lon="-0.2377">
        <ele>106.8</ele>
        <time>2025-07-11T08:55:26+02:00</time>
      </trkpt>
      <trkpt lat="46.25501" lon="-0.23774">
        <ele>106.9</ele>
        <time>2025-07-11T08:55:27.002000+02:00</time>
      </trkpt>
      <trkpt lat="46.25493" lon="-0.2378">
        <ele>107</ele>
        <time>2025-07-11T08:55:29.001000+02:00</time>
      </trkpt>
      <trkpt lat="46.25489" lon="-0.23782">
        <ele>107</ele>
        <time>2025-07-11T08:55:30.002000+02:00</time>
      </trkpt>
      <trkpt lat="46.25481" lon="-0.23788">
        <ele>107</ele>
        <time>2025-07-11T08:55:32.001000+02:00</time>
      </trkpt>
      <trkpt lat="46.25476" lon="-0.23791">
        <ele>107</ele>
        <time>2025-07-11T08:55:33.001000+02:00</time>
      </trkpt>
      <trkpt lat="46.25472" lon="-0.23794">
        <ele>107</ele>
        <time>2025-07-11T08:55:34.001000+02:00</time>
      </trkpt>
      <trkpt lat="46.25464" lon="-0.238">
        <ele>107</ele>
        <time>2025-07-11T08:55:36.001000+02:00</time>
      </trkpt>
      <trkpt lat="46.2546" lon="-0.23803">
        <ele>107</ele>
        <time>2025-07-11T08:55:37.001000+02:00</time>
      </trkpt>
      <trkpt lat="46.25456" lon="-0.23806">
        <ele>107</ele>
        <time>2025-07-11T08:55:38.001000+02:00</time>
      </trkpt>
      <trkpt lat="46.25452" lon="-0.23809">
        <ele>107</ele>
        <time>2025-07-11T08:55:39.002000+02:00</time>
      </trkpt>
      <trkpt lat="46.25444" lon="-0.23814">
        <ele>107</ele>
        <time>2025-07-11T08:55:41+02:00</time>
      </trkpt>
      <trkpt lat="46.25435" lon="-0.2382">
        <ele>107</ele>
        <time>2025-07-11T08:55:42.999000+02:00</time>
      </trkpt>
      <trkpt lat="46.2543" lon="-0.23822">
        <ele>107</ele>
        <time>2025-07-11T08:55:44.001000+02:00</time>
      </trkpt>
      <trkpt lat="46.2542" lon="-0.23828">
        <ele>107</ele>
        <time>2025-07-11T08:55:46.001000+02:00</time>
      </trkpt>
      <trkpt lat="46.25415" lon="-0.23831">
        <ele>106.9</ele>
        <time>2025-07-11T08:55:47.001000+02:00</time>
      </trkpt>
      <trkpt lat="46.2541" lon="-0.23834">
        <ele>106.8</ele>
        <time>2025-07-11T08:55:48.001000+02:00</time>
      </trkpt>
      <trkpt lat="46.25399" lon="-0.2384">
        <ele>106.5</ele>
        <time>2025-07-11T08:55:50.001000+02:00</time>
      </trkpt>
      <trkpt lat="46.25394" lon="-0.23843">
        <ele>106.5</ele>
        <time>2025-07-11T08:55:51.001000+02:00</time>
      </trkpt>
      <trkpt lat="46.25385" lon="-0.23849">
        <ele>106.5</ele>
        <time>2025-07-11T08:55:53+02:00</time>
      </trkpt>
      <trkpt lat="46.2538" lon="-0.23852">
        <ele>106.4</ele>
        <time>2025-07-11T08:55:54.001000+02:00</time>
      </trkpt>
      <trkpt lat="46.2537" lon="-0.23857">
        <ele>106.3</ele>
        <time>2025-07-11T08:55:56.001000+02:00</time>
      </trkpt>
      <trkpt lat="46.25366" lon="-0.23859">
        <ele>106.1</ele>
        <time>2025-07-11T08:55:57.002000+02:00</time>
      </trkpt>
      <trkpt lat="46.25356" lon="-0.23863">
        <ele>106.1</ele>
        <time>2025-07-11T08:55:58.999000+02:00</time>
      </trkpt>
      <trkpt lat="46.25352" lon="-0.23866">
        <ele>106.1</ele>
        <time>2025-07-11T08:56:00.001000+02:00</time>
      </trkpt>
      <trkpt lat="46.25344" lon="-0.2387">
        <ele>106.1</ele>
        <time>2025-07-11T08:56:02+02:00</time>
      </trkpt>
      <trkpt lat="46.2534" lon="-0.23872">
        <ele>106.1</ele>
        <time>2025-07-11T08:56:03.001000+02:00</time>
      </trkpt>
      <trkpt lat="46.25331" lon="-0.23876">
        <ele>106</ele>
        <time>2025-07-11T08:56:05+02:00</time>
      </trkpt>
      <trkpt lat="46.25327" lon="-0.23877">
        <ele>105.9</ele>
        <time>2025-07-11T08:56:06.001000+02:00</time>
      </trkpt>
      <trkpt lat="46.25324" lon="-0.23879">
        <ele>105.9</ele>
        <time>2025-07-11T08:56:07.001000+02:00</time>
      </trkpt>
      <trkpt lat="46.2532" lon="-0.23881">
        <ele>105.9</ele>
        <time>2025-07-11T08:56:08.001000+02:00</time>
      </trkpt>
      <trkpt lat="46.25316" lon="-0.23884">
        <ele>105.9</ele>
        <time>2025-07-11T08:56:09.002000+02:00</time>
      </trkpt>
      <trkpt lat="46.25311" lon="-0.23894">
        <ele>106</ele>
        <time>2025-07-11T08:56:10.999000+02:00</time>
      </trkpt>
      <trkpt lat="46.2531" lon="-0.23901">
        <ele>106.1</ele>
        <time>2025-07-11T08:56:12+02:00</time>
      </trkpt>
      <trkpt lat="46.25309" lon="-0.23908">
        <ele>106.1</ele>
        <time>2025-07-11T08:56:13+02:00</time>
      </trkpt>
      <trkpt lat="46.25309" lon="-0.23915">
        <ele>106.1</ele>
        <time>2025-07-11T08:56:14+02:00</time>
      </trkpt>
      <trkpt lat="46.25308" lon="-0.23922">
        <ele>106.3</ele>
        <time>2025-07-11T08:56:15.001000+02:00</time>
      </trkpt>
      <trkpt lat="46.25306" lon="-0.23935">
        <ele>106.7</ele>
        <time>2025-07-11T08:56:17.001000+02:00</time>
      </trkpt>
      <trkpt lat="46.25305" lon="-0.23948">
        <ele>107</ele>
        <time>2025-07-11T08:56:18.999000+02:00</time>
      </trkpt>
      <trkpt lat="46.25305" lon="-0.23954">
        <ele>107</ele>
        <time>2025-07-11T08:56:19.999000+02:00</time>
      </trkpt>
      <trkpt lat="46.25305" lon="-0.23959">
        <ele>107</ele>
        <time>2025-07-11T08:56:21.002000+02:00</time>
      </trkpt>
      <trkpt lat="46.25304" lon="-0.23969">
        <ele>107</ele>
        <time>2025-07-11T08:56:23+02:00</time>
      </trkpt>
      <trkpt lat="46.25304" lon="-0.23974">
        <ele>107</ele>
        <time>2025-07-11T08:56:24.002000+02:00</time>
      </trkpt>
      <trkpt lat="46.25302" lon="-0.23985">
        <ele>107</ele>
        <time>2025-07-11T08:56:26+02:00</time>
      </trkpt>
      <trkpt lat="46.25302" lon="-0.23991">
        <ele>107</ele>
        <time>2025-07-11T08:56:27+02:00</time>
      </trkpt>
      <trkpt lat="46.25302" lon="-0.23997">
        <ele>107</ele>
        <time>2025-07-11T08:56:28.001000+02:00</time>
      </trkpt>
      <trkpt lat="46.25302" lon="-0.24004">
        <ele>107</ele>
        <time>2025-07-11T08:56:29.001000+02:00</time>
      </trkpt>
      <trkpt lat="46.25301" lon="-0.2401">
        <ele>107</ele>
        <time>2025-07-11T08:56:30.001000+02:00</time>
      </trkpt>
      <trkpt lat="46.25301" lon="-0.24017">
        <ele>107</ele>
        <time>2025-07-11T08:56:31.001000+02:00</time>
      </trkpt>
      <trkpt lat="46.253" lon="-0.24031">
        <ele>107</ele>
        <time>2025-07-11T08:56:33+02:00</time>
      </trkpt>
      <trkpt lat="46.25299" lon="-0.24038">
        <ele>106.9</ele>
        <time>2025-07-11T08:56:34.001000+02:00</time>
      </trkpt>
      <trkpt lat="46.25297" lon="-0.24044">
        <ele>106.8</ele>
        <time>2025-07-11T08:56:35.002000+02:00</time>
      </trkpt>
      <trkpt lat="46.25288" lon="-0.24051">
        <ele>106.5</ele>
        <time>2025-07-11T08:56:37+02:00</time>
      </trkpt>
      <trkpt lat="46.25277" lon="-0.24049">
        <ele>106.3</ele>
        <time>2025-07-11T08:56:39.001000+02:00</time>
      </trkpt>
      <trkpt lat="46.25269" lon="-0.24046">
        <ele>106.6</ele>
        <time>2025-07-11T08:56:41+02:00</time>
      </trkpt>
      <trkpt lat="46.25264" lon="-0.24045">
        <ele>106.7</ele>
        <time>2025-07-11T08:56:42.001000+02:00</time>
      </trkpt>
      <trkpt lat="46.25255" lon="-0.24041">
        <ele>106.9</ele>
        <time>2025-07-11T08:56:44+02:00</time>
      </trkpt>
      <trkpt lat="46.25251" lon="-0.24039">
        <ele>107</ele>
        <time>2025-07-11T08:56:45.004000+02:00</time>
      </trkpt>
      <trkpt lat="46.25242" lon="-0.24036">
        <ele>107</ele>
        <time>2025-07-11T08:56:47+02:00</time>
      </trkpt>
      <trkpt lat="46.25234" lon="-0.24034">
        <ele>107</ele>
        <time>2025-07-11T08:56:49.001000+02:00</time>
      </trkpt>
      <trkpt lat="46.2523" lon="-0.24032">
        <ele>107</ele>
        <time>2025-07-11T08:56:50.001000+02:00</time>
      </trkpt>
      <trkpt lat="46.25222" lon="-0.24029">
        <ele>107</ele>
        <time>2025-07-11T08:56:52+02:00</time>
      </trkpt>
      <trkpt lat="46.25218" lon="-0.24027">
        <ele>107</ele>
        <time>2025-07-11T08:56:53.001000+02:00</time>
      </trkpt>
      <trkpt lat="46.25209" lon="-0.24024">
        <ele>107.1</ele>
        <time>2025-07-11T08:56:55+02:00</time>
      </trkpt>
      <trkpt lat="46.25205" lon="-0.24023">
        <ele>107.1</ele>
        <time>2025-07-11T08:56:56.001000+02:00</time>
      </trkpt>
      <trkpt lat="46.252" lon="-0.24021">
        <ele>107.2</ele>
        <time>2025-07-11T08:56:57.001000+02:00</time>
      </trkpt>
      <trkpt lat="46.25191" lon="-0.24019">
        <ele>107.3</ele>
        <time>2025-07-11T08:56:59+02:00</time>
      </trkpt>
      <trkpt lat="46.25187" lon="-0.24018">
        <ele>107.3</ele>
        <time>2025-07-11T08:57:00+02:00</time>
      </trkpt>
      <trkpt lat="46.25183" lon="-0.24018">
        <ele>107.4</ele>
        <time>2025-07-11T08:57:01.001000+02:00</time>
      </trkpt>
      <trkpt lat="46.25174" lon="-0.24016">
        <ele>107.4</ele>
        <time>2025-07-11T08:57:03.001000+02:00</time>
      </trkpt>
      <trkpt lat="46.25166" lon="-0.24014">
        <ele>107.5</ele>
        <time>2025-07-11T08:57:05.001000+02:00</time>
      </trkpt>
      <trkpt lat="46.25156" lon="-0.24012">
        <ele>107.6</ele>
        <time>2025-07-11T08:57:07.001000+02:00</time>
      </trkpt>
      <trkpt lat="46.25152" lon="-0.24011">
        <ele>107.6</ele>
        <time>2025-07-11T08:57:08.001000+02:00</time>
      </trkpt>
      <trkpt lat="46.25143" lon="-0.24011">
        <ele>107.6</ele>
        <time>2025-07-11T08:57:09.999000+02:00</time>
      </trkpt>
      <trkpt lat="46.25139" lon="-0.2401">
        <ele>107.6</ele>
        <time>2025-07-11T08:57:11+02:00</time>
      </trkpt>
      <trkpt lat="46.25134" lon="-0.24009">
        <ele>107.6</ele>
        <time>2025-07-11T08:57:12.001000+02:00</time>
      </trkpt>
      <trkpt lat="46.25126" lon="-0.24008">
        <ele>107.4</ele>
        <time>2025-07-11T08:57:14+02:00</time>
      </trkpt>
      <trkpt lat="46.25122" lon="-0.24008">
        <ele>107.3</ele>
        <time>2025-07-11T08:57:15.004000+02:00</time>
      </trkpt>
      <trkpt lat="46.25113" lon="-0.24008">
        <ele>107</ele>
        <time>2025-07-11T08:57:17+02:00</time>
      </trkpt>
      <trkpt lat="46.25107" lon="-0.24007">
        <ele>107</ele>
        <time>2025-07-11T08:57:18.001000+02:00</time>
      </trkpt>
      <trkpt lat="46.25103" lon="-0.24007">
        <ele>107</ele>
        <time>2025-07-11T08:57:19.002000+02:00</time>
      </trkpt>
      <trkpt lat="46.25098" lon="-0.24007">
        <ele>107</ele>
        <time>2025-07-11T08:57:20.002000+02:00</time>
      </trkpt>
      <trkpt lat="46.25088" lon="-0.24007">
        <ele>107</ele>
        <time>2025-07-11T08:57:22.001000+02:00</time>
      </trkpt>
      <trkpt lat="46.25083" lon="-0.24007">
        <ele>107</ele>
        <time>2025-07-11T08:57:23.002000+02:00</time>
      </trkpt>
      <trkpt lat="46.25078" lon="-0.24008">
        <ele>107.1</ele>
        <time>2025-07-11T08:57:24.002000+02:00</time>
      </trkpt>
      <trkpt lat="46.25069" lon="-0.24009">
        <ele>107.4</ele>
        <time>2025-07-11T08:57:26.001000+02:00</time>
      </trkpt>
      <trkpt lat="46.25064" lon="-0.24009">
        <ele>107.5</ele>
        <time>2025-07-11T08:57:27.001000+02:00</time>
      </trkpt>
      <trkpt lat="46.25058" lon="-0.24009">
        <ele>107.6</ele>
        <time>2025-07-11T08:57:28.001000+02:00</time>
      </trkpt>
      <trkpt lat="46.25054" lon="-0.24009">
        <ele>107.7</ele>
        <time>2025-07-11T08:57:29.002000+02:00</time>
      </trkpt>
      <trkpt lat="46.25049" lon="-0.24009">
        <ele>107.7</ele>
        <time>2025-07-11T08:57:30.002000+02:00</time>
      </trkpt>
      <trkpt lat="46.2504" lon="-0.24009">
        <ele>107.7</ele>
        <time>2025-07-11T08:57:32+02:00</time>
      </trkpt>
      <trkpt lat="46.25035" lon="-0.2401">
        <ele>107.6</ele>
        <time>2025-07-11T08:57:33.001000+02:00</time>
      </trkpt>
      <trkpt lat="46.25026" lon="-0.24011">
        <ele>107.6</ele>
        <time>2025-07-11T08:57:34.999000+02:00</time>
      </trkpt>
      <trkpt lat="46.25021" lon="-0.24011">
        <ele>107.7</ele>
        <time>2025-07-11T08:57:36+02:00</time>
      </trkpt>
      <trkpt lat="46.25016" lon="-0.24012">
        <ele>107.8</ele>
        <time>2025-07-11T08:57:37.001000+02:00</time>
      </trkpt>
      <trkpt lat="46.25012" lon="-0.24012">
        <ele>107.8</ele>
        <time>2025-07-11T08:57:38.001000+02:00</time>
      </trkpt>
      <trkpt lat="46.25007" lon="-0.24012">
        <ele>107.9</ele>
        <time>2025-07-11T08:57:39.003000+02:00</time>
      </trkpt>
      <trkpt lat="46.24999" lon="-0.24014">
        <ele>108</ele>
        <time>2025-07-11T08:57:41.001000+02:00</time>
      </trkpt>
      <trkpt lat="46.24991" lon="-0.24014">
        <ele>108</ele>
        <time>2025-07-11T08:57:43.002000+02:00</time>
      </trkpt>
      <trkpt lat="46.24981" lon="-0.24014">
        <ele>108</ele>
        <time>2025-07-11T08:57:45.001000+02:00</time>
      </trkpt>
      <trkpt lat="46.24977" lon="-0.24014">
        <ele>108</ele>
        <time>2025-07-11T08:57:46.001000+02:00</time>
      </trkpt>
      <trkpt lat="46.24972" lon="-0.24013">
        <ele>108</ele>
        <time>2025-07-11T08:57:47.003000+02:00</time>
      </trkpt>
      <trkpt lat="46.24967" lon="-0.24013">
        <ele>108</ele>
        <time>2025-07-11T08:57:48.004000+02:00</time>
      </trkpt>
      <trkpt lat="46.24963" lon="-0.24012">
        <ele>108</ele>
        <time>2025-07-11T08:57:49.004000+02:00</time>
      </trkpt>
      <trkpt lat="46.24958" lon="-0.24012">
        <ele>108</ele>
        <time>2025-07-11T08:57:50.004000+02:00</time>
      </trkpt>
      <trkpt lat="46.24947" lon="-0.24012">
        <ele>108</ele>
        <time>2025-07-11T08:57:52.001000+02:00</time>
      </trkpt>
      <trkpt lat="46.24942" lon="-0.24012">
        <ele>108</ele>
        <time>2025-07-11T08:57:53.001000+02:00</time>
      </trkpt>
      <trkpt lat="46.24931" lon="-0.24011">
        <ele>108</ele>
        <time>2025-07-11T08:57:55.001000+02:00</time>
      </trkpt>
      <trkpt lat="46.2492" lon="-0.2401">
        <ele>108</ele>
        <time>2025-07-11T08:57:57.001000+02:00</time>
      </trkpt>
      <trkpt lat="46.24908" lon="-0.24009">
        <ele>107.8</ele>
        <time>2025-07-11T08:57:59+02:00</time>
      </trkpt>
      <trkpt lat="46.24902" lon="-0.24009">
        <ele>107.6</ele>
        <time>2025-07-11T08:58:00.001000+02:00</time>
      </trkpt>
      <trkpt lat="46.24891" lon="-0.24007">
        <ele>107.3</ele>
        <time>2025-07-11T08:58:02+02:00</time>
      </trkpt>
      <trkpt lat="46.24885" lon="-0.24006">
        <ele>107.1</ele>
        <time>2025-07-11T08:58:03.002000+02:00</time>
      </trkpt>
      <trkpt lat="46.24874" lon="-0.24003">
        <ele>106.6</ele>
        <time>2025-07-11T08:58:05.001000+02:00</time>
      </trkpt>
      <trkpt lat="46.24863" lon="-0.24">
        <ele>106.1</ele>
        <time>2025-07-11T08:58:07.001000+02:00</time>
      </trkpt>
      <trkpt lat="46.24858" lon="-0.23997">
        <ele>106.1</ele>
        <time>2025-07-11T08:58:08.003000+02:00</time>
      </trkpt>
      <trkpt lat="46.24852" lon="-0.23994">
        <ele>106.2</ele>
        <time>2025-07-11T08:58:09.003000+02:00</time>
      </trkpt>
      <trkpt lat="46.24841" lon="-0.23987">
        <ele>106.4</ele>
        <time>2025-07-11T08:58:11.001000+02:00</time>
      </trkpt>
      <trkpt lat="46.24836" lon="-0.23984">
        <ele>106.4</ele>
        <time>2025-07-11T08:58:12.003000+02:00</time>
      </trkpt>
      <trkpt lat="46.2483" lon="-0.23981">
        <ele>106.2</ele>
        <time>2025-07-11T08:58:13.003000+02:00</time>
      </trkpt>
      <trkpt lat="46.24819" lon="-0.23974">
        <ele>105.5</ele>
        <time>2025-07-11T08:58:15+02:00</time>
      </trkpt>
      <trkpt lat="46.24813" lon="-0.23971">
        <ele>105.2</ele>
        <time>2025-07-11T08:58:16+02:00</time>
      </trkpt>
      <trkpt lat="46.24802" lon="-0.23964">
        <ele>104.4</ele>
        <time>2025-07-11T08:58:18.005000+02:00</time>
      </trkpt>
      <trkpt lat="46.24791" lon="-0.23956">
        <ele>104.1</ele>
        <time>2025-07-11T08:58:20.001000+02:00</time>
      </trkpt>
      <trkpt lat="46.24785" lon="-0.23952">
        <ele>104.1</ele>
        <time>2025-07-11T08:58:21.002000+02:00</time>
      </trkpt>
      <trkpt lat="46.24773" lon="-0.23946">
        <ele>104.1</ele>
        <time>2025-07-11T08:58:23+02:00</time>
      </trkpt>
      <trkpt lat="46.24767" lon="-0.23944">
        <ele>104</ele>
        <time>2025-07-11T08:58:24+02:00</time>
      </trkpt>
      <trkpt lat="46.24761" lon="-0.23943">
        <ele>104</ele>
        <time>2025-07-11T08:58:25+02:00</time>
      </trkpt>
      <trkpt lat="46.24754" lon="-0.23941">
        <ele>104</ele>
        <time>2025-07-11T08:58:26+02:00</time>
      </trkpt>
      <trkpt lat="46.24748" lon="-0.2394">
        <ele>103.9</ele>
        <time>2025-07-11T08:58:27.002000+02:00</time>
      </trkpt>
      <trkpt lat="46.24735" lon="-0.23937">
        <ele>103.3</ele>
        <time>2025-07-11T08:58:29+02:00</time>
      </trkpt>
      <trkpt lat="46.2473" lon="-0.23935">
        <ele>103</ele>
        <time>2025-07-11T08:58:30.001000+02:00</time>
      </trkpt>
      <trkpt lat="46.2472" lon="-0.23933">
        <ele>102.5</ele>
        <time>2025-07-11T08:58:32.001000+02:00</time>
      </trkpt>
      <trkpt lat="46.24716" lon="-0.23933">
        <ele>102.5</ele>
        <time>2025-07-11T08:58:33.001000+02:00</time>
      </trkpt>
      <trkpt lat="46.24712" lon="-0.23939">
        <ele>102.5</ele>
        <time>2025-07-11T08:58:34.999000+02:00</time>
      </trkpt>
      <trkpt lat="46.24713" lon="-0.23944">
        <ele>102.6</ele>
        <time>2025-07-11T08:58:36.001000+02:00</time>
      </trkpt>
      <trkpt lat="46.24715" lon="-0.23954">
        <ele>103</ele>
        <time>2025-07-11T08:58:38+02:00</time>
      </trkpt>
      <trkpt lat="46.24717" lon="-0.23959">
        <ele>103.2</ele>
        <time>2025-07-11T08:58:39.001000+02:00</time>
      </trkpt>
      <trkpt lat="46.24718" lon="-0.23964">
        <ele>103.4</ele>
        <time>2025-07-11T08:58:40.001000+02:00</time>
      </trkpt>
      <trkpt lat="46.2472" lon="-0.2397">
        <ele>103.7</ele>
        <time>2025-07-11T08:58:41.002000+02:00</time>
      </trkpt>
      <trkpt lat="46.24721" lon="-0.23975">
        <ele>104</ele>
        <time>2025-07-11T08:58:42.003000+02:00</time>
      </trkpt>
      <trkpt lat="46.24725" lon="-0.23986">
        <ele>104.6</ele>
        <time>2025-07-11T08:58:44.004000+02:00</time>
      </trkpt>
      <trkpt lat="46.24726" lon="-0.23991">
        <ele>104.8</ele>
        <time>2025-07-11T08:58:45.004000+02:00</time>
      </trkpt>
      <trkpt lat="46.24729" lon="-0.24001">
        <ele>105.3</ele>
        <time>2025-07-11T08:58:47.002000+02:00</time>
      </trkpt>
      <trkpt lat="46.2473" lon="-0.24007">
        <ele>105.4</ele>
        <time>2025-07-11T08:58:48.002000+02:00</time>
      </trkpt>
      <trkpt lat="46.24732" lon="-0.24011">
        <ele>105.6</ele>
        <time>2025-07-11T08:58:49.002000+02:00</time>
      </trkpt>
      <trkpt lat="46.24733" lon="-0.24017">
        <ele>105.8</ele>
        <time>2025-07-11T08:58:50.002000+02:00</time>
      </trkpt>
      <trkpt lat="46.24737" lon="-0.24026">
        <ele>106</ele>
        <time>2025-07-11T08:58:52+02:00</time>
      </trkpt>
      <trkpt lat="46.24738" lon="-0.24031">
        <ele>106</ele>
        <time>2025-07-11T08:58:53.001000+02:00</time>
      </trkpt>
      <trkpt lat="46.2474" lon="-0.24036">
        <ele>106</ele>
        <time>2025-07-11T08:58:54.002000+02:00</time>
      </trkpt>
      <trkpt lat="46.24742" lon="-0.24045">
        <ele>106</ele>
        <time>2025-07-11T08:58:56.002000+02:00</time>
      </trkpt>
      <trkpt lat="46.24744" lon="-0.2405">
        <ele>106</ele>
        <time>2025-07-11T08:58:57.003000+02:00</time>
      </trkpt>
      <trkpt lat="46.24746" lon="-0.24059">
        <ele>106</ele>
        <time>2025-07-11T08:58:59.001000+02:00</time>
      </trkpt>
      <trkpt lat="46.24747" lon="-0.24064">
        <ele>106</ele>
        <time>2025-07-11T08:59:00.002000+02:00</time>
      </trkpt>
      <trkpt lat="46.24748" lon="-0.24069">
        <ele>106</ele>
        <time>2025-07-11T08:59:01.004000+02:00</time>
      </trkpt>
      <trkpt lat="46.24749" lon="-0.24079">
        <ele>106</ele>
        <time>2025-07-11T08:59:03.003000+02:00</time>
      </trkpt>
      <trkpt lat="46.24751" lon="-0.24085">
        <ele>106</ele>
        <time>2025-07-11T08:59:04.953000+02:00</time>
      </trkpt>
      <trkpt lat="46.24773" lon="-0.2409">
        <ele>106.6</ele>
        <time>2025-07-11T08:59:06.001000+02:00</time>
      </trkpt>
      <trkpt lat="46.24786" lon="-0.24083">
        <ele>107</ele>
        <time>2025-07-11T08:59:07.002000+02:00</time>
      </trkpt>
      <trkpt lat="46.24782" lon="-0.2409">
        <ele>106.8</ele>
        <time>2025-07-11T08:59:08.002000+02:00</time>
      </trkpt>
      <trkpt lat="46.24767" lon="-0.24103">
        <ele>106.2</ele>
        <time>2025-07-11T08:59:10.001000+02:00</time>
      </trkpt>
      <trkpt lat="46.2476" lon="-0.24107">
        <ele>106.1</ele>
        <time>2025-07-11T08:59:11.002000+02:00</time>
      </trkpt>
      <trkpt lat="46.24754" lon="-0.24109">
        <ele>106</ele>
        <time>2025-07-11T08:59:12.002000+02:00</time>
      </trkpt>
      <trkpt lat="46.24747" lon="-0.2411">
        <ele>106</ele>
        <time>2025-07-11T08:59:13.002000+02:00</time>
      </trkpt>
      <trkpt lat="46.24741" lon="-0.24113">
        <ele>106</ele>
        <time>2025-07-11T08:59:14.002000+02:00</time>
      </trkpt>
      <trkpt lat="46.24735" lon="-0.24116">
        <ele>105.9</ele>
        <time>2025-07-11T08:59:15.003000+02:00</time>
      </trkpt>
      <trkpt lat="46.24725" lon="-0.24125">
        <ele>105.5</ele>
        <time>2025-07-11T08:59:17.002000+02:00</time>
      </trkpt>
      <trkpt lat="46.24717" lon="-0.24133">
        <ele>105.2</ele>
        <time>2025-07-11T08:59:19.001000+02:00</time>
      </trkpt>
      <trkpt lat="46.24713" lon="-0.24138">
        <ele>105</ele>
        <time>2025-07-11T08:59:20.002000+02:00</time>
      </trkpt>
      <trkpt lat="46.2471" lon="-0.24143">
        <ele>105</ele>
        <time>2025-07-11T08:59:21.003000+02:00</time>
      </trkpt>
      <trkpt lat="46.24702" lon="-0.24154">
        <ele>105</ele>
        <time>2025-07-11T08:59:23.002000+02:00</time>
      </trkpt>
      <trkpt lat="46.24699" lon="-0.24159">
        <ele>105</ele>
        <time>2025-07-11T08:59:24.002000+02:00</time>
      </trkpt>
      <trkpt lat="46.24696" lon="-0.24164">
        <ele>105</ele>
        <time>2025-07-11T08:59:25.002000+02:00</time>
      </trkpt>
      <trkpt lat="46.24693" lon="-0.24169">
        <ele>105</ele>
        <time>2025-07-11T08:59:26.002000+02:00</time>
      </trkpt>
      <trkpt lat="46.2469" lon="-0.24175">
        <ele>105</ele>
        <time>2025-07-11T08:59:27.002000+02:00</time>
      </trkpt>
      <trkpt lat="46.24682" lon="-0.24187">
        <ele>105</ele>
        <time>2025-07-11T08:59:29.001000+02:00</time>
      </trkpt>
      <trkpt lat="46.24675" lon="-0.242">
        <ele>105</ele>
        <time>2025-07-11T08:59:31+02:00</time>
      </trkpt>
      <trkpt lat="46.24671" lon="-0.24206">
        <ele>105</ele>
        <time>2025-07-11T08:59:32+02:00</time>
      </trkpt>
      <trkpt lat="46.24668" lon="-0.24213">
        <ele>105</ele>
        <time>2025-07-11T08:59:33.002000+02:00</time>
      </trkpt>
      <trkpt lat="46.24661" lon="-0.24227">
        <ele>104.8</ele>
        <time>2025-07-11T08:59:35.001000+02:00</time>
      </trkpt>
      <trkpt lat="46.24658" lon="-0.24233">
        <ele>104.6</ele>
        <time>2025-07-11T08:59:36.001000+02:00</time>
      </trkpt>
      <trkpt lat="46.24655" lon="-0.24239">
        <ele>104.4</ele>
        <time>2025-07-11T08:59:37.002000+02:00</time>
      </trkpt>
      <trkpt lat="46.24652" lon="-0.24245">
        <ele>104.2</ele>
        <time>2025-07-11T08:59:38.002000+02:00</time>
      </trkpt>
      <trkpt lat="46.24649" lon="-0.24252">
        <ele>104</ele>
        <time>2025-07-11T08:59:39.002000+02:00</time>
      </trkpt>
      <trkpt lat="46.24643" lon="-0.24265">
        <ele>104</ele>
        <time>2025-07-11T08:59:41.002000+02:00</time>
      </trkpt>
      <trkpt lat="46.24637" lon="-0.24278">
        <ele>104</ele>
        <time>2025-07-11T08:59:43.003000+02:00</time>
      </trkpt>
      <trkpt lat="46.24634" lon="-0.24285">
        <ele>104</ele>
        <time>2025-07-11T08:59:44.004000+02:00</time>
      </trkpt>
      <trkpt lat="46.24628" lon="-0.24297">
        <ele>104</ele>
        <time>2025-07-11T08:59:46.002000+02:00</time>
      </trkpt>
      <trkpt lat="46.24622" lon="-0.2431">
        <ele>104</ele>
        <time>2025-07-11T08:59:48.003000+02:00</time>
      </trkpt>
      <trkpt lat="46.24617" lon="-0.24322">
        <ele>104</ele>
        <time>2025-07-11T08:59:50.001000+02:00</time>
      </trkpt>
      <trkpt lat="46.24614" lon="-0.24328">
        <ele>104</ele>
        <time>2025-07-11T08:59:51.002000+02:00</time>
      </trkpt>
      <trkpt lat="46.24607" lon="-0.2434">
        <ele>104</ele>
        <time>2025-07-11T08:59:53.001000+02:00</time>
      </trkpt>
      <trkpt lat="46.24604" lon="-0.24345">
        <ele>104</ele>
        <time>2025-07-11T08:59:54.001000+02:00</time>
      </trkpt>
      <trkpt lat="46.24601" lon="-0.24351">
        <ele>104</ele>
        <time>2025-07-11T08:59:55.002000+02:00</time>
      </trkpt>
      <trkpt lat="46.24595" lon="-0.2436">
        <ele>104</ele>
        <time>2025-07-11T08:59:57.002000+02:00</time>
      </trkpt>
      <trkpt lat="46.24588" lon="-0.24371">
        <ele>104.3</ele>
        <time>2025-07-11T08:59:59.001000+02:00</time>
      </trkpt>
      <trkpt lat="46.24584" lon="-0.24376">
        <ele>104.5</ele>
        <time>2025-07-11T09:00:00.003000+02:00</time>
      </trkpt>
      <trkpt lat="46.24578" lon="-0.24386">
        <ele>104.7</ele>
        <time>2025-07-11T09:00:02.002000+02:00</time>
      </trkpt>
      <trkpt lat="46.24575" lon="-0.24391">
        <ele>104.7</ele>
        <time>2025-07-11T09:00:03.002000+02:00</time>
      </trkpt>
      <trkpt lat="46.24572" lon="-0.24396">
        <ele>104.6</ele>
        <time>2025-07-11T09:00:04.002000+02:00</time>
      </trkpt>
      <trkpt lat="46.24567" lon="-0.24405">
        <ele>104.4</ele>
        <time>2025-07-11T09:00:06.002000+02:00</time>
      </trkpt>
      <trkpt lat="46.24561" lon="-0.24412">
        <ele>104.2</ele>
        <time>2025-07-11T09:00:08+02:00</time>
      </trkpt>
      <trkpt lat="46.24558" lon="-0.24414">
        <ele>104.1</ele>
        <time>2025-07-11T09:00:09.003000+02:00</time>
      </trkpt>
      <trkpt lat="46.24554" lon="-0.24421">
        <ele>104</ele>
        <time>2025-07-11T09:00:11.003000+02:00</time>
      </trkpt>
      <trkpt lat="46.24553" lon="-0.24433">
        <ele>104.1</ele>
        <time>2025-07-11T09:00:13.002000+02:00</time>
      </trkpt>
      <trkpt lat="46.24552" lon="-0.24447">
        <ele>104.1</ele>
        <time>2025-07-11T09:00:15.002000+02:00</time>
      </trkpt>
      <trkpt lat="46.24552" lon="-0.2446">
        <ele>104.1</ele>
        <time>2025-07-11T09:00:17+02:00</time>
      </trkpt>
      <trkpt lat="46.24551" lon="-0.24467">
        <ele>104.1</ele>
        <time>2025-07-11T09:00:18.001000+02:00</time>
      </trkpt>
      <trkpt lat="46.24551" lon="-0.24473">
        <ele>104.2</ele>
        <time>2025-07-11T09:00:19.001000+02:00</time>
      </trkpt>
      <trkpt lat="46.2455" lon="-0.2448">
        <ele>104.2</ele>
        <time>2025-07-11T09:00:20.003000+02:00</time>
      </trkpt>
      <trkpt lat="46.24549" lon="-0.24493">
        <ele>104.2</ele>
        <time>2025-07-11T09:00:22.001000+02:00</time>
      </trkpt>
      <trkpt lat="46.24548" lon="-0.245">
        <ele>104.3</ele>
        <time>2025-07-11T09:00:23.001000+02:00</time>
      </trkpt>
      <trkpt lat="46.24545" lon="-0.24506">
        <ele>104.1</ele>
        <time>2025-07-11T09:00:24.003000+02:00</time>
      </trkpt>
      <trkpt lat="46.24541" lon="-0.24517">
        <ele>103.9</ele>
        <time>2025-07-11T09:00:26.001000+02:00</time>
      </trkpt>
      <trkpt lat="46.24539" lon="-0.24522">
        <ele>103.8</ele>
        <time>2025-07-11T09:00:27.001000+02:00</time>
      </trkpt>
      <trkpt lat="46.24533" lon="-0.24532">
        <ele>103.8</ele>
        <time>2025-07-11T09:00:29.001000+02:00</time>
      </trkpt>
      <trkpt lat="46.2453" lon="-0.24537">
        <ele>103.9</ele>
        <time>2025-07-11T09:00:30.002000+02:00</time>
      </trkpt>
      <trkpt lat="46.24524" lon="-0.24546">
        <ele>104</ele>
        <time>2025-07-11T09:00:32.002000+02:00</time>
      </trkpt>
      <trkpt lat="46.24521" lon="-0.24551">
        <ele>104</ele>
        <time>2025-07-11T09:00:33.002000+02:00</time>
      </trkpt>
      <trkpt lat="46.24514" lon="-0.24559">
        <ele>103.9</ele>
        <time>2025-07-11T09:00:35.001000+02:00</time>
      </trkpt>
      <trkpt lat="46.24511" lon="-0.24564">
        <ele>103.9</ele>
        <time>2025-07-11T09:00:36.001000+02:00</time>
      </trkpt>
      <trkpt lat="46.24508" lon="-0.24568">
        <ele>103.9</ele>
        <time>2025-07-11T09:00:37.002000+02:00</time>
      </trkpt>
      <trkpt lat="46.24502" lon="-0.24576">
        <ele>104</ele>
        <time>2025-07-11T09:00:39.001000+02:00</time>
      </trkpt>
      <trkpt lat="46.24498" lon="-0.2458">
        <ele>104</ele>
        <time>2025-07-11T09:00:40.002000+02:00</time>
      </trkpt>
      <trkpt lat="46.24491" lon="-0.24588">
        <ele>103.9</ele>
        <time>2025-07-11T09:00:42.001000+02:00</time>
      </trkpt>
      <trkpt lat="46.24488" lon="-0.24591">
        <ele>103.8</ele>
        <time>2025-07-11T09:00:43.001000+02:00</time>
      </trkpt>
      <trkpt lat="46.24484" lon="-0.24595">
        <ele>103.8</ele>
        <time>2025-07-11T09:00:44.001000+02:00</time>
      </trkpt>
      <trkpt lat="46.24481" lon="-0.246">
        <ele>103.8</ele>
        <time>2025-07-11T09:00:45.001000+02:00</time>
      </trkpt>
      <trkpt lat="46.24478" lon="-0.24604">
        <ele>103.8</ele>
        <time>2025-07-11T09:00:46.001000+02:00</time>
      </trkpt>
      <trkpt lat="46.24476" lon="-0.24607">
        <ele>103.9</ele>
        <time>2025-07-11T09:00:47.002000+02:00</time>
      </trkpt>
      <trkpt lat="46.2447" lon="-0.24616">
        <ele>103.8</ele>
        <time>2025-07-11T09:00:49.001000+02:00</time>
      </trkpt>
      <trkpt lat="46.24467" lon="-0.24621">
        <ele>103.7</ele>
        <time>2025-07-11T09:00:50.001000+02:00</time>
      </trkpt>
      <trkpt lat="46.24464" lon="-0.24626">
        <ele>103.6</ele>
        <time>2025-07-11T09:00:51.003000+02:00</time>
      </trkpt>
      <trkpt lat="46.24461" lon="-0.2463">
        <ele>103.6</ele>
        <time>2025-07-11T09:00:52.003000+02:00</time>
      </trkpt>
      <trkpt lat="46.24456" lon="-0.24639">
        <ele>103.6</ele>
        <time>2025-07-11T09:00:54.001000+02:00</time>
      </trkpt>
      <trkpt lat="46.24453" lon="-0.24644">
        <ele>103.7</ele>
        <time>2025-07-11T09:00:55.002000+02:00</time>
      </trkpt>
      <trkpt lat="46.24447" lon="-0.24652">
        <ele>103.9</ele>
        <time>2025-07-11T09:00:57.003000+02:00</time>
      </trkpt>
      <trkpt lat="46.24444" lon="-0.24656">
        <ele>104</ele>
        <time>2025-07-11T09:00:58.004000+02:00</time>
      </trkpt>
      <trkpt lat="46.24438" lon="-0.24665">
        <ele>104</ele>
        <time>2025-07-11T09:01:00.002000+02:00</time>
      </trkpt>
      <trkpt lat="46.24435" lon="-0.24669">
        <ele>103.9</ele>
        <time>2025-07-11T09:01:01.002000+02:00</time>
      </trkpt>
      <trkpt lat="46.24431" lon="-0.24674">
        <ele>103.9</ele>
        <time>2025-07-11T09:01:02.002000+02:00</time>
      </trkpt>
      <trkpt lat="46.24428" lon="-0.24678">
        <ele>103.8</ele>
        <time>2025-07-11T09:01:03.004000+02:00</time>
      </trkpt>
      <trkpt lat="46.24421" lon="-0.24686">
        <ele>103.9</ele>
        <time>2025-07-11T09:01:05.001000+02:00</time>
      </trkpt>
      <trkpt lat="46.24418" lon="-0.2469">
        <ele>104</ele>
        <time>2025-07-11T09:01:06.001000+02:00</time>
      </trkpt>
      <trkpt lat="46.24414" lon="-0.24694">
        <ele>104.1</ele>
        <time>2025-07-11T09:01:07.003000+02:00</time>
      </trkpt>
      <trkpt lat="46.24401" lon="-0.24709">
        <ele>104.3</ele>
        <time>2025-07-11T09:01:09.002000+02:00</time>
      </trkpt>
      <trkpt lat="46.24397" lon="-0.2471">
        <ele>104.3</ele>
        <time>2025-07-11T09:01:10.002000+02:00</time>
      </trkpt>
      <trkpt lat="46.24392" lon="-0.24714">
        <ele>104.2</ele>
        <time>2025-07-11T09:01:12.002000+02:00</time>
      </trkpt>
      <trkpt lat="46.24389" lon="-0.24718">
        <ele>104.2</ele>
        <time>2025-07-11T09:01:13.002000+02:00</time>
      </trkpt>
      <trkpt lat="46.24382" lon="-0.24724">
        <ele>104.2</ele>
        <time>2025-07-11T09:01:15.002000+02:00</time>
      </trkpt>
      <trkpt lat="46.24375" lon="-0.2473">
        <ele>104.4</ele>
        <time>2025-07-11T09:01:17.002000+02:00</time>
      </trkpt>
      <trkpt lat="46.24368" lon="-0.24737">
        <ele>104.4</ele>
        <time>2025-07-11T09:01:19.002000+02:00</time>
      </trkpt>
      <trkpt lat="46.24361" lon="-0.24744">
        <ele>104.2</ele>
        <time>2025-07-11T09:01:21.002000+02:00</time>
      </trkpt>
      <trkpt lat="46.24357" lon="-0.24747">
        <ele>104.1</ele>
        <time>2025-07-11T09:01:22.002000+02:00</time>
      </trkpt>
      <trkpt lat="46.24349" lon="-0.24755">
        <ele>104</ele>
        <time>2025-07-11T09:01:24.002000+02:00</time>
      </trkpt>
      <trkpt lat="46.24344" lon="-0.24759">
        <ele>104</ele>
        <time>2025-07-11T09:01:25.002000+02:00</time>
      </trkpt>
      <trkpt lat="46.24339" lon="-0.24764">
        <ele>104</ele>
        <time>2025-07-11T09:01:26.003000+02:00</time>
      </trkpt>
      <trkpt lat="46.24329" lon="-0.24772">
        <ele>103.9</ele>
        <time>2025-07-11T09:01:28.001000+02:00</time>
      </trkpt>
      <trkpt lat="46.24324" lon="-0.24776">
        <ele>103.7</ele>
        <time>2025-07-11T09:01:29.001000+02:00</time>
      </trkpt>
      <trkpt lat="46.24319" lon="-0.2478">
        <ele>103.4</ele>
        <time>2025-07-11T09:01:30.003000+02:00</time>
      </trkpt>
      <trkpt lat="46.24309" lon="-0.24789">
        <ele>103.1</ele>
        <time>2025-07-11T09:01:32.002000+02:00</time>
      </trkpt>
      <trkpt lat="46.24304" lon="-0.24793">
        <ele>103</ele>
        <time>2025-07-11T09:01:33.003000+02:00</time>
      </trkpt>
      <trkpt lat="46.24294" lon="-0.24801">
        <ele>103</ele>
        <time>2025-07-11T09:01:35.002000+02:00</time>
      </trkpt>
      <trkpt lat="46.24285" lon="-0.24809">
        <ele>102.9</ele>
        <time>2025-07-11T09:01:37.001000+02:00</time>
      </trkpt>
      <trkpt lat="46.2428" lon="-0.24813">
        <ele>102.8</ele>
        <time>2025-07-11T09:01:38.003000+02:00</time>
      </trkpt>
      <trkpt lat="46.24276" lon="-0.24817">
        <ele>102.6</ele>
        <time>2025-07-11T09:01:39.003000+02:00</time>
      </trkpt>
      <trkpt lat="46.24267" lon="-0.24824">
        <ele>102.6</ele>
        <time>2025-07-11T09:01:41.001000+02:00</time>
      </trkpt>
      <trkpt lat="46.24263" lon="-0.24828">
        <ele>102.6</ele>
        <time>2025-07-11T09:01:42.001000+02:00</time>
      </trkpt>
      <trkpt lat="46.24259" lon="-0.24831">
        <ele>102.7</ele>
        <time>2025-07-11T09:01:43.001000+02:00</time>
      </trkpt>
      <trkpt lat="46.24255" lon="-0.24834">
        <ele>102.8</ele>
        <time>2025-07-11T09:01:44.001000+02:00</time>
      </trkpt>
      <trkpt lat="46.24251" lon="-0.24837">
        <ele>102.9</ele>
        <time>2025-07-11T09:01:45.002000+02:00</time>
      </trkpt>
      <trkpt lat="46.24243" lon="-0.24843">
        <ele>102.7</ele>
        <time>2025-07-11T09:01:47.001000+02:00</time>
      </trkpt>
      <trkpt lat="46.24238" lon="-0.24846">
        <ele>102.5</ele>
        <time>2025-07-11T09:01:48.001000+02:00</time>
      </trkpt>
      <trkpt lat="46.24234" lon="-0.24848">
        <ele>102.5</ele>
        <time>2025-07-11T09:01:49.001000+02:00</time>
      </trkpt>
      <trkpt lat="46.24224" lon="-0.24853">
        <ele>102.3</ele>
        <time>2025-07-11T09:01:51.002000+02:00</time>
      </trkpt>
      <trkpt lat="46.24214" lon="-0.24858">
        <ele>102.4</ele>
        <time>2025-07-11T09:01:53.002000+02:00</time>
      </trkpt>
      <trkpt lat="46.24205" lon="-0.24862">
        <ele>102.6</ele>
        <time>2025-07-11T09:01:55.001000+02:00</time>
      </trkpt>
      <trkpt lat="46.242" lon="-0.24863">
        <ele>102.7</ele>
        <time>2025-07-11T09:01:56.001000+02:00</time>
      </trkpt>
      <trkpt lat="46.24196" lon="-0.24865">
        <ele>102.8</ele>
        <time>2025-07-11T09:01:57.002000+02:00</time>
      </trkpt>
      <trkpt lat="46.24187" lon="-0.2487">
        <ele>103</ele>
        <time>2025-07-11T09:01:59.003000+02:00</time>
      </trkpt>
      <trkpt lat="46.24182" lon="-0.24872">
        <ele>103</ele>
        <time>2025-07-11T09:02:00.004000+02:00</time>
      </trkpt>
      <trkpt lat="46.24173" lon="-0.24877">
        <ele>103.2</ele>
        <time>2025-07-11T09:02:02.002000+02:00</time>
      </trkpt>
      <trkpt lat="46.24169" lon="-0.2488">
        <ele>103.3</ele>
        <time>2025-07-11T09:02:03.002000+02:00</time>
      </trkpt>
      <trkpt lat="46.24165" lon="-0.24882">
        <ele>103.3</ele>
        <time>2025-07-11T09:02:04.002000+02:00</time>
      </trkpt>
      <trkpt lat="46.24157" lon="-0.24887">
        <ele>103.4</ele>
        <time>2025-07-11T09:02:06.002000+02:00</time>
      </trkpt>
      <trkpt lat="46.2415" lon="-0.24892">
        <ele>103.5</ele>
        <time>2025-07-11T09:02:08.002000+02:00</time>
      </trkpt>
      <trkpt lat="46.24146" lon="-0.24895">
        <ele>103.5</ele>
        <time>2025-07-11T09:02:09.002000+02:00</time>
      </trkpt>
      <trkpt lat="46.24139" lon="-0.24899">
        <ele>103.6</ele>
        <time>2025-07-11T09:02:11.003000+02:00</time>
      </trkpt>
      <trkpt lat="46.24131" lon="-0.24904">
        <ele>103.7</ele>
        <time>2025-07-11T09:02:13.001000+02:00</time>
      </trkpt>
      <trkpt lat="46.24128" lon="-0.24906">
        <ele>103.8</ele>
        <time>2025-07-11T09:02:14.002000+02:00</time>
      </trkpt>
      <trkpt lat="46.24121" lon="-0.24911">
        <ele>103.9</ele>
        <time>2025-07-11T09:02:16.001000+02:00</time>
      </trkpt>
      <trkpt lat="46.24117" lon="-0.24913">
        <ele>103.9</ele>
        <time>2025-07-11T09:02:17.001000+02:00</time>
      </trkpt>
      <trkpt lat="46.24114" lon="-0.24916">
        <ele>103.9</ele>
        <time>2025-07-11T09:02:18.002000+02:00</time>
      </trkpt>
      <trkpt lat="46.2411" lon="-0.24918">
        <ele>104.1</ele>
        <time>2025-07-11T09:02:19.003000+02:00</time>
      </trkpt>
      <trkpt lat="46.24103" lon="-0.24923">
        <ele>104.5</ele>
        <time>2025-07-11T09:02:21.002000+02:00</time>
      </trkpt>
      <trkpt lat="46.24099" lon="-0.24925">
        <ele>104.7</ele>
        <time>2025-07-11T09:02:22.002000+02:00</time>
      </trkpt>
      <trkpt lat="46.24091" lon="-0.24929">
        <ele>105.1</ele>
        <time>2025-07-11T09:02:24.001000+02:00</time>
      </trkpt>
      <trkpt lat="46.24087" lon="-0.24931">
        <ele>105.3</ele>
        <time>2025-07-11T09:02:25.001000+02:00</time>
      </trkpt>
      <trkpt lat="46.24084" lon="-0.24933">
        <ele>105.4</ele>
        <time>2025-07-11T09:02:26.001000+02:00</time>
      </trkpt>
      <trkpt lat="46.2408" lon="-0.24935">
        <ele>105.4</ele>
        <time>2025-07-11T09:02:27.001000+02:00</time>
      </trkpt>
      <trkpt lat="46.24076" lon="-0.24937">
        <ele>105.5</ele>
        <time>2025-07-11T09:02:28.001000+02:00</time>
      </trkpt>
      <trkpt lat="46.24073" lon="-0.24939">
        <ele>105.5</ele>
        <time>2025-07-11T09:02:29.001000+02:00</time>
      </trkpt>
      <trkpt lat="46.24069" lon="-0.24941">
        <ele>105.6</ele>
        <time>2025-07-11T09:02:30.002000+02:00</time>
      </trkpt>
      <trkpt lat="46.24066" lon="-0.24943">
        <ele>105.7</ele>
        <time>2025-07-11T09:02:31.002000+02:00</time>
      </trkpt>
      <trkpt lat="46.24059" lon="-0.24946">
        <ele>105.8</ele>
        <time>2025-07-11T09:02:33.002000+02:00</time>
      </trkpt>
      <trkpt lat="46.24052" lon="-0.2495">
        <ele>105.8</ele>
        <time>2025-07-11T09:02:35.002000+02:00</time>
      </trkpt>
      <trkpt lat="46.24044" lon="-0.24955">
        <ele>105.6</ele>
        <time>2025-07-11T09:02:37.001000+02:00</time>
      </trkpt>
      <trkpt lat="46.24041" lon="-0.24957">
        <ele>105.6</ele>
        <time>2025-07-11T09:02:38.002000+02:00</time>
      </trkpt>
      <trkpt lat="46.24037" lon="-0.2496">
        <ele>105.5</ele>
        <time>2025-07-11T09:02:39.003000+02:00</time>
      </trkpt>
      <trkpt lat="46.24029" lon="-0.24965">
        <ele>105.3</ele>
        <time>2025-07-11T09:02:41.002000+02:00</time>
      </trkpt>
      <trkpt lat="46.24022" lon="-0.2497">
        <ele>105.3</ele>
        <time>2025-07-11T09:02:43.001000+02:00</time>
      </trkpt>
      <trkpt lat="46.24018" lon="-0.24973">
        <ele>105.4</ele>
        <time>2025-07-11T09:02:44.002000+02:00</time>
      </trkpt>
      <trkpt lat="46.24011" lon="-0.24978">
        <ele>105.5</ele>
        <time>2025-07-11T09:02:46+02:00</time>
      </trkpt>
      <trkpt lat="46.24007" lon="-0.24981">
        <ele>105.5</ele>
        <time>2025-07-11T09:02:47.001000+02:00</time>
      </trkpt>
      <trkpt lat="46.24004" lon="-0.24984">
        <ele>105.5</ele>
        <time>2025-07-11T09:02:48.001000+02:00</time>
      </trkpt>
      <trkpt lat="46.24" lon="-0.24988">
        <ele>105.4</ele>
        <time>2025-07-11T09:02:49.001000+02:00</time>
      </trkpt>
      <trkpt lat="46.23996" lon="-0.24992">
        <ele>105.3</ele>
        <time>2025-07-11T09:02:50.002000+02:00</time>
      </trkpt>
      <trkpt lat="46.23992" lon="-0.24995">
        <ele>105.2</ele>
        <time>2025-07-11T09:02:51.003000+02:00</time>
      </trkpt>
      <trkpt lat="46.23984" lon="-0.25002">
        <ele>104.9</ele>
        <time>2025-07-11T09:02:53.004000+02:00</time>
      </trkpt>
      <trkpt lat="46.23977" lon="-0.25009">
        <ele>104.7</ele>
        <time>2025-07-11T09:02:55.002000+02:00</time>
      </trkpt>
      <trkpt lat="46.23969" lon="-0.25016">
        <ele>104.4</ele>
        <time>2025-07-11T09:02:57.001000+02:00</time>
      </trkpt>
      <trkpt lat="46.23965" lon="-0.25019">
        <ele>104.3</ele>
        <time>2025-07-11T09:02:58.001000+02:00</time>
      </trkpt>
      <trkpt lat="46.23961" lon="-0.25022">
        <ele>104.2</ele>
        <time>2025-07-11T09:02:59.003000+02:00</time>
      </trkpt>
      <trkpt lat="46.23953" lon="-0.25028">
        <ele>104</ele>
        <time>2025-07-11T09:03:01.002000+02:00</time>
      </trkpt>
      <trkpt lat="46.23948" lon="-0.25031">
        <ele>103.9</ele>
        <time>2025-07-11T09:03:02.002000+02:00</time>
      </trkpt>
      <trkpt lat="46.23944" lon="-0.25034">
        <ele>103.8</ele>
        <time>2025-07-11T09:03:03.002000+02:00</time>
      </trkpt>
      <trkpt lat="46.2394" lon="-0.25036">
        <ele>103.8</ele>
        <time>2025-07-11T09:03:04.002000+02:00</time>
      </trkpt>
      <trkpt lat="46.23936" lon="-0.25039">
        <ele>103.8</ele>
        <time>2025-07-11T09:03:05.002000+02:00</time>
      </trkpt>
      <trkpt lat="46.23927" lon="-0.25045">
        <ele>103.6</ele>
        <time>2025-07-11T09:03:07.001000+02:00</time>
      </trkpt>
      <trkpt lat="46.23923" lon="-0.25048">
        <ele>103.5</ele>
        <time>2025-07-11T09:03:08.002000+02:00</time>
      </trkpt>
      <trkpt lat="46.23919" lon="-0.25051">
        <ele>103.3</ele>
        <time>2025-07-11T09:03:09.003000+02:00</time>
      </trkpt>
      <trkpt lat="46.23912" lon="-0.25055">
        <ele>103.2</ele>
        <time>2025-07-11T09:03:11.001000+02:00</time>
      </trkpt>
      <trkpt lat="46.23908" lon="-0.25058">
        <ele>103.3</ele>
        <time>2025-07-11T09:03:12.001000+02:00</time>
      </trkpt>
      <trkpt lat="46.23901" lon="-0.25063">
        <ele>103.4</ele>
        <time>2025-07-11T09:03:14.002000+02:00</time>
      </trkpt>
      <trkpt lat="46.23898" lon="-0.25066">
        <ele>103.4</ele>
        <time>2025-07-11T09:03:15.002000+02:00</time>
      </trkpt>
      <trkpt lat="46.23895" lon="-0.25069">
        <ele>103.4</ele>
        <time>2025-07-11T09:03:16.002000+02:00</time>
      </trkpt>
      <trkpt lat="46.23888" lon="-0.25075">
        <ele>103.3</ele>
        <time>2025-07-11T09:03:18.001000+02:00</time>
      </trkpt>
      <trkpt lat="46.23885" lon="-0.25078">
        <ele>103.2</ele>
        <time>2025-07-11T09:03:19.002000+02:00</time>
      </trkpt>
      <trkpt lat="46.23881" lon="-0.2508">
        <ele>103.1</ele>
        <time>2025-07-11T09:03:20.005000+02:00</time>
      </trkpt>
      <trkpt lat="46.23874" lon="-0.25086">
        <ele>103</ele>
        <time>2025-07-11T09:03:22.002000+02:00</time>
      </trkpt>
      <trkpt lat="46.2387" lon="-0.25087">
        <ele>103</ele>
        <time>2025-07-11T09:03:23.002000+02:00</time>
      </trkpt>
      <trkpt lat="46.23864" lon="-0.25085">
        <ele>103</ele>
        <time>2025-07-11T09:03:25.003000+02:00</time>
      </trkpt>
      <trkpt lat="46.2386" lon="-0.25077">
        <ele>103.3</ele>
        <time>2025-07-11T09:03:27.002000+02:00</time>
      </trkpt>
      <trkpt lat="46.23858" lon="-0.25073">
        <ele>103.5</ele>
        <time>2025-07-11T09:03:28.003000+02:00</time>
      </trkpt>
      <trkpt lat="46.23855" lon="-0.25063">
        <ele>104</ele>
        <time>2025-07-11T09:03:30.002000+02:00</time>
      </trkpt>
      <trkpt lat="46.23853" lon="-0.25053">
        <ele>104.4</ele>
        <time>2025-07-11T09:03:32.002000+02:00</time>
      </trkpt>
      <trkpt lat="46.23852" lon="-0.25049">
        <ele>104.5</ele>
        <time>2025-07-11T09:03:33.003000+02:00</time>
      </trkpt>
      <trkpt lat="46.2385" lon="-0.25039">
        <ele>104.8</ele>
        <time>2025-07-11T09:03:35.002000+02:00</time>
      </trkpt>
      <trkpt lat="46.23849" lon="-0.25034">
        <ele>104.9</ele>
        <time>2025-07-11T09:03:36.002000+02:00</time>
      </trkpt>
      <trkpt lat="46.23848" lon="-0.2503">
        <ele>105</ele>
        <time>2025-07-11T09:03:37.003000+02:00</time>
      </trkpt>
      <trkpt lat="46.23847" lon="-0.25019">
        <ele>105.2</ele>
        <time>2025-07-11T09:03:39.003000+02:00</time>
      </trkpt>
      <trkpt lat="46.23847" lon="-0.25014">
        <ele>105.3</ele>
        <time>2025-07-11T09:03:40.003000+02:00</time>
      </trkpt>
      <trkpt lat="46.23846" lon="-0.25004">
        <ele>105.5</ele>
        <time>2025-07-11T09:03:42.005000+02:00</time>
      </trkpt>
      <trkpt lat="46.23844" lon="-0.24994">
        <ele>105.7</ele>
        <time>2025-07-11T09:03:44.001000+02:00</time>
      </trkpt>
      <trkpt lat="46.23844" lon="-0.2499">
        <ele>105.8</ele>
        <time>2025-07-11T09:03:45.003000+02:00</time>
      </trkpt>
      <trkpt lat="46.23844" lon="-0.24981">
        <ele>105.9</ele>
        <time>2025-07-11T09:03:47+02:00</time>
      </trkpt>
      <trkpt lat="46.23844" lon="-0.24977">
        <ele>105.9</ele>
        <time>2025-07-11T09:03:48.001000+02:00</time>
      </trkpt>
      <trkpt lat="46.23844" lon="-0.24972">
        <ele>106</ele>
        <time>2025-07-11T09:03:49.001000+02:00</time>
      </trkpt>
      <trkpt lat="46.23844" lon="-0.24967">
        <ele>105.9</ele>
        <time>2025-07-11T09:03:50.001000+02:00</time>
      </trkpt>
      <trkpt lat="46.23844" lon="-0.24962">
        <ele>105.8</ele>
        <time>2025-07-11T09:03:51.003000+02:00</time>
      </trkpt>
      <trkpt lat="46.23844" lon="-0.24952">
        <ele>105.6</ele>
        <time>2025-07-11T09:03:53.001000+02:00</time>
      </trkpt>
      <trkpt lat="46.23844" lon="-0.24947">
        <ele>105.5</ele>
        <time>2025-07-11T09:03:54.001000+02:00</time>
      </trkpt>
      <trkpt lat="46.23845" lon="-0.24942">
        <ele>105.4</ele>
        <time>2025-07-11T09:03:55.001000+02:00</time>
      </trkpt>
      <trkpt lat="46.23845" lon="-0.24937">
        <ele>105.4</ele>
        <time>2025-07-11T09:03:56.002000+02:00</time>
      </trkpt>
      <trkpt lat="46.23845" lon="-0.24932">
        <ele>105.4</ele>
        <time>2025-07-11T09:03:57.003000+02:00</time>
      </trkpt>
      <trkpt lat="46.23846" lon="-0.24921">
        <ele>105.5</ele>
        <time>2025-07-11T09:03:59.003000+02:00</time>
      </trkpt>
      <trkpt lat="46.23847" lon="-0.24916">
        <ele>105.5</ele>
        <time>2025-07-11T09:04:00.003000+02:00</time>
      </trkpt>
      <trkpt lat="46.23849" lon="-0.24906">
        <ele>105.6</ele>
        <time>2025-07-11T09:04:02+02:00</time>
      </trkpt>
      <trkpt lat="46.2385" lon="-0.24901">
        <ele>105.6</ele>
        <time>2025-07-11T09:04:03.002000+02:00</time>
      </trkpt>
      <trkpt lat="46.2385" lon="-0.24896">
        <ele>105.6</ele>
        <time>2025-07-11T09:04:04.002000+02:00</time>
      </trkpt>
      <trkpt lat="46.23851" lon="-0.24885">
        <ele>105.5</ele>
        <time>2025-07-11T09:04:06.004000+02:00</time>
      </trkpt>
      <trkpt lat="46.23852" lon="-0.24873">
        <ele>105.1</ele>
        <time>2025-07-11T09:04:08.003000+02:00</time>
      </trkpt>
      <trkpt lat="46.23853" lon="-0.24867">
        <ele>104.9</ele>
        <time>2025-07-11T09:04:09.003000+02:00</time>
      </trkpt>
      <trkpt lat="46.23854" lon="-0.24855">
        <ele>104.7</ele>
        <time>2025-07-11T09:04:11.003000+02:00</time>
      </trkpt>
      <trkpt lat="46.23854" lon="-0.24849">
        <ele>104.7</ele>
        <time>2025-07-11T09:04:12.003000+02:00</time>
      </trkpt>
      <trkpt lat="46.23854" lon="-0.24843">
        <ele>104.7</ele>
        <time>2025-07-11T09:04:13.003000+02:00</time>
      </trkpt>
      <trkpt lat="46.23855" lon="-0.24829">
        <ele>104.7</ele>
        <time>2025-07-11T09:04:15.003000+02:00</time>
      </trkpt>
      <trkpt lat="46.23856" lon="-0.24816">
        <ele>104.7</ele>
        <time>2025-07-11T09:04:16.999000+02:00</time>
      </trkpt>
      <trkpt lat="46.23857" lon="-0.2481">
        <ele>104.7</ele>
        <time>2025-07-11T09:04:18.002000+02:00</time>
      </trkpt>
      <trkpt lat="46.23856" lon="-0.24804">
        <ele>104.6</ele>
        <time>2025-07-11T09:04:19.002000+02:00</time>
      </trkpt>
      <trkpt lat="46.23855" lon="-0.24797">
        <ele>104.3</ele>
        <time>2025-07-11T09:04:20.003000+02:00</time>
      </trkpt>
      <trkpt lat="46.23854" lon="-0.24791">
        <ele>104.1</ele>
        <time>2025-07-11T09:04:21.003000+02:00</time>
      </trkpt>
      <trkpt lat="46.23849" lon="-0.24779">
        <ele>103.6</ele>
        <time>2025-07-11T09:04:23.002000+02:00</time>
      </trkpt>
      <trkpt lat="46.23846" lon="-0.24773">
        <ele>103.3</ele>
        <time>2025-07-11T09:04:24.003000+02:00</time>
      </trkpt>
      <trkpt lat="46.2384" lon="-0.24761">
        <ele>102.6</ele>
        <time>2025-07-11T09:04:26.002000+02:00</time>
      </trkpt>
      <trkpt lat="46.23836" lon="-0.24754">
        <ele>102.3</ele>
        <time>2025-07-11T09:04:27.002000+02:00</time>
      </trkpt>
      <trkpt lat="46.23833" lon="-0.24748">
        <ele>101.9</ele>
        <time>2025-07-11T09:04:28.002000+02:00</time>
      </trkpt>
      <trkpt lat="46.23829" lon="-0.24741">
        <ele>101.6</ele>
        <time>2025-07-11T09:04:29.003000+02:00</time>
      </trkpt>
      <trkpt lat="46.23821" lon="-0.24726">
        <ele>101.1</ele>
        <time>2025-07-11T09:04:31.002000+02:00</time>
      </trkpt>
      <trkpt lat="46.23818" lon="-0.24719">
        <ele>100.9</ele>
        <time>2025-07-11T09:04:32.003000+02:00</time>
      </trkpt>
      <trkpt lat="46.2381" lon="-0.24706">
        <ele>100.5</ele>
        <time>2025-07-11T09:04:34.002000+02:00</time>
      </trkpt>
      <trkpt lat="46.23807" lon="-0.24699">
        <ele>100.2</ele>
        <time>2025-07-11T09:04:35.003000+02:00</time>
      </trkpt>
      <trkpt lat="46.23803" lon="-0.24692">
        <ele>100</ele>
        <time>2025-07-11T09:04:36.003000+02:00</time>
      </trkpt>
      <trkpt lat="46.238" lon="-0.24686">
        <ele>100</ele>
        <time>2025-07-11T09:04:37.003000+02:00</time>
      </trkpt>
      <trkpt lat="46.23793" lon="-0.24673">
        <ele>100</ele>
        <time>2025-07-11T09:04:39.002000+02:00</time>
      </trkpt>
      <trkpt lat="46.23788" lon="-0.24662">
        <ele>100</ele>
        <time>2025-07-11T09:04:41.001000+02:00</time>
      </trkpt>
      <trkpt lat="46.23785" lon="-0.24657">
        <ele>100</ele>
        <time>2025-07-11T09:04:42.001000+02:00</time>
      </trkpt>
      <trkpt lat="46.23783" lon="-0.24652">
        <ele>100</ele>
        <time>2025-07-11T09:04:43.003000+02:00</time>
      </trkpt>
      <trkpt lat="46.2378" lon="-0.24642">
        <ele>100</ele>
        <time>2025-07-11T09:04:45.002000+02:00</time>
      </trkpt>
      <trkpt lat="46.23776" lon="-0.24631">
        <ele>100</ele>
        <time>2025-07-11T09:04:47+02:00</time>
      </trkpt>
      <trkpt lat="46.23774" lon="-0.24625">
        <ele>100.1</ele>
        <time>2025-07-11T09:04:48.002000+02:00</time>
      </trkpt>
      <trkpt lat="46.23773" lon="-0.24619">
        <ele>100.1</ele>
        <time>2025-07-11T09:04:49.002000+02:00</time>
      </trkpt>
      <trkpt lat="46.23771" lon="-0.24613">
        <ele>100.2</ele>
        <time>2025-07-11T09:04:50.002000+02:00</time>
      </trkpt>
      <trkpt lat="46.23769" lon="-0.24607">
        <ele>100.5</ele>
        <time>2025-07-11T09:04:51.003000+02:00</time>
      </trkpt>
      <trkpt lat="46.23766" lon="-0.24597">
        <ele>100.9</ele>
        <time>2025-07-11T09:04:53.002000+02:00</time>
      </trkpt>
      <trkpt lat="46.23764" lon="-0.24593">
        <ele>101.2</ele>
        <time>2025-07-11T09:04:54.002000+02:00</time>
      </trkpt>
      <trkpt lat="46.23763" lon="-0.24588">
        <ele>101.4</ele>
        <time>2025-07-11T09:04:55.002000+02:00</time>
      </trkpt>
      <trkpt lat="46.23759" lon="-0.2458">
        <ele>101.7</ele>
        <time>2025-07-11T09:04:57.003000+02:00</time>
      </trkpt>
      <trkpt lat="46.23756" lon="-0.24574">
        <ele>101.9</ele>
        <time>2025-07-11T09:04:59+02:00</time>
      </trkpt>
      <trkpt lat="46.23753" lon="-0.24571">
        <ele>101.9</ele>
        <time>2025-07-11T09:05:00.001000+02:00</time>
      </trkpt>
      <trkpt lat="46.23751" lon="-0.24569">
        <ele>102</ele>
        <time>2025-07-11T09:05:01.001000+02:00</time>
      </trkpt>
      <trkpt lat="46.23749" lon="-0.24567">
        <ele>102</ele>
        <time>2025-07-11T09:05:02.001000+02:00</time>
      </trkpt>
      <trkpt lat="46.23747" lon="-0.24564">
        <ele>102.1</ele>
        <time>2025-07-11T09:05:03.002000+02:00</time>
      </trkpt>
      <trkpt lat="46.23743" lon="-0.24559">
        <ele>102.3</ele>
        <time>2025-07-11T09:05:05.001000+02:00</time>
      </trkpt>
      <trkpt lat="46.2374" lon="-0.24556">
        <ele>102.4</ele>
        <time>2025-07-11T09:05:06.001000+02:00</time>
      </trkpt>
      <trkpt lat="46.23737" lon="-0.24554">
        <ele>102.5</ele>
        <time>2025-07-11T09:05:07.001000+02:00</time>
      </trkpt>
      <trkpt lat="46.23734" lon="-0.24551">
        <ele>102.6</ele>
        <time>2025-07-11T09:05:08.006000+02:00</time>
      </trkpt>
      <trkpt lat="46.23729" lon="-0.24547">
        <ele>102.8</ele>
        <time>2025-07-11T09:05:10.001000+02:00</time>
      </trkpt>
      <trkpt lat="46.23726" lon="-0.24545">
        <ele>102.9</ele>
        <time>2025-07-11T09:05:11.001000+02:00</time>
      </trkpt>
      <trkpt lat="46.23723" lon="-0.24544">
        <ele>103</ele>
        <time>2025-07-11T09:05:12.001000+02:00</time>
      </trkpt>
      <trkpt lat="46.2372" lon="-0.24543">
        <ele>103</ele>
        <time>2025-07-11T09:05:13.002000+02:00</time>
      </trkpt>
      <trkpt lat="46.23717" lon="-0.24542">
        <ele>103</ele>
        <time>2025-07-11T09:05:14.005000+02:00</time>
      </trkpt>
      <trkpt lat="46.2371" lon="-0.24539">
        <ele>103</ele>
        <time>2025-07-11T09:05:16.002000+02:00</time>
      </trkpt>
      <trkpt lat="46.23707" lon="-0.24539">
        <ele>103</ele>
        <time>2025-07-11T09:05:17.002000+02:00</time>
      </trkpt>
      <trkpt lat="46.237" lon="-0.24537">
        <ele>103</ele>
        <time>2025-07-11T09:05:19.002000+02:00</time>
      </trkpt>
      <trkpt lat="46.23693" lon="-0.24536">
        <ele>103</ele>
        <time>2025-07-11T09:05:21.002000+02:00</time>
      </trkpt>
      <trkpt lat="46.23687" lon="-0.24534">
        <ele>103</ele>
        <time>2025-07-11T09:05:23.002000+02:00</time>
      </trkpt>
      <trkpt lat="46.2368" lon="-0.24532">
        <ele>103</ele>
        <time>2025-07-11T09:05:25.002000+02:00</time>
      </trkpt>
      <trkpt lat="46.23676" lon="-0.24532">
        <ele>103</ele>
        <time>2025-07-11T09:05:26.002000+02:00</time>
      </trkpt>
      <trkpt lat="46.23669" lon="-0.24531">
        <ele>103</ele>
        <time>2025-07-11T09:05:28.002000+02:00</time>
      </trkpt>
      <trkpt lat="46.23661" lon="-0.24532">
        <ele>103.2</ele>
        <time>2025-07-11T09:05:30.001000+02:00</time>
      </trkpt>
      <trkpt lat="46.23657" lon="-0.24532">
        <ele>103.4</ele>
        <time>2025-07-11T09:05:31.002000+02:00</time>
      </trkpt>
      <trkpt lat="46.23653" lon="-0.24533">
        <ele>103.5</ele>
        <time>2025-07-11T09:05:32.002000+02:00</time>
      </trkpt>
      <trkpt lat="46.23648" lon="-0.24532">
        <ele>103.7</ele>
        <time>2025-07-11T09:05:33.002000+02:00</time>
      </trkpt>
      <trkpt lat="46.23644" lon="-0.24532">
        <ele>103.8</ele>
        <time>2025-07-11T09:05:34.004000+02:00</time>
      </trkpt>
      <trkpt lat="46.23635" lon="-0.24531">
        <ele>103.9</ele>
        <time>2025-07-11T09:05:36.001000+02:00</time>
      </trkpt>
      <trkpt lat="46.23631" lon="-0.24531">
        <ele>103.7</ele>
        <time>2025-07-11T09:05:37.001000+02:00</time>
      </trkpt>
      <trkpt lat="46.23627" lon="-0.2453">
        <ele>103.6</ele>
        <time>2025-07-11T09:05:38.002000+02:00</time>
      </trkpt>
      <trkpt lat="46.23623" lon="-0.24529">
        <ele>103.5</ele>
        <time>2025-07-11T09:05:39.002000+02:00</time>
      </trkpt>
      <trkpt lat="46.23616" lon="-0.24528">
        <ele>103.2</ele>
        <time>2025-07-11T09:05:41.001000+02:00</time>
      </trkpt>
      <trkpt lat="46.23612" lon="-0.24527">
        <ele>103</ele>
        <time>2025-07-11T09:05:42.001000+02:00</time>
      </trkpt>
      <trkpt lat="46.23608" lon="-0.24525">
        <ele>103</ele>
        <time>2025-07-11T09:05:43.001000+02:00</time>
      </trkpt>
      <trkpt lat="46.23604" lon="-0.24524">
        <ele>103</ele>
        <time>2025-07-11T09:05:44.002000+02:00</time>
      </trkpt>
      <trkpt lat="46.23601" lon="-0.24523">
        <ele>103</ele>
        <time>2025-07-11T09:05:45.002000+02:00</time>
      </trkpt>
      <trkpt lat="46.23593" lon="-0.2452">
        <ele>103</ele>
        <time>2025-07-11T09:05:47.001000+02:00</time>
      </trkpt>
      <trkpt lat="46.2359" lon="-0.24518">
        <ele>103</ele>
        <time>2025-07-11T09:05:48.002000+02:00</time>
      </trkpt>
      <trkpt lat="46.23586" lon="-0.24516">
        <ele>103</ele>
        <time>2025-07-11T09:05:49.002000+02:00</time>
      </trkpt>
      <trkpt lat="46.23583" lon="-0.24515">
        <ele>103</ele>
        <time>2025-07-11T09:05:50.002000+02:00</time>
      </trkpt>
      <trkpt lat="46.23576" lon="-0.24513">
        <ele>103</ele>
        <time>2025-07-11T09:05:52.001000+02:00</time>
      </trkpt>
      <trkpt lat="46.23573" lon="-0.24511">
        <ele>103</ele>
        <time>2025-07-11T09:05:53.002000+02:00</time>
      </trkpt>
      <trkpt lat="46.2357" lon="-0.24507">
        <ele>103</ele>
        <time>2025-07-11T09:05:55.001000+02:00</time>
      </trkpt>
      <trkpt lat="46.23567" lon="-0.24504">
        <ele>103</ele>
        <time>2025-07-11T09:05:56.003000+02:00</time>
      </trkpt>
      <trkpt lat="46.23561" lon="-0.245">
        <ele>103</ele>
        <time>2025-07-11T09:05:58.001000+02:00</time>
      </trkpt>
      <trkpt lat="46.23558" lon="-0.245">
        <ele>103</ele>
        <time>2025-07-11T09:05:59.001000+02:00</time>
      </trkpt>
      <trkpt lat="46.23551" lon="-0.24498">
        <ele>103</ele>
        <time>2025-07-11T09:06:01.002000+02:00</time>
      </trkpt>
      <trkpt lat="46.23548" lon="-0.24497">
        <ele>103</ele>
        <time>2025-07-11T09:06:02.003000+02:00</time>
      </trkpt>
      <trkpt lat="46.23544" lon="-0.24496">
        <ele>103</ele>
        <time>2025-07-11T09:06:03.003000+02:00</time>
      </trkpt>
      <trkpt lat="46.23537" lon="-0.24494">
        <ele>103</ele>
        <time>2025-07-11T09:06:05.001000+02:00</time>
      </trkpt>
      <trkpt lat="46.23533" lon="-0.24493">
        <ele>103</ele>
        <time>2025-07-11T09:06:06.003000+02:00</time>
      </trkpt>
      <trkpt lat="46.23529" lon="-0.24492">
        <ele>103</ele>
        <time>2025-07-11T09:06:07.004000+02:00</time>
      </trkpt>
      <trkpt lat="46.23521" lon="-0.24489">
        <ele>103</ele>
        <time>2025-07-11T09:06:09.002000+02:00</time>
      </trkpt>
      <trkpt lat="46.23514" lon="-0.24486">
        <ele>103</ele>
        <time>2025-07-11T09:06:11.001000+02:00</time>
      </trkpt>
      <trkpt lat="46.23506" lon="-0.24484">
        <ele>103</ele>
        <time>2025-07-11T09:06:13.001000+02:00</time>
      </trkpt>
      <trkpt lat="46.23502" lon="-0.24483">
        <ele>103</ele>
        <time>2025-07-11T09:06:14.001000+02:00</time>
      </trkpt>
      <trkpt lat="46.23499" lon="-0.24482">
        <ele>103</ele>
        <time>2025-07-11T09:06:15.002000+02:00</time>
      </trkpt>
      <trkpt lat="46.23492" lon="-0.2448">
        <ele>103</ele>
        <time>2025-07-11T09:06:17.001000+02:00</time>
      </trkpt>
      <trkpt lat="46.23488" lon="-0.2448">
        <ele>103</ele>
        <time>2025-07-11T09:06:18.001000+02:00</time>
      </trkpt>
      <trkpt lat="46.23485" lon="-0.24479">
        <ele>103</ele>
        <time>2025-07-11T09:06:19.001000+02:00</time>
      </trkpt>
      <trkpt lat="46.23481" lon="-0.24478">
        <ele>103</ele>
        <time>2025-07-11T09:06:20.002000+02:00</time>
      </trkpt>
      <trkpt lat="46.23475" lon="-0.24477">
        <ele>103</ele>
        <time>2025-07-11T09:06:22.001000+02:00</time>
      </trkpt>
      <trkpt lat="46.23471" lon="-0.24476">
        <ele>103</ele>
        <time>2025-07-11T09:06:23.001000+02:00</time>
      </trkpt>
      <trkpt lat="46.23463" lon="-0.24475">
        <ele>103</ele>
        <time>2025-07-11T09:06:25.002000+02:00</time>
      </trkpt>
      <trkpt lat="46.23456" lon="-0.24476">
        <ele>103</ele>
        <time>2025-07-11T09:06:27.002000+02:00</time>
      </trkpt>
      <trkpt lat="46.23448" lon="-0.24475">
        <ele>103</ele>
        <time>2025-07-11T09:06:29.001000+02:00</time>
      </trkpt>
      <trkpt lat="46.23444" lon="-0.24475">
        <ele>103</ele>
        <time>2025-07-11T09:06:30.002000+02:00</time>
      </trkpt>
      <trkpt lat="46.2344" lon="-0.24476">
        <ele>102.9</ele>
        <time>2025-07-11T09:06:31.002000+02:00</time>
      </trkpt>
      <trkpt lat="46.23436" lon="-0.24475">
        <ele>102.7</ele>
        <time>2025-07-11T09:06:32.002000+02:00</time>
      </trkpt>
      <trkpt lat="46.23432" lon="-0.24476">
        <ele>102.6</ele>
        <time>2025-07-11T09:06:33.002000+02:00</time>
      </trkpt>
      <trkpt lat="46.23429" lon="-0.24476">
        <ele>102.4</ele>
        <time>2025-07-11T09:06:34.003000+02:00</time>
      </trkpt>
      <trkpt lat="46.23421" lon="-0.24476">
        <ele>102.1</ele>
        <time>2025-07-11T09:06:36.001000+02:00</time>
      </trkpt>
      <trkpt lat="46.23417" lon="-0.24476">
        <ele>102</ele>
        <time>2025-07-11T09:06:37.002000+02:00</time>
      </trkpt>
      <trkpt lat="46.23413" lon="-0.24475">
        <ele>102</ele>
        <time>2025-07-11T09:06:38.002000+02:00</time>
      </trkpt>
      <trkpt lat="46.23409" lon="-0.24475">
        <ele>102</ele>
        <time>2025-07-11T09:06:39.002000+02:00</time>
      </trkpt>
      <trkpt lat="46.23401" lon="-0.24474">
        <ele>102</ele>
        <time>2025-07-11T09:06:41.002000+02:00</time>
      </trkpt>
      <trkpt lat="46.23394" lon="-0.24474">
        <ele>102</ele>
        <time>2025-07-11T09:06:43.001000+02:00</time>
      </trkpt>
      <trkpt lat="46.2339" lon="-0.24474">
        <ele>102</ele>
        <time>2025-07-11T09:06:44.001000+02:00</time>
      </trkpt>
      <trkpt lat="46.23386" lon="-0.24474">
        <ele>102</ele>
        <time>2025-07-11T09:06:45.001000+02:00</time>
      </trkpt>
      <trkpt lat="46.23382" lon="-0.24473">
        <ele>102</ele>
        <time>2025-07-11T09:06:46.001000+02:00</time>
      </trkpt>
      <trkpt lat="46.23378" lon="-0.24472">
        <ele>102</ele>
        <time>2025-07-11T09:06:47.002000+02:00</time>
      </trkpt>
      <trkpt lat="46.2337" lon="-0.24469">
        <ele>102</ele>
        <time>2025-07-11T09:06:49+02:00</time>
      </trkpt>
      <trkpt lat="46.23366" lon="-0.24467">
        <ele>102</ele>
        <time>2025-07-11T09:06:50.001000+02:00</time>
      </trkpt>
      <trkpt lat="46.23362" lon="-0.24465">
        <ele>102</ele>
        <time>2025-07-11T09:06:51.001000+02:00</time>
      </trkpt>
      <trkpt lat="46.23355" lon="-0.24457">
        <ele>101.9</ele>
        <time>2025-07-11T09:06:53+02:00</time>
      </trkpt>
      <trkpt lat="46.23352" lon="-0.24453">
        <ele>101.9</ele>
        <time>2025-07-11T09:06:54.002000+02:00</time>
      </trkpt>
      <trkpt lat="46.23347" lon="-0.24447">
        <ele>102</ele>
        <time>2025-07-11T09:06:56.001000+02:00</time>
      </trkpt>
      <trkpt lat="46.23344" lon="-0.24444">
        <ele>102</ele>
        <time>2025-07-11T09:06:57.002000+02:00</time>
      </trkpt>
      <trkpt lat="46.23338" lon="-0.24437">
        <ele>101.7</ele>
        <time>2025-07-11T09:06:59.001000+02:00</time>
      </trkpt>
      <trkpt lat="46.23336" lon="-0.24434">
        <ele>101.6</ele>
        <time>2025-07-11T09:07:00.002000+02:00</time>
      </trkpt>
      <trkpt lat="46.23333" lon="-0.2443">
        <ele>101.5</ele>
        <time>2025-07-11T09:07:01.002000+02:00</time>
      </trkpt>
      <trkpt lat="46.23331" lon="-0.24427">
        <ele>101.3</ele>
        <time>2025-07-11T09:07:02.003000+02:00</time>
      </trkpt>
      <trkpt lat="46.23325" lon="-0.24422">
        <ele>101.1</ele>
        <time>2025-07-11T09:07:04.001000+02:00</time>
      </trkpt>
      <trkpt lat="46.23322" lon="-0.24421">
        <ele>101.1</ele>
        <time>2025-07-11T09:07:05.001000+02:00</time>
      </trkpt>
      <trkpt lat="46.2332" lon="-0.24422">
        <ele>101.1</ele>
        <time>2025-07-11T09:07:06.001000+02:00</time>
      </trkpt>
      <trkpt lat="46.23318" lon="-0.24425">
        <ele>101.1</ele>
        <time>2025-07-11T09:07:07.001000+02:00</time>
      </trkpt>
      <trkpt lat="46.23314" lon="-0.24433">
        <ele>101.2</ele>
        <time>2025-07-11T09:07:09.001000+02:00</time>
      </trkpt>
      <trkpt lat="46.23308" lon="-0.24443">
        <ele>101.1</ele>
        <time>2025-07-11T09:07:11+02:00</time>
      </trkpt>
      <trkpt lat="46.23305" lon="-0.24448">
        <ele>101</ele>
        <time>2025-07-11T09:07:12.001000+02:00</time>
      </trkpt>
      <trkpt lat="46.23302" lon="-0.24454">
        <ele>101</ele>
        <time>2025-07-11T09:07:13.001000+02:00</time>
      </trkpt>
      <trkpt lat="46.23299" lon="-0.24459">
        <ele>100.9</ele>
        <time>2025-07-11T09:07:14.001000+02:00</time>
      </trkpt>
      <trkpt lat="46.23295" lon="-0.24465">
        <ele>100.7</ele>
        <time>2025-07-11T09:07:15.001000+02:00</time>
      </trkpt>
      <trkpt lat="46.23292" lon="-0.24471">
        <ele>100.5</ele>
        <time>2025-07-11T09:07:16.001000+02:00</time>
      </trkpt>
      <trkpt lat="46.23285" lon="-0.24482">
        <ele>100.3</ele>
        <time>2025-07-11T09:07:18.001000+02:00</time>
      </trkpt>
      <trkpt lat="46.23278" lon="-0.24495">
        <ele>100</ele>
        <time>2025-07-11T09:07:20+02:00</time>
      </trkpt>
      <trkpt lat="46.23275" lon="-0.24502">
        <ele>99.8</ele>
        <time>2025-07-11T09:07:21+02:00</time>
      </trkpt>
      <trkpt lat="46.23271" lon="-0.2451">
        <ele>99.5</ele>
        <time>2025-07-11T09:07:22.002000+02:00</time>
      </trkpt>
      <trkpt lat="46.23264" lon="-0.24526">
        <ele>99</ele>
        <time>2025-07-11T09:07:24.002000+02:00</time>
      </trkpt>
      <trkpt lat="46.23256" lon="-0.24542">
        <ele>98.6</ele>
        <time>2025-07-11T09:07:26+02:00</time>
      </trkpt>
      <trkpt lat="46.23252" lon="-0.24551">
        <ele>98.2</ele>
        <time>2025-07-11T09:07:27.002000+02:00</time>
      </trkpt>
      <trkpt lat="46.23243" lon="-0.24567">
        <ele>97.9</ele>
        <time>2025-07-11T09:07:29.001000+02:00</time>
      </trkpt>
      <trkpt lat="46.23239" lon="-0.24575">
        <ele>97.9</ele>
        <time>2025-07-11T09:07:30.001000+02:00</time>
      </trkpt>
      <trkpt lat="46.23234" lon="-0.24583">
        <ele>98</ele>
        <time>2025-07-11T09:07:31.001000+02:00</time>
      </trkpt>
      <trkpt lat="46.23229" lon="-0.24591">
        <ele>98</ele>
        <time>2025-07-11T09:07:32.002000+02:00</time>
      </trkpt>
      <trkpt lat="46.23224" lon="-0.24599">
        <ele>98</ele>
        <time>2025-07-11T09:07:33.002000+02:00</time>
      </trkpt>
      <trkpt lat="46.23214" lon="-0.24614">
        <ele>98.1</ele>
        <time>2025-07-11T09:07:35+02:00</time>
      </trkpt>
      <trkpt lat="46.23209" lon="-0.24621">
        <ele>98.4</ele>
        <time>2025-07-11T09:07:36.001000+02:00</time>
      </trkpt>
      <trkpt lat="46.23204" lon="-0.24628">
        <ele>98.6</ele>
        <time>2025-07-11T09:07:37.002000+02:00</time>
      </trkpt>
      <trkpt lat="46.23199" lon="-0.24635">
        <ele>98.9</ele>
        <time>2025-07-11T09:07:38.003000+02:00</time>
      </trkpt>
      <trkpt lat="46.23189" lon="-0.2465">
        <ele>98.9</ele>
        <time>2025-07-11T09:07:40.001000+02:00</time>
      </trkpt>
      <trkpt lat="46.23184" lon="-0.24657">
        <ele>98.9</ele>
        <time>2025-07-11T09:07:41.001000+02:00</time>
      </trkpt>
      <trkpt lat="46.23174" lon="-0.24672">
        <ele>99</ele>
        <time>2025-07-11T09:07:43.001000+02:00</time>
      </trkpt>
      <trkpt lat="46.2317" lon="-0.24679">
        <ele>99</ele>
        <time>2025-07-11T09:07:44.001000+02:00</time>
      </trkpt>
      <trkpt lat="46.23165" lon="-0.24686">
        <ele>99.1</ele>
        <time>2025-07-11T09:07:45.002000+02:00</time>
      </trkpt>
      <trkpt lat="46.23156" lon="-0.247">
        <ele>99.5</ele>
        <time>2025-07-11T09:07:47+02:00</time>
      </trkpt>
      <trkpt lat="46.23151" lon="-0.24706">
        <ele>99.7</ele>
        <time>2025-07-11T09:07:48+02:00</time>
      </trkpt>
      <trkpt lat="46.23147" lon="-0.24713">
        <ele>99.9</ele>
        <time>2025-07-11T09:07:49.001000+02:00</time>
      </trkpt>
      <trkpt lat="46.23142" lon="-0.2472">
        <ele>100</ele>
        <time>2025-07-11T09:07:50.001000+02:00</time>
      </trkpt>
      <trkpt lat="46.23138" lon="-0.24727">
        <ele>100.2</ele>
        <time>2025-07-11T09:07:51.001000+02:00</time>
      </trkpt>
      <trkpt lat="46.2313" lon="-0.24741">
        <ele>101</ele>
        <time>2025-07-11T09:07:53.001000+02:00</time>
      </trkpt>
      <trkpt lat="46.23125" lon="-0.24749">
        <ele>101.4</ele>
        <time>2025-07-11T09:07:54.001000+02:00</time>
      </trkpt>
      <trkpt lat="46.23117" lon="-0.24763">
        <ele>101.8</ele>
        <time>2025-07-11T09:07:56.001000+02:00</time>
      </trkpt>
      <trkpt lat="46.23114" lon="-0.2477">
        <ele>101.9</ele>
        <time>2025-07-11T09:07:57.001000+02:00</time>
      </trkpt>
      <trkpt lat="46.2311" lon="-0.24778">
        <ele>102</ele>
        <time>2025-07-11T09:07:58.001000+02:00</time>
      </trkpt>
      <trkpt lat="46.23106" lon="-0.24785">
        <ele>102.3</ele>
        <time>2025-07-11T09:07:59.001000+02:00</time>
      </trkpt>
      <trkpt lat="46.23102" lon="-0.24792">
        <ele>102.5</ele>
        <time>2025-07-11T09:08:00.002000+02:00</time>
      </trkpt>
      <trkpt lat="46.23095" lon="-0.24805">
        <ele>103</ele>
        <time>2025-07-11T09:08:02.001000+02:00</time>
      </trkpt>
      <trkpt lat="46.23091" lon="-0.24812">
        <ele>103</ele>
        <time>2025-07-11T09:08:03.001000+02:00</time>
      </trkpt>
      <trkpt lat="46.23088" lon="-0.24818">
        <ele>103</ele>
        <time>2025-07-11T09:08:04.001000+02:00</time>
      </trkpt>
      <trkpt lat="46.23082" lon="-0.24831">
        <ele>103.1</ele>
        <time>2025-07-11T09:08:06+02:00</time>
      </trkpt>
      <trkpt lat="46.23079" lon="-0.24837">
        <ele>103.3</ele>
        <time>2025-07-11T09:08:07+02:00</time>
      </trkpt>
      <trkpt lat="46.23076" lon="-0.24843">
        <ele>103.5</ele>
        <time>2025-07-11T09:08:08.001000+02:00</time>
      </trkpt>
      <trkpt lat="46.23073" lon="-0.2485">
        <ele>103.7</ele>
        <time>2025-07-11T09:08:09.001000+02:00</time>
      </trkpt>
      <trkpt lat="46.23068" lon="-0.24863">
        <ele>104</ele>
        <time>2025-07-11T09:08:11+02:00</time>
      </trkpt>
      <trkpt lat="46.23066" lon="-0.2487">
        <ele>103.8</ele>
        <time>2025-07-11T09:08:12.001000+02:00</time>
      </trkpt>
      <trkpt lat="46.23063" lon="-0.24877">
        <ele>103.6</ele>
        <time>2025-07-11T09:08:13.001000+02:00</time>
      </trkpt>
      <trkpt lat="46.23061" lon="-0.24883">
        <ele>103.4</ele>
        <time>2025-07-11T09:08:14.001000+02:00</time>
      </trkpt>
      <trkpt lat="46.23058" lon="-0.24889">
        <ele>103.1</ele>
        <time>2025-07-11T09:08:15.001000+02:00</time>
      </trkpt>
      <trkpt lat="46.23055" lon="-0.24895">
        <ele>103.2</ele>
        <time>2025-07-11T09:08:16.001000+02:00</time>
      </trkpt>
      <trkpt lat="46.23049" lon="-0.24908">
        <ele>103.7</ele>
        <time>2025-07-11T09:08:18.001000+02:00</time>
      </trkpt>
      <trkpt lat="46.23046" lon="-0.24914">
        <ele>103.9</ele>
        <time>2025-07-11T09:08:19.001000+02:00</time>
      </trkpt>
      <trkpt lat="46.23038" lon="-0.24927">
        <ele>103.8</ele>
        <time>2025-07-11T09:08:21.003000+02:00</time>
      </trkpt>
      <trkpt lat="46.2303" lon="-0.2494">
        <ele>103.2</ele>
        <time>2025-07-11T09:08:23.001000+02:00</time>
      </trkpt>
      <trkpt lat="46.23026" lon="-0.24947">
        <ele>103.1</ele>
        <time>2025-07-11T09:08:24.001000+02:00</time>
      </trkpt>
      <trkpt lat="46.23021" lon="-0.24954">
        <ele>103.3</ele>
        <time>2025-07-11T09:08:25.002000+02:00</time>
      </trkpt>
      <trkpt lat="46.23014" lon="-0.24968">
        <ele>103.4</ele>
        <time>2025-07-11T09:08:27+02:00</time>
      </trkpt>
      <trkpt lat="46.23009" lon="-0.24976">
        <ele>103.2</ele>
        <time>2025-07-11T09:08:28.001000+02:00</time>
      </trkpt>
      <trkpt lat="46.23005" lon="-0.24984">
        <ele>102.8</ele>
        <time>2025-07-11T09:08:29.002000+02:00</time>
      </trkpt>
      <trkpt lat="46.22997" lon="-0.24999">
        <ele>102</ele>
        <time>2025-07-11T09:08:31.001000+02:00</time>
      </trkpt>
      <trkpt lat="46.22992" lon="-0.25006">
        <ele>101.9</ele>
        <time>2025-07-11T09:08:32.001000+02:00</time>
      </trkpt>
      <trkpt lat="46.22987" lon="-0.25011">
        <ele>101.8</ele>
        <time>2025-07-11T09:08:33.001000+02:00</time>
      </trkpt>
      <trkpt lat="46.22982" lon="-0.25017">
        <ele>101.6</ele>
        <time>2025-07-11T09:08:34.001000+02:00</time>
      </trkpt>
      <trkpt lat="46.22976" lon="-0.25022">
        <ele>101.3</ele>
        <time>2025-07-11T09:08:35.087000+02:00</time>
      </trkpt>
      <trkpt lat="46.22963" lon="-0.25032">
        <ele>101</ele>
        <time>2025-07-11T09:08:37.002000+02:00</time>
      </trkpt>
      <trkpt lat="46.22949" lon="-0.25041">
        <ele>101</ele>
        <time>2025-07-11T09:08:39.001000+02:00</time>
      </trkpt>
      <trkpt lat="46.22935" lon="-0.2505">
        <ele>100.7</ele>
        <time>2025-07-11T09:08:41.001000+02:00</time>
      </trkpt>
      <trkpt lat="46.22928" lon="-0.25055">
        <ele>100.4</ele>
        <time>2025-07-11T09:08:42.002000+02:00</time>
      </trkpt>
      <trkpt lat="46.22915" lon="-0.25065">
        <ele>100</ele>
        <time>2025-07-11T09:08:44.002000+02:00</time>
      </trkpt>
      <trkpt lat="46.22908" lon="-0.2507">
        <ele>99.8</ele>
        <time>2025-07-11T09:08:45.002000+02:00</time>
      </trkpt>
      <trkpt lat="46.22896" lon="-0.25082">
        <ele>99.3</ele>
        <time>2025-07-11T09:08:47.001000+02:00</time>
      </trkpt>
      <trkpt lat="46.2289" lon="-0.25088">
        <ele>99</ele>
        <time>2025-07-11T09:08:48.001000+02:00</time>
      </trkpt>
      <trkpt lat="46.22878" lon="-0.251">
        <ele>98.8</ele>
        <time>2025-07-11T09:08:50.002000+02:00</time>
      </trkpt>
      <trkpt lat="46.22873" lon="-0.25106">
        <ele>98.5</ele>
        <time>2025-07-11T09:08:51.002000+02:00</time>
      </trkpt>
      <trkpt lat="46.2286" lon="-0.25118">
        <ele>98</ele>
        <time>2025-07-11T09:08:53+02:00</time>
      </trkpt>
      <trkpt lat="46.22854" lon="-0.25124">
        <ele>98.1</ele>
        <time>2025-07-11T09:08:54.002000+02:00</time>
      </trkpt>
      <trkpt lat="46.22842" lon="-0.25137">
        <ele>98.1</ele>
        <time>2025-07-11T09:08:56.002000+02:00</time>
      </trkpt>
      <trkpt lat="46.22837" lon="-0.25143">
        <ele>98</ele>
        <time>2025-07-11T09:08:57.002000+02:00</time>
      </trkpt>
      <trkpt lat="46.22826" lon="-0.25155">
        <ele>98</ele>
        <time>2025-07-11T09:08:59.001000+02:00</time>
      </trkpt>
      <trkpt lat="46.2282" lon="-0.25161">
        <ele>98</ele>
        <time>2025-07-11T09:09:00.001000+02:00</time>
      </trkpt>
      <trkpt lat="46.22815" lon="-0.25167">
        <ele>98</ele>
        <time>2025-07-11T09:09:01.001000+02:00</time>
      </trkpt>
      <trkpt lat="46.2281" lon="-0.25173">
        <ele>97.8</ele>
        <time>2025-07-11T09:09:02.002000+02:00</time>
      </trkpt>
      <trkpt lat="46.22806" lon="-0.25178">
        <ele>97.6</ele>
        <time>2025-07-11T09:09:03.002000+02:00</time>
      </trkpt>
      <trkpt lat="46.22799" lon="-0.25186">
        <ele>97.2</ele>
        <time>2025-07-11T09:09:05.001000+02:00</time>
      </trkpt>
      <trkpt lat="46.22796" lon="-0.25189">
        <ele>97.1</ele>
        <time>2025-07-11T09:09:06.001000+02:00</time>
      </trkpt>
      <trkpt lat="46.22794" lon="-0.25192">
        <ele>97</ele>
        <time>2025-07-11T09:09:07.001000+02:00</time>
      </trkpt>
      <trkpt lat="46.22792" lon="-0.25195">
        <ele>97</ele>
        <time>2025-07-11T09:09:08.001000+02:00</time>
      </trkpt>
      <trkpt lat="46.22787" lon="-0.25202">
        <ele>96.8</ele>
        <time>2025-07-11T09:09:10.001000+02:00</time>
      </trkpt>
      <trkpt lat="46.22783" lon="-0.25205">
        <ele>96.7</ele>
        <time>2025-07-11T09:09:11.001000+02:00</time>
      </trkpt>
      <trkpt lat="46.2278" lon="-0.25208">
        <ele>96.6</ele>
        <time>2025-07-11T09:09:12.001000+02:00</time>
      </trkpt>
      <trkpt lat="46.22775" lon="-0.2521">
        <ele>96.4</ele>
        <time>2025-07-11T09:09:13.001000+02:00</time>
      </trkpt>
      <trkpt lat="46.22767" lon="-0.25216">
        <ele>96.1</ele>
        <time>2025-07-11T09:09:15.001000+02:00</time>
      </trkpt>
      <trkpt lat="46.22763" lon="-0.25219">
        <ele>96.1</ele>
        <time>2025-07-11T09:09:16.001000+02:00</time>
      </trkpt>
      <trkpt lat="46.22755" lon="-0.25227">
        <ele>95.9</ele>
        <time>2025-07-11T09:09:18.001000+02:00</time>
      </trkpt>
      <trkpt lat="46.22751" lon="-0.2523">
        <ele>95.7</ele>
        <time>2025-07-11T09:09:19.002000+02:00</time>
      </trkpt>
      <trkpt lat="46.22746" lon="-0.25233">
        <ele>95.6</ele>
        <time>2025-07-11T09:09:20.003000+02:00</time>
      </trkpt>
      <trkpt lat="46.22737" lon="-0.25239">
        <ele>95.4</ele>
        <time>2025-07-11T09:09:22.003000+02:00</time>
      </trkpt>
      <trkpt lat="46.22727" lon="-0.25245">
        <ele>95.2</ele>
        <time>2025-07-11T09:09:24.002000+02:00</time>
      </trkpt>
      <trkpt lat="46.22717" lon="-0.25252">
        <ele>95.2</ele>
        <time>2025-07-11T09:09:26.001000+02:00</time>
      </trkpt>
      <trkpt lat="46.22711" lon="-0.25255">
        <ele>95.3</ele>
        <time>2025-07-11T09:09:27.002000+02:00</time>
      </trkpt>
      <trkpt lat="46.22701" lon="-0.25262">
        <ele>95.4</ele>
        <time>2025-07-11T09:09:29.002000+02:00</time>
      </trkpt>
      <trkpt lat="46.22696" lon="-0.25266">
        <ele>95.4</ele>
        <time>2025-07-11T09:09:30.002000+02:00</time>
      </trkpt>
      <trkpt lat="46.22691" lon="-0.25269">
        <ele>95.3</ele>
        <time>2025-07-11T09:09:31.002000+02:00</time>
      </trkpt>
      <trkpt lat="46.2268" lon="-0.25277">
        <ele>95</ele>
        <time>2025-07-11T09:09:33.001000+02:00</time>
      </trkpt>
      <trkpt lat="46.2267" lon="-0.25284">
        <ele>95</ele>
        <time>2025-07-11T09:09:35.001000+02:00</time>
      </trkpt>
      <trkpt lat="46.22665" lon="-0.25287">
        <ele>95</ele>
        <time>2025-07-11T09:09:36.001000+02:00</time>
      </trkpt>
      <trkpt lat="46.22654" lon="-0.25294">
        <ele>95</ele>
        <time>2025-07-11T09:09:38.001000+02:00</time>
      </trkpt>
      <trkpt lat="46.22648" lon="-0.25297">
        <ele>95</ele>
        <time>2025-07-11T09:09:39.002000+02:00</time>
      </trkpt>
      <trkpt lat="46.22637" lon="-0.25303">
        <ele>95</ele>
        <time>2025-07-11T09:09:41.001000+02:00</time>
      </trkpt>
      <trkpt lat="46.22631" lon="-0.25305">
        <ele>95</ele>
        <time>2025-07-11T09:09:42.001000+02:00</time>
      </trkpt>
      <trkpt lat="46.22626" lon="-0.25308">
        <ele>94.9</ele>
        <time>2025-07-11T09:09:43.001000+02:00</time>
      </trkpt>
      <trkpt lat="46.22621" lon="-0.25311">
        <ele>94.8</ele>
        <time>2025-07-11T09:09:44.001000+02:00</time>
      </trkpt>
      <trkpt lat="46.22616" lon="-0.25314">
        <ele>94.7</ele>
        <time>2025-07-11T09:09:45.002000+02:00</time>
      </trkpt>
      <trkpt lat="46.22605" lon="-0.25319">
        <ele>94.6</ele>
        <time>2025-07-11T09:09:47.001000+02:00</time>
      </trkpt>
      <trkpt lat="46.22594" lon="-0.25324">
        <ele>94.7</ele>
        <time>2025-07-11T09:09:49.001000+02:00</time>
      </trkpt>
      <trkpt lat="46.22589" lon="-0.25326">
        <ele>94.9</ele>
        <time>2025-07-11T09:09:50.001000+02:00</time>
      </trkpt>
      <trkpt lat="46.22584" lon="-0.25328">
        <ele>95</ele>
        <time>2025-07-11T09:09:51.001000+02:00</time>
      </trkpt>
      <trkpt lat="46.22578" lon="-0.2533">
        <ele>95</ele>
        <time>2025-07-11T09:09:52.001000+02:00</time>
      </trkpt>
      <trkpt lat="46.22573" lon="-0.25332">
        <ele>95</ele>
        <time>2025-07-11T09:09:53.001000+02:00</time>
      </trkpt>
      <trkpt lat="46.22562" lon="-0.25338">
        <ele>94.8</ele>
        <time>2025-07-11T09:09:55.001000+02:00</time>
      </trkpt>
      <trkpt lat="46.22551" lon="-0.25344">
        <ele>94.6</ele>
        <time>2025-07-11T09:09:57.001000+02:00</time>
      </trkpt>
      <trkpt lat="46.22541" lon="-0.25352">
        <ele>94.3</ele>
        <time>2025-07-11T09:09:59.001000+02:00</time>
      </trkpt>
      <trkpt lat="46.22535" lon="-0.25355">
        <ele>94.2</ele>
        <time>2025-07-11T09:10:00.002000+02:00</time>
      </trkpt>
      <trkpt lat="46.2253" lon="-0.25359">
        <ele>94.1</ele>
        <time>2025-07-11T09:10:01.002000+02:00</time>
      </trkpt>
      <trkpt lat="46.22519" lon="-0.25367">
        <ele>94.2</ele>
        <time>2025-07-11T09:10:03.001000+02:00</time>
      </trkpt>
      <trkpt lat="46.22514" lon="-0.25371">
        <ele>94.3</ele>
        <time>2025-07-11T09:10:04.001000+02:00</time>
      </trkpt>
      <trkpt lat="46.22509" lon="-0.25375">
        <ele>94.3</ele>
        <time>2025-07-11T09:10:05.001000+02:00</time>
      </trkpt>
      <trkpt lat="46.22498" lon="-0.25383">
        <ele>94.3</ele>
        <time>2025-07-11T09:10:07.002000+02:00</time>
      </trkpt>
      <trkpt lat="46.22488" lon="-0.25391">
        <ele>94.4</ele>
        <time>2025-07-11T09:10:09.001000+02:00</time>
      </trkpt>
      <trkpt lat="46.22482" lon="-0.25395">
        <ele>94.4</ele>
        <time>2025-07-11T09:10:10.001000+02:00</time>
      </trkpt>
      <trkpt lat="46.22477" lon="-0.25399">
        <ele>94.5</ele>
        <time>2025-07-11T09:10:11.001000+02:00</time>
      </trkpt>
      <trkpt lat="46.22471" lon="-0.25402">
        <ele>94.5</ele>
        <time>2025-07-11T09:10:12.001000+02:00</time>
      </trkpt>
      <trkpt lat="46.22466" lon="-0.25406">
        <ele>94.4</ele>
        <time>2025-07-11T09:10:13.002000+02:00</time>
      </trkpt>
      <trkpt lat="46.22461" lon="-0.25409">
        <ele>94.3</ele>
        <time>2025-07-11T09:10:14.003000+02:00</time>
      </trkpt>
      <trkpt lat="46.22449" lon="-0.25414">
        <ele>94.1</ele>
        <time>2025-07-11T09:10:16.001000+02:00</time>
      </trkpt>
      <trkpt lat="46.22444" lon="-0.25416">
        <ele>94</ele>
        <time>2025-07-11T09:10:17.001000+02:00</time>
      </trkpt>
      <trkpt lat="46.22438" lon="-0.25419">
        <ele>94</ele>
        <time>2025-07-11T09:10:18.001000+02:00</time>
      </trkpt>
      <trkpt lat="46.22432" lon="-0.25421">
        <ele>94</ele>
        <time>2025-07-11T09:10:19.002000+02:00</time>
      </trkpt>
      <trkpt lat="46.22421" lon="-0.25424">
        <ele>94</ele>
        <time>2025-07-11T09:10:21.002000+02:00</time>
      </trkpt>
      <trkpt lat="46.22409" lon="-0.25427">
        <ele>94</ele>
        <time>2025-07-11T09:10:23.002000+02:00</time>
      </trkpt>
      <trkpt lat="46.22397" lon="-0.25429">
        <ele>94</ele>
        <time>2025-07-11T09:10:25+02:00</time>
      </trkpt>
      <trkpt lat="46.22392" lon="-0.25431">
        <ele>94</ele>
        <time>2025-07-11T09:10:26+02:00</time>
      </trkpt>
      <trkpt lat="46.22386" lon="-0.25432">
        <ele>93.9</ele>
        <time>2025-07-11T09:10:27.001000+02:00</time>
      </trkpt>
      <trkpt lat="46.22381" lon="-0.25434">
        <ele>93.8</ele>
        <time>2025-07-11T09:10:28.001000+02:00</time>
      </trkpt>
      <trkpt lat="46.22375" lon="-0.25436">
        <ele>93.7</ele>
        <time>2025-07-11T09:10:29.001000+02:00</time>
      </trkpt>
      <trkpt lat="46.2237" lon="-0.25437">
        <ele>93.5</ele>
        <time>2025-07-11T09:10:30.001000+02:00</time>
      </trkpt>
      <trkpt lat="46.22364" lon="-0.25438">
        <ele>93.3</ele>
        <time>2025-07-11T09:10:31.001000+02:00</time>
      </trkpt>
      <trkpt lat="46.22359" lon="-0.25439">
        <ele>93.2</ele>
        <time>2025-07-11T09:10:32.001000+02:00</time>
      </trkpt>
      <trkpt lat="46.22353" lon="-0.2544">
        <ele>93.2</ele>
        <time>2025-07-11T09:10:33.001000+02:00</time>
      </trkpt>
      <trkpt lat="46.22347" lon="-0.25441">
        <ele>93.1</ele>
        <time>2025-07-11T09:10:34.001000+02:00</time>
      </trkpt>
      <trkpt lat="46.22336" lon="-0.25445">
        <ele>93</ele>
        <time>2025-07-11T09:10:36.001000+02:00</time>
      </trkpt>
      <trkpt lat="46.22331" lon="-0.25449">
        <ele>92.9</ele>
        <time>2025-07-11T09:10:37.001000+02:00</time>
      </trkpt>
      <trkpt lat="46.22327" lon="-0.25456">
        <ele>92.8</ele>
        <time>2025-07-11T09:10:38.001000+02:00</time>
      </trkpt>
      <trkpt lat="46.22325" lon="-0.25464">
        <ele>92.6</ele>
        <time>2025-07-11T09:10:39.002000+02:00</time>
      </trkpt>
      <trkpt lat="46.22321" lon="-0.25481">
        <ele>92.4</ele>
        <time>2025-07-11T09:10:41.002000+02:00</time>
      </trkpt>
      <trkpt lat="46.2232" lon="-0.25489">
        <ele>92.5</ele>
        <time>2025-07-11T09:10:42.003000+02:00</time>
      </trkpt>
      <trkpt lat="46.22316" lon="-0.25505">
        <ele>92.4</ele>
        <time>2025-07-11T09:10:44+02:00</time>
      </trkpt>
      <trkpt lat="46.22314" lon="-0.25514">
        <ele>92.2</ele>
        <time>2025-07-11T09:10:45.004000+02:00</time>
      </trkpt>
      <trkpt lat="46.2231" lon="-0.2553">
        <ele>91.8</ele>
        <time>2025-07-11T09:10:47.001000+02:00</time>
      </trkpt>
      <trkpt lat="46.22308" lon="-0.25538">
        <ele>91.6</ele>
        <time>2025-07-11T09:10:48.002000+02:00</time>
      </trkpt>
      <trkpt lat="46.22307" lon="-0.25546">
        <ele>91.3</ele>
        <time>2025-07-11T09:10:49.003000+02:00</time>
      </trkpt>
      <trkpt lat="46.22303" lon="-0.25562">
        <ele>91.1</ele>
        <time>2025-07-11T09:10:51.002000+02:00</time>
      </trkpt>
      <trkpt lat="46.22301" lon="-0.25578">
        <ele>91</ele>
        <time>2025-07-11T09:10:53.002000+02:00</time>
      </trkpt>
      <trkpt lat="46.22298" lon="-0.25594">
        <ele>91</ele>
        <time>2025-07-11T09:10:55.001000+02:00</time>
      </trkpt>
      <trkpt lat="46.22297" lon="-0.25602">
        <ele>91</ele>
        <time>2025-07-11T09:10:56.001000+02:00</time>
      </trkpt>
      <trkpt lat="46.22296" lon="-0.2561">
        <ele>91</ele>
        <time>2025-07-11T09:10:57.002000+02:00</time>
      </trkpt>
      <trkpt lat="46.22294" lon="-0.25626">
        <ele>90.5</ele>
        <time>2025-07-11T09:10:59+02:00</time>
      </trkpt>
      <trkpt lat="46.22293" lon="-0.25634">
        <ele>90.2</ele>
        <time>2025-07-11T09:11:00.001000+02:00</time>
      </trkpt>
      <trkpt lat="46.22292" lon="-0.25642">
        <ele>90</ele>
        <time>2025-07-11T09:11:01.001000+02:00</time>
      </trkpt>
      <trkpt lat="46.22291" lon="-0.2565">
        <ele>90</ele>
        <time>2025-07-11T09:11:02.002000+02:00</time>
      </trkpt>
      <trkpt lat="46.2229" lon="-0.25657">
        <ele>90</ele>
        <time>2025-07-11T09:11:03.004000+02:00</time>
      </trkpt>
      <trkpt lat="46.22289" lon="-0.25673">
        <ele>90</ele>
        <time>2025-07-11T09:11:05.002000+02:00</time>
      </trkpt>
      <trkpt lat="46.22288" lon="-0.25682">
        <ele>90</ele>
        <time>2025-07-11T09:11:06.003000+02:00</time>
      </trkpt>
      <trkpt lat="46.22287" lon="-0.2569">
        <ele>90</ele>
        <time>2025-07-11T09:11:07.003000+02:00</time>
      </trkpt>
      <trkpt lat="46.22286" lon="-0.25706">
        <ele>90</ele>
        <time>2025-07-11T09:11:09.002000+02:00</time>
      </trkpt>
      <trkpt lat="46.22286" lon="-0.25723">
        <ele>90</ele>
        <time>2025-07-11T09:11:11.002000+02:00</time>
      </trkpt>
      <trkpt lat="46.22286" lon="-0.25731">
        <ele>90</ele>
        <time>2025-07-11T09:11:12.002000+02:00</time>
      </trkpt>
      <trkpt lat="46.22285" lon="-0.2574">
        <ele>90</ele>
        <time>2025-07-11T09:11:13.007000+02:00</time>
      </trkpt>
      <trkpt lat="46.22284" lon="-0.25756">
        <ele>90.1</ele>
        <time>2025-07-11T09:11:15+02:00</time>
      </trkpt>
      <trkpt lat="46.22284" lon="-0.25765">
        <ele>90.1</ele>
        <time>2025-07-11T09:11:16.001000+02:00</time>
      </trkpt>
      <trkpt lat="46.22284" lon="-0.25773">
        <ele>90.2</ele>
        <time>2025-07-11T09:11:17.002000+02:00</time>
      </trkpt>
      <trkpt lat="46.22284" lon="-0.25781">
        <ele>90.3</ele>
        <time>2025-07-11T09:11:18.002000+02:00</time>
      </trkpt>
      <trkpt lat="46.22282" lon="-0.25798">
        <ele>90.8</ele>
        <time>2025-07-11T09:11:20+02:00</time>
      </trkpt>
      <trkpt lat="46.22281" lon="-0.25806">
        <ele>91</ele>
        <time>2025-07-11T09:11:21.001000+02:00</time>
      </trkpt>
      <trkpt lat="46.22279" lon="-0.25822">
        <ele>91</ele>
        <time>2025-07-11T09:11:23.001000+02:00</time>
      </trkpt>
      <trkpt lat="46.22278" lon="-0.2583">
        <ele>91</ele>
        <time>2025-07-11T09:11:24.002000+02:00</time>
      </trkpt>
      <trkpt lat="46.22276" lon="-0.25846">
        <ele>91</ele>
        <time>2025-07-11T09:11:26.002000+02:00</time>
      </trkpt>
      <trkpt lat="46.22275" lon="-0.25853">
        <ele>91</ele>
        <time>2025-07-11T09:11:27.002000+02:00</time>
      </trkpt>
      <trkpt lat="46.22272" lon="-0.25867">
        <ele>91.2</ele>
        <time>2025-07-11T09:11:29.001000+02:00</time>
      </trkpt>
      <trkpt lat="46.22269" lon="-0.25874">
        <ele>91.3</ele>
        <time>2025-07-11T09:11:30.001000+02:00</time>
      </trkpt>
      <trkpt lat="46.22264" lon="-0.25885">
        <ele>91.4</ele>
        <time>2025-07-11T09:11:32.001000+02:00</time>
      </trkpt>
      <trkpt lat="46.2226" lon="-0.2589">
        <ele>91.4</ele>
        <time>2025-07-11T09:11:33.001000+02:00</time>
      </trkpt>
      <trkpt lat="46.22257" lon="-0.25895">
        <ele>91.4</ele>
        <time>2025-07-11T09:11:34.001000+02:00</time>
      </trkpt>
      <trkpt lat="46.22253" lon="-0.259">
        <ele>91.4</ele>
        <time>2025-07-11T09:11:35.001000+02:00</time>
      </trkpt>
      <trkpt lat="46.22249" lon="-0.25904">
        <ele>91.5</ele>
        <time>2025-07-11T09:11:36.001000+02:00</time>
      </trkpt>
      <trkpt lat="46.22245" lon="-0.25908">
        <ele>91.5</ele>
        <time>2025-07-11T09:11:37.001000+02:00</time>
      </trkpt>
      <trkpt lat="46.22236" lon="-0.25916">
        <ele>91.5</ele>
        <time>2025-07-11T09:11:39.001000+02:00</time>
      </trkpt>
      <trkpt lat="46.22229" lon="-0.25925">
        <ele>91.2</ele>
        <time>2025-07-11T09:11:41.001000+02:00</time>
      </trkpt>
      <trkpt lat="46.22226" lon="-0.25927">
        <ele>91.1</ele>
        <time>2025-07-11T09:11:42.001000+02:00</time>
      </trkpt>
      <trkpt lat="46.22221" lon="-0.25938">
        <ele>91</ele>
        <time>2025-07-11T09:11:43.001000+02:00</time>
      </trkpt>
      <trkpt lat="46.22217" lon="-0.25941">
        <ele>91</ele>
        <time>2025-07-11T09:11:44.004000+02:00</time>
      </trkpt>
      <trkpt lat="46.22206" lon="-0.2595">
        <ele>90.9</ele>
        <time>2025-07-11T09:11:46.001000+02:00</time>
      </trkpt>
      <trkpt lat="46.22201" lon="-0.25954">
        <ele>90.7</ele>
        <time>2025-07-11T09:11:47.002000+02:00</time>
      </trkpt>
      <trkpt lat="46.22189" lon="-0.25964">
        <ele>90.3</ele>
        <time>2025-07-11T09:11:49.001000+02:00</time>
      </trkpt>
      <trkpt lat="46.22184" lon="-0.25968">
        <ele>90.1</ele>
        <time>2025-07-11T09:11:50.001000+02:00</time>
      </trkpt>
      <trkpt lat="46.22178" lon="-0.25973">
        <ele>90</ele>
        <time>2025-07-11T09:11:51.001000+02:00</time>
      </trkpt>
      <trkpt lat="46.22173" lon="-0.25978">
        <ele>90</ele>
        <time>2025-07-11T09:11:52.002000+02:00</time>
      </trkpt>
      <trkpt lat="46.22168" lon="-0.25984">
        <ele>90</ele>
        <time>2025-07-11T09:11:53.002000+02:00</time>
      </trkpt>
      <trkpt lat="46.22159" lon="-0.25996">
        <ele>89.7</ele>
        <time>2025-07-11T09:11:55.001000+02:00</time>
      </trkpt>
      <trkpt lat="46.22155" lon="-0.26002">
        <ele>89.6</ele>
        <time>2025-07-11T09:11:56.001000+02:00</time>
      </trkpt>
      <trkpt lat="46.22151" lon="-0.26009">
        <ele>89.4</ele>
        <time>2025-07-11T09:11:57.001000+02:00</time>
      </trkpt>
      <trkpt lat="46.22147" lon="-0.26016">
        <ele>89.3</ele>
        <time>2025-07-11T09:11:58.096000+02:00</time>
      </trkpt>
      <trkpt lat="46.2214" lon="-0.26029">
        <ele>89</ele>
        <time>2025-07-11T09:12:00.001000+02:00</time>
      </trkpt>
      <trkpt lat="46.22136" lon="-0.26036">
        <ele>89</ele>
        <time>2025-07-11T09:12:01.001000+02:00</time>
      </trkpt>
      <trkpt lat="46.22133" lon="-0.26043">
        <ele>89</ele>
        <time>2025-07-11T09:12:02.002000+02:00</time>
      </trkpt>
      <trkpt lat="46.22126" lon="-0.26057">
        <ele>89</ele>
        <time>2025-07-11T09:12:04.001000+02:00</time>
      </trkpt>
      <trkpt lat="46.22122" lon="-0.26064">
        <ele>89</ele>
        <time>2025-07-11T09:12:05.001000+02:00</time>
      </trkpt>
      <trkpt lat="46.22118" lon="-0.26071">
        <ele>89</ele>
        <time>2025-07-11T09:12:06.001000+02:00</time>
      </trkpt>
      <trkpt lat="46.22114" lon="-0.26077">
        <ele>89</ele>
        <time>2025-07-11T09:12:07.001000+02:00</time>
      </trkpt>
      <trkpt lat="46.22105" lon="-0.2609">
        <ele>88.8</ele>
        <time>2025-07-11T09:12:09.001000+02:00</time>
      </trkpt>
      <trkpt lat="46.22097" lon="-0.26102">
        <ele>88.5</ele>
        <time>2025-07-11T09:12:11+02:00</time>
      </trkpt>
      <trkpt lat="46.22092" lon="-0.26109">
        <ele>88.3</ele>
        <time>2025-07-11T09:12:12.001000+02:00</time>
      </trkpt>
      <trkpt lat="46.22087" lon="-0.26115">
        <ele>88.1</ele>
        <time>2025-07-11T09:12:13.001000+02:00</time>
      </trkpt>
      <trkpt lat="46.22079" lon="-0.26127">
        <ele>87.9</ele>
        <time>2025-07-11T09:12:15.002000+02:00</time>
      </trkpt>
      <trkpt lat="46.2207" lon="-0.26138">
        <ele>88</ele>
        <time>2025-07-11T09:12:17.001000+02:00</time>
      </trkpt>
      <trkpt lat="46.22066" lon="-0.26143">
        <ele>88</ele>
        <time>2025-07-11T09:12:18.001000+02:00</time>
      </trkpt>
      <trkpt lat="46.22061" lon="-0.26148">
        <ele>88</ele>
        <time>2025-07-11T09:12:19.001000+02:00</time>
      </trkpt>
      <trkpt lat="46.22056" lon="-0.26154">
        <ele>88</ele>
        <time>2025-07-11T09:12:20.001000+02:00</time>
      </trkpt>
      <trkpt lat="46.22052" lon="-0.26159">
        <ele>87.9</ele>
        <time>2025-07-11T09:12:21.001000+02:00</time>
      </trkpt>
      <trkpt lat="46.22047" lon="-0.26165">
        <ele>87.7</ele>
        <time>2025-07-11T09:12:22.002000+02:00</time>
      </trkpt>
      <trkpt lat="46.22043" lon="-0.26171">
        <ele>87.5</ele>
        <time>2025-07-11T09:12:23.003000+02:00</time>
      </trkpt>
      <trkpt lat="46.22034" lon="-0.26183">
        <ele>87.2</ele>
        <time>2025-07-11T09:12:25.001000+02:00</time>
      </trkpt>
      <trkpt lat="46.22029" lon="-0.26188">
        <ele>87</ele>
        <time>2025-07-11T09:12:26.001000+02:00</time>
      </trkpt>
      <trkpt lat="46.22024" lon="-0.26194">
        <ele>87</ele>
        <time>2025-07-11T09:12:27.001000+02:00</time>
      </trkpt>
      <trkpt lat="46.22015" lon="-0.26205">
        <ele>87</ele>
        <time>2025-07-11T09:12:29.001000+02:00</time>
      </trkpt>
      <trkpt lat="46.22011" lon="-0.26211">
        <ele>87</ele>
        <time>2025-07-11T09:12:30.001000+02:00</time>
      </trkpt>
      <trkpt lat="46.22006" lon="-0.26217">
        <ele>87</ele>
        <time>2025-07-11T09:12:31.001000+02:00</time>
      </trkpt>
      <trkpt lat="46.22003" lon="-0.26223">
        <ele>87</ele>
        <time>2025-07-11T09:12:32.001000+02:00</time>
      </trkpt>
      <trkpt lat="46.21999" lon="-0.26228">
        <ele>87</ele>
        <time>2025-07-11T09:12:33.001000+02:00</time>
      </trkpt>
      <trkpt lat="46.21995" lon="-0.26234">
        <ele>86.8</ele>
        <time>2025-07-11T09:12:34.001000+02:00</time>
      </trkpt>
      <trkpt lat="46.21987" lon="-0.26246">
        <ele>86.5</ele>
        <time>2025-07-11T09:12:36.002000+02:00</time>
      </trkpt>
      <trkpt lat="46.21979" lon="-0.26258">
        <ele>86.3</ele>
        <time>2025-07-11T09:12:38.001000+02:00</time>
      </trkpt>
      <trkpt lat="46.21976" lon="-0.26264">
        <ele>86.1</ele>
        <time>2025-07-11T09:12:39.001000+02:00</time>
      </trkpt>
      <trkpt lat="46.21972" lon="-0.2627">
        <ele>86</ele>
        <time>2025-07-11T09:12:40.001000+02:00</time>
      </trkpt>
      <trkpt lat="46.21968" lon="-0.26277">
        <ele>86</ele>
        <time>2025-07-11T09:12:41.002000+02:00</time>
      </trkpt>
      <trkpt lat="46.2196" lon="-0.26285">
        <ele>86</ele>
        <time>2025-07-11T09:12:43+02:00</time>
      </trkpt>
      <trkpt lat="46.21951" lon="-0.26289">
        <ele>86</ele>
        <time>2025-07-11T09:12:45.001000+02:00</time>
      </trkpt>
      <trkpt lat="46.21948" lon="-0.26275">
        <ele>86</ele>
        <time>2025-07-11T09:12:47.001000+02:00</time>
      </trkpt>
      <trkpt lat="46.21943" lon="-0.26266">
        <ele>86</ele>
        <time>2025-07-11T09:12:48.002000+02:00</time>
      </trkpt>
      <trkpt lat="46.21936" lon="-0.26255">
        <ele>85.8</ele>
        <time>2025-07-11T09:12:50.001000+02:00</time>
      </trkpt>
      <trkpt lat="46.21933" lon="-0.26252">
        <ele>85.6</ele>
        <time>2025-07-11T09:12:51.002000+02:00</time>
      </trkpt>
      <trkpt lat="46.21927" lon="-0.26242">
        <ele>85.4</ele>
        <time>2025-07-11T09:12:53.001000+02:00</time>
      </trkpt>
      <trkpt lat="46.21924" lon="-0.26238">
        <ele>85.3</ele>
        <time>2025-07-11T09:12:54.001000+02:00</time>
      </trkpt>
      <trkpt lat="46.21921" lon="-0.26233">
        <ele>85.2</ele>
        <time>2025-07-11T09:12:55.001000+02:00</time>
      </trkpt>
      <trkpt lat="46.21918" lon="-0.26227">
        <ele>85</ele>
        <time>2025-07-11T09:12:56.001000+02:00</time>
      </trkpt>
      <trkpt lat="46.21915" lon="-0.26222">
        <ele>84.9</ele>
        <time>2025-07-11T09:12:57.001000+02:00</time>
      </trkpt>
      <trkpt lat="46.21911" lon="-0.26217">
        <ele>84.8</ele>
        <time>2025-07-11T09:12:58.007000+02:00</time>
      </trkpt>
      <trkpt lat="46.21903" lon="-0.26206">
        <ele>84.5</ele>
        <time>2025-07-11T09:13:00.007000+02:00</time>
      </trkpt>
      <trkpt lat="46.21895" lon="-0.26194">
        <ele>84.2</ele>
        <time>2025-07-11T09:13:02.001000+02:00</time>
      </trkpt>
      <trkpt lat="46.2189" lon="-0.26188">
        <ele>83.8</ele>
        <time>2025-07-11T09:13:03.001000+02:00</time>
      </trkpt>
      <trkpt lat="46.21886" lon="-0.26182">
        <ele>83.5</ele>
        <time>2025-07-11T09:13:04.001000+02:00</time>
      </trkpt>
      <trkpt lat="46.21881" lon="-0.26176">
        <ele>83.2</ele>
        <time>2025-07-11T09:13:05.001000+02:00</time>
      </trkpt>
      <trkpt lat="46.21877" lon="-0.2617">
        <ele>83.1</ele>
        <time>2025-07-11T09:13:06.001000+02:00</time>
      </trkpt>
      <trkpt lat="46.21872" lon="-0.26164">
        <ele>83</ele>
        <time>2025-07-11T09:13:07.001000+02:00</time>
      </trkpt>
      <trkpt lat="46.21863" lon="-0.26152">
        <ele>83</ele>
        <time>2025-07-11T09:13:09.001000+02:00</time>
      </trkpt>
      <trkpt lat="46.21858" lon="-0.26147">
        <ele>82.9</ele>
        <time>2025-07-11T09:13:10.001000+02:00</time>
      </trkpt>
      <trkpt lat="46.21853" lon="-0.26142">
        <ele>82.7</ele>
        <time>2025-07-11T09:13:11.001000+02:00</time>
      </trkpt>
      <trkpt lat="46.21843" lon="-0.26132">
        <ele>82.4</ele>
        <time>2025-07-11T09:13:13.002000+02:00</time>
      </trkpt>
      <trkpt lat="46.21838" lon="-0.26129">
        <ele>82.4</ele>
        <time>2025-07-11T09:13:14.002000+02:00</time>
      </trkpt>
      <trkpt lat="46.21828" lon="-0.26121">
        <ele>82.6</ele>
        <time>2025-07-11T09:13:16+02:00</time>
      </trkpt>
      <trkpt lat="46.21824" lon="-0.26118">
        <ele>82.8</ele>
        <time>2025-07-11T09:13:17.001000+02:00</time>
      </trkpt>
      <trkpt lat="46.21819" lon="-0.26116">
        <ele>82.8</ele>
        <time>2025-07-11T09:13:18.001000+02:00</time>
      </trkpt>
      <trkpt lat="46.21814" lon="-0.26113">
        <ele>82.9</ele>
        <time>2025-07-11T09:13:19.001000+02:00</time>
      </trkpt>
      <trkpt lat="46.21809" lon="-0.26111">
        <ele>83</ele>
        <time>2025-07-11T09:13:20.001000+02:00</time>
      </trkpt>
      <trkpt lat="46.21799" lon="-0.26109">
        <ele>83.3</ele>
        <time>2025-07-11T09:13:22+02:00</time>
      </trkpt>
      <trkpt lat="46.21794" lon="-0.26108">
        <ele>83.5</ele>
        <time>2025-07-11T09:13:23+02:00</time>
      </trkpt>
      <trkpt lat="46.21789" lon="-0.26107">
        <ele>83.7</ele>
        <time>2025-07-11T09:13:24+02:00</time>
      </trkpt>
      <trkpt lat="46.21784" lon="-0.26106">
        <ele>83.8</ele>
        <time>2025-07-11T09:13:25+02:00</time>
      </trkpt>
      <trkpt lat="46.21779" lon="-0.26105">
        <ele>84</ele>
        <time>2025-07-11T09:13:26+02:00</time>
      </trkpt>
      <trkpt lat="46.21775" lon="-0.26104">
        <ele>84.1</ele>
        <time>2025-07-11T09:13:27.002000+02:00</time>
      </trkpt>
      <trkpt lat="46.21765" lon="-0.26103">
        <ele>84.4</ele>
        <time>2025-07-11T09:13:29.006000+02:00</time>
      </trkpt>
      <trkpt lat="46.21756" lon="-0.26102">
        <ele>84.8</ele>
        <time>2025-07-11T09:13:31.001000+02:00</time>
      </trkpt>
      <trkpt lat="46.21747" lon="-0.26101">
        <ele>85</ele>
        <time>2025-07-11T09:13:33.001000+02:00</time>
      </trkpt>
      <trkpt lat="46.21743" lon="-0.26101">
        <ele>85.1</ele>
        <time>2025-07-11T09:13:34.001000+02:00</time>
      </trkpt>
      <trkpt lat="46.21738" lon="-0.261">
        <ele>85.2</ele>
        <time>2025-07-11T09:13:35.001000+02:00</time>
      </trkpt>
      <trkpt lat="46.21734" lon="-0.26098">
        <ele>85.3</ele>
        <time>2025-07-11T09:13:36.001000+02:00</time>
      </trkpt>
      <trkpt lat="46.2173" lon="-0.26098">
        <ele>85.3</ele>
        <time>2025-07-11T09:13:37.001000+02:00</time>
      </trkpt>
      <trkpt lat="46.21726" lon="-0.26099">
        <ele>85.4</ele>
        <time>2025-07-11T09:13:38.001000+02:00</time>
      </trkpt>
      <trkpt lat="46.21719" lon="-0.26099">
        <ele>85.6</ele>
        <time>2025-07-11T09:13:40.003000+02:00</time>
      </trkpt>
      <trkpt lat="46.21711" lon="-0.26098">
        <ele>85.9</ele>
        <time>2025-07-11T09:13:42+02:00</time>
      </trkpt>
      <trkpt lat="46.21706" lon="-0.26098">
        <ele>86.1</ele>
        <time>2025-07-11T09:13:43.001000+02:00</time>
      </trkpt>
      <trkpt lat="46.21701" lon="-0.26097">
        <ele>86.3</ele>
        <time>2025-07-11T09:13:44.001000+02:00</time>
      </trkpt>
      <trkpt lat="46.21697" lon="-0.26097">
        <ele>86.4</ele>
        <time>2025-07-11T09:13:45.001000+02:00</time>
      </trkpt>
      <trkpt lat="46.21692" lon="-0.26097">
        <ele>86.6</ele>
        <time>2025-07-11T09:13:46.001000+02:00</time>
      </trkpt>
      <trkpt lat="46.21687" lon="-0.26095">
        <ele>86.7</ele>
        <time>2025-07-11T09:13:47.001000+02:00</time>
      </trkpt>
      <trkpt lat="46.21683" lon="-0.26094">
        <ele>86.8</ele>
        <time>2025-07-11T09:13:48.001000+02:00</time>
      </trkpt>
      <trkpt lat="46.21674" lon="-0.26092">
        <ele>86.9</ele>
        <time>2025-07-11T09:13:50+02:00</time>
      </trkpt>
      <trkpt lat="46.21669" lon="-0.2609">
        <ele>87</ele>
        <time>2025-07-11T09:13:51.002000+02:00</time>
      </trkpt>
      <trkpt lat="46.2166" lon="-0.26087">
        <ele>87.2</ele>
        <time>2025-07-11T09:13:53.001000+02:00</time>
      </trkpt>
      <trkpt lat="46.21657" lon="-0.26086">
        <ele>87.3</ele>
        <time>2025-07-11T09:13:54.001000+02:00</time>
      </trkpt>
      <trkpt lat="46.21653" lon="-0.26085">
        <ele>87.5</ele>
        <time>2025-07-11T09:13:55.002000+02:00</time>
      </trkpt>
      <trkpt lat="46.21649" lon="-0.26083">
        <ele>87.7</ele>
        <time>2025-07-11T09:13:56.003000+02:00</time>
      </trkpt>
      <trkpt lat="46.21639" lon="-0.26078">
        <ele>88</ele>
        <time>2025-07-11T09:13:58.001000+02:00</time>
      </trkpt>
      <trkpt lat="46.21635" lon="-0.26076">
        <ele>88</ele>
        <time>2025-07-11T09:13:59.001000+02:00</time>
      </trkpt>
      <trkpt lat="46.2163" lon="-0.26073">
        <ele>88.1</ele>
        <time>2025-07-11T09:14:00.001000+02:00</time>
      </trkpt>
      <trkpt lat="46.21625" lon="-0.2607">
        <ele>88.2</ele>
        <time>2025-07-11T09:14:01.006000+02:00</time>
      </trkpt>
      <trkpt lat="46.21615" lon="-0.26064">
        <ele>88.6</ele>
        <time>2025-07-11T09:14:03.002000+02:00</time>
      </trkpt>
      <trkpt lat="46.21606" lon="-0.26058">
        <ele>88.9</ele>
        <time>2025-07-11T09:14:05.002000+02:00</time>
      </trkpt>
      <trkpt lat="46.21597" lon="-0.26051">
        <ele>89</ele>
        <time>2025-07-11T09:14:07.001000+02:00</time>
      </trkpt>
      <trkpt lat="46.21588" lon="-0.26046">
        <ele>89</ele>
        <time>2025-07-11T09:14:09.002000+02:00</time>
      </trkpt>
      <trkpt lat="46.21584" lon="-0.26044">
        <ele>89</ele>
        <time>2025-07-11T09:14:10.002000+02:00</time>
      </trkpt>
      <trkpt lat="46.21576" lon="-0.26038">
        <ele>89</ele>
        <time>2025-07-11T09:14:12.001000+02:00</time>
      </trkpt>
      <trkpt lat="46.21568" lon="-0.26034">
        <ele>89</ele>
        <time>2025-07-11T09:14:14.001000+02:00</time>
      </trkpt>
      <trkpt lat="46.21563" lon="-0.26031">
        <ele>89</ele>
        <time>2025-07-11T09:14:15.001000+02:00</time>
      </trkpt>
      <trkpt lat="46.21559" lon="-0.26029">
        <ele>89</ele>
        <time>2025-07-11T09:14:16.001000+02:00</time>
      </trkpt>
      <trkpt lat="46.21555" lon="-0.26027">
        <ele>89</ele>
        <time>2025-07-11T09:14:17.002000+02:00</time>
      </trkpt>
      <trkpt lat="46.2155" lon="-0.26025">
        <ele>89.1</ele>
        <time>2025-07-11T09:14:18.003000+02:00</time>
      </trkpt>
      <trkpt lat="46.21541" lon="-0.26021">
        <ele>89.2</ele>
        <time>2025-07-11T09:14:20.003000+02:00</time>
      </trkpt>
      <trkpt lat="46.21532" lon="-0.26017">
        <ele>89.4</ele>
        <time>2025-07-11T09:14:22.002000+02:00</time>
      </trkpt>
      <trkpt lat="46.21523" lon="-0.26015">
        <ele>89.5</ele>
        <time>2025-07-11T09:14:24+02:00</time>
      </trkpt>
      <trkpt lat="46.21519" lon="-0.26014">
        <ele>89.5</ele>
        <time>2025-07-11T09:14:25.001000+02:00</time>
      </trkpt>
      <trkpt lat="46.21514" lon="-0.26012">
        <ele>89.6</ele>
        <time>2025-07-11T09:14:26.001000+02:00</time>
      </trkpt>
      <trkpt lat="46.21509" lon="-0.26011">
        <ele>89.6</ele>
        <time>2025-07-11T09:14:27.001000+02:00</time>
      </trkpt>
      <trkpt lat="46.21505" lon="-0.2601">
        <ele>89.6</ele>
        <time>2025-07-11T09:14:28.001000+02:00</time>
      </trkpt>
      <trkpt lat="46.215" lon="-0.26009">
        <ele>89.7</ele>
        <time>2025-07-11T09:14:29.001000+02:00</time>
      </trkpt>
      <trkpt lat="46.21495" lon="-0.26008">
        <ele>89.6</ele>
        <time>2025-07-11T09:14:30.003000+02:00</time>
      </trkpt>
      <trkpt lat="46.21486" lon="-0.26005">
        <ele>89.4</ele>
        <time>2025-07-11T09:14:32.003000+02:00</time>
      </trkpt>
      <trkpt lat="46.21476" lon="-0.26001">
        <ele>89.1</ele>
        <time>2025-07-11T09:14:34+02:00</time>
      </trkpt>
      <trkpt lat="46.21472" lon="-0.25998">
        <ele>89.1</ele>
        <time>2025-07-11T09:14:35.001000+02:00</time>
      </trkpt>
      <trkpt lat="46.21467" lon="-0.25997">
        <ele>89.1</ele>
        <time>2025-07-11T09:14:36.001000+02:00</time>
      </trkpt>
      <trkpt lat="46.21463" lon="-0.25995">
        <ele>89.1</ele>
        <time>2025-07-11T09:14:37.001000+02:00</time>
      </trkpt>
      <trkpt lat="46.21453" lon="-0.25992">
        <ele>89.1</ele>
        <time>2025-07-11T09:14:39.002000+02:00</time>
      </trkpt>
      <trkpt lat="46.21448" lon="-0.25991">
        <ele>89</ele>
        <time>2025-07-11T09:14:40.002000+02:00</time>
      </trkpt>
      <trkpt lat="46.21443" lon="-0.2599">
        <ele>89</ele>
        <time>2025-07-11T09:14:41.096000+02:00</time>
      </trkpt>
      <trkpt lat="46.21433" lon="-0.25986">
        <ele>88.8</ele>
        <time>2025-07-11T09:14:43.002000+02:00</time>
      </trkpt>
      <trkpt lat="46.21423" lon="-0.25985">
        <ele>88.6</ele>
        <time>2025-07-11T09:14:45.001000+02:00</time>
      </trkpt>
      <trkpt lat="46.21412" lon="-0.25983">
        <ele>88.6</ele>
        <time>2025-07-11T09:14:47+02:00</time>
      </trkpt>
      <trkpt lat="46.21407" lon="-0.25982">
        <ele>88.6</ele>
        <time>2025-07-11T09:14:48+02:00</time>
      </trkpt>
      <trkpt lat="46.21402" lon="-0.25981">
        <ele>88.7</ele>
        <time>2025-07-11T09:14:49.002000+02:00</time>
      </trkpt>
      <trkpt lat="46.21397" lon="-0.2598">
        <ele>88.7</ele>
        <time>2025-07-11T09:14:50.002000+02:00</time>
      </trkpt>
      <trkpt lat="46.21392" lon="-0.2598">
        <ele>88.7</ele>
        <time>2025-07-11T09:14:51.002000+02:00</time>
      </trkpt>
      <trkpt lat="46.21387" lon="-0.25979">
        <ele>88.8</ele>
        <time>2025-07-11T09:14:52.002000+02:00</time>
      </trkpt>
      <trkpt lat="46.21378" lon="-0.25978">
        <ele>88.8</ele>
        <time>2025-07-11T09:14:54.003000+02:00</time>
      </trkpt>
      <trkpt lat="46.2137" lon="-0.25976">
        <ele>88.9</ele>
        <time>2025-07-11T09:14:56+02:00</time>
      </trkpt>
      <trkpt lat="46.21368" lon="-0.25975">
        <ele>88.9</ele>
        <time>2025-07-11T09:14:57.002000+02:00</time>
      </trkpt>
      <trkpt lat="46.21366" lon="-0.25973">
        <ele>89</ele>
        <time>2025-07-11T09:14:59.002000+02:00</time>
      </trkpt>
      <trkpt lat="46.21361" lon="-0.25973">
        <ele>89</ele>
        <time>2025-07-11T09:15:01.001000+02:00</time>
      </trkpt>
      <trkpt lat="46.21358" lon="-0.25973">
        <ele>89</ele>
        <time>2025-07-11T09:15:02.001000+02:00</time>
      </trkpt>
      <trkpt lat="46.21355" lon="-0.25972">
        <ele>89</ele>
        <time>2025-07-11T09:15:03.001000+02:00</time>
      </trkpt>
      <trkpt lat="46.21351" lon="-0.25972">
        <ele>89</ele>
        <time>2025-07-11T09:15:04.002000+02:00</time>
      </trkpt>
      <trkpt lat="46.21343" lon="-0.2597">
        <ele>89</ele>
        <time>2025-07-11T09:15:06+02:00</time>
      </trkpt>
      <trkpt lat="46.21339" lon="-0.25969">
        <ele>89</ele>
        <time>2025-07-11T09:15:07.001000+02:00</time>
      </trkpt>
      <trkpt lat="46.21335" lon="-0.25968">
        <ele>89</ele>
        <time>2025-07-11T09:15:08.002000+02:00</time>
      </trkpt>
      <trkpt lat="46.21331" lon="-0.25967">
        <ele>88.9</ele>
        <time>2025-07-11T09:15:09.002000+02:00</time>
      </trkpt>
      <trkpt lat="46.21322" lon="-0.25964">
        <ele>88.7</ele>
        <time>2025-07-11T09:15:11.001000+02:00</time>
      </trkpt>
      <trkpt lat="46.21313" lon="-0.2596">
        <ele>88.6</ele>
        <time>2025-07-11T09:15:13.001000+02:00</time>
      </trkpt>
      <trkpt lat="46.21309" lon="-0.25958">
        <ele>88.6</ele>
        <time>2025-07-11T09:15:14.002000+02:00</time>
      </trkpt>
      <trkpt lat="46.213" lon="-0.25953">
        <ele>88.5</ele>
        <time>2025-07-11T09:15:16.001000+02:00</time>
      </trkpt>
      <trkpt lat="46.21292" lon="-0.25948">
        <ele>88.4</ele>
        <time>2025-07-11T09:15:18+02:00</time>
      </trkpt>
      <trkpt lat="46.21288" lon="-0.2594">
        <ele>88.3</ele>
        <time>2025-07-11T09:15:19.001000+02:00</time>
      </trkpt>
      <trkpt lat="46.21281" lon="-0.25931">
        <ele>88.1</ele>
        <time>2025-07-11T09:15:21.002000+02:00</time>
      </trkpt>
      <trkpt lat="46.21272" lon="-0.25924">
        <ele>87.8</ele>
        <time>2025-07-11T09:15:23.002000+02:00</time>
      </trkpt>
      <trkpt lat="46.21267" lon="-0.25921">
        <ele>87.6</ele>
        <time>2025-07-11T09:15:24.002000+02:00</time>
      </trkpt>
      <trkpt lat="46.21264" lon="-0.25918">
        <ele>87.5</ele>
        <time>2025-07-11T09:15:25.002000+02:00</time>
      </trkpt>
      <trkpt lat="46.21254" lon="-0.25914">
        <ele>87.1</ele>
        <time>2025-07-11T09:15:27.001000+02:00</time>
      </trkpt>
      <trkpt lat="46.21248" lon="-0.25912">
        <ele>86.9</ele>
        <time>2025-07-11T09:15:28.003000+02:00</time>
      </trkpt>
      <trkpt lat="46.21242" lon="-0.25911">
        <ele>86.7</ele>
        <time>2025-07-11T09:15:29.003000+02:00</time>
      </trkpt>
      <trkpt lat="46.21236" lon="-0.25909">
        <ele>86.5</ele>
        <time>2025-07-11T09:15:30.003000+02:00</time>
      </trkpt>
      <trkpt lat="46.21223" lon="-0.25905">
        <ele>86</ele>
        <time>2025-07-11T09:15:32+02:00</time>
      </trkpt>
      <trkpt lat="46.21217" lon="-0.25902">
        <ele>85.9</ele>
        <time>2025-07-11T09:15:33.002000+02:00</time>
      </trkpt>
      <trkpt lat="46.21204" lon="-0.25896">
        <ele>85.5</ele>
        <time>2025-07-11T09:15:35.002000+02:00</time>
      </trkpt>
      <trkpt lat="46.21192" lon="-0.2589">
        <ele>85</ele>
        <time>2025-07-11T09:15:37.002000+02:00</time>
      </trkpt>
      <trkpt lat="46.21178" lon="-0.25885">
        <ele>84.9</ele>
        <time>2025-07-11T09:15:39.001000+02:00</time>
      </trkpt>
      <trkpt lat="46.21171" lon="-0.25883">
        <ele>84.8</ele>
        <time>2025-07-11T09:15:40.002000+02:00</time>
      </trkpt>
      <trkpt lat="46.21158" lon="-0.2588">
        <ele>84.4</ele>
        <time>2025-07-11T09:15:42.001000+02:00</time>
      </trkpt>
      <trkpt lat="46.21151" lon="-0.25878">
        <ele>84.3</ele>
        <time>2025-07-11T09:15:43.001000+02:00</time>
      </trkpt>
      <trkpt lat="46.21138" lon="-0.25873">
        <ele>84</ele>
        <time>2025-07-11T09:15:45.003000+02:00</time>
      </trkpt>
      <trkpt lat="46.21125" lon="-0.25868">
        <ele>84</ele>
        <time>2025-07-11T09:15:47.001000+02:00</time>
      </trkpt>
      <trkpt lat="46.21119" lon="-0.25866">
        <ele>84</ele>
        <time>2025-07-11T09:15:48.002000+02:00</time>
      </trkpt>
      <trkpt lat="46.21113" lon="-0.25864">
        <ele>84</ele>
        <time>2025-07-11T09:15:49.002000+02:00</time>
      </trkpt>
      <trkpt lat="46.21107" lon="-0.25862">
        <ele>83.8</ele>
        <time>2025-07-11T09:15:50.002000+02:00</time>
      </trkpt>
      <trkpt lat="46.21095" lon="-0.25857">
        <ele>83.3</ele>
        <time>2025-07-11T09:15:52.002000+02:00</time>
      </trkpt>
      <trkpt lat="46.21083" lon="-0.25852">
        <ele>83</ele>
        <time>2025-07-11T09:15:54.002000+02:00</time>
      </trkpt>
      <trkpt lat="46.21077" lon="-0.25849">
        <ele>83</ele>
        <time>2025-07-11T09:15:55.002000+02:00</time>
      </trkpt>
      <trkpt lat="46.21066" lon="-0.25843">
        <ele>83</ele>
        <time>2025-07-11T09:15:57.002000+02:00</time>
      </trkpt>
      <trkpt lat="46.21061" lon="-0.25841">
        <ele>83</ele>
        <time>2025-07-11T09:15:58.002000+02:00</time>
      </trkpt>
      <trkpt lat="46.21055" lon="-0.25838">
        <ele>83</ele>
        <time>2025-07-11T09:15:59.002000+02:00</time>
      </trkpt>
      <trkpt lat="46.21045" lon="-0.25831">
        <ele>83</ele>
        <time>2025-07-11T09:16:01.001000+02:00</time>
      </trkpt>
      <trkpt lat="46.2104" lon="-0.25828">
        <ele>83.1</ele>
        <time>2025-07-11T09:16:02.003000+02:00</time>
      </trkpt>
      <trkpt lat="46.21029" lon="-0.25823">
        <ele>83.4</ele>
        <time>2025-07-11T09:16:04.001000+02:00</time>
      </trkpt>
      <trkpt lat="46.21024" lon="-0.2582">
        <ele>83.5</ele>
        <time>2025-07-11T09:16:05.001000+02:00</time>
      </trkpt>
      <trkpt lat="46.21019" lon="-0.25818">
        <ele>83.6</ele>
        <time>2025-07-11T09:16:06.001000+02:00</time>
      </trkpt>
      <trkpt lat="46.21014" lon="-0.25816">
        <ele>83.6</ele>
        <time>2025-07-11T09:16:07.001000+02:00</time>
      </trkpt>
      <trkpt lat="46.21004" lon="-0.25811">
        <ele>83.8</ele>
        <time>2025-07-11T09:16:09.002000+02:00</time>
      </trkpt>
      <trkpt lat="46.20995" lon="-0.25807">
        <ele>84</ele>
        <time>2025-07-11T09:16:11.001000+02:00</time>
      </trkpt>
      <trkpt lat="46.2099" lon="-0.25805">
        <ele>84</ele>
        <time>2025-07-11T09:16:12.001000+02:00</time>
      </trkpt>
      <trkpt lat="46.20987" lon="-0.25803">
        <ele>84.1</ele>
        <time>2025-07-11T09:16:13.002000+02:00</time>
      </trkpt>
      <trkpt lat="46.20979" lon="-0.25802">
        <ele>84.1</ele>
        <time>2025-07-11T09:16:15.001000+02:00</time>
      </trkpt>
      <trkpt lat="46.20974" lon="-0.258">
        <ele>84.2</ele>
        <time>2025-07-11T09:16:16.003000+02:00</time>
      </trkpt>
      <trkpt lat="46.20965" lon="-0.25797">
        <ele>84.3</ele>
        <time>2025-07-11T09:16:18.005000+02:00</time>
      </trkpt>
      <trkpt lat="46.20955" lon="-0.25792">
        <ele>84.5</ele>
        <time>2025-07-11T09:16:20.003000+02:00</time>
      </trkpt>
      <trkpt lat="46.20951" lon="-0.25789">
        <ele>84.6</ele>
        <time>2025-07-11T09:16:21.004000+02:00</time>
      </trkpt>
      <trkpt lat="46.20943" lon="-0.25783">
        <ele>84.9</ele>
        <time>2025-07-11T09:16:23.002000+02:00</time>
      </trkpt>
      <trkpt lat="46.20939" lon="-0.2578">
        <ele>85.1</ele>
        <time>2025-07-11T09:16:24.002000+02:00</time>
      </trkpt>
      <trkpt lat="46.20936" lon="-0.25778">
        <ele>85.3</ele>
        <time>2025-07-11T09:16:25.002000+02:00</time>
      </trkpt>
      <trkpt lat="46.20932" lon="-0.25776">
        <ele>85.4</ele>
        <time>2025-07-11T09:16:26.002000+02:00</time>
      </trkpt>
      <trkpt lat="46.20925" lon="-0.25778">
        <ele>85.7</ele>
        <time>2025-07-11T09:16:28.002000+02:00</time>
      </trkpt>
      <trkpt lat="46.20922" lon="-0.25782">
        <ele>85.5</ele>
        <time>2025-07-11T09:16:29.002000+02:00</time>
      </trkpt>
      <trkpt lat="46.20919" lon="-0.25793">
        <ele>84.9</ele>
        <time>2025-07-11T09:16:31+02:00</time>
      </trkpt>
      <trkpt lat="46.20917" lon="-0.25798">
        <ele>84.5</ele>
        <time>2025-07-11T09:16:32.001000+02:00</time>
      </trkpt>
      <trkpt lat="46.20916" lon="-0.25803">
        <ele>84.2</ele>
        <time>2025-07-11T09:16:33.002000+02:00</time>
      </trkpt>
      <trkpt lat="46.20912" lon="-0.25815">
        <ele>84.2</ele>
        <time>2025-07-11T09:16:35+02:00</time>
      </trkpt>
      <trkpt lat="46.2091" lon="-0.25821">
        <ele>84.2</ele>
        <time>2025-07-11T09:16:36.001000+02:00</time>
      </trkpt>
      <trkpt lat="46.20908" lon="-0.25827">
        <ele>84.3</ele>
        <time>2025-07-11T09:16:37.002000+02:00</time>
      </trkpt>
      <trkpt lat="46.20903" lon="-0.2584">
        <ele>84.2</ele>
        <time>2025-07-11T09:16:39.002000+02:00</time>
      </trkpt>
      <trkpt lat="46.209" lon="-0.25853">
        <ele>83.9</ele>
        <time>2025-07-11T09:16:41.002000+02:00</time>
      </trkpt>
      <trkpt lat="46.20898" lon="-0.25859">
        <ele>83.8</ele>
        <time>2025-07-11T09:16:42.002000+02:00</time>
      </trkpt>
      <trkpt lat="46.20892" lon="-0.25872">
        <ele>83.5</ele>
        <time>2025-07-11T09:16:44.001000+02:00</time>
      </trkpt>
      <trkpt lat="46.20886" lon="-0.25886">
        <ele>83.2</ele>
        <time>2025-07-11T09:16:46.001000+02:00</time>
      </trkpt>
      <trkpt lat="46.20883" lon="-0.25892">
        <ele>83.1</ele>
        <time>2025-07-11T09:16:47.001000+02:00</time>
      </trkpt>
      <trkpt lat="46.2088" lon="-0.25898">
        <ele>83.1</ele>
        <time>2025-07-11T09:16:48.003000+02:00</time>
      </trkpt>
      <trkpt lat="46.20874" lon="-0.2591">
        <ele>83.2</ele>
        <time>2025-07-11T09:16:50.002000+02:00</time>
      </trkpt>
      <trkpt lat="46.2087" lon="-0.25916">
        <ele>83.4</ele>
        <time>2025-07-11T09:16:51.004000+02:00</time>
      </trkpt>
      <trkpt lat="46.20863" lon="-0.25928">
        <ele>83.1</ele>
        <time>2025-07-11T09:16:53.001000+02:00</time>
      </trkpt>
      <trkpt lat="46.20859" lon="-0.25934">
        <ele>82.8</ele>
        <time>2025-07-11T09:16:54.002000+02:00</time>
      </trkpt>
      <trkpt lat="46.20855" lon="-0.2594">
        <ele>82.5</ele>
        <time>2025-07-11T09:16:55.002000+02:00</time>
      </trkpt>
      <trkpt lat="46.20851" lon="-0.25946">
        <ele>82.3</ele>
        <time>2025-07-11T09:16:56.002000+02:00</time>
      </trkpt>
      <trkpt lat="46.20848" lon="-0.25952">
        <ele>82.4</ele>
        <time>2025-07-11T09:16:57.002000+02:00</time>
      </trkpt>
      <trkpt lat="46.20844" lon="-0.25958">
        <ele>82.3</ele>
        <time>2025-07-11T09:16:58.003000+02:00</time>
      </trkpt>
      <trkpt lat="46.20836" lon="-0.25971">
        <ele>82</ele>
        <time>2025-07-11T09:17:00.001000+02:00</time>
      </trkpt>
      <trkpt lat="46.20832" lon="-0.25978">
        <ele>81.9</ele>
        <time>2025-07-11T09:17:01.002000+02:00</time>
      </trkpt>
      <trkpt lat="46.20828" lon="-0.25984">
        <ele>81.8</ele>
        <time>2025-07-11T09:17:02.002000+02:00</time>
      </trkpt>
      <trkpt lat="46.20824" lon="-0.25991">
        <ele>81.7</ele>
        <time>2025-07-11T09:17:03.003000+02:00</time>
      </trkpt>
      <trkpt lat="46.20815" lon="-0.26004">
        <ele>81.5</ele>
        <time>2025-07-11T09:17:05.002000+02:00</time>
      </trkpt>
      <trkpt lat="46.20806" lon="-0.26016">
        <ele>81.4</ele>
        <time>2025-07-11T09:17:07.003000+02:00</time>
      </trkpt>
      <trkpt lat="46.20798" lon="-0.26029">
        <ele>81.2</ele>
        <time>2025-07-11T09:17:09.002000+02:00</time>
      </trkpt>
      <trkpt lat="46.20794" lon="-0.26036">
        <ele>81.2</ele>
        <time>2025-07-11T09:17:10.003000+02:00</time>
      </trkpt>
      <trkpt lat="46.20785" lon="-0.26048">
        <ele>81</ele>
        <time>2025-07-11T09:17:12.003000+02:00</time>
      </trkpt>
      <trkpt lat="46.20778" lon="-0.2606">
        <ele>80.8</ele>
        <time>2025-07-11T09:17:14.005000+02:00</time>
      </trkpt>
      <trkpt lat="46.2077" lon="-0.26072">
        <ele>80.7</ele>
        <time>2025-07-11T09:17:16.002000+02:00</time>
      </trkpt>
      <trkpt lat="46.20763" lon="-0.26083">
        <ele>80.6</ele>
        <time>2025-07-11T09:17:18.002000+02:00</time>
      </trkpt>
      <trkpt lat="46.20759" lon="-0.26089">
        <ele>80.7</ele>
        <time>2025-07-11T09:17:19.002000+02:00</time>
      </trkpt>
      <trkpt lat="46.20756" lon="-0.26094">
        <ele>80.8</ele>
        <time>2025-07-11T09:17:20.002000+02:00</time>
      </trkpt>
      <trkpt lat="46.2075" lon="-0.26106">
        <ele>81</ele>
        <time>2025-07-11T09:17:22.003000+02:00</time>
      </trkpt>
      <trkpt lat="46.20744" lon="-0.26119">
        <ele>80.8</ele>
        <time>2025-07-11T09:17:24.002000+02:00</time>
      </trkpt>
      <trkpt lat="46.20738" lon="-0.26132">
        <ele>80.6</ele>
        <time>2025-07-11T09:17:26.001000+02:00</time>
      </trkpt>
      <trkpt lat="46.20735" lon="-0.26138">
        <ele>80.6</ele>
        <time>2025-07-11T09:17:27.002000+02:00</time>
      </trkpt>
      <trkpt lat="46.20729" lon="-0.26151">
        <ele>80.3</ele>
        <time>2025-07-11T09:17:29.001000+02:00</time>
      </trkpt>
      <trkpt lat="46.20726" lon="-0.26157">
        <ele>80.2</ele>
        <time>2025-07-11T09:17:30.001000+02:00</time>
      </trkpt>
      <trkpt lat="46.20722" lon="-0.26163">
        <ele>80.1</ele>
        <time>2025-07-11T09:17:31.002000+02:00</time>
      </trkpt>
      <trkpt lat="46.20716" lon="-0.26175">
        <ele>79.8</ele>
        <time>2025-07-11T09:17:33.001000+02:00</time>
      </trkpt>
      <trkpt lat="46.20709" lon="-0.26188">
        <ele>79.6</ele>
        <time>2025-07-11T09:17:35.002000+02:00</time>
      </trkpt>
      <trkpt lat="46.20706" lon="-0.26195">
        <ele>79.6</ele>
        <time>2025-07-11T09:17:36.002000+02:00</time>
      </trkpt>
      <trkpt lat="46.207" lon="-0.26209">
        <ele>79.4</ele>
        <time>2025-07-11T09:17:38.003000+02:00</time>
      </trkpt>
      <trkpt lat="46.20694" lon="-0.26223">
        <ele>79</ele>
        <time>2025-07-11T09:17:40.001000+02:00</time>
      </trkpt>
      <trkpt lat="46.20691" lon="-0.26231">
        <ele>79</ele>
        <time>2025-07-11T09:17:41.001000+02:00</time>
      </trkpt>
      <trkpt lat="46.20688" lon="-0.26238">
        <ele>79</ele>
        <time>2025-07-11T09:17:42.001000+02:00</time>
      </trkpt>
      <trkpt lat="46.20681" lon="-0.26254">
        <ele>78.9</ele>
        <time>2025-07-11T09:17:44.001000+02:00</time>
      </trkpt>
      <trkpt lat="46.20678" lon="-0.26262">
        <ele>78.8</ele>
        <time>2025-07-11T09:17:45.001000+02:00</time>
      </trkpt>
      <trkpt lat="46.20675" lon="-0.2627">
        <ele>78.8</ele>
        <time>2025-07-11T09:17:46.001000+02:00</time>
      </trkpt>
      <trkpt lat="46.20672" lon="-0.26278">
        <ele>78.8</ele>
        <time>2025-07-11T09:17:47.001000+02:00</time>
      </trkpt>
      <trkpt lat="46.20668" lon="-0.26286">
        <ele>78.6</ele>
        <time>2025-07-11T09:17:48.001000+02:00</time>
      </trkpt>
      <trkpt lat="46.20665" lon="-0.26295">
        <ele>78.4</ele>
        <time>2025-07-11T09:17:49.002000+02:00</time>
      </trkpt>
      <trkpt lat="46.20662" lon="-0.26303">
        <ele>78.1</ele>
        <time>2025-07-11T09:17:50.002000+02:00</time>
      </trkpt>
      <trkpt lat="46.20659" lon="-0.26312">
        <ele>77.8</ele>
        <time>2025-07-11T09:17:51.002000+02:00</time>
      </trkpt>
      <trkpt lat="46.20656" lon="-0.26321">
        <ele>77.5</ele>
        <time>2025-07-11T09:17:52.003000+02:00</time>
      </trkpt>
      <trkpt lat="46.2065" lon="-0.26338">
        <ele>77</ele>
        <time>2025-07-11T09:17:54.002000+02:00</time>
      </trkpt>
      <trkpt lat="46.20645" lon="-0.26356">
        <ele>77</ele>
        <time>2025-07-11T09:17:56+02:00</time>
      </trkpt>
      <trkpt lat="46.20642" lon="-0.26365">
        <ele>76.8</ele>
        <time>2025-07-11T09:17:57.002000+02:00</time>
      </trkpt>
      <trkpt lat="46.20636" lon="-0.26384">
        <ele>76.2</ele>
        <time>2025-07-11T09:17:59+02:00</time>
      </trkpt>
      <trkpt lat="46.20634" lon="-0.26394">
        <ele>75.9</ele>
        <time>2025-07-11T09:18:00+02:00</time>
      </trkpt>
      <trkpt lat="46.20631" lon="-0.26403">
        <ele>75.6</ele>
        <time>2025-07-11T09:18:01.001000+02:00</time>
      </trkpt>
      <trkpt lat="46.20625" lon="-0.26422">
        <ele>75.4</ele>
        <time>2025-07-11T09:18:03.001000+02:00</time>
      </trkpt>
      <trkpt lat="46.20618" lon="-0.26441">
        <ele>75.1</ele>
        <time>2025-07-11T09:18:05+02:00</time>
      </trkpt>
      <trkpt lat="46.20614" lon="-0.2645">
        <ele>74.8</ele>
        <time>2025-07-11T09:18:06.001000+02:00</time>
      </trkpt>
      <trkpt lat="46.2061" lon="-0.26459">
        <ele>74.5</ele>
        <time>2025-07-11T09:18:07.001000+02:00</time>
      </trkpt>
      <trkpt lat="46.20606" lon="-0.26468">
        <ele>74.2</ele>
        <time>2025-07-11T09:18:08.001000+02:00</time>
      </trkpt>
      <trkpt lat="46.20601" lon="-0.26476">
        <ele>74</ele>
        <time>2025-07-11T09:18:09.001000+02:00</time>
      </trkpt>
      <trkpt lat="46.20592" lon="-0.26493">
        <ele>74</ele>
        <time>2025-07-11T09:18:11.001000+02:00</time>
      </trkpt>
      <trkpt lat="46.20587" lon="-0.26502">
        <ele>73.9</ele>
        <time>2025-07-11T09:18:12.001000+02:00</time>
      </trkpt>
      <trkpt lat="46.20582" lon="-0.26511">
        <ele>73.2</ele>
        <time>2025-07-11T09:18:13.002000+02:00</time>
      </trkpt>
      <trkpt lat="46.20574" lon="-0.26528">
        <ele>72.3</ele>
        <time>2025-07-11T09:18:15.002000+02:00</time>
      </trkpt>
      <trkpt lat="46.20568" lon="-0.26543">
        <ele>72</ele>
        <time>2025-07-11T09:18:17.001000+02:00</time>
      </trkpt>
      <trkpt lat="46.20562" lon="-0.26556">
        <ele>71.7</ele>
        <time>2025-07-11T09:18:19.002000+02:00</time>
      </trkpt>
      <trkpt lat="46.20556" lon="-0.26569">
        <ele>71</ele>
        <time>2025-07-11T09:18:21.002000+02:00</time>
      </trkpt>
      <trkpt lat="46.2055" lon="-0.26583">
        <ele>70.2</ele>
        <time>2025-07-11T09:18:23.001000+02:00</time>
      </trkpt>
      <trkpt lat="46.20544" lon="-0.26596">
        <ele>70</ele>
        <time>2025-07-11T09:18:25+02:00</time>
      </trkpt>
      <trkpt lat="46.20541" lon="-0.26604">
        <ele>69.8</ele>
        <time>2025-07-11T09:18:26.001000+02:00</time>
      </trkpt>
      <trkpt lat="46.20539" lon="-0.2661">
        <ele>69.6</ele>
        <time>2025-07-11T09:18:27.001000+02:00</time>
      </trkpt>
      <trkpt lat="46.20536" lon="-0.26617">
        <ele>69.4</ele>
        <time>2025-07-11T09:18:28.001000+02:00</time>
      </trkpt>
      <trkpt lat="46.20534" lon="-0.26624">
        <ele>69.1</ele>
        <time>2025-07-11T09:18:29.001000+02:00</time>
      </trkpt>
      <trkpt lat="46.2053" lon="-0.26637">
        <ele>68.2</ele>
        <time>2025-07-11T09:18:31+02:00</time>
      </trkpt>
      <trkpt lat="46.20527" lon="-0.2665">
        <ele>68</ele>
        <time>2025-07-11T09:18:33.001000+02:00</time>
      </trkpt>
      <trkpt lat="46.20525" lon="-0.26655">
        <ele>67.9</ele>
        <time>2025-07-11T09:18:34.001000+02:00</time>
      </trkpt>
      <trkpt lat="46.20523" lon="-0.26664">
        <ele>67.8</ele>
        <time>2025-07-11T09:18:36.001000+02:00</time>
      </trkpt>
      <trkpt lat="46.20522" lon="-0.26668">
        <ele>67.7</ele>
        <time>2025-07-11T09:18:37.001000+02:00</time>
      </trkpt>
      <trkpt lat="46.20521" lon="-0.26672">
        <ele>67.4</ele>
        <time>2025-07-11T09:18:38.001000+02:00</time>
      </trkpt>
      <trkpt lat="46.20519" lon="-0.26674">
        <ele>67.2</ele>
        <time>2025-07-11T09:18:39.001000+02:00</time>
      </trkpt>
      <trkpt lat="46.20518" lon="-0.26678">
        <ele>66.8</ele>
        <time>2025-07-11T09:18:41.002000+02:00</time>
      </trkpt>
      <trkpt lat="46.20516" lon="-0.26684">
        <ele>66.3</ele>
        <time>2025-07-11T09:18:43.001000+02:00</time>
      </trkpt>
      <trkpt lat="46.20513" lon="-0.26693">
        <ele>65.6</ele>
        <time>2025-07-11T09:18:45.002000+02:00</time>
      </trkpt>
      <trkpt lat="46.20507" lon="-0.26703">
        <ele>64.9</ele>
        <time>2025-07-11T09:18:47.001000+02:00</time>
      </trkpt>
      <trkpt lat="46.20499" lon="-0.26717">
        <ele>64.2</ele>
        <time>2025-07-11T09:18:49+02:00</time>
      </trkpt>
      <trkpt lat="46.20495" lon="-0.26725">
        <ele>63.6</ele>
        <time>2025-07-11T09:18:50.001000+02:00</time>
      </trkpt>
      <trkpt lat="46.20488" lon="-0.26744">
        <ele>62</ele>
        <time>2025-07-11T09:18:52.001000+02:00</time>
      </trkpt>
      <trkpt lat="46.20484" lon="-0.26754">
        <ele>61.3</ele>
        <time>2025-07-11T09:18:53.001000+02:00</time>
      </trkpt>
      <trkpt lat="46.2048" lon="-0.26765">
        <ele>60.8</ele>
        <time>2025-07-11T09:18:54.002000+02:00</time>
      </trkpt>
      <trkpt lat="46.20473" lon="-0.26787">
        <ele>59.7</ele>
        <time>2025-07-11T09:18:56.001000+02:00</time>
      </trkpt>
      <trkpt lat="46.20468" lon="-0.26799">
        <ele>59.1</ele>
        <time>2025-07-11T09:18:57.001000+02:00</time>
      </trkpt>
      <trkpt lat="46.2046" lon="-0.26823">
        <ele>57.9</ele>
        <time>2025-07-11T09:18:59+02:00</time>
      </trkpt>
      <trkpt lat="46.20455" lon="-0.26834">
        <ele>57.4</ele>
        <time>2025-07-11T09:19:00.001000+02:00</time>
      </trkpt>
      <trkpt lat="46.20452" lon="-0.26845">
        <ele>57.2</ele>
        <time>2025-07-11T09:19:01.001000+02:00</time>
      </trkpt>
      <trkpt lat="46.20449" lon="-0.26855">
        <ele>57</ele>
        <time>2025-07-11T09:19:02.001000+02:00</time>
      </trkpt>
      <trkpt lat="46.20445" lon="-0.26866">
        <ele>56.8</ele>
        <time>2025-07-11T09:19:03.002000+02:00</time>
      </trkpt>
      <trkpt lat="46.20437" lon="-0.26887">
        <ele>56.1</ele>
        <time>2025-07-11T09:19:05.001000+02:00</time>
      </trkpt>
      <trkpt lat="46.20429" lon="-0.26908">
        <ele>55.3</ele>
        <time>2025-07-11T09:19:07.001000+02:00</time>
      </trkpt>
      <trkpt lat="46.20425" lon="-0.26918">
        <ele>55</ele>
        <time>2025-07-11T09:19:08.001000+02:00</time>
      </trkpt>
      <trkpt lat="46.20422" lon="-0.26928">
        <ele>55</ele>
        <time>2025-07-11T09:19:09.002000+02:00</time>
      </trkpt>
      <trkpt lat="46.20414" lon="-0.26948">
        <ele>54.9</ele>
        <time>2025-07-11T09:19:11.001000+02:00</time>
      </trkpt>
      <trkpt lat="46.20409" lon="-0.26957">
        <ele>54.7</ele>
        <time>2025-07-11T09:19:12.001000+02:00</time>
      </trkpt>
      <trkpt lat="46.20405" lon="-0.26967">
        <ele>54.6</ele>
        <time>2025-07-11T09:19:13.001000+02:00</time>
      </trkpt>
      <trkpt lat="46.20402" lon="-0.26976">
        <ele>54.5</ele>
        <time>2025-07-11T09:19:14.001000+02:00</time>
      </trkpt>
      <trkpt lat="46.20398" lon="-0.26986">
        <ele>54.3</ele>
        <time>2025-07-11T09:19:15.001000+02:00</time>
      </trkpt>
      <trkpt lat="46.20393" lon="-0.26995">
        <ele>54.2</ele>
        <time>2025-07-11T09:19:16.001000+02:00</time>
      </trkpt>
      <trkpt lat="46.2039" lon="-0.27004">
        <ele>54</ele>
        <time>2025-07-11T09:19:17.001000+02:00</time>
      </trkpt>
      <trkpt lat="46.20386" lon="-0.27013">
        <ele>53.9</ele>
        <time>2025-07-11T09:19:18.001000+02:00</time>
      </trkpt>
      <trkpt lat="46.20382" lon="-0.27022">
        <ele>53.8</ele>
        <time>2025-07-11T09:19:19.001000+02:00</time>
      </trkpt>
      <trkpt lat="46.20378" lon="-0.27031">
        <ele>53.5</ele>
        <time>2025-07-11T09:19:20.001000+02:00</time>
      </trkpt>
      <trkpt lat="46.20371" lon="-0.27049">
        <ele>53.1</ele>
        <time>2025-07-11T09:19:22.001000+02:00</time>
      </trkpt>
      <trkpt lat="46.20367" lon="-0.27057">
        <ele>53</ele>
        <time>2025-07-11T09:19:23.002000+02:00</time>
      </trkpt>
      <trkpt lat="46.2036" lon="-0.27074">
        <ele>53</ele>
        <time>2025-07-11T09:19:25+02:00</time>
      </trkpt>
      <trkpt lat="46.20355" lon="-0.27082">
        <ele>52.8</ele>
        <time>2025-07-11T09:19:26.003000+02:00</time>
      </trkpt>
      <trkpt lat="46.20347" lon="-0.27095">
        <ele>52.7</ele>
        <time>2025-07-11T09:19:28+02:00</time>
      </trkpt>
      <trkpt lat="46.20342" lon="-0.27102">
        <ele>52.8</ele>
        <time>2025-07-11T09:19:29+02:00</time>
      </trkpt>
      <trkpt lat="46.20338" lon="-0.27108">
        <ele>52.9</ele>
        <time>2025-07-11T09:19:30.001000+02:00</time>
      </trkpt>
      <trkpt lat="46.20333" lon="-0.27114">
        <ele>52.9</ele>
        <time>2025-07-11T09:19:31.001000+02:00</time>
      </trkpt>
      <trkpt lat="46.20328" lon="-0.2712">
        <ele>52.6</ele>
        <time>2025-07-11T09:19:32.002000+02:00</time>
      </trkpt>
      <trkpt lat="46.20323" lon="-0.27126">
        <ele>52.3</ele>
        <time>2025-07-11T09:19:33.002000+02:00</time>
      </trkpt>
      <trkpt lat="46.20312" lon="-0.27139">
        <ele>52</ele>
        <time>2025-07-11T09:19:35+02:00</time>
      </trkpt>
      <trkpt lat="46.20307" lon="-0.27145">
        <ele>52</ele>
        <time>2025-07-11T09:19:36.001000+02:00</time>
      </trkpt>
      <trkpt lat="46.20303" lon="-0.27151">
        <ele>51.9</ele>
        <time>2025-07-11T09:19:37.001000+02:00</time>
      </trkpt>
      <trkpt lat="46.20298" lon="-0.27156">
        <ele>51.7</ele>
        <time>2025-07-11T09:19:38.001000+02:00</time>
      </trkpt>
      <trkpt lat="46.20293" lon="-0.27162">
        <ele>51.5</ele>
        <time>2025-07-11T09:19:39.002000+02:00</time>
      </trkpt>
      <trkpt lat="46.20283" lon="-0.27172">
        <ele>51.2</ele>
        <time>2025-07-11T09:19:41.001000+02:00</time>
      </trkpt>
      <trkpt lat="46.20273" lon="-0.27183">
        <ele>51</ele>
        <time>2025-07-11T09:19:43+02:00</time>
      </trkpt>
      <trkpt lat="46.20268" lon="-0.27188">
        <ele>51</ele>
        <time>2025-07-11T09:19:44+02:00</time>
      </trkpt>
      <trkpt lat="46.20263" lon="-0.27193">
        <ele>51</ele>
        <time>2025-07-11T09:19:45.002000+02:00</time>
      </trkpt>
      <trkpt lat="46.20257" lon="-0.27198">
        <ele>51</ele>
        <time>2025-07-11T09:19:46.002000+02:00</time>
      </trkpt>
      <trkpt lat="46.20247" lon="-0.27207">
        <ele>51</ele>
        <time>2025-07-11T09:19:48.001000+02:00</time>
      </trkpt>
      <trkpt lat="46.20241" lon="-0.27211">
        <ele>51</ele>
        <time>2025-07-11T09:19:49.001000+02:00</time>
      </trkpt>
      <trkpt lat="46.20236" lon="-0.27215">
        <ele>51</ele>
        <time>2025-07-11T09:19:50.001000+02:00</time>
      </trkpt>
      <trkpt lat="46.20231" lon="-0.27219">
        <ele>51</ele>
        <time>2025-07-11T09:19:51.001000+02:00</time>
      </trkpt>
      <trkpt lat="46.20226" lon="-0.27223">
        <ele>51</ele>
        <time>2025-07-11T09:19:52.001000+02:00</time>
      </trkpt>
      <trkpt lat="46.20221" lon="-0.27228">
        <ele>50.8</ele>
        <time>2025-07-11T09:19:53.001000+02:00</time>
      </trkpt>
      <trkpt lat="46.20216" lon="-0.27232">
        <ele>50.6</ele>
        <time>2025-07-11T09:19:54.001000+02:00</time>
      </trkpt>
      <trkpt lat="46.2021" lon="-0.27236">
        <ele>50.5</ele>
        <time>2025-07-11T09:19:55.002000+02:00</time>
      </trkpt>
      <trkpt lat="46.202" lon="-0.27244">
        <ele>50.2</ele>
        <time>2025-07-11T09:19:57.002000+02:00</time>
      </trkpt>
      <trkpt lat="46.20194" lon="-0.27248">
        <ele>50.1</ele>
        <time>2025-07-11T09:19:58.002000+02:00</time>
      </trkpt>
      <trkpt lat="46.20183" lon="-0.27257">
        <ele>50</ele>
        <time>2025-07-11T09:20:00.001000+02:00</time>
      </trkpt>
      <trkpt lat="46.20178" lon="-0.27262">
        <ele>50</ele>
        <time>2025-07-11T09:20:01.001000+02:00</time>
      </trkpt>
      <trkpt lat="46.20173" lon="-0.27266">
        <ele>50</ele>
        <time>2025-07-11T09:20:02.001000+02:00</time>
      </trkpt>
      <trkpt lat="46.20167" lon="-0.2727">
        <ele>50</ele>
        <time>2025-07-11T09:20:03.002000+02:00</time>
      </trkpt>
      <trkpt lat="46.20156" lon="-0.27276">
        <ele>50</ele>
        <time>2025-07-11T09:20:05.006000+02:00</time>
      </trkpt>
      <trkpt lat="46.20147" lon="-0.27283">
        <ele>50</ele>
        <time>2025-07-11T09:20:07.002000+02:00</time>
      </trkpt>
      <trkpt lat="46.20136" lon="-0.2729">
        <ele>50</ele>
        <time>2025-07-11T09:20:09.002000+02:00</time>
      </trkpt>
      <trkpt lat="46.20125" lon="-0.27296">
        <ele>50</ele>
        <time>2025-07-11T09:20:11+02:00</time>
      </trkpt>
      <trkpt lat="46.2012" lon="-0.27299">
        <ele>50</ele>
        <time>2025-07-11T09:20:12.002000+02:00</time>
      </trkpt>
      <trkpt lat="46.20109" lon="-0.27305">
        <ele>50</ele>
        <time>2025-07-11T09:20:14.001000+02:00</time>
      </trkpt>
      <trkpt lat="46.20104" lon="-0.27308">
        <ele>50</ele>
        <time>2025-07-11T09:20:15.002000+02:00</time>
      </trkpt>
      <trkpt lat="46.20093" lon="-0.27313">
        <ele>50</ele>
        <time>2025-07-11T09:20:16.999000+02:00</time>
      </trkpt>
      <trkpt lat="46.20087" lon="-0.27315">
        <ele>50</ele>
        <time>2025-07-11T09:20:18+02:00</time>
      </trkpt>
      <trkpt lat="46.20082" lon="-0.27317">
        <ele>50</ele>
        <time>2025-07-11T09:20:19.001000+02:00</time>
      </trkpt>
      <trkpt lat="46.20077" lon="-0.27319">
        <ele>50</ele>
        <time>2025-07-11T09:20:20.001000+02:00</time>
      </trkpt>
      <trkpt lat="46.20072" lon="-0.27322">
        <ele>50</ele>
        <time>2025-07-11T09:20:21.002000+02:00</time>
      </trkpt>
      <trkpt lat="46.20062" lon="-0.27327">
        <ele>50</ele>
        <time>2025-07-11T09:20:23.002000+02:00</time>
      </trkpt>
      <trkpt lat="46.20053" lon="-0.27333">
        <ele>50</ele>
        <time>2025-07-11T09:20:25.001000+02:00</time>
      </trkpt>
      <trkpt lat="46.20048" lon="-0.27336">
        <ele>49.9</ele>
        <time>2025-07-11T09:20:26.002000+02:00</time>
      </trkpt>
      <trkpt lat="46.20038" lon="-0.2734">
        <ele>49.8</ele>
        <time>2025-07-11T09:20:28.001000+02:00</time>
      </trkpt>
      <trkpt lat="46.20033" lon="-0.27343">
        <ele>49.7</ele>
        <time>2025-07-11T09:20:29.001000+02:00</time>
      </trkpt>
      <trkpt lat="46.20028" lon="-0.27345">
        <ele>49.6</ele>
        <time>2025-07-11T09:20:30.003000+02:00</time>
      </trkpt>
      <trkpt lat="46.20016" lon="-0.27349">
        <ele>49.4</ele>
        <time>2025-07-11T09:20:32.001000+02:00</time>
      </trkpt>
      <trkpt lat="46.20011" lon="-0.27351">
        <ele>49.4</ele>
        <time>2025-07-11T09:20:33.001000+02:00</time>
      </trkpt>
      <trkpt lat="46.20005" lon="-0.27352">
        <ele>49.3</ele>
        <time>2025-07-11T09:20:34.002000+02:00</time>
      </trkpt>
      <trkpt lat="46.2" lon="-0.27354">
        <ele>49.3</ele>
        <time>2025-07-11T09:20:35.002000+02:00</time>
      </trkpt>
      <trkpt lat="46.19989" lon="-0.27358">
        <ele>49.1</ele>
        <time>2025-07-11T09:20:37.001000+02:00</time>
      </trkpt>
      <trkpt lat="46.19978" lon="-0.27362">
        <ele>49</ele>
        <time>2025-07-11T09:20:39.001000+02:00</time>
      </trkpt>
      <trkpt lat="46.19972" lon="-0.27364">
        <ele>49</ele>
        <time>2025-07-11T09:20:40.001000+02:00</time>
      </trkpt>
      <trkpt lat="46.19962" lon="-0.27368">
        <ele>49</ele>
        <time>2025-07-11T09:20:42.001000+02:00</time>
      </trkpt>
      <trkpt lat="46.19957" lon="-0.2737">
        <ele>49</ele>
        <time>2025-07-11T09:20:43.001000+02:00</time>
      </trkpt>
      <trkpt lat="46.19951" lon="-0.27372">
        <ele>49</ele>
        <time>2025-07-11T09:20:44.002000+02:00</time>
      </trkpt>
      <trkpt lat="46.19939" lon="-0.27376">
        <ele>49</ele>
        <time>2025-07-11T09:20:46.001000+02:00</time>
      </trkpt>
      <trkpt lat="46.19934" lon="-0.27378">
        <ele>49</ele>
        <time>2025-07-11T09:20:47.002000+02:00</time>
      </trkpt>
      <trkpt lat="46.19924" lon="-0.27382">
        <ele>49</ele>
        <time>2025-07-11T09:20:49.001000+02:00</time>
      </trkpt>
      <trkpt lat="46.19919" lon="-0.27383">
        <ele>49</ele>
        <time>2025-07-11T09:20:50.001000+02:00</time>
      </trkpt>
      <trkpt lat="46.19913" lon="-0.27385">
        <ele>49</ele>
        <time>2025-07-11T09:20:51.002000+02:00</time>
      </trkpt>
      <trkpt lat="46.19903" lon="-0.27388">
        <ele>49</ele>
        <time>2025-07-11T09:20:53.001000+02:00</time>
      </trkpt>
      <trkpt lat="46.19898" lon="-0.27389">
        <ele>49</ele>
        <time>2025-07-11T09:20:54.002000+02:00</time>
      </trkpt>
      <trkpt lat="46.19888" lon="-0.27394">
        <ele>49</ele>
        <time>2025-07-11T09:20:56.001000+02:00</time>
      </trkpt>
      <trkpt lat="46.19884" lon="-0.27396">
        <ele>49</ele>
        <time>2025-07-11T09:20:57.002000+02:00</time>
      </trkpt>
      <trkpt lat="46.19875" lon="-0.27398">
        <ele>49</ele>
        <time>2025-07-11T09:20:59.001000+02:00</time>
      </trkpt>
      <trkpt lat="46.1987" lon="-0.274">
        <ele>49</ele>
        <time>2025-07-11T09:21:00.002000+02:00</time>
      </trkpt>
      <trkpt lat="46.19866" lon="-0.274">
        <ele>49</ele>
        <time>2025-07-11T09:21:01.002000+02:00</time>
      </trkpt>
      <trkpt lat="46.1986" lon="-0.27399">
        <ele>49</ele>
        <time>2025-07-11T09:21:03.001000+02:00</time>
      </trkpt>
      <trkpt lat="46.19857" lon="-0.27397">
        <ele>49</ele>
        <time>2025-07-11T09:21:04.001000+02:00</time>
      </trkpt>
      <trkpt lat="46.19855" lon="-0.27394">
        <ele>49</ele>
        <time>2025-07-11T09:21:05.002000+02:00</time>
      </trkpt>
      <trkpt lat="46.19852" lon="-0.27385">
        <ele>49</ele>
        <time>2025-07-11T09:21:07.001000+02:00</time>
      </trkpt>
      <trkpt lat="46.19851" lon="-0.27379">
        <ele>49</ele>
        <time>2025-07-11T09:21:08.002000+02:00</time>
      </trkpt>
      <trkpt lat="46.19849" lon="-0.27367">
        <ele>49</ele>
        <time>2025-07-11T09:21:10.001000+02:00</time>
      </trkpt>
      <trkpt lat="46.19848" lon="-0.2736">
        <ele>49</ele>
        <time>2025-07-11T09:21:11.001000+02:00</time>
      </trkpt>
      <trkpt lat="46.19846" lon="-0.27347">
        <ele>49</ele>
        <time>2025-07-11T09:21:13+02:00</time>
      </trkpt>
      <trkpt lat="46.19845" lon="-0.27341">
        <ele>49</ele>
        <time>2025-07-11T09:21:14.001000+02:00</time>
      </trkpt>
      <trkpt lat="46.19843" lon="-0.27327">
        <ele>49</ele>
        <time>2025-07-11T09:21:16+02:00</time>
      </trkpt>
      <trkpt lat="46.19842" lon="-0.27321">
        <ele>49</ele>
        <time>2025-07-11T09:21:17.001000+02:00</time>
      </trkpt>
      <trkpt lat="46.19839" lon="-0.27307">
        <ele>49</ele>
        <time>2025-07-11T09:21:19.002000+02:00</time>
      </trkpt>
      <trkpt lat="46.19836" lon="-0.27294">
        <ele>49.4</ele>
        <time>2025-07-11T09:21:21.002000+02:00</time>
      </trkpt>
      <trkpt lat="46.19834" lon="-0.2728">
        <ele>49.9</ele>
        <time>2025-07-11T09:21:23+02:00</time>
      </trkpt>
      <trkpt lat="46.19833" lon="-0.27273">
        <ele>49.8</ele>
        <time>2025-07-11T09:21:24.002000+02:00</time>
      </trkpt>
      <trkpt lat="46.19832" lon="-0.27266">
        <ele>49.5</ele>
        <time>2025-07-11T09:21:25.002000+02:00</time>
      </trkpt>
      <trkpt lat="46.1983" lon="-0.27253">
        <ele>49.1</ele>
        <time>2025-07-11T09:21:27.002000+02:00</time>
      </trkpt>
      <trkpt lat="46.19828" lon="-0.27246">
        <ele>49</ele>
        <time>2025-07-11T09:21:28.002000+02:00</time>
      </trkpt>
      <trkpt lat="46.19826" lon="-0.27232">
        <ele>49</ele>
        <time>2025-07-11T09:21:30+02:00</time>
      </trkpt>
      <trkpt lat="46.19825" lon="-0.27225">
        <ele>49</ele>
        <time>2025-07-11T09:21:31+02:00</time>
      </trkpt>
      <trkpt lat="46.19824" lon="-0.27218">
        <ele>49</ele>
        <time>2025-07-11T09:21:32+02:00</time>
      </trkpt>
      <trkpt lat="46.19822" lon="-0.27211">
        <ele>49</ele>
        <time>2025-07-11T09:21:33.003000+02:00</time>
      </trkpt>
      <trkpt lat="46.19819" lon="-0.27196">
        <ele>49</ele>
        <time>2025-07-11T09:21:35.002000+02:00</time>
      </trkpt>
      <trkpt lat="46.19817" lon="-0.27181">
        <ele>49.3</ele>
        <time>2025-07-11T09:21:37+02:00</time>
      </trkpt>
      <trkpt lat="46.19815" lon="-0.27174">
        <ele>49.5</ele>
        <time>2025-07-11T09:21:38.001000+02:00</time>
      </trkpt>
      <trkpt lat="46.19814" lon="-0.27166">
        <ele>49.7</ele>
        <time>2025-07-11T09:21:39.002000+02:00</time>
      </trkpt>
      <trkpt lat="46.19811" lon="-0.27152">
        <ele>49.9</ele>
        <time>2025-07-11T09:21:41.002000+02:00</time>
      </trkpt>
      <trkpt lat="46.19809" lon="-0.27137">
        <ele>50</ele>
        <time>2025-07-11T09:21:43.001000+02:00</time>
      </trkpt>
      <trkpt lat="46.19808" lon="-0.2713">
        <ele>50</ele>
        <time>2025-07-11T09:21:44.002000+02:00</time>
      </trkpt>
      <trkpt lat="46.19807" lon="-0.27123">
        <ele>50</ele>
        <time>2025-07-11T09:21:45.002000+02:00</time>
      </trkpt>
      <trkpt lat="46.19804" lon="-0.27109">
        <ele>50</ele>
        <time>2025-07-11T09:21:47.002000+02:00</time>
      </trkpt>
      <trkpt lat="46.19803" lon="-0.27102">
        <ele>50</ele>
        <time>2025-07-11T09:21:48.002000+02:00</time>
      </trkpt>
      <trkpt lat="46.19802" lon="-0.27095">
        <ele>50</ele>
        <time>2025-07-11T09:21:49.002000+02:00</time>
      </trkpt>
      <trkpt lat="46.198" lon="-0.27081">
        <ele>50</ele>
        <time>2025-07-11T09:21:51.001000+02:00</time>
      </trkpt>
      <trkpt lat="46.19798" lon="-0.27073">
        <ele>50</ele>
        <time>2025-07-11T09:21:52.001000+02:00</time>
      </trkpt>
      <trkpt lat="46.19797" lon="-0.27066">
        <ele>50</ele>
        <time>2025-07-11T09:21:53.001000+02:00</time>
      </trkpt>
      <trkpt lat="46.19795" lon="-0.27053">
        <ele>50</ele>
        <time>2025-07-11T09:21:55+02:00</time>
      </trkpt>
      <trkpt lat="46.19793" lon="-0.27046">
        <ele>50</ele>
        <time>2025-07-11T09:21:56.004000+02:00</time>
      </trkpt>
      <trkpt lat="46.1979" lon="-0.27031">
        <ele>50</ele>
        <time>2025-07-11T09:21:58.001000+02:00</time>
      </trkpt>
      <trkpt lat="46.19789" lon="-0.27024">
        <ele>50.1</ele>
        <time>2025-07-11T09:21:59.001000+02:00</time>
      </trkpt>
      <trkpt lat="46.19788" lon="-0.27017">
        <ele>50.1</ele>
        <time>2025-07-11T09:22:00.001000+02:00</time>
      </trkpt>
      <trkpt lat="46.19787" lon="-0.27011">
        <ele>50.2</ele>
        <time>2025-07-11T09:22:01.002000+02:00</time>
      </trkpt>
      <trkpt lat="46.19784" lon="-0.26997">
        <ele>50.3</ele>
        <time>2025-07-11T09:22:03.001000+02:00</time>
      </trkpt>
      <trkpt lat="46.19783" lon="-0.2699">
        <ele>50.5</ele>
        <time>2025-07-11T09:22:04.001000+02:00</time>
      </trkpt>
      <trkpt lat="46.19782" lon="-0.26983">
        <ele>50.7</ele>
        <time>2025-07-11T09:22:05.003000+02:00</time>
      </trkpt>
      <trkpt lat="46.1978" lon="-0.2697">
        <ele>51</ele>
        <time>2025-07-11T09:22:07.001000+02:00</time>
      </trkpt>
      <trkpt lat="46.19779" lon="-0.26964">
        <ele>51</ele>
        <time>2025-07-11T09:22:08.001000+02:00</time>
      </trkpt>
      <trkpt lat="46.19777" lon="-0.26957">
        <ele>51</ele>
        <time>2025-07-11T09:22:09.001000+02:00</time>
      </trkpt>
      <trkpt lat="46.19777" lon="-0.26951">
        <ele>51</ele>
        <time>2025-07-11T09:22:10.001000+02:00</time>
      </trkpt>
      <trkpt lat="46.19776" lon="-0.26945">
        <ele>51</ele>
        <time>2025-07-11T09:22:11.001000+02:00</time>
      </trkpt>
      <trkpt lat="46.19775" lon="-0.26938">
        <ele>51</ele>
        <time>2025-07-11T09:22:12.001000+02:00</time>
      </trkpt>
      <trkpt lat="46.19774" lon="-0.26932">
        <ele>51</ele>
        <time>2025-07-11T09:22:13.001000+02:00</time>
      </trkpt>
      <trkpt lat="46.19773" lon="-0.26926">
        <ele>51</ele>
        <time>2025-07-11T09:22:14.002000+02:00</time>
      </trkpt>
      <trkpt lat="46.19773" lon="-0.2692">
        <ele>51</ele>
        <time>2025-07-11T09:22:15.002000+02:00</time>
      </trkpt>
      <trkpt lat="46.19771" lon="-0.26909">
        <ele>51</ele>
        <time>2025-07-11T09:22:17.001000+02:00</time>
      </trkpt>
      <trkpt lat="46.19768" lon="-0.26906">
        <ele>51</ele>
        <time>2025-07-11T09:22:18.001000+02:00</time>
      </trkpt>
      <trkpt lat="46.19765" lon="-0.26904">
        <ele>51</ele>
        <time>2025-07-11T09:22:19.001000+02:00</time>
      </trkpt>
      <trkpt lat="46.19761" lon="-0.26904">
        <ele>51</ele>
        <time>2025-07-11T09:22:20.001000+02:00</time>
      </trkpt>
      <trkpt lat="46.19757" lon="-0.26904">
        <ele>51</ele>
        <time>2025-07-11T09:22:21.002000+02:00</time>
      </trkpt>
      <trkpt lat="46.19748" lon="-0.26905">
        <ele>51</ele>
        <time>2025-07-11T09:22:23.001000+02:00</time>
      </trkpt>
      <trkpt lat="46.19744" lon="-0.26906">
        <ele>51</ele>
        <time>2025-07-11T09:22:24.001000+02:00</time>
      </trkpt>
      <trkpt lat="46.19734" lon="-0.26907">
        <ele>51</ele>
        <time>2025-07-11T09:22:26.001000+02:00</time>
      </trkpt>
      <trkpt lat="46.19729" lon="-0.26908">
        <ele>51</ele>
        <time>2025-07-11T09:22:27.004000+02:00</time>
      </trkpt>
      <trkpt lat="46.1972" lon="-0.26909">
        <ele>51</ele>
        <time>2025-07-11T09:22:29.002000+02:00</time>
      </trkpt>
      <trkpt lat="46.19712" lon="-0.26911">
        <ele>51</ele>
        <time>2025-07-11T09:22:31.001000+02:00</time>
      </trkpt>
      <trkpt lat="46.19703" lon="-0.26912">
        <ele>51</ele>
        <time>2025-07-11T09:22:33.002000+02:00</time>
      </trkpt>
      <trkpt lat="46.19698" lon="-0.26913">
        <ele>51</ele>
        <time>2025-07-11T09:22:34.002000+02:00</time>
      </trkpt>
      <trkpt lat="46.19689" lon="-0.26915">
        <ele>51</ele>
        <time>2025-07-11T09:22:36+02:00</time>
      </trkpt>
      <trkpt lat="46.19684" lon="-0.26915">
        <ele>51</ele>
        <time>2025-07-11T09:22:37.001000+02:00</time>
      </trkpt>
      <trkpt lat="46.1968" lon="-0.26916">
        <ele>51</ele>
        <time>2025-07-11T09:22:38.001000+02:00</time>
      </trkpt>
      <trkpt lat="46.19675" lon="-0.26917">
        <ele>51</ele>
        <time>2025-07-11T09:22:39.002000+02:00</time>
      </trkpt>
      <trkpt lat="46.19666" lon="-0.26918">
        <ele>51</ele>
        <time>2025-07-11T09:22:41+02:00</time>
      </trkpt>
      <trkpt lat="46.19661" lon="-0.26919">
        <ele>51.2</ele>
        <time>2025-07-11T09:22:42.002000+02:00</time>
      </trkpt>
      <trkpt lat="46.19652" lon="-0.2692">
        <ele>51.5</ele>
        <time>2025-07-11T09:22:44.001000+02:00</time>
      </trkpt>
      <trkpt lat="46.19647" lon="-0.26921">
        <ele>51.6</ele>
        <time>2025-07-11T09:22:45.002000+02:00</time>
      </trkpt>
      <trkpt lat="46.19639" lon="-0.26922">
        <ele>51.8</ele>
        <time>2025-07-11T09:22:47.001000+02:00</time>
      </trkpt>
      <trkpt lat="46.19634" lon="-0.26923">
        <ele>51.8</ele>
        <time>2025-07-11T09:22:48.002000+02:00</time>
      </trkpt>
      <trkpt lat="46.19626" lon="-0.26925">
        <ele>51.9</ele>
        <time>2025-07-11T09:22:50.003000+02:00</time>
      </trkpt>
      <trkpt lat="46.19621" lon="-0.26925">
        <ele>51.9</ele>
        <time>2025-07-11T09:22:51.004000+02:00</time>
      </trkpt>
      <trkpt lat="46.19613" lon="-0.26926">
        <ele>52</ele>
        <time>2025-07-11T09:22:53.003000+02:00</time>
      </trkpt>
      <trkpt lat="46.19608" lon="-0.26927">
        <ele>52</ele>
        <time>2025-07-11T09:22:54.004000+02:00</time>
      </trkpt>
      <trkpt lat="46.19599" lon="-0.26928">
        <ele>52</ele>
        <time>2025-07-11T09:22:56.001000+02:00</time>
      </trkpt>
      <trkpt lat="46.19595" lon="-0.26929">
        <ele>52</ele>
        <time>2025-07-11T09:22:57.002000+02:00</time>
      </trkpt>
      <trkpt lat="46.19586" lon="-0.2693">
        <ele>52</ele>
        <time>2025-07-11T09:22:59+02:00</time>
      </trkpt>
      <trkpt lat="46.19581" lon="-0.26931">
        <ele>51.9</ele>
        <time>2025-07-11T09:23:00.001000+02:00</time>
      </trkpt>
      <trkpt lat="46.19577" lon="-0.26931">
        <ele>51.8</ele>
        <time>2025-07-11T09:23:01.001000+02:00</time>
      </trkpt>
      <trkpt lat="46.19572" lon="-0.26932">
        <ele>51.6</ele>
        <time>2025-07-11T09:23:02.003000+02:00</time>
      </trkpt>
      <trkpt lat="46.19562" lon="-0.26934">
        <ele>51.2</ele>
        <time>2025-07-11T09:23:04.001000+02:00</time>
      </trkpt>
      <trkpt lat="46.19552" lon="-0.26936">
        <ele>51</ele>
        <time>2025-07-11T09:23:06.002000+02:00</time>
      </trkpt>
      <trkpt lat="46.19542" lon="-0.26938">
        <ele>51</ele>
        <time>2025-07-11T09:23:08.001000+02:00</time>
      </trkpt>
      <trkpt lat="46.19537" lon="-0.26939">
        <ele>51</ele>
        <time>2025-07-11T09:23:09.001000+02:00</time>
      </trkpt>
      <trkpt lat="46.19532" lon="-0.26939">
        <ele>51</ele>
        <time>2025-07-11T09:23:10.002000+02:00</time>
      </trkpt>
      <trkpt lat="46.19527" lon="-0.2694">
        <ele>51</ele>
        <time>2025-07-11T09:23:11.002000+02:00</time>
      </trkpt>
      <trkpt lat="46.19516" lon="-0.26942">
        <ele>50.6</ele>
        <time>2025-07-11T09:23:13.001000+02:00</time>
      </trkpt>
      <trkpt lat="46.1951" lon="-0.26943">
        <ele>50.4</ele>
        <time>2025-07-11T09:23:14.001000+02:00</time>
      </trkpt>
      <trkpt lat="46.19505" lon="-0.26944">
        <ele>50.2</ele>
        <time>2025-07-11T09:23:15.001000+02:00</time>
      </trkpt>
      <trkpt lat="46.19499" lon="-0.26945">
        <ele>50</ele>
        <time>2025-07-11T09:23:16.001000+02:00</time>
      </trkpt>
      <trkpt lat="46.19487" lon="-0.26947">
        <ele>50</ele>
        <time>2025-07-11T09:23:18.001000+02:00</time>
      </trkpt>
      <trkpt lat="46.19482" lon="-0.26948">
        <ele>49.9</ele>
        <time>2025-07-11T09:23:19.002000+02:00</time>
      </trkpt>
      <trkpt lat="46.19476" lon="-0.26949">
        <ele>49.9</ele>
        <time>2025-07-11T09:23:20.002000+02:00</time>
      </trkpt>
      <trkpt lat="46.1947" lon="-0.26949">
        <ele>49.8</ele>
        <time>2025-07-11T09:23:21.003000+02:00</time>
      </trkpt>
      <trkpt lat="46.19465" lon="-0.2695">
        <ele>49.8</ele>
        <time>2025-07-11T09:23:22.003000+02:00</time>
      </trkpt>
      <trkpt lat="46.19454" lon="-0.26952">
        <ele>49.7</ele>
        <time>2025-07-11T09:23:24.003000+02:00</time>
      </trkpt>
      <trkpt lat="46.19444" lon="-0.26953">
        <ele>49.7</ele>
        <time>2025-07-11T09:23:26.001000+02:00</time>
      </trkpt>
      <trkpt lat="46.19438" lon="-0.26954">
        <ele>49.5</ele>
        <time>2025-07-11T09:23:27.002000+02:00</time>
      </trkpt>
      <trkpt lat="46.19428" lon="-0.26956">
        <ele>49.2</ele>
        <time>2025-07-11T09:23:29.001000+02:00</time>
      </trkpt>
      <trkpt lat="46.19423" lon="-0.26957">
        <ele>49.1</ele>
        <time>2025-07-11T09:23:30.001000+02:00</time>
      </trkpt>
      <trkpt lat="46.19418" lon="-0.26957">
        <ele>49</ele>
        <time>2025-07-11T09:23:31.003000+02:00</time>
      </trkpt>
      <trkpt lat="46.1941" lon="-0.26952">
        <ele>49</ele>
        <time>2025-07-11T09:23:33.002000+02:00</time>
      </trkpt>
      <trkpt lat="46.19404" lon="-0.2694">
        <ele>49.1</ele>
        <time>2025-07-11T09:23:35.001000+02:00</time>
      </trkpt>
      <trkpt lat="46.19401" lon="-0.26933">
        <ele>49.2</ele>
        <time>2025-07-11T09:23:36.001000+02:00</time>
      </trkpt>
      <trkpt lat="46.19399" lon="-0.26927">
        <ele>49.2</ele>
        <time>2025-07-11T09:23:37.003000+02:00</time>
      </trkpt>
      <trkpt lat="46.19394" lon="-0.26914">
        <ele>49.2</ele>
        <time>2025-07-11T09:23:39.002000+02:00</time>
      </trkpt>
      <trkpt lat="46.1939" lon="-0.26902">
        <ele>49</ele>
        <time>2025-07-11T09:23:41+02:00</time>
      </trkpt>
      <trkpt lat="46.19387" lon="-0.26896">
        <ele>49</ele>
        <time>2025-07-11T09:23:42.001000+02:00</time>
      </trkpt>
      <trkpt lat="46.19385" lon="-0.2689">
        <ele>49</ele>
        <time>2025-07-11T09:23:43.002000+02:00</time>
      </trkpt>
      <trkpt lat="46.1938" lon="-0.26879">
        <ele>49.2</ele>
        <time>2025-07-11T09:23:45.002000+02:00</time>
      </trkpt>
      <trkpt lat="46.19375" lon="-0.26867">
        <ele>49.4</ele>
        <time>2025-07-11T09:23:47.002000+02:00</time>
      </trkpt>
      <trkpt lat="46.19369" lon="-0.26856">
        <ele>49.3</ele>
        <time>2025-07-11T09:23:49.002000+02:00</time>
      </trkpt>
      <trkpt lat="46.19367" lon="-0.2685">
        <ele>49.2</ele>
        <time>2025-07-11T09:23:50.002000+02:00</time>
      </trkpt>
      <trkpt lat="46.19364" lon="-0.26844">
        <ele>49.1</ele>
        <time>2025-07-11T09:23:51.002000+02:00</time>
      </trkpt>
      <trkpt lat="46.19361" lon="-0.26838">
        <ele>49</ele>
        <time>2025-07-11T09:23:52.002000+02:00</time>
      </trkpt>
      <trkpt lat="46.19359" lon="-0.26833">
        <ele>49</ele>
        <time>2025-07-11T09:23:53.003000+02:00</time>
      </trkpt>
      <trkpt lat="46.19356" lon="-0.26827">
        <ele>49.2</ele>
        <time>2025-07-11T09:23:54.003000+02:00</time>
      </trkpt>
      <trkpt lat="46.1935" lon="-0.26817">
        <ele>49.3</ele>
        <time>2025-07-11T09:23:56+02:00</time>
      </trkpt>
      <trkpt lat="46.19346" lon="-0.26812">
        <ele>49.4</ele>
        <time>2025-07-11T09:23:57.002000+02:00</time>
      </trkpt>
      <trkpt lat="46.1934" lon="-0.26802">
        <ele>49.2</ele>
        <time>2025-07-11T09:23:59.001000+02:00</time>
      </trkpt>
      <trkpt lat="46.19337" lon="-0.26796">
        <ele>49.1</ele>
        <time>2025-07-11T09:24:00.001000+02:00</time>
      </trkpt>
      <trkpt lat="46.19335" lon="-0.26791">
        <ele>49.1</ele>
        <time>2025-07-11T09:24:01.001000+02:00</time>
      </trkpt>
      <trkpt lat="46.19331" lon="-0.26779">
        <ele>49</ele>
        <time>2025-07-11T09:24:03.002000+02:00</time>
      </trkpt>
      <trkpt lat="46.19326" lon="-0.26767">
        <ele>49.3</ele>
        <time>2025-07-11T09:24:05.001000+02:00</time>
      </trkpt>
      <trkpt lat="46.19323" lon="-0.26754">
        <ele>49.5</ele>
        <time>2025-07-11T09:24:07.001000+02:00</time>
      </trkpt>
      <trkpt lat="46.19323" lon="-0.26749">
        <ele>49.6</ele>
        <time>2025-07-11T09:24:08.003000+02:00</time>
      </trkpt>
      <trkpt lat="46.19323" lon="-0.26745">
        <ele>49.6</ele>
        <time>2025-07-11T09:24:09.003000+02:00</time>
      </trkpt>
      <trkpt lat="46.19322" lon="-0.26742">
        <ele>49.6</ele>
        <time>2025-07-11T09:24:10.003000+02:00</time>
      </trkpt>
      <trkpt lat="46.1932" lon="-0.26733">
        <ele>49.5</ele>
        <time>2025-07-11T09:24:12.003000+02:00</time>
      </trkpt>
      <trkpt lat="46.19317" lon="-0.26726">
        <ele>49.4</ele>
        <time>2025-07-11T09:24:13.003000+02:00</time>
      </trkpt>
      <trkpt lat="46.19312" lon="-0.2672">
        <ele>49.2</ele>
        <time>2025-07-11T09:24:14.003000+02:00</time>
      </trkpt>
      <trkpt lat="46.19308" lon="-0.26714">
        <ele>49.1</ele>
        <time>2025-07-11T09:24:15.003000+02:00</time>
      </trkpt>
      <trkpt lat="46.19303" lon="-0.26702">
        <ele>49</ele>
        <time>2025-07-11T09:24:17.001000+02:00</time>
      </trkpt>
      <trkpt lat="46.19299" lon="-0.26696">
        <ele>49</ele>
        <time>2025-07-11T09:24:18.001000+02:00</time>
      </trkpt>
      <trkpt lat="46.19294" lon="-0.26686">
        <ele>49.2</ele>
        <time>2025-07-11T09:24:20.001000+02:00</time>
      </trkpt>
      <trkpt lat="46.19291" lon="-0.2668">
        <ele>49.2</ele>
        <time>2025-07-11T09:24:21.001000+02:00</time>
      </trkpt>
      <trkpt lat="46.19288" lon="-0.26675">
        <ele>49.3</ele>
        <time>2025-07-11T09:24:22.001000+02:00</time>
      </trkpt>
      <trkpt lat="46.19284" lon="-0.2667">
        <ele>49.2</ele>
        <time>2025-07-11T09:24:23.001000+02:00</time>
      </trkpt>
      <trkpt lat="46.19281" lon="-0.26665">
        <ele>49.2</ele>
        <time>2025-07-11T09:24:24.002000+02:00</time>
      </trkpt>
      <trkpt lat="46.19273" lon="-0.26657">
        <ele>49.3</ele>
        <time>2025-07-11T09:24:26+02:00</time>
      </trkpt>
      <trkpt lat="46.19269" lon="-0.26653">
        <ele>49.3</ele>
        <time>2025-07-11T09:24:27.002000+02:00</time>
      </trkpt>
      <trkpt lat="46.19261" lon="-0.26647">
        <ele>49.3</ele>
        <time>2025-07-11T09:24:28.999000+02:00</time>
      </trkpt>
      <trkpt lat="46.19257" lon="-0.26644">
        <ele>49.2</ele>
        <time>2025-07-11T09:24:30+02:00</time>
      </trkpt>
      <trkpt lat="46.19248" lon="-0.26639">
        <ele>49</ele>
        <time>2025-07-11T09:24:32.001000+02:00</time>
      </trkpt>
      <trkpt lat="46.19244" lon="-0.26636">
        <ele>49</ele>
        <time>2025-07-11T09:24:33.002000+02:00</time>
      </trkpt>
      <trkpt lat="46.19236" lon="-0.26626">
        <ele>49</ele>
        <time>2025-07-11T09:24:34.999000+02:00</time>
      </trkpt>
      <trkpt lat="46.19233" lon="-0.26619">
        <ele>49</ele>
        <time>2025-07-11T09:24:36+02:00</time>
      </trkpt>
      <trkpt lat="46.19231" lon="-0.26611">
        <ele>49</ele>
        <time>2025-07-11T09:24:37.001000+02:00</time>
      </trkpt>
      <trkpt lat="46.19229" lon="-0.26604">
        <ele>49.1</ele>
        <time>2025-07-11T09:24:38.002000+02:00</time>
      </trkpt>
      <trkpt lat="46.19225" lon="-0.26588">
        <ele>49.1</ele>
        <time>2025-07-11T09:24:40.001000+02:00</time>
      </trkpt>
      <trkpt lat="46.19222" lon="-0.26573">
        <ele>49</ele>
        <time>2025-07-11T09:24:42.001000+02:00</time>
      </trkpt>
      <trkpt lat="46.1922" lon="-0.26566">
        <ele>49</ele>
        <time>2025-07-11T09:24:43.001000+02:00</time>
      </trkpt>
      <trkpt lat="46.19215" lon="-0.26552">
        <ele>49.1</ele>
        <time>2025-07-11T09:24:45.002000+02:00</time>
      </trkpt>
      <trkpt lat="46.19209" lon="-0.26539">
        <ele>49.3</ele>
        <time>2025-07-11T09:24:47+02:00</time>
      </trkpt>
      <trkpt lat="46.19206" lon="-0.26533">
        <ele>49.3</ele>
        <time>2025-07-11T09:24:48.001000+02:00</time>
      </trkpt>
      <trkpt lat="46.19203" lon="-0.26526">
        <ele>49.3</ele>
        <time>2025-07-11T09:24:49.003000+02:00</time>
      </trkpt>
      <trkpt lat="46.192" lon="-0.2652">
        <ele>49.2</ele>
        <time>2025-07-11T09:24:50.003000+02:00</time>
      </trkpt>
      <trkpt lat="46.19197" lon="-0.26506">
        <ele>49</ele>
        <time>2025-07-11T09:24:52.003000+02:00</time>
      </trkpt>
      <trkpt lat="46.19197" lon="-0.26499">
        <ele>49</ele>
        <time>2025-07-11T09:24:53.003000+02:00</time>
      </trkpt>
      <trkpt lat="46.19196" lon="-0.26492">
        <ele>49</ele>
        <time>2025-07-11T09:24:54.003000+02:00</time>
      </trkpt>
      <trkpt lat="46.19195" lon="-0.26476">
        <ele>49</ele>
        <time>2025-07-11T09:24:56+02:00</time>
      </trkpt>
      <trkpt lat="46.19194" lon="-0.26468">
        <ele>49.1</ele>
        <time>2025-07-11T09:24:57.001000+02:00</time>
      </trkpt>
      <trkpt lat="46.19193" lon="-0.26453">
        <ele>49.6</ele>
        <time>2025-07-11T09:24:59.001000+02:00</time>
      </trkpt>
      <trkpt lat="46.19192" lon="-0.26446">
        <ele>49.9</ele>
        <time>2025-07-11T09:25:00.002000+02:00</time>
      </trkpt>
      <trkpt lat="46.19189" lon="-0.26432">
        <ele>49.9</ele>
        <time>2025-07-11T09:25:02+02:00</time>
      </trkpt>
      <trkpt lat="46.19188" lon="-0.26426">
        <ele>49.9</ele>
        <time>2025-07-11T09:25:03.002000+02:00</time>
      </trkpt>
      <trkpt lat="46.19187" lon="-0.26419">
        <ele>50</ele>
        <time>2025-07-11T09:25:04.002000+02:00</time>
      </trkpt>
      <trkpt lat="46.19187" lon="-0.26412">
        <ele>50</ele>
        <time>2025-07-11T09:25:05.003000+02:00</time>
      </trkpt>
      <trkpt lat="46.19186" lon="-0.26405">
        <ele>50</ele>
        <time>2025-07-11T09:25:06.003000+02:00</time>
      </trkpt>
      <trkpt lat="46.19184" lon="-0.26393">
        <ele>50</ele>
        <time>2025-07-11T09:25:08.004000+02:00</time>
      </trkpt>
      <trkpt lat="46.19183" lon="-0.2638">
        <ele>50</ele>
        <time>2025-07-11T09:25:10.001000+02:00</time>
      </trkpt>
      <trkpt lat="46.19182" lon="-0.26368">
        <ele>50</ele>
        <time>2025-07-11T09:25:12.001000+02:00</time>
      </trkpt>
      <trkpt lat="46.19181" lon="-0.26362">
        <ele>50</ele>
        <time>2025-07-11T09:25:13.002000+02:00</time>
      </trkpt>
      <trkpt lat="46.19177" lon="-0.26354">
        <ele>50</ele>
        <time>2025-07-11T09:25:15.003000+02:00</time>
      </trkpt>
      <trkpt lat="46.19172" lon="-0.26354">
        <ele>50</ele>
        <time>2025-07-11T09:25:17+02:00</time>
      </trkpt>
      <trkpt lat="46.19169" lon="-0.26355">
        <ele>50</ele>
        <time>2025-07-11T09:25:18.001000+02:00</time>
      </trkpt>
      <trkpt lat="46.19167" lon="-0.26358">
        <ele>50</ele>
        <time>2025-07-11T09:25:19.001000+02:00</time>
      </trkpt>
      <trkpt lat="46.19165" lon="-0.26363">
        <ele>50</ele>
        <time>2025-07-11T09:25:20.001000+02:00</time>
      </trkpt>
      <trkpt lat="46.19163" lon="-0.26368">
        <ele>50</ele>
        <time>2025-07-11T09:25:21.002000+02:00</time>
      </trkpt>
      <trkpt lat="46.19158" lon="-0.26378">
        <ele>50</ele>
        <time>2025-07-11T09:25:23.001000+02:00</time>
      </trkpt>
      <trkpt lat="46.19154" lon="-0.26384">
        <ele>50</ele>
        <time>2025-07-11T09:25:24.002000+02:00</time>
      </trkpt>
      <trkpt lat="46.19151" lon="-0.26389">
        <ele>50</ele>
        <time>2025-07-11T09:25:25.002000+02:00</time>
      </trkpt>
      <trkpt lat="46.19144" lon="-0.26401">
        <ele>49.6</ele>
        <time>2025-07-11T09:25:27.002000+02:00</time>
      </trkpt>
      <trkpt lat="46.19141" lon="-0.26407">
        <ele>49.4</ele>
        <time>2025-07-11T09:25:28.002000+02:00</time>
      </trkpt>
      <trkpt lat="46.19134" lon="-0.26418">
        <ele>49</ele>
        <time>2025-07-11T09:25:30+02:00</time>
      </trkpt>
      <trkpt lat="46.19131" lon="-0.26424">
        <ele>49</ele>
        <time>2025-07-11T09:25:31.001000+02:00</time>
      </trkpt>
      <trkpt lat="46.19127" lon="-0.26429">
        <ele>49</ele>
        <time>2025-07-11T09:25:32.002000+02:00</time>
      </trkpt>
      <trkpt lat="46.1912" lon="-0.26441">
        <ele>49</ele>
        <time>2025-07-11T09:25:34.001000+02:00</time>
      </trkpt>
      <trkpt lat="46.19117" lon="-0.26447">
        <ele>49</ele>
        <time>2025-07-11T09:25:35.001000+02:00</time>
      </trkpt>
      <trkpt lat="46.19114" lon="-0.26452">
        <ele>49</ele>
        <time>2025-07-11T09:25:36.002000+02:00</time>
      </trkpt>
      <trkpt lat="46.1911" lon="-0.26458">
        <ele>49</ele>
        <time>2025-07-11T09:25:37.002000+02:00</time>
      </trkpt>
      <trkpt lat="46.19107" lon="-0.26464">
        <ele>49</ele>
        <time>2025-07-11T09:25:38.002000+02:00</time>
      </trkpt>
      <trkpt lat="46.19103" lon="-0.26469">
        <ele>49</ele>
        <time>2025-07-11T09:25:39.002000+02:00</time>
      </trkpt>
      <trkpt lat="46.19095" lon="-0.26481">
        <ele>49</ele>
        <time>2025-07-11T09:25:41+02:00</time>
      </trkpt>
      <trkpt lat="46.19091" lon="-0.26487">
        <ele>49</ele>
        <time>2025-07-11T09:25:42.001000+02:00</time>
      </trkpt>
      <trkpt lat="46.19087" lon="-0.26493">
        <ele>49</ele>
        <time>2025-07-11T09:25:43.001000+02:00</time>
      </trkpt>
      <trkpt lat="46.19083" lon="-0.26499">
        <ele>49</ele>
        <time>2025-07-11T09:25:44.002000+02:00</time>
      </trkpt>
      <trkpt lat="46.19075" lon="-0.26511">
        <ele>49</ele>
        <time>2025-07-11T09:25:46.001000+02:00</time>
      </trkpt>
      <trkpt lat="46.19072" lon="-0.26516">
        <ele>49</ele>
        <time>2025-07-11T09:25:47.001000+02:00</time>
      </trkpt>
      <trkpt lat="46.19068" lon="-0.26521">
        <ele>49</ele>
        <time>2025-07-11T09:25:48.002000+02:00</time>
      </trkpt>
      <trkpt lat="46.19065" lon="-0.26526">
        <ele>49</ele>
        <time>2025-07-11T09:25:49.002000+02:00</time>
      </trkpt>
      <trkpt lat="46.19062" lon="-0.26531">
        <ele>49</ele>
        <time>2025-07-11T09:25:50.003000+02:00</time>
      </trkpt>
      <trkpt lat="46.19055" lon="-0.26541">
        <ele>49</ele>
        <time>2025-07-11T09:25:52+02:00</time>
      </trkpt>
      <trkpt lat="46.19052" lon="-0.26547">
        <ele>49</ele>
        <time>2025-07-11T09:25:53+02:00</time>
      </trkpt>
      <trkpt lat="46.19048" lon="-0.26552">
        <ele>49</ele>
        <time>2025-07-11T09:25:54.001000+02:00</time>
      </trkpt>
      <trkpt lat="46.19041" lon="-0.26563">
        <ele>49</ele>
        <time>2025-07-11T09:25:56.001000+02:00</time>
      </trkpt>
      <trkpt lat="46.19037" lon="-0.26568">
        <ele>49</ele>
        <time>2025-07-11T09:25:57.002000+02:00</time>
      </trkpt>
      <trkpt lat="46.19029" lon="-0.26578">
        <ele>49</ele>
        <time>2025-07-11T09:25:59+02:00</time>
      </trkpt>
      <trkpt lat="46.19025" lon="-0.26583">
        <ele>49</ele>
        <time>2025-07-11T09:26:00.002000+02:00</time>
      </trkpt>
      <trkpt lat="46.19018" lon="-0.26592">
        <ele>49</ele>
        <time>2025-07-11T09:26:02.001000+02:00</time>
      </trkpt>
      <trkpt lat="46.19014" lon="-0.26597">
        <ele>49</ele>
        <time>2025-07-11T09:26:03.001000+02:00</time>
      </trkpt>
      <trkpt lat="46.19006" lon="-0.26607">
        <ele>49</ele>
        <time>2025-07-11T09:26:05+02:00</time>
      </trkpt>
      <trkpt lat="46.19002" lon="-0.26612">
        <ele>49</ele>
        <time>2025-07-11T09:26:06+02:00</time>
      </trkpt>
      <trkpt lat="46.18998" lon="-0.26616">
        <ele>49</ele>
        <time>2025-07-11T09:26:07.001000+02:00</time>
      </trkpt>
      <trkpt lat="46.18991" lon="-0.26624">
        <ele>49</ele>
        <time>2025-07-11T09:26:09.003000+02:00</time>
      </trkpt>
      <trkpt lat="46.18987" lon="-0.26623">
        <ele>49</ele>
        <time>2025-07-11T09:26:11.002000+02:00</time>
      </trkpt>
      <trkpt lat="46.19002" lon="-0.26614">
        <ele>49</ele>
        <time>2025-07-11T09:26:12.003000+02:00</time>
      </trkpt>
      <trkpt lat="46.18982" lon="-0.26627">
        <ele>49</ele>
        <time>2025-07-11T09:26:14.002000+02:00</time>
      </trkpt>
      <trkpt lat="46.18977" lon="-0.26634">
        <ele>49</ele>
        <time>2025-07-11T09:26:15.003000+02:00</time>
      </trkpt>
      <trkpt lat="46.18972" lon="-0.26639">
        <ele>49</ele>
        <time>2025-07-11T09:26:16.003000+02:00</time>
      </trkpt>
      <trkpt lat="46.18968" lon="-0.26645">
        <ele>49</ele>
        <time>2025-07-11T09:26:17.003000+02:00</time>
      </trkpt>
      <trkpt lat="46.18965" lon="-0.2665">
        <ele>49</ele>
        <time>2025-07-11T09:26:18.003000+02:00</time>
      </trkpt>
      <trkpt lat="46.18959" lon="-0.26663">
        <ele>49</ele>
        <time>2025-07-11T09:26:20.002000+02:00</time>
      </trkpt>
      <trkpt lat="46.18955" lon="-0.26669">
        <ele>49</ele>
        <time>2025-07-11T09:26:21.004000+02:00</time>
      </trkpt>
      <trkpt lat="46.1895" lon="-0.26682">
        <ele>49</ele>
        <time>2025-07-11T09:26:23.003000+02:00</time>
      </trkpt>
      <trkpt lat="46.18943" lon="-0.26697">
        <ele>49</ele>
        <time>2025-07-11T09:26:25.002000+02:00</time>
      </trkpt>
      <trkpt lat="46.18938" lon="-0.26708">
        <ele>49</ele>
        <time>2025-07-11T09:26:27.001000+02:00</time>
      </trkpt>
      <trkpt lat="46.18935" lon="-0.26714">
        <ele>49</ele>
        <time>2025-07-11T09:26:28.002000+02:00</time>
      </trkpt>
      <trkpt lat="46.18931" lon="-0.26726">
        <ele>49</ele>
        <time>2025-07-11T09:26:30.001000+02:00</time>
      </trkpt>
      <trkpt lat="46.18928" lon="-0.26733">
        <ele>49</ele>
        <time>2025-07-11T09:26:31.001000+02:00</time>
      </trkpt>
      <trkpt lat="46.18926" lon="-0.26739">
        <ele>49</ele>
        <time>2025-07-11T09:26:32.003000+02:00</time>
      </trkpt>
      <trkpt lat="46.18921" lon="-0.2675">
        <ele>49</ele>
        <time>2025-07-11T09:26:34+02:00</time>
      </trkpt>
      <trkpt lat="46.18918" lon="-0.26755">
        <ele>49</ele>
        <time>2025-07-11T09:26:35.001000+02:00</time>
      </trkpt>
      <trkpt lat="46.18915" lon="-0.2676">
        <ele>49</ele>
        <time>2025-07-11T09:26:36.001000+02:00</time>
      </trkpt>
      <trkpt lat="46.18912" lon="-0.26765">
        <ele>49</ele>
        <time>2025-07-11T09:26:37.001000+02:00</time>
      </trkpt>
      <trkpt lat="46.1891" lon="-0.2677">
        <ele>49</ele>
        <time>2025-07-11T09:26:38.002000+02:00</time>
      </trkpt>
      <trkpt lat="46.18905" lon="-0.2678">
        <ele>49</ele>
        <time>2025-07-11T09:26:40.001000+02:00</time>
      </trkpt>
      <trkpt lat="46.18903" lon="-0.26785">
        <ele>49</ele>
        <time>2025-07-11T09:26:41.001000+02:00</time>
      </trkpt>
      <trkpt lat="46.189" lon="-0.2679">
        <ele>49</ele>
        <time>2025-07-11T09:26:42.001000+02:00</time>
      </trkpt>
      <trkpt lat="46.18896" lon="-0.26803">
        <ele>49</ele>
        <time>2025-07-11T09:26:44.001000+02:00</time>
      </trkpt>
      <trkpt lat="46.18893" lon="-0.26809">
        <ele>49</ele>
        <time>2025-07-11T09:26:45.001000+02:00</time>
      </trkpt>
      <trkpt lat="46.18892" lon="-0.26815">
        <ele>49</ele>
        <time>2025-07-11T09:26:46.001000+02:00</time>
      </trkpt>
      <trkpt lat="46.1889" lon="-0.26822">
        <ele>49</ele>
        <time>2025-07-11T09:26:47.001000+02:00</time>
      </trkpt>
      <trkpt lat="46.18888" lon="-0.26827">
        <ele>49</ele>
        <time>2025-07-11T09:26:48.001000+02:00</time>
      </trkpt>
      <trkpt lat="46.18886" lon="-0.26834">
        <ele>49</ele>
        <time>2025-07-11T09:26:49.002000+02:00</time>
      </trkpt>
      <trkpt lat="46.18884" lon="-0.26847">
        <ele>49</ele>
        <time>2025-07-11T09:26:51.003000+02:00</time>
      </trkpt>
      <trkpt lat="46.18882" lon="-0.26854">
        <ele>49</ele>
        <time>2025-07-11T09:26:52.003000+02:00</time>
      </trkpt>
      <trkpt lat="46.1888" lon="-0.26867">
        <ele>49</ele>
        <time>2025-07-11T09:26:54.003000+02:00</time>
      </trkpt>
      <trkpt lat="46.18878" lon="-0.2688">
        <ele>49</ele>
        <time>2025-07-11T09:26:56.001000+02:00</time>
      </trkpt>
      <trkpt lat="46.18876" lon="-0.26886">
        <ele>49</ele>
        <time>2025-07-11T09:26:57.001000+02:00</time>
      </trkpt>
      <trkpt lat="46.18874" lon="-0.26892">
        <ele>49</ele>
        <time>2025-07-11T09:26:58.001000+02:00</time>
      </trkpt>
      <trkpt lat="46.18871" lon="-0.26904">
        <ele>49.2</ele>
        <time>2025-07-11T09:27:00.001000+02:00</time>
      </trkpt>
      <trkpt lat="46.18869" lon="-0.2691">
        <ele>49.3</ele>
        <time>2025-07-11T09:27:01.001000+02:00</time>
      </trkpt>
      <trkpt lat="46.18868" lon="-0.26916">
        <ele>49.5</ele>
        <time>2025-07-11T09:27:02.001000+02:00</time>
      </trkpt>
      <trkpt lat="46.18866" lon="-0.26923">
        <ele>49.5</ele>
        <time>2025-07-11T09:27:03.002000+02:00</time>
      </trkpt>
      <trkpt lat="46.18864" lon="-0.26929">
        <ele>49.4</ele>
        <time>2025-07-11T09:27:04.002000+02:00</time>
      </trkpt>
      <trkpt lat="46.1886" lon="-0.2694">
        <ele>49.2</ele>
        <time>2025-07-11T09:27:06.001000+02:00</time>
      </trkpt>
      <trkpt lat="46.18859" lon="-0.26946">
        <ele>49</ele>
        <time>2025-07-11T09:27:07.001000+02:00</time>
      </trkpt>
      <trkpt lat="46.18857" lon="-0.26952">
        <ele>49</ele>
        <time>2025-07-11T09:27:08.002000+02:00</time>
      </trkpt>
      <trkpt lat="46.18855" lon="-0.26958">
        <ele>49</ele>
        <time>2025-07-11T09:27:09.003000+02:00</time>
      </trkpt>
      <trkpt lat="46.18852" lon="-0.26963">
        <ele>49</ele>
        <time>2025-07-11T09:27:10.003000+02:00</time>
      </trkpt>
      <trkpt lat="46.18849" lon="-0.26975">
        <ele>49</ele>
        <time>2025-07-11T09:27:12.004000+02:00</time>
      </trkpt>
      <trkpt lat="46.18848" lon="-0.26987">
        <ele>49</ele>
        <time>2025-07-11T09:27:14.001000+02:00</time>
      </trkpt>
      <trkpt lat="46.18847" lon="-0.26994">
        <ele>49</ele>
        <time>2025-07-11T09:27:15.001000+02:00</time>
      </trkpt>
      <trkpt lat="46.18846" lon="-0.27">
        <ele>49</ele>
        <time>2025-07-11T09:27:16.001000+02:00</time>
      </trkpt>
      <trkpt lat="46.18844" lon="-0.27006">
        <ele>49</ele>
        <time>2025-07-11T09:27:17.001000+02:00</time>
      </trkpt>
      <trkpt lat="46.18842" lon="-0.27012">
        <ele>49</ele>
        <time>2025-07-11T09:27:18.001000+02:00</time>
      </trkpt>
      <trkpt lat="46.18838" lon="-0.27023">
        <ele>49</ele>
        <time>2025-07-11T09:27:20.001000+02:00</time>
      </trkpt>
      <trkpt lat="46.18836" lon="-0.27029">
        <ele>49</ele>
        <time>2025-07-11T09:27:21.002000+02:00</time>
      </trkpt>
      <trkpt lat="46.18832" lon="-0.27041">
        <ele>49</ele>
        <time>2025-07-11T09:27:23.003000+02:00</time>
      </trkpt>
      <trkpt lat="46.18827" lon="-0.27053">
        <ele>49</ele>
        <time>2025-07-11T09:27:25.003000+02:00</time>
      </trkpt>
      <trkpt lat="46.18824" lon="-0.27058">
        <ele>49</ele>
        <time>2025-07-11T09:27:26.003000+02:00</time>
      </trkpt>
      <trkpt lat="46.18821" lon="-0.27062">
        <ele>48.9</ele>
        <time>2025-07-11T09:27:27.004000+02:00</time>
      </trkpt>
      <trkpt lat="46.18815" lon="-0.27072">
        <ele>48.8</ele>
        <time>2025-07-11T09:27:29.003000+02:00</time>
      </trkpt>
      <trkpt lat="46.18807" lon="-0.27081">
        <ele>48.9</ele>
        <time>2025-07-11T09:27:31.001000+02:00</time>
      </trkpt>
      <trkpt lat="46.18799" lon="-0.27091">
        <ele>49</ele>
        <time>2025-07-11T09:27:33.001000+02:00</time>
      </trkpt>
      <trkpt lat="46.18796" lon="-0.27096">
        <ele>49</ele>
        <time>2025-07-11T09:27:34.001000+02:00</time>
      </trkpt>
      <trkpt lat="46.18792" lon="-0.271">
        <ele>49</ele>
        <time>2025-07-11T09:27:35.001000+02:00</time>
      </trkpt>
      <trkpt lat="46.18789" lon="-0.27104">
        <ele>49</ele>
        <time>2025-07-11T09:27:36.001000+02:00</time>
      </trkpt>
      <trkpt lat="46.18785" lon="-0.27109">
        <ele>49</ele>
        <time>2025-07-11T09:27:37.001000+02:00</time>
      </trkpt>
      <trkpt lat="46.18781" lon="-0.27112">
        <ele>49</ele>
        <time>2025-07-11T09:27:38.001000+02:00</time>
      </trkpt>
      <trkpt lat="46.18777" lon="-0.27116">
        <ele>49</ele>
        <time>2025-07-11T09:27:39.001000+02:00</time>
      </trkpt>
      <trkpt lat="46.18774" lon="-0.2712">
        <ele>49</ele>
        <time>2025-07-11T09:27:40.001000+02:00</time>
      </trkpt>
      <trkpt lat="46.1877" lon="-0.27122">
        <ele>49</ele>
        <time>2025-07-11T09:27:41.001000+02:00</time>
      </trkpt>
      <trkpt lat="46.18766" lon="-0.27125">
        <ele>49</ele>
        <time>2025-07-11T09:27:42.001000+02:00</time>
      </trkpt>
      <trkpt lat="46.18758" lon="-0.27127">
        <ele>49</ele>
        <time>2025-07-11T09:27:44.002000+02:00</time>
      </trkpt>
      <trkpt lat="46.18751" lon="-0.27129">
        <ele>49</ele>
        <time>2025-07-11T09:27:46.001000+02:00</time>
      </trkpt>
      <trkpt lat="46.18747" lon="-0.27129">
        <ele>49</ele>
        <time>2025-07-11T09:27:48.001000+02:00</time>
      </trkpt>
      <trkpt lat="46.18745" lon="-0.27129">
        <ele>49</ele>
        <time>2025-07-11T09:27:49.002000+02:00</time>
      </trkpt>
      <trkpt lat="46.18744" lon="-0.27127">
        <ele>49</ele>
        <time>2025-07-11T09:27:50.003000+02:00</time>
      </trkpt>
      <trkpt lat="46.18743" lon="-0.27126">
        <ele>49</ele>
        <time>2025-07-11T09:27:51.006000+02:00</time>
      </trkpt>
      <trkpt lat="46.18738" lon="-0.27124">
        <ele>49</ele>
        <time>2025-07-11T09:27:53.004000+02:00</time>
      </trkpt>
      <trkpt lat="46.1873" lon="-0.27124">
        <ele>49</ele>
        <time>2025-07-11T09:27:55.003000+02:00</time>
      </trkpt>
      <trkpt lat="46.18726" lon="-0.27125">
        <ele>49</ele>
        <time>2025-07-11T09:27:56.003000+02:00</time>
      </trkpt>
      <trkpt lat="46.18722" lon="-0.27127">
        <ele>49</ele>
        <time>2025-07-11T09:27:57.004000+02:00</time>
      </trkpt>
      <trkpt lat="46.18715" lon="-0.27133">
        <ele>49</ele>
        <time>2025-07-11T09:27:59.003000+02:00</time>
      </trkpt>
      <trkpt lat="46.18707" lon="-0.27139">
        <ele>49</ele>
        <time>2025-07-11T09:28:01.001000+02:00</time>
      </trkpt>
      <trkpt lat="46.18699" lon="-0.27144">
        <ele>49</ele>
        <time>2025-07-11T09:28:03+02:00</time>
      </trkpt>
      <trkpt lat="46.18696" lon="-0.27147">
        <ele>49</ele>
        <time>2025-07-11T09:28:04.001000+02:00</time>
      </trkpt>
      <trkpt lat="46.18692" lon="-0.2715">
        <ele>48.9</ele>
        <time>2025-07-11T09:28:05.001000+02:00</time>
      </trkpt>
      <trkpt lat="46.18683" lon="-0.27157">
        <ele>48.9</ele>
        <time>2025-07-11T09:28:07.001000+02:00</time>
      </trkpt>
      <trkpt lat="46.1868" lon="-0.2716">
        <ele>48.9</ele>
        <time>2025-07-11T09:28:08.002000+02:00</time>
      </trkpt>
      <trkpt lat="46.18676" lon="-0.27164">
        <ele>48.9</ele>
        <time>2025-07-11T09:28:09.003000+02:00</time>
      </trkpt>
      <trkpt lat="46.18668" lon="-0.27171">
        <ele>48.9</ele>
        <time>2025-07-11T09:28:11+02:00</time>
      </trkpt>
      <trkpt lat="46.18665" lon="-0.27174">
        <ele>48.7</ele>
        <time>2025-07-11T09:28:12.001000+02:00</time>
      </trkpt>
      <trkpt lat="46.18661" lon="-0.27177">
        <ele>48.6</ele>
        <time>2025-07-11T09:28:13.001000+02:00</time>
      </trkpt>
      <trkpt lat="46.18657" lon="-0.2718">
        <ele>48.5</ele>
        <time>2025-07-11T09:28:14.003000+02:00</time>
      </trkpt>
      <trkpt lat="46.18649" lon="-0.27186">
        <ele>48.3</ele>
        <time>2025-07-11T09:28:16.001000+02:00</time>
      </trkpt>
      <trkpt lat="46.18644" lon="-0.27189">
        <ele>48.2</ele>
        <time>2025-07-11T09:28:17.001000+02:00</time>
      </trkpt>
      <trkpt lat="46.1864" lon="-0.27192">
        <ele>48.1</ele>
        <time>2025-07-11T09:28:18.001000+02:00</time>
      </trkpt>
      <trkpt lat="46.18636" lon="-0.27196">
        <ele>48.1</ele>
        <time>2025-07-11T09:28:19.002000+02:00</time>
      </trkpt>
      <trkpt lat="46.18632" lon="-0.272">
        <ele>48.3</ele>
        <time>2025-07-11T09:28:20.002000+02:00</time>
      </trkpt>
      <trkpt lat="46.18628" lon="-0.27204">
        <ele>48.4</ele>
        <time>2025-07-11T09:28:21.002000+02:00</time>
      </trkpt>
      <trkpt lat="46.1862" lon="-0.27211">
        <ele>48.7</ele>
        <time>2025-07-11T09:28:23.004000+02:00</time>
      </trkpt>
      <trkpt lat="46.18612" lon="-0.27219">
        <ele>49</ele>
        <time>2025-07-11T09:28:25.003000+02:00</time>
      </trkpt>
      <trkpt lat="46.18609" lon="-0.27223">
        <ele>49</ele>
        <time>2025-07-11T09:28:26.003000+02:00</time>
      </trkpt>
      <trkpt lat="46.18605" lon="-0.27226">
        <ele>48.9</ele>
        <time>2025-07-11T09:28:27.003000+02:00</time>
      </trkpt>
      <trkpt lat="46.18596" lon="-0.27233">
        <ele>48.6</ele>
        <time>2025-07-11T09:28:29.002000+02:00</time>
      </trkpt>
      <trkpt lat="46.18588" lon="-0.27241">
        <ele>48.3</ele>
        <time>2025-07-11T09:28:31.001000+02:00</time>
      </trkpt>
      <trkpt lat="46.1858" lon="-0.27248">
        <ele>48.1</ele>
        <time>2025-07-11T09:28:33.001000+02:00</time>
      </trkpt>
      <trkpt lat="46.18576" lon="-0.27252">
        <ele>48</ele>
        <time>2025-07-11T09:28:34.001000+02:00</time>
      </trkpt>
      <trkpt lat="46.18569" lon="-0.27259">
        <ele>48</ele>
        <time>2025-07-11T09:28:36.001000+02:00</time>
      </trkpt>
      <trkpt lat="46.18565" lon="-0.27263">
        <ele>48</ele>
        <time>2025-07-11T09:28:37.001000+02:00</time>
      </trkpt>
      <trkpt lat="46.18557" lon="-0.2727">
        <ele>48</ele>
        <time>2025-07-11T09:28:39.002000+02:00</time>
      </trkpt>
      <trkpt lat="46.18549" lon="-0.27278">
        <ele>48</ele>
        <time>2025-07-11T09:28:41.001000+02:00</time>
      </trkpt>
      <trkpt lat="46.18546" lon="-0.27283">
        <ele>48</ele>
        <time>2025-07-11T09:28:42.001000+02:00</time>
      </trkpt>
      <trkpt lat="46.18542" lon="-0.27288">
        <ele>48</ele>
        <time>2025-07-11T09:28:43.001000+02:00</time>
      </trkpt>
      <trkpt lat="46.18539" lon="-0.27292">
        <ele>48</ele>
        <time>2025-07-11T09:28:44.003000+02:00</time>
      </trkpt>
      <trkpt lat="46.18531" lon="-0.273">
        <ele>48</ele>
        <time>2025-07-11T09:28:46+02:00</time>
      </trkpt>
      <trkpt lat="46.18528" lon="-0.27305">
        <ele>48</ele>
        <time>2025-07-11T09:28:47.001000+02:00</time>
      </trkpt>
      <trkpt lat="46.18524" lon="-0.2731">
        <ele>48</ele>
        <time>2025-07-11T09:28:48.002000+02:00</time>
      </trkpt>
      <trkpt lat="46.18521" lon="-0.27314">
        <ele>48</ele>
        <time>2025-07-11T09:28:49.002000+02:00</time>
      </trkpt>
      <trkpt lat="46.18518" lon="-0.27319">
        <ele>48</ele>
        <time>2025-07-11T09:28:50.002000+02:00</time>
      </trkpt>
      <trkpt lat="46.18514" lon="-0.27323">
        <ele>48</ele>
        <time>2025-07-11T09:28:51.002000+02:00</time>
      </trkpt>
      <trkpt lat="46.18511" lon="-0.27328">
        <ele>48</ele>
        <time>2025-07-11T09:28:52.004000+02:00</time>
      </trkpt>
      <trkpt lat="46.18504" lon="-0.27336">
        <ele>48</ele>
        <time>2025-07-11T09:28:54.003000+02:00</time>
      </trkpt>
      <trkpt lat="46.18497" lon="-0.27345">
        <ele>48</ele>
        <time>2025-07-11T09:28:56.004000+02:00</time>
      </trkpt>
      <trkpt lat="46.18491" lon="-0.27354">
        <ele>48</ele>
        <time>2025-07-11T09:28:58.002000+02:00</time>
      </trkpt>
      <trkpt lat="46.18487" lon="-0.27358">
        <ele>48</ele>
        <time>2025-07-11T09:28:59.003000+02:00</time>
      </trkpt>
      <trkpt lat="46.1848" lon="-0.27367">
        <ele>48</ele>
        <time>2025-07-11T09:29:01.002000+02:00</time>
      </trkpt>
      <trkpt lat="46.18473" lon="-0.27376">
        <ele>48</ele>
        <time>2025-07-11T09:29:03+02:00</time>
      </trkpt>
      <trkpt lat="46.1847" lon="-0.2738">
        <ele>48</ele>
        <time>2025-07-11T09:29:04.002000+02:00</time>
      </trkpt>
      <trkpt lat="46.18462" lon="-0.27388">
        <ele>48</ele>
        <time>2025-07-11T09:29:06.001000+02:00</time>
      </trkpt>
      <trkpt lat="46.18454" lon="-0.2739">
        <ele>48</ele>
        <time>2025-07-11T09:29:08.001000+02:00</time>
      </trkpt>
      <trkpt lat="46.18451" lon="-0.27387">
        <ele>48</ele>
        <time>2025-07-11T09:29:09.002000+02:00</time>
      </trkpt>
      <trkpt lat="46.18447" lon="-0.27376">
        <ele>48</ele>
        <time>2025-07-11T09:29:10.999000+02:00</time>
      </trkpt>
      <trkpt lat="46.18445" lon="-0.2737">
        <ele>48</ele>
        <time>2025-07-11T09:29:12.001000+02:00</time>
      </trkpt>
      <trkpt lat="46.18443" lon="-0.27364">
        <ele>48</ele>
        <time>2025-07-11T09:29:13.001000+02:00</time>
      </trkpt>
      <trkpt lat="46.18442" lon="-0.27358">
        <ele>48</ele>
        <time>2025-07-11T09:29:14.001000+02:00</time>
      </trkpt>
      <trkpt lat="46.1844" lon="-0.27352">
        <ele>48</ele>
        <time>2025-07-11T09:29:15.001000+02:00</time>
      </trkpt>
      <trkpt lat="46.18439" lon="-0.27346">
        <ele>48</ele>
        <time>2025-07-11T09:29:16.093000+02:00</time>
      </trkpt>
      <trkpt lat="46.18434" lon="-0.27335">
        <ele>48</ele>
        <time>2025-07-11T09:29:18.001000+02:00</time>
      </trkpt>
      <trkpt lat="46.18432" lon="-0.27329">
        <ele>48</ele>
        <time>2025-07-11T09:29:19.001000+02:00</time>
      </trkpt>
      <trkpt lat="46.18429" lon="-0.27323">
        <ele>48</ele>
        <time>2025-07-11T09:29:20.003000+02:00</time>
      </trkpt>
      <trkpt lat="46.18427" lon="-0.27318">
        <ele>48</ele>
        <time>2025-07-11T09:29:21.004000+02:00</time>
      </trkpt>
      <trkpt lat="46.18424" lon="-0.27307">
        <ele>48</ele>
        <time>2025-07-11T09:29:23.003000+02:00</time>
      </trkpt>
      <trkpt lat="46.18423" lon="-0.27302">
        <ele>48</ele>
        <time>2025-07-11T09:29:24.003000+02:00</time>
      </trkpt>
      <trkpt lat="46.18419" lon="-0.27291">
        <ele>48</ele>
        <time>2025-07-11T09:29:26+02:00</time>
      </trkpt>
      <trkpt lat="46.18417" lon="-0.27285">
        <ele>48</ele>
        <time>2025-07-11T09:29:27.002000+02:00</time>
      </trkpt>
      <trkpt lat="46.18413" lon="-0.27275">
        <ele>48</ele>
        <time>2025-07-11T09:29:29+02:00</time>
      </trkpt>
      <trkpt lat="46.18411" lon="-0.27269">
        <ele>48</ele>
        <time>2025-07-11T09:29:30+02:00</time>
      </trkpt>
      <trkpt lat="46.18409" lon="-0.27264">
        <ele>48</ele>
        <time>2025-07-11T09:29:31+02:00</time>
      </trkpt>
      <trkpt lat="46.18407" lon="-0.27259">
        <ele>48</ele>
        <time>2025-07-11T09:29:32+02:00</time>
      </trkpt>
      <trkpt lat="46.18406" lon="-0.27254">
        <ele>48</ele>
        <time>2025-07-11T09:29:33.001000+02:00</time>
      </trkpt>
      <trkpt lat="46.18402" lon="-0.27244">
        <ele>48</ele>
        <time>2025-07-11T09:29:35.001000+02:00</time>
      </trkpt>
      <trkpt lat="46.184" lon="-0.27239">
        <ele>48</ele>
        <time>2025-07-11T09:29:36.001000+02:00</time>
      </trkpt>
      <trkpt lat="46.18398" lon="-0.27235">
        <ele>48</ele>
        <time>2025-07-11T09:29:37.001000+02:00</time>
      </trkpt>
      <trkpt lat="46.18397" lon="-0.27231">
        <ele>48</ele>
        <time>2025-07-11T09:29:38.002000+02:00</time>
      </trkpt>
      <trkpt lat="46.18396" lon="-0.27224">
        <ele>48</ele>
        <time>2025-07-11T09:29:40.001000+02:00</time>
      </trkpt>
      <trkpt lat="46.18396" lon="-0.27222">
        <ele>48</ele>
        <time>2025-07-11T09:29:41.001000+02:00</time>
      </trkpt>
      <trkpt lat="46.18396" lon="-0.2722">
        <ele>48</ele>
        <time>2025-07-11T09:29:42.002000+02:00</time>
      </trkpt>
      <trkpt lat="46.18396" lon="-0.27218">
        <ele>48</ele>
        <time>2025-07-11T09:29:44.001000+02:00</time>
      </trkpt>
      <trkpt lat="46.18396" lon="-0.27218">
        <ele>48</ele>
        <time>2025-07-11T09:29:45.002000+02:00</time>
      </trkpt>
      <trkpt lat="46.18396" lon="-0.27218">
        <ele>48</ele>
        <time>2025-07-11T09:29:46.002000+02:00</time>
      </trkpt>
      <trkpt lat="46.18396" lon="-0.27218">
        <ele>48</ele>
        <time>2025-07-11T09:29:48.001000+02:00</time>
      </trkpt>
      <trkpt lat="46.18393" lon="-0.27212">
        <ele>48</ele>
        <time>2025-07-11T09:29:50.002000+02:00</time>
      </trkpt>
      <trkpt lat="46.18392" lon="-0.2721">
        <ele>48</ele>
        <time>2025-07-11T09:29:52+02:00</time>
      </trkpt>
      <trkpt lat="46.18391" lon="-0.27209">
        <ele>48</ele>
        <time>2025-07-11T09:29:53.001000+02:00</time>
      </trkpt>
      <trkpt lat="46.1839" lon="-0.27209">
        <ele>48</ele>
        <time>2025-07-11T09:29:54.002000+02:00</time>
      </trkpt>
      <trkpt lat="46.1839" lon="-0.27208">
        <ele>48</ele>
        <time>2025-07-11T09:29:55.002000+02:00</time>
      </trkpt>
      <trkpt lat="46.18389" lon="-0.27207">
        <ele>48</ele>
        <time>2025-07-11T09:29:57.002000+02:00</time>
      </trkpt>
      <trkpt lat="46.18389" lon="-0.27207">
        <ele>48</ele>
        <time>2025-07-11T09:29:59.001000+02:00</time>
      </trkpt>
      <trkpt lat="46.18389" lon="-0.27207">
        <ele>48</ele>
        <time>2025-07-11T09:30:00.001000+02:00</time>
      </trkpt>
      <trkpt lat="46.18389" lon="-0.27207">
        <ele>48</ele>
        <time>2025-07-11T09:30:01.002000+02:00</time>
      </trkpt>
      <trkpt lat="46.18383" lon="-0.27207">
        <ele>48</ele>
        <time>2025-07-11T09:30:07.003000+02:00</time>
      </trkpt>
      <trkpt lat="46.18377" lon="-0.27208">
        <ele>48</ele>
        <time>2025-07-11T09:30:09.002000+02:00</time>
      </trkpt>
      <trkpt lat="46.18372" lon="-0.27209">
        <ele>48</ele>
        <time>2025-07-11T09:30:11.003000+02:00</time>
      </trkpt>
      <trkpt lat="46.18367" lon="-0.27212">
        <ele>48</ele>
        <time>2025-07-11T09:30:13.001000+02:00</time>
      </trkpt>
      <trkpt lat="46.18365" lon="-0.27213">
        <ele>48</ele>
        <time>2025-07-11T09:30:14.001000+02:00</time>
      </trkpt>
      <trkpt lat="46.18362" lon="-0.27214">
        <ele>48</ele>
        <time>2025-07-11T09:30:15.002000+02:00</time>
      </trkpt>
      <trkpt lat="46.18355" lon="-0.27216">
        <ele>48</ele>
        <time>2025-07-11T09:30:17+02:00</time>
      </trkpt>
      <trkpt lat="46.18352" lon="-0.27217">
        <ele>48</ele>
        <time>2025-07-11T09:30:18.002000+02:00</time>
      </trkpt>
      <trkpt lat="46.18344" lon="-0.27219">
        <ele>48</ele>
        <time>2025-07-11T09:30:20.001000+02:00</time>
      </trkpt>
      <trkpt lat="46.18341" lon="-0.2722">
        <ele>48</ele>
        <time>2025-07-11T09:30:21.002000+02:00</time>
      </trkpt>
      <trkpt lat="46.18333" lon="-0.27222">
        <ele>48</ele>
        <time>2025-07-11T09:30:23+02:00</time>
      </trkpt>
      <trkpt lat="46.18329" lon="-0.27223">
        <ele>48</ele>
        <time>2025-07-11T09:30:24.001000+02:00</time>
      </trkpt>
      <trkpt lat="46.18323" lon="-0.27225">
        <ele>48</ele>
        <time>2025-07-11T09:30:26.002000+02:00</time>
      </trkpt>
      <trkpt lat="46.18319" lon="-0.27226">
        <ele>48</ele>
        <time>2025-07-11T09:30:27.002000+02:00</time>
      </trkpt>
      <trkpt lat="46.1831" lon="-0.27227">
        <ele>48</ele>
        <time>2025-07-11T09:30:29.002000+02:00</time>
      </trkpt>
      <trkpt lat="46.18306" lon="-0.27227">
        <ele>48</ele>
        <time>2025-07-11T09:30:30.003000+02:00</time>
      </trkpt>
      <trkpt lat="46.18298" lon="-0.27228">
        <ele>48</ele>
        <time>2025-07-11T09:30:32.002000+02:00</time>
      </trkpt>
      <trkpt lat="46.18294" lon="-0.27229">
        <ele>48</ele>
        <time>2025-07-11T09:30:33.003000+02:00</time>
      </trkpt>
      <trkpt lat="46.1829" lon="-0.27229">
        <ele>48</ele>
        <time>2025-07-11T09:30:34.003000+02:00</time>
      </trkpt>
      <trkpt lat="46.18286" lon="-0.27228">
        <ele>48</ele>
        <time>2025-07-11T09:30:35.003000+02:00</time>
      </trkpt>
      <trkpt lat="46.18278" lon="-0.27221">
        <ele>48</ele>
        <time>2025-07-11T09:30:37.001000+02:00</time>
      </trkpt>
      <trkpt lat="46.18275" lon="-0.27217">
        <ele>48</ele>
        <time>2025-07-11T09:30:38.001000+02:00</time>
      </trkpt>
      <trkpt lat="46.18273" lon="-0.27212">
        <ele>48</ele>
        <time>2025-07-11T09:30:39.003000+02:00</time>
      </trkpt>
      <trkpt lat="46.18268" lon="-0.27202">
        <ele>48</ele>
        <time>2025-07-11T09:30:41.002000+02:00</time>
      </trkpt>
      <trkpt lat="46.18265" lon="-0.27197">
        <ele>48</ele>
        <time>2025-07-11T09:30:42.002000+02:00</time>
      </trkpt>
      <trkpt lat="46.18262" lon="-0.27191">
        <ele>48</ele>
        <time>2025-07-11T09:30:43.002000+02:00</time>
      </trkpt>
      <trkpt lat="46.18258" lon="-0.27181">
        <ele>48</ele>
        <time>2025-07-11T09:30:45.001000+02:00</time>
      </trkpt>
      <trkpt lat="46.18255" lon="-0.27176">
        <ele>48</ele>
        <time>2025-07-11T09:30:46.001000+02:00</time>
      </trkpt>
      <trkpt lat="46.18253" lon="-0.27171">
        <ele>48</ele>
        <time>2025-07-11T09:30:47.001000+02:00</time>
      </trkpt>
      <trkpt lat="46.18249" lon="-0.27161">
        <ele>48</ele>
        <time>2025-07-11T09:30:49.001000+02:00</time>
      </trkpt>
      <trkpt lat="46.18246" lon="-0.27156">
        <ele>48</ele>
        <time>2025-07-11T09:30:50.002000+02:00</time>
      </trkpt>
      <trkpt lat="46.18241" lon="-0.27146">
        <ele>48</ele>
        <time>2025-07-11T09:30:52.001000+02:00</time>
      </trkpt>
      <trkpt lat="46.18236" lon="-0.27137">
        <ele>48</ele>
        <time>2025-07-11T09:30:54.001000+02:00</time>
      </trkpt>
      <trkpt lat="46.1823" lon="-0.2713">
        <ele>48</ele>
        <time>2025-07-11T09:30:56+02:00</time>
      </trkpt>
      <trkpt lat="46.18224" lon="-0.27128">
        <ele>48</ele>
        <time>2025-07-11T09:30:57+02:00</time>
      </trkpt>
      <trkpt lat="46.18221" lon="-0.27123">
        <ele>48</ele>
        <time>2025-07-11T09:30:58.001000+02:00</time>
      </trkpt>
      <trkpt lat="46.18217" lon="-0.27115">
        <ele>48</ele>
        <time>2025-07-11T09:31:00.002000+02:00</time>
      </trkpt>
      <trkpt lat="46.18214" lon="-0.27112">
        <ele>48</ele>
        <time>2025-07-11T09:31:01.003000+02:00</time>
      </trkpt>
      <trkpt lat="46.18211" lon="-0.27108">
        <ele>48</ele>
        <time>2025-07-11T09:31:02.008000+02:00</time>
      </trkpt>
      <trkpt lat="46.18205" lon="-0.27101">
        <ele>48</ele>
        <time>2025-07-11T09:31:04+02:00</time>
      </trkpt>
      <trkpt lat="46.18203" lon="-0.27097">
        <ele>48</ele>
        <time>2025-07-11T09:31:05.001000+02:00</time>
      </trkpt>
      <trkpt lat="46.18206" lon="-0.27089">
        <ele>48</ele>
        <time>2025-07-11T09:31:07.002000+02:00</time>
      </trkpt>
      <trkpt lat="46.18212" lon="-0.27085">
        <ele>48</ele>
        <time>2025-07-11T09:31:08.002000+02:00</time>
      </trkpt>
      <trkpt lat="46.18215" lon="-0.2708">
        <ele>48</ele>
        <time>2025-07-11T09:31:09.003000+02:00</time>
      </trkpt>
      <trkpt lat="46.18216" lon="-0.27074">
        <ele>48</ele>
        <time>2025-07-11T09:31:10.003000+02:00</time>
      </trkpt>
      <trkpt lat="46.18218" lon="-0.2707">
        <ele>48</ele>
        <time>2025-07-11T09:31:11.004000+02:00</time>
      </trkpt>
      <trkpt lat="46.18222" lon="-0.2706">
        <ele>48</ele>
        <time>2025-07-11T09:31:13+02:00</time>
      </trkpt>
      <trkpt lat="46.18224" lon="-0.27055">
        <ele>48</ele>
        <time>2025-07-11T09:31:14+02:00</time>
      </trkpt>
      <trkpt lat="46.18226" lon="-0.27049">
        <ele>48</ele>
        <time>2025-07-11T09:31:15.002000+02:00</time>
      </trkpt>
      <trkpt lat="46.1823" lon="-0.27039">
        <ele>48</ele>
        <time>2025-07-11T09:31:17.001000+02:00</time>
      </trkpt>
      <trkpt lat="46.18233" lon="-0.27033">
        <ele>48</ele>
        <time>2025-07-11T09:31:18.001000+02:00</time>
      </trkpt>
      <trkpt lat="46.18236" lon="-0.27028">
        <ele>48</ele>
        <time>2025-07-11T09:31:19.001000+02:00</time>
      </trkpt>
      <trkpt lat="46.18241" lon="-0.27019">
        <ele>48</ele>
        <time>2025-07-11T09:31:21+02:00</time>
      </trkpt>
      <trkpt lat="46.18243" lon="-0.27014">
        <ele>48</ele>
        <time>2025-07-11T09:31:22.001000+02:00</time>
      </trkpt>
      <trkpt lat="46.18247" lon="-0.27004">
        <ele>48</ele>
        <time>2025-07-11T09:31:24.002000+02:00</time>
      </trkpt>
      <trkpt lat="46.18252" lon="-0.26995">
        <ele>48</ele>
        <time>2025-07-11T09:31:26.001000+02:00</time>
      </trkpt>
      <trkpt lat="46.18254" lon="-0.2699">
        <ele>48.1</ele>
        <time>2025-07-11T09:31:27.002000+02:00</time>
      </trkpt>
      <trkpt lat="46.18259" lon="-0.2698">
        <ele>48.2</ele>
        <time>2025-07-11T09:31:29.002000+02:00</time>
      </trkpt>
      <trkpt lat="46.18261" lon="-0.26976">
        <ele>48.4</ele>
        <time>2025-07-11T09:31:30.003000+02:00</time>
      </trkpt>
      <trkpt lat="46.18264" lon="-0.26971">
        <ele>48.5</ele>
        <time>2025-07-11T09:31:31.004000+02:00</time>
      </trkpt>
      <trkpt lat="46.18269" lon="-0.26962">
        <ele>48.8</ele>
        <time>2025-07-11T09:31:33.005000+02:00</time>
      </trkpt>
      <trkpt lat="46.18271" lon="-0.26957">
        <ele>48.9</ele>
        <time>2025-07-11T09:31:34.005000+02:00</time>
      </trkpt>
      <trkpt lat="46.18275" lon="-0.26948">
        <ele>49</ele>
        <time>2025-07-11T09:31:36.005000+02:00</time>
      </trkpt>
      <trkpt lat="46.18279" lon="-0.26938">
        <ele>49</ele>
        <time>2025-07-11T09:31:38.003000+02:00</time>
      </trkpt>
      <trkpt lat="46.18282" lon="-0.26933">
        <ele>49</ele>
        <time>2025-07-11T09:31:39.004000+02:00</time>
      </trkpt>
      <trkpt lat="46.18287" lon="-0.26924">
        <ele>49</ele>
        <time>2025-07-11T09:31:41.003000+02:00</time>
      </trkpt>
      <trkpt lat="46.18291" lon="-0.26914">
        <ele>49</ele>
        <time>2025-07-11T09:31:43.001000+02:00</time>
      </trkpt>
      <trkpt lat="46.18296" lon="-0.26904">
        <ele>49</ele>
        <time>2025-07-11T09:31:45.003000+02:00</time>
      </trkpt>
      <trkpt lat="46.18301" lon="-0.26894">
        <ele>49</ele>
        <time>2025-07-11T09:31:47.001000+02:00</time>
      </trkpt>
      <trkpt lat="46.18303" lon="-0.26889">
        <ele>49</ele>
        <time>2025-07-11T09:31:48.001000+02:00</time>
      </trkpt>
      <trkpt lat="46.18305" lon="-0.26885">
        <ele>49</ele>
        <time>2025-07-11T09:31:49.001000+02:00</time>
      </trkpt>
      <trkpt lat="46.18308" lon="-0.2688">
        <ele>49</ele>
        <time>2025-07-11T09:31:50.001000+02:00</time>
      </trkpt>
      <trkpt lat="46.1831" lon="-0.26875">
        <ele>49</ele>
        <time>2025-07-11T09:31:51.001000+02:00</time>
      </trkpt>
      <trkpt lat="46.18313" lon="-0.26871">
        <ele>49</ele>
        <time>2025-07-11T09:31:52.001000+02:00</time>
      </trkpt>
      <trkpt lat="46.18315" lon="-0.26866">
        <ele>49</ele>
        <time>2025-07-11T09:31:53.002000+02:00</time>
      </trkpt>
      <trkpt lat="46.1832" lon="-0.26856">
        <ele>49</ele>
        <time>2025-07-11T09:31:55.001000+02:00</time>
      </trkpt>
      <trkpt lat="46.18323" lon="-0.26851">
        <ele>49</ele>
        <time>2025-07-11T09:31:56.001000+02:00</time>
      </trkpt>
      <trkpt lat="46.18325" lon="-0.26845">
        <ele>49</ele>
        <time>2025-07-11T09:31:57.005000+02:00</time>
      </trkpt>
      <trkpt lat="46.1833" lon="-0.26834">
        <ele>49</ele>
        <time>2025-07-11T09:31:59.002000+02:00</time>
      </trkpt>
      <trkpt lat="46.18333" lon="-0.26829">
        <ele>49</ele>
        <time>2025-07-11T09:32:00.003000+02:00</time>
      </trkpt>
      <trkpt lat="46.18338" lon="-0.26819">
        <ele>49</ele>
        <time>2025-07-11T09:32:02.001000+02:00</time>
      </trkpt>
      <trkpt lat="46.1834" lon="-0.26814">
        <ele>49</ele>
        <time>2025-07-11T09:32:03.003000+02:00</time>
      </trkpt>
      <trkpt lat="46.18342" lon="-0.26809">
        <ele>49</ele>
        <time>2025-07-11T09:32:04.004000+02:00</time>
      </trkpt>
      <trkpt lat="46.18345" lon="-0.26804">
        <ele>49</ele>
        <time>2025-07-11T09:32:05.004000+02:00</time>
      </trkpt>
      <trkpt lat="46.18351" lon="-0.26794">
        <ele>49</ele>
        <time>2025-07-11T09:32:07.003000+02:00</time>
      </trkpt>
      <trkpt lat="46.18353" lon="-0.26789">
        <ele>49</ele>
        <time>2025-07-11T09:32:08.004000+02:00</time>
      </trkpt>
      <trkpt lat="46.18358" lon="-0.26779">
        <ele>49</ele>
        <time>2025-07-11T09:32:10.002000+02:00</time>
      </trkpt>
      <trkpt lat="46.18362" lon="-0.26769">
        <ele>49</ele>
        <time>2025-07-11T09:32:12.001000+02:00</time>
      </trkpt>
      <trkpt lat="46.18364" lon="-0.26764">
        <ele>49</ele>
        <time>2025-07-11T09:32:13.001000+02:00</time>
      </trkpt>
      <trkpt lat="46.18366" lon="-0.26758">
        <ele>49</ele>
        <time>2025-07-11T09:32:14.001000+02:00</time>
      </trkpt>
      <trkpt lat="46.18371" lon="-0.26748">
        <ele>49</ele>
        <time>2025-07-11T09:32:16.001000+02:00</time>
      </trkpt>
      <trkpt lat="46.18375" lon="-0.26736">
        <ele>49</ele>
        <time>2025-07-11T09:32:18.001000+02:00</time>
      </trkpt>
      <trkpt lat="46.18379" lon="-0.26725">
        <ele>49</ele>
        <time>2025-07-11T09:32:20.001000+02:00</time>
      </trkpt>
      <trkpt lat="46.18381" lon="-0.2672">
        <ele>49</ele>
        <time>2025-07-11T09:32:21.002000+02:00</time>
      </trkpt>
      <trkpt lat="46.18384" lon="-0.26709">
        <ele>49</ele>
        <time>2025-07-11T09:32:23+02:00</time>
      </trkpt>
      <trkpt lat="46.18386" lon="-0.26704">
        <ele>49</ele>
        <time>2025-07-11T09:32:24.001000+02:00</time>
      </trkpt>
      <trkpt lat="46.18389" lon="-0.26693">
        <ele>49</ele>
        <time>2025-07-11T09:32:26.002000+02:00</time>
      </trkpt>
      <trkpt lat="46.18394" lon="-0.26684">
        <ele>49</ele>
        <time>2025-07-11T09:32:28.001000+02:00</time>
      </trkpt>
      <trkpt lat="46.18397" lon="-0.2668">
        <ele>49</ele>
        <time>2025-07-11T09:32:29.001000+02:00</time>
      </trkpt>
      <trkpt lat="46.18401" lon="-0.26676">
        <ele>49</ele>
        <time>2025-07-11T09:32:30.001000+02:00</time>
      </trkpt>
      <trkpt lat="46.18404" lon="-0.26672">
        <ele>49</ele>
        <time>2025-07-11T09:32:31.001000+02:00</time>
      </trkpt>
      <trkpt lat="46.18407" lon="-0.26668">
        <ele>49</ele>
        <time>2025-07-11T09:32:32.001000+02:00</time>
      </trkpt>
      <trkpt lat="46.18411" lon="-0.26663">
        <ele>49</ele>
        <time>2025-07-11T09:32:33.001000+02:00</time>
      </trkpt>
      <trkpt lat="46.18417" lon="-0.26655">
        <ele>49</ele>
        <time>2025-07-11T09:32:35.001000+02:00</time>
      </trkpt>
      <trkpt lat="46.18419" lon="-0.2665">
        <ele>49</ele>
        <time>2025-07-11T09:32:36.001000+02:00</time>
      </trkpt>
      <trkpt lat="46.18422" lon="-0.26645">
        <ele>49</ele>
        <time>2025-07-11T09:32:37.001000+02:00</time>
      </trkpt>
      <trkpt lat="46.18424" lon="-0.26639">
        <ele>49</ele>
        <time>2025-07-11T09:32:38.001000+02:00</time>
      </trkpt>
      <trkpt lat="46.18425" lon="-0.26633">
        <ele>49</ele>
        <time>2025-07-11T09:32:39.003000+02:00</time>
      </trkpt>
      <trkpt lat="46.18425" lon="-0.26621">
        <ele>49</ele>
        <time>2025-07-11T09:32:41.002000+02:00</time>
      </trkpt>
      <trkpt lat="46.18425" lon="-0.26609">
        <ele>49</ele>
        <time>2025-07-11T09:32:43+02:00</time>
      </trkpt>
      <trkpt lat="46.18425" lon="-0.26603">
        <ele>49</ele>
        <time>2025-07-11T09:32:44+02:00</time>
      </trkpt>
      <trkpt lat="46.18426" lon="-0.26598">
        <ele>49</ele>
        <time>2025-07-11T09:32:45.002000+02:00</time>
      </trkpt>
      <trkpt lat="46.1843" lon="-0.26586">
        <ele>49</ele>
        <time>2025-07-11T09:32:47+02:00</time>
      </trkpt>
      <trkpt lat="46.18431" lon="-0.2658">
        <ele>49</ele>
        <time>2025-07-11T09:32:48.001000+02:00</time>
      </trkpt>
      <trkpt lat="46.18435" lon="-0.26568">
        <ele>49</ele>
        <time>2025-07-11T09:32:50.001000+02:00</time>
      </trkpt>
      <trkpt lat="46.18437" lon="-0.26561">
        <ele>49</ele>
        <time>2025-07-11T09:32:51.002000+02:00</time>
      </trkpt>
      <trkpt lat="46.18439" lon="-0.26549">
        <ele>49</ele>
        <time>2025-07-11T09:32:53.001000+02:00</time>
      </trkpt>
      <trkpt lat="46.18441" lon="-0.26543">
        <ele>49</ele>
        <time>2025-07-11T09:32:54.002000+02:00</time>
      </trkpt>
      <trkpt lat="46.18444" lon="-0.26531">
        <ele>49</ele>
        <time>2025-07-11T09:32:56+02:00</time>
      </trkpt>
      <trkpt lat="46.18446" lon="-0.26525">
        <ele>49.1</ele>
        <time>2025-07-11T09:32:57.002000+02:00</time>
      </trkpt>
      <trkpt lat="46.1845" lon="-0.26513">
        <ele>49.5</ele>
        <time>2025-07-11T09:32:59.001000+02:00</time>
      </trkpt>
      <trkpt lat="46.18453" lon="-0.26507">
        <ele>49.6</ele>
        <time>2025-07-11T09:33:00.001000+02:00</time>
      </trkpt>
      <trkpt lat="46.18455" lon="-0.26501">
        <ele>49.6</ele>
        <time>2025-07-11T09:33:01.002000+02:00</time>
      </trkpt>
      <trkpt lat="46.18457" lon="-0.26495">
        <ele>49.6</ele>
        <time>2025-07-11T09:33:02.002000+02:00</time>
      </trkpt>
      <trkpt lat="46.18461" lon="-0.26483">
        <ele>49.4</ele>
        <time>2025-07-11T09:33:04+02:00</time>
      </trkpt>
      <trkpt lat="46.18465" lon="-0.26471">
        <ele>49.3</ele>
        <time>2025-07-11T09:33:06.001000+02:00</time>
      </trkpt>
      <trkpt lat="46.18469" lon="-0.26459">
        <ele>49.5</ele>
        <time>2025-07-11T09:33:08+02:00</time>
      </trkpt>
      <trkpt lat="46.18471" lon="-0.26453">
        <ele>49.7</ele>
        <time>2025-07-11T09:33:09.001000+02:00</time>
      </trkpt>
      <trkpt lat="46.18473" lon="-0.26447">
        <ele>49.9</ele>
        <time>2025-07-11T09:33:10.001000+02:00</time>
      </trkpt>
      <trkpt lat="46.18475" lon="-0.26441">
        <ele>50</ele>
        <time>2025-07-11T09:33:11.001000+02:00</time>
      </trkpt>
      <trkpt lat="46.18477" lon="-0.26435">
        <ele>50</ele>
        <time>2025-07-11T09:33:12.001000+02:00</time>
      </trkpt>
      <trkpt lat="46.18479" lon="-0.2643">
        <ele>50</ele>
        <time>2025-07-11T09:33:13.001000+02:00</time>
      </trkpt>
      <trkpt lat="46.18481" lon="-0.26424">
        <ele>50</ele>
        <time>2025-07-11T09:33:14.001000+02:00</time>
      </trkpt>
      <trkpt lat="46.18483" lon="-0.26418">
        <ele>50</ele>
        <time>2025-07-11T09:33:15.001000+02:00</time>
      </trkpt>
      <trkpt lat="46.18485" lon="-0.26412">
        <ele>49.9</ele>
        <time>2025-07-11T09:33:16.001000+02:00</time>
      </trkpt>
      <trkpt lat="46.18488" lon="-0.264">
        <ele>49.7</ele>
        <time>2025-07-11T09:33:18.002000+02:00</time>
      </trkpt>
      <trkpt lat="46.1849" lon="-0.26394">
        <ele>49.5</ele>
        <time>2025-07-11T09:33:19.003000+02:00</time>
      </trkpt>
      <trkpt lat="46.18492" lon="-0.26389">
        <ele>49.3</ele>
        <time>2025-07-11T09:33:20.003000+02:00</time>
      </trkpt>
      <trkpt lat="46.18495" lon="-0.26383">
        <ele>49.4</ele>
        <time>2025-07-11T09:33:21.003000+02:00</time>
      </trkpt>
      <trkpt lat="46.18496" lon="-0.26377">
        <ele>49.5</ele>
        <time>2025-07-11T09:33:22.003000+02:00</time>
      </trkpt>
      <trkpt lat="46.18498" lon="-0.26371">
        <ele>49.7</ele>
        <time>2025-07-11T09:33:23.003000+02:00</time>
      </trkpt>
      <trkpt lat="46.18501" lon="-0.26365">
        <ele>49.9</ele>
        <time>2025-07-11T09:33:24.003000+02:00</time>
      </trkpt>
      <trkpt lat="46.18504" lon="-0.26354">
        <ele>50</ele>
        <time>2025-07-11T09:33:26.002000+02:00</time>
      </trkpt>
      <trkpt lat="46.18508" lon="-0.26343">
        <ele>50</ele>
        <time>2025-07-11T09:33:28.005000+02:00</time>
      </trkpt>
      <trkpt lat="46.18512" lon="-0.26332">
        <ele>50</ele>
        <time>2025-07-11T09:33:30.001000+02:00</time>
      </trkpt>
      <trkpt lat="46.18514" lon="-0.26326">
        <ele>50</ele>
        <time>2025-07-11T09:33:31.007000+02:00</time>
      </trkpt>
      <trkpt lat="46.18517" lon="-0.26315">
        <ele>50</ele>
        <time>2025-07-11T09:33:33.002000+02:00</time>
      </trkpt>
      <trkpt lat="46.18521" lon="-0.26304">
        <ele>50</ele>
        <time>2025-07-11T09:33:35.001000+02:00</time>
      </trkpt>
      <trkpt lat="46.18523" lon="-0.26299">
        <ele>50</ele>
        <time>2025-07-11T09:33:36.001000+02:00</time>
      </trkpt>
      <trkpt lat="46.18525" lon="-0.26293">
        <ele>50</ele>
        <time>2025-07-11T09:33:37.002000+02:00</time>
      </trkpt>
      <trkpt lat="46.18529" lon="-0.26282">
        <ele>50</ele>
        <time>2025-07-11T09:33:39.002000+02:00</time>
      </trkpt>
      <trkpt lat="46.18531" lon="-0.26276">
        <ele>50</ele>
        <time>2025-07-11T09:33:40.002000+02:00</time>
      </trkpt>
      <trkpt lat="46.18533" lon="-0.26271">
        <ele>50</ele>
        <time>2025-07-11T09:33:41.003000+02:00</time>
      </trkpt>
      <trkpt lat="46.18537" lon="-0.2626">
        <ele>50</ele>
        <time>2025-07-11T09:33:43.001000+02:00</time>
      </trkpt>
      <trkpt lat="46.18539" lon="-0.26254">
        <ele>50</ele>
        <time>2025-07-11T09:33:44.001000+02:00</time>
      </trkpt>
      <trkpt lat="46.18541" lon="-0.26248">
        <ele>50</ele>
        <time>2025-07-11T09:33:45.002000+02:00</time>
      </trkpt>
      <trkpt lat="46.18545" lon="-0.26237">
        <ele>50</ele>
        <time>2025-07-11T09:33:47.001000+02:00</time>
      </trkpt>
      <trkpt lat="46.18547" lon="-0.26232">
        <ele>50</ele>
        <time>2025-07-11T09:33:48.001000+02:00</time>
      </trkpt>
      <trkpt lat="46.18549" lon="-0.26226">
        <ele>50</ele>
        <time>2025-07-11T09:33:49.001000+02:00</time>
      </trkpt>
      <trkpt lat="46.18551" lon="-0.26221">
        <ele>50</ele>
        <time>2025-07-11T09:33:50.001000+02:00</time>
      </trkpt>
      <trkpt lat="46.18552" lon="-0.26216">
        <ele>50</ele>
        <time>2025-07-11T09:33:51.002000+02:00</time>
      </trkpt>
      <trkpt lat="46.18556" lon="-0.26205">
        <ele>50</ele>
        <time>2025-07-11T09:33:53.001000+02:00</time>
      </trkpt>
      <trkpt lat="46.1856" lon="-0.26195">
        <ele>50</ele>
        <time>2025-07-11T09:33:55.001000+02:00</time>
      </trkpt>
      <trkpt lat="46.18562" lon="-0.2619">
        <ele>50</ele>
        <time>2025-07-11T09:33:56.001000+02:00</time>
      </trkpt>
      <trkpt lat="46.18563" lon="-0.26185">
        <ele>50</ele>
        <time>2025-07-11T09:33:57.002000+02:00</time>
      </trkpt>
      <trkpt lat="46.18565" lon="-0.2618">
        <ele>50</ele>
        <time>2025-07-11T09:33:58.002000+02:00</time>
      </trkpt>
      <trkpt lat="46.18569" lon="-0.26169">
        <ele>50</ele>
        <time>2025-07-11T09:34:00.003000+02:00</time>
      </trkpt>
      <trkpt lat="46.18572" lon="-0.26158">
        <ele>50</ele>
        <time>2025-07-11T09:34:02.003000+02:00</time>
      </trkpt>
      <trkpt lat="46.18576" lon="-0.26147">
        <ele>50</ele>
        <time>2025-07-11T09:34:04.005000+02:00</time>
      </trkpt>
      <trkpt lat="46.1858" lon="-0.26135">
        <ele>50</ele>
        <time>2025-07-11T09:34:06.002000+02:00</time>
      </trkpt>
      <trkpt lat="46.18582" lon="-0.26129">
        <ele>50</ele>
        <time>2025-07-11T09:34:07.003000+02:00</time>
      </trkpt>
      <trkpt lat="46.18587" lon="-0.26117">
        <ele>50</ele>
        <time>2025-07-11T09:34:09.002000+02:00</time>
      </trkpt>
      <trkpt lat="46.18591" lon="-0.26106">
        <ele>50</ele>
        <time>2025-07-11T09:34:11.002000+02:00</time>
      </trkpt>
      <trkpt lat="46.18595" lon="-0.26095">
        <ele>50</ele>
        <time>2025-07-11T09:34:13.001000+02:00</time>
      </trkpt>
      <trkpt lat="46.18597" lon="-0.2609">
        <ele>50</ele>
        <time>2025-07-11T09:34:14.001000+02:00</time>
      </trkpt>
      <trkpt lat="46.18599" lon="-0.26085">
        <ele>50</ele>
        <time>2025-07-11T09:34:15.002000+02:00</time>
      </trkpt>
      <trkpt lat="46.18601" lon="-0.26079">
        <ele>50</ele>
        <time>2025-07-11T09:34:16.002000+02:00</time>
      </trkpt>
      <trkpt lat="46.18602" lon="-0.26074">
        <ele>50</ele>
        <time>2025-07-11T09:34:17.003000+02:00</time>
      </trkpt>
      <trkpt lat="46.18605" lon="-0.26062">
        <ele>50</ele>
        <time>2025-07-11T09:34:19.003000+02:00</time>
      </trkpt>
      <trkpt lat="46.18609" lon="-0.26051">
        <ele>50</ele>
        <time>2025-07-11T09:34:21.006000+02:00</time>
      </trkpt>
      <trkpt lat="46.18614" lon="-0.26041">
        <ele>50</ele>
        <time>2025-07-11T09:34:23.002000+02:00</time>
      </trkpt>
      <trkpt lat="46.18615" lon="-0.26036">
        <ele>50</ele>
        <time>2025-07-11T09:34:24.003000+02:00</time>
      </trkpt>
      <trkpt lat="46.18619" lon="-0.26025">
        <ele>50</ele>
        <time>2025-07-11T09:34:26+02:00</time>
      </trkpt>
      <trkpt lat="46.18621" lon="-0.26019">
        <ele>50</ele>
        <time>2025-07-11T09:34:27.002000+02:00</time>
      </trkpt>
      <trkpt lat="46.18625" lon="-0.26007">
        <ele>50</ele>
        <time>2025-07-11T09:34:29.002000+02:00</time>
      </trkpt>
      <trkpt lat="46.18627" lon="-0.25995">
        <ele>50.1</ele>
        <time>2025-07-11T09:34:31.001000+02:00</time>
      </trkpt>
      <trkpt lat="46.18628" lon="-0.25989">
        <ele>50.2</ele>
        <time>2025-07-11T09:34:32.002000+02:00</time>
      </trkpt>
      <trkpt lat="46.18627" lon="-0.25983">
        <ele>50.4</ele>
        <time>2025-07-11T09:34:33.002000+02:00</time>
      </trkpt>
      <trkpt lat="46.18623" lon="-0.25971">
        <ele>50.4</ele>
        <time>2025-07-11T09:34:35+02:00</time>
      </trkpt>
      <trkpt lat="46.1862" lon="-0.25967">
        <ele>50.4</ele>
        <time>2025-07-11T09:34:36.001000+02:00</time>
      </trkpt>
      <trkpt lat="46.18613" lon="-0.25958">
        <ele>50.5</ele>
        <time>2025-07-11T09:34:38+02:00</time>
      </trkpt>
      <trkpt lat="46.1861" lon="-0.25954">
        <ele>50.7</ele>
        <time>2025-07-11T09:34:39.005000+02:00</time>
      </trkpt>
      <trkpt lat="46.18603" lon="-0.25946">
        <ele>51</ele>
        <time>2025-07-11T09:34:41.001000+02:00</time>
      </trkpt>
      <trkpt lat="46.18599" lon="-0.25942">
        <ele>51</ele>
        <time>2025-07-11T09:34:42.002000+02:00</time>
      </trkpt>
      <trkpt lat="46.18595" lon="-0.25938">
        <ele>51</ele>
        <time>2025-07-11T09:34:43.002000+02:00</time>
      </trkpt>
      <trkpt lat="46.18588" lon="-0.2593">
        <ele>51</ele>
        <time>2025-07-11T09:34:45.003000+02:00</time>
      </trkpt>
      <trkpt lat="46.18581" lon="-0.25921">
        <ele>51</ele>
        <time>2025-07-11T09:34:47.002000+02:00</time>
      </trkpt>
      <trkpt lat="46.18577" lon="-0.25917">
        <ele>51</ele>
        <time>2025-07-11T09:34:48.002000+02:00</time>
      </trkpt>
      <trkpt lat="46.18569" lon="-0.25909">
        <ele>51</ele>
        <time>2025-07-11T09:34:50.002000+02:00</time>
      </trkpt>
      <trkpt lat="46.18562" lon="-0.25901">
        <ele>51</ele>
        <time>2025-07-11T09:34:52.002000+02:00</time>
      </trkpt>
      <trkpt lat="46.18556" lon="-0.25893">
        <ele>51</ele>
        <time>2025-07-11T09:34:54.003000+02:00</time>
      </trkpt>
      <trkpt lat="46.18548" lon="-0.25884">
        <ele>50.8</ele>
        <time>2025-07-11T09:34:56.001000+02:00</time>
      </trkpt>
      <trkpt lat="46.18545" lon="-0.25879">
        <ele>50.7</ele>
        <time>2025-07-11T09:34:57.002000+02:00</time>
      </trkpt>
      <trkpt lat="46.18541" lon="-0.25874">
        <ele>50.7</ele>
        <time>2025-07-11T09:34:58.002000+02:00</time>
      </trkpt>
      <trkpt lat="46.18534" lon="-0.25866">
        <ele>50.9</ele>
        <time>2025-07-11T09:35:00.003000+02:00</time>
      </trkpt>
      <trkpt lat="46.18527" lon="-0.25858">
        <ele>51</ele>
        <time>2025-07-11T09:35:02.003000+02:00</time>
      </trkpt>
      <trkpt lat="46.1852" lon="-0.25851">
        <ele>51</ele>
        <time>2025-07-11T09:35:04.003000+02:00</time>
      </trkpt>
      <trkpt lat="46.18513" lon="-0.25843">
        <ele>51</ele>
        <time>2025-07-11T09:35:06.002000+02:00</time>
      </trkpt>
      <trkpt lat="46.1851" lon="-0.2584">
        <ele>51</ele>
        <time>2025-07-11T09:35:07.002000+02:00</time>
      </trkpt>
      <trkpt lat="46.18507" lon="-0.25837">
        <ele>51</ele>
        <time>2025-07-11T09:35:08.002000+02:00</time>
      </trkpt>
      <trkpt lat="46.18503" lon="-0.25818">
        <ele>51.5</ele>
        <time>2025-07-11T09:40:40+02:00</time>
      </trkpt>
      <trkpt lat="46.185" lon="-0.25818">
        <ele>51.6</ele>
        <time>2025-07-11T09:40:41+02:00</time>
      </trkpt>
      <trkpt lat="46.18497" lon="-0.25815">
        <ele>51.7</ele>
        <time>2025-07-11T09:40:42.001000+02:00</time>
      </trkpt>
      <trkpt lat="46.18496" lon="-0.25813">
        <ele>51.8</ele>
        <time>2025-07-11T09:40:43.001000+02:00</time>
      </trkpt>
      <trkpt lat="46.18492" lon="-0.25804">
        <ele>52</ele>
        <time>2025-07-11T09:40:45.004000+02:00</time>
      </trkpt>
      <trkpt lat="46.18488" lon="-0.25794">
        <ele>51.8</ele>
        <time>2025-07-11T09:40:47.003000+02:00</time>
      </trkpt>
      <trkpt lat="46.18484" lon="-0.25784">
        <ele>51.7</ele>
        <time>2025-07-11T09:40:49.002000+02:00</time>
      </trkpt>
      <trkpt lat="46.18482" lon="-0.2578">
        <ele>51.7</ele>
        <time>2025-07-11T09:40:50.002000+02:00</time>
      </trkpt>
      <trkpt lat="46.18477" lon="-0.2577">
        <ele>51.8</ele>
        <time>2025-07-11T09:40:52+02:00</time>
      </trkpt>
      <trkpt lat="46.18475" lon="-0.25765">
        <ele>51.9</ele>
        <time>2025-07-11T09:40:53.003000+02:00</time>
      </trkpt>
      <trkpt lat="46.18472" lon="-0.25761">
        <ele>52</ele>
        <time>2025-07-11T09:40:54.003000+02:00</time>
      </trkpt>
      <trkpt lat="46.18468" lon="-0.25751">
        <ele>52.2</ele>
        <time>2025-07-11T09:40:56.002000+02:00</time>
      </trkpt>
      <trkpt lat="46.18465" lon="-0.25747">
        <ele>52.3</ele>
        <time>2025-07-11T09:40:57.003000+02:00</time>
      </trkpt>
      <trkpt lat="46.1846" lon="-0.25738">
        <ele>52.4</ele>
        <time>2025-07-11T09:40:59.003000+02:00</time>
      </trkpt>
      <trkpt lat="46.18456" lon="-0.25728">
        <ele>52.6</ele>
        <time>2025-07-11T09:41:01.001000+02:00</time>
      </trkpt>
      <trkpt lat="46.18453" lon="-0.25724">
        <ele>52.7</ele>
        <time>2025-07-11T09:41:02.001000+02:00</time>
      </trkpt>
      <trkpt lat="46.18451" lon="-0.2572">
        <ele>52.8</ele>
        <time>2025-07-11T09:41:03.001000+02:00</time>
      </trkpt>
      <trkpt lat="46.18448" lon="-0.25715">
        <ele>52.9</ele>
        <time>2025-07-11T09:41:04.001000+02:00</time>
      </trkpt>
      <trkpt lat="46.18446" lon="-0.25711">
        <ele>53</ele>
        <time>2025-07-11T09:41:05.001000+02:00</time>
      </trkpt>
      <trkpt lat="46.18444" lon="-0.25707">
        <ele>53</ele>
        <time>2025-07-11T09:41:06.001000+02:00</time>
      </trkpt>
      <trkpt lat="46.18442" lon="-0.25703">
        <ele>53.1</ele>
        <time>2025-07-11T09:41:07.001000+02:00</time>
      </trkpt>
      <trkpt lat="46.1844" lon="-0.25699">
        <ele>53.2</ele>
        <time>2025-07-11T09:41:08.001000+02:00</time>
      </trkpt>
      <trkpt lat="46.18437" lon="-0.25694">
        <ele>53.3</ele>
        <time>2025-07-11T09:41:09.002000+02:00</time>
      </trkpt>
      <trkpt lat="46.18431" lon="-0.25686">
        <ele>53.6</ele>
        <time>2025-07-11T09:41:11.001000+02:00</time>
      </trkpt>
      <trkpt lat="46.18429" lon="-0.25683">
        <ele>53.7</ele>
        <time>2025-07-11T09:41:12.001000+02:00</time>
      </trkpt>
      <trkpt lat="46.18427" lon="-0.25679">
        <ele>53.8</ele>
        <time>2025-07-11T09:41:13.001000+02:00</time>
      </trkpt>
      <trkpt lat="46.18424" lon="-0.25675">
        <ele>53.9</ele>
        <time>2025-07-11T09:41:14.003000+02:00</time>
      </trkpt>
      <trkpt lat="46.18418" lon="-0.25668">
        <ele>54</ele>
        <time>2025-07-11T09:41:16.002000+02:00</time>
      </trkpt>
      <trkpt lat="46.18415" lon="-0.25665">
        <ele>54.1</ele>
        <time>2025-07-11T09:41:17.002000+02:00</time>
      </trkpt>
      <trkpt lat="46.18412" lon="-0.25661">
        <ele>54.3</ele>
        <time>2025-07-11T09:41:18.003000+02:00</time>
      </trkpt>
      <trkpt lat="46.18409" lon="-0.25658">
        <ele>54.5</ele>
        <time>2025-07-11T09:41:19.003000+02:00</time>
      </trkpt>
      <trkpt lat="46.18403" lon="-0.25651">
        <ele>54.8</ele>
        <time>2025-07-11T09:41:21.003000+02:00</time>
      </trkpt>
      <trkpt lat="46.184" lon="-0.25647">
        <ele>54.9</ele>
        <time>2025-07-11T09:41:22.003000+02:00</time>
      </trkpt>
      <trkpt lat="46.18394" lon="-0.2564">
        <ele>55</ele>
        <time>2025-07-11T09:41:24.004000+02:00</time>
      </trkpt>
      <trkpt lat="46.18388" lon="-0.25633">
        <ele>55</ele>
        <time>2025-07-11T09:41:26+02:00</time>
      </trkpt>
      <trkpt lat="46.18386" lon="-0.25629">
        <ele>55</ele>
        <time>2025-07-11T09:41:27.002000+02:00</time>
      </trkpt>
      <trkpt lat="46.1838" lon="-0.25622">
        <ele>55</ele>
        <time>2025-07-11T09:41:29+02:00</time>
      </trkpt>
      <trkpt lat="46.18376" lon="-0.25619">
        <ele>55</ele>
        <time>2025-07-11T09:41:30.002000+02:00</time>
      </trkpt>
      <trkpt lat="46.1837" lon="-0.25613">
        <ele>55</ele>
        <time>2025-07-11T09:41:32.001000+02:00</time>
      </trkpt>
      <trkpt lat="46.18366" lon="-0.25609">
        <ele>55.1</ele>
        <time>2025-07-11T09:41:33.001000+02:00</time>
      </trkpt>
      <trkpt lat="46.18364" lon="-0.25606">
        <ele>55.2</ele>
        <time>2025-07-11T09:41:34.001000+02:00</time>
      </trkpt>
      <trkpt lat="46.18361" lon="-0.25603">
        <ele>55.3</ele>
        <time>2025-07-11T09:41:35.002000+02:00</time>
      </trkpt>
      <trkpt lat="46.18355" lon="-0.25596">
        <ele>55.6</ele>
        <time>2025-07-11T09:41:37+02:00</time>
      </trkpt>
      <trkpt lat="46.18352" lon="-0.25593">
        <ele>55.8</ele>
        <time>2025-07-11T09:41:38.003000+02:00</time>
      </trkpt>
      <trkpt lat="46.18346" lon="-0.25585">
        <ele>56</ele>
        <time>2025-07-11T09:41:40.001000+02:00</time>
      </trkpt>
      <trkpt lat="46.18341" lon="-0.25578">
        <ele>56</ele>
        <time>2025-07-11T09:41:42.001000+02:00</time>
      </trkpt>
      <trkpt lat="46.18338" lon="-0.25575">
        <ele>56</ele>
        <time>2025-07-11T09:41:43.001000+02:00</time>
      </trkpt>
      <trkpt lat="46.18335" lon="-0.25571">
        <ele>56</ele>
        <time>2025-07-11T09:41:44.002000+02:00</time>
      </trkpt>
      <trkpt lat="46.18329" lon="-0.25564">
        <ele>56</ele>
        <time>2025-07-11T09:41:46.002000+02:00</time>
      </trkpt>
      <trkpt lat="46.18326" lon="-0.25561">
        <ele>56</ele>
        <time>2025-07-11T09:41:47.002000+02:00</time>
      </trkpt>
      <trkpt lat="46.18323" lon="-0.25558">
        <ele>56</ele>
        <time>2025-07-11T09:41:48.002000+02:00</time>
      </trkpt>
      <trkpt lat="46.1832" lon="-0.25555">
        <ele>56</ele>
        <time>2025-07-11T09:41:49.002000+02:00</time>
      </trkpt>
      <trkpt lat="46.18317" lon="-0.25552">
        <ele>56</ele>
        <time>2025-07-11T09:41:50.003000+02:00</time>
      </trkpt>
      <trkpt lat="46.18314" lon="-0.2555">
        <ele>56</ele>
        <time>2025-07-11T09:41:51.003000+02:00</time>
      </trkpt>
      <trkpt lat="46.1831" lon="-0.25548">
        <ele>56</ele>
        <time>2025-07-11T09:41:52.004000+02:00</time>
      </trkpt>
      <trkpt lat="46.18303" lon="-0.25545">
        <ele>56</ele>
        <time>2025-07-11T09:41:54.004000+02:00</time>
      </trkpt>
      <trkpt lat="46.18296" lon="-0.25541">
        <ele>56</ele>
        <time>2025-07-11T09:41:56.001000+02:00</time>
      </trkpt>
      <trkpt lat="46.18293" lon="-0.25539">
        <ele>56</ele>
        <time>2025-07-11T09:41:57.003000+02:00</time>
      </trkpt>
      <trkpt lat="46.18289" lon="-0.25537">
        <ele>56</ele>
        <time>2025-07-11T09:41:58.003000+02:00</time>
      </trkpt>
      <trkpt lat="46.18282" lon="-0.25533">
        <ele>56</ele>
        <time>2025-07-11T09:42:00.003000+02:00</time>
      </trkpt>
      <trkpt lat="46.18276" lon="-0.25532">
        <ele>56</ele>
        <time>2025-07-11T09:42:02.004000+02:00</time>
      </trkpt>
      <trkpt lat="46.18269" lon="-0.25529">
        <ele>56.3</ele>
        <time>2025-07-11T09:42:04.003000+02:00</time>
      </trkpt>
      <trkpt lat="46.18266" lon="-0.25527">
        <ele>56.4</ele>
        <time>2025-07-11T09:42:05.003000+02:00</time>
      </trkpt>
      <trkpt lat="46.18263" lon="-0.25525">
        <ele>56.6</ele>
        <time>2025-07-11T09:42:06.004000+02:00</time>
      </trkpt>
      <trkpt lat="46.1826" lon="-0.25523">
        <ele>56.7</ele>
        <time>2025-07-11T09:42:07.004000+02:00</time>
      </trkpt>
      <trkpt lat="46.18257" lon="-0.25521">
        <ele>56.8</ele>
        <time>2025-07-11T09:42:08.004000+02:00</time>
      </trkpt>
      <trkpt lat="46.18251" lon="-0.25517">
        <ele>57</ele>
        <time>2025-07-11T09:42:10.003000+02:00</time>
      </trkpt>
      <trkpt lat="46.18248" lon="-0.25515">
        <ele>56.9</ele>
        <time>2025-07-11T09:42:11.003000+02:00</time>
      </trkpt>
      <trkpt lat="46.18244" lon="-0.25513">
        <ele>56.8</ele>
        <time>2025-07-11T09:42:12.003000+02:00</time>
      </trkpt>
      <trkpt lat="46.18241" lon="-0.25511">
        <ele>56.7</ele>
        <time>2025-07-11T09:42:13.003000+02:00</time>
      </trkpt>
      <trkpt lat="46.18238" lon="-0.25508">
        <ele>56.6</ele>
        <time>2025-07-11T09:42:14.003000+02:00</time>
      </trkpt>
      <trkpt lat="46.18235" lon="-0.25505">
        <ele>56.4</ele>
        <time>2025-07-11T09:42:15.004000+02:00</time>
      </trkpt>
      <trkpt lat="46.18229" lon="-0.25498">
        <ele>56.2</ele>
        <time>2025-07-11T09:42:17.001000+02:00</time>
      </trkpt>
      <trkpt lat="46.18226" lon="-0.25494">
        <ele>56.1</ele>
        <time>2025-07-11T09:42:18.002000+02:00</time>
      </trkpt>
      <trkpt lat="46.18223" lon="-0.25491">
        <ele>56</ele>
        <time>2025-07-11T09:42:19.002000+02:00</time>
      </trkpt>
      <trkpt lat="46.1822" lon="-0.25487">
        <ele>56</ele>
        <time>2025-07-11T09:42:20.002000+02:00</time>
      </trkpt>
      <trkpt lat="46.18215" lon="-0.2548">
        <ele>56</ele>
        <time>2025-07-11T09:42:22.003000+02:00</time>
      </trkpt>
      <trkpt lat="46.18212" lon="-0.25476">
        <ele>56</ele>
        <time>2025-07-11T09:42:23.003000+02:00</time>
      </trkpt>
      <trkpt lat="46.18209" lon="-0.25472">
        <ele>56</ele>
        <time>2025-07-11T09:42:24.005000+02:00</time>
      </trkpt>
      <trkpt lat="46.18202" lon="-0.25464">
        <ele>56</ele>
        <time>2025-07-11T09:42:26.002000+02:00</time>
      </trkpt>
      <trkpt lat="46.18199" lon="-0.25459">
        <ele>56</ele>
        <time>2025-07-11T09:42:27.003000+02:00</time>
      </trkpt>
      <trkpt lat="46.18193" lon="-0.25449">
        <ele>56</ele>
        <time>2025-07-11T09:42:29.003000+02:00</time>
      </trkpt>
      <trkpt lat="46.18188" lon="-0.2544">
        <ele>56</ele>
        <time>2025-07-11T09:42:31.002000+02:00</time>
      </trkpt>
      <trkpt lat="46.18182" lon="-0.25429">
        <ele>56</ele>
        <time>2025-07-11T09:42:33.001000+02:00</time>
      </trkpt>
      <trkpt lat="46.18178" lon="-0.25424">
        <ele>56</ele>
        <time>2025-07-11T09:42:34.001000+02:00</time>
      </trkpt>
      <trkpt lat="46.18176" lon="-0.25419">
        <ele>56</ele>
        <time>2025-07-11T09:42:35.001000+02:00</time>
      </trkpt>
      <trkpt lat="46.18169" lon="-0.2541">
        <ele>56</ele>
        <time>2025-07-11T09:42:37.001000+02:00</time>
      </trkpt>
      <trkpt lat="46.18166" lon="-0.25405">
        <ele>56</ele>
        <time>2025-07-11T09:42:38.003000+02:00</time>
      </trkpt>
      <trkpt lat="46.18159" lon="-0.25396">
        <ele>56</ele>
        <time>2025-07-11T09:42:40.002000+02:00</time>
      </trkpt>
      <trkpt lat="46.18154" lon="-0.25385">
        <ele>56</ele>
        <time>2025-07-11T09:42:42.002000+02:00</time>
      </trkpt>
      <trkpt lat="46.18151" lon="-0.25381">
        <ele>56</ele>
        <time>2025-07-11T09:42:43.002000+02:00</time>
      </trkpt>
      <trkpt lat="46.18149" lon="-0.25375">
        <ele>56</ele>
        <time>2025-07-11T09:42:44.002000+02:00</time>
      </trkpt>
      <trkpt lat="46.18147" lon="-0.2537">
        <ele>56</ele>
        <time>2025-07-11T09:42:45.003000+02:00</time>
      </trkpt>
      <trkpt lat="46.18142" lon="-0.25359">
        <ele>56</ele>
        <time>2025-07-11T09:42:47.001000+02:00</time>
      </trkpt>
      <trkpt lat="46.18139" lon="-0.25354">
        <ele>56</ele>
        <time>2025-07-11T09:42:48.002000+02:00</time>
      </trkpt>
      <trkpt lat="46.18134" lon="-0.25343">
        <ele>55.8</ele>
        <time>2025-07-11T09:42:50.002000+02:00</time>
      </trkpt>
      <trkpt lat="46.18131" lon="-0.25338">
        <ele>55.7</ele>
        <time>2025-07-11T09:42:51.002000+02:00</time>
      </trkpt>
      <trkpt lat="46.18125" lon="-0.25328">
        <ele>55.6</ele>
        <time>2025-07-11T09:42:53+02:00</time>
      </trkpt>
      <trkpt lat="46.18123" lon="-0.25322">
        <ele>55.6</ele>
        <time>2025-07-11T09:42:54.001000+02:00</time>
      </trkpt>
      <trkpt lat="46.18117" lon="-0.25313">
        <ele>55.8</ele>
        <time>2025-07-11T09:42:56.002000+02:00</time>
      </trkpt>
      <trkpt lat="46.18112" lon="-0.25302">
        <ele>56</ele>
        <time>2025-07-11T09:42:58.001000+02:00</time>
      </trkpt>
      <trkpt lat="46.18106" lon="-0.25292">
        <ele>55.8</ele>
        <time>2025-07-11T09:43:00.002000+02:00</time>
      </trkpt>
      <trkpt lat="46.18101" lon="-0.25281">
        <ele>55.6</ele>
        <time>2025-07-11T09:43:02.001000+02:00</time>
      </trkpt>
      <trkpt lat="46.18098" lon="-0.25276">
        <ele>55.6</ele>
        <time>2025-07-11T09:43:03.003000+02:00</time>
      </trkpt>
      <trkpt lat="46.18092" lon="-0.25267">
        <ele>55.6</ele>
        <time>2025-07-11T09:43:05.003000+02:00</time>
      </trkpt>
      <trkpt lat="46.18088" lon="-0.25263">
        <ele>55.6</ele>
        <time>2025-07-11T09:43:06.003000+02:00</time>
      </trkpt>
      <trkpt lat="46.18081" lon="-0.25255">
        <ele>55.7</ele>
        <time>2025-07-11T09:43:08.002000+02:00</time>
      </trkpt>
      <trkpt lat="46.18075" lon="-0.25248">
        <ele>55.7</ele>
        <time>2025-07-11T09:43:10.001000+02:00</time>
      </trkpt>
      <trkpt lat="46.18071" lon="-0.25244">
        <ele>55.7</ele>
        <time>2025-07-11T09:43:11.002000+02:00</time>
      </trkpt>
      <trkpt lat="46.18064" lon="-0.25237">
        <ele>55.6</ele>
        <time>2025-07-11T09:43:13.001000+02:00</time>
      </trkpt>
      <trkpt lat="46.18061" lon="-0.25234">
        <ele>55.7</ele>
        <time>2025-07-11T09:43:14.002000+02:00</time>
      </trkpt>
      <trkpt lat="46.18057" lon="-0.2523">
        <ele>55.7</ele>
        <time>2025-07-11T09:43:15.002000+02:00</time>
      </trkpt>
      <trkpt lat="46.18053" lon="-0.25226">
        <ele>55.8</ele>
        <time>2025-07-11T09:43:16.002000+02:00</time>
      </trkpt>
      <trkpt lat="46.1805" lon="-0.25222">
        <ele>55.8</ele>
        <time>2025-07-11T09:43:17.002000+02:00</time>
      </trkpt>
      <trkpt lat="46.18046" lon="-0.25218">
        <ele>55.7</ele>
        <time>2025-07-11T09:43:18.003000+02:00</time>
      </trkpt>
      <trkpt lat="46.18044" lon="-0.25214">
        <ele>55.6</ele>
        <time>2025-07-11T09:43:19.004000+02:00</time>
      </trkpt>
      <trkpt lat="46.18037" lon="-0.25206">
        <ele>55.3</ele>
        <time>2025-07-11T09:43:21.003000+02:00</time>
      </trkpt>
      <trkpt lat="46.1803" lon="-0.25199">
        <ele>55.1</ele>
        <time>2025-07-11T09:43:23+02:00</time>
      </trkpt>
      <trkpt lat="46.18026" lon="-0.25196">
        <ele>55.1</ele>
        <time>2025-07-11T09:43:24.002000+02:00</time>
      </trkpt>
      <trkpt lat="46.18017" lon="-0.25192">
        <ele>55.4</ele>
        <time>2025-07-11T09:43:26.001000+02:00</time>
      </trkpt>
      <trkpt lat="46.18013" lon="-0.2519">
        <ele>55.6</ele>
        <time>2025-07-11T09:43:27.002000+02:00</time>
      </trkpt>
      <trkpt lat="46.18004" lon="-0.25188">
        <ele>55.9</ele>
        <time>2025-07-11T09:43:29+02:00</time>
      </trkpt>
      <trkpt lat="46.18" lon="-0.25187">
        <ele>56</ele>
        <time>2025-07-11T09:43:30.001000+02:00</time>
      </trkpt>
      <trkpt lat="46.17991" lon="-0.25184">
        <ele>56</ele>
        <time>2025-07-11T09:43:32+02:00</time>
      </trkpt>
      <trkpt lat="46.17987" lon="-0.25183">
        <ele>56</ele>
        <time>2025-07-11T09:43:33.002000+02:00</time>
      </trkpt>
      <trkpt lat="46.17983" lon="-0.25182">
        <ele>56</ele>
        <time>2025-07-11T09:43:34.002000+02:00</time>
      </trkpt>
      <trkpt lat="46.17978" lon="-0.25181">
        <ele>56</ele>
        <time>2025-07-11T09:43:35.007000+02:00</time>
      </trkpt>
      <trkpt lat="46.1797" lon="-0.25179">
        <ele>56</ele>
        <time>2025-07-11T09:43:37.004000+02:00</time>
      </trkpt>
      <trkpt lat="46.1796" lon="-0.25177">
        <ele>56</ele>
        <time>2025-07-11T09:43:39.003000+02:00</time>
      </trkpt>
      <trkpt lat="46.17951" lon="-0.25175">
        <ele>56</ele>
        <time>2025-07-11T09:43:41.001000+02:00</time>
      </trkpt>
      <trkpt lat="46.17947" lon="-0.25174">
        <ele>56</ele>
        <time>2025-07-11T09:43:42.001000+02:00</time>
      </trkpt>
      <trkpt lat="46.17942" lon="-0.25173">
        <ele>56</ele>
        <time>2025-07-11T09:43:43.002000+02:00</time>
      </trkpt>
      <trkpt lat="46.17938" lon="-0.25172">
        <ele>56</ele>
        <time>2025-07-11T09:43:44.002000+02:00</time>
      </trkpt>
      <trkpt lat="46.1793" lon="-0.25168">
        <ele>56</ele>
        <time>2025-07-11T09:43:46.002000+02:00</time>
      </trkpt>
      <trkpt lat="46.17922" lon="-0.25161">
        <ele>56.2</ele>
        <time>2025-07-11T09:43:48.001000+02:00</time>
      </trkpt>
      <trkpt lat="46.17916" lon="-0.25152">
        <ele>56.5</ele>
        <time>2025-07-11T09:43:50.001000+02:00</time>
      </trkpt>
      <trkpt lat="46.17914" lon="-0.25148">
        <ele>56.6</ele>
        <time>2025-07-11T09:43:51.003000+02:00</time>
      </trkpt>
      <trkpt lat="46.17908" lon="-0.2514">
        <ele>56.7</ele>
        <time>2025-07-11T09:43:53.002000+02:00</time>
      </trkpt>
      <trkpt lat="46.17903" lon="-0.25134">
        <ele>56.6</ele>
        <time>2025-07-11T09:43:55.002000+02:00</time>
      </trkpt>
      <trkpt lat="46.17901" lon="-0.25132">
        <ele>56.6</ele>
        <time>2025-07-11T09:43:56.002000+02:00</time>
      </trkpt>
      <trkpt lat="46.17899" lon="-0.25128">
        <ele>56.6</ele>
        <time>2025-07-11T09:43:57.003000+02:00</time>
      </trkpt>
      <trkpt lat="46.17896" lon="-0.25124">
        <ele>56.6</ele>
        <time>2025-07-11T09:43:58.004000+02:00</time>
      </trkpt>
      <trkpt lat="46.17893" lon="-0.25122">
        <ele>56.7</ele>
        <time>2025-07-11T09:43:59.004000+02:00</time>
      </trkpt>
      <trkpt lat="46.17889" lon="-0.25121">
        <ele>56.7</ele>
        <time>2025-07-11T09:44:00.004000+02:00</time>
      </trkpt>
      <trkpt lat="46.17884" lon="-0.25119">
        <ele>56.6</ele>
        <time>2025-07-11T09:44:02.003000+02:00</time>
      </trkpt>
      <trkpt lat="46.17883" lon="-0.25119">
        <ele>56.6</ele>
        <time>2025-07-11T09:44:03.006000+02:00</time>
      </trkpt>
      <trkpt lat="46.17883" lon="-0.25119">
        <ele>56.6</ele>
        <time>2025-07-11T09:44:05.001000+02:00</time>
      </trkpt>
      <trkpt lat="46.17883" lon="-0.25119">
        <ele>56.6</ele>
        <time>2025-07-11T09:44:06.001000+02:00</time>
      </trkpt>
      <trkpt lat="46.17883" lon="-0.25119">
        <ele>56.6</ele>
        <time>2025-07-11T09:44:07.002000+02:00</time>
      </trkpt>
      <trkpt lat="46.17883" lon="-0.25116">
        <ele>56.7</ele>
        <time>2025-07-11T09:44:16.001000+02:00</time>
      </trkpt>
      <trkpt lat="46.17881" lon="-0.25113">
        <ele>56.7</ele>
        <time>2025-07-11T09:44:17.001000+02:00</time>
      </trkpt>
      <trkpt lat="46.17878" lon="-0.25111">
        <ele>56.6</ele>
        <time>2025-07-11T09:44:18.002000+02:00</time>
      </trkpt>
      <trkpt lat="46.17876" lon="-0.25109">
        <ele>56.6</ele>
        <time>2025-07-11T09:44:19.002000+02:00</time>
      </trkpt>
      <trkpt lat="46.1787" lon="-0.25102">
        <ele>56.6</ele>
        <time>2025-07-11T09:44:21.002000+02:00</time>
      </trkpt>
      <trkpt lat="46.17863" lon="-0.25096">
        <ele>56.6</ele>
        <time>2025-07-11T09:44:23.002000+02:00</time>
      </trkpt>
      <trkpt lat="46.17857" lon="-0.25089">
        <ele>56.7</ele>
        <time>2025-07-11T09:44:25.001000+02:00</time>
      </trkpt>
      <trkpt lat="46.17851" lon="-0.25082">
        <ele>56.6</ele>
        <time>2025-07-11T09:44:27.002000+02:00</time>
      </trkpt>
      <trkpt lat="46.17843" lon="-0.25074">
        <ele>56.2</ele>
        <time>2025-07-11T09:44:29.001000+02:00</time>
      </trkpt>
      <trkpt lat="46.1784" lon="-0.2507">
        <ele>56.1</ele>
        <time>2025-07-11T09:44:30.001000+02:00</time>
      </trkpt>
      <trkpt lat="46.17836" lon="-0.25065">
        <ele>56</ele>
        <time>2025-07-11T09:44:31.003000+02:00</time>
      </trkpt>
      <trkpt lat="46.17829" lon="-0.25055">
        <ele>55.9</ele>
        <time>2025-07-11T09:44:33.001000+02:00</time>
      </trkpt>
      <trkpt lat="46.17826" lon="-0.2505">
        <ele>55.7</ele>
        <time>2025-07-11T09:44:34.001000+02:00</time>
      </trkpt>
      <trkpt lat="46.17822" lon="-0.25045">
        <ele>55.6</ele>
        <time>2025-07-11T09:44:35.001000+02:00</time>
      </trkpt>
      <trkpt lat="46.17816" lon="-0.25033">
        <ele>55.4</ele>
        <time>2025-07-11T09:44:36.999000+02:00</time>
      </trkpt>
      <trkpt lat="46.17814" lon="-0.25027">
        <ele>55.3</ele>
        <time>2025-07-11T09:44:38.001000+02:00</time>
      </trkpt>
      <trkpt lat="46.17811" lon="-0.25021">
        <ele>55.2</ele>
        <time>2025-07-11T09:44:39.001000+02:00</time>
      </trkpt>
      <trkpt lat="46.17809" lon="-0.25016">
        <ele>55.1</ele>
        <time>2025-07-11T09:44:40.002000+02:00</time>
      </trkpt>
      <trkpt lat="46.17804" lon="-0.25004">
        <ele>55</ele>
        <time>2025-07-11T09:44:42+02:00</time>
      </trkpt>
      <trkpt lat="46.17802" lon="-0.24998">
        <ele>55</ele>
        <time>2025-07-11T09:44:43.001000+02:00</time>
      </trkpt>
      <trkpt lat="46.17799" lon="-0.24986">
        <ele>55</ele>
        <time>2025-07-11T09:44:45+02:00</time>
      </trkpt>
      <trkpt lat="46.17797" lon="-0.2498">
        <ele>55</ele>
        <time>2025-07-11T09:44:46+02:00</time>
      </trkpt>
      <trkpt lat="46.17796" lon="-0.24974">
        <ele>55</ele>
        <time>2025-07-11T09:44:47.001000+02:00</time>
      </trkpt>
      <trkpt lat="46.17794" lon="-0.24963">
        <ele>55.1</ele>
        <time>2025-07-11T09:44:49.001000+02:00</time>
      </trkpt>
      <trkpt lat="46.17794" lon="-0.24958">
        <ele>55.2</ele>
        <time>2025-07-11T09:44:50.001000+02:00</time>
      </trkpt>
      <trkpt lat="46.17795" lon="-0.24953">
        <ele>55.3</ele>
        <time>2025-07-11T09:44:51.001000+02:00</time>
      </trkpt>
      <trkpt lat="46.17795" lon="-0.24942">
        <ele>55.4</ele>
        <time>2025-07-11T09:44:52.999000+02:00</time>
      </trkpt>
      <trkpt lat="46.17794" lon="-0.24938">
        <ele>55.6</ele>
        <time>2025-07-11T09:44:54+02:00</time>
      </trkpt>
      <trkpt lat="46.17792" lon="-0.24935">
        <ele>55.6</ele>
        <time>2025-07-11T09:44:55+02:00</time>
      </trkpt>
      <trkpt lat="46.1779" lon="-0.24935">
        <ele>55.7</ele>
        <time>2025-07-11T09:44:56+02:00</time>
      </trkpt>
      <trkpt lat="46.17786" lon="-0.24936">
        <ele>55.8</ele>
        <time>2025-07-11T09:44:57+02:00</time>
      </trkpt>
      <trkpt lat="46.17783" lon="-0.24937">
        <ele>55.9</ele>
        <time>2025-07-11T09:44:58+02:00</time>
      </trkpt>
      <trkpt lat="46.17775" lon="-0.24938">
        <ele>55.9</ele>
        <time>2025-07-11T09:45:00+02:00</time>
      </trkpt>
      <trkpt lat="46.17767" lon="-0.24939">
        <ele>55.7</ele>
        <time>2025-07-11T09:45:02.002000+02:00</time>
      </trkpt>
      <trkpt lat="46.17759" lon="-0.24939">
        <ele>55.4</ele>
        <time>2025-07-11T09:45:04+02:00</time>
      </trkpt>
      <trkpt lat="46.17754" lon="-0.2494">
        <ele>55.3</ele>
        <time>2025-07-11T09:45:05.001000+02:00</time>
      </trkpt>
      <trkpt lat="46.1775" lon="-0.2494">
        <ele>55.2</ele>
        <time>2025-07-11T09:45:06.003000+02:00</time>
      </trkpt>
      <trkpt lat="46.17746" lon="-0.24941">
        <ele>55.3</ele>
        <time>2025-07-11T09:45:07.003000+02:00</time>
      </trkpt>
      <trkpt lat="46.17738" lon="-0.24942">
        <ele>55.5</ele>
        <time>2025-07-11T09:45:09.002000+02:00</time>
      </trkpt>
      <trkpt lat="46.17729" lon="-0.2494">
        <ele>55.8</ele>
        <time>2025-07-11T09:45:11+02:00</time>
      </trkpt>
      <trkpt lat="46.17726" lon="-0.24936">
        <ele>55.9</ele>
        <time>2025-07-11T09:45:12+02:00</time>
      </trkpt>
      <trkpt lat="46.17723" lon="-0.24932">
        <ele>56</ele>
        <time>2025-07-11T09:45:13+02:00</time>
      </trkpt>
      <trkpt lat="46.17719" lon="-0.24922">
        <ele>56</ele>
        <time>2025-07-11T09:45:15.002000+02:00</time>
      </trkpt>
      <trkpt lat="46.17714" lon="-0.24913">
        <ele>56</ele>
        <time>2025-07-11T09:45:16.999000+02:00</time>
      </trkpt>
      <trkpt lat="46.17712" lon="-0.24909">
        <ele>56.1</ele>
        <time>2025-07-11T09:45:18.001000+02:00</time>
      </trkpt>
      <trkpt lat="46.1771" lon="-0.24905">
        <ele>56.2</ele>
        <time>2025-07-11T09:45:19.001000+02:00</time>
      </trkpt>
      <trkpt lat="46.17705" lon="-0.24895">
        <ele>56.5</ele>
        <time>2025-07-11T09:45:21+02:00</time>
      </trkpt>
      <trkpt lat="46.17703" lon="-0.24891">
        <ele>56.6</ele>
        <time>2025-07-11T09:45:22.001000+02:00</time>
      </trkpt>
      <trkpt lat="46.17701" lon="-0.24887">
        <ele>56.8</ele>
        <time>2025-07-11T09:45:23.001000+02:00</time>
      </trkpt>
      <trkpt lat="46.17696" lon="-0.24879">
        <ele>56.9</ele>
        <time>2025-07-11T09:45:25.001000+02:00</time>
      </trkpt>
      <trkpt lat="46.17692" lon="-0.24869">
        <ele>57</ele>
        <time>2025-07-11T09:45:27.002000+02:00</time>
      </trkpt>
      <trkpt lat="46.1769" lon="-0.2486">
        <ele>57</ele>
        <time>2025-07-11T09:45:29.001000+02:00</time>
      </trkpt>
      <trkpt lat="46.1769" lon="-0.24853">
        <ele>57</ele>
        <time>2025-07-11T09:45:31.001000+02:00</time>
      </trkpt>
      <trkpt lat="46.17691" lon="-0.24848">
        <ele>57</ele>
        <time>2025-07-11T09:45:32.002000+02:00</time>
      </trkpt>
      <trkpt lat="46.17692" lon="-0.24842">
        <ele>57</ele>
        <time>2025-07-11T09:45:33.002000+02:00</time>
      </trkpt>
      <trkpt lat="46.17695" lon="-0.24832">
        <ele>57</ele>
        <time>2025-07-11T09:45:35.002000+02:00</time>
      </trkpt>
      <trkpt lat="46.17696" lon="-0.24822">
        <ele>57</ele>
        <time>2025-07-11T09:45:37.001000+02:00</time>
      </trkpt>
      <trkpt lat="46.17695" lon="-0.24816">
        <ele>57</ele>
        <time>2025-07-11T09:45:38.001000+02:00</time>
      </trkpt>
      <trkpt lat="46.17694" lon="-0.24811">
        <ele>57</ele>
        <time>2025-07-11T09:45:39.001000+02:00</time>
      </trkpt>
      <trkpt lat="46.17692" lon="-0.24801">
        <ele>57</ele>
        <time>2025-07-11T09:45:41.001000+02:00</time>
      </trkpt>
      <trkpt lat="46.17689" lon="-0.2479">
        <ele>57.1</ele>
        <time>2025-07-11T09:45:43.001000+02:00</time>
      </trkpt>
      <trkpt lat="46.17685" lon="-0.2478">
        <ele>57.3</ele>
        <time>2025-07-11T09:45:45.001000+02:00</time>
      </trkpt>
      <trkpt lat="46.17684" lon="-0.24775">
        <ele>57.4</ele>
        <time>2025-07-11T09:45:46.001000+02:00</time>
      </trkpt>
      <trkpt lat="46.1768" lon="-0.24764">
        <ele>57.5</ele>
        <time>2025-07-11T09:45:48.006000+02:00</time>
      </trkpt>
      <trkpt lat="46.17677" lon="-0.24755">
        <ele>57.6</ele>
        <time>2025-07-11T09:45:50.002000+02:00</time>
      </trkpt>
      <trkpt lat="46.17675" lon="-0.2475">
        <ele>57.7</ele>
        <time>2025-07-11T09:45:51.003000+02:00</time>
      </trkpt>
      <trkpt lat="46.17672" lon="-0.2474">
        <ele>57.8</ele>
        <time>2025-07-11T09:45:52.999000+02:00</time>
      </trkpt>
      <trkpt lat="46.1767" lon="-0.24736">
        <ele>57.9</ele>
        <time>2025-07-11T09:45:54+02:00</time>
      </trkpt>
      <trkpt lat="46.17668" lon="-0.24731">
        <ele>58</ele>
        <time>2025-07-11T09:45:55.001000+02:00</time>
      </trkpt>
      <trkpt lat="46.17663" lon="-0.24722">
        <ele>58</ele>
        <time>2025-07-11T09:45:57.001000+02:00</time>
      </trkpt>
      <trkpt lat="46.17658" lon="-0.24713">
        <ele>57.8</ele>
        <time>2025-07-11T09:45:59+02:00</time>
      </trkpt>
      <trkpt lat="46.17656" lon="-0.24709">
        <ele>57.7</ele>
        <time>2025-07-11T09:46:00.001000+02:00</time>
      </trkpt>
      <trkpt lat="46.17653" lon="-0.24704">
        <ele>57.7</ele>
        <time>2025-07-11T09:46:01.001000+02:00</time>
      </trkpt>
      <trkpt lat="46.17651" lon="-0.247">
        <ele>57.7</ele>
        <time>2025-07-11T09:46:02.001000+02:00</time>
      </trkpt>
      <trkpt lat="46.17645" lon="-0.2469">
        <ele>57.7</ele>
        <time>2025-07-11T09:46:04.001000+02:00</time>
      </trkpt>
      <trkpt lat="46.1764" lon="-0.24681">
        <ele>57.5</ele>
        <time>2025-07-11T09:46:06.002000+02:00</time>
      </trkpt>
      <trkpt lat="46.17635" lon="-0.2467">
        <ele>57.1</ele>
        <time>2025-07-11T09:46:08.001000+02:00</time>
      </trkpt>
      <trkpt lat="46.17633" lon="-0.24665">
        <ele>56.9</ele>
        <time>2025-07-11T09:46:09.001000+02:00</time>
      </trkpt>
      <trkpt lat="46.17631" lon="-0.24659">
        <ele>56.8</ele>
        <time>2025-07-11T09:46:10.001000+02:00</time>
      </trkpt>
      <trkpt lat="46.17629" lon="-0.24655">
        <ele>56.7</ele>
        <time>2025-07-11T09:46:11.001000+02:00</time>
      </trkpt>
      <trkpt lat="46.17624" lon="-0.24645">
        <ele>56.6</ele>
        <time>2025-07-11T09:46:13+02:00</time>
      </trkpt>
      <trkpt lat="46.17622" lon="-0.24639">
        <ele>56.6</ele>
        <time>2025-07-11T09:46:14.001000+02:00</time>
      </trkpt>
      <trkpt lat="46.1762" lon="-0.24634">
        <ele>56.7</ele>
        <time>2025-07-11T09:46:15.002000+02:00</time>
      </trkpt>
      <trkpt lat="46.17614" lon="-0.24622">
        <ele>56.9</ele>
        <time>2025-07-11T09:46:17+02:00</time>
      </trkpt>
      <trkpt lat="46.17612" lon="-0.24617">
        <ele>57</ele>
        <time>2025-07-11T09:46:18+02:00</time>
      </trkpt>
      <trkpt lat="46.17606" lon="-0.24605">
        <ele>56.8</ele>
        <time>2025-07-11T09:46:19.999000+02:00</time>
      </trkpt>
      <trkpt lat="46.17603" lon="-0.246">
        <ele>56.6</ele>
        <time>2025-07-11T09:46:21.001000+02:00</time>
      </trkpt>
      <trkpt lat="46.17597" lon="-0.2459">
        <ele>56.2</ele>
        <time>2025-07-11T09:46:23.003000+02:00</time>
      </trkpt>
      <trkpt lat="46.1759" lon="-0.24578">
        <ele>56</ele>
        <time>2025-07-11T09:46:25.001000+02:00</time>
      </trkpt>
      <trkpt lat="46.17588" lon="-0.24573">
        <ele>56</ele>
        <time>2025-07-11T09:46:26.001000+02:00</time>
      </trkpt>
      <trkpt lat="46.17585" lon="-0.24568">
        <ele>56</ele>
        <time>2025-07-11T09:46:27.002000+02:00</time>
      </trkpt>
      <trkpt lat="46.17582" lon="-0.24562">
        <ele>56</ele>
        <time>2025-07-11T09:46:28.002000+02:00</time>
      </trkpt>
      <trkpt lat="46.17576" lon="-0.24553">
        <ele>56</ele>
        <time>2025-07-11T09:46:30+02:00</time>
      </trkpt>
      <trkpt lat="46.17574" lon="-0.24549">
        <ele>56</ele>
        <time>2025-07-11T09:46:31.002000+02:00</time>
      </trkpt>
      <trkpt lat="46.1757" lon="-0.24541">
        <ele>56</ele>
        <time>2025-07-11T09:46:33.004000+02:00</time>
      </trkpt>
      <trkpt lat="46.17568" lon="-0.24536">
        <ele>56</ele>
        <time>2025-07-11T09:46:35.001000+02:00</time>
      </trkpt>
      <trkpt lat="46.1757" lon="-0.2453">
        <ele>56</ele>
        <time>2025-07-11T09:46:37+02:00</time>
      </trkpt>
      <trkpt lat="46.17572" lon="-0.24527">
        <ele>56</ele>
        <time>2025-07-11T09:46:38.001000+02:00</time>
      </trkpt>
      <trkpt lat="46.17574" lon="-0.24525">
        <ele>56</ele>
        <time>2025-07-11T09:46:39.001000+02:00</time>
      </trkpt>
      <trkpt lat="46.17578" lon="-0.24519">
        <ele>56</ele>
        <time>2025-07-11T09:46:41+02:00</time>
      </trkpt>
      <trkpt lat="46.1758" lon="-0.24516">
        <ele>56</ele>
        <time>2025-07-11T09:46:42.001000+02:00</time>
      </trkpt>
      <trkpt lat="46.17585" lon="-0.24511">
        <ele>56</ele>
        <time>2025-07-11T09:46:44.003000+02:00</time>
      </trkpt>
      <trkpt lat="46.17589" lon="-0.24506">
        <ele>56</ele>
        <time>2025-07-11T09:46:46+02:00</time>
      </trkpt>
      <trkpt lat="46.17591" lon="-0.24503">
        <ele>56</ele>
        <time>2025-07-11T09:46:47+02:00</time>
      </trkpt>
      <trkpt lat="46.17593" lon="-0.24501">
        <ele>56</ele>
        <time>2025-07-11T09:46:48.001000+02:00</time>
      </trkpt>
      <trkpt lat="46.17597" lon="-0.24495">
        <ele>56</ele>
        <time>2025-07-11T09:46:49.999000+02:00</time>
      </trkpt>
      <trkpt lat="46.17599" lon="-0.24492">
        <ele>56</ele>
        <time>2025-07-11T09:46:51.002000+02:00</time>
      </trkpt>
      <trkpt lat="46.17605" lon="-0.24486">
        <ele>56</ele>
        <time>2025-07-11T09:46:53.001000+02:00</time>
      </trkpt>
      <trkpt lat="46.17611" lon="-0.2448">
        <ele>56</ele>
        <time>2025-07-11T09:46:55+02:00</time>
      </trkpt>
      <trkpt lat="46.17613" lon="-0.24477">
        <ele>56.1</ele>
        <time>2025-07-11T09:46:56+02:00</time>
      </trkpt>
      <trkpt lat="46.17615" lon="-0.24474">
        <ele>56.1</ele>
        <time>2025-07-11T09:46:57.001000+02:00</time>
      </trkpt>
      <trkpt lat="46.17619" lon="-0.24468">
        <ele>56.4</ele>
        <time>2025-07-11T09:46:59.001000+02:00</time>
      </trkpt>
      <trkpt lat="46.17621" lon="-0.24466">
        <ele>56.6</ele>
        <time>2025-07-11T09:47:00.002000+02:00</time>
      </trkpt>
      <trkpt lat="46.17623" lon="-0.24463">
        <ele>56.8</ele>
        <time>2025-07-11T09:47:01.002000+02:00</time>
      </trkpt>
      <trkpt lat="46.17629" lon="-0.24458">
        <ele>57.2</ele>
        <time>2025-07-11T09:47:03.001000+02:00</time>
      </trkpt>
      <trkpt lat="46.17633" lon="-0.24454">
        <ele>57.5</ele>
        <time>2025-07-11T09:47:05.001000+02:00</time>
      </trkpt>
      <trkpt lat="46.17635" lon="-0.24452">
        <ele>57.6</ele>
        <time>2025-07-11T09:47:06.001000+02:00</time>
      </trkpt>
      <trkpt lat="46.17639" lon="-0.24449">
        <ele>57.9</ele>
        <time>2025-07-11T09:47:08.001000+02:00</time>
      </trkpt>
      <trkpt lat="46.17641" lon="-0.24447">
        <ele>58.1</ele>
        <time>2025-07-11T09:47:09.001000+02:00</time>
      </trkpt>
      <trkpt lat="46.17646" lon="-0.24442">
        <ele>58.6</ele>
        <time>2025-07-11T09:47:11+02:00</time>
      </trkpt>
      <trkpt lat="46.17649" lon="-0.24438">
        <ele>59.1</ele>
        <time>2025-07-11T09:47:13+02:00</time>
      </trkpt>
      <trkpt lat="46.17651" lon="-0.24436">
        <ele>59.3</ele>
        <time>2025-07-11T09:47:14+02:00</time>
      </trkpt>
      <trkpt lat="46.17652" lon="-0.24434">
        <ele>59.5</ele>
        <time>2025-07-11T09:47:15.001000+02:00</time>
      </trkpt>
      <trkpt lat="46.17656" lon="-0.2443">
        <ele>60</ele>
        <time>2025-07-11T09:47:17+02:00</time>
      </trkpt>
      <trkpt lat="46.17658" lon="-0.24428">
        <ele>60.4</ele>
        <time>2025-07-11T09:47:18.001000+02:00</time>
      </trkpt>
      <trkpt lat="46.1766" lon="-0.24426">
        <ele>60.7</ele>
        <time>2025-07-11T09:47:19.002000+02:00</time>
      </trkpt>
      <trkpt lat="46.17661" lon="-0.24425">
        <ele>60.9</ele>
        <time>2025-07-11T09:47:20.003000+02:00</time>
      </trkpt>
      <trkpt lat="46.17665" lon="-0.24423">
        <ele>61.4</ele>
        <time>2025-07-11T09:47:22+02:00</time>
      </trkpt>
      <trkpt lat="46.17667" lon="-0.24422">
        <ele>61.7</ele>
        <time>2025-07-11T09:47:23.001000+02:00</time>
      </trkpt>
      <trkpt lat="46.1767" lon="-0.24419">
        <ele>62.2</ele>
        <time>2025-07-11T09:47:25.001000+02:00</time>
      </trkpt>
      <trkpt lat="46.17673" lon="-0.24418">
        <ele>62.6</ele>
        <time>2025-07-11T09:47:27.001000+02:00</time>
      </trkpt>
      <trkpt lat="46.17674" lon="-0.24418">
        <ele>62.8</ele>
        <time>2025-07-11T09:47:28.002000+02:00</time>
      </trkpt>
      <trkpt lat="46.17678" lon="-0.24416">
        <ele>63.2</ele>
        <time>2025-07-11T09:47:29.999000+02:00</time>
      </trkpt>
      <trkpt lat="46.1768" lon="-0.24415">
        <ele>63.5</ele>
        <time>2025-07-11T09:47:31+02:00</time>
      </trkpt>
      <trkpt lat="46.17684" lon="-0.24415">
        <ele>63.9</ele>
        <time>2025-07-11T09:47:33+02:00</time>
      </trkpt>
      <trkpt lat="46.17686" lon="-0.24415">
        <ele>64.1</ele>
        <time>2025-07-11T09:47:34+02:00</time>
      </trkpt>
      <trkpt lat="46.17688" lon="-0.24416">
        <ele>64.3</ele>
        <time>2025-07-11T09:47:35.001000+02:00</time>
      </trkpt>
      <trkpt lat="46.1769" lon="-0.24416">
        <ele>64.5</ele>
        <time>2025-07-11T09:47:36.001000+02:00</time>
      </trkpt>
      <trkpt lat="46.17691" lon="-0.24415">
        <ele>64.7</ele>
        <time>2025-07-11T09:47:37.001000+02:00</time>
      </trkpt>
      <trkpt lat="46.17692" lon="-0.24415">
        <ele>64.9</ele>
        <time>2025-07-11T09:47:38.001000+02:00</time>
      </trkpt>
      <trkpt lat="46.17694" lon="-0.24414">
        <ele>65.1</ele>
        <time>2025-07-11T09:47:39.001000+02:00</time>
      </trkpt>
      <trkpt lat="46.17699" lon="-0.24413">
        <ele>65.4</ele>
        <time>2025-07-11T09:47:41+02:00</time>
      </trkpt>
      <trkpt lat="46.177" lon="-0.24411">
        <ele>65.6</ele>
        <time>2025-07-11T09:47:42+02:00</time>
      </trkpt>
      <trkpt lat="46.17702" lon="-0.2441">
        <ele>65.7</ele>
        <time>2025-07-11T09:47:43+02:00</time>
      </trkpt>
      <trkpt lat="46.17704" lon="-0.24408">
        <ele>65.9</ele>
        <time>2025-07-11T09:47:44+02:00</time>
      </trkpt>
      <trkpt lat="46.17705" lon="-0.24406">
        <ele>66</ele>
        <time>2025-07-11T09:47:45.001000+02:00</time>
      </trkpt>
      <trkpt lat="46.17709" lon="-0.24403">
        <ele>66.3</ele>
        <time>2025-07-11T09:47:47.001000+02:00</time>
      </trkpt>
      <trkpt lat="46.17713" lon="-0.24399">
        <ele>66.5</ele>
        <time>2025-07-11T09:47:49.001000+02:00</time>
      </trkpt>
      <trkpt lat="46.17717" lon="-0.24395">
        <ele>66.8</ele>
        <time>2025-07-11T09:47:51.003000+02:00</time>
      </trkpt>
      <trkpt lat="46.1772" lon="-0.24391">
        <ele>66.9</ele>
        <time>2025-07-11T09:47:52.999000+02:00</time>
      </trkpt>
      <trkpt lat="46.17722" lon="-0.2439">
        <ele>67</ele>
        <time>2025-07-11T09:47:54.003000+02:00</time>
      </trkpt>
      <trkpt lat="46.17726" lon="-0.24387">
        <ele>66.9</ele>
        <time>2025-07-11T09:47:56.003000+02:00</time>
      </trkpt>
      <trkpt lat="46.1773" lon="-0.24384">
        <ele>66.8</ele>
        <time>2025-07-11T09:47:58+02:00</time>
      </trkpt>
      <trkpt lat="46.17735" lon="-0.24381">
        <ele>66.7</ele>
        <time>2025-07-11T09:47:59.999000+02:00</time>
      </trkpt>
      <trkpt lat="46.17738" lon="-0.24379">
        <ele>66.7</ele>
        <time>2025-07-11T09:48:01.002000+02:00</time>
      </trkpt>
      <trkpt lat="46.17743" lon="-0.24374">
        <ele>66.6</ele>
        <time>2025-07-11T09:48:03.001000+02:00</time>
      </trkpt>
      <trkpt lat="46.1775" lon="-0.24369">
        <ele>66.5</ele>
        <time>2025-07-11T09:48:05+02:00</time>
      </trkpt>
      <trkpt lat="46.17752" lon="-0.24366">
        <ele>66.3</ele>
        <time>2025-07-11T09:48:06.001000+02:00</time>
      </trkpt>
      <trkpt lat="46.17759" lon="-0.24363">
        <ele>66.1</ele>
        <time>2025-07-11T09:48:08.001000+02:00</time>
      </trkpt>
      <trkpt lat="46.17763" lon="-0.24361">
        <ele>66</ele>
        <time>2025-07-11T09:48:09.001000+02:00</time>
      </trkpt>
      <trkpt lat="46.1777" lon="-0.24357">
        <ele>65.2</ele>
        <time>2025-07-11T09:48:11.001000+02:00</time>
      </trkpt>
      <trkpt lat="46.17774" lon="-0.24354">
        <ele>64.8</ele>
        <time>2025-07-11T09:48:12.001000+02:00</time>
      </trkpt>
      <trkpt lat="46.17781" lon="-0.24349">
        <ele>64.5</ele>
        <time>2025-07-11T09:48:13.999000+02:00</time>
      </trkpt>
      <trkpt lat="46.17784" lon="-0.24346">
        <ele>64.4</ele>
        <time>2025-07-11T09:48:15.002000+02:00</time>
      </trkpt>
      <trkpt lat="46.1779" lon="-0.2434">
        <ele>64.4</ele>
        <time>2025-07-11T09:48:17+02:00</time>
      </trkpt>
      <trkpt lat="46.17794" lon="-0.24336">
        <ele>64.5</ele>
        <time>2025-07-11T09:48:18.003000+02:00</time>
      </trkpt>
      <trkpt lat="46.17801" lon="-0.24329">
        <ele>64.8</ele>
        <time>2025-07-11T09:48:20.001000+02:00</time>
      </trkpt>
      <trkpt lat="46.17804" lon="-0.24326">
        <ele>65</ele>
        <time>2025-07-11T09:48:21.002000+02:00</time>
      </trkpt>
      <trkpt lat="46.17812" lon="-0.24318">
        <ele>64.8</ele>
        <time>2025-07-11T09:48:23.001000+02:00</time>
      </trkpt>
      <trkpt lat="46.17816" lon="-0.24314">
        <ele>64.8</ele>
        <time>2025-07-11T09:48:24.004000+02:00</time>
      </trkpt>
      <trkpt lat="46.17822" lon="-0.24305">
        <ele>64.7</ele>
        <time>2025-07-11T09:48:26+02:00</time>
      </trkpt>
      <trkpt lat="46.17825" lon="-0.24301">
        <ele>64.7</ele>
        <time>2025-07-11T09:48:27.002000+02:00</time>
      </trkpt>
      <trkpt lat="46.1783" lon="-0.24293">
        <ele>64.9</ele>
        <time>2025-07-11T09:48:29+02:00</time>
      </trkpt>
      <trkpt lat="46.17832" lon="-0.24289">
        <ele>65.1</ele>
        <time>2025-07-11T09:48:30.001000+02:00</time>
      </trkpt>
      <trkpt lat="46.17835" lon="-0.24284">
        <ele>65.2</ele>
        <time>2025-07-11T09:48:31.001000+02:00</time>
      </trkpt>
      <trkpt lat="46.17837" lon="-0.2428">
        <ele>65.1</ele>
        <time>2025-07-11T09:48:32.001000+02:00</time>
      </trkpt>
      <trkpt lat="46.17838" lon="-0.24276">
        <ele>64.8</ele>
        <time>2025-07-11T09:48:33.001000+02:00</time>
      </trkpt>
      <trkpt lat="46.17843" lon="-0.24265">
        <ele>63.8</ele>
        <time>2025-07-11T09:48:35+02:00</time>
      </trkpt>
      <trkpt lat="46.17845" lon="-0.2426">
        <ele>63.5</ele>
        <time>2025-07-11T09:48:36.002000+02:00</time>
      </trkpt>
      <trkpt lat="46.1785" lon="-0.24248">
        <ele>63.2</ele>
        <time>2025-07-11T09:48:37.999000+02:00</time>
      </trkpt>
      <trkpt lat="46.17852" lon="-0.24242">
        <ele>63.1</ele>
        <time>2025-07-11T09:48:39.001000+02:00</time>
      </trkpt>
      <trkpt lat="46.17857" lon="-0.24231">
        <ele>63.3</ele>
        <time>2025-07-11T09:48:41+02:00</time>
      </trkpt>
      <trkpt lat="46.17862" lon="-0.24218">
        <ele>63.6</ele>
        <time>2025-07-11T09:48:43+02:00</time>
      </trkpt>
      <trkpt lat="46.17865" lon="-0.24212">
        <ele>63</ele>
        <time>2025-07-11T09:48:44.001000+02:00</time>
      </trkpt>
      <trkpt lat="46.17867" lon="-0.24205">
        <ele>62.5</ele>
        <time>2025-07-11T09:48:45.001000+02:00</time>
      </trkpt>
      <trkpt lat="46.17872" lon="-0.24191">
        <ele>62</ele>
        <time>2025-07-11T09:48:47.002000+02:00</time>
      </trkpt>
      <trkpt lat="46.17877" lon="-0.24179">
        <ele>62.1</ele>
        <time>2025-07-11T09:48:49.001000+02:00</time>
      </trkpt>
      <trkpt lat="46.17879" lon="-0.24173">
        <ele>62.2</ele>
        <time>2025-07-11T09:48:50.001000+02:00</time>
      </trkpt>
      <trkpt lat="46.17882" lon="-0.24167">
        <ele>62.3</ele>
        <time>2025-07-11T09:48:51.002000+02:00</time>
      </trkpt>
      <trkpt lat="46.17887" lon="-0.24156">
        <ele>62.8</ele>
        <time>2025-07-11T09:48:53.001000+02:00</time>
      </trkpt>
      <trkpt lat="46.17893" lon="-0.24144">
        <ele>63.1</ele>
        <time>2025-07-11T09:48:55.006000+02:00</time>
      </trkpt>
      <trkpt lat="46.17897" lon="-0.24136">
        <ele>63.2</ele>
        <time>2025-07-11T09:48:57.003000+02:00</time>
      </trkpt>
      <trkpt lat="46.179" lon="-0.24126">
        <ele>62.9</ele>
        <time>2025-07-11T09:48:59+02:00</time>
      </trkpt>
      <trkpt lat="46.17901" lon="-0.24122">
        <ele>62.8</ele>
        <time>2025-07-11T09:49:00.001000+02:00</time>
      </trkpt>
      <trkpt lat="46.17901" lon="-0.24115">
        <ele>62.6</ele>
        <time>2025-07-11T09:49:02.003000+02:00</time>
      </trkpt>
      <trkpt lat="46.17901" lon="-0.24111">
        <ele>62.4</ele>
        <time>2025-07-11T09:49:04+02:00</time>
      </trkpt>
      <trkpt lat="46.17901" lon="-0.24108">
        <ele>62.5</ele>
        <time>2025-07-11T09:49:05+02:00</time>
      </trkpt>
      <trkpt lat="46.17901" lon="-0.24106">
        <ele>62.6</ele>
        <time>2025-07-11T09:49:06+02:00</time>
      </trkpt>
      <trkpt lat="46.17901" lon="-0.24102">
        <ele>62.7</ele>
        <time>2025-07-11T09:49:07+02:00</time>
      </trkpt>
      <trkpt lat="46.17901" lon="-0.24099">
        <ele>62.8</ele>
        <time>2025-07-11T09:49:08+02:00</time>
      </trkpt>
      <trkpt lat="46.17901" lon="-0.24096">
        <ele>62.9</ele>
        <time>2025-07-11T09:49:09.002000+02:00</time>
      </trkpt>
      <trkpt lat="46.17901" lon="-0.24094">
        <ele>63</ele>
        <time>2025-07-11T09:49:10.002000+02:00</time>
      </trkpt>
      <trkpt lat="46.17901" lon="-0.24091">
        <ele>63</ele>
        <time>2025-07-11T09:49:11.002000+02:00</time>
      </trkpt>
      <trkpt lat="46.17901" lon="-0.24088">
        <ele>63.1</ele>
        <time>2025-07-11T09:49:12.002000+02:00</time>
      </trkpt>
      <trkpt lat="46.17902" lon="-0.24081">
        <ele>63.6</ele>
        <time>2025-07-11T09:49:13.999000+02:00</time>
      </trkpt>
      <trkpt lat="46.17902" lon="-0.24078">
        <ele>63.8</ele>
        <time>2025-07-11T09:49:15+02:00</time>
      </trkpt>
      <trkpt lat="46.17902" lon="-0.24074">
        <ele>64</ele>
        <time>2025-07-11T09:49:16+02:00</time>
      </trkpt>
      <trkpt lat="46.17903" lon="-0.24066">
        <ele>64.8</ele>
        <time>2025-07-11T09:49:18.001000+02:00</time>
      </trkpt>
      <trkpt lat="46.17903" lon="-0.24057">
        <ele>65.5</ele>
        <time>2025-07-11T09:49:20+02:00</time>
      </trkpt>
      <trkpt lat="46.17904" lon="-0.24053">
        <ele>65.7</ele>
        <time>2025-07-11T09:49:21.001000+02:00</time>
      </trkpt>
      <trkpt lat="46.17904" lon="-0.24049">
        <ele>65.8</ele>
        <time>2025-07-11T09:49:22.001000+02:00</time>
      </trkpt>
      <trkpt lat="46.17904" lon="-0.24048">
        <ele>65.9</ele>
        <time>2025-07-11T09:49:23.057000+02:00</time>
      </trkpt>
      <trkpt lat="46.17904" lon="-0.24036">
        <ele>66.3</ele>
        <time>2025-07-11T09:49:25+02:00</time>
      </trkpt>
      <trkpt lat="46.17903" lon="-0.24032">
        <ele>66.4</ele>
        <time>2025-07-11T09:49:26+02:00</time>
      </trkpt>
      <trkpt lat="46.17903" lon="-0.24028">
        <ele>66.5</ele>
        <time>2025-07-11T09:49:27.001000+02:00</time>
      </trkpt>
      <trkpt lat="46.17904" lon="-0.24021">
        <ele>66.7</ele>
        <time>2025-07-11T09:49:28.999000+02:00</time>
      </trkpt>
      <trkpt lat="46.17904" lon="-0.24017">
        <ele>66.8</ele>
        <time>2025-07-11T09:49:30.001000+02:00</time>
      </trkpt>
      <trkpt lat="46.17904" lon="-0.24008">
        <ele>67</ele>
        <time>2025-07-11T09:49:32+02:00</time>
      </trkpt>
      <trkpt lat="46.17905" lon="-0.24003">
        <ele>67.1</ele>
        <time>2025-07-11T09:49:33.002000+02:00</time>
      </trkpt>
      <trkpt lat="46.17904" lon="-0.23994">
        <ele>67.5</ele>
        <time>2025-07-11T09:49:35+02:00</time>
      </trkpt>
      <trkpt lat="46.17904" lon="-0.2399">
        <ele>67.8</ele>
        <time>2025-07-11T09:49:36+02:00</time>
      </trkpt>
      <trkpt lat="46.17904" lon="-0.23986">
        <ele>68</ele>
        <time>2025-07-11T09:49:37+02:00</time>
      </trkpt>
      <trkpt lat="46.17903" lon="-0.23983">
        <ele>68.3</ele>
        <time>2025-07-11T09:49:38+02:00</time>
      </trkpt>
      <trkpt lat="46.17903" lon="-0.23976">
        <ele>68.7</ele>
        <time>2025-07-11T09:49:40+02:00</time>
      </trkpt>
      <trkpt lat="46.17903" lon="-0.23972">
        <ele>69</ele>
        <time>2025-07-11T09:49:41.002000+02:00</time>
      </trkpt>
      <trkpt lat="46.17904" lon="-0.23964">
        <ele>69</ele>
        <time>2025-07-11T09:49:43+02:00</time>
      </trkpt>
      <trkpt lat="46.17904" lon="-0.2396">
        <ele>69</ele>
        <time>2025-07-11T09:49:44+02:00</time>
      </trkpt>
      <trkpt lat="46.17904" lon="-0.23956">
        <ele>69</ele>
        <time>2025-07-11T09:49:45.001000+02:00</time>
      </trkpt>
      <trkpt lat="46.17904" lon="-0.23952">
        <ele>69</ele>
        <time>2025-07-11T09:49:46.001000+02:00</time>
      </trkpt>
      <trkpt lat="46.17904" lon="-0.23948">
        <ele>69</ele>
        <time>2025-07-11T09:49:47.001000+02:00</time>
      </trkpt>
      <trkpt lat="46.17903" lon="-0.2394">
        <ele>69.2</ele>
        <time>2025-07-11T09:49:49+02:00</time>
      </trkpt>
      <trkpt lat="46.17903" lon="-0.23936">
        <ele>69.3</ele>
        <time>2025-07-11T09:49:50+02:00</time>
      </trkpt>
      <trkpt lat="46.17903" lon="-0.23933">
        <ele>69.4</ele>
        <time>2025-07-11T09:49:51.001000+02:00</time>
      </trkpt>
      <trkpt lat="46.17903" lon="-0.23928">
        <ele>69.6</ele>
        <time>2025-07-11T09:49:53+02:00</time>
      </trkpt>
      <trkpt lat="46.17903" lon="-0.23928">
        <ele>69.6</ele>
        <time>2025-07-11T09:49:54.001000+02:00</time>
      </trkpt>
      <trkpt lat="46.17903" lon="-0.23928">
        <ele>69.6</ele>
        <time>2025-07-11T09:49:56.001000+02:00</time>
      </trkpt>
      <trkpt lat="46.17903" lon="-0.23928">
        <ele>69.6</ele>
        <time>2025-07-11T09:49:58+02:00</time>
      </trkpt>
      <trkpt lat="46.17904" lon="-0.2392">
        <ele>69.9</ele>
        <time>2025-07-11T09:50:13+02:00</time>
      </trkpt>
      <trkpt lat="46.17905" lon="-0.23917">
        <ele>70</ele>
        <time>2025-07-11T09:50:14.001000+02:00</time>
      </trkpt>
      <trkpt lat="46.17905" lon="-0.23913">
        <ele>70</ele>
        <time>2025-07-11T09:50:15.001000+02:00</time>
      </trkpt>
      <trkpt lat="46.17904" lon="-0.23906">
        <ele>70</ele>
        <time>2025-07-11T09:50:17+02:00</time>
      </trkpt>
      <trkpt lat="46.17903" lon="-0.23901">
        <ele>70</ele>
        <time>2025-07-11T09:50:18+02:00</time>
      </trkpt>
      <trkpt lat="46.17902" lon="-0.23897">
        <ele>70</ele>
        <time>2025-07-11T09:50:19.001000+02:00</time>
      </trkpt>
      <trkpt lat="46.17901" lon="-0.23893">
        <ele>70</ele>
        <time>2025-07-11T09:50:20.001000+02:00</time>
      </trkpt>
      <trkpt lat="46.17901" lon="-0.23889">
        <ele>70</ele>
        <time>2025-07-11T09:50:21.001000+02:00</time>
      </trkpt>
      <trkpt lat="46.17899" lon="-0.2388">
        <ele>70.3</ele>
        <time>2025-07-11T09:50:23+02:00</time>
      </trkpt>
      <trkpt lat="46.17898" lon="-0.23876">
        <ele>70.5</ele>
        <time>2025-07-11T09:50:24+02:00</time>
      </trkpt>
      <trkpt lat="46.17894" lon="-0.23867">
        <ele>70.8</ele>
        <time>2025-07-11T09:50:26+02:00</time>
      </trkpt>
      <trkpt lat="46.17893" lon="-0.23863">
        <ele>70.9</ele>
        <time>2025-07-11T09:50:27.001000+02:00</time>
      </trkpt>
      <trkpt lat="46.1789" lon="-0.23854">
        <ele>71.2</ele>
        <time>2025-07-11T09:50:29+02:00</time>
      </trkpt>
      <trkpt lat="46.17888" lon="-0.23851">
        <ele>71.3</ele>
        <time>2025-07-11T09:50:30+02:00</time>
      </trkpt>
      <trkpt lat="46.17886" lon="-0.23847">
        <ele>71.4</ele>
        <time>2025-07-11T09:50:31+02:00</time>
      </trkpt>
      <trkpt lat="46.17884" lon="-0.23844">
        <ele>71.5</ele>
        <time>2025-07-11T09:50:32+02:00</time>
      </trkpt>
      <trkpt lat="46.17883" lon="-0.2384">
        <ele>71.5</ele>
        <time>2025-07-11T09:50:33.002000+02:00</time>
      </trkpt>
      <trkpt lat="46.17878" lon="-0.23834">
        <ele>71.6</ele>
        <time>2025-07-11T09:50:34.999000+02:00</time>
      </trkpt>
      <trkpt lat="46.17876" lon="-0.2383">
        <ele>71.6</ele>
        <time>2025-07-11T09:50:36.002000+02:00</time>
      </trkpt>
      <trkpt lat="46.17871" lon="-0.23823">
        <ele>71.6</ele>
        <time>2025-07-11T09:50:38+02:00</time>
      </trkpt>
      <trkpt lat="46.17868" lon="-0.2382">
        <ele>71.6</ele>
        <time>2025-07-11T09:50:39.001000+02:00</time>
      </trkpt>
      <trkpt lat="46.17866" lon="-0.23817">
        <ele>71.7</ele>
        <time>2025-07-11T09:50:40.001000+02:00</time>
      </trkpt>
      <trkpt lat="46.17861" lon="-0.2381">
        <ele>71.9</ele>
        <time>2025-07-11T09:50:42.001000+02:00</time>
      </trkpt>
      <trkpt lat="46.17858" lon="-0.23805">
        <ele>71.9</ele>
        <time>2025-07-11T09:50:43.001000+02:00</time>
      </trkpt>
      <trkpt lat="46.17856" lon="-0.23801">
        <ele>72</ele>
        <time>2025-07-11T09:50:44.005000+02:00</time>
      </trkpt>
      <trkpt lat="46.17853" lon="-0.23793">
        <ele>72.1</ele>
        <time>2025-07-11T09:50:46+02:00</time>
      </trkpt>
      <trkpt lat="46.17851" lon="-0.2379">
        <ele>72.2</ele>
        <time>2025-07-11T09:50:47+02:00</time>
      </trkpt>
      <trkpt lat="46.17848" lon="-0.23787">
        <ele>72.2</ele>
        <time>2025-07-11T09:50:48.001000+02:00</time>
      </trkpt>
      <trkpt lat="46.17843" lon="-0.23781">
        <ele>72.2</ele>
        <time>2025-07-11T09:50:50+02:00</time>
      </trkpt>
      <trkpt lat="46.17841" lon="-0.23778">
        <ele>72.3</ele>
        <time>2025-07-11T09:50:51.001000+02:00</time>
      </trkpt>
      <trkpt lat="46.17839" lon="-0.23774">
        <ele>72.3</ele>
        <time>2025-07-11T09:50:52.001000+02:00</time>
      </trkpt>
      <trkpt lat="46.17837" lon="-0.2377">
        <ele>72.4</ele>
        <time>2025-07-11T09:50:53.002000+02:00</time>
      </trkpt>
      <trkpt lat="46.17833" lon="-0.23762">
        <ele>72.6</ele>
        <time>2025-07-11T09:50:55+02:00</time>
      </trkpt>
      <trkpt lat="46.17832" lon="-0.23758">
        <ele>72.7</ele>
        <time>2025-07-11T09:50:56.001000+02:00</time>
      </trkpt>
      <trkpt lat="46.17831" lon="-0.23754">
        <ele>72.8</ele>
        <time>2025-07-11T09:50:57.001000+02:00</time>
      </trkpt>
      <trkpt lat="46.17831" lon="-0.23744">
        <ele>73</ele>
        <time>2025-07-11T09:50:58.999000+02:00</time>
      </trkpt>
      <trkpt lat="46.17833" lon="-0.2374">
        <ele>73</ele>
        <time>2025-07-11T09:51:00+02:00</time>
      </trkpt>
      <trkpt lat="46.17834" lon="-0.23735">
        <ele>73</ele>
        <time>2025-07-11T09:51:01+02:00</time>
      </trkpt>
      <trkpt lat="46.17838" lon="-0.23727">
        <ele>73.1</ele>
        <time>2025-07-11T09:51:03.001000+02:00</time>
      </trkpt>
      <trkpt lat="46.17843" lon="-0.23719">
        <ele>73.4</ele>
        <time>2025-07-11T09:51:05+02:00</time>
      </trkpt>
      <trkpt lat="46.17848" lon="-0.23711">
        <ele>73.7</ele>
        <time>2025-07-11T09:51:07.001000+02:00</time>
      </trkpt>
      <trkpt lat="46.17852" lon="-0.23701">
        <ele>73.9</ele>
        <time>2025-07-11T09:51:09.002000+02:00</time>
      </trkpt>
      <trkpt lat="46.17855" lon="-0.23692">
        <ele>74</ele>
        <time>2025-07-11T09:51:11+02:00</time>
      </trkpt>
      <trkpt lat="46.17856" lon="-0.23687">
        <ele>74</ele>
        <time>2025-07-11T09:51:12+02:00</time>
      </trkpt>
      <trkpt lat="46.17856" lon="-0.23682">
        <ele>74.1</ele>
        <time>2025-07-11T09:51:13.001000+02:00</time>
      </trkpt>
      <trkpt lat="46.17852" lon="-0.23674">
        <ele>74.2</ele>
        <time>2025-07-11T09:51:15.001000+02:00</time>
      </trkpt>
      <trkpt lat="46.17851" lon="-0.2367">
        <ele>74.3</ele>
        <time>2025-07-11T09:51:16.001000+02:00</time>
      </trkpt>
      <trkpt lat="46.17847" lon="-0.23664">
        <ele>74.6</ele>
        <time>2025-07-11T09:51:18.001000+02:00</time>
      </trkpt>
      <trkpt lat="46.17844" lon="-0.23661">
        <ele>74.7</ele>
        <time>2025-07-11T09:51:19.001000+02:00</time>
      </trkpt>
      <trkpt lat="46.17842" lon="-0.23659">
        <ele>74.8</ele>
        <time>2025-07-11T09:51:20.001000+02:00</time>
      </trkpt>
      <trkpt lat="46.17836" lon="-0.23653">
        <ele>74.9</ele>
        <time>2025-07-11T09:51:22+02:00</time>
      </trkpt>
      <trkpt lat="46.17834" lon="-0.23651">
        <ele>75</ele>
        <time>2025-07-11T09:51:23+02:00</time>
      </trkpt>
      <trkpt lat="46.17831" lon="-0.23648">
        <ele>75</ele>
        <time>2025-07-11T09:51:24.003000+02:00</time>
      </trkpt>
      <trkpt lat="46.17827" lon="-0.23643">
        <ele>75</ele>
        <time>2025-07-11T09:51:26.002000+02:00</time>
      </trkpt>
      <trkpt lat="46.17823" lon="-0.23635">
        <ele>75.1</ele>
        <time>2025-07-11T09:51:28.001000+02:00</time>
      </trkpt>
      <trkpt lat="46.17822" lon="-0.23631">
        <ele>75.2</ele>
        <time>2025-07-11T09:51:29.001000+02:00</time>
      </trkpt>
      <trkpt lat="46.1782" lon="-0.23626">
        <ele>75.3</ele>
        <time>2025-07-11T09:51:30.001000+02:00</time>
      </trkpt>
      <trkpt lat="46.1782" lon="-0.23621">
        <ele>75.3</ele>
        <time>2025-07-11T09:51:31.001000+02:00</time>
      </trkpt>
      <trkpt lat="46.1782" lon="-0.23616">
        <ele>75.4</ele>
        <time>2025-07-11T09:51:32.001000+02:00</time>
      </trkpt>
      <trkpt lat="46.1782" lon="-0.23611">
        <ele>75.5</ele>
        <time>2025-07-11T09:51:33.001000+02:00</time>
      </trkpt>
      <trkpt lat="46.17822" lon="-0.23601">
        <ele>75.4</ele>
        <time>2025-07-11T09:51:35.003000+02:00</time>
      </trkpt>
      <trkpt lat="46.17823" lon="-0.23592">
        <ele>75.2</ele>
        <time>2025-07-11T09:51:37.001000+02:00</time>
      </trkpt>
      <trkpt lat="46.17823" lon="-0.23587">
        <ele>75.1</ele>
        <time>2025-07-11T09:51:38.001000+02:00</time>
      </trkpt>
      <trkpt lat="46.17823" lon="-0.23583">
        <ele>75</ele>
        <time>2025-07-11T09:51:39.001000+02:00</time>
      </trkpt>
      <trkpt lat="46.17824" lon="-0.23578">
        <ele>75.1</ele>
        <time>2025-07-11T09:51:40.001000+02:00</time>
      </trkpt>
      <trkpt lat="46.17826" lon="-0.23568">
        <ele>75.4</ele>
        <time>2025-07-11T09:51:42.001000+02:00</time>
      </trkpt>
      <trkpt lat="46.17829" lon="-0.23559">
        <ele>75.7</ele>
        <time>2025-07-11T09:51:44.001000+02:00</time>
      </trkpt>
      <trkpt lat="46.17831" lon="-0.2355">
        <ele>75.9</ele>
        <time>2025-07-11T09:51:46+02:00</time>
      </trkpt>
      <trkpt lat="46.17832" lon="-0.23545">
        <ele>76</ele>
        <time>2025-07-11T09:51:47+02:00</time>
      </trkpt>
      <trkpt lat="46.17833" lon="-0.2354">
        <ele>76</ele>
        <time>2025-07-11T09:51:48.001000+02:00</time>
      </trkpt>
      <trkpt lat="46.17833" lon="-0.23535">
        <ele>76</ele>
        <time>2025-07-11T09:51:49.002000+02:00</time>
      </trkpt>
      <trkpt lat="46.17833" lon="-0.2353">
        <ele>76</ele>
        <time>2025-07-11T09:51:50.002000+02:00</time>
      </trkpt>
      <trkpt lat="46.17833" lon="-0.23525">
        <ele>76</ele>
        <time>2025-07-11T09:51:51.002000+02:00</time>
      </trkpt>
      <trkpt lat="46.17833" lon="-0.2352">
        <ele>76</ele>
        <time>2025-07-11T09:51:52.002000+02:00</time>
      </trkpt>
      <trkpt lat="46.17828" lon="-0.23514">
        <ele>75.8</ele>
        <time>2025-07-11T09:51:54.002000+02:00</time>
      </trkpt>
      <trkpt lat="46.17819" lon="-0.23512">
        <ele>75.5</ele>
        <time>2025-07-11T09:51:56.001000+02:00</time>
      </trkpt>
      <trkpt lat="46.17815" lon="-0.23511">
        <ele>75.3</ele>
        <time>2025-07-11T09:51:57.003000+02:00</time>
      </trkpt>
      <trkpt lat="46.17807" lon="-0.23509">
        <ele>75</ele>
        <time>2025-07-11T09:51:59+02:00</time>
      </trkpt>
      <trkpt lat="46.17803" lon="-0.23508">
        <ele>74.8</ele>
        <time>2025-07-11T09:52:00.001000+02:00</time>
      </trkpt>
      <trkpt lat="46.17798" lon="-0.23507">
        <ele>74.5</ele>
        <time>2025-07-11T09:52:01.001000+02:00</time>
      </trkpt>
      <trkpt lat="46.17794" lon="-0.23506">
        <ele>74.2</ele>
        <time>2025-07-11T09:52:02.001000+02:00</time>
      </trkpt>
      <trkpt lat="46.17789" lon="-0.23506">
        <ele>74</ele>
        <time>2025-07-11T09:52:03.003000+02:00</time>
      </trkpt>
      <trkpt lat="46.1778" lon="-0.23505">
        <ele>73.3</ele>
        <time>2025-07-11T09:52:05.003000+02:00</time>
      </trkpt>
      <trkpt lat="46.17771" lon="-0.23503">
        <ele>72.9</ele>
        <time>2025-07-11T09:52:07.001000+02:00</time>
      </trkpt>
      <trkpt lat="46.17766" lon="-0.23502">
        <ele>72.7</ele>
        <time>2025-07-11T09:52:08.002000+02:00</time>
      </trkpt>
      <trkpt lat="46.17761" lon="-0.23501">
        <ele>72.4</ele>
        <time>2025-07-11T09:52:09.002000+02:00</time>
      </trkpt>
      <trkpt lat="46.17752" lon="-0.23498">
        <ele>72</ele>
        <time>2025-07-11T09:52:11.001000+02:00</time>
      </trkpt>
      <trkpt lat="46.17747" lon="-0.23496">
        <ele>71.7</ele>
        <time>2025-07-11T09:52:12.001000+02:00</time>
      </trkpt>
      <trkpt lat="46.17737" lon="-0.23489">
        <ele>71</ele>
        <time>2025-07-11T09:52:14+02:00</time>
      </trkpt>
      <trkpt lat="46.17732" lon="-0.23485">
        <ele>70.5</ele>
        <time>2025-07-11T09:52:15.001000+02:00</time>
      </trkpt>
      <trkpt lat="46.17726" lon="-0.23481">
        <ele>69.9</ele>
        <time>2025-07-11T09:52:16.001000+02:00</time>
      </trkpt>
      <trkpt lat="46.17715" lon="-0.23473">
        <ele>68.8</ele>
        <time>2025-07-11T09:52:17.999000+02:00</time>
      </trkpt>
      <trkpt lat="46.1771" lon="-0.2347">
        <ele>68.3</ele>
        <time>2025-07-11T09:52:19.001000+02:00</time>
      </trkpt>
      <trkpt lat="46.177" lon="-0.23462">
        <ele>67.2</ele>
        <time>2025-07-11T09:52:21.005000+02:00</time>
      </trkpt>
      <trkpt lat="46.17691" lon="-0.23457">
        <ele>66.1</ele>
        <time>2025-07-11T09:52:23.001000+02:00</time>
      </trkpt>
      <trkpt lat="46.17687" lon="-0.23456">
        <ele>65.8</ele>
        <time>2025-07-11T09:52:24.001000+02:00</time>
      </trkpt>
      <trkpt lat="46.17685" lon="-0.23455">
        <ele>65.7</ele>
        <time>2025-07-11T09:52:25.001000+02:00</time>
      </trkpt>
      <trkpt lat="46.17684" lon="-0.23455">
        <ele>65.6</ele>
        <time>2025-07-11T09:52:26.001000+02:00</time>
      </trkpt>
      <trkpt lat="46.17684" lon="-0.23454">
        <ele>65.5</ele>
        <time>2025-07-11T09:52:27.001000+02:00</time>
      </trkpt>
      <trkpt lat="46.17684" lon="-0.23453">
        <ele>65.4</ele>
        <time>2025-07-11T09:52:28.001000+02:00</time>
      </trkpt>
      <trkpt lat="46.17685" lon="-0.23453">
        <ele>65.4</ele>
        <time>2025-07-11T09:52:29.001000+02:00</time>
      </trkpt>
      <trkpt lat="46.17685" lon="-0.23453">
        <ele>65.5</ele>
        <time>2025-07-11T09:52:30.001000+02:00</time>
      </trkpt>
      <trkpt lat="46.17682" lon="-0.23446">
        <ele>64.6</ele>
        <time>2025-07-11T09:52:50.004000+02:00</time>
      </trkpt>
      <trkpt lat="46.17681" lon="-0.23443">
        <ele>64.3</ele>
        <time>2025-07-11T09:52:52+02:00</time>
      </trkpt>
      <trkpt lat="46.1768" lon="-0.23443">
        <ele>64.2</ele>
        <time>2025-07-11T09:52:53.001000+02:00</time>
      </trkpt>
      <trkpt lat="46.1768" lon="-0.23443">
        <ele>64.2</ele>
        <time>2025-07-11T09:52:54.001000+02:00</time>
      </trkpt>
      <trkpt lat="46.1768" lon="-0.23443">
        <ele>64.2</ele>
        <time>2025-07-11T09:52:55.001000+02:00</time>
      </trkpt>
      <trkpt lat="46.17678" lon="-0.2344">
        <ele>63.6</ele>
        <time>2025-07-11T09:52:59.001000+02:00</time>
      </trkpt>
      <trkpt lat="46.17675" lon="-0.23436">
        <ele>62.5</ele>
        <time>2025-07-11T09:53:01.001000+02:00</time>
      </trkpt>
      <trkpt lat="46.17672" lon="-0.23433">
        <ele>61.7</ele>
        <time>2025-07-11T09:53:02.001000+02:00</time>
      </trkpt>
      <trkpt lat="46.1767" lon="-0.23429">
        <ele>60.9</ele>
        <time>2025-07-11T09:53:03.001000+02:00</time>
      </trkpt>
      <trkpt lat="46.17664" lon="-0.23422">
        <ele>59</ele>
        <time>2025-07-11T09:53:05.002000+02:00</time>
      </trkpt>
      <trkpt lat="46.17661" lon="-0.23418">
        <ele>58</ele>
        <time>2025-07-11T09:53:06.002000+02:00</time>
      </trkpt>
      <trkpt lat="46.17656" lon="-0.23411">
        <ele>57.3</ele>
        <time>2025-07-11T09:53:08.001000+02:00</time>
      </trkpt>
      <trkpt lat="46.17653" lon="-0.23408">
        <ele>57</ele>
        <time>2025-07-11T09:53:09.003000+02:00</time>
      </trkpt>
      <trkpt lat="46.17648" lon="-0.23403">
        <ele>56.7</ele>
        <time>2025-07-11T09:53:11+02:00</time>
      </trkpt>
      <trkpt lat="46.17646" lon="-0.23402">
        <ele>56.6</ele>
        <time>2025-07-11T09:53:12.001000+02:00</time>
      </trkpt>
      <trkpt lat="46.17641" lon="-0.234">
        <ele>56.4</ele>
        <time>2025-07-11T09:53:14.001000+02:00</time>
      </trkpt>
      <trkpt lat="46.17638" lon="-0.234">
        <ele>56.4</ele>
        <time>2025-07-11T09:53:15.002000+02:00</time>
      </trkpt>
      <trkpt lat="46.17633" lon="-0.234">
        <ele>56.4</ele>
        <time>2025-07-11T09:53:17+02:00</time>
      </trkpt>
      <trkpt lat="46.1763" lon="-0.234">
        <ele>56.4</ele>
        <time>2025-07-11T09:53:18.001000+02:00</time>
      </trkpt>
      <trkpt lat="46.17626" lon="-0.234">
        <ele>56.4</ele>
        <time>2025-07-11T09:53:19.002000+02:00</time>
      </trkpt>
      <trkpt lat="46.17623" lon="-0.234">
        <ele>56.4</ele>
        <time>2025-07-11T09:53:20.002000+02:00</time>
      </trkpt>
      <trkpt lat="46.17619" lon="-0.23401">
        <ele>56.4</ele>
        <time>2025-07-11T09:53:21.003000+02:00</time>
      </trkpt>
      <trkpt lat="46.17612" lon="-0.23402">
        <ele>56.5</ele>
        <time>2025-07-11T09:53:23.001000+02:00</time>
      </trkpt>
      <trkpt lat="46.17609" lon="-0.23402">
        <ele>56.4</ele>
        <time>2025-07-11T09:53:24.001000+02:00</time>
      </trkpt>
      <trkpt lat="46.17605" lon="-0.23401">
        <ele>56.4</ele>
        <time>2025-07-11T09:53:25.001000+02:00</time>
      </trkpt>
      <trkpt lat="46.17602" lon="-0.234">
        <ele>56.3</ele>
        <time>2025-07-11T09:53:26.002000+02:00</time>
      </trkpt>
      <trkpt lat="46.17595" lon="-0.23398">
        <ele>56.1</ele>
        <time>2025-07-11T09:53:28.001000+02:00</time>
      </trkpt>
      <trkpt lat="46.17592" lon="-0.23397">
        <ele>56.1</ele>
        <time>2025-07-11T09:53:29.003000+02:00</time>
      </trkpt>
      <trkpt lat="46.17586" lon="-0.23396">
        <ele>56</ele>
        <time>2025-07-11T09:53:31.001000+02:00</time>
      </trkpt>
      <trkpt lat="46.17583" lon="-0.23396">
        <ele>56</ele>
        <time>2025-07-11T09:53:32.001000+02:00</time>
      </trkpt>
      <trkpt lat="46.1758" lon="-0.23397">
        <ele>56</ele>
        <time>2025-07-11T09:53:33.001000+02:00</time>
      </trkpt>
      <trkpt lat="46.17577" lon="-0.23396">
        <ele>56</ele>
        <time>2025-07-11T09:53:34.002000+02:00</time>
      </trkpt>
      <trkpt lat="46.17572" lon="-0.23394">
        <ele>56</ele>
        <time>2025-07-11T09:53:36.001000+02:00</time>
      </trkpt>
      <trkpt lat="46.1757" lon="-0.23394">
        <ele>56</ele>
        <time>2025-07-11T09:53:37.001000+02:00</time>
      </trkpt>
      <trkpt lat="46.1757" lon="-0.23393">
        <ele>56</ele>
        <time>2025-07-11T09:53:38.002000+02:00</time>
      </trkpt>
      <trkpt lat="46.17569" lon="-0.23392">
        <ele>56</ele>
        <time>2025-07-11T09:53:39.002000+02:00</time>
      </trkpt>
      <trkpt lat="46.17569" lon="-0.23392">
        <ele>56</ele>
        <time>2025-07-11T09:53:40.002000+02:00</time>
      </trkpt>
      <trkpt lat="46.17569" lon="-0.23392">
        <ele>56</ele>
        <time>2025-07-11T09:53:41.999000+02:00</time>
      </trkpt>
      <trkpt lat="46.17569" lon="-0.23392">
        <ele>56</ele>
        <time>2025-07-11T09:53:44+02:00</time>
      </trkpt>
      <trkpt lat="46.17568" lon="-0.2339">
        <ele>56</ele>
        <time>2025-07-11T09:54:11.001000+02:00</time>
      </trkpt>
      <trkpt lat="46.17566" lon="-0.23387">
        <ele>56</ele>
        <time>2025-07-11T09:54:12.001000+02:00</time>
      </trkpt>
      <trkpt lat="46.17564" lon="-0.23383">
        <ele>56</ele>
        <time>2025-07-11T09:54:14.001000+02:00</time>
      </trkpt>
      <trkpt lat="46.17563" lon="-0.23379">
        <ele>56</ele>
        <time>2025-07-11T09:54:15.002000+02:00</time>
      </trkpt>
      <trkpt lat="46.17561" lon="-0.23373">
        <ele>56</ele>
        <time>2025-07-11T09:54:17+02:00</time>
      </trkpt>
      <trkpt lat="46.1756" lon="-0.2337">
        <ele>56</ele>
        <time>2025-07-11T09:54:18.001000+02:00</time>
      </trkpt>
      <trkpt lat="46.17559" lon="-0.23363">
        <ele>56</ele>
        <time>2025-07-11T09:54:20.001000+02:00</time>
      </trkpt>
      <trkpt lat="46.17556" lon="-0.23355">
        <ele>56</ele>
        <time>2025-07-11T09:54:22.001000+02:00</time>
      </trkpt>
      <trkpt lat="46.17554" lon="-0.23351">
        <ele>56</ele>
        <time>2025-07-11T09:54:23.002000+02:00</time>
      </trkpt>
      <trkpt lat="46.17552" lon="-0.23347">
        <ele>56</ele>
        <time>2025-07-11T09:54:24.002000+02:00</time>
      </trkpt>
      <trkpt lat="46.17549" lon="-0.23343">
        <ele>56</ele>
        <time>2025-07-11T09:54:25.002000+02:00</time>
      </trkpt>
      <trkpt lat="46.17547" lon="-0.2334">
        <ele>56</ele>
        <time>2025-07-11T09:54:26.002000+02:00</time>
      </trkpt>
      <trkpt lat="46.17541" lon="-0.23334">
        <ele>56</ele>
        <time>2025-07-11T09:54:28.001000+02:00</time>
      </trkpt>
      <trkpt lat="46.17538" lon="-0.2333">
        <ele>56</ele>
        <time>2025-07-11T09:54:29.001000+02:00</time>
      </trkpt>
      <trkpt lat="46.17535" lon="-0.23327">
        <ele>56</ele>
        <time>2025-07-11T09:54:30.001000+02:00</time>
      </trkpt>
      <trkpt lat="46.17532" lon="-0.23324">
        <ele>56</ele>
        <time>2025-07-11T09:54:31.001000+02:00</time>
      </trkpt>
      <trkpt lat="46.17528" lon="-0.23321">
        <ele>56</ele>
        <time>2025-07-11T09:54:32.001000+02:00</time>
      </trkpt>
      <trkpt lat="46.17525" lon="-0.23318">
        <ele>56</ele>
        <time>2025-07-11T09:54:33.002000+02:00</time>
      </trkpt>
      <trkpt lat="46.17517" lon="-0.23314">
        <ele>56</ele>
        <time>2025-07-11T09:54:35+02:00</time>
      </trkpt>
      <trkpt lat="46.17514" lon="-0.23311">
        <ele>56</ele>
        <time>2025-07-11T09:54:36.001000+02:00</time>
      </trkpt>
      <trkpt lat="46.1751" lon="-0.23309">
        <ele>56</ele>
        <time>2025-07-11T09:54:37.001000+02:00</time>
      </trkpt>
      <trkpt lat="46.17502" lon="-0.23304">
        <ele>56</ele>
        <time>2025-07-11T09:54:39.003000+02:00</time>
      </trkpt>
      <trkpt lat="46.17492" lon="-0.23299">
        <ele>56</ele>
        <time>2025-07-11T09:54:41.001000+02:00</time>
      </trkpt>
      <trkpt lat="46.17487" lon="-0.23297">
        <ele>56</ele>
        <time>2025-07-11T09:54:42.001000+02:00</time>
      </trkpt>
      <trkpt lat="46.17477" lon="-0.23293">
        <ele>56</ele>
        <time>2025-07-11T09:54:44.001000+02:00</time>
      </trkpt>
      <trkpt lat="46.17472" lon="-0.23291">
        <ele>56</ele>
        <time>2025-07-11T09:54:45.001000+02:00</time>
      </trkpt>
      <trkpt lat="46.17462" lon="-0.23289">
        <ele>56</ele>
        <time>2025-07-11T09:54:47+02:00</time>
      </trkpt>
      <trkpt lat="46.17458" lon="-0.23288">
        <ele>56</ele>
        <time>2025-07-11T09:54:48+02:00</time>
      </trkpt>
      <trkpt lat="46.17453" lon="-0.23287">
        <ele>56</ele>
        <time>2025-07-11T09:54:49+02:00</time>
      </trkpt>
      <trkpt lat="46.17448" lon="-0.23286">
        <ele>56</ele>
        <time>2025-07-11T09:54:50.001000+02:00</time>
      </trkpt>
      <trkpt lat="46.17439" lon="-0.23285">
        <ele>56</ele>
        <time>2025-07-11T09:54:52.001000+02:00</time>
      </trkpt>
      <trkpt lat="46.17434" lon="-0.23284">
        <ele>56</ele>
        <time>2025-07-11T09:54:53.001000+02:00</time>
      </trkpt>
      <trkpt lat="46.17424" lon="-0.23282">
        <ele>56</ele>
        <time>2025-07-11T09:54:55.001000+02:00</time>
      </trkpt>
      <trkpt lat="46.17419" lon="-0.23281">
        <ele>56</ele>
        <time>2025-07-11T09:54:56.001000+02:00</time>
      </trkpt>
      <trkpt lat="46.17414" lon="-0.23279">
        <ele>56</ele>
        <time>2025-07-11T09:54:57.001000+02:00</time>
      </trkpt>
      <trkpt lat="46.1741" lon="-0.23277">
        <ele>56</ele>
        <time>2025-07-11T09:54:58.001000+02:00</time>
      </trkpt>
      <trkpt lat="46.17402" lon="-0.23269">
        <ele>56.2</ele>
        <time>2025-07-11T09:55:00.001000+02:00</time>
      </trkpt>
      <trkpt lat="46.17399" lon="-0.23265">
        <ele>56.3</ele>
        <time>2025-07-11T09:55:01.001000+02:00</time>
      </trkpt>
      <trkpt lat="46.17393" lon="-0.23255">
        <ele>56.7</ele>
        <time>2025-07-11T09:55:03.001000+02:00</time>
      </trkpt>
      <trkpt lat="46.17388" lon="-0.23243">
        <ele>56.7</ele>
        <time>2025-07-11T09:55:05.001000+02:00</time>
      </trkpt>
      <trkpt lat="46.17386" lon="-0.23238">
        <ele>56.5</ele>
        <time>2025-07-11T09:55:06.001000+02:00</time>
      </trkpt>
      <trkpt lat="46.17382" lon="-0.23226">
        <ele>56.1</ele>
        <time>2025-07-11T09:55:08.001000+02:00</time>
      </trkpt>
      <trkpt lat="46.17381" lon="-0.2322">
        <ele>56</ele>
        <time>2025-07-11T09:55:09.001000+02:00</time>
      </trkpt>
      <trkpt lat="46.1738" lon="-0.23215">
        <ele>56.1</ele>
        <time>2025-07-11T09:55:10.001000+02:00</time>
      </trkpt>
      <trkpt lat="46.17377" lon="-0.23204">
        <ele>56.3</ele>
        <time>2025-07-11T09:55:12+02:00</time>
      </trkpt>
      <trkpt lat="46.17376" lon="-0.23198">
        <ele>56.4</ele>
        <time>2025-07-11T09:55:13.001000+02:00</time>
      </trkpt>
      <trkpt lat="46.17375" lon="-0.23192">
        <ele>56.6</ele>
        <time>2025-07-11T09:55:14.001000+02:00</time>
      </trkpt>
      <trkpt lat="46.17375" lon="-0.23187">
        <ele>56.8</ele>
        <time>2025-07-11T09:55:15.002000+02:00</time>
      </trkpt>
      <trkpt lat="46.17374" lon="-0.23175">
        <ele>57.2</ele>
        <time>2025-07-11T09:55:17.002000+02:00</time>
      </trkpt>
      <trkpt lat="46.17374" lon="-0.23164">
        <ele>57.6</ele>
        <time>2025-07-11T09:55:19+02:00</time>
      </trkpt>
      <trkpt lat="46.17373" lon="-0.23159">
        <ele>57.8</ele>
        <time>2025-07-11T09:55:20.001000+02:00</time>
      </trkpt>
      <trkpt lat="46.17373" lon="-0.23154">
        <ele>58</ele>
        <time>2025-07-11T09:55:21.001000+02:00</time>
      </trkpt>
      <trkpt lat="46.17373" lon="-0.23149">
        <ele>58.2</ele>
        <time>2025-07-11T09:55:22.001000+02:00</time>
      </trkpt>
      <trkpt lat="46.17373" lon="-0.23143">
        <ele>58.4</ele>
        <time>2025-07-11T09:55:23.001000+02:00</time>
      </trkpt>
      <trkpt lat="46.17373" lon="-0.23139">
        <ele>58.6</ele>
        <time>2025-07-11T09:55:24.001000+02:00</time>
      </trkpt>
      <trkpt lat="46.17373" lon="-0.23129">
        <ele>59</ele>
        <time>2025-07-11T09:55:26.001000+02:00</time>
      </trkpt>
      <trkpt lat="46.17373" lon="-0.23124">
        <ele>59.1</ele>
        <time>2025-07-11T09:55:27.001000+02:00</time>
      </trkpt>
      <trkpt lat="46.17372" lon="-0.23118">
        <ele>59.3</ele>
        <time>2025-07-11T09:55:28.001000+02:00</time>
      </trkpt>
      <trkpt lat="46.17372" lon="-0.23108">
        <ele>59.7</ele>
        <time>2025-07-11T09:55:30+02:00</time>
      </trkpt>
      <trkpt lat="46.17371" lon="-0.23104">
        <ele>59.9</ele>
        <time>2025-07-11T09:55:31+02:00</time>
      </trkpt>
      <trkpt lat="46.17369" lon="-0.23095">
        <ele>60.3</ele>
        <time>2025-07-11T09:55:33+02:00</time>
      </trkpt>
      <trkpt lat="46.17368" lon="-0.2309">
        <ele>60.5</ele>
        <time>2025-07-11T09:55:34.002000+02:00</time>
      </trkpt>
      <trkpt lat="46.17367" lon="-0.23086">
        <ele>60.7</ele>
        <time>2025-07-11T09:55:35.002000+02:00</time>
      </trkpt>
      <trkpt lat="46.17367" lon="-0.23078">
        <ele>61</ele>
        <time>2025-07-11T09:55:37+02:00</time>
      </trkpt>
      <trkpt lat="46.17367" lon="-0.23073">
        <ele>61.2</ele>
        <time>2025-07-11T09:55:38.001000+02:00</time>
      </trkpt>
      <trkpt lat="46.17367" lon="-0.23068">
        <ele>61.3</ele>
        <time>2025-07-11T09:55:39.002000+02:00</time>
      </trkpt>
      <trkpt lat="46.17367" lon="-0.23058">
        <ele>61.7</ele>
        <time>2025-07-11T09:55:41.001000+02:00</time>
      </trkpt>
      <trkpt lat="46.17367" lon="-0.23048">
        <ele>61.8</ele>
        <time>2025-07-11T09:55:42.999000+02:00</time>
      </trkpt>
      <trkpt lat="46.17367" lon="-0.23043">
        <ele>61.9</ele>
        <time>2025-07-11T09:55:44.001000+02:00</time>
      </trkpt>
      <trkpt lat="46.17367" lon="-0.23038">
        <ele>61.9</ele>
        <time>2025-07-11T09:55:45.002000+02:00</time>
      </trkpt>
      <trkpt lat="46.17367" lon="-0.23029">
        <ele>62</ele>
        <time>2025-07-11T09:55:47.005000+02:00</time>
      </trkpt>
      <trkpt lat="46.17367" lon="-0.2302">
        <ele>62</ele>
        <time>2025-07-11T09:55:49.001000+02:00</time>
      </trkpt>
      <trkpt lat="46.17367" lon="-0.23015">
        <ele>62</ele>
        <time>2025-07-11T09:55:50.001000+02:00</time>
      </trkpt>
      <trkpt lat="46.17367" lon="-0.2301">
        <ele>62</ele>
        <time>2025-07-11T09:55:51.001000+02:00</time>
      </trkpt>
      <trkpt lat="46.17367" lon="-0.23005">
        <ele>62</ele>
        <time>2025-07-11T09:55:52.002000+02:00</time>
      </trkpt>
      <trkpt lat="46.17367" lon="-0.22995">
        <ele>62.2</ele>
        <time>2025-07-11T09:55:54+02:00</time>
      </trkpt>
      <trkpt lat="46.17368" lon="-0.22986">
        <ele>62.5</ele>
        <time>2025-07-11T09:55:56.001000+02:00</time>
      </trkpt>
      <trkpt lat="46.17368" lon="-0.22977">
        <ele>62.8</ele>
        <time>2025-07-11T09:55:58+02:00</time>
      </trkpt>
      <trkpt lat="46.17369" lon="-0.22972">
        <ele>63</ele>
        <time>2025-07-11T09:55:59+02:00</time>
      </trkpt>
      <trkpt lat="46.17369" lon="-0.22968">
        <ele>63</ele>
        <time>2025-07-11T09:56:00.001000+02:00</time>
      </trkpt>
      <trkpt lat="46.17368" lon="-0.22958">
        <ele>63</ele>
        <time>2025-07-11T09:56:01.999000+02:00</time>
      </trkpt>
      <trkpt lat="46.17368" lon="-0.22954">
        <ele>63</ele>
        <time>2025-07-11T09:56:03.001000+02:00</time>
      </trkpt>
      <trkpt lat="46.17369" lon="-0.22949">
        <ele>63</ele>
        <time>2025-07-11T09:56:04.001000+02:00</time>
      </trkpt>
      <trkpt lat="46.17369" lon="-0.22943">
        <ele>62.9</ele>
        <time>2025-07-11T09:56:06.001000+02:00</time>
      </trkpt>
      <trkpt lat="46.17369" lon="-0.2294">
        <ele>62.8</ele>
        <time>2025-07-11T09:56:07.001000+02:00</time>
      </trkpt>
      <trkpt lat="46.17369" lon="-0.22938">
        <ele>62.6</ele>
        <time>2025-07-11T09:56:08.002000+02:00</time>
      </trkpt>
      <trkpt lat="46.17369" lon="-0.22931">
        <ele>62.3</ele>
        <time>2025-07-11T09:56:10+02:00</time>
      </trkpt>
      <trkpt lat="46.17369" lon="-0.22927">
        <ele>62</ele>
        <time>2025-07-11T09:56:11.001000+02:00</time>
      </trkpt>
      <trkpt lat="46.17369" lon="-0.22922">
        <ele>61.7</ele>
        <time>2025-07-11T09:56:12.001000+02:00</time>
      </trkpt>
      <trkpt lat="46.17369" lon="-0.22916">
        <ele>61.4</ele>
        <time>2025-07-11T09:56:13.001000+02:00</time>
      </trkpt>
      <trkpt lat="46.17369" lon="-0.22911">
        <ele>61</ele>
        <time>2025-07-11T09:56:14.001000+02:00</time>
      </trkpt>
      <trkpt lat="46.17368" lon="-0.22904">
        <ele>60.6</ele>
        <time>2025-07-11T09:56:15.002000+02:00</time>
      </trkpt>
      <trkpt lat="46.17364" lon="-0.22891">
        <ele>59.9</ele>
        <time>2025-07-11T09:56:17.001000+02:00</time>
      </trkpt>
      <trkpt lat="46.17361" lon="-0.22885">
        <ele>59.7</ele>
        <time>2025-07-11T09:56:18.001000+02:00</time>
      </trkpt>
      <trkpt lat="46.17353" lon="-0.22874">
        <ele>59.2</ele>
        <time>2025-07-11T09:56:20.001000+02:00</time>
      </trkpt>
      <trkpt lat="46.17348" lon="-0.2287">
        <ele>59.1</ele>
        <time>2025-07-11T09:56:21.001000+02:00</time>
      </trkpt>
      <trkpt lat="46.17344" lon="-0.22866">
        <ele>59</ele>
        <time>2025-07-11T09:56:22.001000+02:00</time>
      </trkpt>
      <trkpt lat="46.17339" lon="-0.22862">
        <ele>58.8</ele>
        <time>2025-07-11T09:56:23.001000+02:00</time>
      </trkpt>
      <trkpt lat="46.17335" lon="-0.22858">
        <ele>58.7</ele>
        <time>2025-07-11T09:56:24.001000+02:00</time>
      </trkpt>
      <trkpt lat="46.17326" lon="-0.2285">
        <ele>58.7</ele>
        <time>2025-07-11T09:56:26.001000+02:00</time>
      </trkpt>
      <trkpt lat="46.17319" lon="-0.22842">
        <ele>58.7</ele>
        <time>2025-07-11T09:56:28.001000+02:00</time>
      </trkpt>
      <trkpt lat="46.17313" lon="-0.22835">
        <ele>58.6</ele>
        <time>2025-07-11T09:56:30.001000+02:00</time>
      </trkpt>
      <trkpt lat="46.17307" lon="-0.22829">
        <ele>58.6</ele>
        <time>2025-07-11T09:56:32.001000+02:00</time>
      </trkpt>
      <trkpt lat="46.17304" lon="-0.22826">
        <ele>58.7</ele>
        <time>2025-07-11T09:56:33.001000+02:00</time>
      </trkpt>
      <trkpt lat="46.17301" lon="-0.22823">
        <ele>58.8</ele>
        <time>2025-07-11T09:56:34.001000+02:00</time>
      </trkpt>
      <trkpt lat="46.17298" lon="-0.2282">
        <ele>58.9</ele>
        <time>2025-07-11T09:56:35.002000+02:00</time>
      </trkpt>
      <trkpt lat="46.17293" lon="-0.22815">
        <ele>59.4</ele>
        <time>2025-07-11T09:56:37+02:00</time>
      </trkpt>
      <trkpt lat="46.1729" lon="-0.22812">
        <ele>59.6</ele>
        <time>2025-07-11T09:56:38.003000+02:00</time>
      </trkpt>
      <trkpt lat="46.17289" lon="-0.22813">
        <ele>59.7</ele>
        <time>2025-07-11T09:56:40+02:00</time>
      </trkpt>
      <trkpt lat="46.17288" lon="-0.2281">
        <ele>59.7</ele>
        <time>2025-07-11T09:56:41+02:00</time>
      </trkpt>
      <trkpt lat="46.17285" lon="-0.22806">
        <ele>60</ele>
        <time>2025-07-11T09:56:42.001000+02:00</time>
      </trkpt>
      <trkpt lat="46.1728" lon="-0.22801">
        <ele>60.4</ele>
        <time>2025-07-11T09:56:43.002000+02:00</time>
      </trkpt>
      <trkpt lat="46.17279" lon="-0.22798">
        <ele>60.3</ele>
        <time>2025-07-11T09:56:44.002000+02:00</time>
      </trkpt>
      <trkpt lat="46.17277" lon="-0.22789">
        <ele>60</ele>
        <time>2025-07-11T09:56:46+02:00</time>
      </trkpt>
      <trkpt lat="46.17255" lon="-0.22781">
        <ele>63.1</ele>
        <time>2025-07-11T09:56:48.001000+02:00</time>
      </trkpt>
      <trkpt lat="46.17253" lon="-0.22773">
        <ele>63.1</ele>
        <time>2025-07-11T09:56:50.001000+02:00</time>
      </trkpt>
      <trkpt lat="46.17252" lon="-0.2277">
        <ele>63</ele>
        <time>2025-07-11T09:56:51.001000+02:00</time>
      </trkpt>
      <trkpt lat="46.17251" lon="-0.22766">
        <ele>62.9</ele>
        <time>2025-07-11T09:56:53.001000+02:00</time>
      </trkpt>
      <trkpt lat="46.1725" lon="-0.22763">
        <ele>62.9</ele>
        <time>2025-07-11T09:56:54.001000+02:00</time>
      </trkpt>
      <trkpt lat="46.17249" lon="-0.2276">
        <ele>62.9</ele>
        <time>2025-07-11T09:56:55.002000+02:00</time>
      </trkpt>
      <trkpt lat="46.17247" lon="-0.22755">
        <ele>62.8</ele>
        <time>2025-07-11T09:56:57.002000+02:00</time>
      </trkpt>
      <trkpt lat="46.17244" lon="-0.22749">
        <ele>62.8</ele>
        <time>2025-07-11T09:56:59+02:00</time>
      </trkpt>
      <trkpt lat="46.17243" lon="-0.22746">
        <ele>63</ele>
        <time>2025-07-11T09:57:00.001000+02:00</time>
      </trkpt>
      <trkpt lat="46.1724" lon="-0.2274">
        <ele>63.3</ele>
        <time>2025-07-11T09:57:02.001000+02:00</time>
      </trkpt>
      <trkpt lat="46.17238" lon="-0.22738">
        <ele>63.5</ele>
        <time>2025-07-11T09:57:03.001000+02:00</time>
      </trkpt>
      <trkpt lat="46.17236" lon="-0.22732">
        <ele>63.8</ele>
        <time>2025-07-11T09:57:05.001000+02:00</time>
      </trkpt>
      <trkpt lat="46.17233" lon="-0.22729">
        <ele>64.2</ele>
        <time>2025-07-11T09:57:06.001000+02:00</time>
      </trkpt>
      <trkpt lat="46.17229" lon="-0.22723">
        <ele>64.9</ele>
        <time>2025-07-11T09:57:08.005000+02:00</time>
      </trkpt>
      <trkpt lat="46.17226" lon="-0.2272">
        <ele>65.4</ele>
        <time>2025-07-11T09:57:10.001000+02:00</time>
      </trkpt>
      <trkpt lat="46.17224" lon="-0.22718">
        <ele>65.6</ele>
        <time>2025-07-11T09:57:11.002000+02:00</time>
      </trkpt>
      <trkpt lat="46.17223" lon="-0.22714">
        <ele>65.8</ele>
        <time>2025-07-11T09:57:12.002000+02:00</time>
      </trkpt>
      <trkpt lat="46.17222" lon="-0.22711">
        <ele>66</ele>
        <time>2025-07-11T09:57:13.003000+02:00</time>
      </trkpt>
      <trkpt lat="46.17219" lon="-0.22704">
        <ele>66.2</ele>
        <time>2025-07-11T09:57:15.001000+02:00</time>
      </trkpt>
      <trkpt lat="46.17217" lon="-0.22701">
        <ele>66.4</ele>
        <time>2025-07-11T09:57:16.001000+02:00</time>
      </trkpt>
      <trkpt lat="46.17215" lon="-0.22699">
        <ele>66.6</ele>
        <time>2025-07-11T09:57:17.001000+02:00</time>
      </trkpt>
      <trkpt lat="46.17212" lon="-0.22697">
        <ele>66.7</ele>
        <time>2025-07-11T09:57:18.001000+02:00</time>
      </trkpt>
      <trkpt lat="46.1721" lon="-0.22695">
        <ele>66.9</ele>
        <time>2025-07-11T09:57:19.001000+02:00</time>
      </trkpt>
      <trkpt lat="46.17208" lon="-0.22693">
        <ele>67</ele>
        <time>2025-07-11T09:57:20.001000+02:00</time>
      </trkpt>
      <trkpt lat="46.17207" lon="-0.22691">
        <ele>67.3</ele>
        <time>2025-07-11T09:57:21.001000+02:00</time>
      </trkpt>
      <trkpt lat="46.17204" lon="-0.22689">
        <ele>67.5</ele>
        <time>2025-07-11T09:57:22.002000+02:00</time>
      </trkpt>
      <trkpt lat="46.172" lon="-0.22687">
        <ele>67.9</ele>
        <time>2025-07-11T09:57:24.002000+02:00</time>
      </trkpt>
      <trkpt lat="46.17195" lon="-0.22684">
        <ele>68.4</ele>
        <time>2025-07-11T09:57:26+02:00</time>
      </trkpt>
      <trkpt lat="46.17193" lon="-0.22683">
        <ele>68.5</ele>
        <time>2025-07-11T09:57:27.001000+02:00</time>
      </trkpt>
      <trkpt lat="46.1719" lon="-0.22682">
        <ele>68.7</ele>
        <time>2025-07-11T09:57:28.001000+02:00</time>
      </trkpt>
      <trkpt lat="46.17187" lon="-0.22681">
        <ele>68.9</ele>
        <time>2025-07-11T09:57:29.001000+02:00</time>
      </trkpt>
      <trkpt lat="46.17185" lon="-0.2268">
        <ele>69</ele>
        <time>2025-07-11T09:57:30.003000+02:00</time>
      </trkpt>
      <trkpt lat="46.1718" lon="-0.22678">
        <ele>69.3</ele>
        <time>2025-07-11T09:57:32.002000+02:00</time>
      </trkpt>
      <trkpt lat="46.17175" lon="-0.22677">
        <ele>69.6</ele>
        <time>2025-07-11T09:57:34.001000+02:00</time>
      </trkpt>
      <trkpt lat="46.17171" lon="-0.22676">
        <ele>69.8</ele>
        <time>2025-07-11T09:57:36.001000+02:00</time>
      </trkpt>
      <trkpt lat="46.17166" lon="-0.22673">
        <ele>70.1</ele>
        <time>2025-07-11T09:57:38.001000+02:00</time>
      </trkpt>
      <trkpt lat="46.17163" lon="-0.22672">
        <ele>70.2</ele>
        <time>2025-07-11T09:57:39.002000+02:00</time>
      </trkpt>
      <trkpt lat="46.17159" lon="-0.22669">
        <ele>70.6</ele>
        <time>2025-07-11T09:57:41.001000+02:00</time>
      </trkpt>
      <trkpt lat="46.17154" lon="-0.22667">
        <ele>70.9</ele>
        <time>2025-07-11T09:57:43+02:00</time>
      </trkpt>
      <trkpt lat="46.17151" lon="-0.22665">
        <ele>71.2</ele>
        <time>2025-07-11T09:57:44.001000+02:00</time>
      </trkpt>
      <trkpt lat="46.17148" lon="-0.22664">
        <ele>71.4</ele>
        <time>2025-07-11T09:57:45.001000+02:00</time>
      </trkpt>
      <trkpt lat="46.17143" lon="-0.22662">
        <ele>71.9</ele>
        <time>2025-07-11T09:57:47+02:00</time>
      </trkpt>
      <trkpt lat="46.17141" lon="-0.22661">
        <ele>72.1</ele>
        <time>2025-07-11T09:57:48+02:00</time>
      </trkpt>
      <trkpt lat="46.17138" lon="-0.2266">
        <ele>72.3</ele>
        <time>2025-07-11T09:57:49.001000+02:00</time>
      </trkpt>
      <trkpt lat="46.17133" lon="-0.22657">
        <ele>72.8</ele>
        <time>2025-07-11T09:57:51.001000+02:00</time>
      </trkpt>
      <trkpt lat="46.17128" lon="-0.22654">
        <ele>73.3</ele>
        <time>2025-07-11T09:57:53+02:00</time>
      </trkpt>
      <trkpt lat="46.17125" lon="-0.22653">
        <ele>73.5</ele>
        <time>2025-07-11T09:57:54+02:00</time>
      </trkpt>
      <trkpt lat="46.17123" lon="-0.22651">
        <ele>73.7</ele>
        <time>2025-07-11T09:57:55+02:00</time>
      </trkpt>
      <trkpt lat="46.17121" lon="-0.22649">
        <ele>73.9</ele>
        <time>2025-07-11T09:57:56+02:00</time>
      </trkpt>
      <trkpt lat="46.17119" lon="-0.22647">
        <ele>74.1</ele>
        <time>2025-07-11T09:57:57.001000+02:00</time>
      </trkpt>
      <trkpt lat="46.17118" lon="-0.22644">
        <ele>74.3</ele>
        <time>2025-07-11T09:57:58.002000+02:00</time>
      </trkpt>
      <trkpt lat="46.17118" lon="-0.22638">
        <ele>74.5</ele>
        <time>2025-07-11T09:58:00+02:00</time>
      </trkpt>
      <trkpt lat="46.17118" lon="-0.22634">
        <ele>74.5</ele>
        <time>2025-07-11T09:58:01.001000+02:00</time>
      </trkpt>
      <trkpt lat="46.17118" lon="-0.2263">
        <ele>74.6</ele>
        <time>2025-07-11T09:58:02.001000+02:00</time>
      </trkpt>
      <trkpt lat="46.17119" lon="-0.22627">
        <ele>74.6</ele>
        <time>2025-07-11T09:58:03.002000+02:00</time>
      </trkpt>
      <trkpt lat="46.17119" lon="-0.22619">
        <ele>74.6</ele>
        <time>2025-07-11T09:58:05.001000+02:00</time>
      </trkpt>
      <trkpt lat="46.17121" lon="-0.22611">
        <ele>74.7</ele>
        <time>2025-07-11T09:58:07+02:00</time>
      </trkpt>
      <trkpt lat="46.17121" lon="-0.22607">
        <ele>74.6</ele>
        <time>2025-07-11T09:58:08+02:00</time>
      </trkpt>
      <trkpt lat="46.17122" lon="-0.22603">
        <ele>74.6</ele>
        <time>2025-07-11T09:58:09.090000+02:00</time>
      </trkpt>
      <trkpt lat="46.17123" lon="-0.22595">
        <ele>74.6</ele>
        <time>2025-07-11T09:58:11.001000+02:00</time>
      </trkpt>
      <trkpt lat="46.17124" lon="-0.22587">
        <ele>74.5</ele>
        <time>2025-07-11T09:58:13.001000+02:00</time>
      </trkpt>
      <trkpt lat="46.17125" lon="-0.22579">
        <ele>74.7</ele>
        <time>2025-07-11T09:58:15.001000+02:00</time>
      </trkpt>
      <trkpt lat="46.17126" lon="-0.2257">
        <ele>75</ele>
        <time>2025-07-11T09:58:17+02:00</time>
      </trkpt>
      <trkpt lat="46.17126" lon="-0.22566">
        <ele>75.1</ele>
        <time>2025-07-11T09:58:18+02:00</time>
      </trkpt>
      <trkpt lat="46.17126" lon="-0.22562">
        <ele>75.2</ele>
        <time>2025-07-11T09:58:19.001000+02:00</time>
      </trkpt>
      <trkpt lat="46.17127" lon="-0.22553">
        <ele>75.4</ele>
        <time>2025-07-11T09:58:21.001000+02:00</time>
      </trkpt>
      <trkpt lat="46.17128" lon="-0.22549">
        <ele>75.4</ele>
        <time>2025-07-11T09:58:22.001000+02:00</time>
      </trkpt>
      <trkpt lat="46.1713" lon="-0.22541">
        <ele>75.3</ele>
        <time>2025-07-11T09:58:24+02:00</time>
      </trkpt>
      <trkpt lat="46.17131" lon="-0.22537">
        <ele>75.3</ele>
        <time>2025-07-11T09:58:25+02:00</time>
      </trkpt>
      <trkpt lat="46.17132" lon="-0.22533">
        <ele>75.2</ele>
        <time>2025-07-11T09:58:26+02:00</time>
      </trkpt>
      <trkpt lat="46.17134" lon="-0.22529">
        <ele>75.2</ele>
        <time>2025-07-11T09:58:27.002000+02:00</time>
      </trkpt>
      <trkpt lat="46.17135" lon="-0.2252">
        <ele>75.4</ele>
        <time>2025-07-11T09:58:29.001000+02:00</time>
      </trkpt>
      <trkpt lat="46.17137" lon="-0.22516">
        <ele>75.5</ele>
        <time>2025-07-11T09:58:30.001000+02:00</time>
      </trkpt>
      <trkpt lat="46.17139" lon="-0.22512">
        <ele>75.6</ele>
        <time>2025-07-11T09:58:31.001000+02:00</time>
      </trkpt>
      <trkpt lat="46.17142" lon="-0.22504">
        <ele>75.7</ele>
        <time>2025-07-11T09:58:33.001000+02:00</time>
      </trkpt>
      <trkpt lat="46.17147" lon="-0.22496">
        <ele>75.9</ele>
        <time>2025-07-11T09:58:35.001000+02:00</time>
      </trkpt>
      <trkpt lat="46.17149" lon="-0.22492">
        <ele>75.9</ele>
        <time>2025-07-11T09:58:36.001000+02:00</time>
      </trkpt>
      <trkpt lat="46.17154" lon="-0.22484">
        <ele>76.1</ele>
        <time>2025-07-11T09:58:38.001000+02:00</time>
      </trkpt>
      <trkpt lat="46.17155" lon="-0.2248">
        <ele>76.1</ele>
        <time>2025-07-11T09:58:39.001000+02:00</time>
      </trkpt>
      <trkpt lat="46.17157" lon="-0.22476">
        <ele>76.2</ele>
        <time>2025-07-11T09:58:40.001000+02:00</time>
      </trkpt>
      <trkpt lat="46.17158" lon="-0.22472">
        <ele>76.3</ele>
        <time>2025-07-11T09:58:41.001000+02:00</time>
      </trkpt>
      <trkpt lat="46.17159" lon="-0.22467">
        <ele>76.3</ele>
        <time>2025-07-11T09:58:42.001000+02:00</time>
      </trkpt>
      <trkpt lat="46.17161" lon="-0.22458">
        <ele>76.2</ele>
        <time>2025-07-11T09:58:44.001000+02:00</time>
      </trkpt>
      <trkpt lat="46.17163" lon="-0.22449">
        <ele>76.1</ele>
        <time>2025-07-11T09:58:46+02:00</time>
      </trkpt>
      <trkpt lat="46.17166" lon="-0.2244">
        <ele>76</ele>
        <time>2025-07-11T09:58:48.001000+02:00</time>
      </trkpt>
      <trkpt lat="46.17167" lon="-0.22435">
        <ele>76</ele>
        <time>2025-07-11T09:58:49.001000+02:00</time>
      </trkpt>
      <trkpt lat="46.17168" lon="-0.2243">
        <ele>76</ele>
        <time>2025-07-11T09:58:50.001000+02:00</time>
      </trkpt>
      <trkpt lat="46.17169" lon="-0.22424">
        <ele>75.9</ele>
        <time>2025-07-11T09:58:51.003000+02:00</time>
      </trkpt>
      <trkpt lat="46.1717" lon="-0.22414">
        <ele>76</ele>
        <time>2025-07-11T09:58:53.001000+02:00</time>
      </trkpt>
      <trkpt lat="46.1717" lon="-0.22409">
        <ele>76.1</ele>
        <time>2025-07-11T09:58:54.001000+02:00</time>
      </trkpt>
      <trkpt lat="46.17171" lon="-0.224">
        <ele>76.3</ele>
        <time>2025-07-11T09:58:56.001000+02:00</time>
      </trkpt>
      <trkpt lat="46.17171" lon="-0.22396">
        <ele>76.5</ele>
        <time>2025-07-11T09:58:57.001000+02:00</time>
      </trkpt>
      <trkpt lat="46.17172" lon="-0.22393">
        <ele>76.5</ele>
        <time>2025-07-11T09:58:58.001000+02:00</time>
      </trkpt>
      <trkpt lat="46.17172" lon="-0.22389">
        <ele>76.6</ele>
        <time>2025-07-11T09:58:59.001000+02:00</time>
      </trkpt>
      <trkpt lat="46.17173" lon="-0.22385">
        <ele>76.6</ele>
        <time>2025-07-11T09:59:00.002000+02:00</time>
      </trkpt>
      <trkpt lat="46.17173" lon="-0.22381">
        <ele>76.5</ele>
        <time>2025-07-11T09:59:01.002000+02:00</time>
      </trkpt>
      <trkpt lat="46.17173" lon="-0.22376">
        <ele>76.5</ele>
        <time>2025-07-11T09:59:02.002000+02:00</time>
      </trkpt>
      <trkpt lat="46.17173" lon="-0.22372">
        <ele>76.5</ele>
        <time>2025-07-11T09:59:03.002000+02:00</time>
      </trkpt>
      <trkpt lat="46.17174" lon="-0.22362">
        <ele>76.5</ele>
        <time>2025-07-11T09:59:05.001000+02:00</time>
      </trkpt>
      <trkpt lat="46.17175" lon="-0.22352">
        <ele>76.4</ele>
        <time>2025-07-11T09:59:07+02:00</time>
      </trkpt>
      <trkpt lat="46.17176" lon="-0.22347">
        <ele>76.3</ele>
        <time>2025-07-11T09:59:08.001000+02:00</time>
      </trkpt>
      <trkpt lat="46.17174" lon="-0.22337">
        <ele>76.5</ele>
        <time>2025-07-11T09:59:10+02:00</time>
      </trkpt>
      <trkpt lat="46.17174" lon="-0.22332">
        <ele>76.5</ele>
        <time>2025-07-11T09:59:11.001000+02:00</time>
      </trkpt>
      <trkpt lat="46.17174" lon="-0.22327">
        <ele>76.5</ele>
        <time>2025-07-11T09:59:12.001000+02:00</time>
      </trkpt>
      <trkpt lat="46.17174" lon="-0.22323">
        <ele>76.5</ele>
        <time>2025-07-11T09:59:13.001000+02:00</time>
      </trkpt>
      <trkpt lat="46.17172" lon="-0.22313">
        <ele>76.6</ele>
        <time>2025-07-11T09:59:15.001000+02:00</time>
      </trkpt>
      <trkpt lat="46.1717" lon="-0.22303">
        <ele>76.8</ele>
        <time>2025-07-11T09:59:17.001000+02:00</time>
      </trkpt>
      <trkpt lat="46.17169" lon="-0.22297">
        <ele>76.8</ele>
        <time>2025-07-11T09:59:18.002000+02:00</time>
      </trkpt>
      <trkpt lat="46.17166" lon="-0.22287">
        <ele>77</ele>
        <time>2025-07-11T09:59:20.004000+02:00</time>
      </trkpt>
      <trkpt lat="46.17163" lon="-0.22278">
        <ele>77.1</ele>
        <time>2025-07-11T09:59:22.001000+02:00</time>
      </trkpt>
      <trkpt lat="46.17161" lon="-0.22273">
        <ele>77.2</ele>
        <time>2025-07-11T09:59:23.001000+02:00</time>
      </trkpt>
      <trkpt lat="46.1716" lon="-0.22269">
        <ele>77.2</ele>
        <time>2025-07-11T09:59:24.003000+02:00</time>
      </trkpt>
      <trkpt lat="46.17157" lon="-0.22261">
        <ele>77.3</ele>
        <time>2025-07-11T09:59:26.001000+02:00</time>
      </trkpt>
      <trkpt lat="46.17156" lon="-0.22258">
        <ele>77.4</ele>
        <time>2025-07-11T09:59:27.001000+02:00</time>
      </trkpt>
      <trkpt lat="46.17154" lon="-0.22255">
        <ele>77.4</ele>
        <time>2025-07-11T09:59:28.001000+02:00</time>
      </trkpt>
      <trkpt lat="46.17153" lon="-0.22249">
        <ele>77.5</ele>
        <time>2025-07-11T09:59:29.999000+02:00</time>
      </trkpt>
      <trkpt lat="46.17155" lon="-0.22246">
        <ele>77.5</ele>
        <time>2025-07-11T09:59:31.001000+02:00</time>
      </trkpt>
      <trkpt lat="46.17159" lon="-0.22243">
        <ele>77.4</ele>
        <time>2025-07-11T09:59:33.001000+02:00</time>
      </trkpt>
      <trkpt lat="46.17162" lon="-0.22243">
        <ele>77.4</ele>
        <time>2025-07-11T09:59:34.002000+02:00</time>
      </trkpt>
      <trkpt lat="46.17169" lon="-0.22243">
        <ele>77.1</ele>
        <time>2025-07-11T09:59:36.001000+02:00</time>
      </trkpt>
      <trkpt lat="46.17172" lon="-0.22243">
        <ele>77</ele>
        <time>2025-07-11T09:59:37.002000+02:00</time>
      </trkpt>
      <trkpt lat="46.1718" lon="-0.22244">
        <ele>76.6</ele>
        <time>2025-07-11T09:59:39.002000+02:00</time>
      </trkpt>
      <trkpt lat="46.17188" lon="-0.22244">
        <ele>76.3</ele>
        <time>2025-07-11T09:59:41+02:00</time>
      </trkpt>
      <trkpt lat="46.17192" lon="-0.22244">
        <ele>76.1</ele>
        <time>2025-07-11T09:59:42.001000+02:00</time>
      </trkpt>
      <trkpt lat="46.17197" lon="-0.22244">
        <ele>75.9</ele>
        <time>2025-07-11T09:59:43.001000+02:00</time>
      </trkpt>
      <trkpt lat="46.17202" lon="-0.22243">
        <ele>75.7</ele>
        <time>2025-07-11T09:59:44.001000+02:00</time>
      </trkpt>
      <trkpt lat="46.17206" lon="-0.22243">
        <ele>75.6</ele>
        <time>2025-07-11T09:59:45.001000+02:00</time>
      </trkpt>
      <trkpt lat="46.17216" lon="-0.22242">
        <ele>75.2</ele>
        <time>2025-07-11T09:59:47.001000+02:00</time>
      </trkpt>
      <trkpt lat="46.17221" lon="-0.22242">
        <ele>75.1</ele>
        <time>2025-07-11T09:59:48.002000+02:00</time>
      </trkpt>
      <trkpt lat="46.17231" lon="-0.2224">
        <ele>74.7</ele>
        <time>2025-07-11T09:59:50.001000+02:00</time>
      </trkpt>
      <trkpt lat="46.17236" lon="-0.22238">
        <ele>74.5</ele>
        <time>2025-07-11T09:59:51.002000+02:00</time>
      </trkpt>
      <trkpt lat="46.17241" lon="-0.22237">
        <ele>74.3</ele>
        <time>2025-07-11T09:59:52.003000+02:00</time>
      </trkpt>
      <trkpt lat="46.17251" lon="-0.22233">
        <ele>74</ele>
        <time>2025-07-11T09:59:54.001000+02:00</time>
      </trkpt>
      <trkpt lat="46.17256" lon="-0.22232">
        <ele>73.8</ele>
        <time>2025-07-11T09:59:55.001000+02:00</time>
      </trkpt>
      <trkpt lat="46.17265" lon="-0.22229">
        <ele>73.4</ele>
        <time>2025-07-11T09:59:57.001000+02:00</time>
      </trkpt>
      <trkpt lat="46.1727" lon="-0.22228">
        <ele>73.3</ele>
        <time>2025-07-11T09:59:58.001000+02:00</time>
      </trkpt>
      <trkpt lat="46.17274" lon="-0.22227">
        <ele>73.1</ele>
        <time>2025-07-11T09:59:59.001000+02:00</time>
      </trkpt>
      <trkpt lat="46.17277" lon="-0.22227">
        <ele>73</ele>
        <time>2025-07-11T10:00:00.002000+02:00</time>
      </trkpt>
      <trkpt lat="46.17281" lon="-0.22227">
        <ele>73.1</ele>
        <time>2025-07-11T10:00:01.002000+02:00</time>
      </trkpt>
      <trkpt lat="46.17283" lon="-0.22228">
        <ele>73.2</ele>
        <time>2025-07-11T10:00:02.003000+02:00</time>
      </trkpt>
      <trkpt lat="46.17286" lon="-0.22233">
        <ele>73.2</ele>
        <time>2025-07-11T10:00:04+02:00</time>
      </trkpt>
      <trkpt lat="46.17287" lon="-0.22236">
        <ele>73.2</ele>
        <time>2025-07-11T10:00:05.001000+02:00</time>
      </trkpt>
      <trkpt lat="46.17288" lon="-0.2224">
        <ele>73.1</ele>
        <time>2025-07-11T10:00:06.001000+02:00</time>
      </trkpt>
      <trkpt lat="46.17289" lon="-0.22244">
        <ele>73.1</ele>
        <time>2025-07-11T10:00:07.001000+02:00</time>
      </trkpt>
      <trkpt lat="46.1729" lon="-0.22248">
        <ele>73</ele>
        <time>2025-07-11T10:00:08.002000+02:00</time>
      </trkpt>
      <trkpt lat="46.1729" lon="-0.22254">
        <ele>72.9</ele>
        <time>2025-07-11T10:00:10.001000+02:00</time>
      </trkpt>
      <trkpt lat="46.17291" lon="-0.22255">
        <ele>72.8</ele>
        <time>2025-07-11T10:00:11.001000+02:00</time>
      </trkpt>
      <trkpt lat="46.17291" lon="-0.22257">
        <ele>72.7</ele>
        <time>2025-07-11T10:00:12.001000+02:00</time>
      </trkpt>
      <trkpt lat="46.1729" lon="-0.22258">
        <ele>72.7</ele>
        <time>2025-07-11T10:00:13.001000+02:00</time>
      </trkpt>
      <trkpt lat="46.1729" lon="-0.22258">
        <ele>72.7</ele>
        <time>2025-07-11T10:00:14.001000+02:00</time>
      </trkpt>
      <trkpt lat="46.1729" lon="-0.22258">
        <ele>72.7</ele>
        <time>2025-07-11T10:00:15.004000+02:00</time>
      </trkpt>
      <trkpt lat="46.1729" lon="-0.22258">
        <ele>72.7</ele>
        <time>2025-07-11T10:00:17.001000+02:00</time>
      </trkpt>
      <trkpt lat="46.1729" lon="-0.22258">
        <ele>72.7</ele>
        <time>2025-07-11T10:00:18.002000+02:00</time>
      </trkpt>
      <trkpt lat="46.1729" lon="-0.22258">
        <ele>72.7</ele>
        <time>2025-07-11T10:00:20.001000+02:00</time>
      </trkpt>
      <trkpt lat="46.1729" lon="-0.22258">
        <ele>72.7</ele>
        <time>2025-07-11T10:00:21.002000+02:00</time>
      </trkpt>
      <trkpt lat="46.1729" lon="-0.2225">
        <ele>73</ele>
        <time>2025-07-11T10:00:29.001000+02:00</time>
      </trkpt>
      <trkpt lat="46.1729" lon="-0.22246">
        <ele>73.1</ele>
        <time>2025-07-11T10:00:30.001000+02:00</time>
      </trkpt>
      <trkpt lat="46.17289" lon="-0.22243">
        <ele>73.1</ele>
        <time>2025-07-11T10:00:31.002000+02:00</time>
      </trkpt>
      <trkpt lat="46.17288" lon="-0.22236">
        <ele>73.2</ele>
        <time>2025-07-11T10:00:33.002000+02:00</time>
      </trkpt>
      <trkpt lat="46.17288" lon="-0.2223">
        <ele>73.3</ele>
        <time>2025-07-11T10:00:35.001000+02:00</time>
      </trkpt>
      <trkpt lat="46.17287" lon="-0.22226">
        <ele>73.3</ele>
        <time>2025-07-11T10:00:36.001000+02:00</time>
      </trkpt>
      <trkpt lat="46.17287" lon="-0.22222">
        <ele>73.3</ele>
        <time>2025-07-11T10:00:37.001000+02:00</time>
      </trkpt>
      <trkpt lat="46.17287" lon="-0.22219">
        <ele>73.5</ele>
        <time>2025-07-11T10:00:38.003000+02:00</time>
      </trkpt>
      <trkpt lat="46.17288" lon="-0.22212">
        <ele>74</ele>
        <time>2025-07-11T10:00:40.001000+02:00</time>
      </trkpt>
      <trkpt lat="46.17287" lon="-0.22208">
        <ele>74.2</ele>
        <time>2025-07-11T10:00:41.001000+02:00</time>
      </trkpt>
      <trkpt lat="46.17287" lon="-0.22204">
        <ele>74.4</ele>
        <time>2025-07-11T10:00:42.004000+02:00</time>
      </trkpt>
      <trkpt lat="46.17285" lon="-0.22196">
        <ele>74.9</ele>
        <time>2025-07-11T10:00:44+02:00</time>
      </trkpt>
      <trkpt lat="46.17285" lon="-0.22192">
        <ele>75.1</ele>
        <time>2025-07-11T10:00:45.002000+02:00</time>
      </trkpt>
      <trkpt lat="46.17284" lon="-0.22183">
        <ele>75.3</ele>
        <time>2025-07-11T10:00:47+02:00</time>
      </trkpt>
      <trkpt lat="46.17283" lon="-0.22178">
        <ele>75.5</ele>
        <time>2025-07-11T10:00:48.001000+02:00</time>
      </trkpt>
      <trkpt lat="46.17282" lon="-0.22174">
        <ele>75.6</ele>
        <time>2025-07-11T10:00:49.002000+02:00</time>
      </trkpt>
      <trkpt lat="46.17282" lon="-0.22169">
        <ele>75.8</ele>
        <time>2025-07-11T10:00:50.003000+02:00</time>
      </trkpt>
      <trkpt lat="46.17282" lon="-0.2216">
        <ele>75.9</ele>
        <time>2025-07-11T10:00:52.001000+02:00</time>
      </trkpt>
      <trkpt lat="46.17282" lon="-0.22156">
        <ele>75.9</ele>
        <time>2025-07-11T10:00:53.001000+02:00</time>
      </trkpt>
      <trkpt lat="46.17282" lon="-0.22152">
        <ele>75.9</ele>
        <time>2025-07-11T10:00:54.003000+02:00</time>
      </trkpt>
      <trkpt lat="46.17282" lon="-0.22143">
        <ele>76</ele>
        <time>2025-07-11T10:00:56.003000+02:00</time>
      </trkpt>
      <trkpt lat="46.17281" lon="-0.22135">
        <ele>76</ele>
        <time>2025-07-11T10:00:58+02:00</time>
      </trkpt>
      <trkpt lat="46.1728" lon="-0.22131">
        <ele>76</ele>
        <time>2025-07-11T10:00:59.001000+02:00</time>
      </trkpt>
      <trkpt lat="46.1728" lon="-0.22127">
        <ele>76</ele>
        <time>2025-07-11T10:01:00.003000+02:00</time>
      </trkpt>
      <trkpt lat="46.17279" lon="-0.22119">
        <ele>76</ele>
        <time>2025-07-11T10:01:02.001000+02:00</time>
      </trkpt>
      <trkpt lat="46.17279" lon="-0.22115">
        <ele>76</ele>
        <time>2025-07-11T10:01:03.001000+02:00</time>
      </trkpt>
      <trkpt lat="46.17278" lon="-0.22107">
        <ele>76.2</ele>
        <time>2025-07-11T10:01:05.001000+02:00</time>
      </trkpt>
      <trkpt lat="46.17277" lon="-0.22103">
        <ele>76.3</ele>
        <time>2025-07-11T10:01:06.003000+02:00</time>
      </trkpt>
      <trkpt lat="46.17276" lon="-0.22096">
        <ele>76.5</ele>
        <time>2025-07-11T10:01:08+02:00</time>
      </trkpt>
      <trkpt lat="46.17275" lon="-0.22093">
        <ele>76.6</ele>
        <time>2025-07-11T10:01:09.001000+02:00</time>
      </trkpt>
      <trkpt lat="46.17279" lon="-0.22078">
        <ele>77</ele>
        <time>2025-07-11T10:01:11.003000+02:00</time>
      </trkpt>
      <trkpt lat="46.17282" lon="-0.22065">
        <ele>77</ele>
        <time>2025-07-11T10:01:13.003000+02:00</time>
      </trkpt>
      <trkpt lat="46.17283" lon="-0.22058">
        <ele>77</ele>
        <time>2025-07-11T10:01:15.001000+02:00</time>
      </trkpt>
      <trkpt lat="46.17284" lon="-0.22054">
        <ele>77</ele>
        <time>2025-07-11T10:01:16.002000+02:00</time>
      </trkpt>
      <trkpt lat="46.17281" lon="-0.22048">
        <ele>77.2</ele>
        <time>2025-07-11T10:01:18.003000+02:00</time>
      </trkpt>
      <trkpt lat="46.17279" lon="-0.22041">
        <ele>77.5</ele>
        <time>2025-07-11T10:01:20.002000+02:00</time>
      </trkpt>
      <trkpt lat="46.1728" lon="-0.22033">
        <ele>77.8</ele>
        <time>2025-07-11T10:01:22.003000+02:00</time>
      </trkpt>
      <trkpt lat="46.1728" lon="-0.22029">
        <ele>77.9</ele>
        <time>2025-07-11T10:01:23.003000+02:00</time>
      </trkpt>
      <trkpt lat="46.17281" lon="-0.22022">
        <ele>77.9</ele>
        <time>2025-07-11T10:01:25.001000+02:00</time>
      </trkpt>
      <trkpt lat="46.1728" lon="-0.22018">
        <ele>77.9</ele>
        <time>2025-07-11T10:01:26.001000+02:00</time>
      </trkpt>
      <trkpt lat="46.1728" lon="-0.22015">
        <ele>77.9</ele>
        <time>2025-07-11T10:01:27.003000+02:00</time>
      </trkpt>
      <trkpt lat="46.17279" lon="-0.22006">
        <ele>78</ele>
        <time>2025-07-11T10:01:29.002000+02:00</time>
      </trkpt>
      <trkpt lat="46.17276" lon="-0.21998">
        <ele>78</ele>
        <time>2025-07-11T10:01:31.001000+02:00</time>
      </trkpt>
      <trkpt lat="46.17275" lon="-0.21988">
        <ele>78</ele>
        <time>2025-07-11T10:01:33.003000+02:00</time>
      </trkpt>
      <trkpt lat="46.17275" lon="-0.21979">
        <ele>78</ele>
        <time>2025-07-11T10:01:35.001000+02:00</time>
      </trkpt>
      <trkpt lat="46.17274" lon="-0.21974">
        <ele>78</ele>
        <time>2025-07-11T10:01:36.002000+02:00</time>
      </trkpt>
      <trkpt lat="46.17274" lon="-0.21969">
        <ele>78</ele>
        <time>2025-07-11T10:01:37.004000+02:00</time>
      </trkpt>
      <trkpt lat="46.17274" lon="-0.21964">
        <ele>78</ele>
        <time>2025-07-11T10:01:38.004000+02:00</time>
      </trkpt>
      <trkpt lat="46.17273" lon="-0.21955">
        <ele>78.1</ele>
        <time>2025-07-11T10:01:40.004000+02:00</time>
      </trkpt>
      <trkpt lat="46.17274" lon="-0.21945">
        <ele>78.1</ele>
        <time>2025-07-11T10:01:42.002000+02:00</time>
      </trkpt>
      <trkpt lat="46.17275" lon="-0.2194">
        <ele>78.2</ele>
        <time>2025-07-11T10:01:43.004000+02:00</time>
      </trkpt>
      <trkpt lat="46.17275" lon="-0.21929">
        <ele>78.6</ele>
        <time>2025-07-11T10:01:45.001000+02:00</time>
      </trkpt>
      <trkpt lat="46.17274" lon="-0.21924">
        <ele>78.8</ele>
        <time>2025-07-11T10:01:46.004000+02:00</time>
      </trkpt>
      <trkpt lat="46.17274" lon="-0.21914">
        <ele>79</ele>
        <time>2025-07-11T10:01:48.001000+02:00</time>
      </trkpt>
      <trkpt lat="46.17273" lon="-0.21909">
        <ele>79</ele>
        <time>2025-07-11T10:01:49.001000+02:00</time>
      </trkpt>
      <trkpt lat="46.17273" lon="-0.21904">
        <ele>79.1</ele>
        <time>2025-07-11T10:01:50.001000+02:00</time>
      </trkpt>
      <trkpt lat="46.17273" lon="-0.21899">
        <ele>79.1</ele>
        <time>2025-07-11T10:01:51.001000+02:00</time>
      </trkpt>
      <trkpt lat="46.17272" lon="-0.2189">
        <ele>79.2</ele>
        <time>2025-07-11T10:01:53.001000+02:00</time>
      </trkpt>
      <trkpt lat="46.17271" lon="-0.2188">
        <ele>79.2</ele>
        <time>2025-07-11T10:01:55.001000+02:00</time>
      </trkpt>
      <trkpt lat="46.17271" lon="-0.21875">
        <ele>79.3</ele>
        <time>2025-07-11T10:01:56.001000+02:00</time>
      </trkpt>
      <trkpt lat="46.1727" lon="-0.21871">
        <ele>79.3</ele>
        <time>2025-07-11T10:01:57.003000+02:00</time>
      </trkpt>
      <trkpt lat="46.17271" lon="-0.21866">
        <ele>79.3</ele>
        <time>2025-07-11T10:01:58.003000+02:00</time>
      </trkpt>
      <trkpt lat="46.17271" lon="-0.21861">
        <ele>79.2</ele>
        <time>2025-07-11T10:01:59.003000+02:00</time>
      </trkpt>
      <trkpt lat="46.17271" lon="-0.21853">
        <ele>79.5</ele>
        <time>2025-07-11T10:02:01.001000+02:00</time>
      </trkpt>
      <trkpt lat="46.17271" lon="-0.21844">
        <ele>79.9</ele>
        <time>2025-07-11T10:02:03.001000+02:00</time>
      </trkpt>
      <trkpt lat="46.17271" lon="-0.2184">
        <ele>80</ele>
        <time>2025-07-11T10:02:04.002000+02:00</time>
      </trkpt>
      <trkpt lat="46.17271" lon="-0.21831">
        <ele>80.2</ele>
        <time>2025-07-11T10:02:06+02:00</time>
      </trkpt>
      <trkpt lat="46.17272" lon="-0.21827">
        <ele>80.2</ele>
        <time>2025-07-11T10:02:07.001000+02:00</time>
      </trkpt>
      <trkpt lat="46.17272" lon="-0.21823">
        <ele>80.2</ele>
        <time>2025-07-11T10:02:08.003000+02:00</time>
      </trkpt>
      <trkpt lat="46.17271" lon="-0.21818">
        <ele>80.2</ele>
        <time>2025-07-11T10:02:09.003000+02:00</time>
      </trkpt>
      <trkpt lat="46.17271" lon="-0.21814">
        <ele>80.2</ele>
        <time>2025-07-11T10:02:10.003000+02:00</time>
      </trkpt>
      <trkpt lat="46.17271" lon="-0.21804">
        <ele>80.2</ele>
        <time>2025-07-11T10:02:12.001000+02:00</time>
      </trkpt>
      <trkpt lat="46.17271" lon="-0.21799">
        <ele>80.2</ele>
        <time>2025-07-11T10:02:13.002000+02:00</time>
      </trkpt>
      <trkpt lat="46.1727" lon="-0.2179">
        <ele>80.3</ele>
        <time>2025-07-11T10:02:15.002000+02:00</time>
      </trkpt>
      <trkpt lat="46.1727" lon="-0.2178">
        <ele>80.3</ele>
        <time>2025-07-11T10:02:17.002000+02:00</time>
      </trkpt>
      <trkpt lat="46.17269" lon="-0.21769">
        <ele>80.3</ele>
        <time>2025-07-11T10:02:19.001000+02:00</time>
      </trkpt>
      <trkpt lat="46.17268" lon="-0.21764">
        <ele>80.4</ele>
        <time>2025-07-11T10:02:20.002000+02:00</time>
      </trkpt>
      <trkpt lat="46.17266" lon="-0.21755">
        <ele>80.4</ele>
        <time>2025-07-11T10:02:22+02:00</time>
      </trkpt>
      <trkpt lat="46.17265" lon="-0.21751">
        <ele>80.5</ele>
        <time>2025-07-11T10:02:23+02:00</time>
      </trkpt>
      <trkpt lat="46.17264" lon="-0.21746">
        <ele>80.5</ele>
        <time>2025-07-11T10:02:24+02:00</time>
      </trkpt>
      <trkpt lat="46.17262" lon="-0.21741">
        <ele>80.6</ele>
        <time>2025-07-11T10:02:25.001000+02:00</time>
      </trkpt>
      <trkpt lat="46.1726" lon="-0.21737">
        <ele>80.6</ele>
        <time>2025-07-11T10:02:26.003000+02:00</time>
      </trkpt>
      <trkpt lat="46.17259" lon="-0.21732">
        <ele>80.7</ele>
        <time>2025-07-11T10:02:27.003000+02:00</time>
      </trkpt>
      <trkpt lat="46.17256" lon="-0.21724">
        <ele>80.8</ele>
        <time>2025-07-11T10:02:29.001000+02:00</time>
      </trkpt>
      <trkpt lat="46.17254" lon="-0.21721">
        <ele>80.8</ele>
        <time>2025-07-11T10:02:30.001000+02:00</time>
      </trkpt>
      <trkpt lat="46.17253" lon="-0.21716">
        <ele>80.9</ele>
        <time>2025-07-11T10:02:31.002000+02:00</time>
      </trkpt>
      <trkpt lat="46.1725" lon="-0.21708">
        <ele>81</ele>
        <time>2025-07-11T10:02:33.002000+02:00</time>
      </trkpt>
      <trkpt lat="46.17248" lon="-0.21704">
        <ele>81.1</ele>
        <time>2025-07-11T10:02:34.002000+02:00</time>
      </trkpt>
      <trkpt lat="46.17245" lon="-0.21695">
        <ele>81.2</ele>
        <time>2025-07-11T10:02:36.001000+02:00</time>
      </trkpt>
      <trkpt lat="46.17243" lon="-0.2169">
        <ele>81.1</ele>
        <time>2025-07-11T10:02:37.002000+02:00</time>
      </trkpt>
      <trkpt lat="46.1724" lon="-0.21681">
        <ele>80.9</ele>
        <time>2025-07-11T10:02:39.003000+02:00</time>
      </trkpt>
      <trkpt lat="46.17235" lon="-0.21673">
        <ele>80.8</ele>
        <time>2025-07-11T10:02:41.001000+02:00</time>
      </trkpt>
      <trkpt lat="46.17233" lon="-0.21668">
        <ele>80.7</ele>
        <time>2025-07-11T10:02:42.001000+02:00</time>
      </trkpt>
      <trkpt lat="46.1723" lon="-0.21664">
        <ele>80.7</ele>
        <time>2025-07-11T10:02:43.002000+02:00</time>
      </trkpt>
      <trkpt lat="46.17228" lon="-0.21659">
        <ele>80.7</ele>
        <time>2025-07-11T10:02:44.003000+02:00</time>
      </trkpt>
      <trkpt lat="46.17226" lon="-0.21654">
        <ele>80.8</ele>
        <time>2025-07-11T10:02:45.003000+02:00</time>
      </trkpt>
      <trkpt lat="46.17225" lon="-0.2165">
        <ele>80.9</ele>
        <time>2025-07-11T10:02:46.003000+02:00</time>
      </trkpt>
      <trkpt lat="46.17221" lon="-0.2164">
        <ele>81</ele>
        <time>2025-07-11T10:02:48.001000+02:00</time>
      </trkpt>
      <trkpt lat="46.1722" lon="-0.21634">
        <ele>80.9</ele>
        <time>2025-07-11T10:02:49.001000+02:00</time>
      </trkpt>
      <trkpt lat="46.17218" lon="-0.21629">
        <ele>80.8</ele>
        <time>2025-07-11T10:02:50.001000+02:00</time>
      </trkpt>
      <trkpt lat="46.17216" lon="-0.21624">
        <ele>80.7</ele>
        <time>2025-07-11T10:02:51.003000+02:00</time>
      </trkpt>
      <trkpt lat="46.17212" lon="-0.21614">
        <ele>80.5</ele>
        <time>2025-07-11T10:02:53.003000+02:00</time>
      </trkpt>
      <trkpt lat="46.17209" lon="-0.21603">
        <ele>80.5</ele>
        <time>2025-07-11T10:02:55.003000+02:00</time>
      </trkpt>
      <trkpt lat="46.17206" lon="-0.21592">
        <ele>80.7</ele>
        <time>2025-07-11T10:02:57.002000+02:00</time>
      </trkpt>
      <trkpt lat="46.17204" lon="-0.21582">
        <ele>81</ele>
        <time>2025-07-11T10:02:59.001000+02:00</time>
      </trkpt>
      <trkpt lat="46.17203" lon="-0.21577">
        <ele>81.1</ele>
        <time>2025-07-11T10:03:00.001000+02:00</time>
      </trkpt>
      <trkpt lat="46.17202" lon="-0.21572">
        <ele>81.2</ele>
        <time>2025-07-11T10:03:01.001000+02:00</time>
      </trkpt>
      <trkpt lat="46.172" lon="-0.21567">
        <ele>81.4</ele>
        <time>2025-07-11T10:03:02.004000+02:00</time>
      </trkpt>
      <trkpt lat="46.17197" lon="-0.21557">
        <ele>81.7</ele>
        <time>2025-07-11T10:03:04.002000+02:00</time>
      </trkpt>
      <trkpt lat="46.17195" lon="-0.21547">
        <ele>81.6</ele>
        <time>2025-07-11T10:03:06.006000+02:00</time>
      </trkpt>
      <trkpt lat="46.17192" lon="-0.21538">
        <ele>81.4</ele>
        <time>2025-07-11T10:03:08.001000+02:00</time>
      </trkpt>
      <trkpt lat="46.17191" lon="-0.21534">
        <ele>81.3</ele>
        <time>2025-07-11T10:03:09.002000+02:00</time>
      </trkpt>
      <trkpt lat="46.17188" lon="-0.21525">
        <ele>81.2</ele>
        <time>2025-07-11T10:03:11.001000+02:00</time>
      </trkpt>
      <trkpt lat="46.17187" lon="-0.21521">
        <ele>81.3</ele>
        <time>2025-07-11T10:03:12.002000+02:00</time>
      </trkpt>
      <trkpt lat="46.17184" lon="-0.21512">
        <ele>81.6</ele>
        <time>2025-07-11T10:03:14.002000+02:00</time>
      </trkpt>
      <trkpt lat="46.17182" lon="-0.21508">
        <ele>81.8</ele>
        <time>2025-07-11T10:03:15.004000+02:00</time>
      </trkpt>
      <trkpt lat="46.17178" lon="-0.215">
        <ele>82.2</ele>
        <time>2025-07-11T10:03:17.001000+02:00</time>
      </trkpt>
      <trkpt lat="46.17176" lon="-0.21496">
        <ele>82.2</ele>
        <time>2025-07-11T10:03:18.001000+02:00</time>
      </trkpt>
      <trkpt lat="46.17174" lon="-0.21492">
        <ele>82.3</ele>
        <time>2025-07-11T10:03:19.001000+02:00</time>
      </trkpt>
      <trkpt lat="46.17172" lon="-0.21488">
        <ele>82.3</ele>
        <time>2025-07-11T10:03:20.002000+02:00</time>
      </trkpt>
      <trkpt lat="46.1717" lon="-0.21485">
        <ele>82.3</ele>
        <time>2025-07-11T10:03:21.003000+02:00</time>
      </trkpt>
      <trkpt lat="46.17167" lon="-0.21482">
        <ele>82.3</ele>
        <time>2025-07-11T10:03:22.003000+02:00</time>
      </trkpt>
      <trkpt lat="46.17161" lon="-0.21476">
        <ele>82.5</ele>
        <time>2025-07-11T10:03:24.003000+02:00</time>
      </trkpt>
      <trkpt lat="46.17156" lon="-0.2147">
        <ele>82.8</ele>
        <time>2025-07-11T10:03:26.001000+02:00</time>
      </trkpt>
      <trkpt lat="46.17154" lon="-0.21467">
        <ele>82.9</ele>
        <time>2025-07-11T10:03:27.002000+02:00</time>
      </trkpt>
      <trkpt lat="46.17151" lon="-0.21465">
        <ele>83.1</ele>
        <time>2025-07-11T10:03:28.002000+02:00</time>
      </trkpt>
      <trkpt lat="46.17147" lon="-0.21461">
        <ele>83.4</ele>
        <time>2025-07-11T10:03:30.003000+02:00</time>
      </trkpt>
      <trkpt lat="46.17145" lon="-0.2146">
        <ele>83.6</ele>
        <time>2025-07-11T10:03:31.004000+02:00</time>
      </trkpt>
      <trkpt lat="46.17143" lon="-0.21458">
        <ele>83.7</ele>
        <time>2025-07-11T10:03:32.004000+02:00</time>
      </trkpt>
      <trkpt lat="46.17143" lon="-0.21453">
        <ele>83.7</ele>
        <time>2025-07-11T10:03:34.004000+02:00</time>
      </trkpt>
      <trkpt lat="46.17146" lon="-0.2145">
        <ele>83.5</ele>
        <time>2025-07-11T10:03:36.002000+02:00</time>
      </trkpt>
      <trkpt lat="46.17151" lon="-0.21447">
        <ele>83.2</ele>
        <time>2025-07-11T10:03:38.001000+02:00</time>
      </trkpt>
      <trkpt lat="46.17153" lon="-0.21447">
        <ele>83</ele>
        <time>2025-07-11T10:03:39.002000+02:00</time>
      </trkpt>
      <trkpt lat="46.17159" lon="-0.21445">
        <ele>82.6</ele>
        <time>2025-07-11T10:03:41.003000+02:00</time>
      </trkpt>
      <trkpt lat="46.17162" lon="-0.21444">
        <ele>82.4</ele>
        <time>2025-07-11T10:03:42.004000+02:00</time>
      </trkpt>
      <trkpt lat="46.17169" lon="-0.21442">
        <ele>82</ele>
        <time>2025-07-11T10:03:44.004000+02:00</time>
      </trkpt>
      <trkpt lat="46.17176" lon="-0.2144">
        <ele>81.8</ele>
        <time>2025-07-11T10:03:46.001000+02:00</time>
      </trkpt>
      <trkpt lat="46.17184" lon="-0.21437">
        <ele>81.5</ele>
        <time>2025-07-11T10:03:48.001000+02:00</time>
      </trkpt>
      <trkpt lat="46.17192" lon="-0.21434">
        <ele>81.1</ele>
        <time>2025-07-11T10:03:50.002000+02:00</time>
      </trkpt>
      <trkpt lat="46.17197" lon="-0.21432">
        <ele>80.9</ele>
        <time>2025-07-11T10:03:51.002000+02:00</time>
      </trkpt>
      <trkpt lat="46.17202" lon="-0.21431">
        <ele>80.6</ele>
        <time>2025-07-11T10:03:52.002000+02:00</time>
      </trkpt>
      <trkpt lat="46.1721" lon="-0.21429">
        <ele>80.2</ele>
        <time>2025-07-11T10:03:54+02:00</time>
      </trkpt>
      <trkpt lat="46.17215" lon="-0.21428">
        <ele>80</ele>
        <time>2025-07-11T10:03:55.001000+02:00</time>
      </trkpt>
      <trkpt lat="46.17219" lon="-0.21427">
        <ele>79.8</ele>
        <time>2025-07-11T10:03:56.001000+02:00</time>
      </trkpt>
      <trkpt lat="46.17224" lon="-0.21426">
        <ele>79.5</ele>
        <time>2025-07-11T10:03:57.001000+02:00</time>
      </trkpt>
      <trkpt lat="46.17229" lon="-0.21425">
        <ele>79</ele>
        <time>2025-07-11T10:03:58.001000+02:00</time>
      </trkpt>
      <trkpt lat="46.17234" lon="-0.21424">
        <ele>78.5</ele>
        <time>2025-07-11T10:03:59.002000+02:00</time>
      </trkpt>
      <trkpt lat="46.17244" lon="-0.21423">
        <ele>77.6</ele>
        <time>2025-07-11T10:04:01.001000+02:00</time>
      </trkpt>
      <trkpt lat="46.17249" lon="-0.21423">
        <ele>77.1</ele>
        <time>2025-07-11T10:04:02.004000+02:00</time>
      </trkpt>
      <trkpt lat="46.17259" lon="-0.21423">
        <ele>76.1</ele>
        <time>2025-07-11T10:04:04.001000+02:00</time>
      </trkpt>
      <trkpt lat="46.17264" lon="-0.21423">
        <ele>75.6</ele>
        <time>2025-07-11T10:04:05.001000+02:00</time>
      </trkpt>
      <trkpt lat="46.17269" lon="-0.21422">
        <ele>75.1</ele>
        <time>2025-07-11T10:04:06.002000+02:00</time>
      </trkpt>
      <trkpt lat="46.17279" lon="-0.21421">
        <ele>74</ele>
        <time>2025-07-11T10:04:08.003000+02:00</time>
      </trkpt>
      <trkpt lat="46.1729" lon="-0.2142">
        <ele>73.3</ele>
        <time>2025-07-11T10:04:10.001000+02:00</time>
      </trkpt>
      <trkpt lat="46.17295" lon="-0.2142">
        <ele>72.9</ele>
        <time>2025-07-11T10:04:11.003000+02:00</time>
      </trkpt>
      <trkpt lat="46.17306" lon="-0.2142">
        <ele>72.1</ele>
        <time>2025-07-11T10:04:13.003000+02:00</time>
      </trkpt>
      <trkpt lat="46.17312" lon="-0.2142">
        <ele>71.5</ele>
        <time>2025-07-11T10:04:14.003000+02:00</time>
      </trkpt>
      <trkpt lat="46.17318" lon="-0.21421">
        <ele>70.8</ele>
        <time>2025-07-11T10:04:15.003000+02:00</time>
      </trkpt>
      <trkpt lat="46.1733" lon="-0.21423">
        <ele>69.6</ele>
        <time>2025-07-11T10:04:17+02:00</time>
      </trkpt>
      <trkpt lat="46.17336" lon="-0.21424">
        <ele>69.1</ele>
        <time>2025-07-11T10:04:18.001000+02:00</time>
      </trkpt>
      <trkpt lat="46.17342" lon="-0.21425">
        <ele>68.7</ele>
        <time>2025-07-11T10:04:19.002000+02:00</time>
      </trkpt>
      <trkpt lat="46.17355" lon="-0.21428">
        <ele>67.9</ele>
        <time>2025-07-11T10:04:21.003000+02:00</time>
      </trkpt>
      <trkpt lat="46.17368" lon="-0.21434">
        <ele>67.2</ele>
        <time>2025-07-11T10:04:23.001000+02:00</time>
      </trkpt>
      <trkpt lat="46.17374" lon="-0.21438">
        <ele>66.8</ele>
        <time>2025-07-11T10:04:24.002000+02:00</time>
      </trkpt>
      <trkpt lat="46.17381" lon="-0.21441">
        <ele>66.4</ele>
        <time>2025-07-11T10:04:25.002000+02:00</time>
      </trkpt>
      <trkpt lat="46.17394" lon="-0.21448">
        <ele>65.8</ele>
        <time>2025-07-11T10:04:27.002000+02:00</time>
      </trkpt>
      <trkpt lat="46.174" lon="-0.21452">
        <ele>65.4</ele>
        <time>2025-07-11T10:04:28.002000+02:00</time>
      </trkpt>
      <trkpt lat="46.17412" lon="-0.21458">
        <ele>64.8</ele>
        <time>2025-07-11T10:04:30.001000+02:00</time>
      </trkpt>
      <trkpt lat="46.17418" lon="-0.2146">
        <ele>64.5</ele>
        <time>2025-07-11T10:04:31.001000+02:00</time>
      </trkpt>
      <trkpt lat="46.17423" lon="-0.21463">
        <ele>64.2</ele>
        <time>2025-07-11T10:04:32.002000+02:00</time>
      </trkpt>
      <trkpt lat="46.17428" lon="-0.21466">
        <ele>64</ele>
        <time>2025-07-11T10:04:33.005000+02:00</time>
      </trkpt>
      <trkpt lat="46.17438" lon="-0.2147">
        <ele>63.4</ele>
        <time>2025-07-11T10:04:35.001000+02:00</time>
      </trkpt>
      <trkpt lat="46.17443" lon="-0.21472">
        <ele>63.1</ele>
        <time>2025-07-11T10:04:36.002000+02:00</time>
      </trkpt>
      <trkpt lat="46.17452" lon="-0.21476">
        <ele>62.7</ele>
        <time>2025-07-11T10:04:38.004000+02:00</time>
      </trkpt>
      <trkpt lat="46.17459" lon="-0.21478">
        <ele>62.5</ele>
        <time>2025-07-11T10:04:40.001000+02:00</time>
      </trkpt>
      <trkpt lat="46.17462" lon="-0.21479">
        <ele>62.4</ele>
        <time>2025-07-11T10:04:41.001000+02:00</time>
      </trkpt>
      <trkpt lat="46.17465" lon="-0.21479">
        <ele>62.3</ele>
        <time>2025-07-11T10:04:42.001000+02:00</time>
      </trkpt>
      <trkpt lat="46.17468" lon="-0.21479">
        <ele>62.1</ele>
        <time>2025-07-11T10:04:43.001000+02:00</time>
      </trkpt>
      <trkpt lat="46.17471" lon="-0.2148">
        <ele>62</ele>
        <time>2025-07-11T10:04:44.001000+02:00</time>
      </trkpt>
      <trkpt lat="46.17473" lon="-0.21482">
        <ele>61.9</ele>
        <time>2025-07-11T10:04:45.004000+02:00</time>
      </trkpt>
      <trkpt lat="46.17477" lon="-0.21486">
        <ele>61.7</ele>
        <time>2025-07-11T10:04:47.001000+02:00</time>
      </trkpt>
      <trkpt lat="46.17479" lon="-0.21489">
        <ele>61.5</ele>
        <time>2025-07-11T10:04:48.002000+02:00</time>
      </trkpt>
      <trkpt lat="46.17481" lon="-0.21496">
        <ele>61.4</ele>
        <time>2025-07-11T10:04:50.003000+02:00</time>
      </trkpt>
      <trkpt lat="46.17481" lon="-0.21501">
        <ele>61.4</ele>
        <time>2025-07-11T10:04:51.004000+02:00</time>
      </trkpt>
      <trkpt lat="46.17482" lon="-0.21511">
        <ele>61.6</ele>
        <time>2025-07-11T10:04:53.002000+02:00</time>
      </trkpt>
      <trkpt lat="46.17483" lon="-0.21522">
        <ele>61.7</ele>
        <time>2025-07-11T10:04:55.002000+02:00</time>
      </trkpt>
      <trkpt lat="46.17483" lon="-0.21528">
        <ele>61.8</ele>
        <time>2025-07-11T10:04:56.002000+02:00</time>
      </trkpt>
      <trkpt lat="46.17484" lon="-0.21533">
        <ele>61.8</ele>
        <time>2025-07-11T10:04:57.002000+02:00</time>
      </trkpt>
      <trkpt lat="46.17485" lon="-0.21544">
        <ele>61.7</ele>
        <time>2025-07-11T10:04:59.001000+02:00</time>
      </trkpt>
      <trkpt lat="46.17485" lon="-0.21549">
        <ele>61.7</ele>
        <time>2025-07-11T10:05:00.002000+02:00</time>
      </trkpt>
      <trkpt lat="46.17486" lon="-0.21557">
        <ele>61.6</ele>
        <time>2025-07-11T10:05:02.004000+02:00</time>
      </trkpt>
      <trkpt lat="46.17489" lon="-0.21561">
        <ele>61.2</ele>
        <time>2025-07-11T10:05:04.001000+02:00</time>
      </trkpt>
      <trkpt lat="46.17492" lon="-0.21562">
        <ele>60.9</ele>
        <time>2025-07-11T10:05:05.001000+02:00</time>
      </trkpt>
      <trkpt lat="46.17495" lon="-0.21564">
        <ele>60.5</ele>
        <time>2025-07-11T10:05:06.002000+02:00</time>
      </trkpt>
      <trkpt lat="46.17503" lon="-0.21565">
        <ele>59.9</ele>
        <time>2025-07-11T10:05:08.003000+02:00</time>
      </trkpt>
      <trkpt lat="46.17506" lon="-0.21566">
        <ele>59.8</ele>
        <time>2025-07-11T10:05:09.003000+02:00</time>
      </trkpt>
      <trkpt lat="46.17512" lon="-0.21567">
        <ele>59.6</ele>
        <time>2025-07-11T10:05:11.001000+02:00</time>
      </trkpt>
      <trkpt lat="46.17516" lon="-0.21567">
        <ele>59.4</ele>
        <time>2025-07-11T10:05:12.001000+02:00</time>
      </trkpt>
      <trkpt lat="46.17519" lon="-0.21568">
        <ele>59.3</ele>
        <time>2025-07-11T10:05:13.001000+02:00</time>
      </trkpt>
      <trkpt lat="46.17522" lon="-0.21569">
        <ele>59.2</ele>
        <time>2025-07-11T10:05:14.001000+02:00</time>
      </trkpt>
      <trkpt lat="46.17525" lon="-0.2157">
        <ele>59.1</ele>
        <time>2025-07-11T10:05:15.003000+02:00</time>
      </trkpt>
      <trkpt lat="46.17532" lon="-0.21572">
        <ele>59</ele>
        <time>2025-07-11T10:05:17.001000+02:00</time>
      </trkpt>
      <trkpt lat="46.17536" lon="-0.21572">
        <ele>59</ele>
        <time>2025-07-11T10:05:18.003000+02:00</time>
      </trkpt>
      <trkpt lat="46.17543" lon="-0.21574">
        <ele>59</ele>
        <time>2025-07-11T10:05:20.001000+02:00</time>
      </trkpt>
      <trkpt lat="46.17547" lon="-0.21575">
        <ele>59</ele>
        <time>2025-07-11T10:05:21.002000+02:00</time>
      </trkpt>
      <trkpt lat="46.17554" lon="-0.21576">
        <ele>59</ele>
        <time>2025-07-11T10:05:23.001000+02:00</time>
      </trkpt>
      <trkpt lat="46.17557" lon="-0.21577">
        <ele>59</ele>
        <time>2025-07-11T10:05:24.001000+02:00</time>
      </trkpt>
      <trkpt lat="46.17561" lon="-0.21579">
        <ele>59</ele>
        <time>2025-07-11T10:05:25.001000+02:00</time>
      </trkpt>
      <trkpt lat="46.17565" lon="-0.21581">
        <ele>59</ele>
        <time>2025-07-11T10:05:26.001000+02:00</time>
      </trkpt>
      <trkpt lat="46.17569" lon="-0.21583">
        <ele>59</ele>
        <time>2025-07-11T10:05:27.001000+02:00</time>
      </trkpt>
      <trkpt lat="46.17572" lon="-0.21584">
        <ele>59</ele>
        <time>2025-07-11T10:05:28.001000+02:00</time>
      </trkpt>
      <trkpt lat="46.17576" lon="-0.21586">
        <ele>59</ele>
        <time>2025-07-11T10:05:29.001000+02:00</time>
      </trkpt>
      <trkpt lat="46.17579" lon="-0.21588">
        <ele>59</ele>
        <time>2025-07-11T10:05:30.001000+02:00</time>
      </trkpt>
      <trkpt lat="46.17582" lon="-0.21589">
        <ele>59</ele>
        <time>2025-07-11T10:05:31.003000+02:00</time>
      </trkpt>
      <trkpt lat="46.17589" lon="-0.21591">
        <ele>59</ele>
        <time>2025-07-11T10:05:33.003000+02:00</time>
      </trkpt>
      <trkpt lat="46.17596" lon="-0.21594">
        <ele>59</ele>
        <time>2025-07-11T10:05:35.001000+02:00</time>
      </trkpt>
      <trkpt lat="46.176" lon="-0.21595">
        <ele>59</ele>
        <time>2025-07-11T10:05:36.003000+02:00</time>
      </trkpt>
      <trkpt lat="46.17606" lon="-0.216">
        <ele>59</ele>
        <time>2025-07-11T10:05:38.001000+02:00</time>
      </trkpt>
      <trkpt lat="46.1761" lon="-0.21602">
        <ele>59</ele>
        <time>2025-07-11T10:05:39.003000+02:00</time>
      </trkpt>
      <trkpt lat="46.17618" lon="-0.21603">
        <ele>59</ele>
        <time>2025-07-11T10:05:41.001000+02:00</time>
      </trkpt>
      <trkpt lat="46.17621" lon="-0.21604">
        <ele>59</ele>
        <time>2025-07-11T10:05:42.004000+02:00</time>
      </trkpt>
      <trkpt lat="46.1763" lon="-0.21609">
        <ele>59</ele>
        <time>2025-07-11T10:05:44+02:00</time>
      </trkpt>
      <trkpt lat="46.17633" lon="-0.21613">
        <ele>59</ele>
        <time>2025-07-11T10:05:45.001000+02:00</time>
      </trkpt>
      <trkpt lat="46.17637" lon="-0.21615">
        <ele>59</ele>
        <time>2025-07-11T10:05:46.001000+02:00</time>
      </trkpt>
      <trkpt lat="46.17644" lon="-0.21619">
        <ele>59.5</ele>
        <time>2025-07-11T10:05:48.001000+02:00</time>
      </trkpt>
      <trkpt lat="46.17648" lon="-0.21621">
        <ele>59.8</ele>
        <time>2025-07-11T10:05:49.002000+02:00</time>
      </trkpt>
      <trkpt lat="46.17651" lon="-0.21623">
        <ele>60.1</ele>
        <time>2025-07-11T10:05:50.002000+02:00</time>
      </trkpt>
      <trkpt lat="46.17654" lon="-0.21625">
        <ele>60.4</ele>
        <time>2025-07-11T10:05:51.004000+02:00</time>
      </trkpt>
      <trkpt lat="46.1766" lon="-0.21631">
        <ele>60.8</ele>
        <time>2025-07-11T10:05:53.002000+02:00</time>
      </trkpt>
      <trkpt lat="46.17663" lon="-0.21634">
        <ele>60.9</ele>
        <time>2025-07-11T10:05:54.002000+02:00</time>
      </trkpt>
      <trkpt lat="46.17665" lon="-0.21637">
        <ele>60.9</ele>
        <time>2025-07-11T10:05:55.003000+02:00</time>
      </trkpt>
      <trkpt lat="46.17667" lon="-0.2164">
        <ele>61</ele>
        <time>2025-07-11T10:05:56.004000+02:00</time>
      </trkpt>
      <trkpt lat="46.17673" lon="-0.21646">
        <ele>61.4</ele>
        <time>2025-07-11T10:05:58.001000+02:00</time>
      </trkpt>
      <trkpt lat="46.17675" lon="-0.2165">
        <ele>61.5</ele>
        <time>2025-07-11T10:05:59.003000+02:00</time>
      </trkpt>
      <trkpt lat="46.1768" lon="-0.21657">
        <ele>61.8</ele>
        <time>2025-07-11T10:06:01.003000+02:00</time>
      </trkpt>
      <trkpt lat="46.17683" lon="-0.2166">
        <ele>62</ele>
        <time>2025-07-11T10:06:02.003000+02:00</time>
      </trkpt>
      <trkpt lat="46.17688" lon="-0.21666">
        <ele>62.3</ele>
        <time>2025-07-11T10:06:04+02:00</time>
      </trkpt>
      <trkpt lat="46.1769" lon="-0.21668">
        <ele>62.4</ele>
        <time>2025-07-11T10:06:05+02:00</time>
      </trkpt>
      <trkpt lat="46.17692" lon="-0.21672">
        <ele>62.5</ele>
        <time>2025-07-11T10:06:06.003000+02:00</time>
      </trkpt>
      <trkpt lat="46.17697" lon="-0.21677">
        <ele>62.8</ele>
        <time>2025-07-11T10:06:08.001000+02:00</time>
      </trkpt>
      <trkpt lat="46.17699" lon="-0.2168">
        <ele>62.9</ele>
        <time>2025-07-11T10:06:09.002000+02:00</time>
      </trkpt>
      <trkpt lat="46.17704" lon="-0.21686">
        <ele>63</ele>
        <time>2025-07-11T10:06:11.002000+02:00</time>
      </trkpt>
      <trkpt lat="46.17706" lon="-0.21688">
        <ele>62.9</ele>
        <time>2025-07-11T10:06:12.002000+02:00</time>
      </trkpt>
      <trkpt lat="46.17711" lon="-0.21693">
        <ele>62.8</ele>
        <time>2025-07-11T10:06:14.001000+02:00</time>
      </trkpt>
      <trkpt lat="46.17714" lon="-0.21694">
        <ele>62.7</ele>
        <time>2025-07-11T10:06:15.001000+02:00</time>
      </trkpt>
      <trkpt lat="46.17716" lon="-0.21696">
        <ele>62.8</ele>
        <time>2025-07-11T10:06:16.001000+02:00</time>
      </trkpt>
      <trkpt lat="46.17722" lon="-0.217">
        <ele>63.2</ele>
        <time>2025-07-11T10:06:18.001000+02:00</time>
      </trkpt>
      <trkpt lat="46.17724" lon="-0.21702">
        <ele>63.6</ele>
        <time>2025-07-11T10:06:19.001000+02:00</time>
      </trkpt>
      <trkpt lat="46.1773" lon="-0.21707">
        <ele>64.3</ele>
        <time>2025-07-11T10:06:21.002000+02:00</time>
      </trkpt>
      <trkpt lat="46.17734" lon="-0.21711">
        <ele>64.7</ele>
        <time>2025-07-11T10:06:23.002000+02:00</time>
      </trkpt>
      <trkpt lat="46.1774" lon="-0.21716">
        <ele>65</ele>
        <time>2025-07-11T10:06:25.003000+02:00</time>
      </trkpt>
      <trkpt lat="46.17745" lon="-0.2172">
        <ele>65</ele>
        <time>2025-07-11T10:06:27.002000+02:00</time>
      </trkpt>
      <trkpt lat="46.17747" lon="-0.21722">
        <ele>64.9</ele>
        <time>2025-07-11T10:06:28.003000+02:00</time>
      </trkpt>
      <trkpt lat="46.17752" lon="-0.21727">
        <ele>65.3</ele>
        <time>2025-07-11T10:06:30.001000+02:00</time>
      </trkpt>
      <trkpt lat="46.17754" lon="-0.21729">
        <ele>65.8</ele>
        <time>2025-07-11T10:06:31.002000+02:00</time>
      </trkpt>
      <trkpt lat="46.17757" lon="-0.2173">
        <ele>66.3</ele>
        <time>2025-07-11T10:06:32.003000+02:00</time>
      </trkpt>
      <trkpt lat="46.17761" lon="-0.21734">
        <ele>67.1</ele>
        <time>2025-07-11T10:06:34+02:00</time>
      </trkpt>
      <trkpt lat="46.17763" lon="-0.21736">
        <ele>67.4</ele>
        <time>2025-07-11T10:06:35.001000+02:00</time>
      </trkpt>
      <trkpt lat="46.17766" lon="-0.21737">
        <ele>67.7</ele>
        <time>2025-07-11T10:06:36.002000+02:00</time>
      </trkpt>
      <trkpt lat="46.17768" lon="-0.21739">
        <ele>68</ele>
        <time>2025-07-11T10:06:37.002000+02:00</time>
      </trkpt>
      <trkpt lat="46.1777" lon="-0.21741">
        <ele>68.3</ele>
        <time>2025-07-11T10:06:38.002000+02:00</time>
      </trkpt>
      <trkpt lat="46.17772" lon="-0.21742">
        <ele>68.6</ele>
        <time>2025-07-11T10:06:39.002000+02:00</time>
      </trkpt>
      <trkpt lat="46.17776" lon="-0.21745">
        <ele>69</ele>
        <time>2025-07-11T10:06:41.002000+02:00</time>
      </trkpt>
      <trkpt lat="46.17777" lon="-0.21746">
        <ele>69.3</ele>
        <time>2025-07-11T10:06:42.002000+02:00</time>
      </trkpt>
      <trkpt lat="46.17779" lon="-0.21747">
        <ele>69.4</ele>
        <time>2025-07-11T10:06:43.003000+02:00</time>
      </trkpt>
      <trkpt lat="46.17782" lon="-0.2175">
        <ele>69.5</ele>
        <time>2025-07-11T10:06:45.001000+02:00</time>
      </trkpt>
      <trkpt lat="46.17784" lon="-0.21752">
        <ele>69.6</ele>
        <time>2025-07-11T10:06:46.003000+02:00</time>
      </trkpt>
      <trkpt lat="46.17787" lon="-0.21755">
        <ele>69.9</ele>
        <time>2025-07-11T10:06:48.001000+02:00</time>
      </trkpt>
      <trkpt lat="46.17788" lon="-0.21757">
        <ele>70</ele>
        <time>2025-07-11T10:06:49.002000+02:00</time>
      </trkpt>
      <trkpt lat="46.17793" lon="-0.2176">
        <ele>70.4</ele>
        <time>2025-07-11T10:06:51.001000+02:00</time>
      </trkpt>
      <trkpt lat="46.17794" lon="-0.21761">
        <ele>70.5</ele>
        <time>2025-07-11T10:06:52.002000+02:00</time>
      </trkpt>
      <trkpt lat="46.17797" lon="-0.21763">
        <ele>70.7</ele>
        <time>2025-07-11T10:06:54.001000+02:00</time>
      </trkpt>
      <trkpt lat="46.17799" lon="-0.21763">
        <ele>70.9</ele>
        <time>2025-07-11T10:06:55.001000+02:00</time>
      </trkpt>
      <trkpt lat="46.17801" lon="-0.21762">
        <ele>71.1</ele>
        <time>2025-07-11T10:06:56.003000+02:00</time>
      </trkpt>
      <trkpt lat="46.17802" lon="-0.21762">
        <ele>71.3</ele>
        <time>2025-07-11T10:06:57.004000+02:00</time>
      </trkpt>
      <trkpt lat="46.17806" lon="-0.21761">
        <ele>71.7</ele>
        <time>2025-07-11T10:06:59.001000+02:00</time>
      </trkpt>
      <trkpt lat="46.17808" lon="-0.2176">
        <ele>71.9</ele>
        <time>2025-07-11T10:07:00.001000+02:00</time>
      </trkpt>
      <trkpt lat="46.17809" lon="-0.21759">
        <ele>72</ele>
        <time>2025-07-11T10:07:01.001000+02:00</time>
      </trkpt>
      <trkpt lat="46.17809" lon="-0.21757">
        <ele>72.1</ele>
        <time>2025-07-11T10:07:02.001000+02:00</time>
      </trkpt>
      <trkpt lat="46.1781" lon="-0.21755">
        <ele>72.3</ele>
        <time>2025-07-11T10:07:03.002000+02:00</time>
      </trkpt>
      <trkpt lat="46.17811" lon="-0.2175">
        <ele>72.6</ele>
        <time>2025-07-11T10:07:05.002000+02:00</time>
      </trkpt>
      <trkpt lat="46.17813" lon="-0.21744">
        <ele>73</ele>
        <time>2025-07-11T10:07:07.001000+02:00</time>
      </trkpt>
      <trkpt lat="46.17815" lon="-0.21743">
        <ele>73.2</ele>
        <time>2025-07-11T10:07:08.002000+02:00</time>
      </trkpt>
      <trkpt lat="46.17819" lon="-0.21739">
        <ele>73.7</ele>
        <time>2025-07-11T10:07:10.001000+02:00</time>
      </trkpt>
      <trkpt lat="46.17821" lon="-0.21738">
        <ele>73.8</ele>
        <time>2025-07-11T10:07:11.004000+02:00</time>
      </trkpt>
      <trkpt lat="46.17824" lon="-0.21734">
        <ele>74.2</ele>
        <time>2025-07-11T10:07:13.003000+02:00</time>
      </trkpt>
      <trkpt lat="46.17827" lon="-0.21732">
        <ele>74.4</ele>
        <time>2025-07-11T10:07:15.002000+02:00</time>
      </trkpt>
      <trkpt lat="46.17828" lon="-0.2173">
        <ele>74.6</ele>
        <time>2025-07-11T10:07:16.002000+02:00</time>
      </trkpt>
      <trkpt lat="46.17831" lon="-0.21728">
        <ele>74.8</ele>
        <time>2025-07-11T10:07:18.002000+02:00</time>
      </trkpt>
      <trkpt lat="46.17835" lon="-0.21726">
        <ele>75.1</ele>
        <time>2025-07-11T10:07:20+02:00</time>
      </trkpt>
      <trkpt lat="46.17837" lon="-0.21724">
        <ele>75.2</ele>
        <time>2025-07-11T10:07:21.002000+02:00</time>
      </trkpt>
      <trkpt lat="46.17841" lon="-0.21721">
        <ele>75.6</ele>
        <time>2025-07-11T10:07:23.002000+02:00</time>
      </trkpt>
      <trkpt lat="46.17844" lon="-0.21719">
        <ele>75.9</ele>
        <time>2025-07-11T10:07:25+02:00</time>
      </trkpt>
      <trkpt lat="46.17846" lon="-0.21717">
        <ele>76</ele>
        <time>2025-07-11T10:07:26.001000+02:00</time>
      </trkpt>
      <trkpt lat="46.17849" lon="-0.21715">
        <ele>76.2</ele>
        <time>2025-07-11T10:07:28.001000+02:00</time>
      </trkpt>
      <trkpt lat="46.17851" lon="-0.21714">
        <ele>76.4</ele>
        <time>2025-07-11T10:07:29.001000+02:00</time>
      </trkpt>
      <trkpt lat="46.17853" lon="-0.21713">
        <ele>76.5</ele>
        <time>2025-07-11T10:07:30.002000+02:00</time>
      </trkpt>
      <trkpt lat="46.17855" lon="-0.21712">
        <ele>76.6</ele>
        <time>2025-07-11T10:07:31.002000+02:00</time>
      </trkpt>
      <trkpt lat="46.17859" lon="-0.21711">
        <ele>76.9</ele>
        <time>2025-07-11T10:07:33.002000+02:00</time>
      </trkpt>
      <trkpt lat="46.17863" lon="-0.21708">
        <ele>77.1</ele>
        <time>2025-07-11T10:07:35.001000+02:00</time>
      </trkpt>
      <trkpt lat="46.17865" lon="-0.21707">
        <ele>77.2</ele>
        <time>2025-07-11T10:07:36.001000+02:00</time>
      </trkpt>
      <trkpt lat="46.17867" lon="-0.21706">
        <ele>77.3</ele>
        <time>2025-07-11T10:07:37.001000+02:00</time>
      </trkpt>
      <trkpt lat="46.17869" lon="-0.21705">
        <ele>77.4</ele>
        <time>2025-07-11T10:07:38.002000+02:00</time>
      </trkpt>
      <trkpt lat="46.17873" lon="-0.21704">
        <ele>77.7</ele>
        <time>2025-07-11T10:07:40.001000+02:00</time>
      </trkpt>
      <trkpt lat="46.17875" lon="-0.21704">
        <ele>77.8</ele>
        <time>2025-07-11T10:07:41.001000+02:00</time>
      </trkpt>
      <trkpt lat="46.17877" lon="-0.21703">
        <ele>78</ele>
        <time>2025-07-11T10:07:42.002000+02:00</time>
      </trkpt>
      <trkpt lat="46.17879" lon="-0.21701">
        <ele>78.2</ele>
        <time>2025-07-11T10:07:43.002000+02:00</time>
      </trkpt>
      <trkpt lat="46.17881" lon="-0.217">
        <ele>78.3</ele>
        <time>2025-07-11T10:07:44.002000+02:00</time>
      </trkpt>
      <trkpt lat="46.17882" lon="-0.21698">
        <ele>78.4</ele>
        <time>2025-07-11T10:07:45.002000+02:00</time>
      </trkpt>
      <trkpt lat="46.17886" lon="-0.21696">
        <ele>78.8</ele>
        <time>2025-07-11T10:07:47.001000+02:00</time>
      </trkpt>
      <trkpt lat="46.17891" lon="-0.21694">
        <ele>79.1</ele>
        <time>2025-07-11T10:07:49.001000+02:00</time>
      </trkpt>
      <trkpt lat="46.17894" lon="-0.21693">
        <ele>79.2</ele>
        <time>2025-07-11T10:07:50.001000+02:00</time>
      </trkpt>
      <trkpt lat="46.17897" lon="-0.21692">
        <ele>79.3</ele>
        <time>2025-07-11T10:07:51.002000+02:00</time>
      </trkpt>
      <trkpt lat="46.17901" lon="-0.21689">
        <ele>79.4</ele>
        <time>2025-07-11T10:07:53.005000+02:00</time>
      </trkpt>
      <trkpt lat="46.17905" lon="-0.21686">
        <ele>79.6</ele>
        <time>2025-07-11T10:07:55.002000+02:00</time>
      </trkpt>
      <trkpt lat="46.17909" lon="-0.21683">
        <ele>79.7</ele>
        <time>2025-07-11T10:07:57.003000+02:00</time>
      </trkpt>
      <trkpt lat="46.17911" lon="-0.21682">
        <ele>79.8</ele>
        <time>2025-07-11T10:07:58.003000+02:00</time>
      </trkpt>
      <trkpt lat="46.17914" lon="-0.21681">
        <ele>79.9</ele>
        <time>2025-07-11T10:07:59.003000+02:00</time>
      </trkpt>
      <trkpt lat="46.17916" lon="-0.2168">
        <ele>80</ele>
        <time>2025-07-11T10:08:00.003000+02:00</time>
      </trkpt>
      <trkpt lat="46.17921" lon="-0.21677">
        <ele>80.1</ele>
        <time>2025-07-11T10:08:02.003000+02:00</time>
      </trkpt>
      <trkpt lat="46.17926" lon="-0.21674">
        <ele>80.2</ele>
        <time>2025-07-11T10:08:04+02:00</time>
      </trkpt>
      <trkpt lat="46.17928" lon="-0.21673">
        <ele>80.3</ele>
        <time>2025-07-11T10:08:05.001000+02:00</time>
      </trkpt>
      <trkpt lat="46.1793" lon="-0.21672">
        <ele>80.4</ele>
        <time>2025-07-11T10:08:06.002000+02:00</time>
      </trkpt>
      <trkpt lat="46.17933" lon="-0.21671">
        <ele>80.5</ele>
        <time>2025-07-11T10:08:07.002000+02:00</time>
      </trkpt>
      <trkpt lat="46.17937" lon="-0.21668">
        <ele>80.7</ele>
        <time>2025-07-11T10:08:09.001000+02:00</time>
      </trkpt>
      <trkpt lat="46.17939" lon="-0.21666">
        <ele>80.8</ele>
        <time>2025-07-11T10:08:10.005000+02:00</time>
      </trkpt>
      <trkpt lat="46.17944" lon="-0.21664">
        <ele>81</ele>
        <time>2025-07-11T10:08:12.002000+02:00</time>
      </trkpt>
      <trkpt lat="46.17947" lon="-0.21663">
        <ele>81</ele>
        <time>2025-07-11T10:08:13.002000+02:00</time>
      </trkpt>
      <trkpt lat="46.17952" lon="-0.2166">
        <ele>81.1</ele>
        <time>2025-07-11T10:08:15.002000+02:00</time>
      </trkpt>
      <trkpt lat="46.17957" lon="-0.21658">
        <ele>81.1</ele>
        <time>2025-07-11T10:08:17.004000+02:00</time>
      </trkpt>
      <trkpt lat="46.17962" lon="-0.21657">
        <ele>81.2</ele>
        <time>2025-07-11T10:08:19.001000+02:00</time>
      </trkpt>
      <trkpt lat="46.17964" lon="-0.21655">
        <ele>81.3</ele>
        <time>2025-07-11T10:08:20.002000+02:00</time>
      </trkpt>
      <trkpt lat="46.17966" lon="-0.21654">
        <ele>81.4</ele>
        <time>2025-07-11T10:08:21.002000+02:00</time>
      </trkpt>
      <trkpt lat="46.17971" lon="-0.21652">
        <ele>81.5</ele>
        <time>2025-07-11T10:08:23.002000+02:00</time>
      </trkpt>
      <trkpt lat="46.17975" lon="-0.2165">
        <ele>81.6</ele>
        <time>2025-07-11T10:08:25+02:00</time>
      </trkpt>
      <trkpt lat="46.17978" lon="-0.21649">
        <ele>81.6</ele>
        <time>2025-07-11T10:08:26.001000+02:00</time>
      </trkpt>
      <trkpt lat="46.17981" lon="-0.21649">
        <ele>81.7</ele>
        <time>2025-07-11T10:08:27.004000+02:00</time>
      </trkpt>
      <trkpt lat="46.17986" lon="-0.21646">
        <ele>81.7</ele>
        <time>2025-07-11T10:08:29.001000+02:00</time>
      </trkpt>
      <trkpt lat="46.17989" lon="-0.21645">
        <ele>81.8</ele>
        <time>2025-07-11T10:08:30.002000+02:00</time>
      </trkpt>
      <trkpt lat="46.17991" lon="-0.21644">
        <ele>81.8</ele>
        <time>2025-07-11T10:08:31.002000+02:00</time>
      </trkpt>
      <trkpt lat="46.17993" lon="-0.21642">
        <ele>81.9</ele>
        <time>2025-07-11T10:08:32.002000+02:00</time>
      </trkpt>
      <trkpt lat="46.17996" lon="-0.21641">
        <ele>81.9</ele>
        <time>2025-07-11T10:08:33.003000+02:00</time>
      </trkpt>
      <trkpt lat="46.18001" lon="-0.21638">
        <ele>82</ele>
        <time>2025-07-11T10:08:35.002000+02:00</time>
      </trkpt>
      <trkpt lat="46.18004" lon="-0.21637">
        <ele>82</ele>
        <time>2025-07-11T10:08:36.002000+02:00</time>
      </trkpt>
      <trkpt lat="46.18007" lon="-0.21636">
        <ele>82</ele>
        <time>2025-07-11T10:08:37.002000+02:00</time>
      </trkpt>
      <trkpt lat="46.18012" lon="-0.21633">
        <ele>82.1</ele>
        <time>2025-07-11T10:08:39.002000+02:00</time>
      </trkpt>
      <trkpt lat="46.18016" lon="-0.2163">
        <ele>82.2</ele>
        <time>2025-07-11T10:08:41.003000+02:00</time>
      </trkpt>
      <trkpt lat="46.18019" lon="-0.21629">
        <ele>82.3</ele>
        <time>2025-07-11T10:08:42.004000+02:00</time>
      </trkpt>
      <trkpt lat="46.18026" lon="-0.21625">
        <ele>82.5</ele>
        <time>2025-07-11T10:08:44.001000+02:00</time>
      </trkpt>
      <trkpt lat="46.18029" lon="-0.21624">
        <ele>82.5</ele>
        <time>2025-07-11T10:08:45.001000+02:00</time>
      </trkpt>
      <trkpt lat="46.18032" lon="-0.21622">
        <ele>82.6</ele>
        <time>2025-07-11T10:08:46.001000+02:00</time>
      </trkpt>
      <trkpt lat="46.18035" lon="-0.21621">
        <ele>82.7</ele>
        <time>2025-07-11T10:08:47.001000+02:00</time>
      </trkpt>
      <trkpt lat="46.18038" lon="-0.21619">
        <ele>82.7</ele>
        <time>2025-07-11T10:08:48.002000+02:00</time>
      </trkpt>
      <trkpt lat="46.18043" lon="-0.21617">
        <ele>82.8</ele>
        <time>2025-07-11T10:08:50+02:00</time>
      </trkpt>
      <trkpt lat="46.18046" lon="-0.21616">
        <ele>82.8</ele>
        <time>2025-07-11T10:08:51+02:00</time>
      </trkpt>
      <trkpt lat="46.18049" lon="-0.21615">
        <ele>82.9</ele>
        <time>2025-07-11T10:08:52+02:00</time>
      </trkpt>
      <trkpt lat="46.18051" lon="-0.21614">
        <ele>82.9</ele>
        <time>2025-07-11T10:08:53+02:00</time>
      </trkpt>
      <trkpt lat="46.18054" lon="-0.21612">
        <ele>83</ele>
        <time>2025-07-11T10:08:54.001000+02:00</time>
      </trkpt>
      <trkpt lat="46.18058" lon="-0.21611">
        <ele>83.1</ele>
        <time>2025-07-11T10:08:55.001000+02:00</time>
      </trkpt>
      <trkpt lat="46.18061" lon="-0.21611">
        <ele>83.2</ele>
        <time>2025-07-11T10:08:56.002000+02:00</time>
      </trkpt>
      <trkpt lat="46.18064" lon="-0.2161">
        <ele>83.3</ele>
        <time>2025-07-11T10:08:57.003000+02:00</time>
      </trkpt>
      <trkpt lat="46.18067" lon="-0.21608">
        <ele>83.4</ele>
        <time>2025-07-11T10:08:58.003000+02:00</time>
      </trkpt>
      <trkpt lat="46.18073" lon="-0.21605">
        <ele>83.6</ele>
        <time>2025-07-11T10:09:00.002000+02:00</time>
      </trkpt>
      <trkpt lat="46.18078" lon="-0.21602">
        <ele>83.8</ele>
        <time>2025-07-11T10:09:02.002000+02:00</time>
      </trkpt>
      <trkpt lat="46.18081" lon="-0.216">
        <ele>83.9</ele>
        <time>2025-07-11T10:09:03.003000+02:00</time>
      </trkpt>
      <trkpt lat="46.18086" lon="-0.21596">
        <ele>84.1</ele>
        <time>2025-07-11T10:09:05.004000+02:00</time>
      </trkpt>
      <trkpt lat="46.18092" lon="-0.21593">
        <ele>84.2</ele>
        <time>2025-07-11T10:09:07.002000+02:00</time>
      </trkpt>
      <trkpt lat="46.18095" lon="-0.21592">
        <ele>84.3</ele>
        <time>2025-07-11T10:09:08.002000+02:00</time>
      </trkpt>
      <trkpt lat="46.18101" lon="-0.21589">
        <ele>84.5</ele>
        <time>2025-07-11T10:09:10.001000+02:00</time>
      </trkpt>
      <trkpt lat="46.18104" lon="-0.21588">
        <ele>84.6</ele>
        <time>2025-07-11T10:09:11.001000+02:00</time>
      </trkpt>
      <trkpt lat="46.18107" lon="-0.21586">
        <ele>84.8</ele>
        <time>2025-07-11T10:09:12.003000+02:00</time>
      </trkpt>
      <trkpt lat="46.18113" lon="-0.21583">
        <ele>85</ele>
        <time>2025-07-11T10:09:14.002000+02:00</time>
      </trkpt>
      <trkpt lat="46.18116" lon="-0.21582">
        <ele>85</ele>
        <time>2025-07-11T10:09:15.004000+02:00</time>
      </trkpt>
      <trkpt lat="46.18121" lon="-0.21579">
        <ele>85</ele>
        <time>2025-07-11T10:09:17.001000+02:00</time>
      </trkpt>
      <trkpt lat="46.18128" lon="-0.21576">
        <ele>85</ele>
        <time>2025-07-11T10:09:19.002000+02:00</time>
      </trkpt>
      <trkpt lat="46.18131" lon="-0.21575">
        <ele>85</ele>
        <time>2025-07-11T10:09:20.003000+02:00</time>
      </trkpt>
      <trkpt lat="46.18138" lon="-0.21573">
        <ele>85</ele>
        <time>2025-07-11T10:09:22.001000+02:00</time>
      </trkpt>
      <trkpt lat="46.18141" lon="-0.21571">
        <ele>85</ele>
        <time>2025-07-11T10:09:23.001000+02:00</time>
      </trkpt>
      <trkpt lat="46.18144" lon="-0.2157">
        <ele>85.1</ele>
        <time>2025-07-11T10:09:24.001000+02:00</time>
      </trkpt>
      <trkpt lat="46.18147" lon="-0.21569">
        <ele>85.1</ele>
        <time>2025-07-11T10:09:25.002000+02:00</time>
      </trkpt>
      <trkpt lat="46.18153" lon="-0.21566">
        <ele>85.3</ele>
        <time>2025-07-11T10:09:27.001000+02:00</time>
      </trkpt>
      <trkpt lat="46.18156" lon="-0.21565">
        <ele>85.4</ele>
        <time>2025-07-11T10:09:28.001000+02:00</time>
      </trkpt>
      <trkpt lat="46.1816" lon="-0.21564">
        <ele>85.5</ele>
        <time>2025-07-11T10:09:29.001000+02:00</time>
      </trkpt>
      <trkpt lat="46.18163" lon="-0.21563">
        <ele>85.6</ele>
        <time>2025-07-11T10:09:30.002000+02:00</time>
      </trkpt>
      <trkpt lat="46.18169" lon="-0.2156">
        <ele>85.9</ele>
        <time>2025-07-11T10:09:32.001000+02:00</time>
      </trkpt>
      <trkpt lat="46.18171" lon="-0.21558">
        <ele>85.9</ele>
        <time>2025-07-11T10:09:33.001000+02:00</time>
      </trkpt>
      <trkpt lat="46.18174" lon="-0.21557">
        <ele>86</ele>
        <time>2025-07-11T10:09:34.002000+02:00</time>
      </trkpt>
      <trkpt lat="46.1818" lon="-0.21555">
        <ele>86</ele>
        <time>2025-07-11T10:09:36.001000+02:00</time>
      </trkpt>
      <trkpt lat="46.18186" lon="-0.21552">
        <ele>86</ele>
        <time>2025-07-11T10:09:38.001000+02:00</time>
      </trkpt>
      <trkpt lat="46.18189" lon="-0.2155">
        <ele>86</ele>
        <time>2025-07-11T10:09:39.002000+02:00</time>
      </trkpt>
      <trkpt lat="46.18195" lon="-0.21547">
        <ele>86</ele>
        <time>2025-07-11T10:09:41+02:00</time>
      </trkpt>
      <trkpt lat="46.18198" lon="-0.21545">
        <ele>86.1</ele>
        <time>2025-07-11T10:09:42.003000+02:00</time>
      </trkpt>
      <trkpt lat="46.18204" lon="-0.21542">
        <ele>86.3</ele>
        <time>2025-07-11T10:09:44.001000+02:00</time>
      </trkpt>
      <trkpt lat="46.18209" lon="-0.21539">
        <ele>86.5</ele>
        <time>2025-07-11T10:09:46.001000+02:00</time>
      </trkpt>
      <trkpt lat="46.18212" lon="-0.21537">
        <ele>86.6</ele>
        <time>2025-07-11T10:09:47.001000+02:00</time>
      </trkpt>
      <trkpt lat="46.18215" lon="-0.21536">
        <ele>86.7</ele>
        <time>2025-07-11T10:09:48.001000+02:00</time>
      </trkpt>
      <trkpt lat="46.18217" lon="-0.21534">
        <ele>86.8</ele>
        <time>2025-07-11T10:09:49.002000+02:00</time>
      </trkpt>
      <trkpt lat="46.1822" lon="-0.21532">
        <ele>86.9</ele>
        <time>2025-07-11T10:09:50.002000+02:00</time>
      </trkpt>
      <trkpt lat="46.18223" lon="-0.21531">
        <ele>87</ele>
        <time>2025-07-11T10:09:51.004000+02:00</time>
      </trkpt>
      <trkpt lat="46.18228" lon="-0.21528">
        <ele>87.2</ele>
        <time>2025-07-11T10:09:53.001000+02:00</time>
      </trkpt>
      <trkpt lat="46.18231" lon="-0.21525">
        <ele>87.3</ele>
        <time>2025-07-11T10:09:54.002000+02:00</time>
      </trkpt>
      <trkpt lat="46.18236" lon="-0.21522">
        <ele>87.4</ele>
        <time>2025-07-11T10:09:56.001000+02:00</time>
      </trkpt>
      <trkpt lat="46.18239" lon="-0.21521">
        <ele>87.5</ele>
        <time>2025-07-11T10:09:57.001000+02:00</time>
      </trkpt>
      <trkpt lat="46.18242" lon="-0.2152">
        <ele>87.5</ele>
        <time>2025-07-11T10:09:58.001000+02:00</time>
      </trkpt>
      <trkpt lat="46.18245" lon="-0.21518">
        <ele>87.5</ele>
        <time>2025-07-11T10:09:59.001000+02:00</time>
      </trkpt>
      <trkpt lat="46.18247" lon="-0.21517">
        <ele>87.5</ele>
        <time>2025-07-11T10:10:00.001000+02:00</time>
      </trkpt>
      <trkpt lat="46.1825" lon="-0.21515">
        <ele>87.5</ele>
        <time>2025-07-11T10:10:01.004000+02:00</time>
      </trkpt>
      <trkpt lat="46.18256" lon="-0.21511">
        <ele>87.5</ele>
        <time>2025-07-11T10:10:03.002000+02:00</time>
      </trkpt>
      <trkpt lat="46.18262" lon="-0.21508">
        <ele>87.6</ele>
        <time>2025-07-11T10:10:05.002000+02:00</time>
      </trkpt>
      <trkpt lat="46.18268" lon="-0.21505">
        <ele>87.7</ele>
        <time>2025-07-11T10:10:07.001000+02:00</time>
      </trkpt>
      <trkpt lat="46.18271" lon="-0.21503">
        <ele>87.8</ele>
        <time>2025-07-11T10:10:08.002000+02:00</time>
      </trkpt>
      <trkpt lat="46.18274" lon="-0.21501">
        <ele>87.9</ele>
        <time>2025-07-11T10:10:09.003000+02:00</time>
      </trkpt>
      <trkpt lat="46.18279" lon="-0.21498">
        <ele>88</ele>
        <time>2025-07-11T10:10:11.001000+02:00</time>
      </trkpt>
      <trkpt lat="46.18282" lon="-0.21496">
        <ele>88.1</ele>
        <time>2025-07-11T10:10:12.001000+02:00</time>
      </trkpt>
      <trkpt lat="46.18284" lon="-0.21495">
        <ele>88.2</ele>
        <time>2025-07-11T10:10:13.003000+02:00</time>
      </trkpt>
      <trkpt lat="46.1829" lon="-0.21492">
        <ele>88.3</ele>
        <time>2025-07-11T10:10:15.003000+02:00</time>
      </trkpt>
      <trkpt lat="46.18296" lon="-0.21488">
        <ele>88.4</ele>
        <time>2025-07-11T10:10:17+02:00</time>
      </trkpt>
      <trkpt lat="46.18299" lon="-0.21486">
        <ele>88.4</ele>
        <time>2025-07-11T10:10:18.001000+02:00</time>
      </trkpt>
      <trkpt lat="46.18305" lon="-0.21483">
        <ele>88.4</ele>
        <time>2025-07-11T10:10:20.001000+02:00</time>
      </trkpt>
      <trkpt lat="46.18308" lon="-0.21481">
        <ele>88.4</ele>
        <time>2025-07-11T10:10:21.002000+02:00</time>
      </trkpt>
      <trkpt lat="46.18314" lon="-0.21477">
        <ele>88.4</ele>
        <time>2025-07-11T10:10:23.001000+02:00</time>
      </trkpt>
      <trkpt lat="46.18321" lon="-0.21474">
        <ele>88.6</ele>
        <time>2025-07-11T10:10:25.001000+02:00</time>
      </trkpt>
      <trkpt lat="46.18324" lon="-0.21473">
        <ele>88.7</ele>
        <time>2025-07-11T10:10:26.001000+02:00</time>
      </trkpt>
      <trkpt lat="46.18327" lon="-0.21471">
        <ele>88.7</ele>
        <time>2025-07-11T10:10:27.002000+02:00</time>
      </trkpt>
      <trkpt lat="46.18331" lon="-0.21469">
        <ele>88.8</ele>
        <time>2025-07-11T10:10:28.004000+02:00</time>
      </trkpt>
      <trkpt lat="46.18338" lon="-0.21467">
        <ele>89</ele>
        <time>2025-07-11T10:10:30.003000+02:00</time>
      </trkpt>
      <trkpt lat="46.18341" lon="-0.21465">
        <ele>89</ele>
        <time>2025-07-11T10:10:31.003000+02:00</time>
      </trkpt>
      <trkpt lat="46.18348" lon="-0.21462">
        <ele>89.2</ele>
        <time>2025-07-11T10:10:33.002000+02:00</time>
      </trkpt>
      <trkpt lat="46.18352" lon="-0.2146">
        <ele>89.2</ele>
        <time>2025-07-11T10:10:34.002000+02:00</time>
      </trkpt>
      <trkpt lat="46.18355" lon="-0.21459">
        <ele>89.3</ele>
        <time>2025-07-11T10:10:35.002000+02:00</time>
      </trkpt>
      <trkpt lat="46.18358" lon="-0.21458">
        <ele>89.4</ele>
        <time>2025-07-11T10:10:36.002000+02:00</time>
      </trkpt>
      <trkpt lat="46.18362" lon="-0.21456">
        <ele>89.4</ele>
        <time>2025-07-11T10:10:37.002000+02:00</time>
      </trkpt>
      <trkpt lat="46.18364" lon="-0.21455">
        <ele>89.4</ele>
        <time>2025-07-11T10:10:38.002000+02:00</time>
      </trkpt>
      <trkpt lat="46.18368" lon="-0.21453">
        <ele>89.5</ele>
        <time>2025-07-11T10:10:39.003000+02:00</time>
      </trkpt>
      <trkpt lat="46.18373" lon="-0.21451">
        <ele>89.6</ele>
        <time>2025-07-11T10:10:41.003000+02:00</time>
      </trkpt>
      <trkpt lat="46.18379" lon="-0.21448">
        <ele>89.7</ele>
        <time>2025-07-11T10:10:43+02:00</time>
      </trkpt>
      <trkpt lat="46.18382" lon="-0.21446">
        <ele>89.8</ele>
        <time>2025-07-11T10:10:44.002000+02:00</time>
      </trkpt>
      <trkpt lat="46.18385" lon="-0.21445">
        <ele>89.9</ele>
        <time>2025-07-11T10:10:45.003000+02:00</time>
      </trkpt>
      <trkpt lat="46.18391" lon="-0.21441">
        <ele>90.1</ele>
        <time>2025-07-11T10:10:47.001000+02:00</time>
      </trkpt>
      <trkpt lat="46.18394" lon="-0.21439">
        <ele>90.2</ele>
        <time>2025-07-11T10:10:48.002000+02:00</time>
      </trkpt>
      <trkpt lat="46.18397" lon="-0.21438">
        <ele>90.2</ele>
        <time>2025-07-11T10:10:49.003000+02:00</time>
      </trkpt>
      <trkpt lat="46.18403" lon="-0.21434">
        <ele>90.3</ele>
        <time>2025-07-11T10:10:51.001000+02:00</time>
      </trkpt>
      <trkpt lat="46.18406" lon="-0.21432">
        <ele>90.4</ele>
        <time>2025-07-11T10:10:52.004000+02:00</time>
      </trkpt>
      <trkpt lat="46.18412" lon="-0.2143">
        <ele>90.4</ele>
        <time>2025-07-11T10:10:54.002000+02:00</time>
      </trkpt>
      <trkpt lat="46.18415" lon="-0.21428">
        <ele>90.4</ele>
        <time>2025-07-11T10:10:55.002000+02:00</time>
      </trkpt>
      <trkpt lat="46.18418" lon="-0.21427">
        <ele>90.4</ele>
        <time>2025-07-11T10:10:56.002000+02:00</time>
      </trkpt>
      <trkpt lat="46.1842" lon="-0.21424">
        <ele>90.4</ele>
        <time>2025-07-11T10:10:57.003000+02:00</time>
      </trkpt>
      <trkpt lat="46.18422" lon="-0.21421">
        <ele>90.3</ele>
        <time>2025-07-11T10:10:58.003000+02:00</time>
      </trkpt>
      <trkpt lat="46.18427" lon="-0.21415">
        <ele>90.4</ele>
        <time>2025-07-11T10:11:00.003000+02:00</time>
      </trkpt>
      <trkpt lat="46.18433" lon="-0.21408">
        <ele>90.6</ele>
        <time>2025-07-11T10:11:02.003000+02:00</time>
      </trkpt>
      <trkpt lat="46.18436" lon="-0.21404">
        <ele>90.7</ele>
        <time>2025-07-11T10:11:03.003000+02:00</time>
      </trkpt>
      <trkpt lat="46.18443" lon="-0.214">
        <ele>90.9</ele>
        <time>2025-07-11T10:11:05+02:00</time>
      </trkpt>
      <trkpt lat="46.18447" lon="-0.21397">
        <ele>91</ele>
        <time>2025-07-11T10:11:06.002000+02:00</time>
      </trkpt>
      <trkpt lat="46.1845" lon="-0.21394">
        <ele>91</ele>
        <time>2025-07-11T10:11:07.003000+02:00</time>
      </trkpt>
      <trkpt lat="46.18456" lon="-0.21386">
        <ele>91</ele>
        <time>2025-07-11T10:11:09.003000+02:00</time>
      </trkpt>
      <trkpt lat="46.1846" lon="-0.21378">
        <ele>91</ele>
        <time>2025-07-11T10:11:11.001000+02:00</time>
      </trkpt>
      <trkpt lat="46.18462" lon="-0.21374">
        <ele>91</ele>
        <time>2025-07-11T10:11:12.002000+02:00</time>
      </trkpt>
      <trkpt lat="46.18463" lon="-0.21369">
        <ele>91</ele>
        <time>2025-07-11T10:11:13.002000+02:00</time>
      </trkpt>
      <trkpt lat="46.18465" lon="-0.21365">
        <ele>91</ele>
        <time>2025-07-11T10:11:14.002000+02:00</time>
      </trkpt>
      <trkpt lat="46.18467" lon="-0.21361">
        <ele>91</ele>
        <time>2025-07-11T10:11:15.003000+02:00</time>
      </trkpt>
      <trkpt lat="46.18472" lon="-0.21352">
        <ele>91</ele>
        <time>2025-07-11T10:11:17+02:00</time>
      </trkpt>
      <trkpt lat="46.18475" lon="-0.21349">
        <ele>91.1</ele>
        <time>2025-07-11T10:11:18.002000+02:00</time>
      </trkpt>
      <trkpt lat="46.18477" lon="-0.21344">
        <ele>91.2</ele>
        <time>2025-07-11T10:11:19.003000+02:00</time>
      </trkpt>
      <trkpt lat="46.18482" lon="-0.21336">
        <ele>91.3</ele>
        <time>2025-07-11T10:11:21.001000+02:00</time>
      </trkpt>
      <trkpt lat="46.18484" lon="-0.21332">
        <ele>91.4</ele>
        <time>2025-07-11T10:11:22.002000+02:00</time>
      </trkpt>
      <trkpt lat="46.18487" lon="-0.21328">
        <ele>91.5</ele>
        <time>2025-07-11T10:11:23.008000+02:00</time>
      </trkpt>
      <trkpt lat="46.18493" lon="-0.2132">
        <ele>91.7</ele>
        <time>2025-07-11T10:11:25.003000+02:00</time>
      </trkpt>
      <trkpt lat="46.18499" lon="-0.21312">
        <ele>91.9</ele>
        <time>2025-07-11T10:11:27.003000+02:00</time>
      </trkpt>
      <trkpt lat="46.18504" lon="-0.21304">
        <ele>91.9</ele>
        <time>2025-07-11T10:11:29.001000+02:00</time>
      </trkpt>
      <trkpt lat="46.18507" lon="-0.213">
        <ele>91.8</ele>
        <time>2025-07-11T10:11:30.002000+02:00</time>
      </trkpt>
      <trkpt lat="46.18512" lon="-0.21291">
        <ele>91.7</ele>
        <time>2025-07-11T10:11:32.002000+02:00</time>
      </trkpt>
      <trkpt lat="46.18514" lon="-0.21287">
        <ele>91.7</ele>
        <time>2025-07-11T10:11:33.002000+02:00</time>
      </trkpt>
      <trkpt lat="46.18519" lon="-0.21279">
        <ele>91.7</ele>
        <time>2025-07-11T10:11:35.001000+02:00</time>
      </trkpt>
      <trkpt lat="46.18521" lon="-0.21275">
        <ele>91.8</ele>
        <time>2025-07-11T10:11:36.001000+02:00</time>
      </trkpt>
      <trkpt lat="46.18526" lon="-0.21267">
        <ele>91.9</ele>
        <time>2025-07-11T10:11:38.002000+02:00</time>
      </trkpt>
      <trkpt lat="46.18528" lon="-0.21263">
        <ele>92</ele>
        <time>2025-07-11T10:11:39.002000+02:00</time>
      </trkpt>
      <trkpt lat="46.18534" lon="-0.21255">
        <ele>92.2</ele>
        <time>2025-07-11T10:11:40.999000+02:00</time>
      </trkpt>
      <trkpt lat="46.18537" lon="-0.21251">
        <ele>92.3</ele>
        <time>2025-07-11T10:11:42.001000+02:00</time>
      </trkpt>
      <trkpt lat="46.1854" lon="-0.21247">
        <ele>92.3</ele>
        <time>2025-07-11T10:11:43.003000+02:00</time>
      </trkpt>
      <trkpt lat="46.18545" lon="-0.21239">
        <ele>92.2</ele>
        <time>2025-07-11T10:11:45.002000+02:00</time>
      </trkpt>
      <trkpt lat="46.1855" lon="-0.21231">
        <ele>92.1</ele>
        <time>2025-07-11T10:11:47+02:00</time>
      </trkpt>
      <trkpt lat="46.18552" lon="-0.21226">
        <ele>92</ele>
        <time>2025-07-11T10:11:48.001000+02:00</time>
      </trkpt>
      <trkpt lat="46.18555" lon="-0.21222">
        <ele>92</ele>
        <time>2025-07-11T10:11:49.004000+02:00</time>
      </trkpt>
      <trkpt lat="46.18557" lon="-0.21218">
        <ele>92.1</ele>
        <time>2025-07-11T10:11:50.004000+02:00</time>
      </trkpt>
      <trkpt lat="46.18563" lon="-0.21209">
        <ele>92.3</ele>
        <time>2025-07-11T10:11:52.001000+02:00</time>
      </trkpt>
      <trkpt lat="46.18566" lon="-0.21205">
        <ele>92.4</ele>
        <time>2025-07-11T10:11:53.001000+02:00</time>
      </trkpt>
      <trkpt lat="46.18568" lon="-0.21201">
        <ele>92.5</ele>
        <time>2025-07-11T10:11:54.001000+02:00</time>
      </trkpt>
      <trkpt lat="46.18571" lon="-0.21196">
        <ele>92.5</ele>
        <time>2025-07-11T10:11:55.002000+02:00</time>
      </trkpt>
      <trkpt lat="46.18574" lon="-0.21192">
        <ele>92.6</ele>
        <time>2025-07-11T10:11:56.002000+02:00</time>
      </trkpt>
      <trkpt lat="46.18576" lon="-0.21188">
        <ele>92.5</ele>
        <time>2025-07-11T10:11:57.004000+02:00</time>
      </trkpt>
      <trkpt lat="46.18581" lon="-0.21179">
        <ele>92.4</ele>
        <time>2025-07-11T10:11:59.003000+02:00</time>
      </trkpt>
      <trkpt lat="46.18583" lon="-0.21175">
        <ele>92.3</ele>
        <time>2025-07-11T10:12:00.004000+02:00</time>
      </trkpt>
      <trkpt lat="46.18588" lon="-0.21167">
        <ele>92.2</ele>
        <time>2025-07-11T10:12:02.005000+02:00</time>
      </trkpt>
      <trkpt lat="46.18593" lon="-0.21158">
        <ele>92.3</ele>
        <time>2025-07-11T10:12:04.002000+02:00</time>
      </trkpt>
      <trkpt lat="46.18596" lon="-0.21154">
        <ele>92.4</ele>
        <time>2025-07-11T10:12:05.002000+02:00</time>
      </trkpt>
      <trkpt lat="46.186" lon="-0.21146">
        <ele>92.6</ele>
        <time>2025-07-11T10:12:07.001000+02:00</time>
      </trkpt>
      <trkpt lat="46.18605" lon="-0.21139">
        <ele>92.8</ele>
        <time>2025-07-11T10:12:09.001000+02:00</time>
      </trkpt>
      <trkpt lat="46.18607" lon="-0.21135">
        <ele>92.7</ele>
        <time>2025-07-11T10:12:10.001000+02:00</time>
      </trkpt>
      <trkpt lat="46.1861" lon="-0.21131">
        <ele>92.6</ele>
        <time>2025-07-11T10:12:11.004000+02:00</time>
      </trkpt>
      <trkpt lat="46.18614" lon="-0.21123">
        <ele>92.6</ele>
        <time>2025-07-11T10:12:13.002000+02:00</time>
      </trkpt>
      <trkpt lat="46.18617" lon="-0.2112">
        <ele>92.6</ele>
        <time>2025-07-11T10:12:14.002000+02:00</time>
      </trkpt>
      <trkpt lat="46.18619" lon="-0.21116">
        <ele>92.7</ele>
        <time>2025-07-11T10:12:15.002000+02:00</time>
      </trkpt>
      <trkpt lat="46.18623" lon="-0.21108">
        <ele>92.8</ele>
        <time>2025-07-11T10:12:17.001000+02:00</time>
      </trkpt>
      <trkpt lat="46.18626" lon="-0.21104">
        <ele>92.9</ele>
        <time>2025-07-11T10:12:18.001000+02:00</time>
      </trkpt>
      <trkpt lat="46.18628" lon="-0.211">
        <ele>93</ele>
        <time>2025-07-11T10:12:19.001000+02:00</time>
      </trkpt>
      <trkpt lat="46.1863" lon="-0.21096">
        <ele>93</ele>
        <time>2025-07-11T10:12:20.003000+02:00</time>
      </trkpt>
      <trkpt lat="46.18632" lon="-0.21092">
        <ele>93</ele>
        <time>2025-07-11T10:12:21.003000+02:00</time>
      </trkpt>
      <trkpt lat="46.18637" lon="-0.21084">
        <ele>93</ele>
        <time>2025-07-11T10:12:23.001000+02:00</time>
      </trkpt>
      <trkpt lat="46.1864" lon="-0.21081">
        <ele>93</ele>
        <time>2025-07-11T10:12:24.002000+02:00</time>
      </trkpt>
      <trkpt lat="46.18644" lon="-0.21073">
        <ele>93.4</ele>
        <time>2025-07-11T10:12:26.002000+02:00</time>
      </trkpt>
      <trkpt lat="46.18647" lon="-0.21069">
        <ele>93.6</ele>
        <time>2025-07-11T10:12:27.003000+02:00</time>
      </trkpt>
      <trkpt lat="46.18652" lon="-0.21063">
        <ele>93.9</ele>
        <time>2025-07-11T10:12:29+02:00</time>
      </trkpt>
      <trkpt lat="46.18654" lon="-0.21059">
        <ele>94.1</ele>
        <time>2025-07-11T10:12:30.003000+02:00</time>
      </trkpt>
      <trkpt lat="46.18658" lon="-0.21053">
        <ele>94.3</ele>
        <time>2025-07-11T10:12:32.002000+02:00</time>
      </trkpt>
      <trkpt lat="46.18661" lon="-0.21049">
        <ele>94.4</ele>
        <time>2025-07-11T10:12:33.003000+02:00</time>
      </trkpt>
      <trkpt lat="46.18665" lon="-0.21043">
        <ele>94.4</ele>
        <time>2025-07-11T10:12:35+02:00</time>
      </trkpt>
      <trkpt lat="46.18667" lon="-0.21039">
        <ele>94.4</ele>
        <time>2025-07-11T10:12:36.001000+02:00</time>
      </trkpt>
      <trkpt lat="46.1867" lon="-0.21036">
        <ele>94.5</ele>
        <time>2025-07-11T10:12:37.001000+02:00</time>
      </trkpt>
      <trkpt lat="46.18672" lon="-0.21033">
        <ele>94.5</ele>
        <time>2025-07-11T10:12:38.002000+02:00</time>
      </trkpt>
      <trkpt lat="46.18677" lon="-0.21027">
        <ele>94.8</ele>
        <time>2025-07-11T10:12:40+02:00</time>
      </trkpt>
      <trkpt lat="46.18679" lon="-0.21023">
        <ele>94.9</ele>
        <time>2025-07-11T10:12:41.001000+02:00</time>
      </trkpt>
      <trkpt lat="46.18682" lon="-0.2102">
        <ele>95.1</ele>
        <time>2025-07-11T10:12:42.001000+02:00</time>
      </trkpt>
      <trkpt lat="46.18684" lon="-0.21016">
        <ele>95.2</ele>
        <time>2025-07-11T10:12:43.001000+02:00</time>
      </trkpt>
      <trkpt lat="46.18688" lon="-0.21009">
        <ele>95.5</ele>
        <time>2025-07-11T10:12:45.002000+02:00</time>
      </trkpt>
      <trkpt lat="46.18693" lon="-0.21002">
        <ele>95.9</ele>
        <time>2025-07-11T10:12:46.999000+02:00</time>
      </trkpt>
      <trkpt lat="46.18696" lon="-0.20999">
        <ele>96</ele>
        <time>2025-07-11T10:12:48.001000+02:00</time>
      </trkpt>
      <trkpt lat="46.18698" lon="-0.20995">
        <ele>96</ele>
        <time>2025-07-11T10:12:49.001000+02:00</time>
      </trkpt>
      <trkpt lat="46.187" lon="-0.20991">
        <ele>96</ele>
        <time>2025-07-11T10:12:50.005000+02:00</time>
      </trkpt>
      <trkpt lat="46.18705" lon="-0.20984">
        <ele>96</ele>
        <time>2025-07-11T10:12:52.004000+02:00</time>
      </trkpt>
      <trkpt lat="46.1871" lon="-0.20977">
        <ele>96.2</ele>
        <time>2025-07-11T10:12:54.002000+02:00</time>
      </trkpt>
      <trkpt lat="46.18715" lon="-0.2097">
        <ele>96.4</ele>
        <time>2025-07-11T10:12:56.001000+02:00</time>
      </trkpt>
      <trkpt lat="46.1872" lon="-0.20963">
        <ele>96.5</ele>
        <time>2025-07-11T10:12:58.001000+02:00</time>
      </trkpt>
      <trkpt lat="46.18724" lon="-0.20957">
        <ele>96.5</ele>
        <time>2025-07-11T10:13:00.001000+02:00</time>
      </trkpt>
      <trkpt lat="46.18726" lon="-0.20953">
        <ele>96.5</ele>
        <time>2025-07-11T10:13:01.001000+02:00</time>
      </trkpt>
      <trkpt lat="46.18729" lon="-0.2095">
        <ele>96.6</ele>
        <time>2025-07-11T10:13:02.004000+02:00</time>
      </trkpt>
      <trkpt lat="46.18734" lon="-0.20944">
        <ele>96.8</ele>
        <time>2025-07-11T10:13:04.002000+02:00</time>
      </trkpt>
      <trkpt lat="46.18736" lon="-0.20941">
        <ele>96.9</ele>
        <time>2025-07-11T10:13:05.003000+02:00</time>
      </trkpt>
      <trkpt lat="46.18741" lon="-0.20934">
        <ele>97.1</ele>
        <time>2025-07-11T10:13:07.002000+02:00</time>
      </trkpt>
      <trkpt lat="46.18746" lon="-0.20928">
        <ele>97.2</ele>
        <time>2025-07-11T10:13:09.002000+02:00</time>
      </trkpt>
      <trkpt lat="46.1875" lon="-0.20921">
        <ele>97.2</ele>
        <time>2025-07-11T10:13:11.001000+02:00</time>
      </trkpt>
      <trkpt lat="46.18752" lon="-0.20918">
        <ele>97.1</ele>
        <time>2025-07-11T10:13:12.001000+02:00</time>
      </trkpt>
      <trkpt lat="46.18755" lon="-0.20915">
        <ele>97.2</ele>
        <time>2025-07-11T10:13:13.001000+02:00</time>
      </trkpt>
      <trkpt lat="46.18757" lon="-0.20912">
        <ele>97.3</ele>
        <time>2025-07-11T10:13:14.001000+02:00</time>
      </trkpt>
      <trkpt lat="46.1876" lon="-0.20908">
        <ele>97.3</ele>
        <time>2025-07-11T10:13:15.002000+02:00</time>
      </trkpt>
      <trkpt lat="46.18764" lon="-0.20902">
        <ele>97.5</ele>
        <time>2025-07-11T10:13:17.001000+02:00</time>
      </trkpt>
      <trkpt lat="46.18767" lon="-0.20899">
        <ele>97.6</ele>
        <time>2025-07-11T10:13:18.002000+02:00</time>
      </trkpt>
      <trkpt lat="46.18772" lon="-0.20893">
        <ele>97.8</ele>
        <time>2025-07-11T10:13:20.001000+02:00</time>
      </trkpt>
      <trkpt lat="46.18775" lon="-0.2089">
        <ele>97.9</ele>
        <time>2025-07-11T10:13:21.002000+02:00</time>
      </trkpt>
      <trkpt lat="46.1878" lon="-0.20883">
        <ele>98.1</ele>
        <time>2025-07-11T10:13:23.004000+02:00</time>
      </trkpt>
      <trkpt lat="46.18782" lon="-0.2088">
        <ele>98.2</ele>
        <time>2025-07-11T10:13:24.004000+02:00</time>
      </trkpt>
      <trkpt lat="46.18785" lon="-0.20876">
        <ele>98.2</ele>
        <time>2025-07-11T10:13:25.004000+02:00</time>
      </trkpt>
      <trkpt lat="46.18789" lon="-0.2087">
        <ele>98.4</ele>
        <time>2025-07-11T10:13:27.004000+02:00</time>
      </trkpt>
      <trkpt lat="46.18794" lon="-0.20863">
        <ele>98.6</ele>
        <time>2025-07-11T10:13:29.002000+02:00</time>
      </trkpt>
      <trkpt lat="46.188" lon="-0.20857">
        <ele>98.8</ele>
        <time>2025-07-11T10:13:31.003000+02:00</time>
      </trkpt>
      <trkpt lat="46.18804" lon="-0.20851">
        <ele>98.9</ele>
        <time>2025-07-11T10:13:33.001000+02:00</time>
      </trkpt>
      <trkpt lat="46.18807" lon="-0.20848">
        <ele>99</ele>
        <time>2025-07-11T10:13:34.001000+02:00</time>
      </trkpt>
      <trkpt lat="46.1881" lon="-0.20845">
        <ele>99.1</ele>
        <time>2025-07-11T10:13:35.003000+02:00</time>
      </trkpt>
      <trkpt lat="46.18812" lon="-0.20842">
        <ele>99.2</ele>
        <time>2025-07-11T10:13:36.003000+02:00</time>
      </trkpt>
      <trkpt lat="46.18816" lon="-0.20835">
        <ele>99.4</ele>
        <time>2025-07-11T10:13:38.002000+02:00</time>
      </trkpt>
      <trkpt lat="46.18819" lon="-0.20831">
        <ele>99.4</ele>
        <time>2025-07-11T10:13:39.003000+02:00</time>
      </trkpt>
      <trkpt lat="46.18822" lon="-0.20828">
        <ele>99.4</ele>
        <time>2025-07-11T10:13:40.003000+02:00</time>
      </trkpt>
      <trkpt lat="46.18826" lon="-0.20825">
        <ele>99.4</ele>
        <time>2025-07-11T10:13:41.004000+02:00</time>
      </trkpt>
      <trkpt lat="46.18833" lon="-0.2082">
        <ele>99.5</ele>
        <time>2025-07-11T10:13:43.001000+02:00</time>
      </trkpt>
      <trkpt lat="46.18836" lon="-0.20817">
        <ele>99.5</ele>
        <time>2025-07-11T10:13:44.001000+02:00</time>
      </trkpt>
      <trkpt lat="46.18839" lon="-0.20815">
        <ele>99.5</ele>
        <time>2025-07-11T10:13:45.002000+02:00</time>
      </trkpt>
      <trkpt lat="46.18842" lon="-0.20813">
        <ele>99.5</ele>
        <time>2025-07-11T10:13:46.004000+02:00</time>
      </trkpt>
      <trkpt lat="46.18848" lon="-0.20808">
        <ele>99.6</ele>
        <time>2025-07-11T10:13:48.001000+02:00</time>
      </trkpt>
      <trkpt lat="46.1885" lon="-0.20805">
        <ele>99.6</ele>
        <time>2025-07-11T10:13:49.001000+02:00</time>
      </trkpt>
      <trkpt lat="46.18854" lon="-0.20804">
        <ele>99.7</ele>
        <time>2025-07-11T10:13:50.001000+02:00</time>
      </trkpt>
      <trkpt lat="46.18879" lon="-0.208">
        <ele>100.6</ele>
        <time>2025-07-11T10:13:52.002000+02:00</time>
      </trkpt>
      <trkpt lat="46.18888" lon="-0.20793">
        <ele>101</ele>
        <time>2025-07-11T10:13:54.002000+02:00</time>
      </trkpt>
      <trkpt lat="46.18889" lon="-0.20789">
        <ele>101</ele>
        <time>2025-07-11T10:13:55.002000+02:00</time>
      </trkpt>
      <trkpt lat="46.18891" lon="-0.2078">
        <ele>101.1</ele>
        <time>2025-07-11T10:13:57.002000+02:00</time>
      </trkpt>
      <trkpt lat="46.18895" lon="-0.20771">
        <ele>101.2</ele>
        <time>2025-07-11T10:13:59.001000+02:00</time>
      </trkpt>
      <trkpt lat="46.18896" lon="-0.20766">
        <ele>101.1</ele>
        <time>2025-07-11T10:14:00.001000+02:00</time>
      </trkpt>
      <trkpt lat="46.18897" lon="-0.20761">
        <ele>101.1</ele>
        <time>2025-07-11T10:14:01.001000+02:00</time>
      </trkpt>
      <trkpt lat="46.18898" lon="-0.20755">
        <ele>101.1</ele>
        <time>2025-07-11T10:14:02.002000+02:00</time>
      </trkpt>
      <trkpt lat="46.189" lon="-0.20744">
        <ele>100.9</ele>
        <time>2025-07-11T10:14:04.001000+02:00</time>
      </trkpt>
      <trkpt lat="46.18902" lon="-0.20739">
        <ele>100.8</ele>
        <time>2025-07-11T10:14:05.001000+02:00</time>
      </trkpt>
      <trkpt lat="46.18903" lon="-0.20734">
        <ele>100.7</ele>
        <time>2025-07-11T10:14:06.003000+02:00</time>
      </trkpt>
      <trkpt lat="46.18906" lon="-0.20723">
        <ele>100.6</ele>
        <time>2025-07-11T10:14:08.002000+02:00</time>
      </trkpt>
      <trkpt lat="46.18905" lon="-0.20717">
        <ele>100.5</ele>
        <time>2025-07-11T10:14:09.002000+02:00</time>
      </trkpt>
      <trkpt lat="46.18906" lon="-0.20707">
        <ele>100.3</ele>
        <time>2025-07-11T10:14:11.001000+02:00</time>
      </trkpt>
      <trkpt lat="46.18907" lon="-0.20701">
        <ele>100.2</ele>
        <time>2025-07-11T10:14:12.001000+02:00</time>
      </trkpt>
      <trkpt lat="46.18909" lon="-0.20696">
        <ele>100</ele>
        <time>2025-07-11T10:14:13.002000+02:00</time>
      </trkpt>
      <trkpt lat="46.1891" lon="-0.20691">
        <ele>100</ele>
        <time>2025-07-11T10:14:14.002000+02:00</time>
      </trkpt>
      <trkpt lat="46.18912" lon="-0.20685">
        <ele>99.9</ele>
        <time>2025-07-11T10:14:15.002000+02:00</time>
      </trkpt>
      <trkpt lat="46.18914" lon="-0.2068">
        <ele>100</ele>
        <time>2025-07-11T10:14:16.002000+02:00</time>
      </trkpt>
      <trkpt lat="46.18918" lon="-0.20669">
        <ele>100</ele>
        <time>2025-07-11T10:14:18.001000+02:00</time>
      </trkpt>
      <trkpt lat="46.1892" lon="-0.20663">
        <ele>99.9</ele>
        <time>2025-07-11T10:14:19.001000+02:00</time>
      </trkpt>
      <trkpt lat="46.18921" lon="-0.20657">
        <ele>99.7</ele>
        <time>2025-07-11T10:14:20.002000+02:00</time>
      </trkpt>
      <trkpt lat="46.18923" lon="-0.20652">
        <ele>99.6</ele>
        <time>2025-07-11T10:14:21.003000+02:00</time>
      </trkpt>
      <trkpt lat="46.18927" lon="-0.20641">
        <ele>99.4</ele>
        <time>2025-07-11T10:14:23.002000+02:00</time>
      </trkpt>
      <trkpt lat="46.1893" lon="-0.20635">
        <ele>99.4</ele>
        <time>2025-07-11T10:14:24.002000+02:00</time>
      </trkpt>
      <trkpt lat="46.18934" lon="-0.20625">
        <ele>99.4</ele>
        <time>2025-07-11T10:14:26.001000+02:00</time>
      </trkpt>
      <trkpt lat="46.18937" lon="-0.20619">
        <ele>99.5</ele>
        <time>2025-07-11T10:14:27.003000+02:00</time>
      </trkpt>
      <trkpt lat="46.18943" lon="-0.20609">
        <ele>99.8</ele>
        <time>2025-07-11T10:14:29.002000+02:00</time>
      </trkpt>
      <trkpt lat="46.18945" lon="-0.20604">
        <ele>99.8</ele>
        <time>2025-07-11T10:14:30.003000+02:00</time>
      </trkpt>
      <trkpt lat="46.18948" lon="-0.206">
        <ele>99.7</ele>
        <time>2025-07-11T10:14:31.003000+02:00</time>
      </trkpt>
      <trkpt lat="46.18951" lon="-0.20595">
        <ele>99.7</ele>
        <time>2025-07-11T10:14:32.003000+02:00</time>
      </trkpt>
      <trkpt lat="46.18957" lon="-0.20586">
        <ele>99.5</ele>
        <time>2025-07-11T10:14:34.002000+02:00</time>
      </trkpt>
      <trkpt lat="46.18959" lon="-0.20581">
        <ele>99.5</ele>
        <time>2025-07-11T10:14:35.002000+02:00</time>
      </trkpt>
      <trkpt lat="46.18962" lon="-0.20577">
        <ele>99.4</ele>
        <time>2025-07-11T10:14:36.003000+02:00</time>
      </trkpt>
      <trkpt lat="46.18967" lon="-0.20569">
        <ele>99.3</ele>
        <time>2025-07-11T10:14:38.002000+02:00</time>
      </trkpt>
      <trkpt lat="46.1897" lon="-0.20565">
        <ele>99.3</ele>
        <time>2025-07-11T10:14:39.002000+02:00</time>
      </trkpt>
      <trkpt lat="46.18973" lon="-0.20562">
        <ele>99.2</ele>
        <time>2025-07-11T10:14:40.002000+02:00</time>
      </trkpt>
      <trkpt lat="46.18975" lon="-0.20558">
        <ele>99.3</ele>
        <time>2025-07-11T10:14:41.004000+02:00</time>
      </trkpt>
      <trkpt lat="46.1898" lon="-0.2055">
        <ele>99.3</ele>
        <time>2025-07-11T10:14:43.003000+02:00</time>
      </trkpt>
      <trkpt lat="46.18986" lon="-0.20542">
        <ele>99.3</ele>
        <time>2025-07-11T10:14:45+02:00</time>
      </trkpt>
      <trkpt lat="46.18988" lon="-0.20538">
        <ele>99.1</ele>
        <time>2025-07-11T10:14:46+02:00</time>
      </trkpt>
      <trkpt lat="46.18992" lon="-0.20533">
        <ele>99</ele>
        <time>2025-07-11T10:14:47+02:00</time>
      </trkpt>
      <trkpt lat="46.18994" lon="-0.20528">
        <ele>98.8</ele>
        <time>2025-07-11T10:14:48+02:00</time>
      </trkpt>
      <trkpt lat="46.18997" lon="-0.20523">
        <ele>98.9</ele>
        <time>2025-07-11T10:14:49.002000+02:00</time>
      </trkpt>
      <trkpt lat="46.19" lon="-0.20518">
        <ele>99</ele>
        <time>2025-07-11T10:14:50.002000+02:00</time>
      </trkpt>
      <trkpt lat="46.19003" lon="-0.20513">
        <ele>99.1</ele>
        <time>2025-07-11T10:14:51.002000+02:00</time>
      </trkpt>
      <trkpt lat="46.19009" lon="-0.20503">
        <ele>99.3</ele>
        <time>2025-07-11T10:14:53.002000+02:00</time>
      </trkpt>
      <trkpt lat="46.19012" lon="-0.20498">
        <ele>99.4</ele>
        <time>2025-07-11T10:14:54.003000+02:00</time>
      </trkpt>
      <trkpt lat="46.19017" lon="-0.20488">
        <ele>99.2</ele>
        <time>2025-07-11T10:14:56.003000+02:00</time>
      </trkpt>
      <trkpt lat="46.1902" lon="-0.20483">
        <ele>99.1</ele>
        <time>2025-07-11T10:14:57.003000+02:00</time>
      </trkpt>
      <trkpt lat="46.19023" lon="-0.20478">
        <ele>99</ele>
        <time>2025-07-11T10:14:58.003000+02:00</time>
      </trkpt>
      <trkpt lat="46.19028" lon="-0.20467">
        <ele>98.8</ele>
        <time>2025-07-11T10:15:00.003000+02:00</time>
      </trkpt>
      <trkpt lat="46.19034" lon="-0.20458">
        <ele>98.7</ele>
        <time>2025-07-11T10:15:02.003000+02:00</time>
      </trkpt>
      <trkpt lat="46.19037" lon="-0.20453">
        <ele>98.6</ele>
        <time>2025-07-11T10:15:03.004000+02:00</time>
      </trkpt>
      <trkpt lat="46.19043" lon="-0.20443">
        <ele>98.4</ele>
        <time>2025-07-11T10:15:05.003000+02:00</time>
      </trkpt>
      <trkpt lat="46.19046" lon="-0.20437">
        <ele>98.2</ele>
        <time>2025-07-11T10:15:06.003000+02:00</time>
      </trkpt>
      <trkpt lat="46.19049" lon="-0.20432">
        <ele>97.9</ele>
        <time>2025-07-11T10:15:07.003000+02:00</time>
      </trkpt>
      <trkpt lat="46.19055" lon="-0.20421">
        <ele>97.3</ele>
        <time>2025-07-11T10:15:09.004000+02:00</time>
      </trkpt>
      <trkpt lat="46.19058" lon="-0.20415">
        <ele>97</ele>
        <time>2025-07-11T10:15:10.004000+02:00</time>
      </trkpt>
      <trkpt lat="46.19066" lon="-0.20403">
        <ele>96.7</ele>
        <time>2025-07-11T10:15:12.003000+02:00</time>
      </trkpt>
      <trkpt lat="46.1907" lon="-0.20397">
        <ele>96.5</ele>
        <time>2025-07-11T10:15:13.003000+02:00</time>
      </trkpt>
      <trkpt lat="46.19078" lon="-0.20385">
        <ele>95.8</ele>
        <time>2025-07-11T10:15:15.001000+02:00</time>
      </trkpt>
      <trkpt lat="46.19082" lon="-0.20379">
        <ele>95.6</ele>
        <time>2025-07-11T10:15:16.002000+02:00</time>
      </trkpt>
      <trkpt lat="46.19086" lon="-0.20373">
        <ele>95.4</ele>
        <time>2025-07-11T10:15:17.002000+02:00</time>
      </trkpt>
      <trkpt lat="46.19089" lon="-0.20366">
        <ele>95.2</ele>
        <time>2025-07-11T10:15:18.002000+02:00</time>
      </trkpt>
      <trkpt lat="46.19098" lon="-0.20353">
        <ele>94.7</ele>
        <time>2025-07-11T10:15:20.001000+02:00</time>
      </trkpt>
      <trkpt lat="46.19101" lon="-0.20346">
        <ele>94.5</ele>
        <time>2025-07-11T10:15:21.002000+02:00</time>
      </trkpt>
      <trkpt lat="46.19105" lon="-0.2034">
        <ele>94.2</ele>
        <time>2025-07-11T10:15:22.002000+02:00</time>
      </trkpt>
      <trkpt lat="46.1911" lon="-0.20334">
        <ele>94</ele>
        <time>2025-07-11T10:15:23.002000+02:00</time>
      </trkpt>
      <trkpt lat="46.19114" lon="-0.20328">
        <ele>93.7</ele>
        <time>2025-07-11T10:15:24.002000+02:00</time>
      </trkpt>
      <trkpt lat="46.19118" lon="-0.20322">
        <ele>93.4</ele>
        <time>2025-07-11T10:15:25.003000+02:00</time>
      </trkpt>
      <trkpt lat="46.19122" lon="-0.20316">
        <ele>93.2</ele>
        <time>2025-07-11T10:15:26.003000+02:00</time>
      </trkpt>
      <trkpt lat="46.19125" lon="-0.20311">
        <ele>93.2</ele>
        <time>2025-07-11T10:15:27.003000+02:00</time>
      </trkpt>
      <trkpt lat="46.19129" lon="-0.20306">
        <ele>93.3</ele>
        <time>2025-07-11T10:15:28.003000+02:00</time>
      </trkpt>
      <trkpt lat="46.19132" lon="-0.203">
        <ele>93.2</ele>
        <time>2025-07-11T10:15:29.003000+02:00</time>
      </trkpt>
      <trkpt lat="46.19136" lon="-0.20295">
        <ele>93</ele>
        <time>2025-07-11T10:15:30.005000+02:00</time>
      </trkpt>
      <trkpt lat="46.19142" lon="-0.20284">
        <ele>92.7</ele>
        <time>2025-07-11T10:15:32.002000+02:00</time>
      </trkpt>
      <trkpt lat="46.19145" lon="-0.2028">
        <ele>92.7</ele>
        <time>2025-07-11T10:15:33.003000+02:00</time>
      </trkpt>
      <trkpt lat="46.19148" lon="-0.20275">
        <ele>92.9</ele>
        <time>2025-07-11T10:15:34.004000+02:00</time>
      </trkpt>
      <trkpt lat="46.19152" lon="-0.20265">
        <ele>93.2</ele>
        <time>2025-07-11T10:15:36.004000+02:00</time>
      </trkpt>
      <trkpt lat="46.19157" lon="-0.20255">
        <ele>93.4</ele>
        <time>2025-07-11T10:15:38.003000+02:00</time>
      </trkpt>
      <trkpt lat="46.19159" lon="-0.2025">
        <ele>93.4</ele>
        <time>2025-07-11T10:15:39.003000+02:00</time>
      </trkpt>
      <trkpt lat="46.1916" lon="-0.20245">
        <ele>93.5</ele>
        <time>2025-07-11T10:15:40.004000+02:00</time>
      </trkpt>
      <trkpt lat="46.19161" lon="-0.20234">
        <ele>93.6</ele>
        <time>2025-07-11T10:15:42.004000+02:00</time>
      </trkpt>
      <trkpt lat="46.19159" lon="-0.20222">
        <ele>93.4</ele>
        <time>2025-07-11T10:15:44.004000+02:00</time>
      </trkpt>
      <trkpt lat="46.19155" lon="-0.2021">
        <ele>92.7</ele>
        <time>2025-07-11T10:15:46.001000+02:00</time>
      </trkpt>
      <trkpt lat="46.19154" lon="-0.20204">
        <ele>92.4</ele>
        <time>2025-07-11T10:15:47.002000+02:00</time>
      </trkpt>
      <trkpt lat="46.19151" lon="-0.20189">
        <ele>91.9</ele>
        <time>2025-07-11T10:15:49.002000+02:00</time>
      </trkpt>
      <trkpt lat="46.19151" lon="-0.20182">
        <ele>91.9</ele>
        <time>2025-07-11T10:15:50.003000+02:00</time>
      </trkpt>
      <trkpt lat="46.1915" lon="-0.20166">
        <ele>91.7</ele>
        <time>2025-07-11T10:15:52.003000+02:00</time>
      </trkpt>
      <trkpt lat="46.19149" lon="-0.20158">
        <ele>91.4</ele>
        <time>2025-07-11T10:15:53.003000+02:00</time>
      </trkpt>
      <trkpt lat="46.19149" lon="-0.20151">
        <ele>91.1</ele>
        <time>2025-07-11T10:15:54.003000+02:00</time>
      </trkpt>
      <trkpt lat="46.1915" lon="-0.20136">
        <ele>90.6</ele>
        <time>2025-07-11T10:15:56.003000+02:00</time>
      </trkpt>
      <trkpt lat="46.19153" lon="-0.20123">
        <ele>90.2</ele>
        <time>2025-07-11T10:15:58.002000+02:00</time>
      </trkpt>
      <trkpt lat="46.19156" lon="-0.20118">
        <ele>90</ele>
        <time>2025-07-11T10:15:59.002000+02:00</time>
      </trkpt>
      <trkpt lat="46.19159" lon="-0.20114">
        <ele>89.9</ele>
        <time>2025-07-11T10:16:00.005000+02:00</time>
      </trkpt>
      <trkpt lat="46.19168" lon="-0.20107">
        <ele>89.9</ele>
        <time>2025-07-11T10:16:02.002000+02:00</time>
      </trkpt>
      <trkpt lat="46.19171" lon="-0.20104">
        <ele>90</ele>
        <time>2025-07-11T10:16:03.004000+02:00</time>
      </trkpt>
      <trkpt lat="46.19179" lon="-0.20096">
        <ele>90.1</ele>
        <time>2025-07-11T10:16:05.002000+02:00</time>
      </trkpt>
      <trkpt lat="46.19182" lon="-0.20091">
        <ele>90</ele>
        <time>2025-07-11T10:16:06.003000+02:00</time>
      </trkpt>
      <trkpt lat="46.19186" lon="-0.20087">
        <ele>89.9</ele>
        <time>2025-07-11T10:16:07.003000+02:00</time>
      </trkpt>
      <trkpt lat="46.19189" lon="-0.20081">
        <ele>89.7</ele>
        <time>2025-07-11T10:16:08.003000+02:00</time>
      </trkpt>
      <trkpt lat="46.19192" lon="-0.20076">
        <ele>89.4</ele>
        <time>2025-07-11T10:16:09.003000+02:00</time>
      </trkpt>
      <trkpt lat="46.19195" lon="-0.2007">
        <ele>89.1</ele>
        <time>2025-07-11T10:16:10.003000+02:00</time>
      </trkpt>
      <trkpt lat="46.19198" lon="-0.20064">
        <ele>88.9</ele>
        <time>2025-07-11T10:16:11.003000+02:00</time>
      </trkpt>
      <trkpt lat="46.19203" lon="-0.20051">
        <ele>88.5</ele>
        <time>2025-07-11T10:16:13.003000+02:00</time>
      </trkpt>
      <trkpt lat="46.19208" lon="-0.20037">
        <ele>88.3</ele>
        <time>2025-07-11T10:16:15.003000+02:00</time>
      </trkpt>
      <trkpt lat="46.1921" lon="-0.20029">
        <ele>88.2</ele>
        <time>2025-07-11T10:16:16.003000+02:00</time>
      </trkpt>
      <trkpt lat="46.19214" lon="-0.20015">
        <ele>87.5</ele>
        <time>2025-07-11T10:16:18.002000+02:00</time>
      </trkpt>
      <trkpt lat="46.19219" lon="-0.19999">
        <ele>86.7</ele>
        <time>2025-07-11T10:16:20.002000+02:00</time>
      </trkpt>
      <trkpt lat="46.19223" lon="-0.19983">
        <ele>86.4</ele>
        <time>2025-07-11T10:16:22.001000+02:00</time>
      </trkpt>
      <trkpt lat="46.19225" lon="-0.19975">
        <ele>86.2</ele>
        <time>2025-07-11T10:16:23.002000+02:00</time>
      </trkpt>
      <trkpt lat="46.19229" lon="-0.1996">
        <ele>85.1</ele>
        <time>2025-07-11T10:16:25.001000+02:00</time>
      </trkpt>
      <trkpt lat="46.19231" lon="-0.19952">
        <ele>84.6</ele>
        <time>2025-07-11T10:16:26.002000+02:00</time>
      </trkpt>
      <trkpt lat="46.19234" lon="-0.19945">
        <ele>84.3</ele>
        <time>2025-07-11T10:16:27.002000+02:00</time>
      </trkpt>
      <trkpt lat="46.19237" lon="-0.19938">
        <ele>84.4</ele>
        <time>2025-07-11T10:16:28.002000+02:00</time>
      </trkpt>
      <trkpt lat="46.19242" lon="-0.19924">
        <ele>84.4</ele>
        <time>2025-07-11T10:16:30.003000+02:00</time>
      </trkpt>
      <trkpt lat="46.19247" lon="-0.1991">
        <ele>84.2</ele>
        <time>2025-07-11T10:16:32.001000+02:00</time>
      </trkpt>
      <trkpt lat="46.1925" lon="-0.19903">
        <ele>84</ele>
        <time>2025-07-11T10:16:33.003000+02:00</time>
      </trkpt>
      <trkpt lat="46.19251" lon="-0.19897">
        <ele>83.7</ele>
        <time>2025-07-11T10:16:34.003000+02:00</time>
      </trkpt>
      <trkpt lat="46.19256" lon="-0.19886">
        <ele>83.4</ele>
        <time>2025-07-11T10:16:36.003000+02:00</time>
      </trkpt>
      <trkpt lat="46.19259" lon="-0.1988">
        <ele>83.4</ele>
        <time>2025-07-11T10:16:37.003000+02:00</time>
      </trkpt>
      <trkpt lat="46.19264" lon="-0.19869">
        <ele>83.3</ele>
        <time>2025-07-11T10:16:39+02:00</time>
      </trkpt>
      <trkpt lat="46.19266" lon="-0.19863">
        <ele>83.4</ele>
        <time>2025-07-11T10:16:40.001000+02:00</time>
      </trkpt>
      <trkpt lat="46.19272" lon="-0.19851">
        <ele>83.3</ele>
        <time>2025-07-11T10:16:42.004000+02:00</time>
      </trkpt>
      <trkpt lat="46.19277" lon="-0.19839">
        <ele>83.2</ele>
        <time>2025-07-11T10:16:44.003000+02:00</time>
      </trkpt>
      <trkpt lat="46.19279" lon="-0.19833">
        <ele>83.1</ele>
        <time>2025-07-11T10:16:45.003000+02:00</time>
      </trkpt>
      <trkpt lat="46.19283" lon="-0.19822">
        <ele>82.5</ele>
        <time>2025-07-11T10:16:47.001000+02:00</time>
      </trkpt>
      <trkpt lat="46.19287" lon="-0.1981">
        <ele>82</ele>
        <time>2025-07-11T10:16:49.002000+02:00</time>
      </trkpt>
      <trkpt lat="46.19289" lon="-0.19803">
        <ele>81.6</ele>
        <time>2025-07-11T10:16:50.002000+02:00</time>
      </trkpt>
      <trkpt lat="46.19291" lon="-0.19796">
        <ele>81.1</ele>
        <time>2025-07-11T10:16:51.003000+02:00</time>
      </trkpt>
      <trkpt lat="46.19296" lon="-0.19785">
        <ele>80.8</ele>
        <time>2025-07-11T10:16:53.001000+02:00</time>
      </trkpt>
      <trkpt lat="46.19299" lon="-0.1978">
        <ele>81</ele>
        <time>2025-07-11T10:16:54.002000+02:00</time>
      </trkpt>
      <trkpt lat="46.19301" lon="-0.19775">
        <ele>81</ele>
        <time>2025-07-11T10:16:55.002000+02:00</time>
      </trkpt>
      <trkpt lat="46.19303" lon="-0.1977">
        <ele>80.5</ele>
        <time>2025-07-11T10:16:56.002000+02:00</time>
      </trkpt>
      <trkpt lat="46.19305" lon="-0.19764">
        <ele>79.8</ele>
        <time>2025-07-11T10:16:57.002000+02:00</time>
      </trkpt>
      <trkpt lat="46.19308" lon="-0.19754">
        <ele>78.3</ele>
        <time>2025-07-11T10:16:59.001000+02:00</time>
      </trkpt>
      <trkpt lat="46.1931" lon="-0.19749">
        <ele>77.8</ele>
        <time>2025-07-11T10:17:00.002000+02:00</time>
      </trkpt>
      <trkpt lat="46.19312" lon="-0.19743">
        <ele>77.7</ele>
        <time>2025-07-11T10:17:01.003000+02:00</time>
      </trkpt>
      <trkpt lat="46.19315" lon="-0.19734">
        <ele>77.3</ele>
        <time>2025-07-11T10:17:03.001000+02:00</time>
      </trkpt>
      <trkpt lat="46.19316" lon="-0.19729">
        <ele>77.1</ele>
        <time>2025-07-11T10:17:04.006000+02:00</time>
      </trkpt>
      <trkpt lat="46.19319" lon="-0.19718">
        <ele>76.9</ele>
        <time>2025-07-11T10:17:06.003000+02:00</time>
      </trkpt>
      <trkpt lat="46.1932" lon="-0.19712">
        <ele>76.5</ele>
        <time>2025-07-11T10:17:07.003000+02:00</time>
      </trkpt>
      <trkpt lat="46.19321" lon="-0.19702">
        <ele>75.7</ele>
        <time>2025-07-11T10:17:09.003000+02:00</time>
      </trkpt>
      <trkpt lat="46.1932" lon="-0.19693">
        <ele>74.4</ele>
        <time>2025-07-11T10:17:11.002000+02:00</time>
      </trkpt>
      <trkpt lat="46.19319" lon="-0.19687">
        <ele>73.6</ele>
        <time>2025-07-11T10:17:12.002000+02:00</time>
      </trkpt>
      <trkpt lat="46.19319" lon="-0.19681">
        <ele>72.9</ele>
        <time>2025-07-11T10:17:13.003000+02:00</time>
      </trkpt>
      <trkpt lat="46.19319" lon="-0.19675">
        <ele>72.3</ele>
        <time>2025-07-11T10:17:14.003000+02:00</time>
      </trkpt>
      <trkpt lat="46.19321" lon="-0.19668">
        <ele>71.9</ele>
        <time>2025-07-11T10:17:15.003000+02:00</time>
      </trkpt>
      <trkpt lat="46.19323" lon="-0.19656">
        <ele>71.9</ele>
        <time>2025-07-11T10:17:17.001000+02:00</time>
      </trkpt>
      <trkpt lat="46.19324" lon="-0.19649">
        <ele>71.9</ele>
        <time>2025-07-11T10:17:18.002000+02:00</time>
      </trkpt>
      <trkpt lat="46.19326" lon="-0.19639">
        <ele>72</ele>
        <time>2025-07-11T10:17:20.001000+02:00</time>
      </trkpt>
      <trkpt lat="46.19328" lon="-0.19635">
        <ele>71.9</ele>
        <time>2025-07-11T10:17:21.002000+02:00</time>
      </trkpt>
      <trkpt lat="46.1933" lon="-0.19627">
        <ele>71.7</ele>
        <time>2025-07-11T10:17:23.001000+02:00</time>
      </trkpt>
      <trkpt lat="46.19332" lon="-0.19623">
        <ele>71.6</ele>
        <time>2025-07-11T10:17:24.004000+02:00</time>
      </trkpt>
      <trkpt lat="46.19334" lon="-0.19615">
        <ele>71.4</ele>
        <time>2025-07-11T10:17:26.002000+02:00</time>
      </trkpt>
      <trkpt lat="46.19336" lon="-0.1961">
        <ele>71.4</ele>
        <time>2025-07-11T10:17:27.002000+02:00</time>
      </trkpt>
      <trkpt lat="46.19337" lon="-0.19605">
        <ele>71.5</ele>
        <time>2025-07-11T10:17:28.002000+02:00</time>
      </trkpt>
      <trkpt lat="46.19338" lon="-0.196">
        <ele>71.5</ele>
        <time>2025-07-11T10:17:29.003000+02:00</time>
      </trkpt>
      <trkpt lat="46.19339" lon="-0.19595">
        <ele>71.4</ele>
        <time>2025-07-11T10:17:30.003000+02:00</time>
      </trkpt>
      <trkpt lat="46.19339" lon="-0.19591">
        <ele>71.3</ele>
        <time>2025-07-11T10:17:31.003000+02:00</time>
      </trkpt>
      <trkpt lat="46.19339" lon="-0.19587">
        <ele>71.3</ele>
        <time>2025-07-11T10:17:32.003000+02:00</time>
      </trkpt>
      <trkpt lat="46.1934" lon="-0.1958">
        <ele>71</ele>
        <time>2025-07-11T10:17:34.003000+02:00</time>
      </trkpt>
      <trkpt lat="46.19341" lon="-0.19576">
        <ele>70.9</ele>
        <time>2025-07-11T10:17:35.003000+02:00</time>
      </trkpt>
      <trkpt lat="46.19342" lon="-0.19566">
        <ele>70.5</ele>
        <time>2025-07-11T10:17:37.003000+02:00</time>
      </trkpt>
      <trkpt lat="46.19343" lon="-0.19561">
        <ele>70.3</ele>
        <time>2025-07-11T10:17:38.003000+02:00</time>
      </trkpt>
      <trkpt lat="46.19343" lon="-0.19556">
        <ele>70.1</ele>
        <time>2025-07-11T10:17:39.004000+02:00</time>
      </trkpt>
      <trkpt lat="46.19344" lon="-0.1955">
        <ele>70</ele>
        <time>2025-07-11T10:17:40.004000+02:00</time>
      </trkpt>
      <trkpt lat="46.19345" lon="-0.19537">
        <ele>69.7</ele>
        <time>2025-07-11T10:17:42.004000+02:00</time>
      </trkpt>
      <trkpt lat="46.19347" lon="-0.19523">
        <ele>69.5</ele>
        <time>2025-07-11T10:17:44.003000+02:00</time>
      </trkpt>
      <trkpt lat="46.19349" lon="-0.1951">
        <ele>69.6</ele>
        <time>2025-07-11T10:17:46+02:00</time>
      </trkpt>
      <trkpt lat="46.19349" lon="-0.19504">
        <ele>69.6</ele>
        <time>2025-07-11T10:17:47.001000+02:00</time>
      </trkpt>
      <trkpt lat="46.19351" lon="-0.19498">
        <ele>69.6</ele>
        <time>2025-07-11T10:17:48.002000+02:00</time>
      </trkpt>
      <trkpt lat="46.19353" lon="-0.19486">
        <ele>69.7</ele>
        <time>2025-07-11T10:17:50.001000+02:00</time>
      </trkpt>
      <trkpt lat="46.19354" lon="-0.1948">
        <ele>69.7</ele>
        <time>2025-07-11T10:17:51.002000+02:00</time>
      </trkpt>
      <trkpt lat="46.19357" lon="-0.1947">
        <ele>69.8</ele>
        <time>2025-07-11T10:17:53.002000+02:00</time>
      </trkpt>
      <trkpt lat="46.19357" lon="-0.1946">
        <ele>69.5</ele>
        <time>2025-07-11T10:17:55.002000+02:00</time>
      </trkpt>
      <trkpt lat="46.19358" lon="-0.19449">
        <ele>69.1</ele>
        <time>2025-07-11T10:17:57.003000+02:00</time>
      </trkpt>
      <trkpt lat="46.19359" lon="-0.19437">
        <ele>69</ele>
        <time>2025-07-11T10:17:59.001000+02:00</time>
      </trkpt>
      <trkpt lat="46.1936" lon="-0.19432">
        <ele>69</ele>
        <time>2025-07-11T10:18:00.001000+02:00</time>
      </trkpt>
      <trkpt lat="46.19361" lon="-0.19427">
        <ele>69</ele>
        <time>2025-07-11T10:18:01.003000+02:00</time>
      </trkpt>
      <trkpt lat="46.19362" lon="-0.19421">
        <ele>69.1</ele>
        <time>2025-07-11T10:18:02.003000+02:00</time>
      </trkpt>
      <trkpt lat="46.19363" lon="-0.19415">
        <ele>69.2</ele>
        <time>2025-07-11T10:18:03.003000+02:00</time>
      </trkpt>
      <trkpt lat="46.19364" lon="-0.19404">
        <ele>69.2</ele>
        <time>2025-07-11T10:18:05.001000+02:00</time>
      </trkpt>
      <trkpt lat="46.19364" lon="-0.19398">
        <ele>69.2</ele>
        <time>2025-07-11T10:18:06.002000+02:00</time>
      </trkpt>
      <trkpt lat="46.19365" lon="-0.19393">
        <ele>69.3</ele>
        <time>2025-07-11T10:18:07.004000+02:00</time>
      </trkpt>
      <trkpt lat="46.19367" lon="-0.19382">
        <ele>69.4</ele>
        <time>2025-07-11T10:18:09.002000+02:00</time>
      </trkpt>
      <trkpt lat="46.19368" lon="-0.19376">
        <ele>69.4</ele>
        <time>2025-07-11T10:18:10.002000+02:00</time>
      </trkpt>
      <trkpt lat="46.19371" lon="-0.19364">
        <ele>69.4</ele>
        <time>2025-07-11T10:18:12.001000+02:00</time>
      </trkpt>
      <trkpt lat="46.19373" lon="-0.19358">
        <ele>69.4</ele>
        <time>2025-07-11T10:18:13.001000+02:00</time>
      </trkpt>
      <trkpt lat="46.19375" lon="-0.19352">
        <ele>69.5</ele>
        <time>2025-07-11T10:18:14.001000+02:00</time>
      </trkpt>
      <trkpt lat="46.19377" lon="-0.19346">
        <ele>69.6</ele>
        <time>2025-07-11T10:18:15.001000+02:00</time>
      </trkpt>
      <trkpt lat="46.19378" lon="-0.19341">
        <ele>69.6</ele>
        <time>2025-07-11T10:18:16.003000+02:00</time>
      </trkpt>
      <trkpt lat="46.19381" lon="-0.19331">
        <ele>69.7</ele>
        <time>2025-07-11T10:18:18.002000+02:00</time>
      </trkpt>
      <trkpt lat="46.19383" lon="-0.19326">
        <ele>69.6</ele>
        <time>2025-07-11T10:18:19.004000+02:00</time>
      </trkpt>
      <trkpt lat="46.19386" lon="-0.19317">
        <ele>69.4</ele>
        <time>2025-07-11T10:18:21.003000+02:00</time>
      </trkpt>
      <trkpt lat="46.19391" lon="-0.19309">
        <ele>69.3</ele>
        <time>2025-07-11T10:18:23.001000+02:00</time>
      </trkpt>
      <trkpt lat="46.19395" lon="-0.19304">
        <ele>69.4</ele>
        <time>2025-07-11T10:18:24.002000+02:00</time>
      </trkpt>
      <trkpt lat="46.19402" lon="-0.19294">
        <ele>69.8</ele>
        <time>2025-07-11T10:18:26.003000+02:00</time>
      </trkpt>
      <trkpt lat="46.19405" lon="-0.19288">
        <ele>69.8</ele>
        <time>2025-07-11T10:18:27.003000+02:00</time>
      </trkpt>
      <trkpt lat="46.19412" lon="-0.19277">
        <ele>69.8</ele>
        <time>2025-07-11T10:18:29.002000+02:00</time>
      </trkpt>
      <trkpt lat="46.19415" lon="-0.19272">
        <ele>69.7</ele>
        <time>2025-07-11T10:18:30.003000+02:00</time>
      </trkpt>
      <trkpt lat="46.19417" lon="-0.19266">
        <ele>69.7</ele>
        <time>2025-07-11T10:18:31.004000+02:00</time>
      </trkpt>
      <trkpt lat="46.19422" lon="-0.19257">
        <ele>69.9</ele>
        <time>2025-07-11T10:18:33.003000+02:00</time>
      </trkpt>
      <trkpt lat="46.19427" lon="-0.19247">
        <ele>70</ele>
        <time>2025-07-11T10:18:35.002000+02:00</time>
      </trkpt>
      <trkpt lat="46.19428" lon="-0.19242">
        <ele>70.1</ele>
        <time>2025-07-11T10:18:36.003000+02:00</time>
      </trkpt>
      <trkpt lat="46.19433" lon="-0.19234">
        <ele>70.4</ele>
        <time>2025-07-11T10:18:38.002000+02:00</time>
      </trkpt>
      <trkpt lat="46.19435" lon="-0.19229">
        <ele>70.5</ele>
        <time>2025-07-11T10:18:39.002000+02:00</time>
      </trkpt>
      <trkpt lat="46.19436" lon="-0.19225">
        <ele>70.5</ele>
        <time>2025-07-11T10:18:40.002000+02:00</time>
      </trkpt>
      <trkpt lat="46.19437" lon="-0.19221">
        <ele>70.4</ele>
        <time>2025-07-11T10:18:41.002000+02:00</time>
      </trkpt>
      <trkpt lat="46.1944" lon="-0.19212">
        <ele>70.4</ele>
        <time>2025-07-11T10:18:43.002000+02:00</time>
      </trkpt>
      <trkpt lat="46.19444" lon="-0.19203">
        <ele>70.3</ele>
        <time>2025-07-11T10:18:45.002000+02:00</time>
      </trkpt>
      <trkpt lat="46.19448" lon="-0.19194">
        <ele>70.2</ele>
        <time>2025-07-11T10:18:47.001000+02:00</time>
      </trkpt>
      <trkpt lat="46.1945" lon="-0.19188">
        <ele>70.3</ele>
        <time>2025-07-11T10:18:48.001000+02:00</time>
      </trkpt>
      <trkpt lat="46.19451" lon="-0.19183">
        <ele>70.3</ele>
        <time>2025-07-11T10:18:49.001000+02:00</time>
      </trkpt>
      <trkpt lat="46.19453" lon="-0.19177">
        <ele>70.2</ele>
        <time>2025-07-11T10:18:50.001000+02:00</time>
      </trkpt>
      <trkpt lat="46.19455" lon="-0.19166">
        <ele>70</ele>
        <time>2025-07-11T10:18:52.003000+02:00</time>
      </trkpt>
      <trkpt lat="46.19459" lon="-0.19154">
        <ele>70</ele>
        <time>2025-07-11T10:18:54+02:00</time>
      </trkpt>
      <trkpt lat="46.1946" lon="-0.19148">
        <ele>70</ele>
        <time>2025-07-11T10:18:55.004000+02:00</time>
      </trkpt>
      <trkpt lat="46.19465" lon="-0.19136">
        <ele>70</ele>
        <time>2025-07-11T10:18:57.003000+02:00</time>
      </trkpt>
      <trkpt lat="46.19467" lon="-0.19131">
        <ele>69.9</ele>
        <time>2025-07-11T10:18:58.003000+02:00</time>
      </trkpt>
      <trkpt lat="46.19469" lon="-0.19125">
        <ele>69.9</ele>
        <time>2025-07-11T10:18:59.004000+02:00</time>
      </trkpt>
      <trkpt lat="46.19474" lon="-0.19113">
        <ele>70</ele>
        <time>2025-07-11T10:19:01.004000+02:00</time>
      </trkpt>
      <trkpt lat="46.19478" lon="-0.19101">
        <ele>70</ele>
        <time>2025-07-11T10:19:03.003000+02:00</time>
      </trkpt>
      <trkpt lat="46.19479" lon="-0.19095">
        <ele>70</ele>
        <time>2025-07-11T10:19:04.003000+02:00</time>
      </trkpt>
      <trkpt lat="46.19482" lon="-0.19084">
        <ele>70</ele>
        <time>2025-07-11T10:19:06.002000+02:00</time>
      </trkpt>
      <trkpt lat="46.19484" lon="-0.19072">
        <ele>69.8</ele>
        <time>2025-07-11T10:19:08.001000+02:00</time>
      </trkpt>
      <trkpt lat="46.19486" lon="-0.19066">
        <ele>69.7</ele>
        <time>2025-07-11T10:19:09.002000+02:00</time>
      </trkpt>
      <trkpt lat="46.19489" lon="-0.19055">
        <ele>69.6</ele>
        <time>2025-07-11T10:19:11.002000+02:00</time>
      </trkpt>
      <trkpt lat="46.19493" lon="-0.19043">
        <ele>69.7</ele>
        <time>2025-07-11T10:19:13.002000+02:00</time>
      </trkpt>
      <trkpt lat="46.19495" lon="-0.19037">
        <ele>69.8</ele>
        <time>2025-07-11T10:19:14.002000+02:00</time>
      </trkpt>
      <trkpt lat="46.19497" lon="-0.19031">
        <ele>69.9</ele>
        <time>2025-07-11T10:19:15.004000+02:00</time>
      </trkpt>
      <trkpt lat="46.19501" lon="-0.1902">
        <ele>70</ele>
        <time>2025-07-11T10:19:17.001000+02:00</time>
      </trkpt>
      <trkpt lat="46.19503" lon="-0.19015">
        <ele>70</ele>
        <time>2025-07-11T10:19:18.001000+02:00</time>
      </trkpt>
      <trkpt lat="46.19507" lon="-0.19003">
        <ele>70</ele>
        <time>2025-07-11T10:19:20.001000+02:00</time>
      </trkpt>
      <trkpt lat="46.19508" lon="-0.18998">
        <ele>70</ele>
        <time>2025-07-11T10:19:21.001000+02:00</time>
      </trkpt>
      <trkpt lat="46.19509" lon="-0.18992">
        <ele>70</ele>
        <time>2025-07-11T10:19:22.002000+02:00</time>
      </trkpt>
      <trkpt lat="46.19511" lon="-0.18981">
        <ele>70</ele>
        <time>2025-07-11T10:19:24+02:00</time>
      </trkpt>
      <trkpt lat="46.19512" lon="-0.18977">
        <ele>70</ele>
        <time>2025-07-11T10:19:25.002000+02:00</time>
      </trkpt>
      <trkpt lat="46.19512" lon="-0.18972">
        <ele>70</ele>
        <time>2025-07-11T10:19:26.002000+02:00</time>
      </trkpt>
      <trkpt lat="46.19516" lon="-0.18962">
        <ele>70.4</ele>
        <time>2025-07-11T10:19:27.999000+02:00</time>
      </trkpt>
      <trkpt lat="46.19518" lon="-0.18957">
        <ele>70.6</ele>
        <time>2025-07-11T10:19:28.999000+02:00</time>
      </trkpt>
      <trkpt lat="46.19521" lon="-0.18953">
        <ele>70.7</ele>
        <time>2025-07-11T10:19:30+02:00</time>
      </trkpt>
      <trkpt lat="46.19524" lon="-0.1895">
        <ele>70.8</ele>
        <time>2025-07-11T10:19:31.001000+02:00</time>
      </trkpt>
      <trkpt lat="46.19531" lon="-0.18947">
        <ele>71</ele>
        <time>2025-07-11T10:19:33.002000+02:00</time>
      </trkpt>
      <trkpt lat="46.19539" lon="-0.18946">
        <ele>71.3</ele>
        <time>2025-07-11T10:19:35+02:00</time>
      </trkpt>
      <trkpt lat="46.19542" lon="-0.18945">
        <ele>71.5</ele>
        <time>2025-07-11T10:19:36+02:00</time>
      </trkpt>
      <trkpt lat="46.19546" lon="-0.18945">
        <ele>71.6</ele>
        <time>2025-07-11T10:19:37+02:00</time>
      </trkpt>
      <trkpt lat="46.1955" lon="-0.18945">
        <ele>71.8</ele>
        <time>2025-07-11T10:19:38+02:00</time>
      </trkpt>
      <trkpt lat="46.19553" lon="-0.18945">
        <ele>71.9</ele>
        <time>2025-07-11T10:19:39.002000+02:00</time>
      </trkpt>
      <trkpt lat="46.19557" lon="-0.18945">
        <ele>72</ele>
        <time>2025-07-11T10:19:40.002000+02:00</time>
      </trkpt>
      <trkpt lat="46.19565" lon="-0.18946">
        <ele>72.2</ele>
        <time>2025-07-11T10:19:42.002000+02:00</time>
      </trkpt>
      <trkpt lat="46.19572" lon="-0.18945">
        <ele>72.6</ele>
        <time>2025-07-11T10:19:44.001000+02:00</time>
      </trkpt>
      <trkpt lat="46.19575" lon="-0.18944">
        <ele>72.7</ele>
        <time>2025-07-11T10:19:45.002000+02:00</time>
      </trkpt>
      <trkpt lat="46.19579" lon="-0.18943">
        <ele>72.9</ele>
        <time>2025-07-11T10:19:46.002000+02:00</time>
      </trkpt>
      <trkpt lat="46.19585" lon="-0.18941">
        <ele>73.1</ele>
        <time>2025-07-11T10:19:47.999000+02:00</time>
      </trkpt>
      <trkpt lat="46.19588" lon="-0.1894">
        <ele>73.2</ele>
        <time>2025-07-11T10:19:49.002000+02:00</time>
      </trkpt>
      <trkpt lat="46.19594" lon="-0.18938">
        <ele>73.3</ele>
        <time>2025-07-11T10:19:51.002000+02:00</time>
      </trkpt>
      <trkpt lat="46.19597" lon="-0.18937">
        <ele>73.4</ele>
        <time>2025-07-11T10:19:52.005000+02:00</time>
      </trkpt>
      <trkpt lat="46.19602" lon="-0.18931">
        <ele>73.8</ele>
        <time>2025-07-11T10:19:54.001000+02:00</time>
      </trkpt>
      <trkpt lat="46.19606" lon="-0.18924">
        <ele>74.3</ele>
        <time>2025-07-11T10:19:56+02:00</time>
      </trkpt>
      <trkpt lat="46.19608" lon="-0.18921">
        <ele>74.6</ele>
        <time>2025-07-11T10:19:57.001000+02:00</time>
      </trkpt>
      <trkpt lat="46.19608" lon="-0.18917">
        <ele>74.9</ele>
        <time>2025-07-11T10:19:58.001000+02:00</time>
      </trkpt>
      <trkpt lat="46.19609" lon="-0.18914">
        <ele>75</ele>
        <time>2025-07-11T10:19:59.001000+02:00</time>
      </trkpt>
      <trkpt lat="46.19609" lon="-0.18908">
        <ele>75.3</ele>
        <time>2025-07-11T10:20:01.001000+02:00</time>
      </trkpt>
      <trkpt lat="46.19608" lon="-0.18903">
        <ele>75.5</ele>
        <time>2025-07-11T10:20:03.002000+02:00</time>
      </trkpt>
      <trkpt lat="46.19607" lon="-0.18896">
        <ele>75.7</ele>
        <time>2025-07-11T10:20:05.001000+02:00</time>
      </trkpt>
      <trkpt lat="46.19607" lon="-0.18892">
        <ele>75.9</ele>
        <time>2025-07-11T10:20:06.001000+02:00</time>
      </trkpt>
      <trkpt lat="46.19607" lon="-0.18888">
        <ele>76</ele>
        <time>2025-07-11T10:20:07.002000+02:00</time>
      </trkpt>
      <trkpt lat="46.19607" lon="-0.18881">
        <ele>76.3</ele>
        <time>2025-07-11T10:20:09.001000+02:00</time>
      </trkpt>
      <trkpt lat="46.19607" lon="-0.18877">
        <ele>76.5</ele>
        <time>2025-07-11T10:20:10.001000+02:00</time>
      </trkpt>
      <trkpt lat="46.19608" lon="-0.18871">
        <ele>76.7</ele>
        <time>2025-07-11T10:20:12+02:00</time>
      </trkpt>
      <trkpt lat="46.19609" lon="-0.18868">
        <ele>76.8</ele>
        <time>2025-07-11T10:20:13+02:00</time>
      </trkpt>
      <trkpt lat="46.1961" lon="-0.18865">
        <ele>76.9</ele>
        <time>2025-07-11T10:20:14+02:00</time>
      </trkpt>
      <trkpt lat="46.19611" lon="-0.18862">
        <ele>77</ele>
        <time>2025-07-11T10:20:15.001000+02:00</time>
      </trkpt>
      <trkpt lat="46.19613" lon="-0.18856">
        <ele>77.7</ele>
        <time>2025-07-11T10:20:17+02:00</time>
      </trkpt>
      <trkpt lat="46.19613" lon="-0.18852">
        <ele>78.1</ele>
        <time>2025-07-11T10:20:18.001000+02:00</time>
      </trkpt>
      <trkpt lat="46.19615" lon="-0.18846">
        <ele>78.8</ele>
        <time>2025-07-11T10:20:20+02:00</time>
      </trkpt>
      <trkpt lat="46.19616" lon="-0.18844">
        <ele>79.2</ele>
        <time>2025-07-11T10:20:21+02:00</time>
      </trkpt>
      <trkpt lat="46.19617" lon="-0.18841">
        <ele>79.5</ele>
        <time>2025-07-11T10:20:22.002000+02:00</time>
      </trkpt>
      <trkpt lat="46.19619" lon="-0.18834">
        <ele>80.2</ele>
        <time>2025-07-11T10:20:24+02:00</time>
      </trkpt>
      <trkpt lat="46.19621" lon="-0.1883">
        <ele>80.9</ele>
        <time>2025-07-11T10:20:25+02:00</time>
      </trkpt>
      <trkpt lat="46.19622" lon="-0.18826">
        <ele>81.6</ele>
        <time>2025-07-11T10:20:26+02:00</time>
      </trkpt>
      <trkpt lat="46.19623" lon="-0.18823">
        <ele>82.1</ele>
        <time>2025-07-11T10:20:27+02:00</time>
      </trkpt>
      <trkpt lat="46.19624" lon="-0.18819">
        <ele>82.6</ele>
        <time>2025-07-11T10:20:28.001000+02:00</time>
      </trkpt>
      <trkpt lat="46.19626" lon="-0.18816">
        <ele>82.9</ele>
        <time>2025-07-11T10:20:29.001000+02:00</time>
      </trkpt>
      <trkpt lat="46.19627" lon="-0.18813">
        <ele>83.2</ele>
        <time>2025-07-11T10:20:30.002000+02:00</time>
      </trkpt>
      <trkpt lat="46.19629" lon="-0.18809">
        <ele>83.3</ele>
        <time>2025-07-11T10:20:31.002000+02:00</time>
      </trkpt>
      <trkpt lat="46.19632" lon="-0.18802">
        <ele>83.6</ele>
        <time>2025-07-11T10:20:33.001000+02:00</time>
      </trkpt>
      <trkpt lat="46.19634" lon="-0.18799">
        <ele>83.7</ele>
        <time>2025-07-11T10:20:34.001000+02:00</time>
      </trkpt>
      <trkpt lat="46.19635" lon="-0.18796">
        <ele>83.9</ele>
        <time>2025-07-11T10:20:35.001000+02:00</time>
      </trkpt>
      <trkpt lat="46.19637" lon="-0.1879">
        <ele>84</ele>
        <time>2025-07-11T10:20:36.999000+02:00</time>
      </trkpt>
      <trkpt lat="46.19638" lon="-0.18788">
        <ele>84.1</ele>
        <time>2025-07-11T10:20:37.999000+02:00</time>
      </trkpt>
      <trkpt lat="46.1964" lon="-0.18784">
        <ele>84.3</ele>
        <time>2025-07-11T10:20:39+02:00</time>
      </trkpt>
      <trkpt lat="46.19642" lon="-0.18781">
        <ele>84.7</ele>
        <time>2025-07-11T10:20:40+02:00</time>
      </trkpt>
      <trkpt lat="46.19644" lon="-0.18778">
        <ele>85</ele>
        <time>2025-07-11T10:20:41+02:00</time>
      </trkpt>
      <trkpt lat="46.19646" lon="-0.18775">
        <ele>85.5</ele>
        <time>2025-07-11T10:20:42.001000+02:00</time>
      </trkpt>
      <trkpt lat="46.19649" lon="-0.1877">
        <ele>86.1</ele>
        <time>2025-07-11T10:20:43.999000+02:00</time>
      </trkpt>
      <trkpt lat="46.1965" lon="-0.18768">
        <ele>86.4</ele>
        <time>2025-07-11T10:20:45.001000+02:00</time>
      </trkpt>
      <trkpt lat="46.19651" lon="-0.18765">
        <ele>86.7</ele>
        <time>2025-07-11T10:20:46.003000+02:00</time>
      </trkpt>
      <trkpt lat="46.19654" lon="-0.1876">
        <ele>87.1</ele>
        <time>2025-07-11T10:20:48.001000+02:00</time>
      </trkpt>
      <trkpt lat="46.19655" lon="-0.18757">
        <ele>87.2</ele>
        <time>2025-07-11T10:20:49.001000+02:00</time>
      </trkpt>
      <trkpt lat="46.19656" lon="-0.18754">
        <ele>87.4</ele>
        <time>2025-07-11T10:20:50.001000+02:00</time>
      </trkpt>
      <trkpt lat="46.19658" lon="-0.18752">
        <ele>87.4</ele>
        <time>2025-07-11T10:20:51.002000+02:00</time>
      </trkpt>
      <trkpt lat="46.1966" lon="-0.18746">
        <ele>87.3</ele>
        <time>2025-07-11T10:20:53.001000+02:00</time>
      </trkpt>
      <trkpt lat="46.19661" lon="-0.18744">
        <ele>87.2</ele>
        <time>2025-07-11T10:20:54.002000+02:00</time>
      </trkpt>
      <trkpt lat="46.19664" lon="-0.18738">
        <ele>86.9</ele>
        <time>2025-07-11T10:20:56.001000+02:00</time>
      </trkpt>
      <trkpt lat="46.19665" lon="-0.18736">
        <ele>86.7</ele>
        <time>2025-07-11T10:20:57.001000+02:00</time>
      </trkpt>
      <trkpt lat="46.19668" lon="-0.18729">
        <ele>87</ele>
        <time>2025-07-11T10:20:59.001000+02:00</time>
      </trkpt>
      <trkpt lat="46.1967" lon="-0.18724">
        <ele>87.4</ele>
        <time>2025-07-11T10:21:01+02:00</time>
      </trkpt>
      <trkpt lat="46.19671" lon="-0.18721">
        <ele>87.8</ele>
        <time>2025-07-11T10:21:02+02:00</time>
      </trkpt>
      <trkpt lat="46.19673" lon="-0.18718">
        <ele>88.2</ele>
        <time>2025-07-11T10:21:03+02:00</time>
      </trkpt>
      <trkpt lat="46.19674" lon="-0.18714">
        <ele>88.6</ele>
        <time>2025-07-11T10:21:04+02:00</time>
      </trkpt>
      <trkpt lat="46.19678" lon="-0.18708">
        <ele>89.3</ele>
        <time>2025-07-11T10:21:06.003000+02:00</time>
      </trkpt>
      <trkpt lat="46.19681" lon="-0.18703">
        <ele>89.7</ele>
        <time>2025-07-11T10:21:08+02:00</time>
      </trkpt>
      <trkpt lat="46.19681" lon="-0.18696">
        <ele>90</ele>
        <time>2025-07-11T10:21:10.002000+02:00</time>
      </trkpt>
      <trkpt lat="46.19683" lon="-0.1869">
        <ele>90</ele>
        <time>2025-07-11T10:21:12.095000+02:00</time>
      </trkpt>
      <trkpt lat="46.19684" lon="-0.18684">
        <ele>89.9</ele>
        <time>2025-07-11T10:21:14+02:00</time>
      </trkpt>
      <trkpt lat="46.19685" lon="-0.18681">
        <ele>89.8</ele>
        <time>2025-07-11T10:21:15.001000+02:00</time>
      </trkpt>
      <trkpt lat="46.19687" lon="-0.18675">
        <ele>89.6</ele>
        <time>2025-07-11T10:21:17+02:00</time>
      </trkpt>
      <trkpt lat="46.19689" lon="-0.18671">
        <ele>89.5</ele>
        <time>2025-07-11T10:21:18.001000+02:00</time>
      </trkpt>
      <trkpt lat="46.19692" lon="-0.18665">
        <ele>89.2</ele>
        <time>2025-07-11T10:21:20.001000+02:00</time>
      </trkpt>
      <trkpt lat="46.19692" lon="-0.18663">
        <ele>89.2</ele>
        <time>2025-07-11T10:21:21.001000+02:00</time>
      </trkpt>
      <trkpt lat="46.19693" lon="-0.18656">
        <ele>89.1</ele>
        <time>2025-07-11T10:21:23+02:00</time>
      </trkpt>
      <trkpt lat="46.19693" lon="-0.18653">
        <ele>89.1</ele>
        <time>2025-07-11T10:21:24.001000+02:00</time>
      </trkpt>
      <trkpt lat="46.19694" lon="-0.18647">
        <ele>89.1</ele>
        <time>2025-07-11T10:21:26.001000+02:00</time>
      </trkpt>
      <trkpt lat="46.19694" lon="-0.18644">
        <ele>89</ele>
        <time>2025-07-11T10:21:27.002000+02:00</time>
      </trkpt>
      <trkpt lat="46.19698" lon="-0.18637">
        <ele>89.6</ele>
        <time>2025-07-11T10:21:29+02:00</time>
      </trkpt>
      <trkpt lat="46.197" lon="-0.18634">
        <ele>89.9</ele>
        <time>2025-07-11T10:21:30+02:00</time>
      </trkpt>
      <trkpt lat="46.19702" lon="-0.18631">
        <ele>90.2</ele>
        <time>2025-07-11T10:21:31+02:00</time>
      </trkpt>
      <trkpt lat="46.19704" lon="-0.18628">
        <ele>90.3</ele>
        <time>2025-07-11T10:21:32.001000+02:00</time>
      </trkpt>
      <trkpt lat="46.19705" lon="-0.18625">
        <ele>90.5</ele>
        <time>2025-07-11T10:21:33.001000+02:00</time>
      </trkpt>
      <trkpt lat="46.19709" lon="-0.1862">
        <ele>90.7</ele>
        <time>2025-07-11T10:21:35+02:00</time>
      </trkpt>
      <trkpt lat="46.19711" lon="-0.18617">
        <ele>90.8</ele>
        <time>2025-07-11T10:21:36.001000+02:00</time>
      </trkpt>
      <trkpt lat="46.19714" lon="-0.18615">
        <ele>90.9</ele>
        <time>2025-07-11T10:21:37.001000+02:00</time>
      </trkpt>
      <trkpt lat="46.19719" lon="-0.18613">
        <ele>91</ele>
        <time>2025-07-11T10:21:39.001000+02:00</time>
      </trkpt>
      <trkpt lat="46.19721" lon="-0.18612">
        <ele>91</ele>
        <time>2025-07-11T10:21:40.001000+02:00</time>
      </trkpt>
      <trkpt lat="46.19726" lon="-0.1861">
        <ele>91.4</ele>
        <time>2025-07-11T10:21:42.002000+02:00</time>
      </trkpt>
      <trkpt lat="46.1973" lon="-0.18608">
        <ele>91.8</ele>
        <time>2025-07-11T10:21:44.002000+02:00</time>
      </trkpt>
      <trkpt lat="46.19732" lon="-0.18607">
        <ele>92</ele>
        <time>2025-07-11T10:21:45.002000+02:00</time>
      </trkpt>
      <trkpt lat="46.19736" lon="-0.18606">
        <ele>92.4</ele>
        <time>2025-07-11T10:21:47+02:00</time>
      </trkpt>
      <trkpt lat="46.19738" lon="-0.18607">
        <ele>92.6</ele>
        <time>2025-07-11T10:21:48+02:00</time>
      </trkpt>
      <trkpt lat="46.19739" lon="-0.18607">
        <ele>92.8</ele>
        <time>2025-07-11T10:21:49+02:00</time>
      </trkpt>
      <trkpt lat="46.19741" lon="-0.18608">
        <ele>93</ele>
        <time>2025-07-11T10:21:50.001000+02:00</time>
      </trkpt>
      <trkpt lat="46.19743" lon="-0.1861">
        <ele>93.2</ele>
        <time>2025-07-11T10:21:51.001000+02:00</time>
      </trkpt>
      <trkpt lat="46.19746" lon="-0.18612">
        <ele>93.6</ele>
        <time>2025-07-11T10:21:53+02:00</time>
      </trkpt>
      <trkpt lat="46.19748" lon="-0.18612">
        <ele>93.8</ele>
        <time>2025-07-11T10:21:54.001000+02:00</time>
      </trkpt>
      <trkpt lat="46.19751" lon="-0.18614">
        <ele>94.2</ele>
        <time>2025-07-11T10:21:56+02:00</time>
      </trkpt>
      <trkpt lat="46.19753" lon="-0.18615">
        <ele>94.4</ele>
        <time>2025-07-11T10:21:57.002000+02:00</time>
      </trkpt>
      <trkpt lat="46.19755" lon="-0.18616">
        <ele>94.6</ele>
        <time>2025-07-11T10:21:58.002000+02:00</time>
      </trkpt>
      <trkpt lat="46.19759" lon="-0.18619">
        <ele>94.9</ele>
        <time>2025-07-11T10:22:00.003000+02:00</time>
      </trkpt>
      <trkpt lat="46.19764" lon="-0.18621">
        <ele>95.3</ele>
        <time>2025-07-11T10:22:02+02:00</time>
      </trkpt>
      <trkpt lat="46.19766" lon="-0.18622">
        <ele>95.5</ele>
        <time>2025-07-11T10:22:03.003000+02:00</time>
      </trkpt>
      <trkpt lat="46.19769" lon="-0.18624">
        <ele>95.8</ele>
        <time>2025-07-11T10:22:05+02:00</time>
      </trkpt>
      <trkpt lat="46.19771" lon="-0.18625">
        <ele>96</ele>
        <time>2025-07-11T10:22:06.001000+02:00</time>
      </trkpt>
      <trkpt lat="46.19772" lon="-0.18626">
        <ele>96.1</ele>
        <time>2025-07-11T10:22:07.001000+02:00</time>
      </trkpt>
      <trkpt lat="46.19774" lon="-0.18627">
        <ele>96.3</ele>
        <time>2025-07-11T10:22:08.006000+02:00</time>
      </trkpt>
      <trkpt lat="46.19777" lon="-0.18628">
        <ele>96.5</ele>
        <time>2025-07-11T10:22:10+02:00</time>
      </trkpt>
      <trkpt lat="46.19779" lon="-0.18628">
        <ele>96.6</ele>
        <time>2025-07-11T10:22:11+02:00</time>
      </trkpt>
      <trkpt lat="46.1978" lon="-0.18629">
        <ele>96.7</ele>
        <time>2025-07-11T10:22:12.001000+02:00</time>
      </trkpt>
      <trkpt lat="46.19783" lon="-0.1863">
        <ele>96.9</ele>
        <time>2025-07-11T10:22:14.003000+02:00</time>
      </trkpt>
      <trkpt lat="46.19786" lon="-0.18632">
        <ele>97</ele>
        <time>2025-07-11T10:22:16+02:00</time>
      </trkpt>
      <trkpt lat="46.19788" lon="-0.18632">
        <ele>97.1</ele>
        <time>2025-07-11T10:22:17+02:00</time>
      </trkpt>
      <trkpt lat="46.1979" lon="-0.18633">
        <ele>97.2</ele>
        <time>2025-07-11T10:22:18+02:00</time>
      </trkpt>
      <trkpt lat="46.19792" lon="-0.18635">
        <ele>97.4</ele>
        <time>2025-07-11T10:22:19.002000+02:00</time>
      </trkpt>
      <trkpt lat="46.19796" lon="-0.18637">
        <ele>97.6</ele>
        <time>2025-07-11T10:22:21.001000+02:00</time>
      </trkpt>
      <trkpt lat="46.198" lon="-0.18638">
        <ele>97.8</ele>
        <time>2025-07-11T10:22:23+02:00</time>
      </trkpt>
      <trkpt lat="46.19802" lon="-0.18639">
        <ele>97.9</ele>
        <time>2025-07-11T10:22:24.001000+02:00</time>
      </trkpt>
      <trkpt lat="46.19804" lon="-0.1864">
        <ele>97.9</ele>
        <time>2025-07-11T10:22:25.001000+02:00</time>
      </trkpt>
      <trkpt lat="46.19806" lon="-0.18641">
        <ele>98</ele>
        <time>2025-07-11T10:22:26.001000+02:00</time>
      </trkpt>
      <trkpt lat="46.19808" lon="-0.18643">
        <ele>98</ele>
        <time>2025-07-11T10:22:27.001000+02:00</time>
      </trkpt>
      <trkpt lat="46.1981" lon="-0.18644">
        <ele>98</ele>
        <time>2025-07-11T10:22:28.001000+02:00</time>
      </trkpt>
      <trkpt lat="46.19815" lon="-0.18646">
        <ele>98</ele>
        <time>2025-07-11T10:22:30.001000+02:00</time>
      </trkpt>
      <trkpt lat="46.19817" lon="-0.18647">
        <ele>98</ele>
        <time>2025-07-11T10:22:31.001000+02:00</time>
      </trkpt>
      <trkpt lat="46.19819" lon="-0.18648">
        <ele>98</ele>
        <time>2025-07-11T10:22:32.001000+02:00</time>
      </trkpt>
      <trkpt lat="46.19821" lon="-0.18649">
        <ele>98</ele>
        <time>2025-07-11T10:22:33.001000+02:00</time>
      </trkpt>
      <trkpt lat="46.19823" lon="-0.1865">
        <ele>98</ele>
        <time>2025-07-11T10:22:34.001000+02:00</time>
      </trkpt>
      <trkpt lat="46.19828" lon="-0.18652">
        <ele>98</ele>
        <time>2025-07-11T10:22:36.001000+02:00</time>
      </trkpt>
      <trkpt lat="46.19834" lon="-0.18654">
        <ele>98</ele>
        <time>2025-07-11T10:22:38.002000+02:00</time>
      </trkpt>
      <trkpt lat="46.19836" lon="-0.18654">
        <ele>98.1</ele>
        <time>2025-07-11T10:22:39.002000+02:00</time>
      </trkpt>
      <trkpt lat="46.19842" lon="-0.18656">
        <ele>98.3</ele>
        <time>2025-07-11T10:22:41+02:00</time>
      </trkpt>
      <trkpt lat="46.19844" lon="-0.18657">
        <ele>98.4</ele>
        <time>2025-07-11T10:22:42.001000+02:00</time>
      </trkpt>
      <trkpt lat="46.19847" lon="-0.18658">
        <ele>98.5</ele>
        <time>2025-07-11T10:22:43.001000+02:00</time>
      </trkpt>
      <trkpt lat="46.19849" lon="-0.18659">
        <ele>98.6</ele>
        <time>2025-07-11T10:22:44.001000+02:00</time>
      </trkpt>
      <trkpt lat="46.19851" lon="-0.1866">
        <ele>98.6</ele>
        <time>2025-07-11T10:22:45.001000+02:00</time>
      </trkpt>
      <trkpt lat="46.19854" lon="-0.18661">
        <ele>98.7</ele>
        <time>2025-07-11T10:22:46.001000+02:00</time>
      </trkpt>
      <trkpt lat="46.19856" lon="-0.18662">
        <ele>98.8</ele>
        <time>2025-07-11T10:22:47.001000+02:00</time>
      </trkpt>
      <trkpt lat="46.19859" lon="-0.18663">
        <ele>98.9</ele>
        <time>2025-07-11T10:22:48.001000+02:00</time>
      </trkpt>
      <trkpt lat="46.19862" lon="-0.18664">
        <ele>99</ele>
        <time>2025-07-11T10:22:49.001000+02:00</time>
      </trkpt>
      <trkpt lat="46.19867" lon="-0.18666">
        <ele>99</ele>
        <time>2025-07-11T10:22:51.002000+02:00</time>
      </trkpt>
      <trkpt lat="46.19873" lon="-0.18668">
        <ele>99</ele>
        <time>2025-07-11T10:22:53.001000+02:00</time>
      </trkpt>
      <trkpt lat="46.19878" lon="-0.18671">
        <ele>99</ele>
        <time>2025-07-11T10:22:55+02:00</time>
      </trkpt>
      <trkpt lat="46.19881" lon="-0.18672">
        <ele>99</ele>
        <time>2025-07-11T10:22:56+02:00</time>
      </trkpt>
      <trkpt lat="46.19884" lon="-0.18674">
        <ele>99</ele>
        <time>2025-07-11T10:22:57+02:00</time>
      </trkpt>
      <trkpt lat="46.19887" lon="-0.18675">
        <ele>99</ele>
        <time>2025-07-11T10:22:58+02:00</time>
      </trkpt>
      <trkpt lat="46.1989" lon="-0.18676">
        <ele>99</ele>
        <time>2025-07-11T10:22:59+02:00</time>
      </trkpt>
      <trkpt lat="46.19893" lon="-0.18677">
        <ele>99</ele>
        <time>2025-07-11T10:23:00.001000+02:00</time>
      </trkpt>
      <trkpt lat="46.19898" lon="-0.1868">
        <ele>99</ele>
        <time>2025-07-11T10:23:02.002000+02:00</time>
      </trkpt>
      <trkpt lat="46.19904" lon="-0.18682">
        <ele>99</ele>
        <time>2025-07-11T10:23:03.999000+02:00</time>
      </trkpt>
      <trkpt lat="46.19907" lon="-0.18684">
        <ele>99</ele>
        <time>2025-07-11T10:23:05+02:00</time>
      </trkpt>
      <trkpt lat="46.1991" lon="-0.18684">
        <ele>99</ele>
        <time>2025-07-11T10:23:06.001000+02:00</time>
      </trkpt>
      <trkpt lat="46.19913" lon="-0.18685">
        <ele>99</ele>
        <time>2025-07-11T10:23:07.001000+02:00</time>
      </trkpt>
      <trkpt lat="46.19916" lon="-0.18686">
        <ele>99</ele>
        <time>2025-07-11T10:23:08.001000+02:00</time>
      </trkpt>
      <trkpt lat="46.1992" lon="-0.18687">
        <ele>99.1</ele>
        <time>2025-07-11T10:23:09.002000+02:00</time>
      </trkpt>
      <trkpt lat="46.19927" lon="-0.18689">
        <ele>99.4</ele>
        <time>2025-07-11T10:23:11.001000+02:00</time>
      </trkpt>
      <trkpt lat="46.19934" lon="-0.18692">
        <ele>99.6</ele>
        <time>2025-07-11T10:23:13.001000+02:00</time>
      </trkpt>
      <trkpt lat="46.1994" lon="-0.18695">
        <ele>99.9</ele>
        <time>2025-07-11T10:23:15.001000+02:00</time>
      </trkpt>
      <trkpt lat="46.19944" lon="-0.18696">
        <ele>100</ele>
        <time>2025-07-11T10:23:16.002000+02:00</time>
      </trkpt>
      <trkpt lat="46.1995" lon="-0.18699">
        <ele>100</ele>
        <time>2025-07-11T10:23:18+02:00</time>
      </trkpt>
      <trkpt lat="46.19953" lon="-0.18701">
        <ele>99.9</ele>
        <time>2025-07-11T10:23:19.001000+02:00</time>
      </trkpt>
      <trkpt lat="46.19953" lon="-0.18704">
        <ele>99.9</ele>
        <time>2025-07-11T10:23:20.002000+02:00</time>
      </trkpt>
      <trkpt lat="46.19957" lon="-0.1871">
        <ele>99.7</ele>
        <time>2025-07-11T10:23:22.002000+02:00</time>
      </trkpt>
      <trkpt lat="46.1996" lon="-0.1872">
        <ele>99.5</ele>
        <time>2025-07-11T10:23:24.001000+02:00</time>
      </trkpt>
      <trkpt lat="46.19961" lon="-0.18725">
        <ele>99.4</ele>
        <time>2025-07-11T10:23:25.001000+02:00</time>
      </trkpt>
      <trkpt lat="46.19963" lon="-0.18736">
        <ele>99.2</ele>
        <time>2025-07-11T10:23:27.001000+02:00</time>
      </trkpt>
      <trkpt lat="46.19963" lon="-0.18741">
        <ele>99.1</ele>
        <time>2025-07-11T10:23:28.001000+02:00</time>
      </trkpt>
      <trkpt lat="46.19965" lon="-0.1875">
        <ele>99</ele>
        <time>2025-07-11T10:23:30+02:00</time>
      </trkpt>
      <trkpt lat="46.19965" lon="-0.18756">
        <ele>99</ele>
        <time>2025-07-11T10:23:31.003000+02:00</time>
      </trkpt>
      <trkpt lat="46.19967" lon="-0.18767">
        <ele>99</ele>
        <time>2025-07-11T10:23:33.002000+02:00</time>
      </trkpt>
      <trkpt lat="46.19968" lon="-0.18777">
        <ele>99</ele>
        <time>2025-07-11T10:23:35.001000+02:00</time>
      </trkpt>
      <trkpt lat="46.1997" lon="-0.18788">
        <ele>98.6</ele>
        <time>2025-07-11T10:23:37.001000+02:00</time>
      </trkpt>
      <trkpt lat="46.19971" lon="-0.18793">
        <ele>98.5</ele>
        <time>2025-07-11T10:23:38.004000+02:00</time>
      </trkpt>
      <trkpt lat="46.19973" lon="-0.18802">
        <ele>98.1</ele>
        <time>2025-07-11T10:23:40+02:00</time>
      </trkpt>
      <trkpt lat="46.19976" lon="-0.18813">
        <ele>98</ele>
        <time>2025-07-11T10:23:42+02:00</time>
      </trkpt>
      <trkpt lat="46.19977" lon="-0.18818">
        <ele>98</ele>
        <time>2025-07-11T10:23:43.001000+02:00</time>
      </trkpt>
      <trkpt lat="46.19978" lon="-0.18824">
        <ele>98</ele>
        <time>2025-07-11T10:23:44.001000+02:00</time>
      </trkpt>
      <trkpt lat="46.19979" lon="-0.1883">
        <ele>98</ele>
        <time>2025-07-11T10:23:45.002000+02:00</time>
      </trkpt>
      <trkpt lat="46.19981" lon="-0.1884">
        <ele>97.7</ele>
        <time>2025-07-11T10:23:47.001000+02:00</time>
      </trkpt>
      <trkpt lat="46.19982" lon="-0.18846">
        <ele>97.6</ele>
        <time>2025-07-11T10:23:48.001000+02:00</time>
      </trkpt>
      <trkpt lat="46.19982" lon="-0.18851">
        <ele>97.4</ele>
        <time>2025-07-11T10:23:49.002000+02:00</time>
      </trkpt>
      <trkpt lat="46.19983" lon="-0.18856">
        <ele>97.2</ele>
        <time>2025-07-11T10:23:50.002000+02:00</time>
      </trkpt>
      <trkpt lat="46.19985" lon="-0.18868">
        <ele>97</ele>
        <time>2025-07-11T10:23:52.001000+02:00</time>
      </trkpt>
      <trkpt lat="46.19986" lon="-0.18874">
        <ele>97</ele>
        <time>2025-07-11T10:23:53.001000+02:00</time>
      </trkpt>
      <trkpt lat="46.19987" lon="-0.1888">
        <ele>97</ele>
        <time>2025-07-11T10:23:54.002000+02:00</time>
      </trkpt>
      <trkpt lat="46.19989" lon="-0.18891">
        <ele>96.9</ele>
        <time>2025-07-11T10:23:56.001000+02:00</time>
      </trkpt>
      <trkpt lat="46.19989" lon="-0.18897">
        <ele>96.7</ele>
        <time>2025-07-11T10:23:57.002000+02:00</time>
      </trkpt>
      <trkpt lat="46.19991" lon="-0.18909">
        <ele>96.3</ele>
        <time>2025-07-11T10:23:59.001000+02:00</time>
      </trkpt>
      <trkpt lat="46.19993" lon="-0.18922">
        <ele>96</ele>
        <time>2025-07-11T10:24:01.001000+02:00</time>
      </trkpt>
      <trkpt lat="46.19996" lon="-0.18934">
        <ele>96</ele>
        <time>2025-07-11T10:24:03.001000+02:00</time>
      </trkpt>
      <trkpt lat="46.19997" lon="-0.1894">
        <ele>96</ele>
        <time>2025-07-11T10:24:04.001000+02:00</time>
      </trkpt>
      <trkpt lat="46.19998" lon="-0.18946">
        <ele>95.9</ele>
        <time>2025-07-11T10:24:05.001000+02:00</time>
      </trkpt>
      <trkpt lat="46.19999" lon="-0.18953">
        <ele>95.7</ele>
        <time>2025-07-11T10:24:06.001000+02:00</time>
      </trkpt>
      <trkpt lat="46.2" lon="-0.1896">
        <ele>95.4</ele>
        <time>2025-07-11T10:24:07.002000+02:00</time>
      </trkpt>
      <trkpt lat="46.20002" lon="-0.18967">
        <ele>95.1</ele>
        <time>2025-07-11T10:24:08.002000+02:00</time>
      </trkpt>
      <trkpt lat="46.20005" lon="-0.18982">
        <ele>94.5</ele>
        <time>2025-07-11T10:24:10+02:00</time>
      </trkpt>
      <trkpt lat="46.20006" lon="-0.18989">
        <ele>94.2</ele>
        <time>2025-07-11T10:24:11+02:00</time>
      </trkpt>
      <trkpt lat="46.20008" lon="-0.18997">
        <ele>93.8</ele>
        <time>2025-07-11T10:24:12.003000+02:00</time>
      </trkpt>
      <trkpt lat="46.20011" lon="-0.19013">
        <ele>93.1</ele>
        <time>2025-07-11T10:24:14.004000+02:00</time>
      </trkpt>
      <trkpt lat="46.20013" lon="-0.19029">
        <ele>92.5</ele>
        <time>2025-07-11T10:24:16.001000+02:00</time>
      </trkpt>
      <trkpt lat="46.20015" lon="-0.19036">
        <ele>92.2</ele>
        <time>2025-07-11T10:24:17.001000+02:00</time>
      </trkpt>
      <trkpt lat="46.20015" lon="-0.19043">
        <ele>91.9</ele>
        <time>2025-07-11T10:24:18.001000+02:00</time>
      </trkpt>
      <trkpt lat="46.20016" lon="-0.19049">
        <ele>91.7</ele>
        <time>2025-07-11T10:24:19.002000+02:00</time>
      </trkpt>
      <trkpt lat="46.20018" lon="-0.19062">
        <ele>91.3</ele>
        <time>2025-07-11T10:24:21.002000+02:00</time>
      </trkpt>
      <trkpt lat="46.2002" lon="-0.19073">
        <ele>91.1</ele>
        <time>2025-07-11T10:24:23+02:00</time>
      </trkpt>
      <trkpt lat="46.20021" lon="-0.19078">
        <ele>91</ele>
        <time>2025-07-11T10:24:24.001000+02:00</time>
      </trkpt>
      <trkpt lat="46.20022" lon="-0.19083">
        <ele>91</ele>
        <time>2025-07-11T10:24:25.001000+02:00</time>
      </trkpt>
      <trkpt lat="46.20024" lon="-0.19092">
        <ele>90.7</ele>
        <time>2025-07-11T10:24:27.003000+02:00</time>
      </trkpt>
      <trkpt lat="46.20026" lon="-0.191">
        <ele>90.4</ele>
        <time>2025-07-11T10:24:29.001000+02:00</time>
      </trkpt>
      <trkpt lat="46.20028" lon="-0.19106">
        <ele>90.2</ele>
        <time>2025-07-11T10:24:31+02:00</time>
      </trkpt>
      <trkpt lat="46.2003" lon="-0.19109">
        <ele>90</ele>
        <time>2025-07-11T10:24:32.001000+02:00</time>
      </trkpt>
      <trkpt lat="46.20033" lon="-0.19111">
        <ele>89.8</ele>
        <time>2025-07-11T10:24:33.001000+02:00</time>
      </trkpt>
      <trkpt lat="46.20036" lon="-0.19113">
        <ele>89.6</ele>
        <time>2025-07-11T10:24:34.001000+02:00</time>
      </trkpt>
      <trkpt lat="46.20039" lon="-0.19114">
        <ele>89.4</ele>
        <time>2025-07-11T10:24:35.003000+02:00</time>
      </trkpt>
      <trkpt lat="46.20045" lon="-0.19113">
        <ele>89.2</ele>
        <time>2025-07-11T10:24:37.001000+02:00</time>
      </trkpt>
      <trkpt lat="46.20049" lon="-0.19112">
        <ele>89.2</ele>
        <time>2025-07-11T10:24:38.001000+02:00</time>
      </trkpt>
      <trkpt lat="46.20052" lon="-0.19109">
        <ele>89.2</ele>
        <time>2025-07-11T10:24:39.001000+02:00</time>
      </trkpt>
      <trkpt lat="46.20055" lon="-0.19106">
        <ele>89.2</ele>
        <time>2025-07-11T10:24:40.001000+02:00</time>
      </trkpt>
      <trkpt lat="46.20057" lon="-0.19104">
        <ele>89.2</ele>
        <time>2025-07-11T10:24:41.001000+02:00</time>
      </trkpt>
      <trkpt lat="46.2006" lon="-0.19102">
        <ele>89.2</ele>
        <time>2025-07-11T10:24:42.001000+02:00</time>
      </trkpt>
      <trkpt lat="46.20065" lon="-0.19098">
        <ele>89.1</ele>
        <time>2025-07-11T10:24:44+02:00</time>
      </trkpt>
      <trkpt lat="46.20069" lon="-0.19097">
        <ele>89</ele>
        <time>2025-07-11T10:24:45.001000+02:00</time>
      </trkpt>
      <trkpt lat="46.20075" lon="-0.19095">
        <ele>88.9</ele>
        <time>2025-07-11T10:24:47.001000+02:00</time>
      </trkpt>
      <trkpt lat="46.20082" lon="-0.19092">
        <ele>88.7</ele>
        <time>2025-07-11T10:24:49.001000+02:00</time>
      </trkpt>
      <trkpt lat="46.20085" lon="-0.19089">
        <ele>88.6</ele>
        <time>2025-07-11T10:24:50.001000+02:00</time>
      </trkpt>
      <trkpt lat="46.20088" lon="-0.19087">
        <ele>88.5</ele>
        <time>2025-07-11T10:24:51.002000+02:00</time>
      </trkpt>
      <trkpt lat="46.20092" lon="-0.19083">
        <ele>88.4</ele>
        <time>2025-07-11T10:24:52.003000+02:00</time>
      </trkpt>
      <trkpt lat="46.20097" lon="-0.19078">
        <ele>88.1</ele>
        <time>2025-07-11T10:24:54+02:00</time>
      </trkpt>
      <trkpt lat="46.20101" lon="-0.19075">
        <ele>87.9</ele>
        <time>2025-07-11T10:24:55.003000+02:00</time>
      </trkpt>
      <trkpt lat="46.20104" lon="-0.19073">
        <ele>87.6</ele>
        <time>2025-07-11T10:24:56.003000+02:00</time>
      </trkpt>
      <trkpt lat="46.20111" lon="-0.19067">
        <ele>87.1</ele>
        <time>2025-07-11T10:24:58.003000+02:00</time>
      </trkpt>
      <trkpt lat="46.20116" lon="-0.1906">
        <ele>85.9</ele>
        <time>2025-07-11T10:25:00+02:00</time>
      </trkpt>
      <trkpt lat="46.20118" lon="-0.19056">
        <ele>85.4</ele>
        <time>2025-07-11T10:25:01.001000+02:00</time>
      </trkpt>
      <trkpt lat="46.20123" lon="-0.19048">
        <ele>84.7</ele>
        <time>2025-07-11T10:25:03.001000+02:00</time>
      </trkpt>
      <trkpt lat="46.20124" lon="-0.19044">
        <ele>84.4</ele>
        <time>2025-07-11T10:25:04.002000+02:00</time>
      </trkpt>
      <trkpt lat="46.20128" lon="-0.19035">
        <ele>83.7</ele>
        <time>2025-07-11T10:25:06+02:00</time>
      </trkpt>
      <trkpt lat="46.20129" lon="-0.1903">
        <ele>83.4</ele>
        <time>2025-07-11T10:25:07.001000+02:00</time>
      </trkpt>
      <trkpt lat="46.20131" lon="-0.19026">
        <ele>83.1</ele>
        <time>2025-07-11T10:25:08.001000+02:00</time>
      </trkpt>
      <trkpt lat="46.20132" lon="-0.19022">
        <ele>82.8</ele>
        <time>2025-07-11T10:25:09.001000+02:00</time>
      </trkpt>
      <trkpt lat="46.20133" lon="-0.19016">
        <ele>82.5</ele>
        <time>2025-07-11T10:25:11.001000+02:00</time>
      </trkpt>
      <trkpt lat="46.20134" lon="-0.19013">
        <ele>82.5</ele>
        <time>2025-07-11T10:25:12.001000+02:00</time>
      </trkpt>
      <trkpt lat="46.20134" lon="-0.19009">
        <ele>82.3</ele>
        <time>2025-07-11T10:25:13.001000+02:00</time>
      </trkpt>
      <trkpt lat="46.20135" lon="-0.19005">
        <ele>82</ele>
        <time>2025-07-11T10:25:14.001000+02:00</time>
      </trkpt>
      <trkpt lat="46.20136" lon="-0.19">
        <ele>81.7</ele>
        <time>2025-07-11T10:25:15.001000+02:00</time>
      </trkpt>
      <trkpt lat="46.20137" lon="-0.18996">
        <ele>81.6</ele>
        <time>2025-07-11T10:25:16.002000+02:00</time>
      </trkpt>
      <trkpt lat="46.20137" lon="-0.18987">
        <ele>81.9</ele>
        <time>2025-07-11T10:25:18.001000+02:00</time>
      </trkpt>
      <trkpt lat="46.20138" lon="-0.18982">
        <ele>81.9</ele>
        <time>2025-07-11T10:25:19.004000+02:00</time>
      </trkpt>
      <trkpt lat="46.20139" lon="-0.18973">
        <ele>82.1</ele>
        <time>2025-07-11T10:25:21.001000+02:00</time>
      </trkpt>
      <trkpt lat="46.20139" lon="-0.18968">
        <ele>82</ele>
        <time>2025-07-11T10:25:22.001000+02:00</time>
      </trkpt>
      <trkpt lat="46.20139" lon="-0.18964">
        <ele>82</ele>
        <time>2025-07-11T10:25:23.001000+02:00</time>
      </trkpt>
      <trkpt lat="46.20139" lon="-0.1896">
        <ele>81.9</ele>
        <time>2025-07-11T10:25:24.001000+02:00</time>
      </trkpt>
      <trkpt lat="46.2014" lon="-0.18956">
        <ele>81.8</ele>
        <time>2025-07-11T10:25:25.001000+02:00</time>
      </trkpt>
      <trkpt lat="46.2014" lon="-0.18952">
        <ele>81.8</ele>
        <time>2025-07-11T10:25:26.002000+02:00</time>
      </trkpt>
      <trkpt lat="46.20138" lon="-0.18945">
        <ele>82.2</ele>
        <time>2025-07-11T10:25:28.001000+02:00</time>
      </trkpt>
      <trkpt lat="46.20138" lon="-0.1894">
        <ele>82.1</ele>
        <time>2025-07-11T10:25:29.001000+02:00</time>
      </trkpt>
      <trkpt lat="46.20138" lon="-0.18935">
        <ele>81.8</ele>
        <time>2025-07-11T10:25:30.002000+02:00</time>
      </trkpt>
      <trkpt lat="46.20139" lon="-0.18927">
        <ele>81.4</ele>
        <time>2025-07-11T10:25:32.002000+02:00</time>
      </trkpt>
      <trkpt lat="46.2014" lon="-0.18918">
        <ele>80.8</ele>
        <time>2025-07-11T10:25:34+02:00</time>
      </trkpt>
      <trkpt lat="46.20142" lon="-0.18913">
        <ele>80.4</ele>
        <time>2025-07-11T10:25:35.002000+02:00</time>
      </trkpt>
      <trkpt lat="46.20142" lon="-0.18904">
        <ele>80.3</ele>
        <time>2025-07-11T10:25:37+02:00</time>
      </trkpt>
      <trkpt lat="46.20142" lon="-0.18899">
        <ele>80.4</ele>
        <time>2025-07-11T10:25:38.001000+02:00</time>
      </trkpt>
      <trkpt lat="46.20141" lon="-0.18894">
        <ele>80.5</ele>
        <time>2025-07-11T10:25:39.002000+02:00</time>
      </trkpt>
      <trkpt lat="46.2014" lon="-0.18884">
        <ele>80.8</ele>
        <time>2025-07-11T10:25:41.002000+02:00</time>
      </trkpt>
      <trkpt lat="46.20139" lon="-0.18878">
        <ele>81.1</ele>
        <time>2025-07-11T10:25:43.001000+02:00</time>
      </trkpt>
      <trkpt lat="46.20139" lon="-0.18875">
        <ele>81.1</ele>
        <time>2025-07-11T10:25:44.001000+02:00</time>
      </trkpt>
      <trkpt lat="46.20138" lon="-0.18872">
        <ele>81.3</ele>
        <time>2025-07-11T10:25:45.002000+02:00</time>
      </trkpt>
      <trkpt lat="46.20139" lon="-0.18864">
        <ele>81.1</ele>
        <time>2025-07-11T10:25:47.001000+02:00</time>
      </trkpt>
      <trkpt lat="46.20138" lon="-0.18861">
        <ele>81.2</ele>
        <time>2025-07-11T10:25:48.002000+02:00</time>
      </trkpt>
      <trkpt lat="46.20138" lon="-0.18858">
        <ele>81.3</ele>
        <time>2025-07-11T10:25:49.002000+02:00</time>
      </trkpt>
      <trkpt lat="46.20139" lon="-0.18854">
        <ele>81.1</ele>
        <time>2025-07-11T10:25:50.004000+02:00</time>
      </trkpt>
      <trkpt lat="46.20139" lon="-0.1885">
        <ele>81</ele>
        <time>2025-07-11T10:25:51.004000+02:00</time>
      </trkpt>
      <trkpt lat="46.2014" lon="-0.18841">
        <ele>80.8</ele>
        <time>2025-07-11T10:25:53+02:00</time>
      </trkpt>
      <trkpt lat="46.20141" lon="-0.18837">
        <ele>80.6</ele>
        <time>2025-07-11T10:25:54.002000+02:00</time>
      </trkpt>
      <trkpt lat="46.20141" lon="-0.18834">
        <ele>80.5</ele>
        <time>2025-07-11T10:25:55.002000+02:00</time>
      </trkpt>
      <trkpt lat="46.20142" lon="-0.18827">
        <ele>80.3</ele>
        <time>2025-07-11T10:25:57.002000+02:00</time>
      </trkpt>
      <trkpt lat="46.20143" lon="-0.18819">
        <ele>80.2</ele>
        <time>2025-07-11T10:25:59.003000+02:00</time>
      </trkpt>
      <trkpt lat="46.20142" lon="-0.18812">
        <ele>80.2</ele>
        <time>2025-07-11T10:26:01.002000+02:00</time>
      </trkpt>
      <trkpt lat="46.20142" lon="-0.18804">
        <ele>80.2</ele>
        <time>2025-07-11T10:26:03.003000+02:00</time>
      </trkpt>
      <trkpt lat="46.20143" lon="-0.18794">
        <ele>80.2</ele>
        <time>2025-07-11T10:26:05+02:00</time>
      </trkpt>
      <trkpt lat="46.20143" lon="-0.18788">
        <ele>80</ele>
        <time>2025-07-11T10:26:06.002000+02:00</time>
      </trkpt>
      <trkpt lat="46.20142" lon="-0.18781">
        <ele>80.3</ele>
        <time>2025-07-11T10:26:08+02:00</time>
      </trkpt>
      <trkpt lat="46.20142" lon="-0.18777">
        <ele>80.4</ele>
        <time>2025-07-11T10:26:09.001000+02:00</time>
      </trkpt>
      <trkpt lat="46.2014" lon="-0.18769">
        <ele>80.7</ele>
        <time>2025-07-11T10:26:11+02:00</time>
      </trkpt>
      <trkpt lat="46.2014" lon="-0.18765">
        <ele>80.8</ele>
        <time>2025-07-11T10:26:12.001000+02:00</time>
      </trkpt>
      <trkpt lat="46.20139" lon="-0.18757">
        <ele>81.1</ele>
        <time>2025-07-11T10:26:14.001000+02:00</time>
      </trkpt>
      <trkpt lat="46.20139" lon="-0.18753">
        <ele>81</ele>
        <time>2025-07-11T10:26:15.001000+02:00</time>
      </trkpt>
      <trkpt lat="46.2014" lon="-0.18749">
        <ele>80.9</ele>
        <time>2025-07-11T10:26:16.001000+02:00</time>
      </trkpt>
      <trkpt lat="46.2014" lon="-0.18745">
        <ele>81</ele>
        <time>2025-07-11T10:26:17.001000+02:00</time>
      </trkpt>
      <trkpt lat="46.20139" lon="-0.18737">
        <ele>81.5</ele>
        <time>2025-07-11T10:26:19.001000+02:00</time>
      </trkpt>
      <trkpt lat="46.20137" lon="-0.18732">
        <ele>82.4</ele>
        <time>2025-07-11T10:26:21.002000+02:00</time>
      </trkpt>
      <trkpt lat="46.20136" lon="-0.18729">
        <ele>83.1</ele>
        <time>2025-07-11T10:26:22.002000+02:00</time>
      </trkpt>
      <trkpt lat="46.20132" lon="-0.18722">
        <ele>84.6</ele>
        <time>2025-07-11T10:26:24.001000+02:00</time>
      </trkpt>
      <trkpt lat="46.20132" lon="-0.18714">
        <ele>84.9</ele>
        <time>2025-07-11T10:26:26+02:00</time>
      </trkpt>
      <trkpt lat="46.20131" lon="-0.1871">
        <ele>85</ele>
        <time>2025-07-11T10:26:27.002000+02:00</time>
      </trkpt>
      <trkpt lat="46.20137" lon="-0.18699">
        <ele>82.7</ele>
        <time>2025-07-11T10:26:28.999000+02:00</time>
      </trkpt>
      <trkpt lat="46.20139" lon="-0.18695">
        <ele>81.9</ele>
        <time>2025-07-11T10:26:30.001000+02:00</time>
      </trkpt>
      <trkpt lat="46.2014" lon="-0.18691">
        <ele>81.7</ele>
        <time>2025-07-11T10:26:31.001000+02:00</time>
      </trkpt>
      <trkpt lat="46.20141" lon="-0.18688">
        <ele>81.5</ele>
        <time>2025-07-11T10:26:32.001000+02:00</time>
      </trkpt>
      <trkpt lat="46.20142" lon="-0.18686">
        <ele>81.4</ele>
        <time>2025-07-11T10:26:33.002000+02:00</time>
      </trkpt>
      <trkpt lat="46.20142" lon="-0.1868">
        <ele>81.4</ele>
        <time>2025-07-11T10:26:35.001000+02:00</time>
      </trkpt>
      <trkpt lat="46.20141" lon="-0.18677">
        <ele>81.6</ele>
        <time>2025-07-11T10:26:36.001000+02:00</time>
      </trkpt>
      <trkpt lat="46.2014" lon="-0.18673">
        <ele>81.8</ele>
        <time>2025-07-11T10:26:37.001000+02:00</time>
      </trkpt>
      <trkpt lat="46.20139" lon="-0.1867">
        <ele>81.9</ele>
        <time>2025-07-11T10:26:38.001000+02:00</time>
      </trkpt>
      <trkpt lat="46.20139" lon="-0.18666">
        <ele>82.2</ele>
        <time>2025-07-11T10:26:39.002000+02:00</time>
      </trkpt>
      <trkpt lat="46.20139" lon="-0.18655">
        <ele>82.4</ele>
        <time>2025-07-11T10:26:41.002000+02:00</time>
      </trkpt>
      <trkpt lat="46.20138" lon="-0.18647">
        <ele>83.3</ele>
        <time>2025-07-11T10:26:43.002000+02:00</time>
      </trkpt>
      <trkpt lat="46.20137" lon="-0.18638">
        <ele>83.6</ele>
        <time>2025-07-11T10:26:45.003000+02:00</time>
      </trkpt>
      <trkpt lat="46.20139" lon="-0.18631">
        <ele>83.4</ele>
        <time>2025-07-11T10:26:47.001000+02:00</time>
      </trkpt>
      <trkpt lat="46.20139" lon="-0.18627">
        <ele>83.4</ele>
        <time>2025-07-11T10:26:48.001000+02:00</time>
      </trkpt>
      <trkpt lat="46.2014" lon="-0.18618">
        <ele>83.5</ele>
        <time>2025-07-11T10:26:50+02:00</time>
      </trkpt>
      <trkpt lat="46.20141" lon="-0.18614">
        <ele>83.6</ele>
        <time>2025-07-11T10:26:51.001000+02:00</time>
      </trkpt>
      <trkpt lat="46.20141" lon="-0.18609">
        <ele>83.6</ele>
        <time>2025-07-11T10:26:52.001000+02:00</time>
      </trkpt>
      <trkpt lat="46.20141" lon="-0.18604">
        <ele>83.6</ele>
        <time>2025-07-11T10:26:53.001000+02:00</time>
      </trkpt>
      <trkpt lat="46.20141" lon="-0.18599">
        <ele>83.7</ele>
        <time>2025-07-11T10:26:54.003000+02:00</time>
      </trkpt>
      <trkpt lat="46.20142" lon="-0.18588">
        <ele>83.5</ele>
        <time>2025-07-11T10:26:56.005000+02:00</time>
      </trkpt>
      <trkpt lat="46.20145" lon="-0.18573">
        <ele>83.3</ele>
        <time>2025-07-11T10:26:58.003000+02:00</time>
      </trkpt>
      <trkpt lat="46.20148" lon="-0.1856">
        <ele>83</ele>
        <time>2025-07-11T10:26:59.999000+02:00</time>
      </trkpt>
      <trkpt lat="46.20149" lon="-0.18554">
        <ele>83</ele>
        <time>2025-07-11T10:27:01+02:00</time>
      </trkpt>
      <trkpt lat="46.2015" lon="-0.18549">
        <ele>83.1</ele>
        <time>2025-07-11T10:27:02.001000+02:00</time>
      </trkpt>
      <trkpt lat="46.20151" lon="-0.18544">
        <ele>83.3</ele>
        <time>2025-07-11T10:27:03.001000+02:00</time>
      </trkpt>
      <trkpt lat="46.20153" lon="-0.18536">
        <ele>83.5</ele>
        <time>2025-07-11T10:27:05+02:00</time>
      </trkpt>
      <trkpt lat="46.20154" lon="-0.18532">
        <ele>83.5</ele>
        <time>2025-07-11T10:27:06.001000+02:00</time>
      </trkpt>
      <trkpt lat="46.20154" lon="-0.18529">
        <ele>83.7</ele>
        <time>2025-07-11T10:27:07.001000+02:00</time>
      </trkpt>
      <trkpt lat="46.20155" lon="-0.18525">
        <ele>83.7</ele>
        <time>2025-07-11T10:27:08.001000+02:00</time>
      </trkpt>
      <trkpt lat="46.20156" lon="-0.18519">
        <ele>84.1</ele>
        <time>2025-07-11T10:27:10+02:00</time>
      </trkpt>
      <trkpt lat="46.20157" lon="-0.18515">
        <ele>84.1</ele>
        <time>2025-07-11T10:27:11+02:00</time>
      </trkpt>
      <trkpt lat="46.20157" lon="-0.18512">
        <ele>84.2</ele>
        <time>2025-07-11T10:27:12+02:00</time>
      </trkpt>
      <trkpt lat="46.20158" lon="-0.18509">
        <ele>84.2</ele>
        <time>2025-07-11T10:27:13+02:00</time>
      </trkpt>
      <trkpt lat="46.20159" lon="-0.18505">
        <ele>84.1</ele>
        <time>2025-07-11T10:27:14.001000+02:00</time>
      </trkpt>
      <trkpt lat="46.20159" lon="-0.18499">
        <ele>84.6</ele>
        <time>2025-07-11T10:27:16+02:00</time>
      </trkpt>
      <trkpt lat="46.20159" lon="-0.18497">
        <ele>85.2</ele>
        <time>2025-07-11T10:27:17.002000+02:00</time>
      </trkpt>
      <trkpt lat="46.20159" lon="-0.18493">
        <ele>85.9</ele>
        <time>2025-07-11T10:27:19.001000+02:00</time>
      </trkpt>
      <trkpt lat="46.2016" lon="-0.18491">
        <ele>86.1</ele>
        <time>2025-07-11T10:27:20.005000+02:00</time>
      </trkpt>
      <trkpt lat="46.20162" lon="-0.18491">
        <ele>85.7</ele>
        <time>2025-07-11T10:27:22+02:00</time>
      </trkpt>
      <trkpt lat="46.20165" lon="-0.1849">
        <ele>85.1</ele>
        <time>2025-07-11T10:27:23+02:00</time>
      </trkpt>
      <trkpt lat="46.20168" lon="-0.1849">
        <ele>84.4</ele>
        <time>2025-07-11T10:27:24.001000+02:00</time>
      </trkpt>
      <trkpt lat="46.20172" lon="-0.18488">
        <ele>84</ele>
        <time>2025-07-11T10:27:25.002000+02:00</time>
      </trkpt>
      <trkpt lat="46.20177" lon="-0.18487">
        <ele>83.4</ele>
        <time>2025-07-11T10:27:26.002000+02:00</time>
      </trkpt>
      <trkpt lat="46.20182" lon="-0.18487">
        <ele>82.4</ele>
        <time>2025-07-11T10:27:27.002000+02:00</time>
      </trkpt>
      <trkpt lat="46.20196" lon="-0.18491">
        <ele>79.6</ele>
        <time>2025-07-11T10:27:29.001000+02:00</time>
      </trkpt>
      <trkpt lat="46.20208" lon="-0.18501">
        <ele>78.5</ele>
        <time>2025-07-11T10:27:31+02:00</time>
      </trkpt>
      <trkpt lat="46.20221" lon="-0.18515">
        <ele>78</ele>
        <time>2025-07-11T10:27:33.003000+02:00</time>
      </trkpt>
      <trkpt lat="46.20231" lon="-0.1853">
        <ele>77.2</ele>
        <time>2025-07-11T10:27:35+02:00</time>
      </trkpt>
      <trkpt lat="46.20237" lon="-0.18537">
        <ele>76.6</ele>
        <time>2025-07-11T10:27:36.001000+02:00</time>
      </trkpt>
      <trkpt lat="46.20247" lon="-0.18549">
        <ele>76</ele>
        <time>2025-07-11T10:27:38.001000+02:00</time>
      </trkpt>
      <trkpt lat="46.20252" lon="-0.18554">
        <ele>75.9</ele>
        <time>2025-07-11T10:27:39.003000+02:00</time>
      </trkpt>
      <trkpt lat="46.20262" lon="-0.18558">
        <ele>75.5</ele>
        <time>2025-07-11T10:27:41.002000+02:00</time>
      </trkpt>
      <trkpt lat="46.20267" lon="-0.18556">
        <ele>75.4</ele>
        <time>2025-07-11T10:27:42.003000+02:00</time>
      </trkpt>
      <trkpt lat="46.20276" lon="-0.18548">
        <ele>75.3</ele>
        <time>2025-07-11T10:27:44+02:00</time>
      </trkpt>
      <trkpt lat="46.20281" lon="-0.18544">
        <ele>75.4</ele>
        <time>2025-07-11T10:27:45.001000+02:00</time>
      </trkpt>
      <trkpt lat="46.20285" lon="-0.1854">
        <ele>75.4</ele>
        <time>2025-07-11T10:27:46.002000+02:00</time>
      </trkpt>
      <trkpt lat="46.20292" lon="-0.1853">
        <ele>75.5</ele>
        <time>2025-07-11T10:27:48.004000+02:00</time>
      </trkpt>
      <trkpt lat="46.20298" lon="-0.18522">
        <ele>75.4</ele>
        <time>2025-07-11T10:27:50.003000+02:00</time>
      </trkpt>
      <trkpt lat="46.20301" lon="-0.18519">
        <ele>75.4</ele>
        <time>2025-07-11T10:27:51.003000+02:00</time>
      </trkpt>
      <trkpt lat="46.20307" lon="-0.18513">
        <ele>75.5</ele>
        <time>2025-07-11T10:27:53.001000+02:00</time>
      </trkpt>
      <trkpt lat="46.2031" lon="-0.18511">
        <ele>75.6</ele>
        <time>2025-07-11T10:27:54.001000+02:00</time>
      </trkpt>
      <trkpt lat="46.20312" lon="-0.18509">
        <ele>75.7</ele>
        <time>2025-07-11T10:27:55.001000+02:00</time>
      </trkpt>
      <trkpt lat="46.20315" lon="-0.18506">
        <ele>75.8</ele>
        <time>2025-07-11T10:27:56.001000+02:00</time>
      </trkpt>
      <trkpt lat="46.20316" lon="-0.18503">
        <ele>75.9</ele>
        <time>2025-07-11T10:27:57.001000+02:00</time>
      </trkpt>
      <trkpt lat="46.20319" lon="-0.185">
        <ele>76</ele>
        <time>2025-07-11T10:27:58.001000+02:00</time>
      </trkpt>
      <trkpt lat="46.20321" lon="-0.18498">
        <ele>76.1</ele>
        <time>2025-07-11T10:27:59.001000+02:00</time>
      </trkpt>
      <trkpt lat="46.20323" lon="-0.18495">
        <ele>76.2</ele>
        <time>2025-07-11T10:28:00.001000+02:00</time>
      </trkpt>
      <trkpt lat="46.20325" lon="-0.18493">
        <ele>76.3</ele>
        <time>2025-07-11T10:28:01.001000+02:00</time>
      </trkpt>
      <trkpt lat="46.2033" lon="-0.18487">
        <ele>76.5</ele>
        <time>2025-07-11T10:28:03+02:00</time>
      </trkpt>
      <trkpt lat="46.20332" lon="-0.18485">
        <ele>76.6</ele>
        <time>2025-07-11T10:28:04+02:00</time>
      </trkpt>
      <trkpt lat="46.20334" lon="-0.18482">
        <ele>76.6</ele>
        <time>2025-07-11T10:28:05.003000+02:00</time>
      </trkpt>
      <trkpt lat="46.20338" lon="-0.18478">
        <ele>76.8</ele>
        <time>2025-07-11T10:28:07.002000+02:00</time>
      </trkpt>
      <trkpt lat="46.2034" lon="-0.18475">
        <ele>76.9</ele>
        <time>2025-07-11T10:28:08.003000+02:00</time>
      </trkpt>
      <trkpt lat="46.20342" lon="-0.18473">
        <ele>77</ele>
        <time>2025-07-11T10:28:09.003000+02:00</time>
      </trkpt>
      <trkpt lat="46.20345" lon="-0.1847">
        <ele>77.1</ele>
        <time>2025-07-11T10:28:11.001000+02:00</time>
      </trkpt>
      <trkpt lat="46.20347" lon="-0.18468">
        <ele>77.2</ele>
        <time>2025-07-11T10:28:13.001000+02:00</time>
      </trkpt>
      <trkpt lat="46.20347" lon="-0.18468">
        <ele>77.2</ele>
        <time>2025-07-11T10:28:14.001000+02:00</time>
      </trkpt>
      <trkpt lat="46.20348" lon="-0.18468">
        <ele>77.2</ele>
        <time>2025-07-11T10:28:15.002000+02:00</time>
      </trkpt>
      <trkpt lat="46.20348" lon="-0.18468">
        <ele>77.2</ele>
        <time>2025-07-11T10:28:17.001000+02:00</time>
      </trkpt>
      <trkpt lat="46.20349" lon="-0.18464">
        <ele>77.5</ele>
        <time>2025-07-11T10:29:24.001000+02:00</time>
      </trkpt>
      <trkpt lat="46.20352" lon="-0.1846">
        <ele>77.8</ele>
        <time>2025-07-11T10:29:26.001000+02:00</time>
      </trkpt>
      <trkpt lat="46.20354" lon="-0.18458">
        <ele>77.9</ele>
        <time>2025-07-11T10:29:27.003000+02:00</time>
      </trkpt>
      <trkpt lat="46.20358" lon="-0.18454">
        <ele>78.2</ele>
        <time>2025-07-11T10:29:28.999000+02:00</time>
      </trkpt>
      <trkpt lat="46.2036" lon="-0.18452">
        <ele>78.4</ele>
        <time>2025-07-11T10:29:30+02:00</time>
      </trkpt>
      <trkpt lat="46.20364" lon="-0.18448">
        <ele>78.8</ele>
        <time>2025-07-11T10:29:32.001000+02:00</time>
      </trkpt>
      <trkpt lat="46.20368" lon="-0.18443">
        <ele>79.1</ele>
        <time>2025-07-11T10:29:34+02:00</time>
      </trkpt>
      <trkpt lat="46.2037" lon="-0.18441">
        <ele>79.2</ele>
        <time>2025-07-11T10:29:35.001000+02:00</time>
      </trkpt>
      <trkpt lat="46.20374" lon="-0.18436">
        <ele>79.4</ele>
        <time>2025-07-11T10:29:37+02:00</time>
      </trkpt>
      <trkpt lat="46.20378" lon="-0.18432">
        <ele>79.7</ele>
        <time>2025-07-11T10:29:39.001000+02:00</time>
      </trkpt>
      <trkpt lat="46.20383" lon="-0.18427">
        <ele>80.1</ele>
        <time>2025-07-11T10:29:41+02:00</time>
      </trkpt>
      <trkpt lat="46.20385" lon="-0.18425">
        <ele>80.3</ele>
        <time>2025-07-11T10:29:42.001000+02:00</time>
      </trkpt>
      <trkpt lat="46.20389" lon="-0.1842">
        <ele>80.8</ele>
        <time>2025-07-11T10:29:44.003000+02:00</time>
      </trkpt>
      <trkpt lat="46.20393" lon="-0.18415">
        <ele>80.9</ele>
        <time>2025-07-11T10:29:46.001000+02:00</time>
      </trkpt>
      <trkpt lat="46.20394" lon="-0.18413">
        <ele>81</ele>
        <time>2025-07-11T10:29:47.001000+02:00</time>
      </trkpt>
      <trkpt lat="46.20396" lon="-0.18411">
        <ele>81.1</ele>
        <time>2025-07-11T10:29:48.001000+02:00</time>
      </trkpt>
      <trkpt lat="46.20398" lon="-0.18409">
        <ele>81.1</ele>
        <time>2025-07-11T10:29:49.001000+02:00</time>
      </trkpt>
      <trkpt lat="46.20401" lon="-0.18407">
        <ele>81.2</ele>
        <time>2025-07-11T10:29:50.002000+02:00</time>
      </trkpt>
      <trkpt lat="46.20405" lon="-0.18402">
        <ele>81.6</ele>
        <time>2025-07-11T10:29:52+02:00</time>
      </trkpt>
      <trkpt lat="46.20407" lon="-0.18399">
        <ele>81.8</ele>
        <time>2025-07-11T10:29:53+02:00</time>
      </trkpt>
      <trkpt lat="46.20409" lon="-0.18397">
        <ele>82</ele>
        <time>2025-07-11T10:29:54.001000+02:00</time>
      </trkpt>
      <trkpt lat="46.20411" lon="-0.18395">
        <ele>82.3</ele>
        <time>2025-07-11T10:29:55.002000+02:00</time>
      </trkpt>
      <trkpt lat="46.20413" lon="-0.18392">
        <ele>82.6</ele>
        <time>2025-07-11T10:29:57.001000+02:00</time>
      </trkpt>
      <trkpt lat="46.20414" lon="-0.18391">
        <ele>82.7</ele>
        <time>2025-07-11T10:29:58.001000+02:00</time>
      </trkpt>
      <trkpt lat="46.20415" lon="-0.1839">
        <ele>82.8</ele>
        <time>2025-07-11T10:30:00+02:00</time>
      </trkpt>
      <trkpt lat="46.20415" lon="-0.1839">
        <ele>82.9</ele>
        <time>2025-07-11T10:30:01.002000+02:00</time>
      </trkpt>
      <trkpt lat="46.20419" lon="-0.18388">
        <ele>83.1</ele>
        <time>2025-07-11T10:30:04.001000+02:00</time>
      </trkpt>
      <trkpt lat="46.2042" lon="-0.18387">
        <ele>83.2</ele>
        <time>2025-07-11T10:30:05.001000+02:00</time>
      </trkpt>
      <trkpt lat="46.20422" lon="-0.18386">
        <ele>83.2</ele>
        <time>2025-07-11T10:30:06.001000+02:00</time>
      </trkpt>
      <trkpt lat="46.20424" lon="-0.18385">
        <ele>83.3</ele>
        <time>2025-07-11T10:30:07.001000+02:00</time>
      </trkpt>
      <trkpt lat="46.20426" lon="-0.18384">
        <ele>83.4</ele>
        <time>2025-07-11T10:30:08.003000+02:00</time>
      </trkpt>
      <trkpt lat="46.20431" lon="-0.18381">
        <ele>83.6</ele>
        <time>2025-07-11T10:30:10+02:00</time>
      </trkpt>
      <trkpt lat="46.20433" lon="-0.18379">
        <ele>83.7</ele>
        <time>2025-07-11T10:30:11.001000+02:00</time>
      </trkpt>
      <trkpt lat="46.20435" lon="-0.18377">
        <ele>83.9</ele>
        <time>2025-07-11T10:30:12.001000+02:00</time>
      </trkpt>
      <trkpt lat="46.20436" lon="-0.18374">
        <ele>84</ele>
        <time>2025-07-11T10:30:13.001000+02:00</time>
      </trkpt>
      <trkpt lat="46.20439" lon="-0.18368">
        <ele>84.5</ele>
        <time>2025-07-11T10:30:15.001000+02:00</time>
      </trkpt>
      <trkpt lat="46.20441" lon="-0.18361">
        <ele>85</ele>
        <time>2025-07-11T10:30:17+02:00</time>
      </trkpt>
      <trkpt lat="46.20441" lon="-0.18357">
        <ele>85.1</ele>
        <time>2025-07-11T10:30:18+02:00</time>
      </trkpt>
      <trkpt lat="46.20442" lon="-0.18354">
        <ele>85.2</ele>
        <time>2025-07-11T10:30:19+02:00</time>
      </trkpt>
      <trkpt lat="46.20442" lon="-0.18351">
        <ele>85.4</ele>
        <time>2025-07-11T10:30:20+02:00</time>
      </trkpt>
      <trkpt lat="46.20442" lon="-0.18347">
        <ele>85.5</ele>
        <time>2025-07-11T10:30:21.001000+02:00</time>
      </trkpt>
      <trkpt lat="46.20443" lon="-0.18339">
        <ele>85.8</ele>
        <time>2025-07-11T10:30:23+02:00</time>
      </trkpt>
      <trkpt lat="46.20443" lon="-0.18335">
        <ele>85.9</ele>
        <time>2025-07-11T10:30:24+02:00</time>
      </trkpt>
      <trkpt lat="46.20444" lon="-0.18331">
        <ele>86.1</ele>
        <time>2025-07-11T10:30:25+02:00</time>
      </trkpt>
      <trkpt lat="46.20444" lon="-0.18328">
        <ele>86.2</ele>
        <time>2025-07-11T10:30:26.001000+02:00</time>
      </trkpt>
      <trkpt lat="46.20443" lon="-0.18324">
        <ele>86.4</ele>
        <time>2025-07-11T10:30:27.002000+02:00</time>
      </trkpt>
      <trkpt lat="46.20443" lon="-0.18317">
        <ele>86.6</ele>
        <time>2025-07-11T10:30:29.001000+02:00</time>
      </trkpt>
      <trkpt lat="46.20443" lon="-0.1831">
        <ele>86.9</ele>
        <time>2025-07-11T10:30:31.002000+02:00</time>
      </trkpt>
      <trkpt lat="46.20443" lon="-0.18303">
        <ele>87.1</ele>
        <time>2025-07-11T10:30:33.001000+02:00</time>
      </trkpt>
      <trkpt lat="46.20443" lon="-0.18299">
        <ele>87.3</ele>
        <time>2025-07-11T10:30:34.004000+02:00</time>
      </trkpt>
      <trkpt lat="46.20443" lon="-0.18293">
        <ele>87.5</ele>
        <time>2025-07-11T10:30:36.002000+02:00</time>
      </trkpt>
      <trkpt lat="46.20443" lon="-0.18289">
        <ele>87.6</ele>
        <time>2025-07-11T10:30:37.003000+02:00</time>
      </trkpt>
      <trkpt lat="46.20443" lon="-0.18282">
        <ele>87.9</ele>
        <time>2025-07-11T10:30:39.002000+02:00</time>
      </trkpt>
      <trkpt lat="46.20443" lon="-0.18279">
        <ele>88</ele>
        <time>2025-07-11T10:30:40.002000+02:00</time>
      </trkpt>
      <trkpt lat="46.20444" lon="-0.18275">
        <ele>88.1</ele>
        <time>2025-07-11T10:30:41.002000+02:00</time>
      </trkpt>
      <trkpt lat="46.20445" lon="-0.18272">
        <ele>88.2</ele>
        <time>2025-07-11T10:30:42.003000+02:00</time>
      </trkpt>
      <trkpt lat="46.20447" lon="-0.18266">
        <ele>88.2</ele>
        <time>2025-07-11T10:30:44+02:00</time>
      </trkpt>
      <trkpt lat="46.20449" lon="-0.18263">
        <ele>88.3</ele>
        <time>2025-07-11T10:30:45.001000+02:00</time>
      </trkpt>
      <trkpt lat="46.20451" lon="-0.18257">
        <ele>88.3</ele>
        <time>2025-07-11T10:30:47.001000+02:00</time>
      </trkpt>
      <trkpt lat="46.20455" lon="-0.1825">
        <ele>88.3</ele>
        <time>2025-07-11T10:30:49.001000+02:00</time>
      </trkpt>
      <trkpt lat="46.20456" lon="-0.18246">
        <ele>88.2</ele>
        <time>2025-07-11T10:30:50.001000+02:00</time>
      </trkpt>
      <trkpt lat="46.20457" lon="-0.18243">
        <ele>88.2</ele>
        <time>2025-07-11T10:30:51.002000+02:00</time>
      </trkpt>
      <trkpt lat="46.20459" lon="-0.18235">
        <ele>88.3</ele>
        <time>2025-07-11T10:30:53.002000+02:00</time>
      </trkpt>
      <trkpt lat="46.2046" lon="-0.18228">
        <ele>88.3</ele>
        <time>2025-07-11T10:30:55.001000+02:00</time>
      </trkpt>
      <trkpt lat="46.2046" lon="-0.18225">
        <ele>88.4</ele>
        <time>2025-07-11T10:30:56.001000+02:00</time>
      </trkpt>
      <trkpt lat="46.20459" lon="-0.18221">
        <ele>88.6</ele>
        <time>2025-07-11T10:30:57.001000+02:00</time>
      </trkpt>
      <trkpt lat="46.20459" lon="-0.18217">
        <ele>88.9</ele>
        <time>2025-07-11T10:30:58.001000+02:00</time>
      </trkpt>
      <trkpt lat="46.20457" lon="-0.18211">
        <ele>89.4</ele>
        <time>2025-07-11T10:31:00.001000+02:00</time>
      </trkpt>
      <trkpt lat="46.20455" lon="-0.18204">
        <ele>89.9</ele>
        <time>2025-07-11T10:31:02+02:00</time>
      </trkpt>
      <trkpt lat="46.20454" lon="-0.18201">
        <ele>90.2</ele>
        <time>2025-07-11T10:31:03.096000+02:00</time>
      </trkpt>
      <trkpt lat="46.20452" lon="-0.18195">
        <ele>90.7</ele>
        <time>2025-07-11T10:31:05.001000+02:00</time>
      </trkpt>
      <trkpt lat="46.2045" lon="-0.18193">
        <ele>90.9</ele>
        <time>2025-07-11T10:31:06.001000+02:00</time>
      </trkpt>
      <trkpt lat="46.20448" lon="-0.18187">
        <ele>91.1</ele>
        <time>2025-07-11T10:31:07.999000+02:00</time>
      </trkpt>
      <trkpt lat="46.20447" lon="-0.18184">
        <ele>91.3</ele>
        <time>2025-07-11T10:31:09+02:00</time>
      </trkpt>
      <trkpt lat="46.20447" lon="-0.1818">
        <ele>91.4</ele>
        <time>2025-07-11T10:31:10.001000+02:00</time>
      </trkpt>
      <trkpt lat="46.20446" lon="-0.18177">
        <ele>91.6</ele>
        <time>2025-07-11T10:31:11.001000+02:00</time>
      </trkpt>
      <trkpt lat="46.20445" lon="-0.1817">
        <ele>91.9</ele>
        <time>2025-07-11T10:31:13.001000+02:00</time>
      </trkpt>
      <trkpt lat="46.20444" lon="-0.18163">
        <ele>92.1</ele>
        <time>2025-07-11T10:31:15.001000+02:00</time>
      </trkpt>
      <trkpt lat="46.20444" lon="-0.18156">
        <ele>92.4</ele>
        <time>2025-07-11T10:31:16.999000+02:00</time>
      </trkpt>
      <trkpt lat="46.20444" lon="-0.18152">
        <ele>92.5</ele>
        <time>2025-07-11T10:31:18+02:00</time>
      </trkpt>
      <trkpt lat="46.20445" lon="-0.18148">
        <ele>92.6</ele>
        <time>2025-07-11T10:31:19.001000+02:00</time>
      </trkpt>
      <trkpt lat="46.20446" lon="-0.18145">
        <ele>92.7</ele>
        <time>2025-07-11T10:31:20.001000+02:00</time>
      </trkpt>
      <trkpt lat="46.20447" lon="-0.18141">
        <ele>92.7</ele>
        <time>2025-07-11T10:31:21.001000+02:00</time>
      </trkpt>
      <trkpt lat="46.20448" lon="-0.18138">
        <ele>92.8</ele>
        <time>2025-07-11T10:31:22.001000+02:00</time>
      </trkpt>
      <trkpt lat="46.2045" lon="-0.18132">
        <ele>92.8</ele>
        <time>2025-07-11T10:31:24.003000+02:00</time>
      </trkpt>
      <trkpt lat="46.20453" lon="-0.18125">
        <ele>92.9</ele>
        <time>2025-07-11T10:31:26.001000+02:00</time>
      </trkpt>
      <trkpt lat="46.20454" lon="-0.18122">
        <ele>92.9</ele>
        <time>2025-07-11T10:31:27.001000+02:00</time>
      </trkpt>
      <trkpt lat="46.20455" lon="-0.18119">
        <ele>92.9</ele>
        <time>2025-07-11T10:31:28.003000+02:00</time>
      </trkpt>
      <trkpt lat="46.20458" lon="-0.18113">
        <ele>92.9</ele>
        <time>2025-07-11T10:31:30.001000+02:00</time>
      </trkpt>
      <trkpt lat="46.2046" lon="-0.1811">
        <ele>93</ele>
        <time>2025-07-11T10:31:31.001000+02:00</time>
      </trkpt>
      <trkpt lat="46.20462" lon="-0.18106">
        <ele>93.1</ele>
        <time>2025-07-11T10:31:32.001000+02:00</time>
      </trkpt>
      <trkpt lat="46.20466" lon="-0.18099">
        <ele>93.3</ele>
        <time>2025-07-11T10:31:34+02:00</time>
      </trkpt>
      <trkpt lat="46.20468" lon="-0.18095">
        <ele>93.4</ele>
        <time>2025-07-11T10:31:35+02:00</time>
      </trkpt>
      <trkpt lat="46.2047" lon="-0.18091">
        <ele>93.6</ele>
        <time>2025-07-11T10:31:36+02:00</time>
      </trkpt>
      <trkpt lat="46.20472" lon="-0.18088">
        <ele>93.7</ele>
        <time>2025-07-11T10:31:37.001000+02:00</time>
      </trkpt>
      <trkpt lat="46.20474" lon="-0.18084">
        <ele>93.8</ele>
        <time>2025-07-11T10:31:38.001000+02:00</time>
      </trkpt>
      <trkpt lat="46.20475" lon="-0.1808">
        <ele>93.8</ele>
        <time>2025-07-11T10:31:39.002000+02:00</time>
      </trkpt>
      <trkpt lat="46.20477" lon="-0.18076">
        <ele>93.8</ele>
        <time>2025-07-11T10:31:40.003000+02:00</time>
      </trkpt>
      <trkpt lat="46.20479" lon="-0.18071">
        <ele>93.8</ele>
        <time>2025-07-11T10:31:41.003000+02:00</time>
      </trkpt>
      <trkpt lat="46.20482" lon="-0.18062">
        <ele>93.7</ele>
        <time>2025-07-11T10:31:42.999000+02:00</time>
      </trkpt>
      <trkpt lat="46.20484" lon="-0.18058">
        <ele>93.6</ele>
        <time>2025-07-11T10:31:44.001000+02:00</time>
      </trkpt>
      <trkpt lat="46.20486" lon="-0.18054">
        <ele>93.5</ele>
        <time>2025-07-11T10:31:45.002000+02:00</time>
      </trkpt>
      <trkpt lat="46.2049" lon="-0.18044">
        <ele>93.4</ele>
        <time>2025-07-11T10:31:47+02:00</time>
      </trkpt>
      <trkpt lat="46.20491" lon="-0.18039">
        <ele>93.4</ele>
        <time>2025-07-11T10:31:48.001000+02:00</time>
      </trkpt>
      <trkpt lat="46.20494" lon="-0.1803">
        <ele>93.3</ele>
        <time>2025-07-11T10:31:50.001000+02:00</time>
      </trkpt>
      <trkpt lat="46.20496" lon="-0.18025">
        <ele>93.4</ele>
        <time>2025-07-11T10:31:51.001000+02:00</time>
      </trkpt>
      <trkpt lat="46.20499" lon="-0.18015">
        <ele>93.6</ele>
        <time>2025-07-11T10:31:53.001000+02:00</time>
      </trkpt>
      <trkpt lat="46.205" lon="-0.1801">
        <ele>93.6</ele>
        <time>2025-07-11T10:31:54.001000+02:00</time>
      </trkpt>
      <trkpt lat="46.20502" lon="-0.18006">
        <ele>93.6</ele>
        <time>2025-07-11T10:31:55.001000+02:00</time>
      </trkpt>
      <trkpt lat="46.20503" lon="-0.18001">
        <ele>93.7</ele>
        <time>2025-07-11T10:31:56.001000+02:00</time>
      </trkpt>
      <trkpt lat="46.20504" lon="-0.17996">
        <ele>93.7</ele>
        <time>2025-07-11T10:31:57.002000+02:00</time>
      </trkpt>
      <trkpt lat="46.20507" lon="-0.17986">
        <ele>93.7</ele>
        <time>2025-07-11T10:31:59.001000+02:00</time>
      </trkpt>
      <trkpt lat="46.20508" lon="-0.17982">
        <ele>93.8</ele>
        <time>2025-07-11T10:32:00.001000+02:00</time>
      </trkpt>
      <trkpt lat="46.2051" lon="-0.17977">
        <ele>93.8</ele>
        <time>2025-07-11T10:32:01.001000+02:00</time>
      </trkpt>
      <trkpt lat="46.20511" lon="-0.17972">
        <ele>93.8</ele>
        <time>2025-07-11T10:32:02.002000+02:00</time>
      </trkpt>
      <trkpt lat="46.20512" lon="-0.17967">
        <ele>93.8</ele>
        <time>2025-07-11T10:32:03.009000+02:00</time>
      </trkpt>
      <trkpt lat="46.20515" lon="-0.17957">
        <ele>93.7</ele>
        <time>2025-07-11T10:32:05.002000+02:00</time>
      </trkpt>
      <trkpt lat="46.20516" lon="-0.17952">
        <ele>93.7</ele>
        <time>2025-07-11T10:32:06.002000+02:00</time>
      </trkpt>
      <trkpt lat="46.20517" lon="-0.17946">
        <ele>93.8</ele>
        <time>2025-07-11T10:32:07.002000+02:00</time>
      </trkpt>
      <trkpt lat="46.20517" lon="-0.17941">
        <ele>93.9</ele>
        <time>2025-07-11T10:32:08.003000+02:00</time>
      </trkpt>
      <trkpt lat="46.20518" lon="-0.17936">
        <ele>94</ele>
        <time>2025-07-11T10:32:09.003000+02:00</time>
      </trkpt>
      <trkpt lat="46.20518" lon="-0.1793">
        <ele>94.2</ele>
        <time>2025-07-11T10:32:10.003000+02:00</time>
      </trkpt>
      <trkpt lat="46.2052" lon="-0.17919">
        <ele>94.5</ele>
        <time>2025-07-11T10:32:12.003000+02:00</time>
      </trkpt>
      <trkpt lat="46.2052" lon="-0.17908">
        <ele>94.3</ele>
        <time>2025-07-11T10:32:14.003000+02:00</time>
      </trkpt>
      <trkpt lat="46.20521" lon="-0.17903">
        <ele>94.1</ele>
        <time>2025-07-11T10:32:15.003000+02:00</time>
      </trkpt>
      <trkpt lat="46.2052" lon="-0.17891">
        <ele>93.9</ele>
        <time>2025-07-11T10:32:17+02:00</time>
      </trkpt>
      <trkpt lat="46.2052" lon="-0.17886">
        <ele>93.9</ele>
        <time>2025-07-11T10:32:18+02:00</time>
      </trkpt>
      <trkpt lat="46.2052" lon="-0.17881">
        <ele>94</ele>
        <time>2025-07-11T10:32:19+02:00</time>
      </trkpt>
      <trkpt lat="46.2052" lon="-0.17875">
        <ele>94.2</ele>
        <time>2025-07-11T10:32:20.002000+02:00</time>
      </trkpt>
      <trkpt lat="46.2052" lon="-0.17869">
        <ele>94.3</ele>
        <time>2025-07-11T10:32:21.002000+02:00</time>
      </trkpt>
      <trkpt lat="46.20519" lon="-0.17858">
        <ele>94.5</ele>
        <time>2025-07-11T10:32:23.001000+02:00</time>
      </trkpt>
      <trkpt lat="46.20519" lon="-0.17852">
        <ele>94.4</ele>
        <time>2025-07-11T10:32:24.001000+02:00</time>
      </trkpt>
      <trkpt lat="46.20518" lon="-0.17841">
        <ele>94.3</ele>
        <time>2025-07-11T10:32:26.001000+02:00</time>
      </trkpt>
      <trkpt lat="46.20517" lon="-0.17829">
        <ele>94.1</ele>
        <time>2025-07-11T10:32:28.002000+02:00</time>
      </trkpt>
      <trkpt lat="46.20517" lon="-0.17817">
        <ele>94.2</ele>
        <time>2025-07-11T10:32:30.002000+02:00</time>
      </trkpt>
      <trkpt lat="46.20517" lon="-0.17811">
        <ele>94.1</ele>
        <time>2025-07-11T10:32:31.002000+02:00</time>
      </trkpt>
      <trkpt lat="46.20518" lon="-0.17805">
        <ele>94.1</ele>
        <time>2025-07-11T10:32:32.003000+02:00</time>
      </trkpt>
      <trkpt lat="46.20518" lon="-0.17792">
        <ele>94.3</ele>
        <time>2025-07-11T10:32:34.002000+02:00</time>
      </trkpt>
      <trkpt lat="46.20519" lon="-0.17786">
        <ele>94.5</ele>
        <time>2025-07-11T10:32:35.002000+02:00</time>
      </trkpt>
      <trkpt lat="46.20519" lon="-0.1778">
        <ele>94.6</ele>
        <time>2025-07-11T10:32:36.002000+02:00</time>
      </trkpt>
      <trkpt lat="46.2052" lon="-0.17767">
        <ele>94.6</ele>
        <time>2025-07-11T10:32:38+02:00</time>
      </trkpt>
      <trkpt lat="46.2052" lon="-0.17761">
        <ele>94.5</ele>
        <time>2025-07-11T10:32:39.001000+02:00</time>
      </trkpt>
      <trkpt lat="46.20521" lon="-0.17748">
        <ele>94.5</ele>
        <time>2025-07-11T10:32:41.001000+02:00</time>
      </trkpt>
      <trkpt lat="46.20522" lon="-0.17736">
        <ele>94.9</ele>
        <time>2025-07-11T10:32:43.001000+02:00</time>
      </trkpt>
      <trkpt lat="46.20523" lon="-0.17729">
        <ele>95.1</ele>
        <time>2025-07-11T10:32:44.001000+02:00</time>
      </trkpt>
      <trkpt lat="46.20523" lon="-0.17723">
        <ele>95.3</ele>
        <time>2025-07-11T10:32:45.001000+02:00</time>
      </trkpt>
      <trkpt lat="46.20525" lon="-0.17712">
        <ele>95.5</ele>
        <time>2025-07-11T10:32:47.001000+02:00</time>
      </trkpt>
      <trkpt lat="46.20526" lon="-0.177">
        <ele>95.9</ele>
        <time>2025-07-11T10:32:49+02:00</time>
      </trkpt>
      <trkpt lat="46.20526" lon="-0.17694">
        <ele>96.1</ele>
        <time>2025-07-11T10:32:50.001000+02:00</time>
      </trkpt>
      <trkpt lat="46.20527" lon="-0.17688">
        <ele>96</ele>
        <time>2025-07-11T10:32:51.003000+02:00</time>
      </trkpt>
      <trkpt lat="46.20527" lon="-0.17677">
        <ele>96</ele>
        <time>2025-07-11T10:32:53.001000+02:00</time>
      </trkpt>
      <trkpt lat="46.20527" lon="-0.17671">
        <ele>96</ele>
        <time>2025-07-11T10:32:54.001000+02:00</time>
      </trkpt>
      <trkpt lat="46.20527" lon="-0.17658">
        <ele>96</ele>
        <time>2025-07-11T10:32:56.001000+02:00</time>
      </trkpt>
      <trkpt lat="46.20527" lon="-0.17652">
        <ele>96</ele>
        <time>2025-07-11T10:32:57.001000+02:00</time>
      </trkpt>
      <trkpt lat="46.20527" lon="-0.17646">
        <ele>96</ele>
        <time>2025-07-11T10:32:58.001000+02:00</time>
      </trkpt>
      <trkpt lat="46.20526" lon="-0.17635">
        <ele>96.1</ele>
        <time>2025-07-11T10:33:00.001000+02:00</time>
      </trkpt>
      <trkpt lat="46.20524" lon="-0.17624">
        <ele>96.2</ele>
        <time>2025-07-11T10:33:02.001000+02:00</time>
      </trkpt>
      <trkpt lat="46.20524" lon="-0.17618">
        <ele>96.2</ele>
        <time>2025-07-11T10:33:03.002000+02:00</time>
      </trkpt>
      <trkpt lat="46.20524" lon="-0.17606">
        <ele>96.1</ele>
        <time>2025-07-11T10:33:05.003000+02:00</time>
      </trkpt>
      <trkpt lat="46.20524" lon="-0.17592">
        <ele>95.6</ele>
        <time>2025-07-11T10:33:07.001000+02:00</time>
      </trkpt>
      <trkpt lat="46.20524" lon="-0.17585">
        <ele>95.3</ele>
        <time>2025-07-11T10:33:08.003000+02:00</time>
      </trkpt>
      <trkpt lat="46.20525" lon="-0.17578">
        <ele>95.2</ele>
        <time>2025-07-11T10:33:09.003000+02:00</time>
      </trkpt>
      <trkpt lat="46.20525" lon="-0.17571">
        <ele>95.2</ele>
        <time>2025-07-11T10:33:10.003000+02:00</time>
      </trkpt>
      <trkpt lat="46.20526" lon="-0.17555">
        <ele>95.1</ele>
        <time>2025-07-11T10:33:12+02:00</time>
      </trkpt>
      <trkpt lat="46.20527" lon="-0.17547">
        <ele>94.8</ele>
        <time>2025-07-11T10:33:13+02:00</time>
      </trkpt>
      <trkpt lat="46.20528" lon="-0.1754">
        <ele>94.4</ele>
        <time>2025-07-11T10:33:14.001000+02:00</time>
      </trkpt>
      <trkpt lat="46.20529" lon="-0.17531">
        <ele>94.1</ele>
        <time>2025-07-11T10:33:15.002000+02:00</time>
      </trkpt>
      <trkpt lat="46.20531" lon="-0.17515">
        <ele>93.9</ele>
        <time>2025-07-11T10:33:17.001000+02:00</time>
      </trkpt>
      <trkpt lat="46.20531" lon="-0.17506">
        <ele>93.8</ele>
        <time>2025-07-11T10:33:18.003000+02:00</time>
      </trkpt>
      <trkpt lat="46.20532" lon="-0.17498">
        <ele>93.7</ele>
        <time>2025-07-11T10:33:19.005000+02:00</time>
      </trkpt>
      <trkpt lat="46.20534" lon="-0.17481">
        <ele>93.4</ele>
        <time>2025-07-11T10:33:21.003000+02:00</time>
      </trkpt>
      <trkpt lat="46.20535" lon="-0.17463">
        <ele>92.9</ele>
        <time>2025-07-11T10:33:23.003000+02:00</time>
      </trkpt>
      <trkpt lat="46.20536" lon="-0.17455">
        <ele>92.5</ele>
        <time>2025-07-11T10:33:24.003000+02:00</time>
      </trkpt>
      <trkpt lat="46.20536" lon="-0.17437">
        <ele>92.1</ele>
        <time>2025-07-11T10:33:26.002000+02:00</time>
      </trkpt>
      <trkpt lat="46.20537" lon="-0.17429">
        <ele>92</ele>
        <time>2025-07-11T10:33:27.003000+02:00</time>
      </trkpt>
      <trkpt lat="46.20538" lon="-0.17412">
        <ele>92</ele>
        <time>2025-07-11T10:33:28.999000+02:00</time>
      </trkpt>
      <trkpt lat="46.20537" lon="-0.17403">
        <ele>92.3</ele>
        <time>2025-07-11T10:33:30.001000+02:00</time>
      </trkpt>
      <trkpt lat="46.20537" lon="-0.17394">
        <ele>92.5</ele>
        <time>2025-07-11T10:33:31.002000+02:00</time>
      </trkpt>
      <trkpt lat="46.20537" lon="-0.17377">
        <ele>92.2</ele>
        <time>2025-07-11T10:33:33.002000+02:00</time>
      </trkpt>
      <trkpt lat="46.20537" lon="-0.17361">
        <ele>91.7</ele>
        <time>2025-07-11T10:33:35+02:00</time>
      </trkpt>
      <trkpt lat="46.20537" lon="-0.17353">
        <ele>91.7</ele>
        <time>2025-07-11T10:33:36.001000+02:00</time>
      </trkpt>
      <trkpt lat="46.20536" lon="-0.17345">
        <ele>91.9</ele>
        <time>2025-07-11T10:33:37.002000+02:00</time>
      </trkpt>
      <trkpt lat="46.20534" lon="-0.17329">
        <ele>92</ele>
        <time>2025-07-11T10:33:39.002000+02:00</time>
      </trkpt>
      <trkpt lat="46.20533" lon="-0.17321">
        <ele>92.1</ele>
        <time>2025-07-11T10:33:40.002000+02:00</time>
      </trkpt>
      <trkpt lat="46.20531" lon="-0.17305">
        <ele>92.3</ele>
        <time>2025-07-11T10:33:42.002000+02:00</time>
      </trkpt>
      <trkpt lat="46.20529" lon="-0.17289">
        <ele>92.2</ele>
        <time>2025-07-11T10:33:44+02:00</time>
      </trkpt>
      <trkpt lat="46.20528" lon="-0.17282">
        <ele>92.1</ele>
        <time>2025-07-11T10:33:45.001000+02:00</time>
      </trkpt>
      <trkpt lat="46.20526" lon="-0.17268">
        <ele>92.2</ele>
        <time>2025-07-11T10:33:46.999000+02:00</time>
      </trkpt>
      <trkpt lat="46.20524" lon="-0.17261">
        <ele>92.4</ele>
        <time>2025-07-11T10:33:48.001000+02:00</time>
      </trkpt>
      <trkpt lat="46.20522" lon="-0.17247">
        <ele>92.6</ele>
        <time>2025-07-11T10:33:50+02:00</time>
      </trkpt>
      <trkpt lat="46.2052" lon="-0.17241">
        <ele>92.6</ele>
        <time>2025-07-11T10:33:51.001000+02:00</time>
      </trkpt>
      <trkpt lat="46.20519" lon="-0.17234">
        <ele>92.6</ele>
        <time>2025-07-11T10:33:52.001000+02:00</time>
      </trkpt>
      <trkpt lat="46.20518" lon="-0.17228">
        <ele>92.6</ele>
        <time>2025-07-11T10:33:53.001000+02:00</time>
      </trkpt>
      <trkpt lat="46.20517" lon="-0.17221">
        <ele>92.6</ele>
        <time>2025-07-11T10:33:54.001000+02:00</time>
      </trkpt>
      <trkpt lat="46.20515" lon="-0.17215">
        <ele>92.8</ele>
        <time>2025-07-11T10:33:55.001000+02:00</time>
      </trkpt>
      <trkpt lat="46.20514" lon="-0.17208">
        <ele>93</ele>
        <time>2025-07-11T10:33:56.001000+02:00</time>
      </trkpt>
      <trkpt lat="46.20512" lon="-0.17202">
        <ele>93.2</ele>
        <time>2025-07-11T10:33:57.003000+02:00</time>
      </trkpt>
      <trkpt lat="46.20511" lon="-0.17195">
        <ele>93.4</ele>
        <time>2025-07-11T10:33:58.003000+02:00</time>
      </trkpt>
      <trkpt lat="46.20509" lon="-0.17189">
        <ele>93.7</ele>
        <time>2025-07-11T10:33:59.003000+02:00</time>
      </trkpt>
      <trkpt lat="46.20508" lon="-0.17183">
        <ele>93.9</ele>
        <time>2025-07-11T10:34:00.005000+02:00</time>
      </trkpt>
      <trkpt lat="46.20504" lon="-0.17172">
        <ele>94.4</ele>
        <time>2025-07-11T10:34:02.003000+02:00</time>
      </trkpt>
      <trkpt lat="46.20502" lon="-0.17162">
        <ele>94.6</ele>
        <time>2025-07-11T10:34:04+02:00</time>
      </trkpt>
      <trkpt lat="46.205" lon="-0.17157">
        <ele>94.6</ele>
        <time>2025-07-11T10:34:05.001000+02:00</time>
      </trkpt>
      <trkpt lat="46.20498" lon="-0.17147">
        <ele>94.5</ele>
        <time>2025-07-11T10:34:07.002000+02:00</time>
      </trkpt>
      <trkpt lat="46.20497" lon="-0.17142">
        <ele>94.5</ele>
        <time>2025-07-11T10:34:08.003000+02:00</time>
      </trkpt>
      <trkpt lat="46.20494" lon="-0.17133">
        <ele>94.6</ele>
        <time>2025-07-11T10:34:10+02:00</time>
      </trkpt>
      <trkpt lat="46.20494" lon="-0.17128">
        <ele>94.7</ele>
        <time>2025-07-11T10:34:11.002000+02:00</time>
      </trkpt>
      <trkpt lat="46.20492" lon="-0.17118">
        <ele>94.8</ele>
        <time>2025-07-11T10:34:13+02:00</time>
      </trkpt>
      <trkpt lat="46.20492" lon="-0.17107">
        <ele>94.9</ele>
        <time>2025-07-11T10:34:15.003000+02:00</time>
      </trkpt>
      <trkpt lat="46.20491" lon="-0.17095">
        <ele>95</ele>
        <time>2025-07-11T10:34:17.002000+02:00</time>
      </trkpt>
      <trkpt lat="46.2049" lon="-0.17084">
        <ele>95.1</ele>
        <time>2025-07-11T10:34:19.001000+02:00</time>
      </trkpt>
      <trkpt lat="46.2049" lon="-0.17078">
        <ele>95.2</ele>
        <time>2025-07-11T10:34:20.001000+02:00</time>
      </trkpt>
      <trkpt lat="46.2049" lon="-0.17073">
        <ele>95.3</ele>
        <time>2025-07-11T10:34:21.001000+02:00</time>
      </trkpt>
      <trkpt lat="46.20489" lon="-0.17062">
        <ele>95.5</ele>
        <time>2025-07-11T10:34:23+02:00</time>
      </trkpt>
      <trkpt lat="46.20489" lon="-0.17057">
        <ele>95.6</ele>
        <time>2025-07-11T10:34:24.001000+02:00</time>
      </trkpt>
      <trkpt lat="46.20489" lon="-0.17051">
        <ele>95.6</ele>
        <time>2025-07-11T10:34:25.001000+02:00</time>
      </trkpt>
      <trkpt lat="46.20489" lon="-0.17041">
        <ele>95.6</ele>
        <time>2025-07-11T10:34:27+02:00</time>
      </trkpt>
      <trkpt lat="46.20489" lon="-0.1703">
        <ele>95.7</ele>
        <time>2025-07-11T10:34:29.002000+02:00</time>
      </trkpt>
      <trkpt lat="46.20489" lon="-0.1702">
        <ele>95.4</ele>
        <time>2025-07-11T10:34:31.001000+02:00</time>
      </trkpt>
      <trkpt lat="46.2049" lon="-0.17009">
        <ele>95.1</ele>
        <time>2025-07-11T10:34:33.002000+02:00</time>
      </trkpt>
      <trkpt lat="46.2049" lon="-0.16997">
        <ele>94.9</ele>
        <time>2025-07-11T10:34:35+02:00</time>
      </trkpt>
      <trkpt lat="46.2049" lon="-0.16992">
        <ele>95</ele>
        <time>2025-07-11T10:34:36.001000+02:00</time>
      </trkpt>
      <trkpt lat="46.2049" lon="-0.16986">
        <ele>95.1</ele>
        <time>2025-07-11T10:34:37.002000+02:00</time>
      </trkpt>
      <trkpt lat="46.2049" lon="-0.1698">
        <ele>95.2</ele>
        <time>2025-07-11T10:34:38.002000+02:00</time>
      </trkpt>
      <trkpt lat="46.20491" lon="-0.16974">
        <ele>95.3</ele>
        <time>2025-07-11T10:34:39.002000+02:00</time>
      </trkpt>
      <trkpt lat="46.20492" lon="-0.16962">
        <ele>95.5</ele>
        <time>2025-07-11T10:34:41.002000+02:00</time>
      </trkpt>
      <trkpt lat="46.20493" lon="-0.16951">
        <ele>95.8</ele>
        <time>2025-07-11T10:34:43.001000+02:00</time>
      </trkpt>
      <trkpt lat="46.20493" lon="-0.16945">
        <ele>96</ele>
        <time>2025-07-11T10:34:44.001000+02:00</time>
      </trkpt>
      <trkpt lat="46.20494" lon="-0.16939">
        <ele>96.1</ele>
        <time>2025-07-11T10:34:45.002000+02:00</time>
      </trkpt>
      <trkpt lat="46.20494" lon="-0.16927">
        <ele>96.3</ele>
        <time>2025-07-11T10:34:47.001000+02:00</time>
      </trkpt>
      <trkpt lat="46.20495" lon="-0.16921">
        <ele>96.5</ele>
        <time>2025-07-11T10:34:48.001000+02:00</time>
      </trkpt>
      <trkpt lat="46.20495" lon="-0.16916">
        <ele>96.6</ele>
        <time>2025-07-11T10:34:49.001000+02:00</time>
      </trkpt>
      <trkpt lat="46.20496" lon="-0.1691">
        <ele>96.7</ele>
        <time>2025-07-11T10:34:50.001000+02:00</time>
      </trkpt>
      <trkpt lat="46.20496" lon="-0.16904">
        <ele>96.9</ele>
        <time>2025-07-11T10:34:51.001000+02:00</time>
      </trkpt>
      <trkpt lat="46.20497" lon="-0.16893">
        <ele>97.2</ele>
        <time>2025-07-11T10:34:53.001000+02:00</time>
      </trkpt>
      <trkpt lat="46.20497" lon="-0.16888">
        <ele>97.3</ele>
        <time>2025-07-11T10:34:54.003000+02:00</time>
      </trkpt>
      <trkpt lat="46.20499" lon="-0.16876">
        <ele>97.6</ele>
        <time>2025-07-11T10:34:56.001000+02:00</time>
      </trkpt>
      <trkpt lat="46.20499" lon="-0.1687">
        <ele>97.7</ele>
        <time>2025-07-11T10:34:57.001000+02:00</time>
      </trkpt>
      <trkpt lat="46.20501" lon="-0.16859">
        <ele>97.8</ele>
        <time>2025-07-11T10:34:59.001000+02:00</time>
      </trkpt>
      <trkpt lat="46.20501" lon="-0.16854">
        <ele>97.6</ele>
        <time>2025-07-11T10:35:00.001000+02:00</time>
      </trkpt>
      <trkpt lat="46.20502" lon="-0.16849">
        <ele>97.5</ele>
        <time>2025-07-11T10:35:01.001000+02:00</time>
      </trkpt>
      <trkpt lat="46.20502" lon="-0.16843">
        <ele>97.4</ele>
        <time>2025-07-11T10:35:02.001000+02:00</time>
      </trkpt>
      <trkpt lat="46.20503" lon="-0.16832">
        <ele>97.2</ele>
        <time>2025-07-11T10:35:04+02:00</time>
      </trkpt>
      <trkpt lat="46.20504" lon="-0.16827">
        <ele>97.1</ele>
        <time>2025-07-11T10:35:05.001000+02:00</time>
      </trkpt>
      <trkpt lat="46.20504" lon="-0.16816">
        <ele>97.3</ele>
        <time>2025-07-11T10:35:07.001000+02:00</time>
      </trkpt>
      <trkpt lat="46.20504" lon="-0.1681">
        <ele>97.3</ele>
        <time>2025-07-11T10:35:08.001000+02:00</time>
      </trkpt>
      <trkpt lat="46.20503" lon="-0.16805">
        <ele>97.4</ele>
        <time>2025-07-11T10:35:09.002000+02:00</time>
      </trkpt>
      <trkpt lat="46.20503" lon="-0.16799">
        <ele>97.5</ele>
        <time>2025-07-11T10:35:10.002000+02:00</time>
      </trkpt>
      <trkpt lat="46.20503" lon="-0.16788">
        <ele>97.6</ele>
        <time>2025-07-11T10:35:12.001000+02:00</time>
      </trkpt>
      <trkpt lat="46.20503" lon="-0.16777">
        <ele>97.7</ele>
        <time>2025-07-11T10:35:14.001000+02:00</time>
      </trkpt>
      <trkpt lat="46.20503" lon="-0.16771">
        <ele>97.9</ele>
        <time>2025-07-11T10:35:15.001000+02:00</time>
      </trkpt>
      <trkpt lat="46.20503" lon="-0.16765">
        <ele>98.1</ele>
        <time>2025-07-11T10:35:16.002000+02:00</time>
      </trkpt>
      <trkpt lat="46.20503" lon="-0.16759">
        <ele>98.3</ele>
        <time>2025-07-11T10:35:17.002000+02:00</time>
      </trkpt>
      <trkpt lat="46.20504" lon="-0.16747">
        <ele>98.6</ele>
        <time>2025-07-11T10:35:19.002000+02:00</time>
      </trkpt>
      <trkpt lat="46.20504" lon="-0.16742">
        <ele>98.6</ele>
        <time>2025-07-11T10:35:20.003000+02:00</time>
      </trkpt>
      <trkpt lat="46.20504" lon="-0.16731">
        <ele>98.6</ele>
        <time>2025-07-11T10:35:22.002000+02:00</time>
      </trkpt>
      <trkpt lat="46.20505" lon="-0.16724">
        <ele>98.6</ele>
        <time>2025-07-11T10:35:23.002000+02:00</time>
      </trkpt>
      <trkpt lat="46.20506" lon="-0.16718">
        <ele>98.6</ele>
        <time>2025-07-11T10:35:24.003000+02:00</time>
      </trkpt>
      <trkpt lat="46.20506" lon="-0.16707">
        <ele>98.5</ele>
        <time>2025-07-11T10:35:26+02:00</time>
      </trkpt>
      <trkpt lat="46.20507" lon="-0.16701">
        <ele>98.5</ele>
        <time>2025-07-11T10:35:27+02:00</time>
      </trkpt>
      <trkpt lat="46.20507" lon="-0.16696">
        <ele>98.5</ele>
        <time>2025-07-11T10:35:28.001000+02:00</time>
      </trkpt>
      <trkpt lat="46.20509" lon="-0.16684">
        <ele>98.6</ele>
        <time>2025-07-11T10:35:30+02:00</time>
      </trkpt>
      <trkpt lat="46.2051" lon="-0.16678">
        <ele>98.7</ele>
        <time>2025-07-11T10:35:31.001000+02:00</time>
      </trkpt>
      <trkpt lat="46.20511" lon="-0.16672">
        <ele>98.7</ele>
        <time>2025-07-11T10:35:32.001000+02:00</time>
      </trkpt>
      <trkpt lat="46.20512" lon="-0.16667">
        <ele>98.7</ele>
        <time>2025-07-11T10:35:33.004000+02:00</time>
      </trkpt>
      <trkpt lat="46.20514" lon="-0.16655">
        <ele>98.5</ele>
        <time>2025-07-11T10:35:35.001000+02:00</time>
      </trkpt>
      <trkpt lat="46.20514" lon="-0.16649">
        <ele>98.5</ele>
        <time>2025-07-11T10:35:36.002000+02:00</time>
      </trkpt>
      <trkpt lat="46.20514" lon="-0.16643">
        <ele>98.5</ele>
        <time>2025-07-11T10:35:37.002000+02:00</time>
      </trkpt>
      <trkpt lat="46.20515" lon="-0.16637">
        <ele>98.3</ele>
        <time>2025-07-11T10:35:38.003000+02:00</time>
      </trkpt>
      <trkpt lat="46.20516" lon="-0.16624">
        <ele>98.1</ele>
        <time>2025-07-11T10:35:40.001000+02:00</time>
      </trkpt>
      <trkpt lat="46.20517" lon="-0.1661">
        <ele>97.7</ele>
        <time>2025-07-11T10:35:42.001000+02:00</time>
      </trkpt>
      <trkpt lat="46.20519" lon="-0.16603">
        <ele>97.7</ele>
        <time>2025-07-11T10:35:43.004000+02:00</time>
      </trkpt>
      <trkpt lat="46.2052" lon="-0.16589">
        <ele>97.6</ele>
        <time>2025-07-11T10:35:45.002000+02:00</time>
      </trkpt>
      <trkpt lat="46.20519" lon="-0.16574">
        <ele>97.5</ele>
        <time>2025-07-11T10:35:47.001000+02:00</time>
      </trkpt>
      <trkpt lat="46.2052" lon="-0.16566">
        <ele>97.4</ele>
        <time>2025-07-11T10:35:48.002000+02:00</time>
      </trkpt>
      <trkpt lat="46.2052" lon="-0.16558">
        <ele>97.3</ele>
        <time>2025-07-11T10:35:49.003000+02:00</time>
      </trkpt>
      <trkpt lat="46.2052" lon="-0.1655">
        <ele>97.1</ele>
        <time>2025-07-11T10:35:50.003000+02:00</time>
      </trkpt>
      <trkpt lat="46.2052" lon="-0.16543">
        <ele>96.8</ele>
        <time>2025-07-11T10:35:51.004000+02:00</time>
      </trkpt>
      <trkpt lat="46.20521" lon="-0.16526">
        <ele>96.1</ele>
        <time>2025-07-11T10:35:53.001000+02:00</time>
      </trkpt>
      <trkpt lat="46.20522" lon="-0.16517">
        <ele>95.5</ele>
        <time>2025-07-11T10:35:54.003000+02:00</time>
      </trkpt>
      <trkpt lat="46.20522" lon="-0.165">
        <ele>94.4</ele>
        <time>2025-07-11T10:35:56.003000+02:00</time>
      </trkpt>
      <trkpt lat="46.20522" lon="-0.16485">
        <ele>93.9</ele>
        <time>2025-07-11T10:35:58.001000+02:00</time>
      </trkpt>
      <trkpt lat="46.20522" lon="-0.16478">
        <ele>93.6</ele>
        <time>2025-07-11T10:35:59.002000+02:00</time>
      </trkpt>
      <trkpt lat="46.20522" lon="-0.16471">
        <ele>93.3</ele>
        <time>2025-07-11T10:36:00.002000+02:00</time>
      </trkpt>
      <trkpt lat="46.20522" lon="-0.16464">
        <ele>93</ele>
        <time>2025-07-11T10:36:01.003000+02:00</time>
      </trkpt>
      <trkpt lat="46.20523" lon="-0.16458">
        <ele>92.7</ele>
        <time>2025-07-11T10:36:02.003000+02:00</time>
      </trkpt>
      <trkpt lat="46.20522" lon="-0.16453">
        <ele>92.4</ele>
        <time>2025-07-11T10:36:03.003000+02:00</time>
      </trkpt>
      <trkpt lat="46.20522" lon="-0.16448">
        <ele>92.2</ele>
        <time>2025-07-11T10:36:04.003000+02:00</time>
      </trkpt>
      <trkpt lat="46.20522" lon="-0.16444">
        <ele>92</ele>
        <time>2025-07-11T10:36:05.003000+02:00</time>
      </trkpt>
      <trkpt lat="46.20524" lon="-0.16435">
        <ele>91.7</ele>
        <time>2025-07-11T10:36:07.002000+02:00</time>
      </trkpt>
      <trkpt lat="46.20526" lon="-0.1643">
        <ele>91.5</ele>
        <time>2025-07-11T10:36:08.005000+02:00</time>
      </trkpt>
      <trkpt lat="46.20531" lon="-0.16421">
        <ele>91.1</ele>
        <time>2025-07-11T10:36:10.001000+02:00</time>
      </trkpt>
      <trkpt lat="46.20534" lon="-0.16416">
        <ele>91</ele>
        <time>2025-07-11T10:36:11.005000+02:00</time>
      </trkpt>
      <trkpt lat="46.20539" lon="-0.16406">
        <ele>90.8</ele>
        <time>2025-07-11T10:36:13.001000+02:00</time>
      </trkpt>
      <trkpt lat="46.20543" lon="-0.16401">
        <ele>90.7</ele>
        <time>2025-07-11T10:36:14.001000+02:00</time>
      </trkpt>
      <trkpt lat="46.20547" lon="-0.16397">
        <ele>90.5</ele>
        <time>2025-07-11T10:36:15.002000+02:00</time>
      </trkpt>
      <trkpt lat="46.20555" lon="-0.16389">
        <ele>90</ele>
        <time>2025-07-11T10:36:17.001000+02:00</time>
      </trkpt>
      <trkpt lat="46.20563" lon="-0.16382">
        <ele>90.1</ele>
        <time>2025-07-11T10:36:19+02:00</time>
      </trkpt>
      <trkpt lat="46.20566" lon="-0.16379">
        <ele>90.1</ele>
        <time>2025-07-11T10:36:20.002000+02:00</time>
      </trkpt>
      <trkpt lat="46.2057" lon="-0.16376">
        <ele>90</ele>
        <time>2025-07-11T10:36:21.003000+02:00</time>
      </trkpt>
      <trkpt lat="46.20573" lon="-0.16371">
        <ele>89.8</ele>
        <time>2025-07-11T10:36:22.004000+02:00</time>
      </trkpt>
      <trkpt lat="46.20578" lon="-0.16361">
        <ele>89.4</ele>
        <time>2025-07-11T10:36:24.004000+02:00</time>
      </trkpt>
      <trkpt lat="46.20581" lon="-0.1635">
        <ele>89.9</ele>
        <time>2025-07-11T10:36:26.001000+02:00</time>
      </trkpt>
      <trkpt lat="46.20581" lon="-0.16345">
        <ele>90.3</ele>
        <time>2025-07-11T10:36:27.003000+02:00</time>
      </trkpt>
      <trkpt lat="46.2058" lon="-0.16334">
        <ele>91</ele>
        <time>2025-07-11T10:36:29.001000+02:00</time>
      </trkpt>
      <trkpt lat="46.2058" lon="-0.16329">
        <ele>91</ele>
        <time>2025-07-11T10:36:30.002000+02:00</time>
      </trkpt>
      <trkpt lat="46.2058" lon="-0.16323">
        <ele>91</ele>
        <time>2025-07-11T10:36:31.002000+02:00</time>
      </trkpt>
      <trkpt lat="46.20578" lon="-0.16312">
        <ele>91.1</ele>
        <time>2025-07-11T10:36:33.006000+02:00</time>
      </trkpt>
      <trkpt lat="46.20576" lon="-0.16302">
        <ele>91.4</ele>
        <time>2025-07-11T10:36:35.002000+02:00</time>
      </trkpt>
      <trkpt lat="46.20574" lon="-0.16293">
        <ele>91.8</ele>
        <time>2025-07-11T10:36:37.003000+02:00</time>
      </trkpt>
      <trkpt lat="46.20573" lon="-0.16288">
        <ele>92</ele>
        <time>2025-07-11T10:36:38.003000+02:00</time>
      </trkpt>
      <trkpt lat="46.20572" lon="-0.16283">
        <ele>92.2</ele>
        <time>2025-07-11T10:36:39.003000+02:00</time>
      </trkpt>
      <trkpt lat="46.20571" lon="-0.16272">
        <ele>92.4</ele>
        <time>2025-07-11T10:36:41.001000+02:00</time>
      </trkpt>
      <trkpt lat="46.2057" lon="-0.16267">
        <ele>92.5</ele>
        <time>2025-07-11T10:36:42.002000+02:00</time>
      </trkpt>
      <trkpt lat="46.20568" lon="-0.16258">
        <ele>92.6</ele>
        <time>2025-07-11T10:36:44.001000+02:00</time>
      </trkpt>
      <trkpt lat="46.20566" lon="-0.16253">
        <ele>92.6</ele>
        <time>2025-07-11T10:36:45.002000+02:00</time>
      </trkpt>
      <trkpt lat="46.20565" lon="-0.16248">
        <ele>92.7</ele>
        <time>2025-07-11T10:36:46.003000+02:00</time>
      </trkpt>
      <trkpt lat="46.20563" lon="-0.16237">
        <ele>92.9</ele>
        <time>2025-07-11T10:36:48+02:00</time>
      </trkpt>
      <trkpt lat="46.20561" lon="-0.16231">
        <ele>92.9</ele>
        <time>2025-07-11T10:36:49.002000+02:00</time>
      </trkpt>
      <trkpt lat="46.20558" lon="-0.1622">
        <ele>93.1</ele>
        <time>2025-07-11T10:36:51.002000+02:00</time>
      </trkpt>
      <trkpt lat="46.20557" lon="-0.16215">
        <ele>93.2</ele>
        <time>2025-07-11T10:36:52.002000+02:00</time>
      </trkpt>
      <trkpt lat="46.20556" lon="-0.1621">
        <ele>93.4</ele>
        <time>2025-07-11T10:36:53.002000+02:00</time>
      </trkpt>
      <trkpt lat="46.20555" lon="-0.16204">
        <ele>93.7</ele>
        <time>2025-07-11T10:36:54.004000+02:00</time>
      </trkpt>
      <trkpt lat="46.20552" lon="-0.16194">
        <ele>94.1</ele>
        <time>2025-07-11T10:36:56.001000+02:00</time>
      </trkpt>
      <trkpt lat="46.2055" lon="-0.16189">
        <ele>94.2</ele>
        <time>2025-07-11T10:36:57.001000+02:00</time>
      </trkpt>
      <trkpt lat="46.20548" lon="-0.16183">
        <ele>94.3</ele>
        <time>2025-07-11T10:36:58.001000+02:00</time>
      </trkpt>
      <trkpt lat="46.20547" lon="-0.16177">
        <ele>94.3</ele>
        <time>2025-07-11T10:36:59.003000+02:00</time>
      </trkpt>
      <trkpt lat="46.20545" lon="-0.16167">
        <ele>94.4</ele>
        <time>2025-07-11T10:37:01.001000+02:00</time>
      </trkpt>
      <trkpt lat="46.20543" lon="-0.16162">
        <ele>94.6</ele>
        <time>2025-07-11T10:37:02.002000+02:00</time>
      </trkpt>
      <trkpt lat="46.20541" lon="-0.16157">
        <ele>94.9</ele>
        <time>2025-07-11T10:37:03.005000+02:00</time>
      </trkpt>
      <trkpt lat="46.20537" lon="-0.16148">
        <ele>95.3</ele>
        <time>2025-07-11T10:37:05.002000+02:00</time>
      </trkpt>
      <trkpt lat="46.20535" lon="-0.16144">
        <ele>95.6</ele>
        <time>2025-07-11T10:37:06.002000+02:00</time>
      </trkpt>
      <trkpt lat="46.20533" lon="-0.16139">
        <ele>95.8</ele>
        <time>2025-07-11T10:37:07.002000+02:00</time>
      </trkpt>
      <trkpt lat="46.20532" lon="-0.16134">
        <ele>95.9</ele>
        <time>2025-07-11T10:37:08.002000+02:00</time>
      </trkpt>
      <trkpt lat="46.2053" lon="-0.1613">
        <ele>95.9</ele>
        <time>2025-07-11T10:37:09.003000+02:00</time>
      </trkpt>
      <trkpt lat="46.20527" lon="-0.1612">
        <ele>96</ele>
        <time>2025-07-11T10:37:10.999000+02:00</time>
      </trkpt>
      <trkpt lat="46.20526" lon="-0.16116">
        <ele>96.1</ele>
        <time>2025-07-11T10:37:12.001000+02:00</time>
      </trkpt>
      <trkpt lat="46.20525" lon="-0.16112">
        <ele>96.1</ele>
        <time>2025-07-11T10:37:13.001000+02:00</time>
      </trkpt>
      <trkpt lat="46.20524" lon="-0.16108">
        <ele>96.2</ele>
        <time>2025-07-11T10:37:14.001000+02:00</time>
      </trkpt>
      <trkpt lat="46.20522" lon="-0.16105">
        <ele>96.4</ele>
        <time>2025-07-11T10:37:15.001000+02:00</time>
      </trkpt>
      <trkpt lat="46.20521" lon="-0.16101">
        <ele>96.6</ele>
        <time>2025-07-11T10:37:16.002000+02:00</time>
      </trkpt>
      <trkpt lat="46.2052" lon="-0.16091">
        <ele>97</ele>
        <time>2025-07-11T10:37:18+02:00</time>
      </trkpt>
      <trkpt lat="46.2052" lon="-0.16086">
        <ele>97.2</ele>
        <time>2025-07-11T10:37:19+02:00</time>
      </trkpt>
      <trkpt lat="46.2052" lon="-0.16082">
        <ele>97.3</ele>
        <time>2025-07-11T10:37:20+02:00</time>
      </trkpt>
      <trkpt lat="46.20519" lon="-0.16078">
        <ele>97.4</ele>
        <time>2025-07-11T10:37:21.002000+02:00</time>
      </trkpt>
      <trkpt lat="46.20519" lon="-0.16073">
        <ele>97.4</ele>
        <time>2025-07-11T10:37:22.002000+02:00</time>
      </trkpt>
      <trkpt lat="46.20519" lon="-0.16068">
        <ele>97.5</ele>
        <time>2025-07-11T10:37:23.003000+02:00</time>
      </trkpt>
      <trkpt lat="46.20517" lon="-0.16059">
        <ele>97.7</ele>
        <time>2025-07-11T10:37:25.004000+02:00</time>
      </trkpt>
      <trkpt lat="46.20516" lon="-0.16053">
        <ele>97.8</ele>
        <time>2025-07-11T10:37:26.004000+02:00</time>
      </trkpt>
      <trkpt lat="46.20516" lon="-0.16049">
        <ele>97.9</ele>
        <time>2025-07-11T10:37:27.004000+02:00</time>
      </trkpt>
      <trkpt lat="46.20515" lon="-0.16045">
        <ele>97.9</ele>
        <time>2025-07-11T10:37:28.005000+02:00</time>
      </trkpt>
      <trkpt lat="46.20514" lon="-0.16036">
        <ele>98</ele>
        <time>2025-07-11T10:37:30.002000+02:00</time>
      </trkpt>
      <trkpt lat="46.20513" lon="-0.1603">
        <ele>98</ele>
        <time>2025-07-11T10:37:31.003000+02:00</time>
      </trkpt>
      <trkpt lat="46.20512" lon="-0.16021">
        <ele>98.3</ele>
        <time>2025-07-11T10:37:33.004000+02:00</time>
      </trkpt>
      <trkpt lat="46.20509" lon="-0.16012">
        <ele>98.7</ele>
        <time>2025-07-11T10:37:35.001000+02:00</time>
      </trkpt>
      <trkpt lat="46.20508" lon="-0.16007">
        <ele>99</ele>
        <time>2025-07-11T10:37:36.001000+02:00</time>
      </trkpt>
      <trkpt lat="46.20505" lon="-0.15997">
        <ele>99.5</ele>
        <time>2025-07-11T10:37:38.002000+02:00</time>
      </trkpt>
      <trkpt lat="46.20501" lon="-0.15988">
        <ele>99.9</ele>
        <time>2025-07-11T10:37:40.001000+02:00</time>
      </trkpt>
      <trkpt lat="46.20499" lon="-0.15985">
        <ele>100.1</ele>
        <time>2025-07-11T10:37:41.002000+02:00</time>
      </trkpt>
      <trkpt lat="46.20495" lon="-0.15977">
        <ele>100.3</ele>
        <time>2025-07-11T10:37:43.001000+02:00</time>
      </trkpt>
      <trkpt lat="46.20493" lon="-0.15973">
        <ele>100.5</ele>
        <time>2025-07-11T10:37:44.001000+02:00</time>
      </trkpt>
      <trkpt lat="46.20491" lon="-0.15969">
        <ele>100.7</ele>
        <time>2025-07-11T10:37:45.001000+02:00</time>
      </trkpt>
      <trkpt lat="46.2049" lon="-0.15965">
        <ele>100.8</ele>
        <time>2025-07-11T10:37:46.001000+02:00</time>
      </trkpt>
      <trkpt lat="46.20488" lon="-0.15961">
        <ele>101.1</ele>
        <time>2025-07-11T10:37:47.001000+02:00</time>
      </trkpt>
      <trkpt lat="46.20486" lon="-0.15957">
        <ele>101.3</ele>
        <time>2025-07-11T10:37:48.001000+02:00</time>
      </trkpt>
      <trkpt lat="46.20483" lon="-0.15949">
        <ele>101.7</ele>
        <time>2025-07-11T10:37:50.001000+02:00</time>
      </trkpt>
      <trkpt lat="46.20481" lon="-0.15945">
        <ele>102</ele>
        <time>2025-07-11T10:37:51.001000+02:00</time>
      </trkpt>
      <trkpt lat="46.2048" lon="-0.15942">
        <ele>102.3</ele>
        <time>2025-07-11T10:37:52.001000+02:00</time>
      </trkpt>
      <trkpt lat="46.20479" lon="-0.15938">
        <ele>102.5</ele>
        <time>2025-07-11T10:37:53.001000+02:00</time>
      </trkpt>
      <trkpt lat="46.20478" lon="-0.15934">
        <ele>102.7</ele>
        <time>2025-07-11T10:37:54.001000+02:00</time>
      </trkpt>
      <trkpt lat="46.20478" lon="-0.15926">
        <ele>103.1</ele>
        <time>2025-07-11T10:37:56.002000+02:00</time>
      </trkpt>
      <trkpt lat="46.20475" lon="-0.15918">
        <ele>103.6</ele>
        <time>2025-07-11T10:37:58.001000+02:00</time>
      </trkpt>
      <trkpt lat="46.20474" lon="-0.15914">
        <ele>103.8</ele>
        <time>2025-07-11T10:37:59.002000+02:00</time>
      </trkpt>
      <trkpt lat="46.20473" lon="-0.15909">
        <ele>103.9</ele>
        <time>2025-07-11T10:38:00.002000+02:00</time>
      </trkpt>
      <trkpt lat="46.20472" lon="-0.15905">
        <ele>104</ele>
        <time>2025-07-11T10:38:01.005000+02:00</time>
      </trkpt>
      <trkpt lat="46.20471" lon="-0.15898">
        <ele>104.1</ele>
        <time>2025-07-11T10:38:03.001000+02:00</time>
      </trkpt>
      <trkpt lat="46.20469" lon="-0.15889">
        <ele>104.4</ele>
        <time>2025-07-11T10:38:05.001000+02:00</time>
      </trkpt>
      <trkpt lat="46.20468" lon="-0.15885">
        <ele>104.6</ele>
        <time>2025-07-11T10:38:06.003000+02:00</time>
      </trkpt>
      <trkpt lat="46.20465" lon="-0.15878">
        <ele>105.1</ele>
        <time>2025-07-11T10:38:08.003000+02:00</time>
      </trkpt>
      <trkpt lat="46.20464" lon="-0.15874">
        <ele>105.2</ele>
        <time>2025-07-11T10:38:09.003000+02:00</time>
      </trkpt>
      <trkpt lat="46.20463" lon="-0.15867">
        <ele>105.5</ele>
        <time>2025-07-11T10:38:11.001000+02:00</time>
      </trkpt>
      <trkpt lat="46.20463" lon="-0.15863">
        <ele>105.6</ele>
        <time>2025-07-11T10:38:12.003000+02:00</time>
      </trkpt>
      <trkpt lat="46.20463" lon="-0.15855">
        <ele>105.9</ele>
        <time>2025-07-11T10:38:14.002000+02:00</time>
      </trkpt>
      <trkpt lat="46.20463" lon="-0.15846">
        <ele>106</ele>
        <time>2025-07-11T10:38:16.003000+02:00</time>
      </trkpt>
      <trkpt lat="46.20463" lon="-0.15839">
        <ele>106.2</ele>
        <time>2025-07-11T10:38:18.001000+02:00</time>
      </trkpt>
      <trkpt lat="46.20463" lon="-0.15834">
        <ele>106.3</ele>
        <time>2025-07-11T10:38:19.002000+02:00</time>
      </trkpt>
      <trkpt lat="46.20463" lon="-0.15829">
        <ele>106.4</ele>
        <time>2025-07-11T10:38:20.002000+02:00</time>
      </trkpt>
      <trkpt lat="46.20464" lon="-0.15825">
        <ele>106.4</ele>
        <time>2025-07-11T10:38:21.002000+02:00</time>
      </trkpt>
      <trkpt lat="46.20465" lon="-0.1582">
        <ele>106.5</ele>
        <time>2025-07-11T10:38:22.003000+02:00</time>
      </trkpt>
      <trkpt lat="46.20464" lon="-0.15811">
        <ele>107</ele>
        <time>2025-07-11T10:38:24.002000+02:00</time>
      </trkpt>
      <trkpt lat="46.20464" lon="-0.15803">
        <ele>107.2</ele>
        <time>2025-07-11T10:38:26.001000+02:00</time>
      </trkpt>
      <trkpt lat="46.20464" lon="-0.15798">
        <ele>107.1</ele>
        <time>2025-07-11T10:38:27.002000+02:00</time>
      </trkpt>
      <trkpt lat="46.20464" lon="-0.15793">
        <ele>106.9</ele>
        <time>2025-07-11T10:38:28.002000+02:00</time>
      </trkpt>
      <trkpt lat="46.20465" lon="-0.15789">
        <ele>106.8</ele>
        <time>2025-07-11T10:38:29.003000+02:00</time>
      </trkpt>
      <trkpt lat="46.20465" lon="-0.15784">
        <ele>106.6</ele>
        <time>2025-07-11T10:38:30.005000+02:00</time>
      </trkpt>
      <trkpt lat="46.20468" lon="-0.15775">
        <ele>106.3</ele>
        <time>2025-07-11T10:38:32.002000+02:00</time>
      </trkpt>
      <trkpt lat="46.20471" lon="-0.15766">
        <ele>106.1</ele>
        <time>2025-07-11T10:38:34+02:00</time>
      </trkpt>
      <trkpt lat="46.20473" lon="-0.15761">
        <ele>105.9</ele>
        <time>2025-07-11T10:38:35.002000+02:00</time>
      </trkpt>
      <trkpt lat="46.20475" lon="-0.15757">
        <ele>105.7</ele>
        <time>2025-07-11T10:38:36.002000+02:00</time>
      </trkpt>
      <trkpt lat="46.20478" lon="-0.15752">
        <ele>105.4</ele>
        <time>2025-07-11T10:38:37.002000+02:00</time>
      </trkpt>
      <trkpt lat="46.20479" lon="-0.15747">
        <ele>105.3</ele>
        <time>2025-07-11T10:38:38.002000+02:00</time>
      </trkpt>
      <trkpt lat="46.20481" lon="-0.15742">
        <ele>105.1</ele>
        <time>2025-07-11T10:38:39.002000+02:00</time>
      </trkpt>
      <trkpt lat="46.20485" lon="-0.15733">
        <ele>104.9</ele>
        <time>2025-07-11T10:38:41.001000+02:00</time>
      </trkpt>
      <trkpt lat="46.20486" lon="-0.15728">
        <ele>104.9</ele>
        <time>2025-07-11T10:38:42.001000+02:00</time>
      </trkpt>
      <trkpt lat="46.20487" lon="-0.15723">
        <ele>104.9</ele>
        <time>2025-07-11T10:38:43.001000+02:00</time>
      </trkpt>
      <trkpt lat="46.20489" lon="-0.15718">
        <ele>104.9</ele>
        <time>2025-07-11T10:38:44.002000+02:00</time>
      </trkpt>
      <trkpt lat="46.20493" lon="-0.15709">
        <ele>105</ele>
        <time>2025-07-11T10:38:46+02:00</time>
      </trkpt>
      <trkpt lat="46.20495" lon="-0.15705">
        <ele>105</ele>
        <time>2025-07-11T10:38:47.001000+02:00</time>
      </trkpt>
      <trkpt lat="46.20497" lon="-0.15699">
        <ele>105.1</ele>
        <time>2025-07-11T10:38:48.005000+02:00</time>
      </trkpt>
      <trkpt lat="46.20501" lon="-0.15688">
        <ele>105.1</ele>
        <time>2025-07-11T10:38:50.002000+02:00</time>
      </trkpt>
      <trkpt lat="46.20503" lon="-0.15683">
        <ele>105.1</ele>
        <time>2025-07-11T10:38:51.004000+02:00</time>
      </trkpt>
      <trkpt lat="46.20505" lon="-0.15677">
        <ele>105</ele>
        <time>2025-07-11T10:38:52.004000+02:00</time>
      </trkpt>
      <trkpt lat="46.20508" lon="-0.15665">
        <ele>104.9</ele>
        <time>2025-07-11T10:38:54.004000+02:00</time>
      </trkpt>
      <trkpt lat="46.2051" lon="-0.15654">
        <ele>104.7</ele>
        <time>2025-07-11T10:38:56.003000+02:00</time>
      </trkpt>
      <trkpt lat="46.20512" lon="-0.15649">
        <ele>104.6</ele>
        <time>2025-07-11T10:38:57.003000+02:00</time>
      </trkpt>
      <trkpt lat="46.20514" lon="-0.15644">
        <ele>104.4</ele>
        <time>2025-07-11T10:38:58.003000+02:00</time>
      </trkpt>
      <trkpt lat="46.20518" lon="-0.15632">
        <ele>104.3</ele>
        <time>2025-07-11T10:39:00.002000+02:00</time>
      </trkpt>
      <trkpt lat="46.2052" lon="-0.15627">
        <ele>104.2</ele>
        <time>2025-07-11T10:39:01.005000+02:00</time>
      </trkpt>
      <trkpt lat="46.20523" lon="-0.15621">
        <ele>104.1</ele>
        <time>2025-07-11T10:39:02.005000+02:00</time>
      </trkpt>
      <trkpt lat="46.20528" lon="-0.15612">
        <ele>104</ele>
        <time>2025-07-11T10:39:04.003000+02:00</time>
      </trkpt>
      <trkpt lat="46.2053" lon="-0.15602">
        <ele>103.7</ele>
        <time>2025-07-11T10:39:06.002000+02:00</time>
      </trkpt>
      <trkpt lat="46.20535" lon="-0.1559">
        <ele>103.1</ele>
        <time>2025-07-11T10:39:08.002000+02:00</time>
      </trkpt>
      <trkpt lat="46.20538" lon="-0.15584">
        <ele>102.9</ele>
        <time>2025-07-11T10:39:09.002000+02:00</time>
      </trkpt>
      <trkpt lat="46.2054" lon="-0.15578">
        <ele>102.8</ele>
        <time>2025-07-11T10:39:10.002000+02:00</time>
      </trkpt>
      <trkpt lat="46.20542" lon="-0.15572">
        <ele>102.6</ele>
        <time>2025-07-11T10:39:11.005000+02:00</time>
      </trkpt>
      <trkpt lat="46.20547" lon="-0.15561">
        <ele>102.5</ele>
        <time>2025-07-11T10:39:13.002000+02:00</time>
      </trkpt>
      <trkpt lat="46.2055" lon="-0.15555">
        <ele>102.4</ele>
        <time>2025-07-11T10:39:14.004000+02:00</time>
      </trkpt>
      <trkpt lat="46.20552" lon="-0.15549">
        <ele>102.7</ele>
        <time>2025-07-11T10:39:15.004000+02:00</time>
      </trkpt>
      <trkpt lat="46.20556" lon="-0.15538">
        <ele>103.3</ele>
        <time>2025-07-11T10:39:17.002000+02:00</time>
      </trkpt>
      <trkpt lat="46.20558" lon="-0.15528">
        <ele>103.7</ele>
        <time>2025-07-11T10:39:19.001000+02:00</time>
      </trkpt>
      <trkpt lat="46.20559" lon="-0.15522">
        <ele>103.1</ele>
        <time>2025-07-11T10:39:20.002000+02:00</time>
      </trkpt>
      <trkpt lat="46.20562" lon="-0.15517">
        <ele>102.6</ele>
        <time>2025-07-11T10:39:21.002000+02:00</time>
      </trkpt>
      <trkpt lat="46.20564" lon="-0.15512">
        <ele>102.2</ele>
        <time>2025-07-11T10:39:22.003000+02:00</time>
      </trkpt>
      <trkpt lat="46.20567" lon="-0.15501">
        <ele>101.6</ele>
        <time>2025-07-11T10:39:24.003000+02:00</time>
      </trkpt>
      <trkpt lat="46.20569" lon="-0.15495">
        <ele>101.8</ele>
        <time>2025-07-11T10:39:25.003000+02:00</time>
      </trkpt>
      <trkpt lat="46.20571" lon="-0.1549">
        <ele>102</ele>
        <time>2025-07-11T10:39:26.003000+02:00</time>
      </trkpt>
      <trkpt lat="46.20573" lon="-0.15485">
        <ele>102.2</ele>
        <time>2025-07-11T10:39:27.003000+02:00</time>
      </trkpt>
      <trkpt lat="46.20575" lon="-0.15481">
        <ele>102.5</ele>
        <time>2025-07-11T10:39:28.003000+02:00</time>
      </trkpt>
      <trkpt lat="46.20579" lon="-0.1547">
        <ele>103.2</ele>
        <time>2025-07-11T10:39:30.003000+02:00</time>
      </trkpt>
      <trkpt lat="46.20581" lon="-0.15464">
        <ele>103.6</ele>
        <time>2025-07-11T10:39:31.004000+02:00</time>
      </trkpt>
      <trkpt lat="46.20585" lon="-0.15455">
        <ele>104.2</ele>
        <time>2025-07-11T10:39:33.003000+02:00</time>
      </trkpt>
      <trkpt lat="46.20586" lon="-0.15449">
        <ele>104.5</ele>
        <time>2025-07-11T10:39:34.003000+02:00</time>
      </trkpt>
      <trkpt lat="46.20588" lon="-0.15444">
        <ele>104.7</ele>
        <time>2025-07-11T10:39:35.003000+02:00</time>
      </trkpt>
      <trkpt lat="46.20591" lon="-0.15434">
        <ele>104.8</ele>
        <time>2025-07-11T10:39:37.002000+02:00</time>
      </trkpt>
      <trkpt lat="46.20594" lon="-0.15424">
        <ele>104.9</ele>
        <time>2025-07-11T10:39:39.001000+02:00</time>
      </trkpt>
      <trkpt lat="46.20596" lon="-0.1542">
        <ele>105</ele>
        <time>2025-07-11T10:39:40.001000+02:00</time>
      </trkpt>
      <trkpt lat="46.20597" lon="-0.15415">
        <ele>105.1</ele>
        <time>2025-07-11T10:39:41.002000+02:00</time>
      </trkpt>
      <trkpt lat="46.20598" lon="-0.15411">
        <ele>105.2</ele>
        <time>2025-07-11T10:39:42.004000+02:00</time>
      </trkpt>
      <trkpt lat="46.20602" lon="-0.15402">
        <ele>105.2</ele>
        <time>2025-07-11T10:39:44.003000+02:00</time>
      </trkpt>
      <trkpt lat="46.20606" lon="-0.15392">
        <ele>104.8</ele>
        <time>2025-07-11T10:39:46.002000+02:00</time>
      </trkpt>
      <trkpt lat="46.20607" lon="-0.15387">
        <ele>104.8</ele>
        <time>2025-07-11T10:39:47.002000+02:00</time>
      </trkpt>
      <trkpt lat="46.20609" lon="-0.15381">
        <ele>104.8</ele>
        <time>2025-07-11T10:39:48.002000+02:00</time>
      </trkpt>
      <trkpt lat="46.20612" lon="-0.15371">
        <ele>104.6</ele>
        <time>2025-07-11T10:39:50.001000+02:00</time>
      </trkpt>
      <trkpt lat="46.20614" lon="-0.15366">
        <ele>104.6</ele>
        <time>2025-07-11T10:39:51.002000+02:00</time>
      </trkpt>
      <trkpt lat="46.20616" lon="-0.15361">
        <ele>104.7</ele>
        <time>2025-07-11T10:39:52.002000+02:00</time>
      </trkpt>
      <trkpt lat="46.20618" lon="-0.15355">
        <ele>104.8</ele>
        <time>2025-07-11T10:39:53.003000+02:00</time>
      </trkpt>
      <trkpt lat="46.20623" lon="-0.15346">
        <ele>104.8</ele>
        <time>2025-07-11T10:39:55.003000+02:00</time>
      </trkpt>
      <trkpt lat="46.20628" lon="-0.15334">
        <ele>104.6</ele>
        <time>2025-07-11T10:39:57.005000+02:00</time>
      </trkpt>
      <trkpt lat="46.20631" lon="-0.15324">
        <ele>104.7</ele>
        <time>2025-07-11T10:39:59.002000+02:00</time>
      </trkpt>
      <trkpt lat="46.20633" lon="-0.15318">
        <ele>104.6</ele>
        <time>2025-07-11T10:40:00.003000+02:00</time>
      </trkpt>
      <trkpt lat="46.20636" lon="-0.15313">
        <ele>104.4</ele>
        <time>2025-07-11T10:40:01.003000+02:00</time>
      </trkpt>
      <trkpt lat="46.2064" lon="-0.15304">
        <ele>104</ele>
        <time>2025-07-11T10:40:03.001000+02:00</time>
      </trkpt>
      <trkpt lat="46.20642" lon="-0.15294">
        <ele>104.2</ele>
        <time>2025-07-11T10:40:05.002000+02:00</time>
      </trkpt>
      <trkpt lat="46.20644" lon="-0.15289">
        <ele>104.3</ele>
        <time>2025-07-11T10:40:06.002000+02:00</time>
      </trkpt>
      <trkpt lat="46.20649" lon="-0.15279">
        <ele>104.2</ele>
        <time>2025-07-11T10:40:08.001000+02:00</time>
      </trkpt>
      <trkpt lat="46.20651" lon="-0.15274">
        <ele>104.4</ele>
        <time>2025-07-11T10:40:09.002000+02:00</time>
      </trkpt>
      <trkpt lat="46.20655" lon="-0.15264">
        <ele>104.7</ele>
        <time>2025-07-11T10:40:11.002000+02:00</time>
      </trkpt>
      <trkpt lat="46.20657" lon="-0.15259">
        <ele>104.8</ele>
        <time>2025-07-11T10:40:12.002000+02:00</time>
      </trkpt>
      <trkpt lat="46.2066" lon="-0.15255">
        <ele>104.8</ele>
        <time>2025-07-11T10:40:13.004000+02:00</time>
      </trkpt>
      <trkpt lat="46.20663" lon="-0.1525">
        <ele>104.6</ele>
        <time>2025-07-11T10:40:14.004000+02:00</time>
      </trkpt>
      <trkpt lat="46.20669" lon="-0.1524">
        <ele>104.1</ele>
        <time>2025-07-11T10:40:16.003000+02:00</time>
      </trkpt>
      <trkpt lat="46.20675" lon="-0.15231">
        <ele>103.7</ele>
        <time>2025-07-11T10:40:18.003000+02:00</time>
      </trkpt>
      <trkpt lat="46.20678" lon="-0.15226">
        <ele>103.6</ele>
        <time>2025-07-11T10:40:19.003000+02:00</time>
      </trkpt>
      <trkpt lat="46.20681" lon="-0.15221">
        <ele>103.5</ele>
        <time>2025-07-11T10:40:20.003000+02:00</time>
      </trkpt>
      <trkpt lat="46.20683" lon="-0.15217">
        <ele>103.4</ele>
        <time>2025-07-11T10:40:21.004000+02:00</time>
      </trkpt>
      <trkpt lat="46.20687" lon="-0.15208">
        <ele>103.3</ele>
        <time>2025-07-11T10:40:23.003000+02:00</time>
      </trkpt>
      <trkpt lat="46.20689" lon="-0.15203">
        <ele>103.2</ele>
        <time>2025-07-11T10:40:24.004000+02:00</time>
      </trkpt>
      <trkpt lat="46.20695" lon="-0.15192">
        <ele>103.1</ele>
        <time>2025-07-11T10:40:26.004000+02:00</time>
      </trkpt>
      <trkpt lat="46.20701" lon="-0.15183">
        <ele>103.1</ele>
        <time>2025-07-11T10:40:28.003000+02:00</time>
      </trkpt>
      <trkpt lat="46.20704" lon="-0.15178">
        <ele>103.1</ele>
        <time>2025-07-11T10:40:29.003000+02:00</time>
      </trkpt>
      <trkpt lat="46.20712" lon="-0.15169">
        <ele>103</ele>
        <time>2025-07-11T10:40:31.002000+02:00</time>
      </trkpt>
      <trkpt lat="46.20715" lon="-0.15165">
        <ele>102.9</ele>
        <time>2025-07-11T10:40:32.003000+02:00</time>
      </trkpt>
      <trkpt lat="46.20718" lon="-0.15161">
        <ele>102.9</ele>
        <time>2025-07-11T10:40:33.004000+02:00</time>
      </trkpt>
      <trkpt lat="46.20725" lon="-0.15153">
        <ele>102.7</ele>
        <time>2025-07-11T10:40:35.004000+02:00</time>
      </trkpt>
      <trkpt lat="46.20728" lon="-0.1515">
        <ele>102.7</ele>
        <time>2025-07-11T10:40:36.004000+02:00</time>
      </trkpt>
      <trkpt lat="46.20734" lon="-0.15142">
        <ele>102.9</ele>
        <time>2025-07-11T10:40:38.003000+02:00</time>
      </trkpt>
      <trkpt lat="46.20737" lon="-0.15138">
        <ele>103</ele>
        <time>2025-07-11T10:40:39.004000+02:00</time>
      </trkpt>
      <trkpt lat="46.20744" lon="-0.1513">
        <ele>103</ele>
        <time>2025-07-11T10:40:41.002000+02:00</time>
      </trkpt>
      <trkpt lat="46.20747" lon="-0.15126">
        <ele>103</ele>
        <time>2025-07-11T10:40:42.003000+02:00</time>
      </trkpt>
      <trkpt lat="46.20751" lon="-0.15123">
        <ele>103.1</ele>
        <time>2025-07-11T10:40:43.003000+02:00</time>
      </trkpt>
      <trkpt lat="46.20755" lon="-0.15119">
        <ele>103.1</ele>
        <time>2025-07-11T10:40:44.003000+02:00</time>
      </trkpt>
      <trkpt lat="46.20758" lon="-0.15115">
        <ele>103.1</ele>
        <time>2025-07-11T10:40:45.007000+02:00</time>
      </trkpt>
      <trkpt lat="46.20766" lon="-0.15108">
        <ele>103</ele>
        <time>2025-07-11T10:40:47.002000+02:00</time>
      </trkpt>
      <trkpt lat="46.20769" lon="-0.15105">
        <ele>103</ele>
        <time>2025-07-11T10:40:48.002000+02:00</time>
      </trkpt>
      <trkpt lat="46.20777" lon="-0.151">
        <ele>102.9</ele>
        <time>2025-07-11T10:40:50.001000+02:00</time>
      </trkpt>
      <trkpt lat="46.2078" lon="-0.15097">
        <ele>102.8</ele>
        <time>2025-07-11T10:40:51.002000+02:00</time>
      </trkpt>
      <trkpt lat="46.20787" lon="-0.1509">
        <ele>102.8</ele>
        <time>2025-07-11T10:40:53.001000+02:00</time>
      </trkpt>
      <trkpt lat="46.2079" lon="-0.15087">
        <ele>102.9</ele>
        <time>2025-07-11T10:40:54.002000+02:00</time>
      </trkpt>
      <trkpt lat="46.20796" lon="-0.1508">
        <ele>102.9</ele>
        <time>2025-07-11T10:40:56.002000+02:00</time>
      </trkpt>
      <trkpt lat="46.20799" lon="-0.15077">
        <ele>102.9</ele>
        <time>2025-07-11T10:40:57.002000+02:00</time>
      </trkpt>
      <trkpt lat="46.20806" lon="-0.15071">
        <ele>102.9</ele>
        <time>2025-07-11T10:40:59.001000+02:00</time>
      </trkpt>
      <trkpt lat="46.20809" lon="-0.15068">
        <ele>103</ele>
        <time>2025-07-11T10:41:00.003000+02:00</time>
      </trkpt>
      <trkpt lat="46.20812" lon="-0.15064">
        <ele>103.1</ele>
        <time>2025-07-11T10:41:01.003000+02:00</time>
      </trkpt>
      <trkpt lat="46.20815" lon="-0.15061">
        <ele>103.2</ele>
        <time>2025-07-11T10:41:02.005000+02:00</time>
      </trkpt>
      <trkpt lat="46.20823" lon="-0.15054">
        <ele>103.5</ele>
        <time>2025-07-11T10:41:04.003000+02:00</time>
      </trkpt>
      <trkpt lat="46.20827" lon="-0.15051">
        <ele>103.4</ele>
        <time>2025-07-11T10:41:05.005000+02:00</time>
      </trkpt>
      <trkpt lat="46.20834" lon="-0.15045">
        <ele>103.3</ele>
        <time>2025-07-11T10:41:07.004000+02:00</time>
      </trkpt>
      <trkpt lat="46.20837" lon="-0.15042">
        <ele>103.3</ele>
        <time>2025-07-11T10:41:08.004000+02:00</time>
      </trkpt>
      <trkpt lat="46.20844" lon="-0.15038">
        <ele>103.3</ele>
        <time>2025-07-11T10:41:10.004000+02:00</time>
      </trkpt>
      <trkpt lat="46.20852" lon="-0.15032">
        <ele>103.5</ele>
        <time>2025-07-11T10:41:12.002000+02:00</time>
      </trkpt>
      <trkpt lat="46.20855" lon="-0.1503">
        <ele>103.8</ele>
        <time>2025-07-11T10:41:13.003000+02:00</time>
      </trkpt>
      <trkpt lat="46.20862" lon="-0.15026">
        <ele>104</ele>
        <time>2025-07-11T10:41:15.004000+02:00</time>
      </trkpt>
      <trkpt lat="46.20869" lon="-0.15025">
        <ele>103.9</ele>
        <time>2025-07-11T10:41:17.002000+02:00</time>
      </trkpt>
      <trkpt lat="46.20872" lon="-0.15024">
        <ele>103.8</ele>
        <time>2025-07-11T10:41:18.003000+02:00</time>
      </trkpt>
      <trkpt lat="46.20875" lon="-0.15024">
        <ele>103.7</ele>
        <time>2025-07-11T10:41:19.003000+02:00</time>
      </trkpt>
      <trkpt lat="46.20878" lon="-0.15023">
        <ele>103.7</ele>
        <time>2025-07-11T10:41:20.003000+02:00</time>
      </trkpt>
      <trkpt lat="46.20882" lon="-0.15022">
        <ele>103.6</ele>
        <time>2025-07-11T10:41:21.003000+02:00</time>
      </trkpt>
      <trkpt lat="46.20885" lon="-0.1502">
        <ele>103.7</ele>
        <time>2025-07-11T10:41:22.003000+02:00</time>
      </trkpt>
      <trkpt lat="46.20891" lon="-0.15019">
        <ele>103.6</ele>
        <time>2025-07-11T10:41:24.003000+02:00</time>
      </trkpt>
      <trkpt lat="46.20894" lon="-0.15018">
        <ele>103.6</ele>
        <time>2025-07-11T10:41:25.003000+02:00</time>
      </trkpt>
      <trkpt lat="46.20897" lon="-0.15017">
        <ele>103.6</ele>
        <time>2025-07-11T10:41:26.003000+02:00</time>
      </trkpt>
      <trkpt lat="46.209" lon="-0.15016">
        <ele>103.6</ele>
        <time>2025-07-11T10:41:27.004000+02:00</time>
      </trkpt>
      <trkpt lat="46.20905" lon="-0.15013">
        <ele>103.8</ele>
        <time>2025-07-11T10:41:29+02:00</time>
      </trkpt>
      <trkpt lat="46.20906" lon="-0.15012">
        <ele>103.9</ele>
        <time>2025-07-11T10:41:30.002000+02:00</time>
      </trkpt>
      <trkpt lat="46.20911" lon="-0.15011">
        <ele>103.9</ele>
        <time>2025-07-11T10:41:32.003000+02:00</time>
      </trkpt>
      <trkpt lat="46.20917" lon="-0.15011">
        <ele>103.8</ele>
        <time>2025-07-11T10:41:34.001000+02:00</time>
      </trkpt>
      <trkpt lat="46.20918" lon="-0.15013">
        <ele>104</ele>
        <time>2025-07-11T10:41:35.002000+02:00</time>
      </trkpt>
      <trkpt lat="46.2092" lon="-0.15018">
        <ele>103.9</ele>
        <time>2025-07-11T10:41:37+02:00</time>
      </trkpt>
      <trkpt lat="46.20921" lon="-0.1502">
        <ele>103.7</ele>
        <time>2025-07-11T10:41:38.002000+02:00</time>
      </trkpt>
      <trkpt lat="46.20923" lon="-0.15027">
        <ele>103.1</ele>
        <time>2025-07-11T10:41:40.001000+02:00</time>
      </trkpt>
      <trkpt lat="46.20923" lon="-0.15031">
        <ele>102.6</ele>
        <time>2025-07-11T10:41:41.001000+02:00</time>
      </trkpt>
      <trkpt lat="46.20924" lon="-0.15037">
        <ele>101.9</ele>
        <time>2025-07-11T10:41:42.001000+02:00</time>
      </trkpt>
      <trkpt lat="46.20924" lon="-0.15049">
        <ele>100.2</ele>
        <time>2025-07-11T10:41:44.002000+02:00</time>
      </trkpt>
      <trkpt lat="46.20925" lon="-0.15054">
        <ele>99.4</ele>
        <time>2025-07-11T10:41:45.002000+02:00</time>
      </trkpt>
      <trkpt lat="46.20925" lon="-0.1506">
        <ele>98.6</ele>
        <time>2025-07-11T10:41:46.002000+02:00</time>
      </trkpt>
      <trkpt lat="46.20925" lon="-0.15066">
        <ele>97.9</ele>
        <time>2025-07-11T10:41:47.003000+02:00</time>
      </trkpt>
      <trkpt lat="46.20925" lon="-0.15072">
        <ele>97.2</ele>
        <time>2025-07-11T10:41:48.003000+02:00</time>
      </trkpt>
      <trkpt lat="46.20925" lon="-0.15078">
        <ele>96.5</ele>
        <time>2025-07-11T10:41:49.003000+02:00</time>
      </trkpt>
      <trkpt lat="46.20925" lon="-0.15084">
        <ele>95.9</ele>
        <time>2025-07-11T10:41:50.003000+02:00</time>
      </trkpt>
      <trkpt lat="46.20925" lon="-0.15089">
        <ele>95.3</ele>
        <time>2025-07-11T10:41:51.003000+02:00</time>
      </trkpt>
      <trkpt lat="46.20926" lon="-0.15094">
        <ele>94.7</ele>
        <time>2025-07-11T10:41:52.003000+02:00</time>
      </trkpt>
      <trkpt lat="46.20927" lon="-0.15098">
        <ele>94.2</ele>
        <time>2025-07-11T10:41:53.003000+02:00</time>
      </trkpt>
      <trkpt lat="46.20928" lon="-0.15105">
        <ele>93.4</ele>
        <time>2025-07-11T10:41:55.004000+02:00</time>
      </trkpt>
      <trkpt lat="46.20929" lon="-0.15108">
        <ele>92.9</ele>
        <time>2025-07-11T10:41:57.003000+02:00</time>
      </trkpt>
      <trkpt lat="46.20929" lon="-0.15109">
        <ele>92.8</ele>
        <time>2025-07-11T10:41:58.003000+02:00</time>
      </trkpt>
      <trkpt lat="46.20929" lon="-0.1511">
        <ele>92.7</ele>
        <time>2025-07-11T10:41:59.003000+02:00</time>
      </trkpt>
      <trkpt lat="46.20929" lon="-0.15111">
        <ele>92.7</ele>
        <time>2025-07-11T10:42:00.003000+02:00</time>
      </trkpt>
      <trkpt lat="46.20927" lon="-0.15106">
        <ele>93.3</ele>
        <time>2025-07-11T10:42:11.003000+02:00</time>
      </trkpt>
      <trkpt lat="46.20926" lon="-0.15104">
        <ele>93.5</ele>
        <time>2025-07-11T10:42:12.004000+02:00</time>
      </trkpt>
      <trkpt lat="46.20926" lon="-0.15101">
        <ele>93.9</ele>
        <time>2025-07-11T10:42:14.003000+02:00</time>
      </trkpt>
      <trkpt lat="46.20926" lon="-0.15101">
        <ele>93.9</ele>
        <time>2025-07-11T10:42:15.004000+02:00</time>
      </trkpt>
      <trkpt lat="46.20926" lon="-0.15098">
        <ele>94.3</ele>
        <time>2025-07-11T10:42:17.003000+02:00</time>
      </trkpt>
      <trkpt lat="46.20927" lon="-0.15096">
        <ele>94.5</ele>
        <time>2025-07-11T10:42:18.003000+02:00</time>
      </trkpt>
      <trkpt lat="46.20926" lon="-0.15093">
        <ele>94.8</ele>
        <time>2025-07-11T10:42:20.001000+02:00</time>
      </trkpt>
      <trkpt lat="46.20926" lon="-0.15092">
        <ele>95</ele>
        <time>2025-07-11T10:42:21.002000+02:00</time>
      </trkpt>
      <trkpt lat="46.20926" lon="-0.15089">
        <ele>95.3</ele>
        <time>2025-07-11T10:42:23.002000+02:00</time>
      </trkpt>
      <trkpt lat="46.20927" lon="-0.15086">
        <ele>95.8</ele>
        <time>2025-07-11T10:42:25.001000+02:00</time>
      </trkpt>
      <trkpt lat="46.20927" lon="-0.15084">
        <ele>96</ele>
        <time>2025-07-11T10:42:26.001000+02:00</time>
      </trkpt>
      <trkpt lat="46.20927" lon="-0.15083">
        <ele>96.2</ele>
        <time>2025-07-11T10:42:27.002000+02:00</time>
      </trkpt>
      <trkpt lat="46.20928" lon="-0.15079">
        <ele>96.7</ele>
        <time>2025-07-11T10:42:29+02:00</time>
      </trkpt>
      <trkpt lat="46.20928" lon="-0.15077">
        <ele>97</ele>
        <time>2025-07-11T10:42:30.001000+02:00</time>
      </trkpt>
      <trkpt lat="46.20928" lon="-0.15075">
        <ele>97.2</ele>
        <time>2025-07-11T10:42:31.001000+02:00</time>
      </trkpt>
      <trkpt lat="46.20928" lon="-0.15073">
        <ele>97.5</ele>
        <time>2025-07-11T10:42:32.001000+02:00</time>
      </trkpt>
      <trkpt lat="46.20928" lon="-0.15071">
        <ele>97.7</ele>
        <time>2025-07-11T10:42:33.002000+02:00</time>
      </trkpt>
      <trkpt lat="46.20928" lon="-0.15068">
        <ele>98.1</ele>
        <time>2025-07-11T10:42:35.002000+02:00</time>
      </trkpt>
      <trkpt lat="46.20928" lon="-0.15066">
        <ele>98.3</ele>
        <time>2025-07-11T10:42:36.002000+02:00</time>
      </trkpt>
      <trkpt lat="46.20928" lon="-0.15065">
        <ele>98.4</ele>
        <time>2025-07-11T10:42:37.002000+02:00</time>
      </trkpt>
      <trkpt lat="46.20927" lon="-0.15062">
        <ele>98.7</ele>
        <time>2025-07-11T10:42:39.002000+02:00</time>
      </trkpt>
      <trkpt lat="46.20927" lon="-0.15059">
        <ele>99</ele>
        <time>2025-07-11T10:42:41.002000+02:00</time>
      </trkpt>
      <trkpt lat="46.20927" lon="-0.15057">
        <ele>99.3</ele>
        <time>2025-07-11T10:42:43+02:00</time>
      </trkpt>
      <trkpt lat="46.20927" lon="-0.15057">
        <ele>99.3</ele>
        <time>2025-07-11T10:42:44.001000+02:00</time>
      </trkpt>
      <trkpt lat="46.20927" lon="-0.15057">
        <ele>99.3</ele>
        <time>2025-07-11T10:42:45.002000+02:00</time>
      </trkpt>
      <trkpt lat="46.20926" lon="-0.15045">
        <ele>100.9</ele>
        <time>2025-07-11T10:42:55.001000+02:00</time>
      </trkpt>
      <trkpt lat="46.20925" lon="-0.15043">
        <ele>101.2</ele>
        <time>2025-07-11T10:42:56.002000+02:00</time>
      </trkpt>
      <trkpt lat="46.20925" lon="-0.15041">
        <ele>101.5</ele>
        <time>2025-07-11T10:42:57.002000+02:00</time>
      </trkpt>
      <trkpt lat="46.20925" lon="-0.1504">
        <ele>101.6</ele>
        <time>2025-07-11T10:42:59.001000+02:00</time>
      </trkpt>
      <trkpt lat="46.20925" lon="-0.1504">
        <ele>101.6</ele>
        <time>2025-07-11T10:43:00.002000+02:00</time>
      </trkpt>
      <trkpt lat="46.20924" lon="-0.15028">
        <ele>103.3</ele>
        <time>2025-07-11T10:43:10+02:00</time>
      </trkpt>
      <trkpt lat="46.20925" lon="-0.15026">
        <ele>103.7</ele>
        <time>2025-07-11T10:43:11.001000+02:00</time>
      </trkpt>
      <trkpt lat="46.20925" lon="-0.15024">
        <ele>104.1</ele>
        <time>2025-07-11T10:43:12.001000+02:00</time>
      </trkpt>
      <trkpt lat="46.20925" lon="-0.15023">
        <ele>104.3</ele>
        <time>2025-07-11T10:43:13.001000+02:00</time>
      </trkpt>
      <trkpt lat="46.20925" lon="-0.15023">
        <ele>104.3</ele>
        <time>2025-07-11T10:43:15.002000+02:00</time>
      </trkpt>
      <trkpt lat="46.20925" lon="-0.15023">
        <ele>104.3</ele>
        <time>2025-07-11T10:43:16.002000+02:00</time>
      </trkpt>
      <trkpt lat="46.2093" lon="-0.15014">
        <ele>106.7</ele>
        <time>2025-07-11T10:43:32.001000+02:00</time>
      </trkpt>
      <trkpt lat="46.20932" lon="-0.15013">
        <ele>107.2</ele>
        <time>2025-07-11T10:43:33.002000+02:00</time>
      </trkpt>
      <trkpt lat="46.20933" lon="-0.15013">
        <ele>107.4</ele>
        <time>2025-07-11T10:43:35.002000+02:00</time>
      </trkpt>
      <trkpt lat="46.20933" lon="-0.15013">
        <ele>107.5</ele>
        <time>2025-07-11T10:43:37.001000+02:00</time>
      </trkpt>
      <trkpt lat="46.20934" lon="-0.15017">
        <ele>107</ele>
        <time>2025-07-11T10:43:39.002000+02:00</time>
      </trkpt>
      <trkpt lat="46.20936" lon="-0.15023">
        <ele>106.4</ele>
        <time>2025-07-11T10:43:41.001000+02:00</time>
      </trkpt>
      <trkpt lat="46.20937" lon="-0.15026">
        <ele>106</ele>
        <time>2025-07-11T10:43:42.001000+02:00</time>
      </trkpt>
      <trkpt lat="46.20939" lon="-0.15033">
        <ele>105</ele>
        <time>2025-07-11T10:43:44.001000+02:00</time>
      </trkpt>
      <trkpt lat="46.2094" lon="-0.15036">
        <ele>104.7</ele>
        <time>2025-07-11T10:43:45.002000+02:00</time>
      </trkpt>
      <trkpt lat="46.20942" lon="-0.15043">
        <ele>103.8</ele>
        <time>2025-07-11T10:43:47+02:00</time>
      </trkpt>
      <trkpt lat="46.20943" lon="-0.15046">
        <ele>103.4</ele>
        <time>2025-07-11T10:43:48+02:00</time>
      </trkpt>
      <trkpt lat="46.20943" lon="-0.1505">
        <ele>102.8</ele>
        <time>2025-07-11T10:43:49.001000+02:00</time>
      </trkpt>
      <trkpt lat="46.20944" lon="-0.15054">
        <ele>102.3</ele>
        <time>2025-07-11T10:43:50.001000+02:00</time>
      </trkpt>
      <trkpt lat="46.20945" lon="-0.15058">
        <ele>102.1</ele>
        <time>2025-07-11T10:43:51.001000+02:00</time>
      </trkpt>
      <trkpt lat="46.20947" lon="-0.15061">
        <ele>102.2</ele>
        <time>2025-07-11T10:43:52.001000+02:00</time>
      </trkpt>
      <trkpt lat="46.2095" lon="-0.1507">
        <ele>102.3</ele>
        <time>2025-07-11T10:43:54.001000+02:00</time>
      </trkpt>
      <trkpt lat="46.20951" lon="-0.15073">
        <ele>102.4</ele>
        <time>2025-07-11T10:43:55.001000+02:00</time>
      </trkpt>
      <trkpt lat="46.20952" lon="-0.15078">
        <ele>102.5</ele>
        <time>2025-07-11T10:43:56.003000+02:00</time>
      </trkpt>
      <trkpt lat="46.20955" lon="-0.15086">
        <ele>102.2</ele>
        <time>2025-07-11T10:43:58.003000+02:00</time>
      </trkpt>
      <trkpt lat="46.20958" lon="-0.15095">
        <ele>101.5</ele>
        <time>2025-07-11T10:44:00.004000+02:00</time>
      </trkpt>
      <trkpt lat="46.20961" lon="-0.15103">
        <ele>100.8</ele>
        <time>2025-07-11T10:44:02.002000+02:00</time>
      </trkpt>
      <trkpt lat="46.20961" lon="-0.15107">
        <ele>100.3</ele>
        <time>2025-07-11T10:44:03.003000+02:00</time>
      </trkpt>
      <trkpt lat="46.20961" lon="-0.15108">
        <ele>100</ele>
        <time>2025-07-11T10:44:05.001000+02:00</time>
      </trkpt>
      <trkpt lat="46.20961" lon="-0.15108">
        <ele>99.9</ele>
        <time>2025-07-11T10:44:06.001000+02:00</time>
      </trkpt>
      <trkpt lat="46.20961" lon="-0.15108">
        <ele>99.9</ele>
        <time>2025-07-11T10:44:07.001000+02:00</time>
      </trkpt>
      <trkpt lat="46.20961" lon="-0.15108">
        <ele>99.9</ele>
        <time>2025-07-11T10:44:08.002000+02:00</time>
      </trkpt>
      <trkpt lat="46.20965" lon="-0.15114">
        <ele>100.7</ele>
        <time>2025-07-11T10:44:50.001000+02:00</time>
      </trkpt>
      <trkpt lat="46.20967" lon="-0.15117">
        <ele>101.2</ele>
        <time>2025-07-11T10:44:51.002000+02:00</time>
      </trkpt>
      <trkpt lat="46.20968" lon="-0.1512">
        <ele>101.4</ele>
        <time>2025-07-11T10:44:52.003000+02:00</time>
      </trkpt>
      <trkpt lat="46.2097" lon="-0.15127">
        <ele>101.4</ele>
        <time>2025-07-11T10:44:54.002000+02:00</time>
      </trkpt>
      <trkpt lat="46.20972" lon="-0.15134">
        <ele>101.4</ele>
        <time>2025-07-11T10:44:56.001000+02:00</time>
      </trkpt>
      <trkpt lat="46.20973" lon="-0.15137">
        <ele>101.5</ele>
        <time>2025-07-11T10:44:57.002000+02:00</time>
      </trkpt>
      <trkpt lat="46.20976" lon="-0.15143">
        <ele>102</ele>
        <time>2025-07-11T10:44:59.001000+02:00</time>
      </trkpt>
      <trkpt lat="46.20977" lon="-0.15147">
        <ele>102.3</ele>
        <time>2025-07-11T10:45:00.002000+02:00</time>
      </trkpt>
      <trkpt lat="46.20979" lon="-0.1515">
        <ele>102.6</ele>
        <time>2025-07-11T10:45:01.002000+02:00</time>
      </trkpt>
      <trkpt lat="46.2098" lon="-0.15154">
        <ele>102.9</ele>
        <time>2025-07-11T10:45:02.003000+02:00</time>
      </trkpt>
      <trkpt lat="46.20983" lon="-0.15161">
        <ele>103.5</ele>
        <time>2025-07-11T10:45:04.001000+02:00</time>
      </trkpt>
      <trkpt lat="46.20985" lon="-0.15164">
        <ele>103.8</ele>
        <time>2025-07-11T10:45:05.002000+02:00</time>
      </trkpt>
      <trkpt lat="46.20986" lon="-0.15168">
        <ele>103.9</ele>
        <time>2025-07-11T10:45:06.002000+02:00</time>
      </trkpt>
      <trkpt lat="46.20987" lon="-0.15171">
        <ele>104</ele>
        <time>2025-07-11T10:45:07.002000+02:00</time>
      </trkpt>
      <trkpt lat="46.20988" lon="-0.15174">
        <ele>104.1</ele>
        <time>2025-07-11T10:45:08.002000+02:00</time>
      </trkpt>
      <trkpt lat="46.20989" lon="-0.15177">
        <ele>104.2</ele>
        <time>2025-07-11T10:45:09.002000+02:00</time>
      </trkpt>
      <trkpt lat="46.20991" lon="-0.15182">
        <ele>104.3</ele>
        <time>2025-07-11T10:45:11.003000+02:00</time>
      </trkpt>
      <trkpt lat="46.20993" lon="-0.15187">
        <ele>104.1</ele>
        <time>2025-07-11T10:45:13.002000+02:00</time>
      </trkpt>
      <trkpt lat="46.20994" lon="-0.1519">
        <ele>104</ele>
        <time>2025-07-11T10:45:14.002000+02:00</time>
      </trkpt>
      <trkpt lat="46.20995" lon="-0.15192">
        <ele>103.9</ele>
        <time>2025-07-11T10:45:15.003000+02:00</time>
      </trkpt>
      <trkpt lat="46.20997" lon="-0.15196">
        <ele>103.7</ele>
        <time>2025-07-11T10:45:17+02:00</time>
      </trkpt>
      <trkpt lat="46.20998" lon="-0.15198">
        <ele>103.8</ele>
        <time>2025-07-11T10:45:18.001000+02:00</time>
      </trkpt>
      <trkpt lat="46.21" lon="-0.152">
        <ele>103.8</ele>
        <time>2025-07-11T10:45:19.002000+02:00</time>
      </trkpt>
      <trkpt lat="46.21002" lon="-0.15202">
        <ele>103.9</ele>
        <time>2025-07-11T10:45:20.003000+02:00</time>
      </trkpt>
      <trkpt lat="46.21003" lon="-0.15204">
        <ele>104.1</ele>
        <time>2025-07-11T10:45:21.004000+02:00</time>
      </trkpt>
      <trkpt lat="46.21004" lon="-0.15206">
        <ele>104.3</ele>
        <time>2025-07-11T10:45:22.004000+02:00</time>
      </trkpt>
      <trkpt lat="46.21007" lon="-0.15211">
        <ele>104.5</ele>
        <time>2025-07-11T10:45:24.003000+02:00</time>
      </trkpt>
      <trkpt lat="46.2101" lon="-0.15215">
        <ele>105</ele>
        <time>2025-07-11T10:45:26.001000+02:00</time>
      </trkpt>
      <trkpt lat="46.21011" lon="-0.1522">
        <ele>105.1</ele>
        <time>2025-07-11T10:45:28.001000+02:00</time>
      </trkpt>
      <trkpt lat="46.21013" lon="-0.15225">
        <ele>105.3</ele>
        <time>2025-07-11T10:45:29.999000+02:00</time>
      </trkpt>
      <trkpt lat="46.21014" lon="-0.15227">
        <ele>105.6</ele>
        <time>2025-07-11T10:45:31+02:00</time>
      </trkpt>
      <trkpt lat="46.21017" lon="-0.15231">
        <ele>106</ele>
        <time>2025-07-11T10:45:33.001000+02:00</time>
      </trkpt>
      <trkpt lat="46.2102" lon="-0.15234">
        <ele>106.3</ele>
        <time>2025-07-11T10:45:35+02:00</time>
      </trkpt>
      <trkpt lat="46.21021" lon="-0.15236">
        <ele>106.4</ele>
        <time>2025-07-11T10:45:36+02:00</time>
      </trkpt>
      <trkpt lat="46.21022" lon="-0.15239">
        <ele>106.6</ele>
        <time>2025-07-11T10:45:37.001000+02:00</time>
      </trkpt>
      <trkpt lat="46.21024" lon="-0.15244">
        <ele>106.7</ele>
        <time>2025-07-11T10:45:39.001000+02:00</time>
      </trkpt>
      <trkpt lat="46.21026" lon="-0.15248">
        <ele>106.9</ele>
        <time>2025-07-11T10:45:41+02:00</time>
      </trkpt>
      <trkpt lat="46.21028" lon="-0.15249">
        <ele>107</ele>
        <time>2025-07-11T10:45:42.001000+02:00</time>
      </trkpt>
      <trkpt lat="46.21031" lon="-0.1525">
        <ele>107</ele>
        <time>2025-07-11T10:45:44+02:00</time>
      </trkpt>
      <trkpt lat="46.21032" lon="-0.1525">
        <ele>107</ele>
        <time>2025-07-11T10:45:45.001000+02:00</time>
      </trkpt>
      <trkpt lat="46.21033" lon="-0.15249">
        <ele>107</ele>
        <time>2025-07-11T10:45:47.001000+02:00</time>
      </trkpt>
      <trkpt lat="46.21033" lon="-0.15249">
        <ele>107</ele>
        <time>2025-07-11T10:45:48.001000+02:00</time>
      </trkpt>
      <trkpt lat="46.21033" lon="-0.15249">
        <ele>107</ele>
        <time>2025-07-11T10:45:49.002000+02:00</time>
      </trkpt>
      <trkpt lat="46.21033" lon="-0.15249">
        <ele>107</ele>
        <time>2025-07-11T10:45:50.003000+02:00</time>
      </trkpt>
      <trkpt lat="46.21038" lon="-0.15245">
        <ele>107.1</ele>
        <time>2025-07-11T10:46:16.002000+02:00</time>
      </trkpt>
      <trkpt lat="46.21043" lon="-0.15243">
        <ele>107.1</ele>
        <time>2025-07-11T10:46:18.001000+02:00</time>
      </trkpt>
      <trkpt lat="46.21045" lon="-0.15244">
        <ele>107.1</ele>
        <time>2025-07-11T10:46:19.002000+02:00</time>
      </trkpt>
      <trkpt lat="46.21049" lon="-0.15249">
        <ele>107</ele>
        <time>2025-07-11T10:46:21.001000+02:00</time>
      </trkpt>
      <trkpt lat="46.21053" lon="-0.15257">
        <ele>107</ele>
        <time>2025-07-11T10:46:23.002000+02:00</time>
      </trkpt>
      <trkpt lat="46.21056" lon="-0.15265">
        <ele>107.1</ele>
        <time>2025-07-11T10:46:25.001000+02:00</time>
      </trkpt>
      <trkpt lat="46.21058" lon="-0.15269">
        <ele>107.4</ele>
        <time>2025-07-11T10:46:26.001000+02:00</time>
      </trkpt>
      <trkpt lat="46.21059" lon="-0.15274">
        <ele>107.7</ele>
        <time>2025-07-11T10:46:27.001000+02:00</time>
      </trkpt>
      <trkpt lat="46.21061" lon="-0.15279">
        <ele>108.1</ele>
        <time>2025-07-11T10:46:28.001000+02:00</time>
      </trkpt>
      <trkpt lat="46.21063" lon="-0.15283">
        <ele>108.3</ele>
        <time>2025-07-11T10:46:29.001000+02:00</time>
      </trkpt>
      <trkpt lat="46.21065" lon="-0.15288">
        <ele>108.4</ele>
        <time>2025-07-11T10:46:30.002000+02:00</time>
      </trkpt>
      <trkpt lat="46.21067" lon="-0.15294">
        <ele>108.3</ele>
        <time>2025-07-11T10:46:31.002000+02:00</time>
      </trkpt>
      <trkpt lat="46.21069" lon="-0.153">
        <ele>108</ele>
        <time>2025-07-11T10:46:32.002000+02:00</time>
      </trkpt>
      <trkpt lat="46.21072" lon="-0.15305">
        <ele>107.6</ele>
        <time>2025-07-11T10:46:33.002000+02:00</time>
      </trkpt>
      <trkpt lat="46.21074" lon="-0.15311">
        <ele>107.8</ele>
        <time>2025-07-11T10:46:34.002000+02:00</time>
      </trkpt>
      <trkpt lat="46.21077" lon="-0.15317">
        <ele>107.7</ele>
        <time>2025-07-11T10:46:35.002000+02:00</time>
      </trkpt>
      <trkpt lat="46.21079" lon="-0.15323">
        <ele>107.3</ele>
        <time>2025-07-11T10:46:36.003000+02:00</time>
      </trkpt>
      <trkpt lat="46.21085" lon="-0.15335">
        <ele>106.5</ele>
        <time>2025-07-11T10:46:38.002000+02:00</time>
      </trkpt>
      <trkpt lat="46.21088" lon="-0.15341">
        <ele>107.1</ele>
        <time>2025-07-11T10:46:39.003000+02:00</time>
      </trkpt>
      <trkpt lat="46.21094" lon="-0.15354">
        <ele>107.4</ele>
        <time>2025-07-11T10:46:41.002000+02:00</time>
      </trkpt>
      <trkpt lat="46.21097" lon="-0.1536">
        <ele>107.1</ele>
        <time>2025-07-11T10:46:42.004000+02:00</time>
      </trkpt>
      <trkpt lat="46.21103" lon="-0.15373">
        <ele>107.4</ele>
        <time>2025-07-11T10:46:44.003000+02:00</time>
      </trkpt>
      <trkpt lat="46.21106" lon="-0.15379">
        <ele>107.2</ele>
        <time>2025-07-11T10:46:45.003000+02:00</time>
      </trkpt>
      <trkpt lat="46.21112" lon="-0.15391">
        <ele>106.4</ele>
        <time>2025-07-11T10:46:47.002000+02:00</time>
      </trkpt>
      <trkpt lat="46.21116" lon="-0.15398">
        <ele>107.2</ele>
        <time>2025-07-11T10:46:48.002000+02:00</time>
      </trkpt>
      <trkpt lat="46.21119" lon="-0.15404">
        <ele>107.6</ele>
        <time>2025-07-11T10:46:49.002000+02:00</time>
      </trkpt>
      <trkpt lat="46.21126" lon="-0.15415">
        <ele>107.3</ele>
        <time>2025-07-11T10:46:51.004000+02:00</time>
      </trkpt>
      <trkpt lat="46.21133" lon="-0.15427">
        <ele>107.5</ele>
        <time>2025-07-11T10:46:53.001000+02:00</time>
      </trkpt>
      <trkpt lat="46.21137" lon="-0.15433">
        <ele>107</ele>
        <time>2025-07-11T10:46:54.003000+02:00</time>
      </trkpt>
      <trkpt lat="46.21144" lon="-0.15445">
        <ele>107.2</ele>
        <time>2025-07-11T10:46:55.999000+02:00</time>
      </trkpt>
      <trkpt lat="46.21147" lon="-0.15451">
        <ele>107.8</ele>
        <time>2025-07-11T10:46:57.001000+02:00</time>
      </trkpt>
      <trkpt lat="46.21151" lon="-0.15457">
        <ele>108.1</ele>
        <time>2025-07-11T10:46:58.001000+02:00</time>
      </trkpt>
      <trkpt lat="46.21154" lon="-0.15463">
        <ele>107.9</ele>
        <time>2025-07-11T10:46:59.001000+02:00</time>
      </trkpt>
      <trkpt lat="46.21158" lon="-0.15469">
        <ele>107.4</ele>
        <time>2025-07-11T10:47:00.003000+02:00</time>
      </trkpt>
      <trkpt lat="46.21165" lon="-0.15482">
        <ele>107.1</ele>
        <time>2025-07-11T10:47:02+02:00</time>
      </trkpt>
      <trkpt lat="46.21169" lon="-0.15488">
        <ele>107.4</ele>
        <time>2025-07-11T10:47:03+02:00</time>
      </trkpt>
      <trkpt lat="46.21173" lon="-0.15494">
        <ele>107.9</ele>
        <time>2025-07-11T10:47:04+02:00</time>
      </trkpt>
      <trkpt lat="46.21177" lon="-0.155">
        <ele>108.1</ele>
        <time>2025-07-11T10:47:05.001000+02:00</time>
      </trkpt>
      <trkpt lat="46.21181" lon="-0.15506">
        <ele>108.5</ele>
        <time>2025-07-11T10:47:06.001000+02:00</time>
      </trkpt>
      <trkpt lat="46.21188" lon="-0.15517">
        <ele>108.3</ele>
        <time>2025-07-11T10:47:08.004000+02:00</time>
      </trkpt>
      <trkpt lat="46.21196" lon="-0.15529">
        <ele>107.3</ele>
        <time>2025-07-11T10:47:10+02:00</time>
      </trkpt>
      <trkpt lat="46.21205" lon="-0.1554">
        <ele>108</ele>
        <time>2025-07-11T10:47:12.002000+02:00</time>
      </trkpt>
      <trkpt lat="46.21209" lon="-0.15545">
        <ele>108</ele>
        <time>2025-07-11T10:47:13.002000+02:00</time>
      </trkpt>
      <trkpt lat="46.21217" lon="-0.15556">
        <ele>107</ele>
        <time>2025-07-11T10:47:15.001000+02:00</time>
      </trkpt>
      <trkpt lat="46.21225" lon="-0.15566">
        <ele>107.2</ele>
        <time>2025-07-11T10:47:17+02:00</time>
      </trkpt>
      <trkpt lat="46.21229" lon="-0.15572">
        <ele>107.5</ele>
        <time>2025-07-11T10:47:18.001000+02:00</time>
      </trkpt>
      <trkpt lat="46.21234" lon="-0.15577">
        <ele>107.6</ele>
        <time>2025-07-11T10:47:19.002000+02:00</time>
      </trkpt>
      <trkpt lat="46.21242" lon="-0.15587">
        <ele>107.6</ele>
        <time>2025-07-11T10:47:21.002000+02:00</time>
      </trkpt>
      <trkpt lat="46.21251" lon="-0.15596">
        <ele>107.6</ele>
        <time>2025-07-11T10:47:23+02:00</time>
      </trkpt>
      <trkpt lat="46.21255" lon="-0.156">
        <ele>107.4</ele>
        <time>2025-07-11T10:47:24+02:00</time>
      </trkpt>
      <trkpt lat="46.21259" lon="-0.15605">
        <ele>107.2</ele>
        <time>2025-07-11T10:47:25.001000+02:00</time>
      </trkpt>
      <trkpt lat="46.21268" lon="-0.15615">
        <ele>107</ele>
        <time>2025-07-11T10:47:27.001000+02:00</time>
      </trkpt>
      <trkpt lat="46.21273" lon="-0.1562">
        <ele>106.9</ele>
        <time>2025-07-11T10:47:28.001000+02:00</time>
      </trkpt>
      <trkpt lat="46.21282" lon="-0.1563">
        <ele>107</ele>
        <time>2025-07-11T10:47:29.999000+02:00</time>
      </trkpt>
      <trkpt lat="46.21287" lon="-0.15635">
        <ele>107</ele>
        <time>2025-07-11T10:47:31+02:00</time>
      </trkpt>
      <trkpt lat="46.21296" lon="-0.15643">
        <ele>106.9</ele>
        <time>2025-07-11T10:47:33.001000+02:00</time>
      </trkpt>
      <trkpt lat="46.21305" lon="-0.15651">
        <ele>107</ele>
        <time>2025-07-11T10:47:35+02:00</time>
      </trkpt>
      <trkpt lat="46.2131" lon="-0.15654">
        <ele>106.9</ele>
        <time>2025-07-11T10:47:36+02:00</time>
      </trkpt>
      <trkpt lat="46.21314" lon="-0.15658">
        <ele>106.9</ele>
        <time>2025-07-11T10:47:37+02:00</time>
      </trkpt>
      <trkpt lat="46.21319" lon="-0.15662">
        <ele>106.9</ele>
        <time>2025-07-11T10:47:38+02:00</time>
      </trkpt>
      <trkpt lat="46.21324" lon="-0.15666">
        <ele>107</ele>
        <time>2025-07-11T10:47:39.002000+02:00</time>
      </trkpt>
      <trkpt lat="46.21332" lon="-0.15673">
        <ele>107.2</ele>
        <time>2025-07-11T10:47:41+02:00</time>
      </trkpt>
      <trkpt lat="46.21337" lon="-0.15676">
        <ele>107.4</ele>
        <time>2025-07-11T10:47:42.001000+02:00</time>
      </trkpt>
      <trkpt lat="46.21342" lon="-0.15679">
        <ele>107.6</ele>
        <time>2025-07-11T10:47:43.001000+02:00</time>
      </trkpt>
      <trkpt lat="46.21351" lon="-0.15685">
        <ele>108.1</ele>
        <time>2025-07-11T10:47:45.001000+02:00</time>
      </trkpt>
      <trkpt lat="46.21355" lon="-0.15688">
        <ele>108.4</ele>
        <time>2025-07-11T10:47:46.001000+02:00</time>
      </trkpt>
      <trkpt lat="46.2136" lon="-0.15691">
        <ele>108.7</ele>
        <time>2025-07-11T10:47:47.001000+02:00</time>
      </trkpt>
      <trkpt lat="46.21365" lon="-0.15694">
        <ele>108.9</ele>
        <time>2025-07-11T10:47:48.002000+02:00</time>
      </trkpt>
      <trkpt lat="46.21369" lon="-0.15696">
        <ele>108.9</ele>
        <time>2025-07-11T10:47:49.002000+02:00</time>
      </trkpt>
      <trkpt lat="46.21378" lon="-0.15701">
        <ele>109</ele>
        <time>2025-07-11T10:47:51.002000+02:00</time>
      </trkpt>
      <trkpt lat="46.21387" lon="-0.15706">
        <ele>109.3</ele>
        <time>2025-07-11T10:47:53.001000+02:00</time>
      </trkpt>
      <trkpt lat="46.21391" lon="-0.15708">
        <ele>109.5</ele>
        <time>2025-07-11T10:47:54.001000+02:00</time>
      </trkpt>
      <trkpt lat="46.214" lon="-0.15712">
        <ele>109.6</ele>
        <time>2025-07-11T10:47:56.001000+02:00</time>
      </trkpt>
      <trkpt lat="46.21408" lon="-0.15716">
        <ele>109.8</ele>
        <time>2025-07-11T10:47:57.999000+02:00</time>
      </trkpt>
      <trkpt lat="46.21412" lon="-0.15718">
        <ele>109.8</ele>
        <time>2025-07-11T10:47:59+02:00</time>
      </trkpt>
      <trkpt lat="46.21417" lon="-0.1572">
        <ele>109.9</ele>
        <time>2025-07-11T10:48:00+02:00</time>
      </trkpt>
      <trkpt lat="46.21421" lon="-0.15721">
        <ele>110.1</ele>
        <time>2025-07-11T10:48:01+02:00</time>
      </trkpt>
      <trkpt lat="46.2143" lon="-0.15724">
        <ele>110.5</ele>
        <time>2025-07-11T10:48:03+02:00</time>
      </trkpt>
      <trkpt lat="46.21434" lon="-0.15725">
        <ele>110.6</ele>
        <time>2025-07-11T10:48:04.001000+02:00</time>
      </trkpt>
      <trkpt lat="46.21442" lon="-0.15728">
        <ele>110.9</ele>
        <time>2025-07-11T10:48:06+02:00</time>
      </trkpt>
      <trkpt lat="46.21446" lon="-0.15729">
        <ele>111</ele>
        <time>2025-07-11T10:48:07+02:00</time>
      </trkpt>
      <trkpt lat="46.2145" lon="-0.15731">
        <ele>111.1</ele>
        <time>2025-07-11T10:48:08+02:00</time>
      </trkpt>
      <trkpt lat="46.21454" lon="-0.15732">
        <ele>111.2</ele>
        <time>2025-07-11T10:48:09.002000+02:00</time>
      </trkpt>
      <trkpt lat="46.21462" lon="-0.15734">
        <ele>111.5</ele>
        <time>2025-07-11T10:48:11.001000+02:00</time>
      </trkpt>
      <trkpt lat="46.21469" lon="-0.15736">
        <ele>111.9</ele>
        <time>2025-07-11T10:48:13.001000+02:00</time>
      </trkpt>
      <trkpt lat="46.21477" lon="-0.15738">
        <ele>112.4</ele>
        <time>2025-07-11T10:48:15.001000+02:00</time>
      </trkpt>
      <trkpt lat="46.21481" lon="-0.15738">
        <ele>112.6</ele>
        <time>2025-07-11T10:48:16.001000+02:00</time>
      </trkpt>
      <trkpt lat="46.21485" lon="-0.15739">
        <ele>112.8</ele>
        <time>2025-07-11T10:48:17.002000+02:00</time>
      </trkpt>
      <trkpt lat="46.21493" lon="-0.15741">
        <ele>113.3</ele>
        <time>2025-07-11T10:48:19.001000+02:00</time>
      </trkpt>
      <trkpt lat="46.21497" lon="-0.15741">
        <ele>113.5</ele>
        <time>2025-07-11T10:48:20.001000+02:00</time>
      </trkpt>
      <trkpt lat="46.21501" lon="-0.15742">
        <ele>113.7</ele>
        <time>2025-07-11T10:48:21.001000+02:00</time>
      </trkpt>
      <trkpt lat="46.21505" lon="-0.15743">
        <ele>114</ele>
        <time>2025-07-11T10:48:22.001000+02:00</time>
      </trkpt>
      <trkpt lat="46.21509" lon="-0.15743">
        <ele>114.2</ele>
        <time>2025-07-11T10:48:23.002000+02:00</time>
      </trkpt>
      <trkpt lat="46.21513" lon="-0.15744">
        <ele>114.4</ele>
        <time>2025-07-11T10:48:24.002000+02:00</time>
      </trkpt>
      <trkpt lat="46.21522" lon="-0.15744">
        <ele>114.7</ele>
        <time>2025-07-11T10:48:26.001000+02:00</time>
      </trkpt>
      <trkpt lat="46.21526" lon="-0.15745">
        <ele>114.9</ele>
        <time>2025-07-11T10:48:27.002000+02:00</time>
      </trkpt>
      <trkpt lat="46.21535" lon="-0.15746">
        <ele>115.2</ele>
        <time>2025-07-11T10:48:29.001000+02:00</time>
      </trkpt>
      <trkpt lat="46.21539" lon="-0.15745">
        <ele>115.4</ele>
        <time>2025-07-11T10:48:30.001000+02:00</time>
      </trkpt>
      <trkpt lat="46.21543" lon="-0.15745">
        <ele>115.5</ele>
        <time>2025-07-11T10:48:31.004000+02:00</time>
      </trkpt>
      <trkpt lat="46.21551" lon="-0.15745">
        <ele>115.8</ele>
        <time>2025-07-11T10:48:33.001000+02:00</time>
      </trkpt>
      <trkpt lat="46.21555" lon="-0.15745">
        <ele>116</ele>
        <time>2025-07-11T10:48:34.001000+02:00</time>
      </trkpt>
      <trkpt lat="46.21563" lon="-0.15745">
        <ele>116.3</ele>
        <time>2025-07-11T10:48:36+02:00</time>
      </trkpt>
      <trkpt lat="46.21567" lon="-0.15744">
        <ele>116.5</ele>
        <time>2025-07-11T10:48:37.002000+02:00</time>
      </trkpt>
      <trkpt lat="46.21575" lon="-0.15745">
        <ele>116.8</ele>
        <time>2025-07-11T10:48:39.001000+02:00</time>
      </trkpt>
      <trkpt lat="46.21579" lon="-0.15744">
        <ele>117</ele>
        <time>2025-07-11T10:48:40.001000+02:00</time>
      </trkpt>
      <trkpt lat="46.21586" lon="-0.15744">
        <ele>117.4</ele>
        <time>2025-07-11T10:48:41.999000+02:00</time>
      </trkpt>
      <trkpt lat="46.2159" lon="-0.15743">
        <ele>117.7</ele>
        <time>2025-07-11T10:48:43.001000+02:00</time>
      </trkpt>
      <trkpt lat="46.21597" lon="-0.1574">
        <ele>118.2</ele>
        <time>2025-07-11T10:48:45.003000+02:00</time>
      </trkpt>
      <trkpt lat="46.21602" lon="-0.15732">
        <ele>118.6</ele>
        <time>2025-07-11T10:48:47.001000+02:00</time>
      </trkpt>
      <trkpt lat="46.21604" lon="-0.15724">
        <ele>118.7</ele>
        <time>2025-07-11T10:48:49+02:00</time>
      </trkpt>
      <trkpt lat="46.21604" lon="-0.15721">
        <ele>118.8</ele>
        <time>2025-07-11T10:48:50.001000+02:00</time>
      </trkpt>
      <trkpt lat="46.21605" lon="-0.15717">
        <ele>119</ele>
        <time>2025-07-11T10:48:51.001000+02:00</time>
      </trkpt>
      <trkpt lat="46.21606" lon="-0.15714">
        <ele>119.1</ele>
        <time>2025-07-11T10:48:52.001000+02:00</time>
      </trkpt>
      <trkpt lat="46.21606" lon="-0.15711">
        <ele>119.2</ele>
        <time>2025-07-11T10:48:53.001000+02:00</time>
      </trkpt>
      <trkpt lat="46.21607" lon="-0.15704">
        <ele>119.5</ele>
        <time>2025-07-11T10:48:55+02:00</time>
      </trkpt>
      <trkpt lat="46.21607" lon="-0.15702">
        <ele>119.6</ele>
        <time>2025-07-11T10:48:56+02:00</time>
      </trkpt>
      <trkpt lat="46.21608" lon="-0.15699">
        <ele>119.7</ele>
        <time>2025-07-11T10:48:57+02:00</time>
      </trkpt>
      <trkpt lat="46.21609" lon="-0.15694">
        <ele>120</ele>
        <time>2025-07-11T10:48:59+02:00</time>
      </trkpt>
      <trkpt lat="46.2161" lon="-0.15691">
        <ele>120.1</ele>
        <time>2025-07-11T10:49:00.002000+02:00</time>
      </trkpt>
      <trkpt lat="46.21612" lon="-0.15685">
        <ele>120.4</ele>
        <time>2025-07-11T10:49:02.001000+02:00</time>
      </trkpt>
      <trkpt lat="46.21613" lon="-0.15682">
        <ele>120.5</ele>
        <time>2025-07-11T10:49:03.002000+02:00</time>
      </trkpt>
      <trkpt lat="46.21614" lon="-0.15676">
        <ele>120.8</ele>
        <time>2025-07-11T10:49:05.001000+02:00</time>
      </trkpt>
      <trkpt lat="46.21615" lon="-0.15673">
        <ele>120.9</ele>
        <time>2025-07-11T10:49:06.001000+02:00</time>
      </trkpt>
      <trkpt lat="46.21617" lon="-0.15671">
        <ele>121.1</ele>
        <time>2025-07-11T10:49:07.002000+02:00</time>
      </trkpt>
      <trkpt lat="46.21619" lon="-0.15664">
        <ele>121.4</ele>
        <time>2025-07-11T10:49:09.002000+02:00</time>
      </trkpt>
      <trkpt lat="46.21621" lon="-0.15658">
        <ele>121.7</ele>
        <time>2025-07-11T10:49:11.002000+02:00</time>
      </trkpt>
      <trkpt lat="46.21624" lon="-0.15652">
        <ele>122</ele>
        <time>2025-07-11T10:49:13.001000+02:00</time>
      </trkpt>
      <trkpt lat="46.21627" lon="-0.15647">
        <ele>122.3</ele>
        <time>2025-07-11T10:49:15.001000+02:00</time>
      </trkpt>
      <trkpt lat="46.2163" lon="-0.15641">
        <ele>122.6</ele>
        <time>2025-07-11T10:49:17.001000+02:00</time>
      </trkpt>
      <trkpt lat="46.21632" lon="-0.15639">
        <ele>122.8</ele>
        <time>2025-07-11T10:49:18.001000+02:00</time>
      </trkpt>
      <trkpt lat="46.21635" lon="-0.15634">
        <ele>123.1</ele>
        <time>2025-07-11T10:49:20.001000+02:00</time>
      </trkpt>
      <trkpt lat="46.21639" lon="-0.15628">
        <ele>123.4</ele>
        <time>2025-07-11T10:49:22.001000+02:00</time>
      </trkpt>
      <trkpt lat="46.21641" lon="-0.15626">
        <ele>123.5</ele>
        <time>2025-07-11T10:49:23.002000+02:00</time>
      </trkpt>
      <trkpt lat="46.21645" lon="-0.15623">
        <ele>123.7</ele>
        <time>2025-07-11T10:49:25.001000+02:00</time>
      </trkpt>
      <trkpt lat="46.21646" lon="-0.15621">
        <ele>123.7</ele>
        <time>2025-07-11T10:49:26.001000+02:00</time>
      </trkpt>
      <trkpt lat="46.21649" lon="-0.1562">
        <ele>123.8</ele>
        <time>2025-07-11T10:49:27.001000+02:00</time>
      </trkpt>
      <trkpt lat="46.2165" lon="-0.15618">
        <ele>123.9</ele>
        <time>2025-07-11T10:49:28.001000+02:00</time>
      </trkpt>
      <trkpt lat="46.21652" lon="-0.15616">
        <ele>123.9</ele>
        <time>2025-07-11T10:49:29.001000+02:00</time>
      </trkpt>
      <trkpt lat="46.21656" lon="-0.15611">
        <ele>124</ele>
        <time>2025-07-11T10:49:30.999000+02:00</time>
      </trkpt>
      <trkpt lat="46.21658" lon="-0.15608">
        <ele>124.1</ele>
        <time>2025-07-11T10:49:32+02:00</time>
      </trkpt>
      <trkpt lat="46.21659" lon="-0.15606">
        <ele>124.1</ele>
        <time>2025-07-11T10:49:33.001000+02:00</time>
      </trkpt>
      <trkpt lat="46.21661" lon="-0.156">
        <ele>124.3</ele>
        <time>2025-07-11T10:49:35.001000+02:00</time>
      </trkpt>
      <trkpt lat="46.21662" lon="-0.15597">
        <ele>124.4</ele>
        <time>2025-07-11T10:49:36.001000+02:00</time>
      </trkpt>
      <trkpt lat="46.21664" lon="-0.15595">
        <ele>124.5</ele>
        <time>2025-07-11T10:49:37.002000+02:00</time>
      </trkpt>
      <trkpt lat="46.21667" lon="-0.15588">
        <ele>124.8</ele>
        <time>2025-07-11T10:49:39.001000+02:00</time>
      </trkpt>
      <trkpt lat="46.21669" lon="-0.15582">
        <ele>125</ele>
        <time>2025-07-11T10:49:41+02:00</time>
      </trkpt>
      <trkpt lat="46.2167" lon="-0.15579">
        <ele>125.2</ele>
        <time>2025-07-11T10:49:42.001000+02:00</time>
      </trkpt>
      <trkpt lat="46.21671" lon="-0.15575">
        <ele>125.3</ele>
        <time>2025-07-11T10:49:43.002000+02:00</time>
      </trkpt>
      <trkpt lat="46.21673" lon="-0.15568">
        <ele>125.6</ele>
        <time>2025-07-11T10:49:45.001000+02:00</time>
      </trkpt>
      <trkpt lat="46.21676" lon="-0.15561">
        <ele>125.8</ele>
        <time>2025-07-11T10:49:47.001000+02:00</time>
      </trkpt>
      <trkpt lat="46.21677" lon="-0.15558">
        <ele>125.9</ele>
        <time>2025-07-11T10:49:48.001000+02:00</time>
      </trkpt>
      <trkpt lat="46.2168" lon="-0.15552">
        <ele>126</ele>
        <time>2025-07-11T10:49:50+02:00</time>
      </trkpt>
      <trkpt lat="46.21681" lon="-0.15548">
        <ele>126</ele>
        <time>2025-07-11T10:49:51.001000+02:00</time>
      </trkpt>
      <trkpt lat="46.21684" lon="-0.15543">
        <ele>126</ele>
        <time>2025-07-11T10:49:53+02:00</time>
      </trkpt>
      <trkpt lat="46.21686" lon="-0.1554">
        <ele>126</ele>
        <time>2025-07-11T10:49:54.001000+02:00</time>
      </trkpt>
      <trkpt lat="46.21687" lon="-0.15536">
        <ele>126</ele>
        <time>2025-07-11T10:49:55.001000+02:00</time>
      </trkpt>
      <trkpt lat="46.21689" lon="-0.15533">
        <ele>126</ele>
        <time>2025-07-11T10:49:56.001000+02:00</time>
      </trkpt>
      <trkpt lat="46.21691" lon="-0.1553">
        <ele>126</ele>
        <time>2025-07-11T10:49:57.004000+02:00</time>
      </trkpt>
      <trkpt lat="46.21695" lon="-0.15524">
        <ele>126.1</ele>
        <time>2025-07-11T10:49:58.999000+02:00</time>
      </trkpt>
      <trkpt lat="46.21697" lon="-0.15521">
        <ele>126.3</ele>
        <time>2025-07-11T10:50:00.007000+02:00</time>
      </trkpt>
      <trkpt lat="46.21701" lon="-0.15514">
        <ele>126.5</ele>
        <time>2025-07-11T10:50:02.001000+02:00</time>
      </trkpt>
      <trkpt lat="46.21703" lon="-0.15511">
        <ele>126.6</ele>
        <time>2025-07-11T10:50:03.001000+02:00</time>
      </trkpt>
      <trkpt lat="46.21705" lon="-0.15508">
        <ele>126.7</ele>
        <time>2025-07-11T10:50:04.001000+02:00</time>
      </trkpt>
      <trkpt lat="46.21707" lon="-0.15505">
        <ele>126.8</ele>
        <time>2025-07-11T10:50:05.001000+02:00</time>
      </trkpt>
      <trkpt lat="46.21711" lon="-0.15498">
        <ele>127</ele>
        <time>2025-07-11T10:50:07.001000+02:00</time>
      </trkpt>
      <trkpt lat="46.21713" lon="-0.15495">
        <ele>127</ele>
        <time>2025-07-11T10:50:08.002000+02:00</time>
      </trkpt>
      <trkpt lat="46.21715" lon="-0.15492">
        <ele>127</ele>
        <time>2025-07-11T10:50:09.002000+02:00</time>
      </trkpt>
      <trkpt lat="46.21717" lon="-0.15488">
        <ele>127</ele>
        <time>2025-07-11T10:50:10.002000+02:00</time>
      </trkpt>
      <trkpt lat="46.21721" lon="-0.15482">
        <ele>127</ele>
        <time>2025-07-11T10:50:12+02:00</time>
      </trkpt>
      <trkpt lat="46.21723" lon="-0.15478">
        <ele>127</ele>
        <time>2025-07-11T10:50:13.003000+02:00</time>
      </trkpt>
      <trkpt lat="46.21727" lon="-0.15472">
        <ele>127</ele>
        <time>2025-07-11T10:50:15.002000+02:00</time>
      </trkpt>
      <trkpt lat="46.21731" lon="-0.15465">
        <ele>127.2</ele>
        <time>2025-07-11T10:50:17.001000+02:00</time>
      </trkpt>
      <trkpt lat="46.21733" lon="-0.15462">
        <ele>127.2</ele>
        <time>2025-07-11T10:50:18.001000+02:00</time>
      </trkpt>
      <trkpt lat="46.21735" lon="-0.15459">
        <ele>127.2</ele>
        <time>2025-07-11T10:50:19.001000+02:00</time>
      </trkpt>
      <trkpt lat="46.21738" lon="-0.15456">
        <ele>127.3</ele>
        <time>2025-07-11T10:50:20.002000+02:00</time>
      </trkpt>
      <trkpt lat="46.21742" lon="-0.15449">
        <ele>127.2</ele>
        <time>2025-07-11T10:50:22.001000+02:00</time>
      </trkpt>
      <trkpt lat="46.21746" lon="-0.15442">
        <ele>127.3</ele>
        <time>2025-07-11T10:50:24.001000+02:00</time>
      </trkpt>
      <trkpt lat="46.2175" lon="-0.15435">
        <ele>127.7</ele>
        <time>2025-07-11T10:50:26.001000+02:00</time>
      </trkpt>
      <trkpt lat="46.21752" lon="-0.15432">
        <ele>128</ele>
        <time>2025-07-11T10:50:27.002000+02:00</time>
      </trkpt>
      <trkpt lat="46.21756" lon="-0.15425">
        <ele>128.5</ele>
        <time>2025-07-11T10:50:29.002000+02:00</time>
      </trkpt>
      <trkpt lat="46.2176" lon="-0.15418">
        <ele>129</ele>
        <time>2025-07-11T10:50:31+02:00</time>
      </trkpt>
      <trkpt lat="46.21761" lon="-0.15414">
        <ele>129</ele>
        <time>2025-07-11T10:50:32.001000+02:00</time>
      </trkpt>
      <trkpt lat="46.21763" lon="-0.1541">
        <ele>129</ele>
        <time>2025-07-11T10:50:33.001000+02:00</time>
      </trkpt>
      <trkpt lat="46.21767" lon="-0.15403">
        <ele>129</ele>
        <time>2025-07-11T10:50:35+02:00</time>
      </trkpt>
      <trkpt lat="46.21769" lon="-0.154">
        <ele>129</ele>
        <time>2025-07-11T10:50:36.003000+02:00</time>
      </trkpt>
      <trkpt lat="46.21773" lon="-0.15393">
        <ele>129</ele>
        <time>2025-07-11T10:50:38+02:00</time>
      </trkpt>
      <trkpt lat="46.21776" lon="-0.15389">
        <ele>129</ele>
        <time>2025-07-11T10:50:39.001000+02:00</time>
      </trkpt>
      <trkpt lat="46.2178" lon="-0.15383">
        <ele>129.3</ele>
        <time>2025-07-11T10:50:41.001000+02:00</time>
      </trkpt>
      <trkpt lat="46.21784" lon="-0.15376">
        <ele>129.6</ele>
        <time>2025-07-11T10:50:43.001000+02:00</time>
      </trkpt>
      <trkpt lat="46.21786" lon="-0.15373">
        <ele>129.7</ele>
        <time>2025-07-11T10:50:44.001000+02:00</time>
      </trkpt>
      <trkpt lat="46.21789" lon="-0.1537">
        <ele>129.8</ele>
        <time>2025-07-11T10:50:45.001000+02:00</time>
      </trkpt>
      <trkpt lat="46.21792" lon="-0.15363">
        <ele>130</ele>
        <time>2025-07-11T10:50:47+02:00</time>
      </trkpt>
      <trkpt lat="46.21794" lon="-0.15359">
        <ele>130</ele>
        <time>2025-07-11T10:50:48.001000+02:00</time>
      </trkpt>
      <trkpt lat="46.21798" lon="-0.15352">
        <ele>130.1</ele>
        <time>2025-07-11T10:50:50.002000+02:00</time>
      </trkpt>
      <trkpt lat="46.21801" lon="-0.15345">
        <ele>130.1</ele>
        <time>2025-07-11T10:50:52.001000+02:00</time>
      </trkpt>
      <trkpt lat="46.21803" lon="-0.15341">
        <ele>130.1</ele>
        <time>2025-07-11T10:50:53.001000+02:00</time>
      </trkpt>
      <trkpt lat="46.21805" lon="-0.15338">
        <ele>130</ele>
        <time>2025-07-11T10:50:54.002000+02:00</time>
      </trkpt>
      <trkpt lat="46.21809" lon="-0.15331">
        <ele>130.2</ele>
        <time>2025-07-11T10:50:55.999000+02:00</time>
      </trkpt>
      <trkpt lat="46.21811" lon="-0.15328">
        <ele>130.4</ele>
        <time>2025-07-11T10:50:57.002000+02:00</time>
      </trkpt>
      <trkpt lat="46.21814" lon="-0.15321">
        <ele>130.8</ele>
        <time>2025-07-11T10:50:59.001000+02:00</time>
      </trkpt>
      <trkpt lat="46.21816" lon="-0.15317">
        <ele>130.9</ele>
        <time>2025-07-11T10:51:00.002000+02:00</time>
      </trkpt>
      <trkpt lat="46.2182" lon="-0.15311">
        <ele>131.3</ele>
        <time>2025-07-11T10:51:02+02:00</time>
      </trkpt>
      <trkpt lat="46.21822" lon="-0.15307">
        <ele>131.5</ele>
        <time>2025-07-11T10:51:03.002000+02:00</time>
      </trkpt>
      <trkpt lat="46.21824" lon="-0.15304">
        <ele>131.6</ele>
        <time>2025-07-11T10:51:04.005000+02:00</time>
      </trkpt>
      <trkpt lat="46.21827" lon="-0.15297">
        <ele>131.6</ele>
        <time>2025-07-11T10:51:06.003000+02:00</time>
      </trkpt>
      <trkpt lat="46.21829" lon="-0.15293">
        <ele>131.5</ele>
        <time>2025-07-11T10:51:07.003000+02:00</time>
      </trkpt>
      <trkpt lat="46.21833" lon="-0.15287">
        <ele>131.4</ele>
        <time>2025-07-11T10:51:09+02:00</time>
      </trkpt>
      <trkpt lat="46.21835" lon="-0.15285">
        <ele>131.3</ele>
        <time>2025-07-11T10:51:10+02:00</time>
      </trkpt>
      <trkpt lat="46.21837" lon="-0.15281">
        <ele>131.2</ele>
        <time>2025-07-11T10:51:11+02:00</time>
      </trkpt>
      <trkpt lat="46.21838" lon="-0.15278">
        <ele>131.2</ele>
        <time>2025-07-11T10:51:12.002000+02:00</time>
      </trkpt>
      <trkpt lat="46.2184" lon="-0.15276">
        <ele>131.3</ele>
        <time>2025-07-11T10:51:13.002000+02:00</time>
      </trkpt>
      <trkpt lat="46.21843" lon="-0.15273">
        <ele>131.4</ele>
        <time>2025-07-11T10:51:14.002000+02:00</time>
      </trkpt>
      <trkpt lat="46.21848" lon="-0.15269">
        <ele>131.5</ele>
        <time>2025-07-11T10:51:16+02:00</time>
      </trkpt>
      <trkpt lat="46.2185" lon="-0.15266">
        <ele>131.5</ele>
        <time>2025-07-11T10:51:17.001000+02:00</time>
      </trkpt>
      <trkpt lat="46.21853" lon="-0.15264">
        <ele>131.5</ele>
        <time>2025-07-11T10:51:18.003000+02:00</time>
      </trkpt>
      <trkpt lat="46.21857" lon="-0.15259">
        <ele>131.4</ele>
        <time>2025-07-11T10:51:20.002000+02:00</time>
      </trkpt>
      <trkpt lat="46.2186" lon="-0.15256">
        <ele>131.3</ele>
        <time>2025-07-11T10:51:21.003000+02:00</time>
      </trkpt>
      <trkpt lat="46.21862" lon="-0.15254">
        <ele>131.2</ele>
        <time>2025-07-11T10:51:22.003000+02:00</time>
      </trkpt>
      <trkpt lat="46.21865" lon="-0.1525">
        <ele>131.1</ele>
        <time>2025-07-11T10:51:23.003000+02:00</time>
      </trkpt>
      <trkpt lat="46.2187" lon="-0.15243">
        <ele>131.2</ele>
        <time>2025-07-11T10:51:25.002000+02:00</time>
      </trkpt>
      <trkpt lat="46.21877" lon="-0.15235">
        <ele>131</ele>
        <time>2025-07-11T10:51:27.002000+02:00</time>
      </trkpt>
      <trkpt lat="46.2188" lon="-0.15231">
        <ele>130.7</ele>
        <time>2025-07-11T10:51:28.003000+02:00</time>
      </trkpt>
      <trkpt lat="46.21886" lon="-0.15219">
        <ele>130</ele>
        <time>2025-07-11T10:51:30+02:00</time>
      </trkpt>
      <trkpt lat="46.21889" lon="-0.15214">
        <ele>129.7</ele>
        <time>2025-07-11T10:51:31.001000+02:00</time>
      </trkpt>
      <trkpt lat="46.21894" lon="-0.15202">
        <ele>129.5</ele>
        <time>2025-07-11T10:51:33.001000+02:00</time>
      </trkpt>
      <trkpt lat="46.21898" lon="-0.15189">
        <ele>129</ele>
        <time>2025-07-11T10:51:35+02:00</time>
      </trkpt>
      <trkpt lat="46.219" lon="-0.15183">
        <ele>128.6</ele>
        <time>2025-07-11T10:51:36+02:00</time>
      </trkpt>
      <trkpt lat="46.21901" lon="-0.15176">
        <ele>128.2</ele>
        <time>2025-07-11T10:51:37.001000+02:00</time>
      </trkpt>
      <trkpt lat="46.21904" lon="-0.15166">
        <ele>127.4</ele>
        <time>2025-07-11T10:51:39+02:00</time>
      </trkpt>
      <trkpt lat="46.21904" lon="-0.15162">
        <ele>127.1</ele>
        <time>2025-07-11T10:51:40.001000+02:00</time>
      </trkpt>
      <trkpt lat="46.21904" lon="-0.15153">
        <ele>126.5</ele>
        <time>2025-07-11T10:51:42+02:00</time>
      </trkpt>
      <trkpt lat="46.21904" lon="-0.15148">
        <ele>126.1</ele>
        <time>2025-07-11T10:51:43.001000+02:00</time>
      </trkpt>
      <trkpt lat="46.21907" lon="-0.15137">
        <ele>125.1</ele>
        <time>2025-07-11T10:51:45.001000+02:00</time>
      </trkpt>
      <trkpt lat="46.2191" lon="-0.15132">
        <ele>124.3</ele>
        <time>2025-07-11T10:51:46.001000+02:00</time>
      </trkpt>
      <trkpt lat="46.21912" lon="-0.15127">
        <ele>123.4</ele>
        <time>2025-07-11T10:51:47.002000+02:00</time>
      </trkpt>
      <trkpt lat="46.21916" lon="-0.15122">
        <ele>122.5</ele>
        <time>2025-07-11T10:51:48.002000+02:00</time>
      </trkpt>
      <trkpt lat="46.2192" lon="-0.15117">
        <ele>121.5</ele>
        <time>2025-07-11T10:51:49.002000+02:00</time>
      </trkpt>
      <trkpt lat="46.21925" lon="-0.15112">
        <ele>120.5</ele>
        <time>2025-07-11T10:51:50.002000+02:00</time>
      </trkpt>
      <trkpt lat="46.21928" lon="-0.15108">
        <ele>119.5</ele>
        <time>2025-07-11T10:51:51.003000+02:00</time>
      </trkpt>
      <trkpt lat="46.21938" lon="-0.151">
        <ele>118</ele>
        <time>2025-07-11T10:51:53.001000+02:00</time>
      </trkpt>
      <trkpt lat="46.21943" lon="-0.15097">
        <ele>117.5</ele>
        <time>2025-07-11T10:51:54.002000+02:00</time>
      </trkpt>
      <trkpt lat="46.21948" lon="-0.15095">
        <ele>117</ele>
        <time>2025-07-11T10:51:55.002000+02:00</time>
      </trkpt>
      <trkpt lat="46.21953" lon="-0.15093">
        <ele>116.4</ele>
        <time>2025-07-11T10:51:56.002000+02:00</time>
      </trkpt>
      <trkpt lat="46.21958" lon="-0.15092">
        <ele>115.8</ele>
        <time>2025-07-11T10:51:57.002000+02:00</time>
      </trkpt>
      <trkpt lat="46.21967" lon="-0.1509">
        <ele>114.7</ele>
        <time>2025-07-11T10:51:59.001000+02:00</time>
      </trkpt>
      <trkpt lat="46.21972" lon="-0.1509">
        <ele>114.3</ele>
        <time>2025-07-11T10:52:00.002000+02:00</time>
      </trkpt>
      <trkpt lat="46.21979" lon="-0.1509">
        <ele>114.1</ele>
        <time>2025-07-11T10:52:02.001000+02:00</time>
      </trkpt>
      <trkpt lat="46.21983" lon="-0.15087">
        <ele>113.7</ele>
        <time>2025-07-11T10:52:03.001000+02:00</time>
      </trkpt>
      <trkpt lat="46.21989" lon="-0.15081">
        <ele>112.9</ele>
        <time>2025-07-11T10:52:05.002000+02:00</time>
      </trkpt>
      <trkpt lat="46.21995" lon="-0.15077">
        <ele>112.6</ele>
        <time>2025-07-11T10:52:06.999000+02:00</time>
      </trkpt>
      <trkpt lat="46.21998" lon="-0.15077">
        <ele>112.6</ele>
        <time>2025-07-11T10:52:08.001000+02:00</time>
      </trkpt>
      <trkpt lat="46.22004" lon="-0.15079">
        <ele>112.6</ele>
        <time>2025-07-11T10:52:10.001000+02:00</time>
      </trkpt>
      <trkpt lat="46.2201" lon="-0.15081">
        <ele>112.8</ele>
        <time>2025-07-11T10:52:12.001000+02:00</time>
      </trkpt>
      <trkpt lat="46.22013" lon="-0.15083">
        <ele>112.9</ele>
        <time>2025-07-11T10:52:13.001000+02:00</time>
      </trkpt>
      <trkpt lat="46.22017" lon="-0.15084">
        <ele>113</ele>
        <time>2025-07-11T10:52:14.001000+02:00</time>
      </trkpt>
      <trkpt lat="46.2202" lon="-0.15085">
        <ele>113.2</ele>
        <time>2025-07-11T10:52:15.001000+02:00</time>
      </trkpt>
      <trkpt lat="46.22023" lon="-0.15086">
        <ele>113.5</ele>
        <time>2025-07-11T10:52:16.001000+02:00</time>
      </trkpt>
      <trkpt lat="46.22026" lon="-0.15088">
        <ele>113.8</ele>
        <time>2025-07-11T10:52:17.001000+02:00</time>
      </trkpt>
      <trkpt lat="46.22029" lon="-0.15089">
        <ele>114</ele>
        <time>2025-07-11T10:52:18.001000+02:00</time>
      </trkpt>
      <trkpt lat="46.22032" lon="-0.15091">
        <ele>114.1</ele>
        <time>2025-07-11T10:52:19.002000+02:00</time>
      </trkpt>
      <trkpt lat="46.22038" lon="-0.15093">
        <ele>114.3</ele>
        <time>2025-07-11T10:52:21.002000+02:00</time>
      </trkpt>
      <trkpt lat="46.22042" lon="-0.15094">
        <ele>114.5</ele>
        <time>2025-07-11T10:52:22.002000+02:00</time>
      </trkpt>
      <trkpt lat="46.22046" lon="-0.15096">
        <ele>114.6</ele>
        <time>2025-07-11T10:52:23.002000+02:00</time>
      </trkpt>
      <trkpt lat="46.22053" lon="-0.15099">
        <ele>114.9</ele>
        <time>2025-07-11T10:52:25.002000+02:00</time>
      </trkpt>
      <trkpt lat="46.22059" lon="-0.15102">
        <ele>115</ele>
        <time>2025-07-11T10:52:27.002000+02:00</time>
      </trkpt>
      <trkpt lat="46.22067" lon="-0.15104">
        <ele>114.7</ele>
        <time>2025-07-11T10:52:29+02:00</time>
      </trkpt>
      <trkpt lat="46.22071" lon="-0.15105">
        <ele>114.5</ele>
        <time>2025-07-11T10:52:30.001000+02:00</time>
      </trkpt>
      <trkpt lat="46.22078" lon="-0.15108">
        <ele>114.2</ele>
        <time>2025-07-11T10:52:32+02:00</time>
      </trkpt>
      <trkpt lat="46.22081" lon="-0.15109">
        <ele>114</ele>
        <time>2025-07-11T10:52:33.001000+02:00</time>
      </trkpt>
      <trkpt lat="46.22084" lon="-0.15111">
        <ele>113.9</ele>
        <time>2025-07-11T10:52:34.001000+02:00</time>
      </trkpt>
      <trkpt lat="46.22091" lon="-0.1511">
        <ele>113.5</ele>
        <time>2025-07-11T10:52:36.001000+02:00</time>
      </trkpt>
      <trkpt lat="46.22096" lon="-0.15111">
        <ele>113.5</ele>
        <time>2025-07-11T10:52:37.001000+02:00</time>
      </trkpt>
      <trkpt lat="46.22104" lon="-0.15114">
        <ele>113.8</ele>
        <time>2025-07-11T10:52:39.001000+02:00</time>
      </trkpt>
      <trkpt lat="46.2211" lon="-0.15118">
        <ele>114.1</ele>
        <time>2025-07-11T10:52:41+02:00</time>
      </trkpt>
      <trkpt lat="46.22114" lon="-0.15121">
        <ele>114</ele>
        <time>2025-07-11T10:52:42.001000+02:00</time>
      </trkpt>
      <trkpt lat="46.22117" lon="-0.15124">
        <ele>113.8</ele>
        <time>2025-07-11T10:52:43.001000+02:00</time>
      </trkpt>
      <trkpt lat="46.22121" lon="-0.15126">
        <ele>113.5</ele>
        <time>2025-07-11T10:52:44.001000+02:00</time>
      </trkpt>
      <trkpt lat="46.22125" lon="-0.15128">
        <ele>113.1</ele>
        <time>2025-07-11T10:52:45.002000+02:00</time>
      </trkpt>
      <trkpt lat="46.22129" lon="-0.15129">
        <ele>112.7</ele>
        <time>2025-07-11T10:52:46.002000+02:00</time>
      </trkpt>
      <trkpt lat="46.22137" lon="-0.15133">
        <ele>111.7</ele>
        <time>2025-07-11T10:52:48.002000+02:00</time>
      </trkpt>
      <trkpt lat="46.22145" lon="-0.15135">
        <ele>111.9</ele>
        <time>2025-07-11T10:52:50.004000+02:00</time>
      </trkpt>
      <trkpt lat="46.22152" lon="-0.15138">
        <ele>112.8</ele>
        <time>2025-07-11T10:52:52.001000+02:00</time>
      </trkpt>
      <trkpt lat="46.22156" lon="-0.1514">
        <ele>113.3</ele>
        <time>2025-07-11T10:52:53.001000+02:00</time>
      </trkpt>
      <trkpt lat="46.2216" lon="-0.15141">
        <ele>113.7</ele>
        <time>2025-07-11T10:52:54.002000+02:00</time>
      </trkpt>
      <trkpt lat="46.22167" lon="-0.15144">
        <ele>114.1</ele>
        <time>2025-07-11T10:52:56.002000+02:00</time>
      </trkpt>
      <trkpt lat="46.22171" lon="-0.15146">
        <ele>114</ele>
        <time>2025-07-11T10:52:57.003000+02:00</time>
      </trkpt>
      <trkpt lat="46.22179" lon="-0.15149">
        <ele>113.8</ele>
        <time>2025-07-11T10:52:59.001000+02:00</time>
      </trkpt>
      <trkpt lat="46.22186" lon="-0.15153">
        <ele>113.8</ele>
        <time>2025-07-11T10:53:01+02:00</time>
      </trkpt>
      <trkpt lat="46.2219" lon="-0.15154">
        <ele>113.8</ele>
        <time>2025-07-11T10:53:02.001000+02:00</time>
      </trkpt>
      <trkpt lat="46.22193" lon="-0.15155">
        <ele>113.8</ele>
        <time>2025-07-11T10:53:03.001000+02:00</time>
      </trkpt>
      <trkpt lat="46.22201" lon="-0.15158">
        <ele>114.6</ele>
        <time>2025-07-11T10:53:05.001000+02:00</time>
      </trkpt>
      <trkpt lat="46.22205" lon="-0.15159">
        <ele>115</ele>
        <time>2025-07-11T10:53:06.001000+02:00</time>
      </trkpt>
      <trkpt lat="46.22209" lon="-0.15159">
        <ele>115.3</ele>
        <time>2025-07-11T10:53:07.001000+02:00</time>
      </trkpt>
      <trkpt lat="46.22212" lon="-0.15159">
        <ele>115.6</ele>
        <time>2025-07-11T10:53:08.001000+02:00</time>
      </trkpt>
      <trkpt lat="46.22215" lon="-0.1516">
        <ele>116</ele>
        <time>2025-07-11T10:53:09.002000+02:00</time>
      </trkpt>
      <trkpt lat="46.22223" lon="-0.15161">
        <ele>116.9</ele>
        <time>2025-07-11T10:53:11.001000+02:00</time>
      </trkpt>
      <trkpt lat="46.22226" lon="-0.15162">
        <ele>117</ele>
        <time>2025-07-11T10:53:12.001000+02:00</time>
      </trkpt>
      <trkpt lat="46.22232" lon="-0.15164">
        <ele>117.1</ele>
        <time>2025-07-11T10:53:14.002000+02:00</time>
      </trkpt>
      <trkpt lat="46.22239" lon="-0.15165">
        <ele>117.2</ele>
        <time>2025-07-11T10:53:16.002000+02:00</time>
      </trkpt>
      <trkpt lat="46.22243" lon="-0.15166">
        <ele>117.2</ele>
        <time>2025-07-11T10:53:17.003000+02:00</time>
      </trkpt>
      <trkpt lat="46.22251" lon="-0.15168">
        <ele>117.3</ele>
        <time>2025-07-11T10:53:19.001000+02:00</time>
      </trkpt>
      <trkpt lat="46.22255" lon="-0.15169">
        <ele>117.6</ele>
        <time>2025-07-11T10:53:20.002000+02:00</time>
      </trkpt>
      <trkpt lat="46.22264" lon="-0.15171">
        <ele>117.9</ele>
        <time>2025-07-11T10:53:22.001000+02:00</time>
      </trkpt>
      <trkpt lat="46.22271" lon="-0.15172">
        <ele>118</ele>
        <time>2025-07-11T10:53:24.001000+02:00</time>
      </trkpt>
      <trkpt lat="46.22275" lon="-0.15172">
        <ele>118.1</ele>
        <time>2025-07-11T10:53:25.001000+02:00</time>
      </trkpt>
      <trkpt lat="46.22283" lon="-0.15172">
        <ele>117.9</ele>
        <time>2025-07-11T10:53:27+02:00</time>
      </trkpt>
      <trkpt lat="46.22287" lon="-0.15172">
        <ele>117.9</ele>
        <time>2025-07-11T10:53:28.001000+02:00</time>
      </trkpt>
      <trkpt lat="46.22291" lon="-0.15171">
        <ele>117.8</ele>
        <time>2025-07-11T10:53:29.001000+02:00</time>
      </trkpt>
      <trkpt lat="46.22294" lon="-0.1517">
        <ele>117.6</ele>
        <time>2025-07-11T10:53:30.001000+02:00</time>
      </trkpt>
      <trkpt lat="46.22298" lon="-0.1517">
        <ele>117.6</ele>
        <time>2025-07-11T10:53:31.002000+02:00</time>
      </trkpt>
      <trkpt lat="46.22307" lon="-0.1517">
        <ele>117.6</ele>
        <time>2025-07-11T10:53:33.001000+02:00</time>
      </trkpt>
      <trkpt lat="46.22311" lon="-0.15169">
        <ele>117.6</ele>
        <time>2025-07-11T10:53:34.001000+02:00</time>
      </trkpt>
      <trkpt lat="46.22319" lon="-0.15168">
        <ele>117.7</ele>
        <time>2025-07-11T10:53:35.999000+02:00</time>
      </trkpt>
      <trkpt lat="46.22322" lon="-0.15168">
        <ele>117.8</ele>
        <time>2025-07-11T10:53:37+02:00</time>
      </trkpt>
      <trkpt lat="46.22325" lon="-0.15168">
        <ele>117.8</ele>
        <time>2025-07-11T10:53:38.001000+02:00</time>
      </trkpt>
      <trkpt lat="46.22328" lon="-0.15168">
        <ele>118</ele>
        <time>2025-07-11T10:53:39.002000+02:00</time>
      </trkpt>
      <trkpt lat="46.22331" lon="-0.15168">
        <ele>118.1</ele>
        <time>2025-07-11T10:53:41+02:00</time>
      </trkpt>
      <trkpt lat="46.22333" lon="-0.15167">
        <ele>118.1</ele>
        <time>2025-07-11T10:53:42+02:00</time>
      </trkpt>
      <trkpt lat="46.22335" lon="-0.15166">
        <ele>118</ele>
        <time>2025-07-11T10:53:43.001000+02:00</time>
      </trkpt>
      <trkpt lat="46.22337" lon="-0.15165">
        <ele>117.9</ele>
        <time>2025-07-11T10:53:44.001000+02:00</time>
      </trkpt>
      <trkpt lat="46.22339" lon="-0.15164">
        <ele>117.8</ele>
        <time>2025-07-11T10:53:45.001000+02:00</time>
      </trkpt>
      <trkpt lat="46.22342" lon="-0.15161">
        <ele>117.7</ele>
        <time>2025-07-11T10:53:47+02:00</time>
      </trkpt>
      <trkpt lat="46.22344" lon="-0.1516">
        <ele>117.6</ele>
        <time>2025-07-11T10:53:48+02:00</time>
      </trkpt>
      <trkpt lat="46.22346" lon="-0.15159">
        <ele>117.6</ele>
        <time>2025-07-11T10:53:49.001000+02:00</time>
      </trkpt>
      <trkpt lat="46.22349" lon="-0.15158">
        <ele>117.6</ele>
        <time>2025-07-11T10:53:50.001000+02:00</time>
      </trkpt>
      <trkpt lat="46.22352" lon="-0.15158">
        <ele>117.6</ele>
        <time>2025-07-11T10:53:51.003000+02:00</time>
      </trkpt>
      <trkpt lat="46.22357" lon="-0.15155">
        <ele>117.5</ele>
        <time>2025-07-11T10:53:53.002000+02:00</time>
      </trkpt>
      <trkpt lat="46.22359" lon="-0.15153">
        <ele>117.5</ele>
        <time>2025-07-11T10:53:54.002000+02:00</time>
      </trkpt>
      <trkpt lat="46.22364" lon="-0.15149">
        <ele>117.4</ele>
        <time>2025-07-11T10:53:56+02:00</time>
      </trkpt>
      <trkpt lat="46.22365" lon="-0.15147">
        <ele>117.5</ele>
        <time>2025-07-11T10:53:57.001000+02:00</time>
      </trkpt>
      <trkpt lat="46.22369" lon="-0.15141">
        <ele>117.4</ele>
        <time>2025-07-11T10:53:59.001000+02:00</time>
      </trkpt>
      <trkpt lat="46.22372" lon="-0.15138">
        <ele>117.4</ele>
        <time>2025-07-11T10:54:00.001000+02:00</time>
      </trkpt>
      <trkpt lat="46.22375" lon="-0.15137">
        <ele>117.4</ele>
        <time>2025-07-11T10:54:01.001000+02:00</time>
      </trkpt>
      <trkpt lat="46.22379" lon="-0.15135">
        <ele>117.4</ele>
        <time>2025-07-11T10:54:02.002000+02:00</time>
      </trkpt>
      <trkpt lat="46.22387" lon="-0.15129">
        <ele>117.2</ele>
        <time>2025-07-11T10:54:04.001000+02:00</time>
      </trkpt>
      <trkpt lat="46.22394" lon="-0.15122">
        <ele>116.9</ele>
        <time>2025-07-11T10:54:06.001000+02:00</time>
      </trkpt>
      <trkpt lat="46.22398" lon="-0.15119">
        <ele>116.8</ele>
        <time>2025-07-11T10:54:07.001000+02:00</time>
      </trkpt>
      <trkpt lat="46.22402" lon="-0.15117">
        <ele>116.8</ele>
        <time>2025-07-11T10:54:08.002000+02:00</time>
      </trkpt>
      <trkpt lat="46.22407" lon="-0.15114">
        <ele>116.8</ele>
        <time>2025-07-11T10:54:09.002000+02:00</time>
      </trkpt>
      <trkpt lat="46.22411" lon="-0.15112">
        <ele>116.8</ele>
        <time>2025-07-11T10:54:10.002000+02:00</time>
      </trkpt>
      <trkpt lat="46.2242" lon="-0.15107">
        <ele>117</ele>
        <time>2025-07-11T10:54:12.001000+02:00</time>
      </trkpt>
      <trkpt lat="46.22425" lon="-0.15105">
        <ele>117.1</ele>
        <time>2025-07-11T10:54:13.001000+02:00</time>
      </trkpt>
      <trkpt lat="46.22429" lon="-0.15102">
        <ele>117.2</ele>
        <time>2025-07-11T10:54:14.001000+02:00</time>
      </trkpt>
      <trkpt lat="46.22432" lon="-0.151">
        <ele>117.3</ele>
        <time>2025-07-11T10:54:15.003000+02:00</time>
      </trkpt>
      <trkpt lat="46.2244" lon="-0.15095">
        <ele>117.5</ele>
        <time>2025-07-11T10:54:17.001000+02:00</time>
      </trkpt>
      <trkpt lat="46.22443" lon="-0.15093">
        <ele>117.6</ele>
        <time>2025-07-11T10:54:18.002000+02:00</time>
      </trkpt>
      <trkpt lat="46.22448" lon="-0.15091">
        <ele>117.7</ele>
        <time>2025-07-11T10:54:19.002000+02:00</time>
      </trkpt>
      <trkpt lat="46.22456" lon="-0.15087">
        <ele>117.6</ele>
        <time>2025-07-11T10:54:21.002000+02:00</time>
      </trkpt>
      <trkpt lat="46.22463" lon="-0.15082">
        <ele>117.5</ele>
        <time>2025-07-11T10:54:23+02:00</time>
      </trkpt>
      <trkpt lat="46.22471" lon="-0.15078">
        <ele>117.4</ele>
        <time>2025-07-11T10:54:25.001000+02:00</time>
      </trkpt>
      <trkpt lat="46.22477" lon="-0.15069">
        <ele>116.7</ele>
        <time>2025-07-11T10:54:27.001000+02:00</time>
      </trkpt>
      <trkpt lat="46.22483" lon="-0.15067">
        <ele>116.8</ele>
        <time>2025-07-11T10:54:29.001000+02:00</time>
      </trkpt>
      <trkpt lat="46.22492" lon="-0.15064">
        <ele>117.1</ele>
        <time>2025-07-11T10:54:30.999000+02:00</time>
      </trkpt>
      <trkpt lat="46.22496" lon="-0.1506">
        <ele>117</ele>
        <time>2025-07-11T10:54:32+02:00</time>
      </trkpt>
      <trkpt lat="46.22499" lon="-0.15057">
        <ele>117.1</ele>
        <time>2025-07-11T10:54:33.003000+02:00</time>
      </trkpt>
      <trkpt lat="46.22504" lon="-0.15053">
        <ele>117.1</ele>
        <time>2025-07-11T10:54:35+02:00</time>
      </trkpt>
      <trkpt lat="46.22507" lon="-0.15051">
        <ele>117.1</ele>
        <time>2025-07-11T10:54:36.001000+02:00</time>
      </trkpt>
      <trkpt lat="46.2251" lon="-0.1505">
        <ele>117.2</ele>
        <time>2025-07-11T10:54:37.002000+02:00</time>
      </trkpt>
      <trkpt lat="46.22518" lon="-0.15048">
        <ele>117.5</ele>
        <time>2025-07-11T10:54:39.002000+02:00</time>
      </trkpt>
      <trkpt lat="46.22526" lon="-0.15046">
        <ele>117.8</ele>
        <time>2025-07-11T10:54:41.001000+02:00</time>
      </trkpt>
      <trkpt lat="46.22533" lon="-0.15042">
        <ele>117.8</ele>
        <time>2025-07-11T10:54:43.001000+02:00</time>
      </trkpt>
      <trkpt lat="46.22537" lon="-0.1504">
        <ele>117.8</ele>
        <time>2025-07-11T10:54:44.003000+02:00</time>
      </trkpt>
      <trkpt lat="46.22543" lon="-0.15033">
        <ele>117.9</ele>
        <time>2025-07-11T10:54:46.001000+02:00</time>
      </trkpt>
      <trkpt lat="46.22548" lon="-0.15024">
        <ele>118</ele>
        <time>2025-07-11T10:54:48.001000+02:00</time>
      </trkpt>
      <trkpt lat="46.2255" lon="-0.15019">
        <ele>118</ele>
        <time>2025-07-11T10:54:49.001000+02:00</time>
      </trkpt>
      <trkpt lat="46.22556" lon="-0.15011">
        <ele>118.4</ele>
        <time>2025-07-11T10:54:51.001000+02:00</time>
      </trkpt>
      <trkpt lat="46.2256" lon="-0.15008">
        <ele>118.4</ele>
        <time>2025-07-11T10:54:52.001000+02:00</time>
      </trkpt>
      <trkpt lat="46.22568" lon="-0.15003">
        <ele>118.5</ele>
        <time>2025-07-11T10:54:54.001000+02:00</time>
      </trkpt>
      <trkpt lat="46.22571" lon="-0.15">
        <ele>118.6</ele>
        <time>2025-07-11T10:54:55.001000+02:00</time>
      </trkpt>
      <trkpt lat="46.22575" lon="-0.14998">
        <ele>118.2</ele>
        <time>2025-07-11T10:54:56.001000+02:00</time>
      </trkpt>
      <trkpt lat="46.22579" lon="-0.14995">
        <ele>117.9</ele>
        <time>2025-07-11T10:54:57.001000+02:00</time>
      </trkpt>
      <trkpt lat="46.22583" lon="-0.14993">
        <ele>117.6</ele>
        <time>2025-07-11T10:54:58.001000+02:00</time>
      </trkpt>
      <trkpt lat="46.22587" lon="-0.1499">
        <ele>117.4</ele>
        <time>2025-07-11T10:54:59.001000+02:00</time>
      </trkpt>
      <trkpt lat="46.2259" lon="-0.14988">
        <ele>117.3</ele>
        <time>2025-07-11T10:55:00.001000+02:00</time>
      </trkpt>
      <trkpt lat="46.22594" lon="-0.14986">
        <ele>117.4</ele>
        <time>2025-07-11T10:55:01.001000+02:00</time>
      </trkpt>
      <trkpt lat="46.22598" lon="-0.14984">
        <ele>117.6</ele>
        <time>2025-07-11T10:55:02.001000+02:00</time>
      </trkpt>
      <trkpt lat="46.22602" lon="-0.14982">
        <ele>117.9</ele>
        <time>2025-07-11T10:55:03.002000+02:00</time>
      </trkpt>
      <trkpt lat="46.2261" lon="-0.14978">
        <ele>118.8</ele>
        <time>2025-07-11T10:55:05.003000+02:00</time>
      </trkpt>
      <trkpt lat="46.22618" lon="-0.14977">
        <ele>119</ele>
        <time>2025-07-11T10:55:07+02:00</time>
      </trkpt>
      <trkpt lat="46.22623" lon="-0.14979">
        <ele>119</ele>
        <time>2025-07-11T10:55:08.001000+02:00</time>
      </trkpt>
      <trkpt lat="46.22627" lon="-0.14981">
        <ele>119</ele>
        <time>2025-07-11T10:55:09.001000+02:00</time>
      </trkpt>
      <trkpt lat="46.22631" lon="-0.14985">
        <ele>119</ele>
        <time>2025-07-11T10:55:10.001000+02:00</time>
      </trkpt>
      <trkpt lat="46.22635" lon="-0.14989">
        <ele>119</ele>
        <time>2025-07-11T10:55:11.004000+02:00</time>
      </trkpt>
      <trkpt lat="46.22639" lon="-0.15001">
        <ele>119</ele>
        <time>2025-07-11T10:55:13.002000+02:00</time>
      </trkpt>
      <trkpt lat="46.22643" lon="-0.15014">
        <ele>119</ele>
        <time>2025-07-11T10:55:15+02:00</time>
      </trkpt>
      <trkpt lat="46.22645" lon="-0.15021">
        <ele>119</ele>
        <time>2025-07-11T10:55:16.001000+02:00</time>
      </trkpt>
      <trkpt lat="46.22651" lon="-0.15032">
        <ele>119</ele>
        <time>2025-07-11T10:55:18.001000+02:00</time>
      </trkpt>
      <trkpt lat="46.22659" lon="-0.15037">
        <ele>119</ele>
        <time>2025-07-11T10:55:20+02:00</time>
      </trkpt>
      <trkpt lat="46.22663" lon="-0.15036">
        <ele>119</ele>
        <time>2025-07-11T10:55:21.001000+02:00</time>
      </trkpt>
      <trkpt lat="46.22667" lon="-0.15035">
        <ele>119</ele>
        <time>2025-07-11T10:55:22.001000+02:00</time>
      </trkpt>
      <trkpt lat="46.22671" lon="-0.15033">
        <ele>119</ele>
        <time>2025-07-11T10:55:23.002000+02:00</time>
      </trkpt>
      <trkpt lat="46.2268" lon="-0.15027">
        <ele>119</ele>
        <time>2025-07-11T10:55:25+02:00</time>
      </trkpt>
      <trkpt lat="46.22684" lon="-0.15025">
        <ele>119</ele>
        <time>2025-07-11T10:55:26+02:00</time>
      </trkpt>
      <trkpt lat="46.22688" lon="-0.15022">
        <ele>119</ele>
        <time>2025-07-11T10:55:27.001000+02:00</time>
      </trkpt>
      <trkpt lat="46.22693" lon="-0.1502">
        <ele>119</ele>
        <time>2025-07-11T10:55:28.001000+02:00</time>
      </trkpt>
      <trkpt lat="46.22701" lon="-0.15016">
        <ele>119.1</ele>
        <time>2025-07-11T10:55:30.001000+02:00</time>
      </trkpt>
      <trkpt lat="46.22709" lon="-0.15011">
        <ele>119.2</ele>
        <time>2025-07-11T10:55:32.001000+02:00</time>
      </trkpt>
      <trkpt lat="46.22713" lon="-0.15008">
        <ele>119.2</ele>
        <time>2025-07-11T10:55:33.001000+02:00</time>
      </trkpt>
      <trkpt lat="46.22717" lon="-0.15006">
        <ele>119.2</ele>
        <time>2025-07-11T10:55:34.001000+02:00</time>
      </trkpt>
      <trkpt lat="46.22722" lon="-0.15004">
        <ele>119.1</ele>
        <time>2025-07-11T10:55:35.001000+02:00</time>
      </trkpt>
      <trkpt lat="46.2273" lon="-0.14999">
        <ele>119</ele>
        <time>2025-07-11T10:55:37.001000+02:00</time>
      </trkpt>
      <trkpt lat="46.22734" lon="-0.14997">
        <ele>119</ele>
        <time>2025-07-11T10:55:38.001000+02:00</time>
      </trkpt>
      <trkpt lat="46.22739" lon="-0.14994">
        <ele>119</ele>
        <time>2025-07-11T10:55:39.002000+02:00</time>
      </trkpt>
      <trkpt lat="46.22747" lon="-0.14988">
        <ele>119</ele>
        <time>2025-07-11T10:55:41+02:00</time>
      </trkpt>
      <trkpt lat="46.22751" lon="-0.14985">
        <ele>119.2</ele>
        <time>2025-07-11T10:55:42.002000+02:00</time>
      </trkpt>
      <trkpt lat="46.22756" lon="-0.14983">
        <ele>119.6</ele>
        <time>2025-07-11T10:55:43.002000+02:00</time>
      </trkpt>
      <trkpt lat="46.22764" lon="-0.14977">
        <ele>119.6</ele>
        <time>2025-07-11T10:55:45.002000+02:00</time>
      </trkpt>
      <trkpt lat="46.22773" lon="-0.14972">
        <ele>119</ele>
        <time>2025-07-11T10:55:47.001000+02:00</time>
      </trkpt>
      <trkpt lat="46.22778" lon="-0.14969">
        <ele>119</ele>
        <time>2025-07-11T10:55:48.001000+02:00</time>
      </trkpt>
      <trkpt lat="46.22783" lon="-0.14965">
        <ele>119.8</ele>
        <time>2025-07-11T10:55:49.001000+02:00</time>
      </trkpt>
      <trkpt lat="46.22792" lon="-0.1496">
        <ele>120.7</ele>
        <time>2025-07-11T10:55:51.002000+02:00</time>
      </trkpt>
      <trkpt lat="46.228" lon="-0.14955">
        <ele>120.8</ele>
        <time>2025-07-11T10:55:53.001000+02:00</time>
      </trkpt>
      <trkpt lat="46.22805" lon="-0.14951">
        <ele>120.4</ele>
        <time>2025-07-11T10:55:54.001000+02:00</time>
      </trkpt>
      <trkpt lat="46.22815" lon="-0.14944">
        <ele>120.3</ele>
        <time>2025-07-11T10:55:56.001000+02:00</time>
      </trkpt>
      <trkpt lat="46.22819" lon="-0.14942">
        <ele>120.8</ele>
        <time>2025-07-11T10:55:57.002000+02:00</time>
      </trkpt>
      <trkpt lat="46.22828" lon="-0.14935">
        <ele>121.1</ele>
        <time>2025-07-11T10:55:59.001000+02:00</time>
      </trkpt>
      <trkpt lat="46.22833" lon="-0.14931">
        <ele>121</ele>
        <time>2025-07-11T10:56:00.001000+02:00</time>
      </trkpt>
      <trkpt lat="46.22838" lon="-0.14927">
        <ele>120.7</ele>
        <time>2025-07-11T10:56:01.002000+02:00</time>
      </trkpt>
      <trkpt lat="46.22847" lon="-0.1492">
        <ele>120</ele>
        <time>2025-07-11T10:56:03.002000+02:00</time>
      </trkpt>
      <trkpt lat="46.22857" lon="-0.14913">
        <ele>119.7</ele>
        <time>2025-07-11T10:56:05.001000+02:00</time>
      </trkpt>
      <trkpt lat="46.22862" lon="-0.1491">
        <ele>119.7</ele>
        <time>2025-07-11T10:56:06.003000+02:00</time>
      </trkpt>
      <trkpt lat="46.22871" lon="-0.14904">
        <ele>119.6</ele>
        <time>2025-07-11T10:56:08.001000+02:00</time>
      </trkpt>
      <trkpt lat="46.22876" lon="-0.14901">
        <ele>119.4</ele>
        <time>2025-07-11T10:56:09.001000+02:00</time>
      </trkpt>
      <trkpt lat="46.22881" lon="-0.14898">
        <ele>119.3</ele>
        <time>2025-07-11T10:56:10.002000+02:00</time>
      </trkpt>
      <trkpt lat="46.22891" lon="-0.14892">
        <ele>119.1</ele>
        <time>2025-07-11T10:56:12.001000+02:00</time>
      </trkpt>
      <trkpt lat="46.22896" lon="-0.14889">
        <ele>119</ele>
        <time>2025-07-11T10:56:13.002000+02:00</time>
      </trkpt>
      <trkpt lat="46.22906" lon="-0.14884">
        <ele>118.4</ele>
        <time>2025-07-11T10:56:15.002000+02:00</time>
      </trkpt>
      <trkpt lat="46.22911" lon="-0.14881">
        <ele>118.1</ele>
        <time>2025-07-11T10:56:16.002000+02:00</time>
      </trkpt>
      <trkpt lat="46.22921" lon="-0.14877">
        <ele>118</ele>
        <time>2025-07-11T10:56:18+02:00</time>
      </trkpt>
      <trkpt lat="46.22926" lon="-0.14875">
        <ele>118.1</ele>
        <time>2025-07-11T10:56:19.001000+02:00</time>
      </trkpt>
      <trkpt lat="46.22936" lon="-0.14869">
        <ele>118.5</ele>
        <time>2025-07-11T10:56:21.002000+02:00</time>
      </trkpt>
      <trkpt lat="46.22944" lon="-0.14864">
        <ele>119.1</ele>
        <time>2025-07-11T10:56:23+02:00</time>
      </trkpt>
      <trkpt lat="46.22949" lon="-0.14862">
        <ele>119</ele>
        <time>2025-07-11T10:56:24.001000+02:00</time>
      </trkpt>
      <trkpt lat="46.22953" lon="-0.14859">
        <ele>118.7</ele>
        <time>2025-07-11T10:56:25.001000+02:00</time>
      </trkpt>
      <trkpt lat="46.22963" lon="-0.14855">
        <ele>118.4</ele>
        <time>2025-07-11T10:56:27.002000+02:00</time>
      </trkpt>
      <trkpt lat="46.22967" lon="-0.14852">
        <ele>118.4</ele>
        <time>2025-07-11T10:56:28.006000+02:00</time>
      </trkpt>
      <trkpt lat="46.22976" lon="-0.14847">
        <ele>118.5</ele>
        <time>2025-07-11T10:56:30.001000+02:00</time>
      </trkpt>
      <trkpt lat="46.22985" lon="-0.14842">
        <ele>118.5</ele>
        <time>2025-07-11T10:56:32+02:00</time>
      </trkpt>
      <trkpt lat="46.22989" lon="-0.14841">
        <ele>118.4</ele>
        <time>2025-07-11T10:56:33.001000+02:00</time>
      </trkpt>
      <trkpt lat="46.22995" lon="-0.14839">
        <ele>118.4</ele>
        <time>2025-07-11T10:56:34.002000+02:00</time>
      </trkpt>
      <trkpt lat="46.23005" lon="-0.14833">
        <ele>118.1</ele>
        <time>2025-07-11T10:56:36.001000+02:00</time>
      </trkpt>
      <trkpt lat="46.23009" lon="-0.1483">
        <ele>118.1</ele>
        <time>2025-07-11T10:56:37.001000+02:00</time>
      </trkpt>
      <trkpt lat="46.23014" lon="-0.14827">
        <ele>118.2</ele>
        <time>2025-07-11T10:56:38.001000+02:00</time>
      </trkpt>
      <trkpt lat="46.23018" lon="-0.14824">
        <ele>118.2</ele>
        <time>2025-07-11T10:56:39.002000+02:00</time>
      </trkpt>
      <trkpt lat="46.23027" lon="-0.14818">
        <ele>118.4</ele>
        <time>2025-07-11T10:56:41.001000+02:00</time>
      </trkpt>
      <trkpt lat="46.23031" lon="-0.14814">
        <ele>118.4</ele>
        <time>2025-07-11T10:56:42.002000+02:00</time>
      </trkpt>
      <trkpt lat="46.23039" lon="-0.14807">
        <ele>118.5</ele>
        <time>2025-07-11T10:56:44.001000+02:00</time>
      </trkpt>
      <trkpt lat="46.23044" lon="-0.14805">
        <ele>118.5</ele>
        <time>2025-07-11T10:56:45.003000+02:00</time>
      </trkpt>
      <trkpt lat="46.23053" lon="-0.14799">
        <ele>118.4</ele>
        <time>2025-07-11T10:56:47.001000+02:00</time>
      </trkpt>
      <trkpt lat="46.23058" lon="-0.14797">
        <ele>118.5</ele>
        <time>2025-07-11T10:56:48.001000+02:00</time>
      </trkpt>
      <trkpt lat="46.23063" lon="-0.14794">
        <ele>118.5</ele>
        <time>2025-07-11T10:56:49.002000+02:00</time>
      </trkpt>
      <trkpt lat="46.23074" lon="-0.14789">
        <ele>118.5</ele>
        <time>2025-07-11T10:56:51.002000+02:00</time>
      </trkpt>
      <trkpt lat="46.23083" lon="-0.14783">
        <ele>118.4</ele>
        <time>2025-07-11T10:56:53.001000+02:00</time>
      </trkpt>
      <trkpt lat="46.23088" lon="-0.14781">
        <ele>118.4</ele>
        <time>2025-07-11T10:56:54.001000+02:00</time>
      </trkpt>
      <trkpt lat="46.23097" lon="-0.14776">
        <ele>118.4</ele>
        <time>2025-07-11T10:56:56.001000+02:00</time>
      </trkpt>
      <trkpt lat="46.23102" lon="-0.14774">
        <ele>118.5</ele>
        <time>2025-07-11T10:56:57.004000+02:00</time>
      </trkpt>
      <trkpt lat="46.23112" lon="-0.14768">
        <ele>118.7</ele>
        <time>2025-07-11T10:56:59.001000+02:00</time>
      </trkpt>
      <trkpt lat="46.23116" lon="-0.14766">
        <ele>118.7</ele>
        <time>2025-07-11T10:57:00.001000+02:00</time>
      </trkpt>
      <trkpt lat="46.23121" lon="-0.14763">
        <ele>118.6</ele>
        <time>2025-07-11T10:57:01.003000+02:00</time>
      </trkpt>
      <trkpt lat="46.2313" lon="-0.14758">
        <ele>118.5</ele>
        <time>2025-07-11T10:57:03+02:00</time>
      </trkpt>
      <trkpt lat="46.23135" lon="-0.14755">
        <ele>118.3</ele>
        <time>2025-07-11T10:57:04.001000+02:00</time>
      </trkpt>
      <trkpt lat="46.2314" lon="-0.14753">
        <ele>118.3</ele>
        <time>2025-07-11T10:57:05.002000+02:00</time>
      </trkpt>
      <trkpt lat="46.2315" lon="-0.14747">
        <ele>118.6</ele>
        <time>2025-07-11T10:57:07.002000+02:00</time>
      </trkpt>
      <trkpt lat="46.23155" lon="-0.14745">
        <ele>118.7</ele>
        <time>2025-07-11T10:57:08.002000+02:00</time>
      </trkpt>
      <trkpt lat="46.23164" lon="-0.1474">
        <ele>118.7</ele>
        <time>2025-07-11T10:57:10.001000+02:00</time>
      </trkpt>
      <trkpt lat="46.23168" lon="-0.14737">
        <ele>118.7</ele>
        <time>2025-07-11T10:57:11.001000+02:00</time>
      </trkpt>
      <trkpt lat="46.23173" lon="-0.14734">
        <ele>118.7</ele>
        <time>2025-07-11T10:57:12.002000+02:00</time>
      </trkpt>
      <trkpt lat="46.2318" lon="-0.14729">
        <ele>118.9</ele>
        <time>2025-07-11T10:57:14.002000+02:00</time>
      </trkpt>
      <trkpt lat="46.23188" lon="-0.14724">
        <ele>119.3</ele>
        <time>2025-07-11T10:57:16+02:00</time>
      </trkpt>
      <trkpt lat="46.23192" lon="-0.1472">
        <ele>119.4</ele>
        <time>2025-07-11T10:57:17+02:00</time>
      </trkpt>
      <trkpt lat="46.23196" lon="-0.14717">
        <ele>119.3</ele>
        <time>2025-07-11T10:57:18+02:00</time>
      </trkpt>
      <trkpt lat="46.232" lon="-0.14715">
        <ele>119.1</ele>
        <time>2025-07-11T10:57:19.001000+02:00</time>
      </trkpt>
      <trkpt lat="46.23205" lon="-0.14712">
        <ele>119</ele>
        <time>2025-07-11T10:57:20.001000+02:00</time>
      </trkpt>
      <trkpt lat="46.23209" lon="-0.14709">
        <ele>118.9</ele>
        <time>2025-07-11T10:57:21.001000+02:00</time>
      </trkpt>
      <trkpt lat="46.23213" lon="-0.14707">
        <ele>118.9</ele>
        <time>2025-07-11T10:57:22.001000+02:00</time>
      </trkpt>
      <trkpt lat="46.23217" lon="-0.14704">
        <ele>119</ele>
        <time>2025-07-11T10:57:23.003000+02:00</time>
      </trkpt>
      <trkpt lat="46.23223" lon="-0.14699">
        <ele>119.2</ele>
        <time>2025-07-11T10:57:25.002000+02:00</time>
      </trkpt>
      <trkpt lat="46.23227" lon="-0.14697">
        <ele>119.2</ele>
        <time>2025-07-11T10:57:26.003000+02:00</time>
      </trkpt>
      <trkpt lat="46.23231" lon="-0.14695">
        <ele>119.3</ele>
        <time>2025-07-11T10:57:27.003000+02:00</time>
      </trkpt>
      <trkpt lat="46.23238" lon="-0.14689">
        <ele>119</ele>
        <time>2025-07-11T10:57:29+02:00</time>
      </trkpt>
      <trkpt lat="46.23242" lon="-0.14687">
        <ele>119</ele>
        <time>2025-07-11T10:57:30.002000+02:00</time>
      </trkpt>
      <trkpt lat="46.23251" lon="-0.14681">
        <ele>119</ele>
        <time>2025-07-11T10:57:32.002000+02:00</time>
      </trkpt>
      <trkpt lat="46.23255" lon="-0.14678">
        <ele>118.9</ele>
        <time>2025-07-11T10:57:33.003000+02:00</time>
      </trkpt>
      <trkpt lat="46.2326" lon="-0.14675">
        <ele>118.8</ele>
        <time>2025-07-11T10:57:34.005000+02:00</time>
      </trkpt>
      <trkpt lat="46.23268" lon="-0.14669">
        <ele>118.7</ele>
        <time>2025-07-11T10:57:36.001000+02:00</time>
      </trkpt>
      <trkpt lat="46.23272" lon="-0.14666">
        <ele>118.7</ele>
        <time>2025-07-11T10:57:37.002000+02:00</time>
      </trkpt>
      <trkpt lat="46.23275" lon="-0.14663">
        <ele>118.5</ele>
        <time>2025-07-11T10:57:38.002000+02:00</time>
      </trkpt>
      <trkpt lat="46.2328" lon="-0.14661">
        <ele>118.4</ele>
        <time>2025-07-11T10:57:39.002000+02:00</time>
      </trkpt>
      <trkpt lat="46.23284" lon="-0.14658">
        <ele>118.5</ele>
        <time>2025-07-11T10:57:40.002000+02:00</time>
      </trkpt>
      <trkpt lat="46.23288" lon="-0.14654">
        <ele>118.6</ele>
        <time>2025-07-11T10:57:41.002000+02:00</time>
      </trkpt>
      <trkpt lat="46.23293" lon="-0.14651">
        <ele>118.8</ele>
        <time>2025-07-11T10:57:42.002000+02:00</time>
      </trkpt>
      <trkpt lat="46.23303" lon="-0.14644">
        <ele>119.7</ele>
        <time>2025-07-11T10:57:44.001000+02:00</time>
      </trkpt>
      <trkpt lat="46.23307" lon="-0.14641">
        <ele>120</ele>
        <time>2025-07-11T10:57:45.002000+02:00</time>
      </trkpt>
      <trkpt lat="46.23316" lon="-0.14634">
        <ele>119.6</ele>
        <time>2025-07-11T10:57:47.001000+02:00</time>
      </trkpt>
      <trkpt lat="46.23321" lon="-0.14631">
        <ele>119.4</ele>
        <time>2025-07-11T10:57:48.001000+02:00</time>
      </trkpt>
      <trkpt lat="46.23325" lon="-0.14628">
        <ele>119.4</ele>
        <time>2025-07-11T10:57:49.002000+02:00</time>
      </trkpt>
      <trkpt lat="46.2333" lon="-0.14625">
        <ele>119.4</ele>
        <time>2025-07-11T10:57:50.002000+02:00</time>
      </trkpt>
      <trkpt lat="46.23338" lon="-0.14619">
        <ele>119.6</ele>
        <time>2025-07-11T10:57:52.001000+02:00</time>
      </trkpt>
      <trkpt lat="46.23342" lon="-0.14616">
        <ele>119.8</ele>
        <time>2025-07-11T10:57:53.002000+02:00</time>
      </trkpt>
      <trkpt lat="46.23352" lon="-0.1461">
        <ele>120.3</ele>
        <time>2025-07-11T10:57:55.001000+02:00</time>
      </trkpt>
      <trkpt lat="46.23357" lon="-0.14607">
        <ele>120.5</ele>
        <time>2025-07-11T10:57:56.001000+02:00</time>
      </trkpt>
      <trkpt lat="46.23363" lon="-0.14604">
        <ele>120.8</ele>
        <time>2025-07-11T10:57:57.002000+02:00</time>
      </trkpt>
      <trkpt lat="46.23368" lon="-0.14601">
        <ele>120.9</ele>
        <time>2025-07-11T10:57:58.002000+02:00</time>
      </trkpt>
      <trkpt lat="46.23379" lon="-0.14596">
        <ele>121.1</ele>
        <time>2025-07-11T10:58:00.001000+02:00</time>
      </trkpt>
      <trkpt lat="46.23384" lon="-0.14595">
        <ele>121.2</ele>
        <time>2025-07-11T10:58:01.001000+02:00</time>
      </trkpt>
      <trkpt lat="46.23389" lon="-0.14593">
        <ele>121.3</ele>
        <time>2025-07-11T10:58:02.003000+02:00</time>
      </trkpt>
      <trkpt lat="46.23399" lon="-0.1459">
        <ele>121.7</ele>
        <time>2025-07-11T10:58:04+02:00</time>
      </trkpt>
      <trkpt lat="46.23405" lon="-0.14587">
        <ele>121.8</ele>
        <time>2025-07-11T10:58:05.001000+02:00</time>
      </trkpt>
      <trkpt lat="46.23409" lon="-0.14585">
        <ele>121.9</ele>
        <time>2025-07-11T10:58:06.002000+02:00</time>
      </trkpt>
      <trkpt lat="46.23419" lon="-0.14581">
        <ele>122</ele>
        <time>2025-07-11T10:58:08.001000+02:00</time>
      </trkpt>
      <trkpt lat="46.23424" lon="-0.14579">
        <ele>122.1</ele>
        <time>2025-07-11T10:58:09.002000+02:00</time>
      </trkpt>
      <trkpt lat="46.23435" lon="-0.14576">
        <ele>122.2</ele>
        <time>2025-07-11T10:58:11.001000+02:00</time>
      </trkpt>
      <trkpt lat="46.2344" lon="-0.14575">
        <ele>122.3</ele>
        <time>2025-07-11T10:58:12.001000+02:00</time>
      </trkpt>
      <trkpt lat="46.23446" lon="-0.14573">
        <ele>122.3</ele>
        <time>2025-07-11T10:58:13.001000+02:00</time>
      </trkpt>
      <trkpt lat="46.23457" lon="-0.14569">
        <ele>122.2</ele>
        <time>2025-07-11T10:58:15.002000+02:00</time>
      </trkpt>
      <trkpt lat="46.23467" lon="-0.14565">
        <ele>121.9</ele>
        <time>2025-07-11T10:58:17.001000+02:00</time>
      </trkpt>
      <trkpt lat="46.23471" lon="-0.14563">
        <ele>121.8</ele>
        <time>2025-07-11T10:58:18.002000+02:00</time>
      </trkpt>
      <trkpt lat="46.2348" lon="-0.14559">
        <ele>121.4</ele>
        <time>2025-07-11T10:58:20.001000+02:00</time>
      </trkpt>
      <trkpt lat="46.23484" lon="-0.14557">
        <ele>121.2</ele>
        <time>2025-07-11T10:58:21.002000+02:00</time>
      </trkpt>
      <trkpt lat="46.23494" lon="-0.14555">
        <ele>120.9</ele>
        <time>2025-07-11T10:58:23+02:00</time>
      </trkpt>
      <trkpt lat="46.23499" lon="-0.14554">
        <ele>120.8</ele>
        <time>2025-07-11T10:58:24.002000+02:00</time>
      </trkpt>
      <trkpt lat="46.23508" lon="-0.1455">
        <ele>120.9</ele>
        <time>2025-07-11T10:58:26+02:00</time>
      </trkpt>
      <trkpt lat="46.23513" lon="-0.14549">
        <ele>120.9</ele>
        <time>2025-07-11T10:58:27.001000+02:00</time>
      </trkpt>
      <trkpt lat="46.23518" lon="-0.14547">
        <ele>120.9</ele>
        <time>2025-07-11T10:58:28.001000+02:00</time>
      </trkpt>
      <trkpt lat="46.23523" lon="-0.14546">
        <ele>120.8</ele>
        <time>2025-07-11T10:58:29.001000+02:00</time>
      </trkpt>
      <trkpt lat="46.23528" lon="-0.14544">
        <ele>120.7</ele>
        <time>2025-07-11T10:58:30.002000+02:00</time>
      </trkpt>
      <trkpt lat="46.23537" lon="-0.14541">
        <ele>120.8</ele>
        <time>2025-07-11T10:58:32.001000+02:00</time>
      </trkpt>
      <trkpt lat="46.23548" lon="-0.1454">
        <ele>121.1</ele>
        <time>2025-07-11T10:58:34.002000+02:00</time>
      </trkpt>
      <trkpt lat="46.23558" lon="-0.14537">
        <ele>121.3</ele>
        <time>2025-07-11T10:58:36.002000+02:00</time>
      </trkpt>
      <trkpt lat="46.23568" lon="-0.14535">
        <ele>121.3</ele>
        <time>2025-07-11T10:58:38+02:00</time>
      </trkpt>
      <trkpt lat="46.23573" lon="-0.14534">
        <ele>121.2</ele>
        <time>2025-07-11T10:58:39.002000+02:00</time>
      </trkpt>
      <trkpt lat="46.23581" lon="-0.14532">
        <ele>121.2</ele>
        <time>2025-07-11T10:58:41.002000+02:00</time>
      </trkpt>
      <trkpt lat="46.2359" lon="-0.14531">
        <ele>121.3</ele>
        <time>2025-07-11T10:58:43.001000+02:00</time>
      </trkpt>
      <trkpt lat="46.23594" lon="-0.1453">
        <ele>121.5</ele>
        <time>2025-07-11T10:58:44.001000+02:00</time>
      </trkpt>
      <trkpt lat="46.23599" lon="-0.1453">
        <ele>121.6</ele>
        <time>2025-07-11T10:58:45.002000+02:00</time>
      </trkpt>
      <trkpt lat="46.23608" lon="-0.14529">
        <ele>121.9</ele>
        <time>2025-07-11T10:58:47.001000+02:00</time>
      </trkpt>
      <trkpt lat="46.23613" lon="-0.14529">
        <ele>122.1</ele>
        <time>2025-07-11T10:58:48.003000+02:00</time>
      </trkpt>
      <trkpt lat="46.23622" lon="-0.14528">
        <ele>122</ele>
        <time>2025-07-11T10:58:50.002000+02:00</time>
      </trkpt>
      <trkpt lat="46.23626" lon="-0.14528">
        <ele>122</ele>
        <time>2025-07-11T10:58:51.004000+02:00</time>
      </trkpt>
      <trkpt lat="46.23635" lon="-0.14528">
        <ele>122</ele>
        <time>2025-07-11T10:58:53.002000+02:00</time>
      </trkpt>
      <trkpt lat="46.23644" lon="-0.1453">
        <ele>122.2</ele>
        <time>2025-07-11T10:58:55.001000+02:00</time>
      </trkpt>
      <trkpt lat="46.23652" lon="-0.14532">
        <ele>122.3</ele>
        <time>2025-07-11T10:58:57.002000+02:00</time>
      </trkpt>
      <trkpt lat="46.23659" lon="-0.14533">
        <ele>122.4</ele>
        <time>2025-07-11T10:58:59.001000+02:00</time>
      </trkpt>
      <trkpt lat="46.23662" lon="-0.14534">
        <ele>122.5</ele>
        <time>2025-07-11T10:59:00.002000+02:00</time>
      </trkpt>
      <trkpt lat="46.2367" lon="-0.14536">
        <ele>122.7</ele>
        <time>2025-07-11T10:59:02.003000+02:00</time>
      </trkpt>
      <trkpt lat="46.23674" lon="-0.14536">
        <ele>122.9</ele>
        <time>2025-07-11T10:59:03.003000+02:00</time>
      </trkpt>
      <trkpt lat="46.23683" lon="-0.14537">
        <ele>123.2</ele>
        <time>2025-07-11T10:59:05.001000+02:00</time>
      </trkpt>
      <trkpt lat="46.23686" lon="-0.14538">
        <ele>123.4</ele>
        <time>2025-07-11T10:59:06.001000+02:00</time>
      </trkpt>
      <trkpt lat="46.23694" lon="-0.14538">
        <ele>123.7</ele>
        <time>2025-07-11T10:59:08.001000+02:00</time>
      </trkpt>
      <trkpt lat="46.23703" lon="-0.14539">
        <ele>123.7</ele>
        <time>2025-07-11T10:59:10+02:00</time>
      </trkpt>
      <trkpt lat="46.23708" lon="-0.14539">
        <ele>123.7</ele>
        <time>2025-07-11T10:59:11.001000+02:00</time>
      </trkpt>
      <trkpt lat="46.23712" lon="-0.14539">
        <ele>123.6</ele>
        <time>2025-07-11T10:59:12.001000+02:00</time>
      </trkpt>
      <trkpt lat="46.23721" lon="-0.1454">
        <ele>123.8</ele>
        <time>2025-07-11T10:59:14.001000+02:00</time>
      </trkpt>
      <trkpt lat="46.23725" lon="-0.14542">
        <ele>123.9</ele>
        <time>2025-07-11T10:59:15.002000+02:00</time>
      </trkpt>
      <trkpt lat="46.23734" lon="-0.14543">
        <ele>123.8</ele>
        <time>2025-07-11T10:59:17.002000+02:00</time>
      </trkpt>
      <trkpt lat="46.23743" lon="-0.14546">
        <ele>123.7</ele>
        <time>2025-07-11T10:59:19.002000+02:00</time>
      </trkpt>
      <trkpt lat="46.23747" lon="-0.14547">
        <ele>123.5</ele>
        <time>2025-07-11T10:59:20.002000+02:00</time>
      </trkpt>
      <trkpt lat="46.23752" lon="-0.14549">
        <ele>123.4</ele>
        <time>2025-07-11T10:59:21.002000+02:00</time>
      </trkpt>
      <trkpt lat="46.23761" lon="-0.14551">
        <ele>123.2</ele>
        <time>2025-07-11T10:59:23.002000+02:00</time>
      </trkpt>
      <trkpt lat="46.23766" lon="-0.14551">
        <ele>123.1</ele>
        <time>2025-07-11T10:59:24.002000+02:00</time>
      </trkpt>
      <trkpt lat="46.2377" lon="-0.14552">
        <ele>123</ele>
        <time>2025-07-11T10:59:25.002000+02:00</time>
      </trkpt>
      <trkpt lat="46.23778" lon="-0.14554">
        <ele>122.9</ele>
        <time>2025-07-11T10:59:27.002000+02:00</time>
      </trkpt>
      <trkpt lat="46.23786" lon="-0.14557">
        <ele>122.8</ele>
        <time>2025-07-11T10:59:29+02:00</time>
      </trkpt>
      <trkpt lat="46.2379" lon="-0.14558">
        <ele>122.8</ele>
        <time>2025-07-11T10:59:30.001000+02:00</time>
      </trkpt>
      <trkpt lat="46.23794" lon="-0.1456">
        <ele>122.8</ele>
        <time>2025-07-11T10:59:31.001000+02:00</time>
      </trkpt>
      <trkpt lat="46.23799" lon="-0.14561">
        <ele>122.6</ele>
        <time>2025-07-11T10:59:32.001000+02:00</time>
      </trkpt>
      <trkpt lat="46.23803" lon="-0.14563">
        <ele>122.4</ele>
        <time>2025-07-11T10:59:33.002000+02:00</time>
      </trkpt>
      <trkpt lat="46.23807" lon="-0.14565">
        <ele>122.3</ele>
        <time>2025-07-11T10:59:34.002000+02:00</time>
      </trkpt>
      <trkpt lat="46.23817" lon="-0.14567">
        <ele>122.2</ele>
        <time>2025-07-11T10:59:36.001000+02:00</time>
      </trkpt>
      <trkpt lat="46.23821" lon="-0.14568">
        <ele>122.1</ele>
        <time>2025-07-11T10:59:37.001000+02:00</time>
      </trkpt>
      <trkpt lat="46.23831" lon="-0.1457">
        <ele>122.1</ele>
        <time>2025-07-11T10:59:39.002000+02:00</time>
      </trkpt>
      <trkpt lat="46.23839" lon="-0.14572">
        <ele>121.9</ele>
        <time>2025-07-11T10:59:41+02:00</time>
      </trkpt>
      <trkpt lat="46.23843" lon="-0.14573">
        <ele>121.8</ele>
        <time>2025-07-11T10:59:42.001000+02:00</time>
      </trkpt>
      <trkpt lat="46.23851" lon="-0.14573">
        <ele>121.4</ele>
        <time>2025-07-11T10:59:44+02:00</time>
      </trkpt>
      <trkpt lat="46.23855" lon="-0.14573">
        <ele>121.2</ele>
        <time>2025-07-11T10:59:45.002000+02:00</time>
      </trkpt>
      <trkpt lat="46.23859" lon="-0.14573">
        <ele>120.9</ele>
        <time>2025-07-11T10:59:46.003000+02:00</time>
      </trkpt>
      <trkpt lat="46.23867" lon="-0.14572">
        <ele>121.2</ele>
        <time>2025-07-11T10:59:48+02:00</time>
      </trkpt>
      <trkpt lat="46.23871" lon="-0.14571">
        <ele>121.4</ele>
        <time>2025-07-11T10:59:49.002000+02:00</time>
      </trkpt>
      <trkpt lat="46.23879" lon="-0.1457">
        <ele>121.8</ele>
        <time>2025-07-11T10:59:51.002000+02:00</time>
      </trkpt>
      <trkpt lat="46.23888" lon="-0.14568">
        <ele>122.4</ele>
        <time>2025-07-11T10:59:53.001000+02:00</time>
      </trkpt>
      <trkpt lat="46.23893" lon="-0.14568">
        <ele>122.6</ele>
        <time>2025-07-11T10:59:54.002000+02:00</time>
      </trkpt>
      <trkpt lat="46.23897" lon="-0.14567">
        <ele>122.7</ele>
        <time>2025-07-11T10:59:55.002000+02:00</time>
      </trkpt>
      <trkpt lat="46.23902" lon="-0.14567">
        <ele>122.9</ele>
        <time>2025-07-11T10:59:56.002000+02:00</time>
      </trkpt>
      <trkpt lat="46.23906" lon="-0.14566">
        <ele>123</ele>
        <time>2025-07-11T10:59:57.002000+02:00</time>
      </trkpt>
      <trkpt lat="46.2391" lon="-0.14565">
        <ele>123.1</ele>
        <time>2025-07-11T10:59:58.002000+02:00</time>
      </trkpt>
      <trkpt lat="46.23914" lon="-0.14563">
        <ele>123.2</ele>
        <time>2025-07-11T10:59:59.002000+02:00</time>
      </trkpt>
      <trkpt lat="46.23923" lon="-0.14561">
        <ele>123.7</ele>
        <time>2025-07-11T11:00:01.001000+02:00</time>
      </trkpt>
      <trkpt lat="46.23927" lon="-0.1456">
        <ele>123.9</ele>
        <time>2025-07-11T11:00:02.001000+02:00</time>
      </trkpt>
      <trkpt lat="46.23935" lon="-0.14554">
        <ele>124</ele>
        <time>2025-07-11T11:00:04.001000+02:00</time>
      </trkpt>
      <trkpt lat="46.23938" lon="-0.14553">
        <ele>124.3</ele>
        <time>2025-07-11T11:00:05.001000+02:00</time>
      </trkpt>
      <trkpt lat="46.23943" lon="-0.14553">
        <ele>124.5</ele>
        <time>2025-07-11T11:00:07.001000+02:00</time>
      </trkpt>
      <trkpt lat="46.23943" lon="-0.14551">
        <ele>124.2</ele>
        <time>2025-07-11T11:00:08.001000+02:00</time>
      </trkpt>
      <trkpt lat="46.23951" lon="-0.14551">
        <ele>124.2</ele>
        <time>2025-07-11T11:00:10.002000+02:00</time>
      </trkpt>
      <trkpt lat="46.23959" lon="-0.1455">
        <ele>123.9</ele>
        <time>2025-07-11T11:00:12.003000+02:00</time>
      </trkpt>
      <trkpt lat="46.23962" lon="-0.14552">
        <ele>124</ele>
        <time>2025-07-11T11:00:13.003000+02:00</time>
      </trkpt>
      <trkpt lat="46.23969" lon="-0.14548">
        <ele>123.5</ele>
        <time>2025-07-11T11:00:15.002000+02:00</time>
      </trkpt>
      <trkpt lat="46.23983" lon="-0.14542">
        <ele>123.6</ele>
        <time>2025-07-11T11:00:17.001000+02:00</time>
      </trkpt>
      <trkpt lat="46.23991" lon="-0.14535">
        <ele>123.7</ele>
        <time>2025-07-11T11:00:18.002000+02:00</time>
      </trkpt>
      <trkpt lat="46.23998" lon="-0.14527">
        <ele>123.8</ele>
        <time>2025-07-11T11:00:20.001000+02:00</time>
      </trkpt>
      <trkpt lat="46.24002" lon="-0.14524">
        <ele>123.6</ele>
        <time>2025-07-11T11:00:21.003000+02:00</time>
      </trkpt>
      <trkpt lat="46.24008" lon="-0.14521">
        <ele>123.5</ele>
        <time>2025-07-11T11:00:22.003000+02:00</time>
      </trkpt>
      <trkpt lat="46.24017" lon="-0.14515">
        <ele>123.5</ele>
        <time>2025-07-11T11:00:24.002000+02:00</time>
      </trkpt>
      <trkpt lat="46.24025" lon="-0.1451">
        <ele>123.8</ele>
        <time>2025-07-11T11:00:26.001000+02:00</time>
      </trkpt>
      <trkpt lat="46.24033" lon="-0.14506">
        <ele>124.4</ele>
        <time>2025-07-11T11:00:28.001000+02:00</time>
      </trkpt>
      <trkpt lat="46.24037" lon="-0.14503">
        <ele>124.7</ele>
        <time>2025-07-11T11:00:29.002000+02:00</time>
      </trkpt>
      <trkpt lat="46.24041" lon="-0.14501">
        <ele>125</ele>
        <time>2025-07-11T11:00:30.002000+02:00</time>
      </trkpt>
      <trkpt lat="46.2405" lon="-0.14495">
        <ele>125.2</ele>
        <time>2025-07-11T11:00:32.002000+02:00</time>
      </trkpt>
      <trkpt lat="46.24059" lon="-0.1449">
        <ele>125.6</ele>
        <time>2025-07-11T11:00:34.001000+02:00</time>
      </trkpt>
      <trkpt lat="46.24063" lon="-0.14488">
        <ele>125.8</ele>
        <time>2025-07-11T11:00:35.001000+02:00</time>
      </trkpt>
      <trkpt lat="46.24067" lon="-0.14485">
        <ele>125.9</ele>
        <time>2025-07-11T11:00:36.002000+02:00</time>
      </trkpt>
      <trkpt lat="46.24075" lon="-0.14479">
        <ele>126.1</ele>
        <time>2025-07-11T11:00:38.002000+02:00</time>
      </trkpt>
      <trkpt lat="46.24084" lon="-0.14473">
        <ele>126.2</ele>
        <time>2025-07-11T11:00:40.004000+02:00</time>
      </trkpt>
      <trkpt lat="46.24092" lon="-0.14468">
        <ele>127.1</ele>
        <time>2025-07-11T11:00:42.001000+02:00</time>
      </trkpt>
      <trkpt lat="46.24096" lon="-0.14465">
        <ele>127.5</ele>
        <time>2025-07-11T11:00:43.001000+02:00</time>
      </trkpt>
      <trkpt lat="46.241" lon="-0.14463">
        <ele>127.7</ele>
        <time>2025-07-11T11:00:44.001000+02:00</time>
      </trkpt>
      <trkpt lat="46.24104" lon="-0.1446">
        <ele>127.8</ele>
        <time>2025-07-11T11:00:45.002000+02:00</time>
      </trkpt>
      <trkpt lat="46.24108" lon="-0.14458">
        <ele>128</ele>
        <time>2025-07-11T11:00:46.004000+02:00</time>
      </trkpt>
      <trkpt lat="46.24115" lon="-0.14453">
        <ele>128</ele>
        <time>2025-07-11T11:00:48.001000+02:00</time>
      </trkpt>
      <trkpt lat="46.24118" lon="-0.14451">
        <ele>127.9</ele>
        <time>2025-07-11T11:00:49.002000+02:00</time>
      </trkpt>
      <trkpt lat="46.24125" lon="-0.14446">
        <ele>127.8</ele>
        <time>2025-07-11T11:00:51.002000+02:00</time>
      </trkpt>
      <trkpt lat="46.24132" lon="-0.14441">
        <ele>127.8</ele>
        <time>2025-07-11T11:00:53.001000+02:00</time>
      </trkpt>
      <trkpt lat="46.24135" lon="-0.14439">
        <ele>128</ele>
        <time>2025-07-11T11:00:54.001000+02:00</time>
      </trkpt>
      <trkpt lat="46.24139" lon="-0.14437">
        <ele>128.2</ele>
        <time>2025-07-11T11:00:55.001000+02:00</time>
      </trkpt>
      <trkpt lat="46.24148" lon="-0.14432">
        <ele>128.8</ele>
        <time>2025-07-11T11:00:57.001000+02:00</time>
      </trkpt>
      <trkpt lat="46.24151" lon="-0.14429">
        <ele>128.7</ele>
        <time>2025-07-11T11:00:58.001000+02:00</time>
      </trkpt>
      <trkpt lat="46.24154" lon="-0.14426">
        <ele>128.4</ele>
        <time>2025-07-11T11:00:59.001000+02:00</time>
      </trkpt>
      <trkpt lat="46.24157" lon="-0.14423">
        <ele>128.1</ele>
        <time>2025-07-11T11:01:00.001000+02:00</time>
      </trkpt>
      <trkpt lat="46.2416" lon="-0.14421">
        <ele>127.9</ele>
        <time>2025-07-11T11:01:01.001000+02:00</time>
      </trkpt>
      <trkpt lat="46.24163" lon="-0.14419">
        <ele>127.6</ele>
        <time>2025-07-11T11:01:02.001000+02:00</time>
      </trkpt>
      <trkpt lat="46.24166" lon="-0.14418">
        <ele>127.3</ele>
        <time>2025-07-11T11:01:03.003000+02:00</time>
      </trkpt>
      <trkpt lat="46.24169" lon="-0.14416">
        <ele>127.2</ele>
        <time>2025-07-11T11:01:04.003000+02:00</time>
      </trkpt>
      <trkpt lat="46.24171" lon="-0.14415">
        <ele>127.5</ele>
        <time>2025-07-11T11:01:06.001000+02:00</time>
      </trkpt>
      <trkpt lat="46.24172" lon="-0.14415">
        <ele>127.5</ele>
        <time>2025-07-11T11:01:07.002000+02:00</time>
      </trkpt>
      <trkpt lat="46.24179" lon="-0.14413">
        <ele>128.5</ele>
        <time>2025-07-11T11:03:08+02:00</time>
      </trkpt>
      <trkpt lat="46.24181" lon="-0.14411">
        <ele>128.5</ele>
        <time>2025-07-11T11:03:09.001000+02:00</time>
      </trkpt>
      <trkpt lat="46.2418" lon="-0.14398">
        <ele>127.1</ele>
        <time>2025-07-11T11:03:11.001000+02:00</time>
      </trkpt>
      <trkpt lat="46.24181" lon="-0.14396">
        <ele>127.2</ele>
        <time>2025-07-11T11:03:12.001000+02:00</time>
      </trkpt>
      <trkpt lat="46.24183" lon="-0.14397">
        <ele>127.5</ele>
        <time>2025-07-11T11:03:14.001000+02:00</time>
      </trkpt>
      <trkpt lat="46.24185" lon="-0.14396">
        <ele>127.6</ele>
        <time>2025-07-11T11:03:15.001000+02:00</time>
      </trkpt>
      <trkpt lat="46.24187" lon="-0.14395">
        <ele>127.8</ele>
        <time>2025-07-11T11:03:16.001000+02:00</time>
      </trkpt>
      <trkpt lat="46.24189" lon="-0.14394">
        <ele>128</ele>
        <time>2025-07-11T11:03:17.001000+02:00</time>
      </trkpt>
      <trkpt lat="46.24194" lon="-0.14394">
        <ele>128.5</ele>
        <time>2025-07-11T11:03:19.001000+02:00</time>
      </trkpt>
      <trkpt lat="46.24199" lon="-0.14392">
        <ele>128.3</ele>
        <time>2025-07-11T11:03:21.001000+02:00</time>
      </trkpt>
      <trkpt lat="46.24201" lon="-0.14391">
        <ele>128.2</ele>
        <time>2025-07-11T11:03:22.001000+02:00</time>
      </trkpt>
      <trkpt lat="46.24203" lon="-0.14389">
        <ele>128</ele>
        <time>2025-07-11T11:03:23.001000+02:00</time>
      </trkpt>
      <trkpt lat="46.24206" lon="-0.14386">
        <ele>127.8</ele>
        <time>2025-07-11T11:03:24.001000+02:00</time>
      </trkpt>
      <trkpt lat="46.24212" lon="-0.14382">
        <ele>127.7</ele>
        <time>2025-07-11T11:03:26.001000+02:00</time>
      </trkpt>
      <trkpt lat="46.24215" lon="-0.14381">
        <ele>127.7</ele>
        <time>2025-07-11T11:03:27.001000+02:00</time>
      </trkpt>
      <trkpt lat="46.24218" lon="-0.14382">
        <ele>127.7</ele>
        <time>2025-07-11T11:03:28.001000+02:00</time>
      </trkpt>
      <trkpt lat="46.24223" lon="-0.14379">
        <ele>127.7</ele>
        <time>2025-07-11T11:03:30.001000+02:00</time>
      </trkpt>
      <trkpt lat="46.2423" lon="-0.14374">
        <ele>127.8</ele>
        <time>2025-07-11T11:03:32.001000+02:00</time>
      </trkpt>
      <trkpt lat="46.24235" lon="-0.1437">
        <ele>127.8</ele>
        <time>2025-07-11T11:03:33.001000+02:00</time>
      </trkpt>
      <trkpt lat="46.2424" lon="-0.14364">
        <ele>127.3</ele>
        <time>2025-07-11T11:03:34.001000+02:00</time>
      </trkpt>
      <trkpt lat="46.24243" lon="-0.14359">
        <ele>126.7</ele>
        <time>2025-07-11T11:03:35.001000+02:00</time>
      </trkpt>
      <trkpt lat="46.24252" lon="-0.14353">
        <ele>125.7</ele>
        <time>2025-07-11T11:03:37+02:00</time>
      </trkpt>
      <trkpt lat="46.24256" lon="-0.1435">
        <ele>125.7</ele>
        <time>2025-07-11T11:03:38+02:00</time>
      </trkpt>
      <trkpt lat="46.2426" lon="-0.14348">
        <ele>125.6</ele>
        <time>2025-07-11T11:03:39.001000+02:00</time>
      </trkpt>
      <trkpt lat="46.24268" lon="-0.1434">
        <ele>125.2</ele>
        <time>2025-07-11T11:03:41+02:00</time>
      </trkpt>
      <trkpt lat="46.24271" lon="-0.14338">
        <ele>125</ele>
        <time>2025-07-11T11:03:42.001000+02:00</time>
      </trkpt>
      <trkpt lat="46.24276" lon="-0.14341">
        <ele>126.1</ele>
        <time>2025-07-11T11:03:44.001000+02:00</time>
      </trkpt>
      <trkpt lat="46.2428" lon="-0.1434">
        <ele>126.4</ele>
        <time>2025-07-11T11:03:45.001000+02:00</time>
      </trkpt>
      <trkpt lat="46.24286" lon="-0.14333">
        <ele>125.8</ele>
        <time>2025-07-11T11:03:47+02:00</time>
      </trkpt>
      <trkpt lat="46.2429" lon="-0.1433">
        <ele>125.8</ele>
        <time>2025-07-11T11:03:48+02:00</time>
      </trkpt>
      <trkpt lat="46.24294" lon="-0.14327">
        <ele>125.7</ele>
        <time>2025-07-11T11:03:49.001000+02:00</time>
      </trkpt>
      <trkpt lat="46.24298" lon="-0.14324">
        <ele>125.7</ele>
        <time>2025-07-11T11:03:50.001000+02:00</time>
      </trkpt>
      <trkpt lat="46.24302" lon="-0.14321">
        <ele>125.8</ele>
        <time>2025-07-11T11:03:51.001000+02:00</time>
      </trkpt>
      <trkpt lat="46.24309" lon="-0.14314">
        <ele>125.8</ele>
        <time>2025-07-11T11:03:53+02:00</time>
      </trkpt>
      <trkpt lat="46.24313" lon="-0.14312">
        <ele>126.1</ele>
        <time>2025-07-11T11:03:54.002000+02:00</time>
      </trkpt>
      <trkpt lat="46.24318" lon="-0.14307">
        <ele>126.5</ele>
        <time>2025-07-11T11:03:56+02:00</time>
      </trkpt>
      <trkpt lat="46.24321" lon="-0.14305">
        <ele>126.7</ele>
        <time>2025-07-11T11:03:57+02:00</time>
      </trkpt>
      <trkpt lat="46.24323" lon="-0.14303">
        <ele>126.8</ele>
        <time>2025-07-11T11:03:58.001000+02:00</time>
      </trkpt>
      <trkpt lat="46.24326" lon="-0.143">
        <ele>127</ele>
        <time>2025-07-11T11:03:59.001000+02:00</time>
      </trkpt>
      <trkpt lat="46.2433" lon="-0.14296">
        <ele>127.3</ele>
        <time>2025-07-11T11:04:00.001000+02:00</time>
      </trkpt>
      <trkpt lat="46.24333" lon="-0.14292">
        <ele>127.6</ele>
        <time>2025-07-11T11:04:01.001000+02:00</time>
      </trkpt>
      <trkpt lat="46.24337" lon="-0.14289">
        <ele>127.7</ele>
        <time>2025-07-11T11:04:02.001000+02:00</time>
      </trkpt>
      <trkpt lat="46.2434" lon="-0.14285">
        <ele>127.8</ele>
        <time>2025-07-11T11:04:03.001000+02:00</time>
      </trkpt>
      <trkpt lat="46.24344" lon="-0.14281">
        <ele>127.9</ele>
        <time>2025-07-11T11:04:04.002000+02:00</time>
      </trkpt>
      <trkpt lat="46.24353" lon="-0.14273">
        <ele>128.2</ele>
        <time>2025-07-11T11:04:06.001000+02:00</time>
      </trkpt>
      <trkpt lat="46.2436" lon="-0.14267">
        <ele>128.5</ele>
        <time>2025-07-11T11:04:08.001000+02:00</time>
      </trkpt>
      <trkpt lat="46.24363" lon="-0.14263">
        <ele>128.7</ele>
        <time>2025-07-11T11:04:09.001000+02:00</time>
      </trkpt>
      <trkpt lat="46.24369" lon="-0.14255">
        <ele>128.8</ele>
        <time>2025-07-11T11:04:11.001000+02:00</time>
      </trkpt>
      <trkpt lat="46.24372" lon="-0.14251">
        <ele>129.1</ele>
        <time>2025-07-11T11:04:12.002000+02:00</time>
      </trkpt>
      <trkpt lat="46.24379" lon="-0.14244">
        <ele>129</ele>
        <time>2025-07-11T11:04:14.001000+02:00</time>
      </trkpt>
      <trkpt lat="46.24385" lon="-0.14235">
        <ele>128.5</ele>
        <time>2025-07-11T11:04:16.001000+02:00</time>
      </trkpt>
      <trkpt lat="46.24388" lon="-0.14231">
        <ele>128.3</ele>
        <time>2025-07-11T11:04:17.002000+02:00</time>
      </trkpt>
      <trkpt lat="46.24394" lon="-0.14223">
        <ele>128.4</ele>
        <time>2025-07-11T11:04:19.001000+02:00</time>
      </trkpt>
      <trkpt lat="46.24398" lon="-0.14218">
        <ele>128.5</ele>
        <time>2025-07-11T11:04:20.001000+02:00</time>
      </trkpt>
      <trkpt lat="46.24401" lon="-0.14214">
        <ele>128.4</ele>
        <time>2025-07-11T11:04:21.001000+02:00</time>
      </trkpt>
      <trkpt lat="46.24407" lon="-0.14205">
        <ele>128.4</ele>
        <time>2025-07-11T11:04:23.001000+02:00</time>
      </trkpt>
      <trkpt lat="46.24413" lon="-0.14196">
        <ele>128.2</ele>
        <time>2025-07-11T11:04:25.001000+02:00</time>
      </trkpt>
      <trkpt lat="46.24415" lon="-0.14191">
        <ele>128</ele>
        <time>2025-07-11T11:04:26.001000+02:00</time>
      </trkpt>
      <trkpt lat="46.24418" lon="-0.14186">
        <ele>127.8</ele>
        <time>2025-07-11T11:04:27.001000+02:00</time>
      </trkpt>
      <trkpt lat="46.24422" lon="-0.14182">
        <ele>127.6</ele>
        <time>2025-07-11T11:04:28.001000+02:00</time>
      </trkpt>
      <trkpt lat="46.24425" lon="-0.14177">
        <ele>127.3</ele>
        <time>2025-07-11T11:04:29.001000+02:00</time>
      </trkpt>
      <trkpt lat="46.24429" lon="-0.14172">
        <ele>127.2</ele>
        <time>2025-07-11T11:04:30.001000+02:00</time>
      </trkpt>
      <trkpt lat="46.24432" lon="-0.14168">
        <ele>126.9</ele>
        <time>2025-07-11T11:04:31.001000+02:00</time>
      </trkpt>
      <trkpt lat="46.24438" lon="-0.14158">
        <ele>127.1</ele>
        <time>2025-07-11T11:04:33+02:00</time>
      </trkpt>
      <trkpt lat="46.24443" lon="-0.14149">
        <ele>128</ele>
        <time>2025-07-11T11:04:35.001000+02:00</time>
      </trkpt>
      <trkpt lat="46.24446" lon="-0.14144">
        <ele>128.3</ele>
        <time>2025-07-11T11:04:36.001000+02:00</time>
      </trkpt>
      <trkpt lat="46.24452" lon="-0.14135">
        <ele>127.7</ele>
        <time>2025-07-11T11:04:38.001000+02:00</time>
      </trkpt>
      <trkpt lat="46.24455" lon="-0.1413">
        <ele>127.3</ele>
        <time>2025-07-11T11:04:39.002000+02:00</time>
      </trkpt>
      <trkpt lat="46.2446" lon="-0.1412">
        <ele>127.1</ele>
        <time>2025-07-11T11:04:41.001000+02:00</time>
      </trkpt>
      <trkpt lat="46.24466" lon="-0.14111">
        <ele>128.1</ele>
        <time>2025-07-11T11:04:43+02:00</time>
      </trkpt>
      <trkpt lat="46.24469" lon="-0.14106">
        <ele>128.8</ele>
        <time>2025-07-11T11:04:44.001000+02:00</time>
      </trkpt>
      <trkpt lat="46.24472" lon="-0.14101">
        <ele>129.5</ele>
        <time>2025-07-11T11:04:45.003000+02:00</time>
      </trkpt>
      <trkpt lat="46.24477" lon="-0.14092">
        <ele>129.2</ele>
        <time>2025-07-11T11:04:47.001000+02:00</time>
      </trkpt>
      <trkpt lat="46.2448" lon="-0.14088">
        <ele>128.9</ele>
        <time>2025-07-11T11:04:48.002000+02:00</time>
      </trkpt>
      <trkpt lat="46.24481" lon="-0.14084">
        <ele>128.7</ele>
        <time>2025-07-11T11:04:49.002000+02:00</time>
      </trkpt>
      <trkpt lat="46.24486" lon="-0.14074">
        <ele>128.3</ele>
        <time>2025-07-11T11:04:51.001000+02:00</time>
      </trkpt>
      <trkpt lat="46.24488" lon="-0.1407">
        <ele>128.4</ele>
        <time>2025-07-11T11:04:52.001000+02:00</time>
      </trkpt>
      <trkpt lat="46.2449" lon="-0.14065">
        <ele>128.7</ele>
        <time>2025-07-11T11:04:53.001000+02:00</time>
      </trkpt>
      <trkpt lat="46.24492" lon="-0.14062">
        <ele>129.1</ele>
        <time>2025-07-11T11:04:54.001000+02:00</time>
      </trkpt>
      <trkpt lat="46.24495" lon="-0.14058">
        <ele>129.7</ele>
        <time>2025-07-11T11:04:55.001000+02:00</time>
      </trkpt>
      <trkpt lat="46.245" lon="-0.14048">
        <ele>130.7</ele>
        <time>2025-07-11T11:04:57.001000+02:00</time>
      </trkpt>
      <trkpt lat="46.24503" lon="-0.14044">
        <ele>130.5</ele>
        <time>2025-07-11T11:04:58.001000+02:00</time>
      </trkpt>
      <trkpt lat="46.24506" lon="-0.1404">
        <ele>130.3</ele>
        <time>2025-07-11T11:04:59.001000+02:00</time>
      </trkpt>
      <trkpt lat="46.24509" lon="-0.14035">
        <ele>130.1</ele>
        <time>2025-07-11T11:05:00.001000+02:00</time>
      </trkpt>
      <trkpt lat="46.24512" lon="-0.1403">
        <ele>130</ele>
        <time>2025-07-11T11:05:01.001000+02:00</time>
      </trkpt>
      <trkpt lat="46.24515" lon="-0.14026">
        <ele>129.9</ele>
        <time>2025-07-11T11:05:02.007000+02:00</time>
      </trkpt>
      <trkpt lat="46.2452" lon="-0.14018">
        <ele>130.1</ele>
        <time>2025-07-11T11:05:04.001000+02:00</time>
      </trkpt>
      <trkpt lat="46.24522" lon="-0.14014">
        <ele>130.3</ele>
        <time>2025-07-11T11:05:05.001000+02:00</time>
      </trkpt>
      <trkpt lat="46.24526" lon="-0.14008">
        <ele>131.2</ele>
        <time>2025-07-11T11:05:07+02:00</time>
      </trkpt>
      <trkpt lat="46.24529" lon="-0.14">
        <ele>132</ele>
        <time>2025-07-11T11:05:08+02:00</time>
      </trkpt>
      <trkpt lat="46.24532" lon="-0.13994">
        <ele>131.6</ele>
        <time>2025-07-11T11:05:09.002000+02:00</time>
      </trkpt>
      <trkpt lat="46.24535" lon="-0.13992">
        <ele>131.6</ele>
        <time>2025-07-11T11:05:10.002000+02:00</time>
      </trkpt>
      <trkpt lat="46.24541" lon="-0.13984">
        <ele>131.6</ele>
        <time>2025-07-11T11:05:12.001000+02:00</time>
      </trkpt>
      <trkpt lat="46.24544" lon="-0.1398">
        <ele>131.7</ele>
        <time>2025-07-11T11:05:13.001000+02:00</time>
      </trkpt>
      <trkpt lat="46.24547" lon="-0.13976">
        <ele>131.9</ele>
        <time>2025-07-11T11:05:14.002000+02:00</time>
      </trkpt>
      <trkpt lat="46.24551" lon="-0.13973">
        <ele>132.3</ele>
        <time>2025-07-11T11:05:15.002000+02:00</time>
      </trkpt>
      <trkpt lat="46.24556" lon="-0.13965">
        <ele>132.8</ele>
        <time>2025-07-11T11:05:17.001000+02:00</time>
      </trkpt>
      <trkpt lat="46.24559" lon="-0.13961">
        <ele>132.9</ele>
        <time>2025-07-11T11:05:18.001000+02:00</time>
      </trkpt>
      <trkpt lat="46.24562" lon="-0.13956">
        <ele>133.1</ele>
        <time>2025-07-11T11:05:19.001000+02:00</time>
      </trkpt>
      <trkpt lat="46.24565" lon="-0.13952">
        <ele>133.3</ele>
        <time>2025-07-11T11:05:20.001000+02:00</time>
      </trkpt>
      <trkpt lat="46.24568" lon="-0.13949">
        <ele>133.5</ele>
        <time>2025-07-11T11:05:21.001000+02:00</time>
      </trkpt>
      <trkpt lat="46.24574" lon="-0.13943">
        <ele>134</ele>
        <time>2025-07-11T11:05:23.001000+02:00</time>
      </trkpt>
      <trkpt lat="46.24581" lon="-0.13936">
        <ele>134.6</ele>
        <time>2025-07-11T11:05:25+02:00</time>
      </trkpt>
      <trkpt lat="46.24584" lon="-0.13933">
        <ele>135</ele>
        <time>2025-07-11T11:05:26.001000+02:00</time>
      </trkpt>
      <trkpt lat="46.24587" lon="-0.1393">
        <ele>135.1</ele>
        <time>2025-07-11T11:05:27.001000+02:00</time>
      </trkpt>
      <trkpt lat="46.2459" lon="-0.13927">
        <ele>135.2</ele>
        <time>2025-07-11T11:05:28.001000+02:00</time>
      </trkpt>
      <trkpt lat="46.24592" lon="-0.13924">
        <ele>135.2</ele>
        <time>2025-07-11T11:05:29.001000+02:00</time>
      </trkpt>
      <trkpt lat="46.24595" lon="-0.13922">
        <ele>135.1</ele>
        <time>2025-07-11T11:05:30.003000+02:00</time>
      </trkpt>
      <trkpt lat="46.24599" lon="-0.13916">
        <ele>135</ele>
        <time>2025-07-11T11:05:32+02:00</time>
      </trkpt>
      <trkpt lat="46.24601" lon="-0.13914">
        <ele>135</ele>
        <time>2025-07-11T11:05:33.001000+02:00</time>
      </trkpt>
      <trkpt lat="46.24604" lon="-0.13912">
        <ele>135</ele>
        <time>2025-07-11T11:05:34.001000+02:00</time>
      </trkpt>
      <trkpt lat="46.24606" lon="-0.13911">
        <ele>135.1</ele>
        <time>2025-07-11T11:05:35.001000+02:00</time>
      </trkpt>
      <trkpt lat="46.24609" lon="-0.13908">
        <ele>135.2</ele>
        <time>2025-07-11T11:05:36.001000+02:00</time>
      </trkpt>
      <trkpt lat="46.24611" lon="-0.13905">
        <ele>135.4</ele>
        <time>2025-07-11T11:05:37.002000+02:00</time>
      </trkpt>
      <trkpt lat="46.24614" lon="-0.13902">
        <ele>135.7</ele>
        <time>2025-07-11T11:05:38.003000+02:00</time>
      </trkpt>
      <trkpt lat="46.24619" lon="-0.13898">
        <ele>136</ele>
        <time>2025-07-11T11:05:40.001000+02:00</time>
      </trkpt>
      <trkpt lat="46.24621" lon="-0.13896">
        <ele>136.1</ele>
        <time>2025-07-11T11:05:41.001000+02:00</time>
      </trkpt>
      <trkpt lat="46.24624" lon="-0.13894">
        <ele>136.1</ele>
        <time>2025-07-11T11:05:42.002000+02:00</time>
      </trkpt>
      <trkpt lat="46.24628" lon="-0.13889">
        <ele>136</ele>
        <time>2025-07-11T11:05:44.001000+02:00</time>
      </trkpt>
      <trkpt lat="46.24632" lon="-0.13887">
        <ele>136.1</ele>
        <time>2025-07-11T11:05:45.002000+02:00</time>
      </trkpt>
      <trkpt lat="46.24638" lon="-0.13881">
        <ele>136.5</ele>
        <time>2025-07-11T11:05:47.001000+02:00</time>
      </trkpt>
      <trkpt lat="46.24645" lon="-0.13876">
        <ele>137.4</ele>
        <time>2025-07-11T11:05:49+02:00</time>
      </trkpt>
      <trkpt lat="46.24649" lon="-0.13873">
        <ele>137.7</ele>
        <time>2025-07-11T11:05:50+02:00</time>
      </trkpt>
      <trkpt lat="46.24652" lon="-0.13871">
        <ele>137.8</ele>
        <time>2025-07-11T11:05:51.002000+02:00</time>
      </trkpt>
      <trkpt lat="46.2466" lon="-0.13865">
        <ele>137.6</ele>
        <time>2025-07-11T11:05:53.001000+02:00</time>
      </trkpt>
      <trkpt lat="46.24663" lon="-0.13862">
        <ele>137.2</ele>
        <time>2025-07-11T11:05:54.001000+02:00</time>
      </trkpt>
      <trkpt lat="46.2467" lon="-0.13856">
        <ele>137.8</ele>
        <time>2025-07-11T11:05:56.001000+02:00</time>
      </trkpt>
      <trkpt lat="46.24674" lon="-0.13854">
        <ele>138.4</ele>
        <time>2025-07-11T11:05:57.001000+02:00</time>
      </trkpt>
      <trkpt lat="46.24679" lon="-0.13851">
        <ele>139</ele>
        <time>2025-07-11T11:05:58.001000+02:00</time>
      </trkpt>
      <trkpt lat="46.24683" lon="-0.13849">
        <ele>139.5</ele>
        <time>2025-07-11T11:05:59.001000+02:00</time>
      </trkpt>
      <trkpt lat="46.24687" lon="-0.13847">
        <ele>139.8</ele>
        <time>2025-07-11T11:06:00.002000+02:00</time>
      </trkpt>
      <trkpt lat="46.24691" lon="-0.13845">
        <ele>140.1</ele>
        <time>2025-07-11T11:06:01.002000+02:00</time>
      </trkpt>
      <trkpt lat="46.24694" lon="-0.13843">
        <ele>140.3</ele>
        <time>2025-07-11T11:06:02.003000+02:00</time>
      </trkpt>
      <trkpt lat="46.24702" lon="-0.1384">
        <ele>139.8</ele>
        <time>2025-07-11T11:06:04.002000+02:00</time>
      </trkpt>
      <trkpt lat="46.24705" lon="-0.13838">
        <ele>139.4</ele>
        <time>2025-07-11T11:06:05.002000+02:00</time>
      </trkpt>
      <trkpt lat="46.24709" lon="-0.13837">
        <ele>138.9</ele>
        <time>2025-07-11T11:06:06.002000+02:00</time>
      </trkpt>
      <trkpt lat="46.24714" lon="-0.13835">
        <ele>138.2</ele>
        <time>2025-07-11T11:06:07.003000+02:00</time>
      </trkpt>
      <trkpt lat="46.24721" lon="-0.13832">
        <ele>137.3</ele>
        <time>2025-07-11T11:06:09.001000+02:00</time>
      </trkpt>
      <trkpt lat="46.24725" lon="-0.1383">
        <ele>137.9</ele>
        <time>2025-07-11T11:06:10.001000+02:00</time>
      </trkpt>
      <trkpt lat="46.24728" lon="-0.13828">
        <ele>138.6</ele>
        <time>2025-07-11T11:06:11.002000+02:00</time>
      </trkpt>
      <trkpt lat="46.24732" lon="-0.13828">
        <ele>139.3</ele>
        <time>2025-07-11T11:06:12.002000+02:00</time>
      </trkpt>
      <trkpt lat="46.24737" lon="-0.13825">
        <ele>140.1</ele>
        <time>2025-07-11T11:06:13.002000+02:00</time>
      </trkpt>
      <trkpt lat="46.24742" lon="-0.13825">
        <ele>140.7</ele>
        <time>2025-07-11T11:06:14.002000+02:00</time>
      </trkpt>
      <trkpt lat="46.24747" lon="-0.13824">
        <ele>141.3</ele>
        <time>2025-07-11T11:06:15.002000+02:00</time>
      </trkpt>
      <trkpt lat="46.2475" lon="-0.13824">
        <ele>141.6</ele>
        <time>2025-07-11T11:06:16.002000+02:00</time>
      </trkpt>
      <trkpt lat="46.24752" lon="-0.13824">
        <ele>141.7</ele>
        <time>2025-07-11T11:06:17.002000+02:00</time>
      </trkpt>
      <trkpt lat="46.24759" lon="-0.13824">
        <ele>141.9</ele>
        <time>2025-07-11T11:06:19+02:00</time>
      </trkpt>
      <trkpt lat="46.24762" lon="-0.13823">
        <ele>141.8</ele>
        <time>2025-07-11T11:06:20.001000+02:00</time>
      </trkpt>
      <trkpt lat="46.24766" lon="-0.13821">
        <ele>141.7</ele>
        <time>2025-07-11T11:06:21.002000+02:00</time>
      </trkpt>
      <trkpt lat="46.24769" lon="-0.1382">
        <ele>141.6</ele>
        <time>2025-07-11T11:06:22.002000+02:00</time>
      </trkpt>
      <trkpt lat="46.24775" lon="-0.13815">
        <ele>140.8</ele>
        <time>2025-07-11T11:06:24.001000+02:00</time>
      </trkpt>
      <trkpt lat="46.24777" lon="-0.13812">
        <ele>140.1</ele>
        <time>2025-07-11T11:06:25.002000+02:00</time>
      </trkpt>
      <trkpt lat="46.2478" lon="-0.1381">
        <ele>139.8</ele>
        <time>2025-07-11T11:06:26.002000+02:00</time>
      </trkpt>
      <trkpt lat="46.24782" lon="-0.13808">
        <ele>139.5</ele>
        <time>2025-07-11T11:06:27.002000+02:00</time>
      </trkpt>
      <trkpt lat="46.24785" lon="-0.13805">
        <ele>139.3</ele>
        <time>2025-07-11T11:06:28.002000+02:00</time>
      </trkpt>
      <trkpt lat="46.24789" lon="-0.13802">
        <ele>139.6</ele>
        <time>2025-07-11T11:06:29.008000+02:00</time>
      </trkpt>
      <trkpt lat="46.24797" lon="-0.13801">
        <ele>139.9</ele>
        <time>2025-07-11T11:06:31.002000+02:00</time>
      </trkpt>
      <trkpt lat="46.248" lon="-0.13801">
        <ele>140</ele>
        <time>2025-07-11T11:06:32.003000+02:00</time>
      </trkpt>
      <trkpt lat="46.24806" lon="-0.13801">
        <ele>140.2</ele>
        <time>2025-07-11T11:06:34.002000+02:00</time>
      </trkpt>
      <trkpt lat="46.24816" lon="-0.13802">
        <ele>140.1</ele>
        <time>2025-07-11T11:06:36.002000+02:00</time>
      </trkpt>
      <trkpt lat="46.24823" lon="-0.13803">
        <ele>140.1</ele>
        <time>2025-07-11T11:06:38.001000+02:00</time>
      </trkpt>
      <trkpt lat="46.24826" lon="-0.13803">
        <ele>140.1</ele>
        <time>2025-07-11T11:06:39.002000+02:00</time>
      </trkpt>
      <trkpt lat="46.24829" lon="-0.13802">
        <ele>140.1</ele>
        <time>2025-07-11T11:06:40.002000+02:00</time>
      </trkpt>
      <trkpt lat="46.24833" lon="-0.138">
        <ele>140.2</ele>
        <time>2025-07-11T11:06:41.002000+02:00</time>
      </trkpt>
      <trkpt lat="46.2484" lon="-0.13798">
        <ele>140</ele>
        <time>2025-07-11T11:06:43.001000+02:00</time>
      </trkpt>
      <trkpt lat="46.24844" lon="-0.13799">
        <ele>139.9</ele>
        <time>2025-07-11T11:06:44.001000+02:00</time>
      </trkpt>
      <trkpt lat="46.2485" lon="-0.13799">
        <ele>139.6</ele>
        <time>2025-07-11T11:06:45.002000+02:00</time>
      </trkpt>
      <trkpt lat="46.24856" lon="-0.13799">
        <ele>139.4</ele>
        <time>2025-07-11T11:06:46.002000+02:00</time>
      </trkpt>
      <trkpt lat="46.24862" lon="-0.13801">
        <ele>139.2</ele>
        <time>2025-07-11T11:06:47.002000+02:00</time>
      </trkpt>
      <trkpt lat="46.24872" lon="-0.13802">
        <ele>138.8</ele>
        <time>2025-07-11T11:06:49.002000+02:00</time>
      </trkpt>
      <trkpt lat="46.24875" lon="-0.13802">
        <ele>138.7</ele>
        <time>2025-07-11T11:06:50.002000+02:00</time>
      </trkpt>
      <trkpt lat="46.24881" lon="-0.13802">
        <ele>138.5</ele>
        <time>2025-07-11T11:06:51.002000+02:00</time>
      </trkpt>
      <trkpt lat="46.24892" lon="-0.13804">
        <ele>138.1</ele>
        <time>2025-07-11T11:06:53.003000+02:00</time>
      </trkpt>
      <trkpt lat="46.24896" lon="-0.13805">
        <ele>138</ele>
        <time>2025-07-11T11:06:54.007000+02:00</time>
      </trkpt>
      <trkpt lat="46.24907" lon="-0.1381">
        <ele>138.2</ele>
        <time>2025-07-11T11:06:56.002000+02:00</time>
      </trkpt>
      <trkpt lat="46.24916" lon="-0.13808">
        <ele>138.1</ele>
        <time>2025-07-11T11:06:57.003000+02:00</time>
      </trkpt>
      <trkpt lat="46.24922" lon="-0.13812">
        <ele>137.7</ele>
        <time>2025-07-11T11:06:58.003000+02:00</time>
      </trkpt>
      <trkpt lat="46.24928" lon="-0.13815">
        <ele>137</ele>
        <time>2025-07-11T11:06:59.003000+02:00</time>
      </trkpt>
      <trkpt lat="46.24937" lon="-0.13816">
        <ele>135.8</ele>
        <time>2025-07-11T11:07:01.002000+02:00</time>
      </trkpt>
      <trkpt lat="46.24941" lon="-0.13816">
        <ele>135.3</ele>
        <time>2025-07-11T11:07:02.002000+02:00</time>
      </trkpt>
      <trkpt lat="46.24946" lon="-0.13817">
        <ele>134.6</ele>
        <time>2025-07-11T11:07:03.002000+02:00</time>
      </trkpt>
      <trkpt lat="46.24952" lon="-0.13818">
        <ele>134</ele>
        <time>2025-07-11T11:07:04.002000+02:00</time>
      </trkpt>
      <trkpt lat="46.24958" lon="-0.1382">
        <ele>133.5</ele>
        <time>2025-07-11T11:07:05.002000+02:00</time>
      </trkpt>
      <trkpt lat="46.24969" lon="-0.13822">
        <ele>132.9</ele>
        <time>2025-07-11T11:07:07.001000+02:00</time>
      </trkpt>
      <trkpt lat="46.24972" lon="-0.13826">
        <ele>133.2</ele>
        <time>2025-07-11T11:07:08.001000+02:00</time>
      </trkpt>
      <trkpt lat="46.24975" lon="-0.13829">
        <ele>133.7</ele>
        <time>2025-07-11T11:07:09.003000+02:00</time>
      </trkpt>
      <trkpt lat="46.24985" lon="-0.13832">
        <ele>134.6</ele>
        <time>2025-07-11T11:07:11.002000+02:00</time>
      </trkpt>
      <trkpt lat="46.24995" lon="-0.13835">
        <ele>135.2</ele>
        <time>2025-07-11T11:07:13+02:00</time>
      </trkpt>
      <trkpt lat="46.24999" lon="-0.13838">
        <ele>134.8</ele>
        <time>2025-07-11T11:07:14.001000+02:00</time>
      </trkpt>
      <trkpt lat="46.25009" lon="-0.13842">
        <ele>133.8</ele>
        <time>2025-07-11T11:07:16.001000+02:00</time>
      </trkpt>
      <trkpt lat="46.2502" lon="-0.13847">
        <ele>133.4</ele>
        <time>2025-07-11T11:07:18.001000+02:00</time>
      </trkpt>
      <trkpt lat="46.25025" lon="-0.13847">
        <ele>133.5</ele>
        <time>2025-07-11T11:07:19.001000+02:00</time>
      </trkpt>
      <trkpt lat="46.25029" lon="-0.13846">
        <ele>133.5</ele>
        <time>2025-07-11T11:07:20.001000+02:00</time>
      </trkpt>
      <trkpt lat="46.25038" lon="-0.1385">
        <ele>134</ele>
        <time>2025-07-11T11:07:22.001000+02:00</time>
      </trkpt>
      <trkpt lat="46.25042" lon="-0.13852">
        <ele>134.4</ele>
        <time>2025-07-11T11:07:23.001000+02:00</time>
      </trkpt>
      <trkpt lat="46.25047" lon="-0.13855">
        <ele>134.8</ele>
        <time>2025-07-11T11:07:24.001000+02:00</time>
      </trkpt>
      <trkpt lat="46.25051" lon="-0.13857">
        <ele>135.3</ele>
        <time>2025-07-11T11:07:25.001000+02:00</time>
      </trkpt>
      <trkpt lat="46.25056" lon="-0.13861">
        <ele>136</ele>
        <time>2025-07-11T11:07:26.001000+02:00</time>
      </trkpt>
      <trkpt lat="46.2506" lon="-0.13864">
        <ele>135.6</ele>
        <time>2025-07-11T11:07:27.001000+02:00</time>
      </trkpt>
      <trkpt lat="46.25063" lon="-0.13868">
        <ele>135.3</ele>
        <time>2025-07-11T11:07:28.001000+02:00</time>
      </trkpt>
      <trkpt lat="46.25067" lon="-0.13871">
        <ele>135.3</ele>
        <time>2025-07-11T11:07:29.001000+02:00</time>
      </trkpt>
      <trkpt lat="46.25073" lon="-0.13875">
        <ele>135.4</ele>
        <time>2025-07-11T11:07:30.001000+02:00</time>
      </trkpt>
      <trkpt lat="46.25077" lon="-0.13876">
        <ele>135.7</ele>
        <time>2025-07-11T11:07:31.001000+02:00</time>
      </trkpt>
      <trkpt lat="46.25084" lon="-0.1388">
        <ele>136.3</ele>
        <time>2025-07-11T11:07:33.002000+02:00</time>
      </trkpt>
      <trkpt lat="46.25093" lon="-0.13879">
        <ele>136.3</ele>
        <time>2025-07-11T11:07:35.003000+02:00</time>
      </trkpt>
      <trkpt lat="46.25093" lon="-0.1386">
        <ele>135.7</ele>
        <time>2025-07-11T11:07:37.002000+02:00</time>
      </trkpt>
      <trkpt lat="46.25085" lon="-0.13911">
        <ele>134.8</ele>
        <time>2025-07-11T11:07:39+02:00</time>
      </trkpt>
      <trkpt lat="46.25095" lon="-0.13911">
        <ele>135.5</ele>
        <time>2025-07-11T11:07:40.001000+02:00</time>
      </trkpt>
      <trkpt lat="46.25096" lon="-0.13915">
        <ele>135.4</ele>
        <time>2025-07-11T11:07:41.002000+02:00</time>
      </trkpt>
      <trkpt lat="46.25102" lon="-0.1392">
        <ele>135.9</ele>
        <time>2025-07-11T11:07:42.002000+02:00</time>
      </trkpt>
      <trkpt lat="46.25108" lon="-0.13924">
        <ele>136.4</ele>
        <time>2025-07-11T11:07:43.003000+02:00</time>
      </trkpt>
      <trkpt lat="46.25117" lon="-0.13935">
        <ele>136.7</ele>
        <time>2025-07-11T11:07:45.003000+02:00</time>
      </trkpt>
      <trkpt lat="46.25126" lon="-0.13948">
        <ele>137</ele>
        <time>2025-07-11T11:07:47.001000+02:00</time>
      </trkpt>
      <trkpt lat="46.2513" lon="-0.13953">
        <ele>137.1</ele>
        <time>2025-07-11T11:07:48.001000+02:00</time>
      </trkpt>
      <trkpt lat="46.25134" lon="-0.13957">
        <ele>137.3</ele>
        <time>2025-07-11T11:07:49.001000+02:00</time>
      </trkpt>
      <trkpt lat="46.25137" lon="-0.1396">
        <ele>137.3</ele>
        <time>2025-07-11T11:07:50.002000+02:00</time>
      </trkpt>
      <trkpt lat="46.25145" lon="-0.13965">
        <ele>137.5</ele>
        <time>2025-07-11T11:07:52.003000+02:00</time>
      </trkpt>
      <trkpt lat="46.25153" lon="-0.13969">
        <ele>137.6</ele>
        <time>2025-07-11T11:07:54.002000+02:00</time>
      </trkpt>
      <trkpt lat="46.2516" lon="-0.13975">
        <ele>137.9</ele>
        <time>2025-07-11T11:07:56.005000+02:00</time>
      </trkpt>
      <trkpt lat="46.25167" lon="-0.13983">
        <ele>138.4</ele>
        <time>2025-07-11T11:07:58.003000+02:00</time>
      </trkpt>
      <trkpt lat="46.25174" lon="-0.13992">
        <ele>139.1</ele>
        <time>2025-07-11T11:08:00.003000+02:00</time>
      </trkpt>
      <trkpt lat="46.25181" lon="-0.14003">
        <ele>139.5</ele>
        <time>2025-07-11T11:08:02+02:00</time>
      </trkpt>
      <trkpt lat="46.25184" lon="-0.14006">
        <ele>139.6</ele>
        <time>2025-07-11T11:08:03.001000+02:00</time>
      </trkpt>
      <trkpt lat="46.25193" lon="-0.14016">
        <ele>139.9</ele>
        <time>2025-07-11T11:08:05+02:00</time>
      </trkpt>
      <trkpt lat="46.25209" lon="-0.14018">
        <ele>141.1</ele>
        <time>2025-07-11T11:08:06+02:00</time>
      </trkpt>
      <trkpt lat="46.2519" lon="-0.1404">
        <ele>139.7</ele>
        <time>2025-07-11T11:08:07.001000+02:00</time>
      </trkpt>
      <trkpt lat="46.25227" lon="-0.1402">
        <ele>142.2</ele>
        <time>2025-07-11T11:08:09.001000+02:00</time>
      </trkpt>
      <trkpt lat="46.25233" lon="-0.14021">
        <ele>142.5</ele>
        <time>2025-07-11T11:08:10.001000+02:00</time>
      </trkpt>
      <trkpt lat="46.25242" lon="-0.14022">
        <ele>142.8</ele>
        <time>2025-07-11T11:08:12.001000+02:00</time>
      </trkpt>
      <trkpt lat="46.2524" lon="-0.14025">
        <ele>142.7</ele>
        <time>2025-07-11T11:08:13.001000+02:00</time>
      </trkpt>
      <trkpt lat="46.25243" lon="-0.14029">
        <ele>142.6</ele>
        <time>2025-07-11T11:08:14.001000+02:00</time>
      </trkpt>
      <trkpt lat="46.25231" lon="-0.14048">
        <ele>140.1</ele>
        <time>2025-07-11T11:08:16.001000+02:00</time>
      </trkpt>
      <trkpt lat="46.25229" lon="-0.14054">
        <ele>139.2</ele>
        <time>2025-07-11T11:08:17.001000+02:00</time>
      </trkpt>
      <trkpt lat="46.25232" lon="-0.14051">
        <ele>139.8</ele>
        <time>2025-07-11T11:08:18.001000+02:00</time>
      </trkpt>
      <trkpt lat="46.25239" lon="-0.14056">
        <ele>140.4</ele>
        <time>2025-07-11T11:08:19.001000+02:00</time>
      </trkpt>
      <trkpt lat="46.2525" lon="-0.14057">
        <ele>141.9</ele>
        <time>2025-07-11T11:08:20.001000+02:00</time>
      </trkpt>
      <trkpt lat="46.25189" lon="-0.14066">
        <ele>139.3</ele>
        <time>2025-07-11T11:08:22.001000+02:00</time>
      </trkpt>
      <trkpt lat="46.25185" lon="-0.14092">
        <ele>138</ele>
        <time>2025-07-11T11:08:24.002000+02:00</time>
      </trkpt>
      <trkpt lat="46.25188" lon="-0.14094">
        <ele>138.1</ele>
        <time>2025-07-11T11:08:25.002000+02:00</time>
      </trkpt>
      <trkpt lat="46.25194" lon="-0.14092">
        <ele>138.6</ele>
        <time>2025-07-11T11:08:26.002000+02:00</time>
      </trkpt>
      <trkpt lat="46.25196" lon="-0.14094">
        <ele>138.7</ele>
        <time>2025-07-11T11:08:27.002000+02:00</time>
      </trkpt>
      <trkpt lat="46.25202" lon="-0.14094">
        <ele>138.9</ele>
        <time>2025-07-11T11:08:28.002000+02:00</time>
      </trkpt>
      <trkpt lat="46.25205" lon="-0.14096">
        <ele>138.9</ele>
        <time>2025-07-11T11:08:29.002000+02:00</time>
      </trkpt>
      <trkpt lat="46.25217" lon="-0.141">
        <ele>139.2</ele>
        <time>2025-07-11T11:08:31.002000+02:00</time>
      </trkpt>
      <trkpt lat="46.25228" lon="-0.14109">
        <ele>139.3</ele>
        <time>2025-07-11T11:08:33.004000+02:00</time>
      </trkpt>
      <trkpt lat="46.25233" lon="-0.1412">
        <ele>139.1</ele>
        <time>2025-07-11T11:08:35.002000+02:00</time>
      </trkpt>
      <trkpt lat="46.25235" lon="-0.14125">
        <ele>139</ele>
        <time>2025-07-11T11:08:36.002000+02:00</time>
      </trkpt>
      <trkpt lat="46.25243" lon="-0.1413">
        <ele>139.1</ele>
        <time>2025-07-11T11:08:37.002000+02:00</time>
      </trkpt>
      <trkpt lat="46.25251" lon="-0.14133">
        <ele>139.2</ele>
        <time>2025-07-11T11:08:38.002000+02:00</time>
      </trkpt>
      <trkpt lat="46.25258" lon="-0.14136">
        <ele>138.8</ele>
        <time>2025-07-11T11:08:39.002000+02:00</time>
      </trkpt>
      <trkpt lat="46.25264" lon="-0.1414">
        <ele>138.5</ele>
        <time>2025-07-11T11:08:40.002000+02:00</time>
      </trkpt>
      <trkpt lat="46.25277" lon="-0.14146">
        <ele>138.3</ele>
        <time>2025-07-11T11:08:42.002000+02:00</time>
      </trkpt>
      <trkpt lat="46.2528" lon="-0.14151">
        <ele>138.5</ele>
        <time>2025-07-11T11:08:43.002000+02:00</time>
      </trkpt>
      <trkpt lat="46.25285" lon="-0.14155">
        <ele>138.8</ele>
        <time>2025-07-11T11:08:44.002000+02:00</time>
      </trkpt>
      <trkpt lat="46.2529" lon="-0.1416">
        <ele>138.8</ele>
        <time>2025-07-11T11:08:45.003000+02:00</time>
      </trkpt>
      <trkpt lat="46.25297" lon="-0.14169">
        <ele>138.3</ele>
        <time>2025-07-11T11:08:47.002000+02:00</time>
      </trkpt>
      <trkpt lat="46.253" lon="-0.14174">
        <ele>138.1</ele>
        <time>2025-07-11T11:08:48.002000+02:00</time>
      </trkpt>
      <trkpt lat="46.25303" lon="-0.14178">
        <ele>138</ele>
        <time>2025-07-11T11:08:49.002000+02:00</time>
      </trkpt>
      <trkpt lat="46.25307" lon="-0.14182">
        <ele>138.1</ele>
        <time>2025-07-11T11:08:50.002000+02:00</time>
      </trkpt>
      <trkpt lat="46.25309" lon="-0.14187">
        <ele>138.2</ele>
        <time>2025-07-11T11:08:51.003000+02:00</time>
      </trkpt>
      <trkpt lat="46.25317" lon="-0.14196">
        <ele>138.3</ele>
        <time>2025-07-11T11:08:53.001000+02:00</time>
      </trkpt>
      <trkpt lat="46.25321" lon="-0.14201">
        <ele>138.1</ele>
        <time>2025-07-11T11:08:54.002000+02:00</time>
      </trkpt>
      <trkpt lat="46.25327" lon="-0.14207">
        <ele>137.9</ele>
        <time>2025-07-11T11:08:55.003000+02:00</time>
      </trkpt>
      <trkpt lat="46.25335" lon="-0.14218">
        <ele>137.4</ele>
        <time>2025-07-11T11:08:57.003000+02:00</time>
      </trkpt>
      <trkpt lat="46.25343" lon="-0.14229">
        <ele>137.1</ele>
        <time>2025-07-11T11:08:59.006000+02:00</time>
      </trkpt>
      <trkpt lat="46.25351" lon="-0.1424">
        <ele>137</ele>
        <time>2025-07-11T11:09:01.004000+02:00</time>
      </trkpt>
      <trkpt lat="46.25358" lon="-0.14249">
        <ele>136.9</ele>
        <time>2025-07-11T11:09:03.003000+02:00</time>
      </trkpt>
      <trkpt lat="46.25367" lon="-0.14258">
        <ele>136.5</ele>
        <time>2025-07-11T11:09:05.002000+02:00</time>
      </trkpt>
      <trkpt lat="46.2537" lon="-0.14262">
        <ele>136.4</ele>
        <time>2025-07-11T11:09:06.002000+02:00</time>
      </trkpt>
      <trkpt lat="46.25375" lon="-0.14272">
        <ele>136.2</ele>
        <time>2025-07-11T11:09:08.002000+02:00</time>
      </trkpt>
      <trkpt lat="46.25378" lon="-0.14277">
        <ele>136.3</ele>
        <time>2025-07-11T11:09:09.002000+02:00</time>
      </trkpt>
      <trkpt lat="46.25382" lon="-0.14281">
        <ele>136.3</ele>
        <time>2025-07-11T11:09:10.002000+02:00</time>
      </trkpt>
      <trkpt lat="46.25385" lon="-0.14286">
        <ele>136.2</ele>
        <time>2025-07-11T11:09:11.002000+02:00</time>
      </trkpt>
      <trkpt lat="46.25389" lon="-0.14292">
        <ele>136</ele>
        <time>2025-07-11T11:09:12.002000+02:00</time>
      </trkpt>
      <trkpt lat="46.25393" lon="-0.14297">
        <ele>135.7</ele>
        <time>2025-07-11T11:09:13.002000+02:00</time>
      </trkpt>
      <trkpt lat="46.25398" lon="-0.14303">
        <ele>135.4</ele>
        <time>2025-07-11T11:09:14.002000+02:00</time>
      </trkpt>
      <trkpt lat="46.25402" lon="-0.14309">
        <ele>135.4</ele>
        <time>2025-07-11T11:09:15.003000+02:00</time>
      </trkpt>
      <trkpt lat="46.25406" lon="-0.14314">
        <ele>135.5</ele>
        <time>2025-07-11T11:09:16.003000+02:00</time>
      </trkpt>
      <trkpt lat="46.2541" lon="-0.14319">
        <ele>135.6</ele>
        <time>2025-07-11T11:09:17.003000+02:00</time>
      </trkpt>
      <trkpt lat="46.25414" lon="-0.14325">
        <ele>135.8</ele>
        <time>2025-07-11T11:09:18.003000+02:00</time>
      </trkpt>
      <trkpt lat="46.25422" lon="-0.14335">
        <ele>136</ele>
        <time>2025-07-11T11:09:20.007000+02:00</time>
      </trkpt>
      <trkpt lat="46.25428" lon="-0.14344">
        <ele>136.2</ele>
        <time>2025-07-11T11:09:22.003000+02:00</time>
      </trkpt>
      <trkpt lat="46.25434" lon="-0.14352">
        <ele>136.4</ele>
        <time>2025-07-11T11:09:24.002000+02:00</time>
      </trkpt>
      <trkpt lat="46.25438" lon="-0.14356">
        <ele>136.6</ele>
        <time>2025-07-11T11:09:25.003000+02:00</time>
      </trkpt>
      <trkpt lat="46.25444" lon="-0.14365">
        <ele>137</ele>
        <time>2025-07-11T11:09:27.002000+02:00</time>
      </trkpt>
      <trkpt lat="46.25448" lon="-0.1437">
        <ele>137.1</ele>
        <time>2025-07-11T11:09:28.002000+02:00</time>
      </trkpt>
      <trkpt lat="46.25451" lon="-0.14374">
        <ele>137.2</ele>
        <time>2025-07-11T11:09:29.002000+02:00</time>
      </trkpt>
      <trkpt lat="46.25454" lon="-0.14378">
        <ele>137.4</ele>
        <time>2025-07-11T11:09:30.007000+02:00</time>
      </trkpt>
      <trkpt lat="46.25461" lon="-0.14387">
        <ele>137.6</ele>
        <time>2025-07-11T11:09:32.002000+02:00</time>
      </trkpt>
      <trkpt lat="46.25465" lon="-0.14391">
        <ele>137.7</ele>
        <time>2025-07-11T11:09:33.002000+02:00</time>
      </trkpt>
      <trkpt lat="46.25467" lon="-0.14395">
        <ele>137.8</ele>
        <time>2025-07-11T11:09:34.002000+02:00</time>
      </trkpt>
      <trkpt lat="46.2547" lon="-0.144">
        <ele>137.9</ele>
        <time>2025-07-11T11:09:35.002000+02:00</time>
      </trkpt>
      <trkpt lat="46.25473" lon="-0.14404">
        <ele>138</ele>
        <time>2025-07-11T11:09:36.002000+02:00</time>
      </trkpt>
      <trkpt lat="46.25476" lon="-0.1441">
        <ele>138.2</ele>
        <time>2025-07-11T11:09:37.002000+02:00</time>
      </trkpt>
      <trkpt lat="46.2548" lon="-0.14415">
        <ele>138.3</ele>
        <time>2025-07-11T11:09:38.002000+02:00</time>
      </trkpt>
      <trkpt lat="46.25484" lon="-0.1442">
        <ele>138.4</ele>
        <time>2025-07-11T11:09:39.002000+02:00</time>
      </trkpt>
      <trkpt lat="46.25487" lon="-0.14426">
        <ele>138.4</ele>
        <time>2025-07-11T11:09:40.002000+02:00</time>
      </trkpt>
      <trkpt lat="46.2549" lon="-0.14432">
        <ele>138.3</ele>
        <time>2025-07-11T11:09:41.002000+02:00</time>
      </trkpt>
      <trkpt lat="46.25492" lon="-0.14437">
        <ele>138.2</ele>
        <time>2025-07-11T11:09:42.002000+02:00</time>
      </trkpt>
      <trkpt lat="46.25495" lon="-0.14442">
        <ele>138.1</ele>
        <time>2025-07-11T11:09:43.002000+02:00</time>
      </trkpt>
      <trkpt lat="46.25498" lon="-0.14447">
        <ele>138</ele>
        <time>2025-07-11T11:09:44.003000+02:00</time>
      </trkpt>
      <trkpt lat="46.25503" lon="-0.14456">
        <ele>138.2</ele>
        <time>2025-07-11T11:09:46.002000+02:00</time>
      </trkpt>
      <trkpt lat="46.25506" lon="-0.1446">
        <ele>138.3</ele>
        <time>2025-07-11T11:09:47.002000+02:00</time>
      </trkpt>
      <trkpt lat="46.25508" lon="-0.14465">
        <ele>138.4</ele>
        <time>2025-07-11T11:09:48.003000+02:00</time>
      </trkpt>
      <trkpt lat="46.2551" lon="-0.1447">
        <ele>138.4</ele>
        <time>2025-07-11T11:09:49.003000+02:00</time>
      </trkpt>
      <trkpt lat="46.25512" lon="-0.14474">
        <ele>138.4</ele>
        <time>2025-07-11T11:09:50.003000+02:00</time>
      </trkpt>
      <trkpt lat="46.25516" lon="-0.14483">
        <ele>138.2</ele>
        <time>2025-07-11T11:09:52.007000+02:00</time>
      </trkpt>
      <trkpt lat="46.25522" lon="-0.14492">
        <ele>138.1</ele>
        <time>2025-07-11T11:09:54.001000+02:00</time>
      </trkpt>
      <trkpt lat="46.25524" lon="-0.14496">
        <ele>138</ele>
        <time>2025-07-11T11:09:55.002000+02:00</time>
      </trkpt>
      <trkpt lat="46.25526" lon="-0.145">
        <ele>137.9</ele>
        <time>2025-07-11T11:09:56.002000+02:00</time>
      </trkpt>
      <trkpt lat="46.25528" lon="-0.14504">
        <ele>138</ele>
        <time>2025-07-11T11:09:57.003000+02:00</time>
      </trkpt>
      <trkpt lat="46.25529" lon="-0.14511">
        <ele>138.1</ele>
        <time>2025-07-11T11:09:59.002000+02:00</time>
      </trkpt>
      <trkpt lat="46.25527" lon="-0.14512">
        <ele>138</ele>
        <time>2025-07-11T11:10:00.005000+02:00</time>
      </trkpt>
      <trkpt lat="46.25522" lon="-0.14512">
        <ele>137.7</ele>
        <time>2025-07-11T11:10:02.003000+02:00</time>
      </trkpt>
      <trkpt lat="46.25515" lon="-0.14512">
        <ele>137.3</ele>
        <time>2025-07-11T11:10:04.002000+02:00</time>
      </trkpt>
      <trkpt lat="46.25506" lon="-0.14513">
        <ele>136.8</ele>
        <time>2025-07-11T11:10:06+02:00</time>
      </trkpt>
      <trkpt lat="46.25502" lon="-0.14515">
        <ele>136.6</ele>
        <time>2025-07-11T11:10:07+02:00</time>
      </trkpt>
      <trkpt lat="46.25497" lon="-0.14518">
        <ele>136.3</ele>
        <time>2025-07-11T11:10:08.001000+02:00</time>
      </trkpt>
      <trkpt lat="46.25492" lon="-0.1452">
        <ele>136</ele>
        <time>2025-07-11T11:10:09.002000+02:00</time>
      </trkpt>
      <trkpt lat="46.25483" lon="-0.14527">
        <ele>135.4</ele>
        <time>2025-07-11T11:10:11.001000+02:00</time>
      </trkpt>
      <trkpt lat="46.25478" lon="-0.14531">
        <ele>135.3</ele>
        <time>2025-07-11T11:10:12.001000+02:00</time>
      </trkpt>
      <trkpt lat="46.25469" lon="-0.14537">
        <ele>135.3</ele>
        <time>2025-07-11T11:10:14.001000+02:00</time>
      </trkpt>
      <trkpt lat="46.25464" lon="-0.1454">
        <ele>135.3</ele>
        <time>2025-07-11T11:10:15.001000+02:00</time>
      </trkpt>
      <trkpt lat="46.25456" lon="-0.14546">
        <ele>135.3</ele>
        <time>2025-07-11T11:10:17.004000+02:00</time>
      </trkpt>
      <trkpt lat="46.25448" lon="-0.14552">
        <ele>135.1</ele>
        <time>2025-07-11T11:10:19.001000+02:00</time>
      </trkpt>
      <trkpt lat="46.2544" lon="-0.14557">
        <ele>135.2</ele>
        <time>2025-07-11T11:10:21.001000+02:00</time>
      </trkpt>
      <trkpt lat="46.25436" lon="-0.14559">
        <ele>135.5</ele>
        <time>2025-07-11T11:10:22.001000+02:00</time>
      </trkpt>
      <trkpt lat="46.25431" lon="-0.14561">
        <ele>135.8</ele>
        <time>2025-07-11T11:10:23.001000+02:00</time>
      </trkpt>
      <trkpt lat="46.25427" lon="-0.14563">
        <ele>136.1</ele>
        <time>2025-07-11T11:10:24.002000+02:00</time>
      </trkpt>
      <trkpt lat="46.2542" lon="-0.14566">
        <ele>136.6</ele>
        <time>2025-07-11T11:10:26.001000+02:00</time>
      </trkpt>
      <trkpt lat="46.25416" lon="-0.14567">
        <ele>136.8</ele>
        <time>2025-07-11T11:10:27.003000+02:00</time>
      </trkpt>
      <trkpt lat="46.2541" lon="-0.14568">
        <ele>137.6</ele>
        <time>2025-07-11T11:10:29.002000+02:00</time>
      </trkpt>
      <trkpt lat="46.25407" lon="-0.1457">
        <ele>137.9</ele>
        <time>2025-07-11T11:10:30.002000+02:00</time>
      </trkpt>
      <trkpt lat="46.25405" lon="-0.14571">
        <ele>138.2</ele>
        <time>2025-07-11T11:10:31.002000+02:00</time>
      </trkpt>
      <trkpt lat="46.25401" lon="-0.14573">
        <ele>138.6</ele>
        <time>2025-07-11T11:10:33.002000+02:00</time>
      </trkpt>
      <trkpt lat="46.25397" lon="-0.14575">
        <ele>139</ele>
        <time>2025-07-11T11:10:35.001000+02:00</time>
      </trkpt>
      <trkpt lat="46.25395" lon="-0.14576">
        <ele>139.2</ele>
        <time>2025-07-11T11:10:36.001000+02:00</time>
      </trkpt>
      <trkpt lat="46.25393" lon="-0.14577">
        <ele>139.4</ele>
        <time>2025-07-11T11:10:37.002000+02:00</time>
      </trkpt>
      <trkpt lat="46.2539" lon="-0.14579">
        <ele>139.8</ele>
        <time>2025-07-11T11:10:39.001000+02:00</time>
      </trkpt>
      <trkpt lat="46.25387" lon="-0.1458">
        <ele>140</ele>
        <time>2025-07-11T11:10:40.001000+02:00</time>
      </trkpt>
      <trkpt lat="46.25385" lon="-0.14581">
        <ele>140.2</ele>
        <time>2025-07-11T11:10:41.001000+02:00</time>
      </trkpt>
      <trkpt lat="46.25382" lon="-0.14582">
        <ele>140.5</ele>
        <time>2025-07-11T11:10:42.002000+02:00</time>
      </trkpt>
      <trkpt lat="46.2538" lon="-0.14583">
        <ele>140.6</ele>
        <time>2025-07-11T11:10:43.002000+02:00</time>
      </trkpt>
      <trkpt lat="46.25378" lon="-0.14583">
        <ele>140.8</ele>
        <time>2025-07-11T11:10:44.002000+02:00</time>
      </trkpt>
      <trkpt lat="46.25376" lon="-0.14584">
        <ele>141</ele>
        <time>2025-07-11T11:10:45.004000+02:00</time>
      </trkpt>
      <trkpt lat="46.25371" lon="-0.14587">
        <ele>141.6</ele>
        <time>2025-07-11T11:10:47.001000+02:00</time>
      </trkpt>
      <trkpt lat="46.25369" lon="-0.14589">
        <ele>141.9</ele>
        <time>2025-07-11T11:10:48.001000+02:00</time>
      </trkpt>
      <trkpt lat="46.25366" lon="-0.1459">
        <ele>142.2</ele>
        <time>2025-07-11T11:10:49.005000+02:00</time>
      </trkpt>
      <trkpt lat="46.25362" lon="-0.14591">
        <ele>142.5</ele>
        <time>2025-07-11T11:10:51.002000+02:00</time>
      </trkpt>
      <trkpt lat="46.2536" lon="-0.14592">
        <ele>142.7</ele>
        <time>2025-07-11T11:10:52.003000+02:00</time>
      </trkpt>
      <trkpt lat="46.25356" lon="-0.14594">
        <ele>143.1</ele>
        <time>2025-07-11T11:10:54.002000+02:00</time>
      </trkpt>
      <trkpt lat="46.25354" lon="-0.14595">
        <ele>143.2</ele>
        <time>2025-07-11T11:10:55.003000+02:00</time>
      </trkpt>
      <trkpt lat="46.2535" lon="-0.14597">
        <ele>143.6</ele>
        <time>2025-07-11T11:10:57.001000+02:00</time>
      </trkpt>
      <trkpt lat="46.25347" lon="-0.14598">
        <ele>143.8</ele>
        <time>2025-07-11T11:10:58.001000+02:00</time>
      </trkpt>
      <trkpt lat="46.25342" lon="-0.146">
        <ele>144.2</ele>
        <time>2025-07-11T11:11:00.001000+02:00</time>
      </trkpt>
      <trkpt lat="46.2534" lon="-0.14602">
        <ele>144.4</ele>
        <time>2025-07-11T11:11:01.002000+02:00</time>
      </trkpt>
      <trkpt lat="46.25338" lon="-0.14603">
        <ele>144.5</ele>
        <time>2025-07-11T11:11:02.002000+02:00</time>
      </trkpt>
      <trkpt lat="46.25334" lon="-0.14607">
        <ele>144.8</ele>
        <time>2025-07-11T11:11:04.001000+02:00</time>
      </trkpt>
      <trkpt lat="46.25331" lon="-0.14608">
        <ele>145.1</ele>
        <time>2025-07-11T11:11:05.001000+02:00</time>
      </trkpt>
      <trkpt lat="46.25325" lon="-0.14611">
        <ele>145.6</ele>
        <time>2025-07-11T11:11:07.001000+02:00</time>
      </trkpt>
      <trkpt lat="46.25323" lon="-0.14612">
        <ele>145.8</ele>
        <time>2025-07-11T11:11:08.002000+02:00</time>
      </trkpt>
      <trkpt lat="46.25319" lon="-0.14614">
        <ele>146.3</ele>
        <time>2025-07-11T11:11:10.001000+02:00</time>
      </trkpt>
      <trkpt lat="46.25317" lon="-0.14615">
        <ele>146.5</ele>
        <time>2025-07-11T11:11:11.001000+02:00</time>
      </trkpt>
      <trkpt lat="46.25315" lon="-0.14616">
        <ele>146.6</ele>
        <time>2025-07-11T11:11:12.002000+02:00</time>
      </trkpt>
      <trkpt lat="46.2531" lon="-0.14618">
        <ele>147</ele>
        <time>2025-07-11T11:11:14.001000+02:00</time>
      </trkpt>
      <trkpt lat="46.25307" lon="-0.1462">
        <ele>147.2</ele>
        <time>2025-07-11T11:11:15.004000+02:00</time>
      </trkpt>
      <trkpt lat="46.25303" lon="-0.14623">
        <ele>147.5</ele>
        <time>2025-07-11T11:11:17.001000+02:00</time>
      </trkpt>
      <trkpt lat="46.25301" lon="-0.14624">
        <ele>147.6</ele>
        <time>2025-07-11T11:11:18.001000+02:00</time>
      </trkpt>
      <trkpt lat="46.25299" lon="-0.14626">
        <ele>147.7</ele>
        <time>2025-07-11T11:11:19.001000+02:00</time>
      </trkpt>
      <trkpt lat="46.25296" lon="-0.14628">
        <ele>147.8</ele>
        <time>2025-07-11T11:11:20.002000+02:00</time>
      </trkpt>
      <trkpt lat="46.25294" lon="-0.14629">
        <ele>147.9</ele>
        <time>2025-07-11T11:11:21.002000+02:00</time>
      </trkpt>
      <trkpt lat="46.2529" lon="-0.14632">
        <ele>148.2</ele>
        <time>2025-07-11T11:11:23.001000+02:00</time>
      </trkpt>
      <trkpt lat="46.25288" lon="-0.14633">
        <ele>148.3</ele>
        <time>2025-07-11T11:11:24.001000+02:00</time>
      </trkpt>
      <trkpt lat="46.25285" lon="-0.14635">
        <ele>148.5</ele>
        <time>2025-07-11T11:11:25.002000+02:00</time>
      </trkpt>
      <trkpt lat="46.25283" lon="-0.14636">
        <ele>148.6</ele>
        <time>2025-07-11T11:11:26.002000+02:00</time>
      </trkpt>
      <trkpt lat="46.2528" lon="-0.14637">
        <ele>148.8</ele>
        <time>2025-07-11T11:11:27.003000+02:00</time>
      </trkpt>
      <trkpt lat="46.25276" lon="-0.14641">
        <ele>149</ele>
        <time>2025-07-11T11:11:29.001000+02:00</time>
      </trkpt>
      <trkpt lat="46.25274" lon="-0.14643">
        <ele>149</ele>
        <time>2025-07-11T11:11:30.002000+02:00</time>
      </trkpt>
      <trkpt lat="46.2527" lon="-0.14646">
        <ele>149</ele>
        <time>2025-07-11T11:11:32.002000+02:00</time>
      </trkpt>
      <trkpt lat="46.25268" lon="-0.14648">
        <ele>149.1</ele>
        <time>2025-07-11T11:11:33.002000+02:00</time>
      </trkpt>
      <trkpt lat="46.25263" lon="-0.14651">
        <ele>149.1</ele>
        <time>2025-07-11T11:11:35.001000+02:00</time>
      </trkpt>
      <trkpt lat="46.25261" lon="-0.14652">
        <ele>149.2</ele>
        <time>2025-07-11T11:11:36.003000+02:00</time>
      </trkpt>
      <trkpt lat="46.25257" lon="-0.14656">
        <ele>149.3</ele>
        <time>2025-07-11T11:11:38.001000+02:00</time>
      </trkpt>
      <trkpt lat="46.25255" lon="-0.14658">
        <ele>149.4</ele>
        <time>2025-07-11T11:11:39.003000+02:00</time>
      </trkpt>
      <trkpt lat="46.25251" lon="-0.14662">
        <ele>149.7</ele>
        <time>2025-07-11T11:11:41.001000+02:00</time>
      </trkpt>
      <trkpt lat="46.25248" lon="-0.14664">
        <ele>149.8</ele>
        <time>2025-07-11T11:11:42.003000+02:00</time>
      </trkpt>
      <trkpt lat="46.25245" lon="-0.14668">
        <ele>150.1</ele>
        <time>2025-07-11T11:11:44.002000+02:00</time>
      </trkpt>
      <trkpt lat="46.25242" lon="-0.14673">
        <ele>150.4</ele>
        <time>2025-07-11T11:11:46.001000+02:00</time>
      </trkpt>
      <trkpt lat="46.2524" lon="-0.14675">
        <ele>150.5</ele>
        <time>2025-07-11T11:11:47.003000+02:00</time>
      </trkpt>
      <trkpt lat="46.25237" lon="-0.14678">
        <ele>150.6</ele>
        <time>2025-07-11T11:11:48.003000+02:00</time>
      </trkpt>
      <trkpt lat="46.25232" lon="-0.14683">
        <ele>150.8</ele>
        <time>2025-07-11T11:11:50.001000+02:00</time>
      </trkpt>
      <trkpt lat="46.2523" lon="-0.14685">
        <ele>150.8</ele>
        <time>2025-07-11T11:11:51.002000+02:00</time>
      </trkpt>
      <trkpt lat="46.25229" lon="-0.14687">
        <ele>150.9</ele>
        <time>2025-07-11T11:11:52.003000+02:00</time>
      </trkpt>
      <trkpt lat="46.25224" lon="-0.14692">
        <ele>151</ele>
        <time>2025-07-11T11:11:54.001000+02:00</time>
      </trkpt>
      <trkpt lat="46.25222" lon="-0.14695">
        <ele>151</ele>
        <time>2025-07-11T11:11:55.001000+02:00</time>
      </trkpt>
      <trkpt lat="46.25218" lon="-0.147">
        <ele>151.4</ele>
        <time>2025-07-11T11:11:57.001000+02:00</time>
      </trkpt>
      <trkpt lat="46.25216" lon="-0.14702">
        <ele>151.5</ele>
        <time>2025-07-11T11:11:58.001000+02:00</time>
      </trkpt>
      <trkpt lat="46.25214" lon="-0.14705">
        <ele>151.7</ele>
        <time>2025-07-11T11:11:59.001000+02:00</time>
      </trkpt>
      <trkpt lat="46.25213" lon="-0.14707">
        <ele>151.8</ele>
        <time>2025-07-11T11:12:00.001000+02:00</time>
      </trkpt>
      <trkpt lat="46.25211" lon="-0.1471">
        <ele>151.9</ele>
        <time>2025-07-11T11:12:01.001000+02:00</time>
      </trkpt>
      <trkpt lat="46.25209" lon="-0.14713">
        <ele>152</ele>
        <time>2025-07-11T11:12:02.002000+02:00</time>
      </trkpt>
      <trkpt lat="46.25207" lon="-0.14716">
        <ele>152.1</ele>
        <time>2025-07-11T11:12:03.002000+02:00</time>
      </trkpt>
      <trkpt lat="46.25202" lon="-0.14722">
        <ele>152.3</ele>
        <time>2025-07-11T11:12:05+02:00</time>
      </trkpt>
      <trkpt lat="46.252" lon="-0.14724">
        <ele>152.3</ele>
        <time>2025-07-11T11:12:06.001000+02:00</time>
      </trkpt>
      <trkpt lat="46.25198" lon="-0.14726">
        <ele>152.4</ele>
        <time>2025-07-11T11:12:07.001000+02:00</time>
      </trkpt>
      <trkpt lat="46.25197" lon="-0.14729">
        <ele>152.6</ele>
        <time>2025-07-11T11:12:08.003000+02:00</time>
      </trkpt>
      <trkpt lat="46.25194" lon="-0.14732">
        <ele>152.7</ele>
        <time>2025-07-11T11:12:09.003000+02:00</time>
      </trkpt>
      <trkpt lat="46.25189" lon="-0.14738">
        <ele>153</ele>
        <time>2025-07-11T11:12:11.001000+02:00</time>
      </trkpt>
      <trkpt lat="46.25187" lon="-0.1474">
        <ele>153.1</ele>
        <time>2025-07-11T11:12:12.002000+02:00</time>
      </trkpt>
      <trkpt lat="46.25185" lon="-0.14743">
        <ele>153.2</ele>
        <time>2025-07-11T11:12:13.002000+02:00</time>
      </trkpt>
      <trkpt lat="46.25182" lon="-0.14745">
        <ele>153.3</ele>
        <time>2025-07-11T11:12:14.003000+02:00</time>
      </trkpt>
      <trkpt lat="46.2518" lon="-0.14748">
        <ele>153.3</ele>
        <time>2025-07-11T11:12:15.003000+02:00</time>
      </trkpt>
      <trkpt lat="46.25175" lon="-0.14753">
        <ele>153.4</ele>
        <time>2025-07-11T11:12:17.001000+02:00</time>
      </trkpt>
      <trkpt lat="46.25172" lon="-0.14755">
        <ele>153.4</ele>
        <time>2025-07-11T11:12:18.002000+02:00</time>
      </trkpt>
      <trkpt lat="46.25168" lon="-0.14758">
        <ele>153.3</ele>
        <time>2025-07-11T11:12:20+02:00</time>
      </trkpt>
      <trkpt lat="46.25166" lon="-0.1476">
        <ele>153.4</ele>
        <time>2025-07-11T11:12:21.002000+02:00</time>
      </trkpt>
      <trkpt lat="46.25161" lon="-0.14765">
        <ele>153.5</ele>
        <time>2025-07-11T11:12:23+02:00</time>
      </trkpt>
      <trkpt lat="46.25159" lon="-0.14767">
        <ele>153.6</ele>
        <time>2025-07-11T11:12:24.001000+02:00</time>
      </trkpt>
      <trkpt lat="46.25156" lon="-0.14769">
        <ele>153.7</ele>
        <time>2025-07-11T11:12:25.001000+02:00</time>
      </trkpt>
      <trkpt lat="46.25153" lon="-0.14772">
        <ele>153.8</ele>
        <time>2025-07-11T11:12:26.002000+02:00</time>
      </trkpt>
      <trkpt lat="46.25152" lon="-0.14774">
        <ele>153.9</ele>
        <time>2025-07-11T11:12:27.002000+02:00</time>
      </trkpt>
      <trkpt lat="46.25149" lon="-0.14777">
        <ele>154</ele>
        <time>2025-07-11T11:12:28.002000+02:00</time>
      </trkpt>
      <trkpt lat="46.25145" lon="-0.14783">
        <ele>154.2</ele>
        <time>2025-07-11T11:12:30.002000+02:00</time>
      </trkpt>
      <trkpt lat="46.25142" lon="-0.14786">
        <ele>154.3</ele>
        <time>2025-07-11T11:12:31.002000+02:00</time>
      </trkpt>
      <trkpt lat="46.25137" lon="-0.14791">
        <ele>154.5</ele>
        <time>2025-07-11T11:12:33.003000+02:00</time>
      </trkpt>
      <trkpt lat="46.25133" lon="-0.14796">
        <ele>154.6</ele>
        <time>2025-07-11T11:12:35+02:00</time>
      </trkpt>
      <trkpt lat="46.2513" lon="-0.14798">
        <ele>154.7</ele>
        <time>2025-07-11T11:12:36.001000+02:00</time>
      </trkpt>
      <trkpt lat="46.25128" lon="-0.148">
        <ele>154.8</ele>
        <time>2025-07-11T11:12:37.001000+02:00</time>
      </trkpt>
      <trkpt lat="46.25125" lon="-0.14803">
        <ele>154.9</ele>
        <time>2025-07-11T11:12:38.002000+02:00</time>
      </trkpt>
      <trkpt lat="46.25122" lon="-0.14805">
        <ele>155</ele>
        <time>2025-07-11T11:12:39.002000+02:00</time>
      </trkpt>
      <trkpt lat="46.25116" lon="-0.1481">
        <ele>155.1</ele>
        <time>2025-07-11T11:12:41.001000+02:00</time>
      </trkpt>
      <trkpt lat="46.25114" lon="-0.14813">
        <ele>155.2</ele>
        <time>2025-07-11T11:12:42.001000+02:00</time>
      </trkpt>
      <trkpt lat="46.25111" lon="-0.14815">
        <ele>155.3</ele>
        <time>2025-07-11T11:12:43.001000+02:00</time>
      </trkpt>
      <trkpt lat="46.25109" lon="-0.14818">
        <ele>155.4</ele>
        <time>2025-07-11T11:12:44.002000+02:00</time>
      </trkpt>
      <trkpt lat="46.25104" lon="-0.14822">
        <ele>155.4</ele>
        <time>2025-07-11T11:12:46.001000+02:00</time>
      </trkpt>
      <trkpt lat="46.25101" lon="-0.14825">
        <ele>155.4</ele>
        <time>2025-07-11T11:12:47.002000+02:00</time>
      </trkpt>
      <trkpt lat="46.25098" lon="-0.14827">
        <ele>155.4</ele>
        <time>2025-07-11T11:12:48.002000+02:00</time>
      </trkpt>
      <trkpt lat="46.25093" lon="-0.14831">
        <ele>155.3</ele>
        <time>2025-07-11T11:12:50.003000+02:00</time>
      </trkpt>
      <trkpt lat="46.25087" lon="-0.14835">
        <ele>155.2</ele>
        <time>2025-07-11T11:12:52.001000+02:00</time>
      </trkpt>
      <trkpt lat="46.25084" lon="-0.14838">
        <ele>155.2</ele>
        <time>2025-07-11T11:12:53.001000+02:00</time>
      </trkpt>
      <trkpt lat="46.25082" lon="-0.14841">
        <ele>155.3</ele>
        <time>2025-07-11T11:12:54.001000+02:00</time>
      </trkpt>
      <trkpt lat="46.25079" lon="-0.14843">
        <ele>155.5</ele>
        <time>2025-07-11T11:12:55.001000+02:00</time>
      </trkpt>
      <trkpt lat="46.25075" lon="-0.14846">
        <ele>155.6</ele>
        <time>2025-07-11T11:12:56.001000+02:00</time>
      </trkpt>
      <trkpt lat="46.25072" lon="-0.14848">
        <ele>155.7</ele>
        <time>2025-07-11T11:12:57.003000+02:00</time>
      </trkpt>
      <trkpt lat="46.25067" lon="-0.14854">
        <ele>155.9</ele>
        <time>2025-07-11T11:12:59.001000+02:00</time>
      </trkpt>
      <trkpt lat="46.25064" lon="-0.14856">
        <ele>155.9</ele>
        <time>2025-07-11T11:13:00.002000+02:00</time>
      </trkpt>
      <trkpt lat="46.25057" lon="-0.14861">
        <ele>156</ele>
        <time>2025-07-11T11:13:02.002000+02:00</time>
      </trkpt>
      <trkpt lat="46.25054" lon="-0.14864">
        <ele>156.1</ele>
        <time>2025-07-11T11:13:03.003000+02:00</time>
      </trkpt>
      <trkpt lat="46.25048" lon="-0.14868">
        <ele>156.5</ele>
        <time>2025-07-11T11:13:05.002000+02:00</time>
      </trkpt>
      <trkpt lat="46.25041" lon="-0.14872">
        <ele>156.7</ele>
        <time>2025-07-11T11:13:07.002000+02:00</time>
      </trkpt>
      <trkpt lat="46.25036" lon="-0.14876">
        <ele>156.9</ele>
        <time>2025-07-11T11:13:09.001000+02:00</time>
      </trkpt>
      <trkpt lat="46.25033" lon="-0.14877">
        <ele>156.9</ele>
        <time>2025-07-11T11:13:10.002000+02:00</time>
      </trkpt>
      <trkpt lat="46.25028" lon="-0.14881">
        <ele>157</ele>
        <time>2025-07-11T11:13:12.002000+02:00</time>
      </trkpt>
      <trkpt lat="46.25026" lon="-0.14884">
        <ele>156.9</ele>
        <time>2025-07-11T11:13:13.002000+02:00</time>
      </trkpt>
      <trkpt lat="46.25023" lon="-0.14886">
        <ele>156.8</ele>
        <time>2025-07-11T11:13:14.003000+02:00</time>
      </trkpt>
      <trkpt lat="46.25016" lon="-0.14892">
        <ele>156.7</ele>
        <time>2025-07-11T11:13:16.001000+02:00</time>
      </trkpt>
      <trkpt lat="46.25013" lon="-0.14895">
        <ele>156.7</ele>
        <time>2025-07-11T11:13:17.001000+02:00</time>
      </trkpt>
      <trkpt lat="46.25006" lon="-0.14901">
        <ele>156.7</ele>
        <time>2025-07-11T11:13:19.001000+02:00</time>
      </trkpt>
      <trkpt lat="46.25001" lon="-0.14905">
        <ele>156.6</ele>
        <time>2025-07-11T11:13:21.001000+02:00</time>
      </trkpt>
      <trkpt lat="46.24998" lon="-0.14906">
        <ele>156.6</ele>
        <time>2025-07-11T11:13:22.001000+02:00</time>
      </trkpt>
      <trkpt lat="46.24994" lon="-0.14894">
        <ele>156.2</ele>
        <time>2025-07-11T11:13:23.001000+02:00</time>
      </trkpt>
      <trkpt lat="46.24994" lon="-0.14896">
        <ele>156.2</ele>
        <time>2025-07-11T11:13:25.003000+02:00</time>
      </trkpt>
      <trkpt lat="46.24986" lon="-0.14907">
        <ele>156.3</ele>
        <time>2025-07-11T11:13:27.002000+02:00</time>
      </trkpt>
      <trkpt lat="46.24983" lon="-0.14909">
        <ele>156.3</ele>
        <time>2025-07-11T11:13:28.004000+02:00</time>
      </trkpt>
      <trkpt lat="46.24975" lon="-0.14912">
        <ele>156.1</ele>
        <time>2025-07-11T11:13:30.001000+02:00</time>
      </trkpt>
      <trkpt lat="46.24971" lon="-0.14914">
        <ele>156</ele>
        <time>2025-07-11T11:13:31.004000+02:00</time>
      </trkpt>
      <trkpt lat="46.24967" lon="-0.14916">
        <ele>156</ele>
        <time>2025-07-11T11:13:32.004000+02:00</time>
      </trkpt>
      <trkpt lat="46.24959" lon="-0.14923">
        <ele>156.1</ele>
        <time>2025-07-11T11:13:34.001000+02:00</time>
      </trkpt>
      <trkpt lat="46.24956" lon="-0.14928">
        <ele>156.2</ele>
        <time>2025-07-11T11:13:35.001000+02:00</time>
      </trkpt>
      <trkpt lat="46.24952" lon="-0.14933">
        <ele>156.2</ele>
        <time>2025-07-11T11:13:36.002000+02:00</time>
      </trkpt>
      <trkpt lat="46.24949" lon="-0.14935">
        <ele>156.1</ele>
        <time>2025-07-11T11:13:37.002000+02:00</time>
      </trkpt>
      <trkpt lat="46.24946" lon="-0.14937">
        <ele>156</ele>
        <time>2025-07-11T11:13:38.002000+02:00</time>
      </trkpt>
      <trkpt lat="46.24942" lon="-0.1494">
        <ele>156</ele>
        <time>2025-07-11T11:13:39.002000+02:00</time>
      </trkpt>
      <trkpt lat="46.24939" lon="-0.14942">
        <ele>156</ele>
        <time>2025-07-11T11:13:40.002000+02:00</time>
      </trkpt>
      <trkpt lat="46.24933" lon="-0.14945">
        <ele>156</ele>
        <time>2025-07-11T11:13:42.001000+02:00</time>
      </trkpt>
      <trkpt lat="46.2493" lon="-0.14947">
        <ele>156.1</ele>
        <time>2025-07-11T11:13:43.002000+02:00</time>
      </trkpt>
      <trkpt lat="46.24927" lon="-0.14948">
        <ele>156.1</ele>
        <time>2025-07-11T11:13:44.002000+02:00</time>
      </trkpt>
      <trkpt lat="46.24924" lon="-0.1495">
        <ele>156.2</ele>
        <time>2025-07-11T11:13:45.002000+02:00</time>
      </trkpt>
      <trkpt lat="46.24918" lon="-0.14952">
        <ele>156.3</ele>
        <time>2025-07-11T11:13:47.001000+02:00</time>
      </trkpt>
      <trkpt lat="46.24914" lon="-0.14954">
        <ele>156.4</ele>
        <time>2025-07-11T11:13:48.001000+02:00</time>
      </trkpt>
      <trkpt lat="46.2491" lon="-0.14956">
        <ele>156.5</ele>
        <time>2025-07-11T11:13:49.002000+02:00</time>
      </trkpt>
      <trkpt lat="46.24907" lon="-0.14958">
        <ele>156.7</ele>
        <time>2025-07-11T11:13:50.002000+02:00</time>
      </trkpt>
      <trkpt lat="46.24903" lon="-0.14959">
        <ele>156.8</ele>
        <time>2025-07-11T11:13:51.002000+02:00</time>
      </trkpt>
      <trkpt lat="46.249" lon="-0.1496">
        <ele>156.8</ele>
        <time>2025-07-11T11:13:52.002000+02:00</time>
      </trkpt>
      <trkpt lat="46.24893" lon="-0.14963">
        <ele>156.9</ele>
        <time>2025-07-11T11:13:54.001000+02:00</time>
      </trkpt>
      <trkpt lat="46.24887" lon="-0.14967">
        <ele>157.1</ele>
        <time>2025-07-11T11:13:56+02:00</time>
      </trkpt>
      <trkpt lat="46.24884" lon="-0.14969">
        <ele>157.3</ele>
        <time>2025-07-11T11:13:57+02:00</time>
      </trkpt>
      <trkpt lat="46.24882" lon="-0.14971">
        <ele>157.5</ele>
        <time>2025-07-11T11:13:58.002000+02:00</time>
      </trkpt>
      <trkpt lat="46.24877" lon="-0.14974">
        <ele>157.9</ele>
        <time>2025-07-11T11:14:00.001000+02:00</time>
      </trkpt>
      <trkpt lat="46.24875" lon="-0.14975">
        <ele>158.1</ele>
        <time>2025-07-11T11:14:01.005000+02:00</time>
      </trkpt>
      <trkpt lat="46.24869" lon="-0.14977">
        <ele>158.5</ele>
        <time>2025-07-11T11:14:03.003000+02:00</time>
      </trkpt>
      <trkpt lat="46.24861" lon="-0.14979">
        <ele>159</ele>
        <time>2025-07-11T11:14:05.002000+02:00</time>
      </trkpt>
      <trkpt lat="46.24858" lon="-0.14981">
        <ele>159.1</ele>
        <time>2025-07-11T11:14:06.003000+02:00</time>
      </trkpt>
      <trkpt lat="46.24853" lon="-0.14984">
        <ele>159.3</ele>
        <time>2025-07-11T11:14:08.001000+02:00</time>
      </trkpt>
      <trkpt lat="46.24851" lon="-0.14986">
        <ele>159.4</ele>
        <time>2025-07-11T11:14:09.001000+02:00</time>
      </trkpt>
      <trkpt lat="46.24848" lon="-0.14989">
        <ele>159.5</ele>
        <time>2025-07-11T11:14:10.002000+02:00</time>
      </trkpt>
      <trkpt lat="46.24843" lon="-0.14993">
        <ele>159.6</ele>
        <time>2025-07-11T11:14:12.001000+02:00</time>
      </trkpt>
      <trkpt lat="46.2484" lon="-0.14996">
        <ele>159.8</ele>
        <time>2025-07-11T11:14:13.002000+02:00</time>
      </trkpt>
      <trkpt lat="46.24834" lon="-0.15002">
        <ele>160</ele>
        <time>2025-07-11T11:14:15.002000+02:00</time>
      </trkpt>
      <trkpt lat="46.24829" lon="-0.15006">
        <ele>160.2</ele>
        <time>2025-07-11T11:14:17.001000+02:00</time>
      </trkpt>
      <trkpt lat="46.24826" lon="-0.15008">
        <ele>160.3</ele>
        <time>2025-07-11T11:14:18.001000+02:00</time>
      </trkpt>
      <trkpt lat="46.24823" lon="-0.1501">
        <ele>160.4</ele>
        <time>2025-07-11T11:14:19.001000+02:00</time>
      </trkpt>
      <trkpt lat="46.24821" lon="-0.15012">
        <ele>160.4</ele>
        <time>2025-07-11T11:14:20.002000+02:00</time>
      </trkpt>
      <trkpt lat="46.24818" lon="-0.15013">
        <ele>160.5</ele>
        <time>2025-07-11T11:14:21.002000+02:00</time>
      </trkpt>
      <trkpt lat="46.24812" lon="-0.15016">
        <ele>160.6</ele>
        <time>2025-07-11T11:14:23.001000+02:00</time>
      </trkpt>
      <trkpt lat="46.2481" lon="-0.15017">
        <ele>160.6</ele>
        <time>2025-07-11T11:14:24.002000+02:00</time>
      </trkpt>
      <trkpt lat="46.24807" lon="-0.15018">
        <ele>160.6</ele>
        <time>2025-07-11T11:14:25.002000+02:00</time>
      </trkpt>
      <trkpt lat="46.24805" lon="-0.15019">
        <ele>160.6</ele>
        <time>2025-07-11T11:14:26.002000+02:00</time>
      </trkpt>
      <trkpt lat="46.24799" lon="-0.15021">
        <ele>160.5</ele>
        <time>2025-07-11T11:14:28+02:00</time>
      </trkpt>
      <trkpt lat="46.24796" lon="-0.15022">
        <ele>160.4</ele>
        <time>2025-07-11T11:14:29+02:00</time>
      </trkpt>
      <trkpt lat="46.24793" lon="-0.15023">
        <ele>160.4</ele>
        <time>2025-07-11T11:14:30.003000+02:00</time>
      </trkpt>
      <trkpt lat="46.24786" lon="-0.15026">
        <ele>160.2</ele>
        <time>2025-07-11T11:14:32.002000+02:00</time>
      </trkpt>
      <trkpt lat="46.24782" lon="-0.15027">
        <ele>160.1</ele>
        <time>2025-07-11T11:14:33.003000+02:00</time>
      </trkpt>
      <trkpt lat="46.24775" lon="-0.15031">
        <ele>159.8</ele>
        <time>2025-07-11T11:14:35.002000+02:00</time>
      </trkpt>
      <trkpt lat="46.24771" lon="-0.15034">
        <ele>159.5</ele>
        <time>2025-07-11T11:14:37.003000+02:00</time>
      </trkpt>
      <trkpt lat="46.24768" lon="-0.15036">
        <ele>159.3</ele>
        <time>2025-07-11T11:14:38.004000+02:00</time>
      </trkpt>
      <trkpt lat="46.24763" lon="-0.15039">
        <ele>158.9</ele>
        <time>2025-07-11T11:14:40.002000+02:00</time>
      </trkpt>
      <trkpt lat="46.2476" lon="-0.15039">
        <ele>158.7</ele>
        <time>2025-07-11T11:14:41.002000+02:00</time>
      </trkpt>
      <trkpt lat="46.24757" lon="-0.15039">
        <ele>158.5</ele>
        <time>2025-07-11T11:14:42.002000+02:00</time>
      </trkpt>
      <trkpt lat="46.24751" lon="-0.15036">
        <ele>158.1</ele>
        <time>2025-07-11T11:14:44.001000+02:00</time>
      </trkpt>
      <trkpt lat="46.24748" lon="-0.15034">
        <ele>157.8</ele>
        <time>2025-07-11T11:14:45.002000+02:00</time>
      </trkpt>
      <trkpt lat="46.2474" lon="-0.15034">
        <ele>157.2</ele>
        <time>2025-07-11T11:14:47.002000+02:00</time>
      </trkpt>
      <trkpt lat="46.24736" lon="-0.15038">
        <ele>156.8</ele>
        <time>2025-07-11T11:14:48.002000+02:00</time>
      </trkpt>
      <trkpt lat="46.24733" lon="-0.15043">
        <ele>156.5</ele>
        <time>2025-07-11T11:14:49.004000+02:00</time>
      </trkpt>
      <trkpt lat="46.24728" lon="-0.15055">
        <ele>155.7</ele>
        <time>2025-07-11T11:14:51.002000+02:00</time>
      </trkpt>
      <trkpt lat="46.24723" lon="-0.15069">
        <ele>155.5</ele>
        <time>2025-07-11T11:14:53.001000+02:00</time>
      </trkpt>
      <trkpt lat="46.2472" lon="-0.15077">
        <ele>155.5</ele>
        <time>2025-07-11T11:14:54.002000+02:00</time>
      </trkpt>
      <trkpt lat="46.24715" lon="-0.15093">
        <ele>155.7</ele>
        <time>2025-07-11T11:14:56.003000+02:00</time>
      </trkpt>
      <trkpt lat="46.2471" lon="-0.15111">
        <ele>155.8</ele>
        <time>2025-07-11T11:14:58.002000+02:00</time>
      </trkpt>
      <trkpt lat="46.24708" lon="-0.15131">
        <ele>155.4</ele>
        <time>2025-07-11T11:15:00.002000+02:00</time>
      </trkpt>
      <trkpt lat="46.24706" lon="-0.1515">
        <ele>155.1</ele>
        <time>2025-07-11T11:15:02+02:00</time>
      </trkpt>
      <trkpt lat="46.24705" lon="-0.1516">
        <ele>154.9</ele>
        <time>2025-07-11T11:15:03.003000+02:00</time>
      </trkpt>
      <trkpt lat="46.24704" lon="-0.1517">
        <ele>154.7</ele>
        <time>2025-07-11T11:15:04.003000+02:00</time>
      </trkpt>
      <trkpt lat="46.24702" lon="-0.15191">
        <ele>154</ele>
        <time>2025-07-11T11:15:06.002000+02:00</time>
      </trkpt>
      <trkpt lat="46.247" lon="-0.15202">
        <ele>153.5</ele>
        <time>2025-07-11T11:15:07.002000+02:00</time>
      </trkpt>
      <trkpt lat="46.24699" lon="-0.15214">
        <ele>152.7</ele>
        <time>2025-07-11T11:15:08.003000+02:00</time>
      </trkpt>
      <trkpt lat="46.24697" lon="-0.15225">
        <ele>152.1</ele>
        <time>2025-07-11T11:15:09.003000+02:00</time>
      </trkpt>
      <trkpt lat="46.24692" lon="-0.15246">
        <ele>151.1</ele>
        <time>2025-07-11T11:15:11.002000+02:00</time>
      </trkpt>
      <trkpt lat="46.24689" lon="-0.15257">
        <ele>151.2</ele>
        <time>2025-07-11T11:15:12.002000+02:00</time>
      </trkpt>
      <trkpt lat="46.24683" lon="-0.15278">
        <ele>151.2</ele>
        <time>2025-07-11T11:15:14.003000+02:00</time>
      </trkpt>
      <trkpt lat="46.2468" lon="-0.15288">
        <ele>150.8</ele>
        <time>2025-07-11T11:15:15.003000+02:00</time>
      </trkpt>
      <trkpt lat="46.24673" lon="-0.15308">
        <ele>150.2</ele>
        <time>2025-07-11T11:15:17.002000+02:00</time>
      </trkpt>
      <trkpt lat="46.24662" lon="-0.15325">
        <ele>149.8</ele>
        <time>2025-07-11T11:15:19.002000+02:00</time>
      </trkpt>
      <trkpt lat="46.24656" lon="-0.15333">
        <ele>149.6</ele>
        <time>2025-07-11T11:15:20.004000+02:00</time>
      </trkpt>
      <trkpt lat="46.24644" lon="-0.15348">
        <ele>149.2</ele>
        <time>2025-07-11T11:15:22.002000+02:00</time>
      </trkpt>
      <trkpt lat="46.24639" lon="-0.15354">
        <ele>149</ele>
        <time>2025-07-11T11:15:23.002000+02:00</time>
      </trkpt>
      <trkpt lat="46.24634" lon="-0.1536">
        <ele>148.8</ele>
        <time>2025-07-11T11:15:24.002000+02:00</time>
      </trkpt>
      <trkpt lat="46.24626" lon="-0.15373">
        <ele>148.1</ele>
        <time>2025-07-11T11:15:26.001000+02:00</time>
      </trkpt>
      <trkpt lat="46.24625" lon="-0.1538">
        <ele>147.8</ele>
        <time>2025-07-11T11:15:27.002000+02:00</time>
      </trkpt>
      <trkpt lat="46.24625" lon="-0.15387">
        <ele>147.6</ele>
        <time>2025-07-11T11:15:28.002000+02:00</time>
      </trkpt>
      <trkpt lat="46.24628" lon="-0.154">
        <ele>147.6</ele>
        <time>2025-07-11T11:15:30.001000+02:00</time>
      </trkpt>
      <trkpt lat="46.2463" lon="-0.15405">
        <ele>147.7</ele>
        <time>2025-07-11T11:15:31.002000+02:00</time>
      </trkpt>
      <trkpt lat="46.24632" lon="-0.15411">
        <ele>147.7</ele>
        <time>2025-07-11T11:15:32.003000+02:00</time>
      </trkpt>
      <trkpt lat="46.24634" lon="-0.15416">
        <ele>147.8</ele>
        <time>2025-07-11T11:15:33.003000+02:00</time>
      </trkpt>
      <trkpt lat="46.24639" lon="-0.15427">
        <ele>148</ele>
        <time>2025-07-11T11:15:35.002000+02:00</time>
      </trkpt>
      <trkpt lat="46.24641" lon="-0.15437">
        <ele>148.1</ele>
        <time>2025-07-11T11:15:37.002000+02:00</time>
      </trkpt>
      <trkpt lat="46.24643" lon="-0.15443">
        <ele>148.1</ele>
        <time>2025-07-11T11:15:38.002000+02:00</time>
      </trkpt>
      <trkpt lat="46.24643" lon="-0.15449">
        <ele>148.1</ele>
        <time>2025-07-11T11:15:39.002000+02:00</time>
      </trkpt>
      <trkpt lat="46.24645" lon="-0.15461">
        <ele>148.1</ele>
        <time>2025-07-11T11:15:41.002000+02:00</time>
      </trkpt>
      <trkpt lat="46.24645" lon="-0.15468">
        <ele>148</ele>
        <time>2025-07-11T11:15:42.002000+02:00</time>
      </trkpt>
      <trkpt lat="46.24647" lon="-0.15481">
        <ele>147.8</ele>
        <time>2025-07-11T11:15:44+02:00</time>
      </trkpt>
      <trkpt lat="46.24648" lon="-0.15488">
        <ele>147.6</ele>
        <time>2025-07-11T11:15:45.002000+02:00</time>
      </trkpt>
      <trkpt lat="46.24651" lon="-0.15503">
        <ele>147.4</ele>
        <time>2025-07-11T11:15:47.002000+02:00</time>
      </trkpt>
      <trkpt lat="46.24653" lon="-0.1551">
        <ele>147.5</ele>
        <time>2025-07-11T11:15:48.002000+02:00</time>
      </trkpt>
      <trkpt lat="46.24654" lon="-0.15517">
        <ele>147.5</ele>
        <time>2025-07-11T11:15:49.002000+02:00</time>
      </trkpt>
      <trkpt lat="46.24656" lon="-0.15524">
        <ele>147.6</ele>
        <time>2025-07-11T11:15:50.002000+02:00</time>
      </trkpt>
      <trkpt lat="46.24657" lon="-0.15532">
        <ele>147.5</ele>
        <time>2025-07-11T11:15:51.002000+02:00</time>
      </trkpt>
      <trkpt lat="46.24659" lon="-0.1554">
        <ele>147.3</ele>
        <time>2025-07-11T11:15:52.002000+02:00</time>
      </trkpt>
      <trkpt lat="46.2466" lon="-0.15548">
        <ele>147</ele>
        <time>2025-07-11T11:15:53.002000+02:00</time>
      </trkpt>
      <trkpt lat="46.24662" lon="-0.15556">
        <ele>146.8</ele>
        <time>2025-07-11T11:15:54.002000+02:00</time>
      </trkpt>
      <trkpt lat="46.24663" lon="-0.15564">
        <ele>146.9</ele>
        <time>2025-07-11T11:15:55.002000+02:00</time>
      </trkpt>
      <trkpt lat="46.24667" lon="-0.1558">
        <ele>147</ele>
        <time>2025-07-11T11:15:57.003000+02:00</time>
      </trkpt>
      <trkpt lat="46.2467" lon="-0.15597">
        <ele>146.5</ele>
        <time>2025-07-11T11:15:59.002000+02:00</time>
      </trkpt>
      <trkpt lat="46.24671" lon="-0.15606">
        <ele>146.2</ele>
        <time>2025-07-11T11:16:00.002000+02:00</time>
      </trkpt>
      <trkpt lat="46.24673" lon="-0.15615">
        <ele>145.9</ele>
        <time>2025-07-11T11:16:01.003000+02:00</time>
      </trkpt>
      <trkpt lat="46.24675" lon="-0.15633">
        <ele>145.2</ele>
        <time>2025-07-11T11:16:03.002000+02:00</time>
      </trkpt>
      <trkpt lat="46.24676" lon="-0.15643">
        <ele>145</ele>
        <time>2025-07-11T11:16:04.002000+02:00</time>
      </trkpt>
      <trkpt lat="46.24678" lon="-0.15662">
        <ele>145</ele>
        <time>2025-07-11T11:16:06.002000+02:00</time>
      </trkpt>
      <trkpt lat="46.24679" lon="-0.15672">
        <ele>144.9</ele>
        <time>2025-07-11T11:16:07.002000+02:00</time>
      </trkpt>
      <trkpt lat="46.24679" lon="-0.15682">
        <ele>144.7</ele>
        <time>2025-07-11T11:16:08.003000+02:00</time>
      </trkpt>
      <trkpt lat="46.24678" lon="-0.15692">
        <ele>144.5</ele>
        <time>2025-07-11T11:16:09.003000+02:00</time>
      </trkpt>
      <trkpt lat="46.24678" lon="-0.15713">
        <ele>144.1</ele>
        <time>2025-07-11T11:16:11+02:00</time>
      </trkpt>
      <trkpt lat="46.24677" lon="-0.15723">
        <ele>144</ele>
        <time>2025-07-11T11:16:12.003000+02:00</time>
      </trkpt>
      <trkpt lat="46.24674" lon="-0.15743">
        <ele>143.5</ele>
        <time>2025-07-11T11:16:14.002000+02:00</time>
      </trkpt>
      <trkpt lat="46.24673" lon="-0.15753">
        <ele>143.2</ele>
        <time>2025-07-11T11:16:15.002000+02:00</time>
      </trkpt>
      <trkpt lat="46.24671" lon="-0.15773">
        <ele>143</ele>
        <time>2025-07-11T11:16:17.002000+02:00</time>
      </trkpt>
      <trkpt lat="46.2467" lon="-0.15782">
        <ele>143</ele>
        <time>2025-07-11T11:16:18.003000+02:00</time>
      </trkpt>
      <trkpt lat="46.24668" lon="-0.15799">
        <ele>143</ele>
        <time>2025-07-11T11:16:20.002000+02:00</time>
      </trkpt>
      <trkpt lat="46.24667" lon="-0.15808">
        <ele>143</ele>
        <time>2025-07-11T11:16:21.002000+02:00</time>
      </trkpt>
      <trkpt lat="46.24665" lon="-0.15816">
        <ele>142.9</ele>
        <time>2025-07-11T11:16:22.002000+02:00</time>
      </trkpt>
      <trkpt lat="46.24664" lon="-0.15824">
        <ele>142.9</ele>
        <time>2025-07-11T11:16:23.002000+02:00</time>
      </trkpt>
      <trkpt lat="46.24663" lon="-0.15837">
        <ele>142.9</ele>
        <time>2025-07-11T11:16:25.001000+02:00</time>
      </trkpt>
      <trkpt lat="46.24662" lon="-0.15843">
        <ele>142.8</ele>
        <time>2025-07-11T11:16:26.002000+02:00</time>
      </trkpt>
      <trkpt lat="46.24661" lon="-0.15849">
        <ele>142.8</ele>
        <time>2025-07-11T11:16:27.003000+02:00</time>
      </trkpt>
      <trkpt lat="46.2466" lon="-0.15857">
        <ele>142.8</ele>
        <time>2025-07-11T11:16:29+02:00</time>
      </trkpt>
      <trkpt lat="46.2466" lon="-0.1586">
        <ele>142.8</ele>
        <time>2025-07-11T11:16:30.002000+02:00</time>
      </trkpt>
      <trkpt lat="46.2466" lon="-0.15865">
        <ele>142.7</ele>
        <time>2025-07-11T11:16:32.001000+02:00</time>
      </trkpt>
      <trkpt lat="46.2466" lon="-0.15868">
        <ele>142.7</ele>
        <time>2025-07-11T11:16:33.002000+02:00</time>
      </trkpt>
      <trkpt lat="46.24659" lon="-0.15873">
        <ele>142.7</ele>
        <time>2025-07-11T11:16:35.001000+02:00</time>
      </trkpt>
      <trkpt lat="46.24658" lon="-0.15876">
        <ele>142.7</ele>
        <time>2025-07-11T11:16:36.002000+02:00</time>
      </trkpt>
      <trkpt lat="46.24658" lon="-0.15884">
        <ele>142.7</ele>
        <time>2025-07-11T11:16:38.001000+02:00</time>
      </trkpt>
      <trkpt lat="46.24658" lon="-0.15888">
        <ele>142.7</ele>
        <time>2025-07-11T11:16:39.002000+02:00</time>
      </trkpt>
      <trkpt lat="46.24657" lon="-0.15897">
        <ele>142.7</ele>
        <time>2025-07-11T11:16:41.001000+02:00</time>
      </trkpt>
      <trkpt lat="46.24657" lon="-0.15902">
        <ele>142.7</ele>
        <time>2025-07-11T11:16:42.001000+02:00</time>
      </trkpt>
      <trkpt lat="46.24657" lon="-0.15906">
        <ele>142.7</ele>
        <time>2025-07-11T11:16:43.001000+02:00</time>
      </trkpt>
      <trkpt lat="46.24656" lon="-0.15916">
        <ele>142.6</ele>
        <time>2025-07-11T11:16:45.003000+02:00</time>
      </trkpt>
      <trkpt lat="46.24655" lon="-0.15928">
        <ele>142.6</ele>
        <time>2025-07-11T11:16:47+02:00</time>
      </trkpt>
      <trkpt lat="46.24655" lon="-0.15934">
        <ele>142.6</ele>
        <time>2025-07-11T11:16:48.001000+02:00</time>
      </trkpt>
      <trkpt lat="46.24654" lon="-0.1594">
        <ele>142.5</ele>
        <time>2025-07-11T11:16:49.001000+02:00</time>
      </trkpt>
      <trkpt lat="46.24653" lon="-0.15945">
        <ele>142.5</ele>
        <time>2025-07-11T11:16:50.003000+02:00</time>
      </trkpt>
      <trkpt lat="46.24653" lon="-0.15955">
        <ele>142.9</ele>
        <time>2025-07-11T11:16:52.003000+02:00</time>
      </trkpt>
      <trkpt lat="46.24652" lon="-0.15965">
        <ele>143.2</ele>
        <time>2025-07-11T11:16:54.003000+02:00</time>
      </trkpt>
      <trkpt lat="46.2465" lon="-0.15976">
        <ele>143.5</ele>
        <time>2025-07-11T11:16:56.003000+02:00</time>
      </trkpt>
      <trkpt lat="46.24649" lon="-0.15986">
        <ele>143.7</ele>
        <time>2025-07-11T11:16:58+02:00</time>
      </trkpt>
      <trkpt lat="46.24648" lon="-0.1599">
        <ele>143.8</ele>
        <time>2025-07-11T11:16:59.001000+02:00</time>
      </trkpt>
      <trkpt lat="46.24646" lon="-0.15995">
        <ele>143.9</ele>
        <time>2025-07-11T11:17:00.001000+02:00</time>
      </trkpt>
      <trkpt lat="46.24646" lon="-0.15999">
        <ele>144</ele>
        <time>2025-07-11T11:17:01.002000+02:00</time>
      </trkpt>
      <trkpt lat="46.24645" lon="-0.16003">
        <ele>144</ele>
        <time>2025-07-11T11:17:02.002000+02:00</time>
      </trkpt>
      <trkpt lat="46.24645" lon="-0.16007">
        <ele>144</ele>
        <time>2025-07-11T11:17:03.002000+02:00</time>
      </trkpt>
      <trkpt lat="46.24643" lon="-0.16016">
        <ele>144</ele>
        <time>2025-07-11T11:17:05.002000+02:00</time>
      </trkpt>
      <trkpt lat="46.24642" lon="-0.16025">
        <ele>144</ele>
        <time>2025-07-11T11:17:07.001000+02:00</time>
      </trkpt>
      <trkpt lat="46.24641" lon="-0.16029">
        <ele>144.1</ele>
        <time>2025-07-11T11:17:08.001000+02:00</time>
      </trkpt>
      <trkpt lat="46.2464" lon="-0.16033">
        <ele>144.2</ele>
        <time>2025-07-11T11:17:09.003000+02:00</time>
      </trkpt>
      <trkpt lat="46.24639" lon="-0.1604">
        <ele>144.5</ele>
        <time>2025-07-11T11:17:11.001000+02:00</time>
      </trkpt>
      <trkpt lat="46.24636" lon="-0.16048">
        <ele>144.7</ele>
        <time>2025-07-11T11:17:13+02:00</time>
      </trkpt>
      <trkpt lat="46.24635" lon="-0.16052">
        <ele>144.9</ele>
        <time>2025-07-11T11:17:14.002000+02:00</time>
      </trkpt>
      <trkpt lat="46.24634" lon="-0.16056">
        <ele>145</ele>
        <time>2025-07-11T11:17:15.003000+02:00</time>
      </trkpt>
      <trkpt lat="46.24632" lon="-0.16064">
        <ele>145</ele>
        <time>2025-07-11T11:17:17.001000+02:00</time>
      </trkpt>
      <trkpt lat="46.24632" lon="-0.16068">
        <ele>145</ele>
        <time>2025-07-11T11:17:18.004000+02:00</time>
      </trkpt>
      <trkpt lat="46.24631" lon="-0.16074">
        <ele>145</ele>
        <time>2025-07-11T11:17:20.002000+02:00</time>
      </trkpt>
      <trkpt lat="46.2463" lon="-0.16078">
        <ele>145</ele>
        <time>2025-07-11T11:17:21.003000+02:00</time>
      </trkpt>
      <trkpt lat="46.24628" lon="-0.16085">
        <ele>145.1</ele>
        <time>2025-07-11T11:17:23+02:00</time>
      </trkpt>
      <trkpt lat="46.24627" lon="-0.16089">
        <ele>145.2</ele>
        <time>2025-07-11T11:17:24.002000+02:00</time>
      </trkpt>
      <trkpt lat="46.24626" lon="-0.16097">
        <ele>145.5</ele>
        <time>2025-07-11T11:17:26.002000+02:00</time>
      </trkpt>
      <trkpt lat="46.24625" lon="-0.16101">
        <ele>145.6</ele>
        <time>2025-07-11T11:17:27.002000+02:00</time>
      </trkpt>
      <trkpt lat="46.24623" lon="-0.16108">
        <ele>145.9</ele>
        <time>2025-07-11T11:17:29.002000+02:00</time>
      </trkpt>
      <trkpt lat="46.24622" lon="-0.16111">
        <ele>146</ele>
        <time>2025-07-11T11:17:30.003000+02:00</time>
      </trkpt>
      <trkpt lat="46.2462" lon="-0.16119">
        <ele>146</ele>
        <time>2025-07-11T11:17:32.002000+02:00</time>
      </trkpt>
      <trkpt lat="46.24619" lon="-0.16123">
        <ele>146</ele>
        <time>2025-07-11T11:17:33.002000+02:00</time>
      </trkpt>
      <trkpt lat="46.24617" lon="-0.1613">
        <ele>146</ele>
        <time>2025-07-11T11:17:35.002000+02:00</time>
      </trkpt>
      <trkpt lat="46.24615" lon="-0.16136">
        <ele>146</ele>
        <time>2025-07-11T11:17:37.001000+02:00</time>
      </trkpt>
      <trkpt lat="46.24614" lon="-0.16139">
        <ele>146</ele>
        <time>2025-07-11T11:17:38.002000+02:00</time>
      </trkpt>
      <trkpt lat="46.24613" lon="-0.16143">
        <ele>146</ele>
        <time>2025-07-11T11:17:39.002000+02:00</time>
      </trkpt>
      <trkpt lat="46.24612" lon="-0.1615">
        <ele>146</ele>
        <time>2025-07-11T11:17:41.002000+02:00</time>
      </trkpt>
      <trkpt lat="46.24611" lon="-0.16155">
        <ele>146</ele>
        <time>2025-07-11T11:17:43.002000+02:00</time>
      </trkpt>
      <trkpt lat="46.24611" lon="-0.16156">
        <ele>146</ele>
        <time>2025-07-11T11:17:44.003000+02:00</time>
      </trkpt>
      <trkpt lat="46.24611" lon="-0.16156">
        <ele>146</ele>
        <time>2025-07-11T11:17:46.002000+02:00</time>
      </trkpt>
      <trkpt lat="46.24611" lon="-0.16156">
        <ele>146</ele>
        <time>2025-07-11T11:17:47.006000+02:00</time>
      </trkpt>
      <trkpt lat="46.24611" lon="-0.16156">
        <ele>146</ele>
        <time>2025-07-11T11:17:49.002000+02:00</time>
      </trkpt>
      <trkpt lat="46.24609" lon="-0.16163">
        <ele>146</ele>
        <time>2025-07-11T11:18:50+02:00</time>
      </trkpt>
      <trkpt lat="46.24608" lon="-0.16166">
        <ele>146</ele>
        <time>2025-07-11T11:18:51+02:00</time>
      </trkpt>
      <trkpt lat="46.24608" lon="-0.1617">
        <ele>146.1</ele>
        <time>2025-07-11T11:18:52+02:00</time>
      </trkpt>
      <trkpt lat="46.24607" lon="-0.16173">
        <ele>146.2</ele>
        <time>2025-07-11T11:18:53.001000+02:00</time>
      </trkpt>
      <trkpt lat="46.24606" lon="-0.16181">
        <ele>146.4</ele>
        <time>2025-07-11T11:18:55+02:00</time>
      </trkpt>
      <trkpt lat="46.24604" lon="-0.16188">
        <ele>146.6</ele>
        <time>2025-07-11T11:18:57+02:00</time>
      </trkpt>
      <trkpt lat="46.24603" lon="-0.16191">
        <ele>146.6</ele>
        <time>2025-07-11T11:18:58+02:00</time>
      </trkpt>
      <trkpt lat="46.24603" lon="-0.16194">
        <ele>146.7</ele>
        <time>2025-07-11T11:18:59+02:00</time>
      </trkpt>
      <trkpt lat="46.24602" lon="-0.16197">
        <ele>146.7</ele>
        <time>2025-07-11T11:19:00+02:00</time>
      </trkpt>
      <trkpt lat="46.24601" lon="-0.162">
        <ele>146.7</ele>
        <time>2025-07-11T11:19:01+02:00</time>
      </trkpt>
      <trkpt lat="46.24601" lon="-0.16202">
        <ele>146.7</ele>
        <time>2025-07-11T11:19:02+02:00</time>
      </trkpt>
      <trkpt lat="46.246" lon="-0.16205">
        <ele>146.8</ele>
        <time>2025-07-11T11:19:03.001000+02:00</time>
      </trkpt>
      <trkpt lat="46.24598" lon="-0.16211">
        <ele>146.8</ele>
        <time>2025-07-11T11:19:04.999000+02:00</time>
      </trkpt>
      <trkpt lat="46.24597" lon="-0.16214">
        <ele>146.8</ele>
        <time>2025-07-11T11:19:05.999000+02:00</time>
      </trkpt>
      <trkpt lat="46.24596" lon="-0.16217">
        <ele>146.9</ele>
        <time>2025-07-11T11:19:07+02:00</time>
      </trkpt>
      <trkpt lat="46.24595" lon="-0.1622">
        <ele>147</ele>
        <time>2025-07-11T11:19:08+02:00</time>
      </trkpt>
      <trkpt lat="46.24595" lon="-0.16223">
        <ele>147</ele>
        <time>2025-07-11T11:19:09.001000+02:00</time>
      </trkpt>
      <trkpt lat="46.24594" lon="-0.16226">
        <ele>147</ele>
        <time>2025-07-11T11:19:10.004000+02:00</time>
      </trkpt>
      <trkpt lat="46.24592" lon="-0.16231">
        <ele>147</ele>
        <time>2025-07-11T11:19:12+02:00</time>
      </trkpt>
      <trkpt lat="46.24591" lon="-0.16234">
        <ele>147</ele>
        <time>2025-07-11T11:19:13+02:00</time>
      </trkpt>
      <trkpt lat="46.2459" lon="-0.16238">
        <ele>147</ele>
        <time>2025-07-11T11:19:14+02:00</time>
      </trkpt>
      <trkpt lat="46.24589" lon="-0.16242">
        <ele>147</ele>
        <time>2025-07-11T11:19:15.001000+02:00</time>
      </trkpt>
      <trkpt lat="46.24588" lon="-0.16245">
        <ele>147</ele>
        <time>2025-07-11T11:19:16.001000+02:00</time>
      </trkpt>
      <trkpt lat="46.24587" lon="-0.16249">
        <ele>147</ele>
        <time>2025-07-11T11:19:17.001000+02:00</time>
      </trkpt>
      <trkpt lat="46.24586" lon="-0.16253">
        <ele>147</ele>
        <time>2025-07-11T11:19:18.001000+02:00</time>
      </trkpt>
      <trkpt lat="46.24585" lon="-0.16258">
        <ele>147</ele>
        <time>2025-07-11T11:19:19.001000+02:00</time>
      </trkpt>
      <trkpt lat="46.24584" lon="-0.16262">
        <ele>147</ele>
        <time>2025-07-11T11:19:20.001000+02:00</time>
      </trkpt>
      <trkpt lat="46.24583" lon="-0.16266">
        <ele>147</ele>
        <time>2025-07-11T11:19:21.001000+02:00</time>
      </trkpt>
      <trkpt lat="46.24582" lon="-0.16271">
        <ele>147</ele>
        <time>2025-07-11T11:19:22.001000+02:00</time>
      </trkpt>
      <trkpt lat="46.2458" lon="-0.16279">
        <ele>147</ele>
        <time>2025-07-11T11:19:24+02:00</time>
      </trkpt>
      <trkpt lat="46.2458" lon="-0.16283">
        <ele>147.2</ele>
        <time>2025-07-11T11:19:25+02:00</time>
      </trkpt>
      <trkpt lat="46.24579" lon="-0.16287">
        <ele>147.3</ele>
        <time>2025-07-11T11:19:26.001000+02:00</time>
      </trkpt>
      <trkpt lat="46.24577" lon="-0.16296">
        <ele>147.5</ele>
        <time>2025-07-11T11:19:28+02:00</time>
      </trkpt>
      <trkpt lat="46.24575" lon="-0.163">
        <ele>147.6</ele>
        <time>2025-07-11T11:19:29+02:00</time>
      </trkpt>
      <trkpt lat="46.24574" lon="-0.16305">
        <ele>147.6</ele>
        <time>2025-07-11T11:19:30.001000+02:00</time>
      </trkpt>
      <trkpt lat="46.24573" lon="-0.16309">
        <ele>147.7</ele>
        <time>2025-07-11T11:19:31.001000+02:00</time>
      </trkpt>
      <trkpt lat="46.24571" lon="-0.16318">
        <ele>147.7</ele>
        <time>2025-07-11T11:19:33.001000+02:00</time>
      </trkpt>
      <trkpt lat="46.24569" lon="-0.16322">
        <ele>147.8</ele>
        <time>2025-07-11T11:19:34.002000+02:00</time>
      </trkpt>
      <trkpt lat="46.24567" lon="-0.16331">
        <ele>147.9</ele>
        <time>2025-07-11T11:19:36.001000+02:00</time>
      </trkpt>
      <trkpt lat="46.24565" lon="-0.16335">
        <ele>148</ele>
        <time>2025-07-11T11:19:37.002000+02:00</time>
      </trkpt>
      <trkpt lat="46.24563" lon="-0.16344">
        <ele>148</ele>
        <time>2025-07-11T11:19:39.001000+02:00</time>
      </trkpt>
      <trkpt lat="46.24562" lon="-0.16348">
        <ele>148</ele>
        <time>2025-07-11T11:19:40.001000+02:00</time>
      </trkpt>
      <trkpt lat="46.24559" lon="-0.16356">
        <ele>148</ele>
        <time>2025-07-11T11:19:42+02:00</time>
      </trkpt>
      <trkpt lat="46.24558" lon="-0.1636">
        <ele>148</ele>
        <time>2025-07-11T11:19:43+02:00</time>
      </trkpt>
      <trkpt lat="46.24556" lon="-0.16364">
        <ele>148</ele>
        <time>2025-07-11T11:19:44.001000+02:00</time>
      </trkpt>
      <trkpt lat="46.24554" lon="-0.16368">
        <ele>148</ele>
        <time>2025-07-11T11:19:45.001000+02:00</time>
      </trkpt>
      <trkpt lat="46.24551" lon="-0.16377">
        <ele>147.9</ele>
        <time>2025-07-11T11:19:47.001000+02:00</time>
      </trkpt>
      <trkpt lat="46.2455" lon="-0.16381">
        <ele>147.9</ele>
        <time>2025-07-11T11:19:48.001000+02:00</time>
      </trkpt>
      <trkpt lat="46.24546" lon="-0.16389">
        <ele>148</ele>
        <time>2025-07-11T11:19:50.001000+02:00</time>
      </trkpt>
      <trkpt lat="46.24544" lon="-0.16396">
        <ele>148</ele>
        <time>2025-07-11T11:19:52+02:00</time>
      </trkpt>
      <trkpt lat="46.24544" lon="-0.16404">
        <ele>148</ele>
        <time>2025-07-11T11:19:54+02:00</time>
      </trkpt>
      <trkpt lat="46.24544" lon="-0.16408">
        <ele>148</ele>
        <time>2025-07-11T11:19:55+02:00</time>
      </trkpt>
      <trkpt lat="46.24547" lon="-0.16411">
        <ele>148</ele>
        <time>2025-07-11T11:19:56+02:00</time>
      </trkpt>
      <trkpt lat="46.24552" lon="-0.16405">
        <ele>148</ele>
        <time>2025-07-11T11:19:57.001000+02:00</time>
      </trkpt>
      <trkpt lat="46.24558" lon="-0.16402">
        <ele>148</ele>
        <time>2025-07-11T11:19:59.001000+02:00</time>
      </trkpt>
      <trkpt lat="46.24565" lon="-0.16404">
        <ele>148</ele>
        <time>2025-07-11T11:20:01+02:00</time>
      </trkpt>
      <trkpt lat="46.24568" lon="-0.16407">
        <ele>148</ele>
        <time>2025-07-11T11:20:02.001000+02:00</time>
      </trkpt>
      <trkpt lat="46.2457" lon="-0.1641">
        <ele>148</ele>
        <time>2025-07-11T11:20:03.002000+02:00</time>
      </trkpt>
      <trkpt lat="46.24576" lon="-0.16415">
        <ele>148</ele>
        <time>2025-07-11T11:20:05+02:00</time>
      </trkpt>
      <trkpt lat="46.24579" lon="-0.16417">
        <ele>148</ele>
        <time>2025-07-11T11:20:06+02:00</time>
      </trkpt>
      <trkpt lat="46.24582" lon="-0.1642">
        <ele>148</ele>
        <time>2025-07-11T11:20:07.001000+02:00</time>
      </trkpt>
      <trkpt lat="46.24588" lon="-0.16425">
        <ele>148</ele>
        <time>2025-07-11T11:20:09.001000+02:00</time>
      </trkpt>
      <trkpt lat="46.24591" lon="-0.16427">
        <ele>148</ele>
        <time>2025-07-11T11:20:10.002000+02:00</time>
      </trkpt>
      <trkpt lat="46.24597" lon="-0.16431">
        <ele>148</ele>
        <time>2025-07-11T11:20:12+02:00</time>
      </trkpt>
      <trkpt lat="46.246" lon="-0.16433">
        <ele>148</ele>
        <time>2025-07-11T11:20:13+02:00</time>
      </trkpt>
      <trkpt lat="46.24603" lon="-0.16436">
        <ele>148</ele>
        <time>2025-07-11T11:20:14+02:00</time>
      </trkpt>
      <trkpt lat="46.24607" lon="-0.16438">
        <ele>148</ele>
        <time>2025-07-11T11:20:15.001000+02:00</time>
      </trkpt>
      <trkpt lat="46.24613" lon="-0.16442">
        <ele>148</ele>
        <time>2025-07-11T11:20:17.001000+02:00</time>
      </trkpt>
      <trkpt lat="46.2462" lon="-0.16446">
        <ele>147.9</ele>
        <time>2025-07-11T11:20:19+02:00</time>
      </trkpt>
      <trkpt lat="46.24623" lon="-0.16448">
        <ele>147.9</ele>
        <time>2025-07-11T11:20:20+02:00</time>
      </trkpt>
      <trkpt lat="46.24626" lon="-0.1645">
        <ele>147.8</ele>
        <time>2025-07-11T11:20:21.001000+02:00</time>
      </trkpt>
      <trkpt lat="46.24633" lon="-0.16454">
        <ele>147.7</ele>
        <time>2025-07-11T11:20:23.001000+02:00</time>
      </trkpt>
      <trkpt lat="46.24636" lon="-0.16456">
        <ele>147.6</ele>
        <time>2025-07-11T11:20:24.001000+02:00</time>
      </trkpt>
      <trkpt lat="46.24644" lon="-0.1646">
        <ele>147.5</ele>
        <time>2025-07-11T11:20:26.001000+02:00</time>
      </trkpt>
      <trkpt lat="46.24647" lon="-0.16463">
        <ele>147.4</ele>
        <time>2025-07-11T11:20:27.001000+02:00</time>
      </trkpt>
      <trkpt lat="46.2465" lon="-0.16465">
        <ele>147.5</ele>
        <time>2025-07-11T11:20:28.001000+02:00</time>
      </trkpt>
      <trkpt lat="46.24653" lon="-0.16467">
        <ele>147.5</ele>
        <time>2025-07-11T11:20:29.001000+02:00</time>
      </trkpt>
      <trkpt lat="46.24655" lon="-0.16469">
        <ele>147.6</ele>
        <time>2025-07-11T11:20:30.001000+02:00</time>
      </trkpt>
      <trkpt lat="46.24659" lon="-0.1647">
        <ele>147.7</ele>
        <time>2025-07-11T11:20:31.002000+02:00</time>
      </trkpt>
      <trkpt lat="46.24666" lon="-0.16474">
        <ele>147.9</ele>
        <time>2025-07-11T11:20:33+02:00</time>
      </trkpt>
      <trkpt lat="46.24669" lon="-0.16477">
        <ele>147.8</ele>
        <time>2025-07-11T11:20:34.001000+02:00</time>
      </trkpt>
      <trkpt lat="46.24672" lon="-0.16479">
        <ele>147.7</ele>
        <time>2025-07-11T11:20:35.001000+02:00</time>
      </trkpt>
      <trkpt lat="46.24678" lon="-0.16484">
        <ele>147.5</ele>
        <time>2025-07-11T11:20:37+02:00</time>
      </trkpt>
      <trkpt lat="46.24682" lon="-0.16486">
        <ele>147.5</ele>
        <time>2025-07-11T11:20:38.001000+02:00</time>
      </trkpt>
      <trkpt lat="46.24685" lon="-0.16488">
        <ele>147.5</ele>
        <time>2025-07-11T11:20:39.002000+02:00</time>
      </trkpt>
      <trkpt lat="46.24691" lon="-0.16493">
        <ele>147.7</ele>
        <time>2025-07-11T11:20:41.001000+02:00</time>
      </trkpt>
      <trkpt lat="46.24695" lon="-0.16495">
        <ele>147.8</ele>
        <time>2025-07-11T11:20:42.001000+02:00</time>
      </trkpt>
      <trkpt lat="46.24698" lon="-0.16497">
        <ele>147.9</ele>
        <time>2025-07-11T11:20:43.001000+02:00</time>
      </trkpt>
      <trkpt lat="46.24702" lon="-0.16499">
        <ele>148</ele>
        <time>2025-07-11T11:20:44.090000+02:00</time>
      </trkpt>
      <trkpt lat="46.24709" lon="-0.16503">
        <ele>148</ele>
        <time>2025-07-11T11:20:46.002000+02:00</time>
      </trkpt>
      <trkpt lat="46.24716" lon="-0.16506">
        <ele>148</ele>
        <time>2025-07-11T11:20:48.001000+02:00</time>
      </trkpt>
      <trkpt lat="46.24719" lon="-0.16508">
        <ele>148</ele>
        <time>2025-07-11T11:20:49.001000+02:00</time>
      </trkpt>
      <trkpt lat="46.24723" lon="-0.16511">
        <ele>148</ele>
        <time>2025-07-11T11:20:50.001000+02:00</time>
      </trkpt>
      <trkpt lat="46.24726" lon="-0.16513">
        <ele>148</ele>
        <time>2025-07-11T11:20:51.003000+02:00</time>
      </trkpt>
      <trkpt lat="46.24733" lon="-0.16517">
        <ele>148</ele>
        <time>2025-07-11T11:20:53.001000+02:00</time>
      </trkpt>
      <trkpt lat="46.24736" lon="-0.16519">
        <ele>148</ele>
        <time>2025-07-11T11:20:54.001000+02:00</time>
      </trkpt>
      <trkpt lat="46.24739" lon="-0.16522">
        <ele>148</ele>
        <time>2025-07-11T11:20:55.001000+02:00</time>
      </trkpt>
      <trkpt lat="46.24741" lon="-0.16524">
        <ele>148</ele>
        <time>2025-07-11T11:20:56.001000+02:00</time>
      </trkpt>
      <trkpt lat="46.24744" lon="-0.16527">
        <ele>148</ele>
        <time>2025-07-11T11:20:57.002000+02:00</time>
      </trkpt>
      <trkpt lat="46.24751" lon="-0.16531">
        <ele>148</ele>
        <time>2025-07-11T11:20:59.001000+02:00</time>
      </trkpt>
      <trkpt lat="46.24755" lon="-0.16532">
        <ele>148</ele>
        <time>2025-07-11T11:21:00.001000+02:00</time>
      </trkpt>
      <trkpt lat="46.24759" lon="-0.16533">
        <ele>148</ele>
        <time>2025-07-11T11:21:01.005000+02:00</time>
      </trkpt>
      <trkpt lat="46.24767" lon="-0.16533">
        <ele>148</ele>
        <time>2025-07-11T11:21:03.001000+02:00</time>
      </trkpt>
      <trkpt lat="46.24775" lon="-0.16531">
        <ele>148</ele>
        <time>2025-07-11T11:21:05.001000+02:00</time>
      </trkpt>
      <trkpt lat="46.24783" lon="-0.16529">
        <ele>148</ele>
        <time>2025-07-11T11:21:07+02:00</time>
      </trkpt>
      <trkpt lat="46.24787" lon="-0.16529">
        <ele>148</ele>
        <time>2025-07-11T11:21:08.001000+02:00</time>
      </trkpt>
      <trkpt lat="46.24791" lon="-0.16528">
        <ele>148</ele>
        <time>2025-07-11T11:21:09.001000+02:00</time>
      </trkpt>
      <trkpt lat="46.24794" lon="-0.16527">
        <ele>148</ele>
        <time>2025-07-11T11:21:10.001000+02:00</time>
      </trkpt>
      <trkpt lat="46.24802" lon="-0.16525">
        <ele>148</ele>
        <time>2025-07-11T11:21:12.001000+02:00</time>
      </trkpt>
      <trkpt lat="46.24809" lon="-0.16522">
        <ele>148</ele>
        <time>2025-07-11T11:21:14.001000+02:00</time>
      </trkpt>
      <trkpt lat="46.24815" lon="-0.16518">
        <ele>148</ele>
        <time>2025-07-11T11:21:16+02:00</time>
      </trkpt>
      <trkpt lat="46.24819" lon="-0.16515">
        <ele>148</ele>
        <time>2025-07-11T11:21:18.001000+02:00</time>
      </trkpt>
      <trkpt lat="46.24821" lon="-0.16514">
        <ele>148</ele>
        <time>2025-07-11T11:21:19.001000+02:00</time>
      </trkpt>
      <trkpt lat="46.24825" lon="-0.16512">
        <ele>148</ele>
        <time>2025-07-11T11:21:21.002000+02:00</time>
      </trkpt>
      <trkpt lat="46.2483" lon="-0.16512">
        <ele>148</ele>
        <time>2025-07-11T11:21:23.001000+02:00</time>
      </trkpt>
      <trkpt lat="46.24833" lon="-0.16511">
        <ele>148</ele>
        <time>2025-07-11T11:21:24.001000+02:00</time>
      </trkpt>
      <trkpt lat="46.24836" lon="-0.16511">
        <ele>148</ele>
        <time>2025-07-11T11:21:25.001000+02:00</time>
      </trkpt>
      <trkpt lat="46.2484" lon="-0.1651">
        <ele>147.9</ele>
        <time>2025-07-11T11:21:26.001000+02:00</time>
      </trkpt>
      <trkpt lat="46.24843" lon="-0.16509">
        <ele>147.9</ele>
        <time>2025-07-11T11:21:27.001000+02:00</time>
      </trkpt>
      <trkpt lat="46.24846" lon="-0.16508">
        <ele>147.9</ele>
        <time>2025-07-11T11:21:28.001000+02:00</time>
      </trkpt>
      <trkpt lat="46.24849" lon="-0.16507">
        <ele>147.9</ele>
        <time>2025-07-11T11:21:29.003000+02:00</time>
      </trkpt>
      <trkpt lat="46.2485" lon="-0.16506">
        <ele>147.9</ele>
        <time>2025-07-11T11:21:30.006000+02:00</time>
      </trkpt>
      <trkpt lat="46.24854" lon="-0.16501">
        <ele>148</ele>
        <time>2025-07-11T11:21:32.001000+02:00</time>
      </trkpt>
      <trkpt lat="46.24856" lon="-0.16499">
        <ele>148</ele>
        <time>2025-07-11T11:21:33.002000+02:00</time>
      </trkpt>
      <trkpt lat="46.24859" lon="-0.16498">
        <ele>148</ele>
        <time>2025-07-11T11:21:34.002000+02:00</time>
      </trkpt>
      <trkpt lat="46.24861" lon="-0.16496">
        <ele>148</ele>
        <time>2025-07-11T11:21:35.002000+02:00</time>
      </trkpt>
      <trkpt lat="46.24864" lon="-0.16494">
        <ele>147.9</ele>
        <time>2025-07-11T11:21:36.002000+02:00</time>
      </trkpt>
      <trkpt lat="46.24867" lon="-0.16493">
        <ele>147.9</ele>
        <time>2025-07-11T11:21:37.003000+02:00</time>
      </trkpt>
      <trkpt lat="46.24873" lon="-0.16491">
        <ele>147.7</ele>
        <time>2025-07-11T11:21:39+02:00</time>
      </trkpt>
      <trkpt lat="46.24876" lon="-0.16491">
        <ele>147.6</ele>
        <time>2025-07-11T11:21:40.001000+02:00</time>
      </trkpt>
      <trkpt lat="46.2488" lon="-0.16491">
        <ele>147.5</ele>
        <time>2025-07-11T11:21:41.001000+02:00</time>
      </trkpt>
      <trkpt lat="46.24883" lon="-0.16492">
        <ele>147.4</ele>
        <time>2025-07-11T11:21:42.001000+02:00</time>
      </trkpt>
      <trkpt lat="46.24886" lon="-0.16494">
        <ele>147.3</ele>
        <time>2025-07-11T11:21:43.001000+02:00</time>
      </trkpt>
      <trkpt lat="46.24889" lon="-0.16495">
        <ele>147.2</ele>
        <time>2025-07-11T11:21:44.001000+02:00</time>
      </trkpt>
      <trkpt lat="46.24894" lon="-0.16498">
        <ele>147.1</ele>
        <time>2025-07-11T11:21:45.001000+02:00</time>
      </trkpt>
      <trkpt lat="46.24901" lon="-0.165">
        <ele>147</ele>
        <time>2025-07-11T11:21:47+02:00</time>
      </trkpt>
      <trkpt lat="46.24904" lon="-0.16502">
        <ele>147</ele>
        <time>2025-07-11T11:21:48+02:00</time>
      </trkpt>
      <trkpt lat="46.24907" lon="-0.16504">
        <ele>146.9</ele>
        <time>2025-07-11T11:21:49.001000+02:00</time>
      </trkpt>
      <trkpt lat="46.2491" lon="-0.16505">
        <ele>146.9</ele>
        <time>2025-07-11T11:21:50.001000+02:00</time>
      </trkpt>
      <trkpt lat="46.24912" lon="-0.16507">
        <ele>146.8</ele>
        <time>2025-07-11T11:21:51.001000+02:00</time>
      </trkpt>
      <trkpt lat="46.24919" lon="-0.1651">
        <ele>146.5</ele>
        <time>2025-07-11T11:21:53+02:00</time>
      </trkpt>
      <trkpt lat="46.24922" lon="-0.16511">
        <ele>146.4</ele>
        <time>2025-07-11T11:21:54.001000+02:00</time>
      </trkpt>
      <trkpt lat="46.24925" lon="-0.16511">
        <ele>146.3</ele>
        <time>2025-07-11T11:21:55.001000+02:00</time>
      </trkpt>
      <trkpt lat="46.24928" lon="-0.16512">
        <ele>146.1</ele>
        <time>2025-07-11T11:21:56.001000+02:00</time>
      </trkpt>
      <trkpt lat="46.24932" lon="-0.16514">
        <ele>146</ele>
        <time>2025-07-11T11:21:57.001000+02:00</time>
      </trkpt>
      <trkpt lat="46.24934" lon="-0.16514">
        <ele>145.9</ele>
        <time>2025-07-11T11:21:58.002000+02:00</time>
      </trkpt>
      <trkpt lat="46.24937" lon="-0.16514">
        <ele>145.8</ele>
        <time>2025-07-11T11:21:59.002000+02:00</time>
      </trkpt>
      <trkpt lat="46.2494" lon="-0.16514">
        <ele>145.7</ele>
        <time>2025-07-11T11:22:01.001000+02:00</time>
      </trkpt>
      <trkpt lat="46.24942" lon="-0.16514">
        <ele>145.6</ele>
        <time>2025-07-11T11:22:02.002000+02:00</time>
      </trkpt>
      <trkpt lat="46.24945" lon="-0.16514">
        <ele>145.5</ele>
        <time>2025-07-11T11:22:03.002000+02:00</time>
      </trkpt>
      <trkpt lat="46.2495" lon="-0.16515">
        <ele>145.3</ele>
        <time>2025-07-11T11:22:05.001000+02:00</time>
      </trkpt>
      <trkpt lat="46.24952" lon="-0.16515">
        <ele>145.2</ele>
        <time>2025-07-11T11:22:06.001000+02:00</time>
      </trkpt>
      <trkpt lat="46.24955" lon="-0.16515">
        <ele>145.1</ele>
        <time>2025-07-11T11:22:07.001000+02:00</time>
      </trkpt>
      <trkpt lat="46.2496" lon="-0.16517">
        <ele>144.8</ele>
        <time>2025-07-11T11:22:09+02:00</time>
      </trkpt>
      <trkpt lat="46.24962" lon="-0.16518">
        <ele>144.7</ele>
        <time>2025-07-11T11:22:10.001000+02:00</time>
      </trkpt>
      <trkpt lat="46.24964" lon="-0.16522">
        <ele>144.5</ele>
        <time>2025-07-11T11:22:11.001000+02:00</time>
      </trkpt>
      <trkpt lat="46.24967" lon="-0.16524">
        <ele>144.3</ele>
        <time>2025-07-11T11:22:12.001000+02:00</time>
      </trkpt>
      <trkpt lat="46.2497" lon="-0.16525">
        <ele>144.2</ele>
        <time>2025-07-11T11:22:13.001000+02:00</time>
      </trkpt>
      <trkpt lat="46.24973" lon="-0.16526">
        <ele>144.1</ele>
        <time>2025-07-11T11:22:14.002000+02:00</time>
      </trkpt>
      <trkpt lat="46.24975" lon="-0.16528">
        <ele>143.9</ele>
        <time>2025-07-11T11:22:15.002000+02:00</time>
      </trkpt>
      <trkpt lat="46.24978" lon="-0.16531">
        <ele>143.7</ele>
        <time>2025-07-11T11:22:17.001000+02:00</time>
      </trkpt>
      <trkpt lat="46.24979" lon="-0.16532">
        <ele>143.6</ele>
        <time>2025-07-11T11:22:18.002000+02:00</time>
      </trkpt>
      <trkpt lat="46.24982" lon="-0.16534">
        <ele>143.4</ele>
        <time>2025-07-11T11:22:20.001000+02:00</time>
      </trkpt>
      <trkpt lat="46.24984" lon="-0.16534">
        <ele>143.3</ele>
        <time>2025-07-11T11:22:21.002000+02:00</time>
      </trkpt>
      <trkpt lat="46.24987" lon="-0.16535">
        <ele>143.2</ele>
        <time>2025-07-11T11:22:22.002000+02:00</time>
      </trkpt>
      <trkpt lat="46.24991" lon="-0.16538">
        <ele>142.9</ele>
        <time>2025-07-11T11:22:24.001000+02:00</time>
      </trkpt>
      <trkpt lat="46.24993" lon="-0.1654">
        <ele>142.8</ele>
        <time>2025-07-11T11:22:25.002000+02:00</time>
      </trkpt>
      <trkpt lat="46.24995" lon="-0.16542">
        <ele>142.7</ele>
        <time>2025-07-11T11:22:26.004000+02:00</time>
      </trkpt>
      <trkpt lat="46.25001" lon="-0.16547">
        <ele>142.3</ele>
        <time>2025-07-11T11:22:28+02:00</time>
      </trkpt>
      <trkpt lat="46.25004" lon="-0.16549">
        <ele>141.9</ele>
        <time>2025-07-11T11:22:29.003000+02:00</time>
      </trkpt>
      <trkpt lat="46.25011" lon="-0.16555">
        <ele>141.2</ele>
        <time>2025-07-11T11:22:31.001000+02:00</time>
      </trkpt>
      <trkpt lat="46.25014" lon="-0.16557">
        <ele>140.9</ele>
        <time>2025-07-11T11:22:32.001000+02:00</time>
      </trkpt>
      <trkpt lat="46.25018" lon="-0.16558">
        <ele>140.6</ele>
        <time>2025-07-11T11:22:33.001000+02:00</time>
      </trkpt>
      <trkpt lat="46.25021" lon="-0.1656">
        <ele>140.3</ele>
        <time>2025-07-11T11:22:34.001000+02:00</time>
      </trkpt>
      <trkpt lat="46.25024" lon="-0.16563">
        <ele>139.9</ele>
        <time>2025-07-11T11:22:35.001000+02:00</time>
      </trkpt>
      <trkpt lat="46.25027" lon="-0.16566">
        <ele>139.7</ele>
        <time>2025-07-11T11:22:36.001000+02:00</time>
      </trkpt>
      <trkpt lat="46.2503" lon="-0.16568">
        <ele>139.5</ele>
        <time>2025-07-11T11:22:37.001000+02:00</time>
      </trkpt>
      <trkpt lat="46.25034" lon="-0.16574">
        <ele>139.3</ele>
        <time>2025-07-11T11:22:39+02:00</time>
      </trkpt>
      <trkpt lat="46.25035" lon="-0.16577">
        <ele>139.2</ele>
        <time>2025-07-11T11:22:40+02:00</time>
      </trkpt>
      <trkpt lat="46.25034" lon="-0.16581">
        <ele>139.1</ele>
        <time>2025-07-11T11:22:41.002000+02:00</time>
      </trkpt>
      <trkpt lat="46.25032" lon="-0.1659">
        <ele>138.8</ele>
        <time>2025-07-11T11:22:43.001000+02:00</time>
      </trkpt>
      <trkpt lat="46.25031" lon="-0.16595">
        <ele>138.6</ele>
        <time>2025-07-11T11:22:44.001000+02:00</time>
      </trkpt>
      <trkpt lat="46.25029" lon="-0.16607">
        <ele>138.1</ele>
        <time>2025-07-11T11:22:46+02:00</time>
      </trkpt>
      <trkpt lat="46.25027" lon="-0.16613">
        <ele>138</ele>
        <time>2025-07-11T11:22:47.001000+02:00</time>
      </trkpt>
      <trkpt lat="46.25025" lon="-0.16618">
        <ele>137.8</ele>
        <time>2025-07-11T11:22:48.001000+02:00</time>
      </trkpt>
      <trkpt lat="46.25021" lon="-0.1663">
        <ele>137.6</ele>
        <time>2025-07-11T11:22:50.001000+02:00</time>
      </trkpt>
      <trkpt lat="46.25019" lon="-0.16636">
        <ele>137.4</ele>
        <time>2025-07-11T11:22:51.003000+02:00</time>
      </trkpt>
      <trkpt lat="46.25014" lon="-0.16648">
        <ele>137.5</ele>
        <time>2025-07-11T11:22:53+02:00</time>
      </trkpt>
      <trkpt lat="46.25012" lon="-0.16654">
        <ele>137.5</ele>
        <time>2025-07-11T11:22:54.002000+02:00</time>
      </trkpt>
      <trkpt lat="46.25007" lon="-0.16665">
        <ele>137.3</ele>
        <time>2025-07-11T11:22:56.002000+02:00</time>
      </trkpt>
      <trkpt lat="46.25003" lon="-0.16676">
        <ele>137.2</ele>
        <time>2025-07-11T11:22:58.002000+02:00</time>
      </trkpt>
      <trkpt lat="46.24999" lon="-0.16687">
        <ele>137</ele>
        <time>2025-07-11T11:23:00.002000+02:00</time>
      </trkpt>
      <trkpt lat="46.24996" lon="-0.16697">
        <ele>137</ele>
        <time>2025-07-11T11:23:02.001000+02:00</time>
      </trkpt>
      <trkpt lat="46.24994" lon="-0.16703">
        <ele>136.9</ele>
        <time>2025-07-11T11:23:03.002000+02:00</time>
      </trkpt>
      <trkpt lat="46.2499" lon="-0.16714">
        <ele>136.7</ele>
        <time>2025-07-11T11:23:05.001000+02:00</time>
      </trkpt>
      <trkpt lat="46.24985" lon="-0.16726">
        <ele>136.5</ele>
        <time>2025-07-11T11:23:07.001000+02:00</time>
      </trkpt>
      <trkpt lat="46.24983" lon="-0.16732">
        <ele>136.5</ele>
        <time>2025-07-11T11:23:08.001000+02:00</time>
      </trkpt>
      <trkpt lat="46.24981" lon="-0.16738">
        <ele>136.5</ele>
        <time>2025-07-11T11:23:09.001000+02:00</time>
      </trkpt>
      <trkpt lat="46.24978" lon="-0.16744">
        <ele>136.4</ele>
        <time>2025-07-11T11:23:10.001000+02:00</time>
      </trkpt>
      <trkpt lat="46.24973" lon="-0.16757">
        <ele>136.1</ele>
        <time>2025-07-11T11:23:12.001000+02:00</time>
      </trkpt>
      <trkpt lat="46.24968" lon="-0.16769">
        <ele>136</ele>
        <time>2025-07-11T11:23:14.001000+02:00</time>
      </trkpt>
      <trkpt lat="46.24966" lon="-0.16775">
        <ele>136</ele>
        <time>2025-07-11T11:23:15.001000+02:00</time>
      </trkpt>
      <trkpt lat="46.24963" lon="-0.1678">
        <ele>136</ele>
        <time>2025-07-11T11:23:16.001000+02:00</time>
      </trkpt>
      <trkpt lat="46.24959" lon="-0.16792">
        <ele>135.8</ele>
        <time>2025-07-11T11:23:18.003000+02:00</time>
      </trkpt>
      <trkpt lat="46.24958" lon="-0.16805">
        <ele>135.5</ele>
        <time>2025-07-11T11:23:20+02:00</time>
      </trkpt>
      <trkpt lat="46.24957" lon="-0.16811">
        <ele>135.4</ele>
        <time>2025-07-11T11:23:21.001000+02:00</time>
      </trkpt>
      <trkpt lat="46.24957" lon="-0.16816">
        <ele>135.3</ele>
        <time>2025-07-11T11:23:22.001000+02:00</time>
      </trkpt>
      <trkpt lat="46.24958" lon="-0.16822">
        <ele>135.2</ele>
        <time>2025-07-11T11:23:23.001000+02:00</time>
      </trkpt>
      <trkpt lat="46.24958" lon="-0.16827">
        <ele>135.1</ele>
        <time>2025-07-11T11:23:24.001000+02:00</time>
      </trkpt>
      <trkpt lat="46.24959" lon="-0.16833">
        <ele>135</ele>
        <time>2025-07-11T11:23:25.001000+02:00</time>
      </trkpt>
      <trkpt lat="46.24959" lon="-0.16839">
        <ele>135</ele>
        <time>2025-07-11T11:23:26.007000+02:00</time>
      </trkpt>
      <trkpt lat="46.2496" lon="-0.16853">
        <ele>135</ele>
        <time>2025-07-11T11:23:28.001000+02:00</time>
      </trkpt>
      <trkpt lat="46.24959" lon="-0.16865">
        <ele>134.9</ele>
        <time>2025-07-11T11:23:29.999000+02:00</time>
      </trkpt>
      <trkpt lat="46.2496" lon="-0.16882">
        <ele>134.2</ele>
        <time>2025-07-11T11:23:31+02:00</time>
      </trkpt>
      <trkpt lat="46.24976" lon="-0.16905">
        <ele>134.4</ele>
        <time>2025-07-11T11:23:32.001000+02:00</time>
      </trkpt>
      <trkpt lat="46.24981" lon="-0.16909">
        <ele>134.7</ele>
        <time>2025-07-11T11:23:33.001000+02:00</time>
      </trkpt>
      <trkpt lat="46.24983" lon="-0.16911">
        <ele>134.8</ele>
        <time>2025-07-11T11:23:34.001000+02:00</time>
      </trkpt>
      <trkpt lat="46.24983" lon="-0.16915">
        <ele>134.8</ele>
        <time>2025-07-11T11:23:35.001000+02:00</time>
      </trkpt>
      <trkpt lat="46.24981" lon="-0.16917">
        <ele>134.6</ele>
        <time>2025-07-11T11:23:36.001000+02:00</time>
      </trkpt>
      <trkpt lat="46.2498" lon="-0.16921">
        <ele>134.4</ele>
        <time>2025-07-11T11:23:37.001000+02:00</time>
      </trkpt>
      <trkpt lat="46.24978" lon="-0.16925">
        <ele>134.1</ele>
        <time>2025-07-11T11:23:38.002000+02:00</time>
      </trkpt>
      <trkpt lat="46.24978" lon="-0.1693">
        <ele>133.9</ele>
        <time>2025-07-11T11:23:39.002000+02:00</time>
      </trkpt>
      <trkpt lat="46.24977" lon="-0.16941">
        <ele>133.5</ele>
        <time>2025-07-11T11:23:41.001000+02:00</time>
      </trkpt>
      <trkpt lat="46.24976" lon="-0.16946">
        <ele>133.3</ele>
        <time>2025-07-11T11:23:42.001000+02:00</time>
      </trkpt>
      <trkpt lat="46.24975" lon="-0.16951">
        <ele>133.2</ele>
        <time>2025-07-11T11:23:43.001000+02:00</time>
      </trkpt>
      <trkpt lat="46.24974" lon="-0.16956">
        <ele>133.1</ele>
        <time>2025-07-11T11:23:44.001000+02:00</time>
      </trkpt>
      <trkpt lat="46.24974" lon="-0.16963">
        <ele>133.1</ele>
        <time>2025-07-11T11:23:45.002000+02:00</time>
      </trkpt>
      <trkpt lat="46.24973" lon="-0.16977">
        <ele>133</ele>
        <time>2025-07-11T11:23:47+02:00</time>
      </trkpt>
      <trkpt lat="46.24973" lon="-0.16984">
        <ele>133</ele>
        <time>2025-07-11T11:23:48.003000+02:00</time>
      </trkpt>
      <trkpt lat="46.24973" lon="-0.16997">
        <ele>133</ele>
        <time>2025-07-11T11:23:50.001000+02:00</time>
      </trkpt>
      <trkpt lat="46.24973" lon="-0.17003">
        <ele>132.9</ele>
        <time>2025-07-11T11:23:51.001000+02:00</time>
      </trkpt>
      <trkpt lat="46.24973" lon="-0.17009">
        <ele>132.7</ele>
        <time>2025-07-11T11:23:52.001000+02:00</time>
      </trkpt>
      <trkpt lat="46.24973" lon="-0.17016">
        <ele>132.4</ele>
        <time>2025-07-11T11:23:53.001000+02:00</time>
      </trkpt>
      <trkpt lat="46.24973" lon="-0.17022">
        <ele>132.2</ele>
        <time>2025-07-11T11:23:54.001000+02:00</time>
      </trkpt>
      <trkpt lat="46.24974" lon="-0.17034">
        <ele>132</ele>
        <time>2025-07-11T11:23:56.001000+02:00</time>
      </trkpt>
      <trkpt lat="46.24974" lon="-0.1704">
        <ele>132</ele>
        <time>2025-07-11T11:23:57.001000+02:00</time>
      </trkpt>
      <trkpt lat="46.24974" lon="-0.17046">
        <ele>132</ele>
        <time>2025-07-11T11:23:58.001000+02:00</time>
      </trkpt>
      <trkpt lat="46.24974" lon="-0.17052">
        <ele>131.9</ele>
        <time>2025-07-11T11:23:59.001000+02:00</time>
      </trkpt>
      <trkpt lat="46.24974" lon="-0.17063">
        <ele>131.7</ele>
        <time>2025-07-11T11:24:01.001000+02:00</time>
      </trkpt>
      <trkpt lat="46.24973" lon="-0.17075">
        <ele>131.3</ele>
        <time>2025-07-11T11:24:03.001000+02:00</time>
      </trkpt>
      <trkpt lat="46.24973" lon="-0.1708">
        <ele>131.1</ele>
        <time>2025-07-11T11:24:04.001000+02:00</time>
      </trkpt>
      <trkpt lat="46.24972" lon="-0.17086">
        <ele>131</ele>
        <time>2025-07-11T11:24:05.001000+02:00</time>
      </trkpt>
      <trkpt lat="46.2497" lon="-0.17098">
        <ele>131.1</ele>
        <time>2025-07-11T11:24:07+02:00</time>
      </trkpt>
      <trkpt lat="46.2497" lon="-0.17104">
        <ele>131.1</ele>
        <time>2025-07-11T11:24:08+02:00</time>
      </trkpt>
      <trkpt lat="46.24969" lon="-0.1711">
        <ele>131.1</ele>
        <time>2025-07-11T11:24:09.001000+02:00</time>
      </trkpt>
      <trkpt lat="46.24968" lon="-0.17116">
        <ele>131.1</ele>
        <time>2025-07-11T11:24:10.001000+02:00</time>
      </trkpt>
      <trkpt lat="46.24968" lon="-0.17121">
        <ele>131.2</ele>
        <time>2025-07-11T11:24:11.001000+02:00</time>
      </trkpt>
      <trkpt lat="46.24968" lon="-0.17126">
        <ele>131.2</ele>
        <time>2025-07-11T11:24:12.001000+02:00</time>
      </trkpt>
      <trkpt lat="46.24967" lon="-0.17132">
        <ele>131.2</ele>
        <time>2025-07-11T11:24:13.001000+02:00</time>
      </trkpt>
      <trkpt lat="46.24966" lon="-0.17137">
        <ele>131.2</ele>
        <time>2025-07-11T11:24:14.003000+02:00</time>
      </trkpt>
      <trkpt lat="46.24966" lon="-0.17141">
        <ele>131.1</ele>
        <time>2025-07-11T11:24:15.003000+02:00</time>
      </trkpt>
      <trkpt lat="46.24968" lon="-0.17149">
        <ele>130.8</ele>
        <time>2025-07-11T11:24:17.002000+02:00</time>
      </trkpt>
      <trkpt lat="46.24971" lon="-0.17155">
        <ele>130.5</ele>
        <time>2025-07-11T11:24:19.001000+02:00</time>
      </trkpt>
      <trkpt lat="46.24973" lon="-0.17158">
        <ele>130.3</ele>
        <time>2025-07-11T11:24:20.001000+02:00</time>
      </trkpt>
      <trkpt lat="46.24976" lon="-0.17162">
        <ele>130</ele>
        <time>2025-07-11T11:24:21.003000+02:00</time>
      </trkpt>
      <trkpt lat="46.24982" lon="-0.17171">
        <ele>129.6</ele>
        <time>2025-07-11T11:24:23.001000+02:00</time>
      </trkpt>
      <trkpt lat="46.24985" lon="-0.17176">
        <ele>129.6</ele>
        <time>2025-07-11T11:24:24.001000+02:00</time>
      </trkpt>
      <trkpt lat="46.2499" lon="-0.17187">
        <ele>129.3</ele>
        <time>2025-07-11T11:24:26.002000+02:00</time>
      </trkpt>
      <trkpt lat="46.24996" lon="-0.17198">
        <ele>129.1</ele>
        <time>2025-07-11T11:24:28+02:00</time>
      </trkpt>
      <trkpt lat="46.24999" lon="-0.17203">
        <ele>129</ele>
        <time>2025-07-11T11:24:29.001000+02:00</time>
      </trkpt>
      <trkpt lat="46.25001" lon="-0.17208">
        <ele>129</ele>
        <time>2025-07-11T11:24:30.002000+02:00</time>
      </trkpt>
      <trkpt lat="46.25006" lon="-0.1722">
        <ele>129.2</ele>
        <time>2025-07-11T11:24:32.001000+02:00</time>
      </trkpt>
      <trkpt lat="46.25008" lon="-0.17225">
        <ele>129.3</ele>
        <time>2025-07-11T11:24:33.003000+02:00</time>
      </trkpt>
      <trkpt lat="46.25012" lon="-0.17236">
        <ele>129.2</ele>
        <time>2025-07-11T11:24:35.001000+02:00</time>
      </trkpt>
      <trkpt lat="46.25014" lon="-0.17243">
        <ele>129.1</ele>
        <time>2025-07-11T11:24:36.003000+02:00</time>
      </trkpt>
      <trkpt lat="46.25018" lon="-0.17255">
        <ele>128.9</ele>
        <time>2025-07-11T11:24:38.001000+02:00</time>
      </trkpt>
      <trkpt lat="46.2502" lon="-0.17261">
        <ele>128.9</ele>
        <time>2025-07-11T11:24:39.003000+02:00</time>
      </trkpt>
      <trkpt lat="46.25022" lon="-0.17267">
        <ele>128.9</ele>
        <time>2025-07-11T11:24:40.003000+02:00</time>
      </trkpt>
      <trkpt lat="46.25027" lon="-0.17279">
        <ele>129</ele>
        <time>2025-07-11T11:24:42+02:00</time>
      </trkpt>
      <trkpt lat="46.25029" lon="-0.17285">
        <ele>129</ele>
        <time>2025-07-11T11:24:43+02:00</time>
      </trkpt>
      <trkpt lat="46.25031" lon="-0.17291">
        <ele>129</ele>
        <time>2025-07-11T11:24:44.001000+02:00</time>
      </trkpt>
      <trkpt lat="46.25033" lon="-0.17297">
        <ele>129</ele>
        <time>2025-07-11T11:24:45.001000+02:00</time>
      </trkpt>
      <trkpt lat="46.25035" lon="-0.17303">
        <ele>129</ele>
        <time>2025-07-11T11:24:46.001000+02:00</time>
      </trkpt>
      <trkpt lat="46.25037" lon="-0.17308">
        <ele>128.9</ele>
        <time>2025-07-11T11:24:47.001000+02:00</time>
      </trkpt>
      <trkpt lat="46.25041" lon="-0.17319">
        <ele>128.8</ele>
        <time>2025-07-11T11:24:49.001000+02:00</time>
      </trkpt>
      <trkpt lat="46.25044" lon="-0.17324">
        <ele>128.7</ele>
        <time>2025-07-11T11:24:50.002000+02:00</time>
      </trkpt>
      <trkpt lat="46.25046" lon="-0.17329">
        <ele>128.7</ele>
        <time>2025-07-11T11:24:51.002000+02:00</time>
      </trkpt>
      <trkpt lat="46.25052" lon="-0.17337">
        <ele>128.9</ele>
        <time>2025-07-11T11:24:53.001000+02:00</time>
      </trkpt>
      <trkpt lat="46.25055" lon="-0.17341">
        <ele>129</ele>
        <time>2025-07-11T11:24:54.002000+02:00</time>
      </trkpt>
      <trkpt lat="46.25058" lon="-0.17345">
        <ele>129</ele>
        <time>2025-07-11T11:24:55.002000+02:00</time>
      </trkpt>
      <trkpt lat="46.2506" lon="-0.17349">
        <ele>129</ele>
        <time>2025-07-11T11:24:56.002000+02:00</time>
      </trkpt>
      <trkpt lat="46.25065" lon="-0.17355">
        <ele>129</ele>
        <time>2025-07-11T11:24:58+02:00</time>
      </trkpt>
      <trkpt lat="46.25067" lon="-0.17359">
        <ele>129</ele>
        <time>2025-07-11T11:24:59+02:00</time>
      </trkpt>
      <trkpt lat="46.25068" lon="-0.17363">
        <ele>129</ele>
        <time>2025-07-11T11:25:00.002000+02:00</time>
      </trkpt>
      <trkpt lat="46.25071" lon="-0.17372">
        <ele>129.2</ele>
        <time>2025-07-11T11:25:02.001000+02:00</time>
      </trkpt>
      <trkpt lat="46.25073" lon="-0.17376">
        <ele>129.2</ele>
        <time>2025-07-11T11:25:03.001000+02:00</time>
      </trkpt>
      <trkpt lat="46.25076" lon="-0.17381">
        <ele>129.2</ele>
        <time>2025-07-11T11:25:04.001000+02:00</time>
      </trkpt>
      <trkpt lat="46.25081" lon="-0.17388">
        <ele>129.1</ele>
        <time>2025-07-11T11:25:06+02:00</time>
      </trkpt>
      <trkpt lat="46.25084" lon="-0.17391">
        <ele>129.1</ele>
        <time>2025-07-11T11:25:07+02:00</time>
      </trkpt>
      <trkpt lat="46.2509" lon="-0.17398">
        <ele>129.3</ele>
        <time>2025-07-11T11:25:09.001000+02:00</time>
      </trkpt>
      <trkpt lat="46.25095" lon="-0.17406">
        <ele>129.6</ele>
        <time>2025-07-11T11:25:11.001000+02:00</time>
      </trkpt>
      <trkpt lat="46.25098" lon="-0.1741">
        <ele>129.7</ele>
        <time>2025-07-11T11:25:12.001000+02:00</time>
      </trkpt>
      <trkpt lat="46.251" lon="-0.17414">
        <ele>129.9</ele>
        <time>2025-07-11T11:25:13.002000+02:00</time>
      </trkpt>
      <trkpt lat="46.25103" lon="-0.17417">
        <ele>130</ele>
        <time>2025-07-11T11:25:14.002000+02:00</time>
      </trkpt>
      <trkpt lat="46.25106" lon="-0.17421">
        <ele>130</ele>
        <time>2025-07-11T11:25:15.002000+02:00</time>
      </trkpt>
      <trkpt lat="46.25111" lon="-0.17429">
        <ele>130</ele>
        <time>2025-07-11T11:25:17.002000+02:00</time>
      </trkpt>
      <trkpt lat="46.25114" lon="-0.17433">
        <ele>130</ele>
        <time>2025-07-11T11:25:18.003000+02:00</time>
      </trkpt>
      <trkpt lat="46.25119" lon="-0.1744">
        <ele>130</ele>
        <time>2025-07-11T11:25:20.001000+02:00</time>
      </trkpt>
      <trkpt lat="46.25121" lon="-0.17443">
        <ele>130</ele>
        <time>2025-07-11T11:25:21.001000+02:00</time>
      </trkpt>
      <trkpt lat="46.25124" lon="-0.17447">
        <ele>130.1</ele>
        <time>2025-07-11T11:25:22.001000+02:00</time>
      </trkpt>
      <trkpt lat="46.25127" lon="-0.1745">
        <ele>130.2</ele>
        <time>2025-07-11T11:25:23.002000+02:00</time>
      </trkpt>
      <trkpt lat="46.25132" lon="-0.17457">
        <ele>130.5</ele>
        <time>2025-07-11T11:25:24.999000+02:00</time>
      </trkpt>
      <trkpt lat="46.25134" lon="-0.17461">
        <ele>130.6</ele>
        <time>2025-07-11T11:25:26+02:00</time>
      </trkpt>
      <trkpt lat="46.25136" lon="-0.17465">
        <ele>130.7</ele>
        <time>2025-07-11T11:25:27.001000+02:00</time>
      </trkpt>
      <trkpt lat="46.25139" lon="-0.17469">
        <ele>130.9</ele>
        <time>2025-07-11T11:25:28.001000+02:00</time>
      </trkpt>
      <trkpt lat="46.25144" lon="-0.17475">
        <ele>131</ele>
        <time>2025-07-11T11:25:30.002000+02:00</time>
      </trkpt>
      <trkpt lat="46.2515" lon="-0.17481">
        <ele>131</ele>
        <time>2025-07-11T11:25:32.002000+02:00</time>
      </trkpt>
      <trkpt lat="46.25153" lon="-0.17484">
        <ele>131</ele>
        <time>2025-07-11T11:25:33.002000+02:00</time>
      </trkpt>
      <trkpt lat="46.25159" lon="-0.17489">
        <ele>131</ele>
        <time>2025-07-11T11:25:35+02:00</time>
      </trkpt>
      <trkpt lat="46.25162" lon="-0.17491">
        <ele>131</ele>
        <time>2025-07-11T11:25:36.001000+02:00</time>
      </trkpt>
      <trkpt lat="46.25168" lon="-0.17494">
        <ele>131.1</ele>
        <time>2025-07-11T11:25:38+02:00</time>
      </trkpt>
      <trkpt lat="46.25171" lon="-0.17495">
        <ele>131.2</ele>
        <time>2025-07-11T11:25:39.001000+02:00</time>
      </trkpt>
      <trkpt lat="46.25173" lon="-0.17497">
        <ele>131.2</ele>
        <time>2025-07-11T11:25:40.002000+02:00</time>
      </trkpt>
      <trkpt lat="46.25178" lon="-0.175">
        <ele>131.4</ele>
        <time>2025-07-11T11:25:42.002000+02:00</time>
      </trkpt>
      <trkpt lat="46.25183" lon="-0.17501">
        <ele>131.6</ele>
        <time>2025-07-11T11:25:44+02:00</time>
      </trkpt>
      <trkpt lat="46.25187" lon="-0.17502">
        <ele>131.7</ele>
        <time>2025-07-11T11:25:45.003000+02:00</time>
      </trkpt>
      <trkpt lat="46.25192" lon="-0.17502">
        <ele>131.9</ele>
        <time>2025-07-11T11:25:47+02:00</time>
      </trkpt>
      <trkpt lat="46.25195" lon="-0.17502">
        <ele>132</ele>
        <time>2025-07-11T11:25:48.001000+02:00</time>
      </trkpt>
      <trkpt lat="46.25198" lon="-0.17501">
        <ele>132.1</ele>
        <time>2025-07-11T11:25:49.001000+02:00</time>
      </trkpt>
      <trkpt lat="46.252" lon="-0.175">
        <ele>132.2</ele>
        <time>2025-07-11T11:25:50.003000+02:00</time>
      </trkpt>
      <trkpt lat="46.25203" lon="-0.175">
        <ele>132.3</ele>
        <time>2025-07-11T11:25:52.001000+02:00</time>
      </trkpt>
      <trkpt lat="46.25208" lon="-0.17501">
        <ele>132.5</ele>
        <time>2025-07-11T11:25:54.004000+02:00</time>
      </trkpt>
      <trkpt lat="46.2521" lon="-0.17501">
        <ele>132.6</ele>
        <time>2025-07-11T11:25:56.001000+02:00</time>
      </trkpt>
      <trkpt lat="46.25212" lon="-0.17501">
        <ele>132.6</ele>
        <time>2025-07-11T11:25:57.003000+02:00</time>
      </trkpt>
      <trkpt lat="46.25215" lon="-0.17501">
        <ele>132.7</ele>
        <time>2025-07-11T11:25:59.001000+02:00</time>
      </trkpt>
      <trkpt lat="46.25217" lon="-0.17501">
        <ele>132.8</ele>
        <time>2025-07-11T11:26:00.002000+02:00</time>
      </trkpt>
      <trkpt lat="46.25221" lon="-0.17501">
        <ele>133</ele>
        <time>2025-07-11T11:26:02.001000+02:00</time>
      </trkpt>
      <trkpt lat="46.25223" lon="-0.17501">
        <ele>133.1</ele>
        <time>2025-07-11T11:26:03.003000+02:00</time>
      </trkpt>
      <trkpt lat="46.25227" lon="-0.17502">
        <ele>133.4</ele>
        <time>2025-07-11T11:26:05+02:00</time>
      </trkpt>
      <trkpt lat="46.25229" lon="-0.17502">
        <ele>133.5</ele>
        <time>2025-07-11T11:26:06.003000+02:00</time>
      </trkpt>
      <trkpt lat="46.25233" lon="-0.17503">
        <ele>133.8</ele>
        <time>2025-07-11T11:26:08.003000+02:00</time>
      </trkpt>
      <trkpt lat="46.25235" lon="-0.17503">
        <ele>133.9</ele>
        <time>2025-07-11T11:26:09.003000+02:00</time>
      </trkpt>
      <trkpt lat="46.25237" lon="-0.17503">
        <ele>134.1</ele>
        <time>2025-07-11T11:26:10.003000+02:00</time>
      </trkpt>
      <trkpt lat="46.25239" lon="-0.17504">
        <ele>134.2</ele>
        <time>2025-07-11T11:26:11.003000+02:00</time>
      </trkpt>
      <trkpt lat="46.25242" lon="-0.17503">
        <ele>134.4</ele>
        <time>2025-07-11T11:26:12.004000+02:00</time>
      </trkpt>
      <trkpt lat="46.25247" lon="-0.17504">
        <ele>134.8</ele>
        <time>2025-07-11T11:26:14.004000+02:00</time>
      </trkpt>
      <trkpt lat="46.25251" lon="-0.17505">
        <ele>135.1</ele>
        <time>2025-07-11T11:26:16.001000+02:00</time>
      </trkpt>
      <trkpt lat="46.25255" lon="-0.17505">
        <ele>135.3</ele>
        <time>2025-07-11T11:26:18+02:00</time>
      </trkpt>
      <trkpt lat="46.25257" lon="-0.17505">
        <ele>135.4</ele>
        <time>2025-07-11T11:26:19.001000+02:00</time>
      </trkpt>
      <trkpt lat="46.25258" lon="-0.17505">
        <ele>135.5</ele>
        <time>2025-07-11T11:26:20.003000+02:00</time>
      </trkpt>
      <trkpt lat="46.2526" lon="-0.17505">
        <ele>135.7</ele>
        <time>2025-07-11T11:26:21.003000+02:00</time>
      </trkpt>
      <trkpt lat="46.25265" lon="-0.17503">
        <ele>136</ele>
        <time>2025-07-11T11:26:23.001000+02:00</time>
      </trkpt>
      <trkpt lat="46.25267" lon="-0.17502">
        <ele>136.2</ele>
        <time>2025-07-11T11:26:24.001000+02:00</time>
      </trkpt>
      <trkpt lat="46.25269" lon="-0.175">
        <ele>136.4</ele>
        <time>2025-07-11T11:26:25.001000+02:00</time>
      </trkpt>
      <trkpt lat="46.25271" lon="-0.17499">
        <ele>136.5</ele>
        <time>2025-07-11T11:26:26.001000+02:00</time>
      </trkpt>
      <trkpt lat="46.25273" lon="-0.17498">
        <ele>136.6</ele>
        <time>2025-07-11T11:26:27.001000+02:00</time>
      </trkpt>
      <trkpt lat="46.25275" lon="-0.17497">
        <ele>136.8</ele>
        <time>2025-07-11T11:26:28.001000+02:00</time>
      </trkpt>
      <trkpt lat="46.25276" lon="-0.17498">
        <ele>136.9</ele>
        <time>2025-07-11T11:26:29.002000+02:00</time>
      </trkpt>
      <trkpt lat="46.25279" lon="-0.17497">
        <ele>137</ele>
        <time>2025-07-11T11:26:31.001000+02:00</time>
      </trkpt>
      <trkpt lat="46.2528" lon="-0.17496">
        <ele>137.1</ele>
        <time>2025-07-11T11:26:32.002000+02:00</time>
      </trkpt>
      <trkpt lat="46.25284" lon="-0.17495">
        <ele>137.2</ele>
        <time>2025-07-11T11:26:34.003000+02:00</time>
      </trkpt>
      <trkpt lat="46.25287" lon="-0.17495">
        <ele>137.4</ele>
        <time>2025-07-11T11:26:36.001000+02:00</time>
      </trkpt>
      <trkpt lat="46.25289" lon="-0.17494">
        <ele>137.5</ele>
        <time>2025-07-11T11:26:37.001000+02:00</time>
      </trkpt>
      <trkpt lat="46.25291" lon="-0.17494">
        <ele>137.6</ele>
        <time>2025-07-11T11:26:38.003000+02:00</time>
      </trkpt>
      <trkpt lat="46.25295" lon="-0.17493">
        <ele>137.8</ele>
        <time>2025-07-11T11:26:40.001000+02:00</time>
      </trkpt>
      <trkpt lat="46.25298" lon="-0.17493">
        <ele>137.9</ele>
        <time>2025-07-11T11:26:41.002000+02:00</time>
      </trkpt>
      <trkpt lat="46.253" lon="-0.17492">
        <ele>138</ele>
        <time>2025-07-11T11:26:42.003000+02:00</time>
      </trkpt>
      <trkpt lat="46.25304" lon="-0.17491">
        <ele>138.2</ele>
        <time>2025-07-11T11:26:44.003000+02:00</time>
      </trkpt>
      <trkpt lat="46.25307" lon="-0.17491">
        <ele>138.4</ele>
        <time>2025-07-11T11:26:46.003000+02:00</time>
      </trkpt>
      <trkpt lat="46.25309" lon="-0.1749">
        <ele>138.6</ele>
        <time>2025-07-11T11:26:48.001000+02:00</time>
      </trkpt>
      <trkpt lat="46.2531" lon="-0.1749">
        <ele>138.7</ele>
        <time>2025-07-11T11:26:49.001000+02:00</time>
      </trkpt>
      <trkpt lat="46.25312" lon="-0.17489">
        <ele>138.9</ele>
        <time>2025-07-11T11:26:50.003000+02:00</time>
      </trkpt>
      <trkpt lat="46.25317" lon="-0.17488">
        <ele>139.2</ele>
        <time>2025-07-11T11:26:52.001000+02:00</time>
      </trkpt>
      <trkpt lat="46.25319" lon="-0.17488">
        <ele>139.4</ele>
        <time>2025-07-11T11:26:53.001000+02:00</time>
      </trkpt>
      <trkpt lat="46.25322" lon="-0.17485">
        <ele>139.7</ele>
        <time>2025-07-11T11:26:55+02:00</time>
      </trkpt>
      <trkpt lat="46.25323" lon="-0.17483">
        <ele>139.9</ele>
        <time>2025-07-11T11:26:56.003000+02:00</time>
      </trkpt>
      <trkpt lat="46.25324" lon="-0.17482">
        <ele>139.9</ele>
        <time>2025-07-11T11:26:57.005000+02:00</time>
      </trkpt>
      <trkpt lat="46.25327" lon="-0.1748">
        <ele>140.2</ele>
        <time>2025-07-11T11:26:59.002000+02:00</time>
      </trkpt>
      <trkpt lat="46.2533" lon="-0.17478">
        <ele>140.5</ele>
        <time>2025-07-11T11:27:01.001000+02:00</time>
      </trkpt>
      <trkpt lat="46.2533" lon="-0.17478">
        <ele>140.6</ele>
        <time>2025-07-11T11:27:02.002000+02:00</time>
      </trkpt>
      <trkpt lat="46.25331" lon="-0.17477">
        <ele>140.6</ele>
        <time>2025-07-11T11:27:03.003000+02:00</time>
      </trkpt>
      <trkpt lat="46.25332" lon="-0.17477">
        <ele>140.7</ele>
        <time>2025-07-11T11:27:05.001000+02:00</time>
      </trkpt>
      <trkpt lat="46.25335" lon="-0.17476">
        <ele>141</ele>
        <time>2025-07-11T11:27:07.002000+02:00</time>
      </trkpt>
      <trkpt lat="46.25336" lon="-0.17476">
        <ele>141.2</ele>
        <time>2025-07-11T11:27:08.004000+02:00</time>
      </trkpt>
      <trkpt lat="46.25337" lon="-0.17476">
        <ele>141.3</ele>
        <time>2025-07-11T11:27:09.004000+02:00</time>
      </trkpt>
      <trkpt lat="46.2534" lon="-0.17475">
        <ele>141.6</ele>
        <time>2025-07-11T11:27:11.001000+02:00</time>
      </trkpt>
      <trkpt lat="46.25341" lon="-0.17474">
        <ele>141.7</ele>
        <time>2025-07-11T11:27:12.003000+02:00</time>
      </trkpt>
      <trkpt lat="46.25343" lon="-0.17474">
        <ele>142</ele>
        <time>2025-07-11T11:27:14.002000+02:00</time>
      </trkpt>
      <trkpt lat="46.25344" lon="-0.17474">
        <ele>142.1</ele>
        <time>2025-07-11T11:27:15.002000+02:00</time>
      </trkpt>
      <trkpt lat="46.25346" lon="-0.17474">
        <ele>142.3</ele>
        <time>2025-07-11T11:27:17.003000+02:00</time>
      </trkpt>
      <trkpt lat="46.25346" lon="-0.17474">
        <ele>142.3</ele>
        <time>2025-07-11T11:27:19.002000+02:00</time>
      </trkpt>
      <trkpt lat="46.25351" lon="-0.17475">
        <ele>142.8</ele>
        <time>2025-07-11T11:27:21.001000+02:00</time>
      </trkpt>
      <trkpt lat="46.25354" lon="-0.17476">
        <ele>143.1</ele>
        <time>2025-07-11T11:27:22.003000+02:00</time>
      </trkpt>
      <trkpt lat="46.25357" lon="-0.17476">
        <ele>143.4</ele>
        <time>2025-07-11T11:27:24+02:00</time>
      </trkpt>
      <trkpt lat="46.25358" lon="-0.17476">
        <ele>143.6</ele>
        <time>2025-07-11T11:27:25.001000+02:00</time>
      </trkpt>
      <trkpt lat="46.25363" lon="-0.17474">
        <ele>144.1</ele>
        <time>2025-07-11T11:27:27.003000+02:00</time>
      </trkpt>
      <trkpt lat="46.25366" lon="-0.17472">
        <ele>144.5</ele>
        <time>2025-07-11T11:27:29.002000+02:00</time>
      </trkpt>
      <trkpt lat="46.2537" lon="-0.17472">
        <ele>145</ele>
        <time>2025-07-11T11:27:31.002000+02:00</time>
      </trkpt>
      <trkpt lat="46.25375" lon="-0.17471">
        <ele>145.5</ele>
        <time>2025-07-11T11:27:33.003000+02:00</time>
      </trkpt>
      <trkpt lat="46.25378" lon="-0.17471">
        <ele>145.9</ele>
        <time>2025-07-11T11:27:35+02:00</time>
      </trkpt>
      <trkpt lat="46.25381" lon="-0.17471">
        <ele>146.1</ele>
        <time>2025-07-11T11:27:36.003000+02:00</time>
      </trkpt>
      <trkpt lat="46.25383" lon="-0.17472">
        <ele>146.4</ele>
        <time>2025-07-11T11:27:38.003000+02:00</time>
      </trkpt>
      <trkpt lat="46.25383" lon="-0.17472">
        <ele>146.4</ele>
        <time>2025-07-11T11:27:39.003000+02:00</time>
      </trkpt>
      <trkpt lat="46.25386" lon="-0.17471">
        <ele>146.7</ele>
        <time>2025-07-11T11:27:40.004000+02:00</time>
      </trkpt>
      <trkpt lat="46.25389" lon="-0.17471">
        <ele>147</ele>
        <time>2025-07-11T11:27:42.001000+02:00</time>
      </trkpt>
      <trkpt lat="46.25392" lon="-0.17472">
        <ele>147.3</ele>
        <time>2025-07-11T11:27:43.003000+02:00</time>
      </trkpt>
      <trkpt lat="46.25395" lon="-0.17472">
        <ele>147.6</ele>
        <time>2025-07-11T11:27:45.002000+02:00</time>
      </trkpt>
      <trkpt lat="46.25397" lon="-0.17472">
        <ele>147.9</ele>
        <time>2025-07-11T11:27:47.001000+02:00</time>
      </trkpt>
      <trkpt lat="46.25399" lon="-0.17472">
        <ele>148</ele>
        <time>2025-07-11T11:27:48.001000+02:00</time>
      </trkpt>
      <trkpt lat="46.25402" lon="-0.17471">
        <ele>148.4</ele>
        <time>2025-07-11T11:27:49.001000+02:00</time>
      </trkpt>
      <trkpt lat="46.25404" lon="-0.17471">
        <ele>148.6</ele>
        <time>2025-07-11T11:27:50.003000+02:00</time>
      </trkpt>
      <trkpt lat="46.25404" lon="-0.1747">
        <ele>148.7</ele>
        <time>2025-07-11T11:27:51.003000+02:00</time>
      </trkpt>
      <trkpt lat="46.25406" lon="-0.17469">
        <ele>148.8</ele>
        <time>2025-07-11T11:27:53.002000+02:00</time>
      </trkpt>
      <trkpt lat="46.25408" lon="-0.17469">
        <ele>149.1</ele>
        <time>2025-07-11T11:27:54.003000+02:00</time>
      </trkpt>
      <trkpt lat="46.25411" lon="-0.17468">
        <ele>149.4</ele>
        <time>2025-07-11T11:27:56.002000+02:00</time>
      </trkpt>
      <trkpt lat="46.25412" lon="-0.17469">
        <ele>149.5</ele>
        <time>2025-07-11T11:27:57.002000+02:00</time>
      </trkpt>
      <trkpt lat="46.25415" lon="-0.17468">
        <ele>149.8</ele>
        <time>2025-07-11T11:27:59.002000+02:00</time>
      </trkpt>
      <trkpt lat="46.25417" lon="-0.17469">
        <ele>150</ele>
        <time>2025-07-11T11:28:00.002000+02:00</time>
      </trkpt>
      <trkpt lat="46.2542" lon="-0.17469">
        <ele>150.4</ele>
        <time>2025-07-11T11:28:01.002000+02:00</time>
      </trkpt>
      <trkpt lat="46.25423" lon="-0.1747">
        <ele>150.7</ele>
        <time>2025-07-11T11:28:02.002000+02:00</time>
      </trkpt>
      <trkpt lat="46.25425" lon="-0.17471">
        <ele>150.9</ele>
        <time>2025-07-11T11:28:03.004000+02:00</time>
      </trkpt>
      <trkpt lat="46.25426" lon="-0.17471">
        <ele>151</ele>
        <time>2025-07-11T11:28:04.004000+02:00</time>
      </trkpt>
      <trkpt lat="46.25427" lon="-0.17473">
        <ele>151.1</ele>
        <time>2025-07-11T11:28:05.004000+02:00</time>
      </trkpt>
      <trkpt lat="46.25428" lon="-0.17473">
        <ele>151.2</ele>
        <time>2025-07-11T11:28:06.004000+02:00</time>
      </trkpt>
      <trkpt lat="46.25432" lon="-0.17474">
        <ele>151.6</ele>
        <time>2025-07-11T11:28:08.001000+02:00</time>
      </trkpt>
      <trkpt lat="46.25434" lon="-0.17474">
        <ele>151.8</ele>
        <time>2025-07-11T11:28:09.004000+02:00</time>
      </trkpt>
      <trkpt lat="46.25436" lon="-0.17475">
        <ele>152</ele>
        <time>2025-07-11T11:28:11+02:00</time>
      </trkpt>
      <trkpt lat="46.25436" lon="-0.17475">
        <ele>152</ele>
        <time>2025-07-11T11:28:12.001000+02:00</time>
      </trkpt>
      <trkpt lat="46.25436" lon="-0.17475">
        <ele>152</ele>
        <time>2025-07-11T11:28:13.001000+02:00</time>
      </trkpt>
      <trkpt lat="46.25442" lon="-0.17478">
        <ele>152.5</ele>
        <time>2025-07-11T11:28:15+02:00</time>
      </trkpt>
      <trkpt lat="46.25444" lon="-0.17478">
        <ele>152.8</ele>
        <time>2025-07-11T11:28:16.001000+02:00</time>
      </trkpt>
      <trkpt lat="46.25446" lon="-0.17477">
        <ele>152.9</ele>
        <time>2025-07-11T11:28:17.001000+02:00</time>
      </trkpt>
      <trkpt lat="46.25447" lon="-0.17478">
        <ele>153.1</ele>
        <time>2025-07-11T11:28:18.002000+02:00</time>
      </trkpt>
      <trkpt lat="46.25449" lon="-0.17479">
        <ele>153.2</ele>
        <time>2025-07-11T11:28:20.002000+02:00</time>
      </trkpt>
      <trkpt lat="46.2545" lon="-0.1748">
        <ele>153.3</ele>
        <time>2025-07-11T11:28:21.002000+02:00</time>
      </trkpt>
      <trkpt lat="46.25452" lon="-0.1748">
        <ele>153.5</ele>
        <time>2025-07-11T11:28:23.001000+02:00</time>
      </trkpt>
      <trkpt lat="46.25454" lon="-0.1748">
        <ele>153.8</ele>
        <time>2025-07-11T11:28:24.003000+02:00</time>
      </trkpt>
      <trkpt lat="46.25458" lon="-0.1748">
        <ele>154.2</ele>
        <time>2025-07-11T11:28:26.001000+02:00</time>
      </trkpt>
      <trkpt lat="46.25462" lon="-0.17479">
        <ele>154.6</ele>
        <time>2025-07-11T11:28:27.004000+02:00</time>
      </trkpt>
      <trkpt lat="46.25465" lon="-0.17477">
        <ele>155.1</ele>
        <time>2025-07-11T11:28:29.003000+02:00</time>
      </trkpt>
      <trkpt lat="46.25472" lon="-0.17475">
        <ele>155.9</ele>
        <time>2025-07-11T11:28:31.001000+02:00</time>
      </trkpt>
      <trkpt lat="46.25475" lon="-0.17474">
        <ele>156.2</ele>
        <time>2025-07-11T11:28:32.002000+02:00</time>
      </trkpt>
      <trkpt lat="46.25479" lon="-0.17473">
        <ele>156.4</ele>
        <time>2025-07-11T11:28:33.002000+02:00</time>
      </trkpt>
      <trkpt lat="46.25483" lon="-0.17474">
        <ele>156.7</ele>
        <time>2025-07-11T11:28:35.002000+02:00</time>
      </trkpt>
      <trkpt lat="46.25484" lon="-0.17475">
        <ele>156.8</ele>
        <time>2025-07-11T11:28:36.002000+02:00</time>
      </trkpt>
      <trkpt lat="46.25486" lon="-0.17475">
        <ele>156.9</ele>
        <time>2025-07-11T11:28:38.002000+02:00</time>
      </trkpt>
      <trkpt lat="46.25486" lon="-0.17475">
        <ele>156.9</ele>
        <time>2025-07-11T11:28:39.002000+02:00</time>
      </trkpt>
      <trkpt lat="46.25492" lon="-0.17475">
        <ele>157.4</ele>
        <time>2025-07-11T11:28:41.001000+02:00</time>
      </trkpt>
      <trkpt lat="46.25495" lon="-0.17475">
        <ele>157.6</ele>
        <time>2025-07-11T11:28:42.002000+02:00</time>
      </trkpt>
      <trkpt lat="46.25498" lon="-0.17475">
        <ele>157.8</ele>
        <time>2025-07-11T11:28:44.002000+02:00</time>
      </trkpt>
      <trkpt lat="46.25499" lon="-0.17475">
        <ele>157.9</ele>
        <time>2025-07-11T11:28:45.002000+02:00</time>
      </trkpt>
      <trkpt lat="46.25502" lon="-0.17474">
        <ele>158.2</ele>
        <time>2025-07-11T11:28:47.002000+02:00</time>
      </trkpt>
      <trkpt lat="46.25503" lon="-0.17475">
        <ele>158.2</ele>
        <time>2025-07-11T11:28:48.002000+02:00</time>
      </trkpt>
      <trkpt lat="46.25508" lon="-0.17475">
        <ele>158.5</ele>
        <time>2025-07-11T11:28:50+02:00</time>
      </trkpt>
      <trkpt lat="46.2551" lon="-0.17475">
        <ele>158.7</ele>
        <time>2025-07-11T11:28:51.001000+02:00</time>
      </trkpt>
      <trkpt lat="46.25512" lon="-0.17476">
        <ele>158.9</ele>
        <time>2025-07-11T11:28:52.002000+02:00</time>
      </trkpt>
      <trkpt lat="46.25518" lon="-0.17476">
        <ele>159.3</ele>
        <time>2025-07-11T11:28:54.001000+02:00</time>
      </trkpt>
      <trkpt lat="46.25523" lon="-0.17475">
        <ele>159.6</ele>
        <time>2025-07-11T11:28:56.001000+02:00</time>
      </trkpt>
      <trkpt lat="46.25525" lon="-0.17475">
        <ele>159.8</ele>
        <time>2025-07-11T11:28:57.001000+02:00</time>
      </trkpt>
      <trkpt lat="46.25528" lon="-0.17475">
        <ele>160</ele>
        <time>2025-07-11T11:28:58.002000+02:00</time>
      </trkpt>
      <trkpt lat="46.25531" lon="-0.17474">
        <ele>160</ele>
        <time>2025-07-11T11:28:59.002000+02:00</time>
      </trkpt>
      <trkpt lat="46.25533" lon="-0.17474">
        <ele>160</ele>
        <time>2025-07-11T11:29:00.002000+02:00</time>
      </trkpt>
      <trkpt lat="46.25538" lon="-0.17475">
        <ele>160</ele>
        <time>2025-07-11T11:29:02.001000+02:00</time>
      </trkpt>
      <trkpt lat="46.2554" lon="-0.17475">
        <ele>160</ele>
        <time>2025-07-11T11:29:03.002000+02:00</time>
      </trkpt>
      <trkpt lat="46.25546" lon="-0.17477">
        <ele>160</ele>
        <time>2025-07-11T11:29:05.001000+02:00</time>
      </trkpt>
      <trkpt lat="46.25549" lon="-0.17479">
        <ele>160</ele>
        <time>2025-07-11T11:29:06.002000+02:00</time>
      </trkpt>
      <trkpt lat="46.25553" lon="-0.17484">
        <ele>160</ele>
        <time>2025-07-11T11:29:08.002000+02:00</time>
      </trkpt>
      <trkpt lat="46.25554" lon="-0.17487">
        <ele>160</ele>
        <time>2025-07-11T11:29:09.002000+02:00</time>
      </trkpt>
      <trkpt lat="46.25555" lon="-0.1749">
        <ele>160</ele>
        <time>2025-07-11T11:29:10.002000+02:00</time>
      </trkpt>
      <trkpt lat="46.25558" lon="-0.17497">
        <ele>160</ele>
        <time>2025-07-11T11:29:12.002000+02:00</time>
      </trkpt>
      <trkpt lat="46.25559" lon="-0.175">
        <ele>160</ele>
        <time>2025-07-11T11:29:13.002000+02:00</time>
      </trkpt>
      <trkpt lat="46.25561" lon="-0.17506">
        <ele>160</ele>
        <time>2025-07-11T11:29:15.002000+02:00</time>
      </trkpt>
      <trkpt lat="46.25562" lon="-0.17509">
        <ele>160</ele>
        <time>2025-07-11T11:29:16.002000+02:00</time>
      </trkpt>
      <trkpt lat="46.25563" lon="-0.17512">
        <ele>160</ele>
        <time>2025-07-11T11:29:17.003000+02:00</time>
      </trkpt>
      <trkpt lat="46.25563" lon="-0.17518">
        <ele>160</ele>
        <time>2025-07-11T11:29:19+02:00</time>
      </trkpt>
      <trkpt lat="46.25563" lon="-0.17521">
        <ele>160</ele>
        <time>2025-07-11T11:29:20.001000+02:00</time>
      </trkpt>
      <trkpt lat="46.25564" lon="-0.17524">
        <ele>160</ele>
        <time>2025-07-11T11:29:21.002000+02:00</time>
      </trkpt>
      <trkpt lat="46.25566" lon="-0.17529">
        <ele>160</ele>
        <time>2025-07-11T11:29:23.003000+02:00</time>
      </trkpt>
      <trkpt lat="46.25567" lon="-0.17535">
        <ele>160</ele>
        <time>2025-07-11T11:29:25.003000+02:00</time>
      </trkpt>
      <trkpt lat="46.25568" lon="-0.17538">
        <ele>160</ele>
        <time>2025-07-11T11:29:26.003000+02:00</time>
      </trkpt>
      <trkpt lat="46.2557" lon="-0.17545">
        <ele>160</ele>
        <time>2025-07-11T11:29:28.002000+02:00</time>
      </trkpt>
      <trkpt lat="46.25571" lon="-0.17549">
        <ele>160</ele>
        <time>2025-07-11T11:29:29.003000+02:00</time>
      </trkpt>
      <trkpt lat="46.25573" lon="-0.17555">
        <ele>160</ele>
        <time>2025-07-11T11:29:31.001000+02:00</time>
      </trkpt>
      <trkpt lat="46.25574" lon="-0.17559">
        <ele>160</ele>
        <time>2025-07-11T11:29:32.008000+02:00</time>
      </trkpt>
      <trkpt lat="46.25575" lon="-0.17566">
        <ele>160</ele>
        <time>2025-07-11T11:29:34.001000+02:00</time>
      </trkpt>
      <trkpt lat="46.25576" lon="-0.17573">
        <ele>160</ele>
        <time>2025-07-11T11:29:36.003000+02:00</time>
      </trkpt>
      <trkpt lat="46.25578" lon="-0.1758">
        <ele>160</ele>
        <time>2025-07-11T11:29:38.002000+02:00</time>
      </trkpt>
      <trkpt lat="46.25579" lon="-0.17585">
        <ele>160</ele>
        <time>2025-07-11T11:29:39.002000+02:00</time>
      </trkpt>
      <trkpt lat="46.25581" lon="-0.17589">
        <ele>160</ele>
        <time>2025-07-11T11:29:40.002000+02:00</time>
      </trkpt>
      <trkpt lat="46.25582" lon="-0.17593">
        <ele>160</ele>
        <time>2025-07-11T11:29:41.002000+02:00</time>
      </trkpt>
      <trkpt lat="46.25583" lon="-0.17598">
        <ele>160</ele>
        <time>2025-07-11T11:29:42.002000+02:00</time>
      </trkpt>
      <trkpt lat="46.25584" lon="-0.17602">
        <ele>160</ele>
        <time>2025-07-11T11:29:43.003000+02:00</time>
      </trkpt>
      <trkpt lat="46.25586" lon="-0.1761">
        <ele>160</ele>
        <time>2025-07-11T11:29:45.002000+02:00</time>
      </trkpt>
      <trkpt lat="46.25588" lon="-0.17615">
        <ele>160</ele>
        <time>2025-07-11T11:29:46.004000+02:00</time>
      </trkpt>
      <trkpt lat="46.25591" lon="-0.17626">
        <ele>160</ele>
        <time>2025-07-11T11:29:48.001000+02:00</time>
      </trkpt>
      <trkpt lat="46.25593" lon="-0.17631">
        <ele>160</ele>
        <time>2025-07-11T11:29:49.002000+02:00</time>
      </trkpt>
      <trkpt lat="46.25597" lon="-0.17641">
        <ele>160</ele>
        <time>2025-07-11T11:29:51.002000+02:00</time>
      </trkpt>
      <trkpt lat="46.25599" lon="-0.17646">
        <ele>160</ele>
        <time>2025-07-11T11:29:52.003000+02:00</time>
      </trkpt>
      <trkpt lat="46.25604" lon="-0.1766">
        <ele>160</ele>
        <time>2025-07-11T11:29:54.002000+02:00</time>
      </trkpt>
      <trkpt lat="46.25607" lon="-0.17666">
        <ele>160</ele>
        <time>2025-07-11T11:29:55.003000+02:00</time>
      </trkpt>
      <trkpt lat="46.25611" lon="-0.17676">
        <ele>160</ele>
        <time>2025-07-11T11:29:57.002000+02:00</time>
      </trkpt>
      <trkpt lat="46.25612" lon="-0.17681">
        <ele>160</ele>
        <time>2025-07-11T11:29:58.002000+02:00</time>
      </trkpt>
      <trkpt lat="46.25614" lon="-0.17686">
        <ele>159.9</ele>
        <time>2025-07-11T11:29:59.003000+02:00</time>
      </trkpt>
      <trkpt lat="46.25615" lon="-0.17691">
        <ele>159.9</ele>
        <time>2025-07-11T11:30:00.003000+02:00</time>
      </trkpt>
      <trkpt lat="46.25617" lon="-0.17701">
        <ele>159.6</ele>
        <time>2025-07-11T11:30:02.002000+02:00</time>
      </trkpt>
      <trkpt lat="46.25618" lon="-0.17712">
        <ele>159.3</ele>
        <time>2025-07-11T11:30:04.002000+02:00</time>
      </trkpt>
      <trkpt lat="46.25618" lon="-0.17718">
        <ele>159.1</ele>
        <time>2025-07-11T11:30:05.002000+02:00</time>
      </trkpt>
      <trkpt lat="46.25618" lon="-0.17723">
        <ele>159</ele>
        <time>2025-07-11T11:30:06.002000+02:00</time>
      </trkpt>
      <trkpt lat="46.25618" lon="-0.17729">
        <ele>158.9</ele>
        <time>2025-07-11T11:30:07.002000+02:00</time>
      </trkpt>
      <trkpt lat="46.25617" lon="-0.17739">
        <ele>158.9</ele>
        <time>2025-07-11T11:30:09.001000+02:00</time>
      </trkpt>
      <trkpt lat="46.25616" lon="-0.17744">
        <ele>158.9</ele>
        <time>2025-07-11T11:30:10.001000+02:00</time>
      </trkpt>
      <trkpt lat="46.25615" lon="-0.1775">
        <ele>158.9</ele>
        <time>2025-07-11T11:30:11.001000+02:00</time>
      </trkpt>
      <trkpt lat="46.25614" lon="-0.1776">
        <ele>158.6</ele>
        <time>2025-07-11T11:30:13.001000+02:00</time>
      </trkpt>
      <trkpt lat="46.25613" lon="-0.17769">
        <ele>158.3</ele>
        <time>2025-07-11T11:30:15.002000+02:00</time>
      </trkpt>
      <trkpt lat="46.25612" lon="-0.17774">
        <ele>158.1</ele>
        <time>2025-07-11T11:30:16.002000+02:00</time>
      </trkpt>
      <trkpt lat="46.25612" lon="-0.17785">
        <ele>158</ele>
        <time>2025-07-11T11:30:18.002000+02:00</time>
      </trkpt>
      <trkpt lat="46.25611" lon="-0.17798">
        <ele>158</ele>
        <time>2025-07-11T11:30:20.002000+02:00</time>
      </trkpt>
      <trkpt lat="46.25611" lon="-0.17804">
        <ele>158</ele>
        <time>2025-07-11T11:30:21.002000+02:00</time>
      </trkpt>
      <trkpt lat="46.25611" lon="-0.1781">
        <ele>157.8</ele>
        <time>2025-07-11T11:30:22.002000+02:00</time>
      </trkpt>
      <trkpt lat="46.2561" lon="-0.17816">
        <ele>157.6</ele>
        <time>2025-07-11T11:30:23.002000+02:00</time>
      </trkpt>
      <trkpt lat="46.25609" lon="-0.17823">
        <ele>157.3</ele>
        <time>2025-07-11T11:30:24.002000+02:00</time>
      </trkpt>
      <trkpt lat="46.25609" lon="-0.1783">
        <ele>157</ele>
        <time>2025-07-11T11:30:25.002000+02:00</time>
      </trkpt>
      <trkpt lat="46.25608" lon="-0.17837">
        <ele>156.8</ele>
        <time>2025-07-11T11:30:26.002000+02:00</time>
      </trkpt>
      <trkpt lat="46.25607" lon="-0.17843">
        <ele>156.5</ele>
        <time>2025-07-11T11:30:27.003000+02:00</time>
      </trkpt>
      <trkpt lat="46.25605" lon="-0.17854">
        <ele>156.2</ele>
        <time>2025-07-11T11:30:29.002000+02:00</time>
      </trkpt>
      <trkpt lat="46.25604" lon="-0.17858">
        <ele>156.1</ele>
        <time>2025-07-11T11:30:30.002000+02:00</time>
      </trkpt>
      <trkpt lat="46.25603" lon="-0.17862">
        <ele>156</ele>
        <time>2025-07-11T11:30:31.002000+02:00</time>
      </trkpt>
      <trkpt lat="46.25602" lon="-0.17865">
        <ele>155.9</ele>
        <time>2025-07-11T11:30:32.002000+02:00</time>
      </trkpt>
      <trkpt lat="46.25601" lon="-0.17868">
        <ele>155.8</ele>
        <time>2025-07-11T11:30:33.003000+02:00</time>
      </trkpt>
      <trkpt lat="46.25601" lon="-0.17873">
        <ele>155.6</ele>
        <time>2025-07-11T11:30:35.002000+02:00</time>
      </trkpt>
      <trkpt lat="46.25601" lon="-0.17877">
        <ele>155.4</ele>
        <time>2025-07-11T11:30:36.003000+02:00</time>
      </trkpt>
      <trkpt lat="46.256" lon="-0.17888">
        <ele>155</ele>
        <time>2025-07-11T11:30:38.001000+02:00</time>
      </trkpt>
      <trkpt lat="46.256" lon="-0.17893">
        <ele>155</ele>
        <time>2025-07-11T11:30:39.005000+02:00</time>
      </trkpt>
      <trkpt lat="46.25599" lon="-0.17903">
        <ele>155</ele>
        <time>2025-07-11T11:30:41.002000+02:00</time>
      </trkpt>
      <trkpt lat="46.256" lon="-0.17916">
        <ele>155</ele>
        <time>2025-07-11T11:30:43.004000+02:00</time>
      </trkpt>
      <trkpt lat="46.256" lon="-0.17926">
        <ele>155</ele>
        <time>2025-07-11T11:30:45.002000+02:00</time>
      </trkpt>
      <trkpt lat="46.256" lon="-0.17936">
        <ele>155</ele>
        <time>2025-07-11T11:30:47.001000+02:00</time>
      </trkpt>
      <trkpt lat="46.256" lon="-0.17941">
        <ele>155</ele>
        <time>2025-07-11T11:30:48.002000+02:00</time>
      </trkpt>
      <trkpt lat="46.256" lon="-0.17947">
        <ele>155</ele>
        <time>2025-07-11T11:30:49.002000+02:00</time>
      </trkpt>
      <trkpt lat="46.256" lon="-0.17951">
        <ele>155</ele>
        <time>2025-07-11T11:30:50.002000+02:00</time>
      </trkpt>
      <trkpt lat="46.25599" lon="-0.17955">
        <ele>155</ele>
        <time>2025-07-11T11:30:51.002000+02:00</time>
      </trkpt>
      <trkpt lat="46.25597" lon="-0.1796">
        <ele>155</ele>
        <time>2025-07-11T11:30:52.002000+02:00</time>
      </trkpt>
      <trkpt lat="46.25595" lon="-0.17964">
        <ele>155</ele>
        <time>2025-07-11T11:30:53.002000+02:00</time>
      </trkpt>
      <trkpt lat="46.25594" lon="-0.17968">
        <ele>155</ele>
        <time>2025-07-11T11:30:54.002000+02:00</time>
      </trkpt>
      <trkpt lat="46.25592" lon="-0.17973">
        <ele>155</ele>
        <time>2025-07-11T11:30:55.002000+02:00</time>
      </trkpt>
      <trkpt lat="46.25589" lon="-0.1798">
        <ele>155</ele>
        <time>2025-07-11T11:30:56.002000+02:00</time>
      </trkpt>
      <trkpt lat="46.25587" lon="-0.17987">
        <ele>155</ele>
        <time>2025-07-11T11:30:57.002000+02:00</time>
      </trkpt>
      <trkpt lat="46.25585" lon="-0.17995">
        <ele>155</ele>
        <time>2025-07-11T11:30:58.002000+02:00</time>
      </trkpt>
      <trkpt lat="46.25583" lon="-0.18">
        <ele>155</ele>
        <time>2025-07-11T11:30:59.002000+02:00</time>
      </trkpt>
      <trkpt lat="46.25581" lon="-0.18008">
        <ele>155.2</ele>
        <time>2025-07-11T11:31:01.001000+02:00</time>
      </trkpt>
      <trkpt lat="46.25581" lon="-0.18013">
        <ele>155.4</ele>
        <time>2025-07-11T11:31:02.002000+02:00</time>
      </trkpt>
      <trkpt lat="46.25581" lon="-0.18018">
        <ele>155.5</ele>
        <time>2025-07-11T11:31:03.002000+02:00</time>
      </trkpt>
      <trkpt lat="46.25581" lon="-0.18023">
        <ele>155.7</ele>
        <time>2025-07-11T11:31:04.002000+02:00</time>
      </trkpt>
      <trkpt lat="46.25579" lon="-0.18034">
        <ele>155.8</ele>
        <time>2025-07-11T11:31:06.002000+02:00</time>
      </trkpt>
      <trkpt lat="46.25578" lon="-0.18039">
        <ele>155.8</ele>
        <time>2025-07-11T11:31:07.002000+02:00</time>
      </trkpt>
      <trkpt lat="46.25578" lon="-0.18044">
        <ele>155.8</ele>
        <time>2025-07-11T11:31:08.002000+02:00</time>
      </trkpt>
      <trkpt lat="46.25577" lon="-0.18048">
        <ele>155.8</ele>
        <time>2025-07-11T11:31:09.003000+02:00</time>
      </trkpt>
      <trkpt lat="46.25576" lon="-0.18057">
        <ele>155.7</ele>
        <time>2025-07-11T11:31:11.001000+02:00</time>
      </trkpt>
      <trkpt lat="46.25575" lon="-0.18063">
        <ele>155.7</ele>
        <time>2025-07-11T11:31:12.003000+02:00</time>
      </trkpt>
      <trkpt lat="46.25574" lon="-0.18074">
        <ele>155.7</ele>
        <time>2025-07-11T11:31:14+02:00</time>
      </trkpt>
      <trkpt lat="46.25574" lon="-0.1808">
        <ele>155.7</ele>
        <time>2025-07-11T11:31:15.001000+02:00</time>
      </trkpt>
      <trkpt lat="46.25574" lon="-0.18086">
        <ele>155.7</ele>
        <time>2025-07-11T11:31:16.003000+02:00</time>
      </trkpt>
      <trkpt lat="46.25575" lon="-0.18097">
        <ele>155.7</ele>
        <time>2025-07-11T11:31:18.004000+02:00</time>
      </trkpt>
      <trkpt lat="46.25575" lon="-0.18108">
        <ele>155.7</ele>
        <time>2025-07-11T11:31:20.002000+02:00</time>
      </trkpt>
      <trkpt lat="46.25574" lon="-0.18117">
        <ele>155.5</ele>
        <time>2025-07-11T11:31:22.003000+02:00</time>
      </trkpt>
      <trkpt lat="46.25572" lon="-0.18129">
        <ele>155.2</ele>
        <time>2025-07-11T11:31:24.002000+02:00</time>
      </trkpt>
      <trkpt lat="46.25571" lon="-0.18134">
        <ele>155.1</ele>
        <time>2025-07-11T11:31:25.002000+02:00</time>
      </trkpt>
      <trkpt lat="46.25569" lon="-0.18144">
        <ele>155</ele>
        <time>2025-07-11T11:31:27.001000+02:00</time>
      </trkpt>
      <trkpt lat="46.25568" lon="-0.18148">
        <ele>155</ele>
        <time>2025-07-11T11:31:28.001000+02:00</time>
      </trkpt>
      <trkpt lat="46.25566" lon="-0.18157">
        <ele>155</ele>
        <time>2025-07-11T11:31:30.006000+02:00</time>
      </trkpt>
      <trkpt lat="46.25565" lon="-0.18165">
        <ele>155</ele>
        <time>2025-07-11T11:31:32.001000+02:00</time>
      </trkpt>
      <trkpt lat="46.25565" lon="-0.1817">
        <ele>155</ele>
        <time>2025-07-11T11:31:33.003000+02:00</time>
      </trkpt>
      <trkpt lat="46.25563" lon="-0.1818">
        <ele>155</ele>
        <time>2025-07-11T11:31:35.001000+02:00</time>
      </trkpt>
      <trkpt lat="46.25563" lon="-0.18183">
        <ele>155</ele>
        <time>2025-07-11T11:31:36.001000+02:00</time>
      </trkpt>
      <trkpt lat="46.25562" lon="-0.18189">
        <ele>155</ele>
        <time>2025-07-11T11:31:37.001000+02:00</time>
      </trkpt>
      <trkpt lat="46.25558" lon="-0.18193">
        <ele>155</ele>
        <time>2025-07-11T11:31:38.002000+02:00</time>
      </trkpt>
      <trkpt lat="46.25556" lon="-0.18198">
        <ele>155</ele>
        <time>2025-07-11T11:31:39.002000+02:00</time>
      </trkpt>
      <trkpt lat="46.25555" lon="-0.18202">
        <ele>155</ele>
        <time>2025-07-11T11:31:40.003000+02:00</time>
      </trkpt>
      <trkpt lat="46.25552" lon="-0.18208">
        <ele>154.9</ele>
        <time>2025-07-11T11:31:42.002000+02:00</time>
      </trkpt>
      <trkpt lat="46.2555" lon="-0.18216">
        <ele>155</ele>
        <time>2025-07-11T11:31:44+02:00</time>
      </trkpt>
      <trkpt lat="46.25549" lon="-0.18219">
        <ele>155</ele>
        <time>2025-07-11T11:31:45.001000+02:00</time>
      </trkpt>
      <trkpt lat="46.25548" lon="-0.18222">
        <ele>155</ele>
        <time>2025-07-11T11:31:46.001000+02:00</time>
      </trkpt>
      <trkpt lat="46.25549" lon="-0.18227">
        <ele>155</ele>
        <time>2025-07-11T11:31:48.001000+02:00</time>
      </trkpt>
      <trkpt lat="46.25551" lon="-0.18229">
        <ele>155</ele>
        <time>2025-07-11T11:31:49.001000+02:00</time>
      </trkpt>
      <trkpt lat="46.25554" lon="-0.18231">
        <ele>155</ele>
        <time>2025-07-11T11:31:51.003000+02:00</time>
      </trkpt>
      <trkpt lat="46.2556" lon="-0.18232">
        <ele>154.9</ele>
        <time>2025-07-11T11:31:53.001000+02:00</time>
      </trkpt>
      <trkpt lat="46.25563" lon="-0.18232">
        <ele>154.9</ele>
        <time>2025-07-11T11:31:54.001000+02:00</time>
      </trkpt>
      <trkpt lat="46.25567" lon="-0.18231">
        <ele>154.9</ele>
        <time>2025-07-11T11:31:55.002000+02:00</time>
      </trkpt>
      <trkpt lat="46.25575" lon="-0.1823">
        <ele>154.8</ele>
        <time>2025-07-11T11:31:57+02:00</time>
      </trkpt>
      <trkpt lat="46.25579" lon="-0.1823">
        <ele>154.8</ele>
        <time>2025-07-11T11:31:58.001000+02:00</time>
      </trkpt>
      <trkpt lat="46.25583" lon="-0.18229">
        <ele>154.8</ele>
        <time>2025-07-11T11:31:59.001000+02:00</time>
      </trkpt>
      <trkpt lat="46.25592" lon="-0.18227">
        <ele>154.6</ele>
        <time>2025-07-11T11:32:01.002000+02:00</time>
      </trkpt>
      <trkpt lat="46.25597" lon="-0.18226">
        <ele>154.4</ele>
        <time>2025-07-11T11:32:02.002000+02:00</time>
      </trkpt>
      <trkpt lat="46.25602" lon="-0.18226">
        <ele>154.3</ele>
        <time>2025-07-11T11:32:03.002000+02:00</time>
      </trkpt>
      <trkpt lat="46.25606" lon="-0.18226">
        <ele>154.1</ele>
        <time>2025-07-11T11:32:04.003000+02:00</time>
      </trkpt>
      <trkpt lat="46.25617" lon="-0.18228">
        <ele>153.8</ele>
        <time>2025-07-11T11:32:06.004000+02:00</time>
      </trkpt>
      <trkpt lat="46.25627" lon="-0.18233">
        <ele>153.4</ele>
        <time>2025-07-11T11:32:08.002000+02:00</time>
      </trkpt>
      <trkpt lat="46.25632" lon="-0.18236">
        <ele>153.2</ele>
        <time>2025-07-11T11:32:09.007000+02:00</time>
      </trkpt>
      <trkpt lat="46.25642" lon="-0.18245">
        <ele>152.8</ele>
        <time>2025-07-11T11:32:11.003000+02:00</time>
      </trkpt>
      <trkpt lat="46.25652" lon="-0.18256">
        <ele>152</ele>
        <time>2025-07-11T11:32:13.002000+02:00</time>
      </trkpt>
      <trkpt lat="46.25658" lon="-0.18261">
        <ele>151.6</ele>
        <time>2025-07-11T11:32:14.002000+02:00</time>
      </trkpt>
      <trkpt lat="46.25664" lon="-0.18266">
        <ele>151.2</ele>
        <time>2025-07-11T11:32:15.004000+02:00</time>
      </trkpt>
      <trkpt lat="46.25676" lon="-0.18278">
        <ele>150.6</ele>
        <time>2025-07-11T11:32:17.002000+02:00</time>
      </trkpt>
      <trkpt lat="46.25683" lon="-0.18283">
        <ele>150.3</ele>
        <time>2025-07-11T11:32:18.002000+02:00</time>
      </trkpt>
      <trkpt lat="46.25698" lon="-0.18291">
        <ele>149.4</ele>
        <time>2025-07-11T11:32:20.001000+02:00</time>
      </trkpt>
      <trkpt lat="46.25706" lon="-0.18295">
        <ele>149</ele>
        <time>2025-07-11T11:32:21.001000+02:00</time>
      </trkpt>
      <trkpt lat="46.25714" lon="-0.18298">
        <ele>148.6</ele>
        <time>2025-07-11T11:32:22.001000+02:00</time>
      </trkpt>
      <trkpt lat="46.25722" lon="-0.18302">
        <ele>148.1</ele>
        <time>2025-07-11T11:32:23.002000+02:00</time>
      </trkpt>
      <trkpt lat="46.25739" lon="-0.18309">
        <ele>147.3</ele>
        <time>2025-07-11T11:32:25.001000+02:00</time>
      </trkpt>
      <trkpt lat="46.25746" lon="-0.18313">
        <ele>146.9</ele>
        <time>2025-07-11T11:32:26.001000+02:00</time>
      </trkpt>
      <trkpt lat="46.25753" lon="-0.18317">
        <ele>146.5</ele>
        <time>2025-07-11T11:32:27.003000+02:00</time>
      </trkpt>
      <trkpt lat="46.2576" lon="-0.1832">
        <ele>146.1</ele>
        <time>2025-07-11T11:32:28.003000+02:00</time>
      </trkpt>
      <trkpt lat="46.25773" lon="-0.18325">
        <ele>145.5</ele>
        <time>2025-07-11T11:32:30.002000+02:00</time>
      </trkpt>
      <trkpt lat="46.25779" lon="-0.18327">
        <ele>145.2</ele>
        <time>2025-07-11T11:32:31.003000+02:00</time>
      </trkpt>
      <trkpt lat="46.25784" lon="-0.18327">
        <ele>145</ele>
        <time>2025-07-11T11:32:32.003000+02:00</time>
      </trkpt>
      <trkpt lat="46.25792" lon="-0.18331">
        <ele>144.6</ele>
        <time>2025-07-11T11:32:34.001000+02:00</time>
      </trkpt>
      <trkpt lat="46.25796" lon="-0.18335">
        <ele>144.4</ele>
        <time>2025-07-11T11:32:35.003000+02:00</time>
      </trkpt>
      <trkpt lat="46.25799" lon="-0.18345">
        <ele>144.2</ele>
        <time>2025-07-11T11:32:37.001000+02:00</time>
      </trkpt>
      <trkpt lat="46.25799" lon="-0.18352">
        <ele>144.2</ele>
        <time>2025-07-11T11:32:38.003000+02:00</time>
      </trkpt>
      <trkpt lat="46.25798" lon="-0.18366">
        <ele>144.2</ele>
        <time>2025-07-11T11:32:40.001000+02:00</time>
      </trkpt>
      <trkpt lat="46.25798" lon="-0.18374">
        <ele>144.1</ele>
        <time>2025-07-11T11:32:41.001000+02:00</time>
      </trkpt>
      <trkpt lat="46.25799" lon="-0.18381">
        <ele>144.1</ele>
        <time>2025-07-11T11:32:42.001000+02:00</time>
      </trkpt>
      <trkpt lat="46.25799" lon="-0.18388">
        <ele>144</ele>
        <time>2025-07-11T11:32:43.001000+02:00</time>
      </trkpt>
      <trkpt lat="46.25801" lon="-0.18395">
        <ele>144</ele>
        <time>2025-07-11T11:32:44.002000+02:00</time>
      </trkpt>
      <trkpt lat="46.25806" lon="-0.18409">
        <ele>144</ele>
        <time>2025-07-11T11:32:46.001000+02:00</time>
      </trkpt>
      <trkpt lat="46.2581" lon="-0.18423">
        <ele>143.9</ele>
        <time>2025-07-11T11:32:48.002000+02:00</time>
      </trkpt>
      <trkpt lat="46.25813" lon="-0.18438">
        <ele>143.7</ele>
        <time>2025-07-11T11:32:50.001000+02:00</time>
      </trkpt>
      <trkpt lat="46.25815" lon="-0.18446">
        <ele>143.6</ele>
        <time>2025-07-11T11:32:51.001000+02:00</time>
      </trkpt>
      <trkpt lat="46.25817" lon="-0.18453">
        <ele>143.6</ele>
        <time>2025-07-11T11:32:52.001000+02:00</time>
      </trkpt>
      <trkpt lat="46.25819" lon="-0.1846">
        <ele>143.5</ele>
        <time>2025-07-11T11:32:53.002000+02:00</time>
      </trkpt>
      <trkpt lat="46.25822" lon="-0.18474">
        <ele>143.4</ele>
        <time>2025-07-11T11:32:55+02:00</time>
      </trkpt>
      <trkpt lat="46.25823" lon="-0.18481">
        <ele>143.3</ele>
        <time>2025-07-11T11:32:56.001000+02:00</time>
      </trkpt>
      <trkpt lat="46.25824" lon="-0.18488">
        <ele>143.1</ele>
        <time>2025-07-11T11:32:57.002000+02:00</time>
      </trkpt>
      <trkpt lat="46.25826" lon="-0.18502">
        <ele>143</ele>
        <time>2025-07-11T11:32:59.001000+02:00</time>
      </trkpt>
      <trkpt lat="46.25828" lon="-0.18508">
        <ele>143</ele>
        <time>2025-07-11T11:33:00.001000+02:00</time>
      </trkpt>
      <trkpt lat="46.25828" lon="-0.18515">
        <ele>143</ele>
        <time>2025-07-11T11:33:01.002000+02:00</time>
      </trkpt>
      <trkpt lat="46.2583" lon="-0.18521">
        <ele>143</ele>
        <time>2025-07-11T11:33:02.002000+02:00</time>
      </trkpt>
      <trkpt lat="46.25831" lon="-0.18528">
        <ele>143</ele>
        <time>2025-07-11T11:33:03.002000+02:00</time>
      </trkpt>
      <trkpt lat="46.25832" lon="-0.18534">
        <ele>143</ele>
        <time>2025-07-11T11:33:04.003000+02:00</time>
      </trkpt>
      <trkpt lat="46.25834" lon="-0.18547">
        <ele>143</ele>
        <time>2025-07-11T11:33:06.002000+02:00</time>
      </trkpt>
      <trkpt lat="46.25835" lon="-0.18554">
        <ele>143</ele>
        <time>2025-07-11T11:33:07.003000+02:00</time>
      </trkpt>
      <trkpt lat="46.25836" lon="-0.18569">
        <ele>142.9</ele>
        <time>2025-07-11T11:33:09.004000+02:00</time>
      </trkpt>
      <trkpt lat="46.25839" lon="-0.18584">
        <ele>142.8</ele>
        <time>2025-07-11T11:33:11.001000+02:00</time>
      </trkpt>
      <trkpt lat="46.2584" lon="-0.18591">
        <ele>142.8</ele>
        <time>2025-07-11T11:33:12.002000+02:00</time>
      </trkpt>
      <trkpt lat="46.25841" lon="-0.18598">
        <ele>142.7</ele>
        <time>2025-07-11T11:33:13.002000+02:00</time>
      </trkpt>
      <trkpt lat="46.25842" lon="-0.18605">
        <ele>142.7</ele>
        <time>2025-07-11T11:33:14.003000+02:00</time>
      </trkpt>
      <trkpt lat="46.25844" lon="-0.1862">
        <ele>142.7</ele>
        <time>2025-07-11T11:33:16.001000+02:00</time>
      </trkpt>
      <trkpt lat="46.25844" lon="-0.18627">
        <ele>142.8</ele>
        <time>2025-07-11T11:33:17.001000+02:00</time>
      </trkpt>
      <trkpt lat="46.25844" lon="-0.18641">
        <ele>143</ele>
        <time>2025-07-11T11:33:19.001000+02:00</time>
      </trkpt>
      <trkpt lat="46.25844" lon="-0.18648">
        <ele>143</ele>
        <time>2025-07-11T11:33:20.002000+02:00</time>
      </trkpt>
      <trkpt lat="46.25844" lon="-0.18655">
        <ele>143</ele>
        <time>2025-07-11T11:33:21.002000+02:00</time>
      </trkpt>
      <trkpt lat="46.25844" lon="-0.18661">
        <ele>143</ele>
        <time>2025-07-11T11:33:22.002000+02:00</time>
      </trkpt>
      <trkpt lat="46.25843" lon="-0.18668">
        <ele>143</ele>
        <time>2025-07-11T11:33:23.002000+02:00</time>
      </trkpt>
      <trkpt lat="46.25843" lon="-0.18674">
        <ele>143.2</ele>
        <time>2025-07-11T11:33:24.003000+02:00</time>
      </trkpt>
      <trkpt lat="46.25843" lon="-0.18686">
        <ele>143.5</ele>
        <time>2025-07-11T11:33:26.002000+02:00</time>
      </trkpt>
      <trkpt lat="46.25842" lon="-0.18692">
        <ele>143.6</ele>
        <time>2025-07-11T11:33:27.002000+02:00</time>
      </trkpt>
      <trkpt lat="46.25842" lon="-0.18698">
        <ele>143.7</ele>
        <time>2025-07-11T11:33:28.002000+02:00</time>
      </trkpt>
      <trkpt lat="46.25842" lon="-0.18709">
        <ele>143.9</ele>
        <time>2025-07-11T11:33:30.002000+02:00</time>
      </trkpt>
      <trkpt lat="46.25841" lon="-0.18719">
        <ele>144</ele>
        <time>2025-07-11T11:33:32.002000+02:00</time>
      </trkpt>
      <trkpt lat="46.2584" lon="-0.18724">
        <ele>144.1</ele>
        <time>2025-07-11T11:33:33.004000+02:00</time>
      </trkpt>
      <trkpt lat="46.25839" lon="-0.18732">
        <ele>144.3</ele>
        <time>2025-07-11T11:33:35.001000+02:00</time>
      </trkpt>
      <trkpt lat="46.2584" lon="-0.18736">
        <ele>144.5</ele>
        <time>2025-07-11T11:33:36.004000+02:00</time>
      </trkpt>
      <trkpt lat="46.25841" lon="-0.18738">
        <ele>144.6</ele>
        <time>2025-07-11T11:33:37.004000+02:00</time>
      </trkpt>
      <trkpt lat="46.25845" lon="-0.18739">
        <ele>144.6</ele>
        <time>2025-07-11T11:33:39.003000+02:00</time>
      </trkpt>
      <trkpt lat="46.25848" lon="-0.18736">
        <ele>144.5</ele>
        <time>2025-07-11T11:33:41.002000+02:00</time>
      </trkpt>
      <trkpt lat="46.25853" lon="-0.18734">
        <ele>144.4</ele>
        <time>2025-07-11T11:33:43.003000+02:00</time>
      </trkpt>
      <trkpt lat="46.25858" lon="-0.18732">
        <ele>144.3</ele>
        <time>2025-07-11T11:33:45.002000+02:00</time>
      </trkpt>
      <trkpt lat="46.25861" lon="-0.18731">
        <ele>144.3</ele>
        <time>2025-07-11T11:33:46.005000+02:00</time>
      </trkpt>
      <trkpt lat="46.25865" lon="-0.18728">
        <ele>144.2</ele>
        <time>2025-07-11T11:33:48.002000+02:00</time>
      </trkpt>
      <trkpt lat="46.25867" lon="-0.18726">
        <ele>144.1</ele>
        <time>2025-07-11T11:33:49.002000+02:00</time>
      </trkpt>
      <trkpt lat="46.25869" lon="-0.18725">
        <ele>144.1</ele>
        <time>2025-07-11T11:33:50.002000+02:00</time>
      </trkpt>
      <trkpt lat="46.25871" lon="-0.18723">
        <ele>144</ele>
        <time>2025-07-11T11:33:51.003000+02:00</time>
      </trkpt>
      <trkpt lat="46.25876" lon="-0.18718">
        <ele>143.9</ele>
        <time>2025-07-11T11:33:53.001000+02:00</time>
      </trkpt>
      <trkpt lat="46.25879" lon="-0.18715">
        <ele>143.9</ele>
        <time>2025-07-11T11:33:54.002000+02:00</time>
      </trkpt>
      <trkpt lat="46.25883" lon="-0.18713">
        <ele>143.9</ele>
        <time>2025-07-11T11:33:55.002000+02:00</time>
      </trkpt>
      <trkpt lat="46.25889" lon="-0.18708">
        <ele>144</ele>
        <time>2025-07-11T11:33:57.003000+02:00</time>
      </trkpt>
      <trkpt lat="46.25891" lon="-0.18706">
        <ele>143.9</ele>
        <time>2025-07-11T11:33:58.003000+02:00</time>
      </trkpt>
      <trkpt lat="46.25896" lon="-0.187">
        <ele>143.8</ele>
        <time>2025-07-11T11:34:00.003000+02:00</time>
      </trkpt>
      <trkpt lat="46.25903" lon="-0.18693">
        <ele>143.5</ele>
        <time>2025-07-11T11:34:02.002000+02:00</time>
      </trkpt>
      <trkpt lat="46.25907" lon="-0.1869">
        <ele>143.3</ele>
        <time>2025-07-11T11:34:03.003000+02:00</time>
      </trkpt>
      <trkpt lat="46.2591" lon="-0.18686">
        <ele>143.2</ele>
        <time>2025-07-11T11:34:04.003000+02:00</time>
      </trkpt>
      <trkpt lat="46.25916" lon="-0.18677">
        <ele>143</ele>
        <time>2025-07-11T11:34:06.002000+02:00</time>
      </trkpt>
      <trkpt lat="46.2592" lon="-0.18673">
        <ele>142.9</ele>
        <time>2025-07-11T11:34:07.003000+02:00</time>
      </trkpt>
      <trkpt lat="46.25924" lon="-0.18669">
        <ele>142.7</ele>
        <time>2025-07-11T11:34:08.003000+02:00</time>
      </trkpt>
      <trkpt lat="46.25928" lon="-0.18665">
        <ele>142.6</ele>
        <time>2025-07-11T11:34:09.003000+02:00</time>
      </trkpt>
      <trkpt lat="46.25936" lon="-0.18657">
        <ele>142.3</ele>
        <time>2025-07-11T11:34:11.002000+02:00</time>
      </trkpt>
      <trkpt lat="46.25939" lon="-0.18653">
        <ele>142.2</ele>
        <time>2025-07-11T11:34:12.002000+02:00</time>
      </trkpt>
      <trkpt lat="46.25946" lon="-0.18645">
        <ele>142</ele>
        <time>2025-07-11T11:34:14.002000+02:00</time>
      </trkpt>
      <trkpt lat="46.25949" lon="-0.18641">
        <ele>141.8</ele>
        <time>2025-07-11T11:34:15.003000+02:00</time>
      </trkpt>
      <trkpt lat="46.25955" lon="-0.18634">
        <ele>141.5</ele>
        <time>2025-07-11T11:34:17.002000+02:00</time>
      </trkpt>
      <trkpt lat="46.25958" lon="-0.1863">
        <ele>141.4</ele>
        <time>2025-07-11T11:34:18.002000+02:00</time>
      </trkpt>
      <trkpt lat="46.25961" lon="-0.18627">
        <ele>141.2</ele>
        <time>2025-07-11T11:34:19.002000+02:00</time>
      </trkpt>
      <trkpt lat="46.25964" lon="-0.18623">
        <ele>141.1</ele>
        <time>2025-07-11T11:34:20.003000+02:00</time>
      </trkpt>
      <trkpt lat="46.25968" lon="-0.1862">
        <ele>141.1</ele>
        <time>2025-07-11T11:34:21.004000+02:00</time>
      </trkpt>
      <trkpt lat="46.25977" lon="-0.18617">
        <ele>141</ele>
        <time>2025-07-11T11:34:23.002000+02:00</time>
      </trkpt>
      <trkpt lat="46.25981" lon="-0.18617">
        <ele>141</ele>
        <time>2025-07-11T11:34:24.003000+02:00</time>
      </trkpt>
      <trkpt lat="46.25985" lon="-0.18616">
        <ele>141</ele>
        <time>2025-07-11T11:34:25.003000+02:00</time>
      </trkpt>
      <trkpt lat="46.25989" lon="-0.18616">
        <ele>141</ele>
        <time>2025-07-11T11:34:26.003000+02:00</time>
      </trkpt>
      <trkpt lat="46.25994" lon="-0.18616">
        <ele>141</ele>
        <time>2025-07-11T11:34:27.003000+02:00</time>
      </trkpt>
      <trkpt lat="46.25999" lon="-0.18618">
        <ele>141</ele>
        <time>2025-07-11T11:34:28.003000+02:00</time>
      </trkpt>
      <trkpt lat="46.26008" lon="-0.1862">
        <ele>140.9</ele>
        <time>2025-07-11T11:34:30.003000+02:00</time>
      </trkpt>
      <trkpt lat="46.26017" lon="-0.18621">
        <ele>140.8</ele>
        <time>2025-07-11T11:34:32.001000+02:00</time>
      </trkpt>
      <trkpt lat="46.26021" lon="-0.18621">
        <ele>140.7</ele>
        <time>2025-07-11T11:34:33.003000+02:00</time>
      </trkpt>
      <trkpt lat="46.26026" lon="-0.18622">
        <ele>140.7</ele>
        <time>2025-07-11T11:34:34.003000+02:00</time>
      </trkpt>
      <trkpt lat="46.26034" lon="-0.18622">
        <ele>140.8</ele>
        <time>2025-07-11T11:34:36.002000+02:00</time>
      </trkpt>
      <trkpt lat="46.26039" lon="-0.18623">
        <ele>141</ele>
        <time>2025-07-11T11:34:37.003000+02:00</time>
      </trkpt>
      <trkpt lat="46.26043" lon="-0.18624">
        <ele>141.1</ele>
        <time>2025-07-11T11:34:38.003000+02:00</time>
      </trkpt>
      <trkpt lat="46.26046" lon="-0.18625">
        <ele>141.2</ele>
        <time>2025-07-11T11:34:39.003000+02:00</time>
      </trkpt>
      <trkpt lat="46.26053" lon="-0.18626">
        <ele>141.4</ele>
        <time>2025-07-11T11:34:41.003000+02:00</time>
      </trkpt>
      <trkpt lat="46.2606" lon="-0.18626">
        <ele>141.5</ele>
        <time>2025-07-11T11:34:43.002000+02:00</time>
      </trkpt>
      <trkpt lat="46.26063" lon="-0.18627">
        <ele>141.4</ele>
        <time>2025-07-11T11:34:44.002000+02:00</time>
      </trkpt>
      <trkpt lat="46.26067" lon="-0.18627">
        <ele>141.4</ele>
        <time>2025-07-11T11:34:45.003000+02:00</time>
      </trkpt>
      <trkpt lat="46.26073" lon="-0.18628">
        <ele>141.4</ele>
        <time>2025-07-11T11:34:47.002000+02:00</time>
      </trkpt>
      <trkpt lat="46.2608" lon="-0.18627">
        <ele>141.4</ele>
        <time>2025-07-11T11:34:49.005000+02:00</time>
      </trkpt>
      <trkpt lat="46.26087" lon="-0.18627">
        <ele>141.6</ele>
        <time>2025-07-11T11:34:51.003000+02:00</time>
      </trkpt>
      <trkpt lat="46.26094" lon="-0.18627">
        <ele>141.8</ele>
        <time>2025-07-11T11:34:53.002000+02:00</time>
      </trkpt>
      <trkpt lat="46.26101" lon="-0.18626">
        <ele>142.1</ele>
        <time>2025-07-11T11:34:55.001000+02:00</time>
      </trkpt>
      <trkpt lat="46.26104" lon="-0.18626">
        <ele>142.2</ele>
        <time>2025-07-11T11:34:56.001000+02:00</time>
      </trkpt>
      <trkpt lat="46.26107" lon="-0.18626">
        <ele>142.3</ele>
        <time>2025-07-11T11:34:57.002000+02:00</time>
      </trkpt>
      <trkpt lat="46.26114" lon="-0.18627">
        <ele>142.5</ele>
        <time>2025-07-11T11:34:59.001000+02:00</time>
      </trkpt>
      <trkpt lat="46.26117" lon="-0.18627">
        <ele>142.6</ele>
        <time>2025-07-11T11:35:00.001000+02:00</time>
      </trkpt>
      <trkpt lat="46.2612" lon="-0.18627">
        <ele>142.6</ele>
        <time>2025-07-11T11:35:01.001000+02:00</time>
      </trkpt>
      <trkpt lat="46.26123" lon="-0.18628">
        <ele>142.6</ele>
        <time>2025-07-11T11:35:02.002000+02:00</time>
      </trkpt>
      <trkpt lat="46.26124" lon="-0.18629">
        <ele>142.7</ele>
        <time>2025-07-11T11:35:03.002000+02:00</time>
      </trkpt>
      <trkpt lat="46.26125" lon="-0.18629">
        <ele>142.7</ele>
        <time>2025-07-11T11:35:05.002000+02:00</time>
      </trkpt>
      <trkpt lat="46.26125" lon="-0.1863">
        <ele>142.7</ele>
        <time>2025-07-11T11:35:07.001000+02:00</time>
      </trkpt>
      <trkpt lat="46.26125" lon="-0.1863">
        <ele>142.7</ele>
        <time>2025-07-11T11:35:08.002000+02:00</time>
      </trkpt>
      <trkpt lat="46.26125" lon="-0.1863">
        <ele>142.7</ele>
        <time>2025-07-11T11:35:09.002000+02:00</time>
      </trkpt>
      <trkpt lat="46.26125" lon="-0.1863">
        <ele>142.7</ele>
        <time>2025-07-11T11:35:11.001000+02:00</time>
      </trkpt>
      <trkpt lat="46.26125" lon="-0.1863">
        <ele>142.7</ele>
        <time>2025-07-11T11:35:14.001000+02:00</time>
      </trkpt>
      <trkpt lat="46.26126" lon="-0.18638">
        <ele>142.6</ele>
        <time>2025-07-11T11:35:21.003000+02:00</time>
      </trkpt>
      <trkpt lat="46.26126" lon="-0.18648">
        <ele>141.9</ele>
        <time>2025-07-11T11:35:23.002000+02:00</time>
      </trkpt>
      <trkpt lat="46.26126" lon="-0.18659">
        <ele>141.1</ele>
        <time>2025-07-11T11:35:25.002000+02:00</time>
      </trkpt>
      <trkpt lat="46.26125" lon="-0.18671">
        <ele>140.3</ele>
        <time>2025-07-11T11:35:27.002000+02:00</time>
      </trkpt>
      <trkpt lat="46.26124" lon="-0.18676">
        <ele>140.1</ele>
        <time>2025-07-11T11:35:28.002000+02:00</time>
      </trkpt>
      <trkpt lat="46.26124" lon="-0.18687">
        <ele>139.7</ele>
        <time>2025-07-11T11:35:30+02:00</time>
      </trkpt>
      <trkpt lat="46.26123" lon="-0.18693">
        <ele>139.5</ele>
        <time>2025-07-11T11:35:31.001000+02:00</time>
      </trkpt>
      <trkpt lat="46.26122" lon="-0.18698">
        <ele>138.9</ele>
        <time>2025-07-11T11:35:32.002000+02:00</time>
      </trkpt>
      <trkpt lat="46.26122" lon="-0.18709">
        <ele>137.6</ele>
        <time>2025-07-11T11:35:34.001000+02:00</time>
      </trkpt>
      <trkpt lat="46.26122" lon="-0.18714">
        <ele>137</ele>
        <time>2025-07-11T11:35:35.001000+02:00</time>
      </trkpt>
      <trkpt lat="46.26122" lon="-0.18719">
        <ele>136.3</ele>
        <time>2025-07-11T11:35:36.002000+02:00</time>
      </trkpt>
      <trkpt lat="46.2612" lon="-0.1873">
        <ele>135</ele>
        <time>2025-07-11T11:35:38.001000+02:00</time>
      </trkpt>
      <trkpt lat="46.2612" lon="-0.18735">
        <ele>134.4</ele>
        <time>2025-07-11T11:35:39.010000+02:00</time>
      </trkpt>
      <trkpt lat="46.26122" lon="-0.18749">
        <ele>132.9</ele>
        <time>2025-07-11T11:35:41.001000+02:00</time>
      </trkpt>
      <trkpt lat="46.26122" lon="-0.18754">
        <ele>132.6</ele>
        <time>2025-07-11T11:35:42.002000+02:00</time>
      </trkpt>
      <trkpt lat="46.2612" lon="-0.18765">
        <ele>131.6</ele>
        <time>2025-07-11T11:35:44.001000+02:00</time>
      </trkpt>
      <trkpt lat="46.26118" lon="-0.18773">
        <ele>130.8</ele>
        <time>2025-07-11T11:35:45.002000+02:00</time>
      </trkpt>
      <trkpt lat="46.26112" lon="-0.18792">
        <ele>129.5</ele>
        <time>2025-07-11T11:35:47.002000+02:00</time>
      </trkpt>
      <trkpt lat="46.26105" lon="-0.18811">
        <ele>128.6</ele>
        <time>2025-07-11T11:35:49.002000+02:00</time>
      </trkpt>
      <trkpt lat="46.26101" lon="-0.1882">
        <ele>128.1</ele>
        <time>2025-07-11T11:35:50.002000+02:00</time>
      </trkpt>
      <trkpt lat="46.26098" lon="-0.18829">
        <ele>127.7</ele>
        <time>2025-07-11T11:35:51.002000+02:00</time>
      </trkpt>
      <trkpt lat="46.26091" lon="-0.18848">
        <ele>127.1</ele>
        <time>2025-07-11T11:35:53.001000+02:00</time>
      </trkpt>
      <trkpt lat="46.26088" lon="-0.18857">
        <ele>127</ele>
        <time>2025-07-11T11:35:54.001000+02:00</time>
      </trkpt>
      <trkpt lat="46.26088" lon="-0.18866">
        <ele>127</ele>
        <time>2025-07-11T11:35:55.001000+02:00</time>
      </trkpt>
      <trkpt lat="46.26088" lon="-0.18874">
        <ele>127</ele>
        <time>2025-07-11T11:35:56.001000+02:00</time>
      </trkpt>
      <trkpt lat="46.26088" lon="-0.18882">
        <ele>127</ele>
        <time>2025-07-11T11:35:57.001000+02:00</time>
      </trkpt>
      <trkpt lat="46.26088" lon="-0.18899">
        <ele>126.7</ele>
        <time>2025-07-11T11:35:59+02:00</time>
      </trkpt>
      <trkpt lat="46.26088" lon="-0.18908">
        <ele>126.4</ele>
        <time>2025-07-11T11:36:00.004000+02:00</time>
      </trkpt>
      <trkpt lat="46.26088" lon="-0.18924">
        <ele>126.2</ele>
        <time>2025-07-11T11:36:02.001000+02:00</time>
      </trkpt>
      <trkpt lat="46.26087" lon="-0.18931">
        <ele>126.1</ele>
        <time>2025-07-11T11:36:03.002000+02:00</time>
      </trkpt>
      <trkpt lat="46.26086" lon="-0.18946">
        <ele>126.1</ele>
        <time>2025-07-11T11:36:05.001000+02:00</time>
      </trkpt>
      <trkpt lat="46.26087" lon="-0.18961">
        <ele>126.1</ele>
        <time>2025-07-11T11:36:07+02:00</time>
      </trkpt>
      <trkpt lat="46.26089" lon="-0.18967">
        <ele>126.2</ele>
        <time>2025-07-11T11:36:08.001000+02:00</time>
      </trkpt>
      <trkpt lat="46.26091" lon="-0.18974">
        <ele>126.3</ele>
        <time>2025-07-11T11:36:09.001000+02:00</time>
      </trkpt>
      <trkpt lat="46.26094" lon="-0.18987">
        <ele>126.4</ele>
        <time>2025-07-11T11:36:11.001000+02:00</time>
      </trkpt>
      <trkpt lat="46.26098" lon="-0.19">
        <ele>126.5</ele>
        <time>2025-07-11T11:36:13.001000+02:00</time>
      </trkpt>
      <trkpt lat="46.26101" lon="-0.19012">
        <ele>126.5</ele>
        <time>2025-07-11T11:36:15.002000+02:00</time>
      </trkpt>
      <trkpt lat="46.26106" lon="-0.19025">
        <ele>126.7</ele>
        <time>2025-07-11T11:36:17.003000+02:00</time>
      </trkpt>
      <trkpt lat="46.2611" lon="-0.19037">
        <ele>126.6</ele>
        <time>2025-07-11T11:36:19.002000+02:00</time>
      </trkpt>
      <trkpt lat="46.26113" lon="-0.19043">
        <ele>126.6</ele>
        <time>2025-07-11T11:36:20.002000+02:00</time>
      </trkpt>
      <trkpt lat="46.26115" lon="-0.19048">
        <ele>126.6</ele>
        <time>2025-07-11T11:36:21.002000+02:00</time>
      </trkpt>
      <trkpt lat="46.26118" lon="-0.19061">
        <ele>126.5</ele>
        <time>2025-07-11T11:36:23.002000+02:00</time>
      </trkpt>
      <trkpt lat="46.2612" lon="-0.19067">
        <ele>126.5</ele>
        <time>2025-07-11T11:36:24.003000+02:00</time>
      </trkpt>
      <trkpt lat="46.26123" lon="-0.1908">
        <ele>126.4</ele>
        <time>2025-07-11T11:36:26.001000+02:00</time>
      </trkpt>
      <trkpt lat="46.26125" lon="-0.19086">
        <ele>126.5</ele>
        <time>2025-07-11T11:36:27.002000+02:00</time>
      </trkpt>
      <trkpt lat="46.26127" lon="-0.19092">
        <ele>126.6</ele>
        <time>2025-07-11T11:36:28.002000+02:00</time>
      </trkpt>
      <trkpt lat="46.2613" lon="-0.19104">
        <ele>126.6</ele>
        <time>2025-07-11T11:36:30.001000+02:00</time>
      </trkpt>
      <trkpt lat="46.26131" lon="-0.19111">
        <ele>126.5</ele>
        <time>2025-07-11T11:36:31.001000+02:00</time>
      </trkpt>
      <trkpt lat="46.26133" lon="-0.19117">
        <ele>126.4</ele>
        <time>2025-07-11T11:36:32.001000+02:00</time>
      </trkpt>
      <trkpt lat="46.26134" lon="-0.19124">
        <ele>126.3</ele>
        <time>2025-07-11T11:36:33.001000+02:00</time>
      </trkpt>
      <trkpt lat="46.26135" lon="-0.19131">
        <ele>126.1</ele>
        <time>2025-07-11T11:36:34.001000+02:00</time>
      </trkpt>
      <trkpt lat="46.26137" lon="-0.19138">
        <ele>125.9</ele>
        <time>2025-07-11T11:36:35.002000+02:00</time>
      </trkpt>
      <trkpt lat="46.2614" lon="-0.19153">
        <ele>125.6</ele>
        <time>2025-07-11T11:36:37.002000+02:00</time>
      </trkpt>
      <trkpt lat="46.26144" lon="-0.19166">
        <ele>125.4</ele>
        <time>2025-07-11T11:36:39.003000+02:00</time>
      </trkpt>
      <trkpt lat="46.26147" lon="-0.19179">
        <ele>125.5</ele>
        <time>2025-07-11T11:36:41.001000+02:00</time>
      </trkpt>
      <trkpt lat="46.26149" lon="-0.19185">
        <ele>125.5</ele>
        <time>2025-07-11T11:36:42.001000+02:00</time>
      </trkpt>
      <trkpt lat="46.26152" lon="-0.19198">
        <ele>125.4</ele>
        <time>2025-07-11T11:36:44.001000+02:00</time>
      </trkpt>
      <trkpt lat="46.26154" lon="-0.19204">
        <ele>125.2</ele>
        <time>2025-07-11T11:36:45.004000+02:00</time>
      </trkpt>
      <trkpt lat="46.26157" lon="-0.19217">
        <ele>124.9</ele>
        <time>2025-07-11T11:36:47+02:00</time>
      </trkpt>
      <trkpt lat="46.26159" lon="-0.19223">
        <ele>124.7</ele>
        <time>2025-07-11T11:36:48.005000+02:00</time>
      </trkpt>
      <trkpt lat="46.26163" lon="-0.19236">
        <ele>124.9</ele>
        <time>2025-07-11T11:36:50.002000+02:00</time>
      </trkpt>
      <trkpt lat="46.26164" lon="-0.19243">
        <ele>124.9</ele>
        <time>2025-07-11T11:36:51.003000+02:00</time>
      </trkpt>
      <trkpt lat="46.26168" lon="-0.19257">
        <ele>124.8</ele>
        <time>2025-07-11T11:36:53.002000+02:00</time>
      </trkpt>
      <trkpt lat="46.2617" lon="-0.1927">
        <ele>124.3</ele>
        <time>2025-07-11T11:36:55.002000+02:00</time>
      </trkpt>
      <trkpt lat="46.26173" lon="-0.19284">
        <ele>124</ele>
        <time>2025-07-11T11:36:57.002000+02:00</time>
      </trkpt>
      <trkpt lat="46.26175" lon="-0.19292">
        <ele>124</ele>
        <time>2025-07-11T11:36:58.002000+02:00</time>
      </trkpt>
      <trkpt lat="46.2618" lon="-0.19304">
        <ele>124</ele>
        <time>2025-07-11T11:37:00.003000+02:00</time>
      </trkpt>
      <trkpt lat="46.26184" lon="-0.19315">
        <ele>124</ele>
        <time>2025-07-11T11:37:02.002000+02:00</time>
      </trkpt>
      <trkpt lat="46.26185" lon="-0.19322">
        <ele>124</ele>
        <time>2025-07-11T11:37:03.002000+02:00</time>
      </trkpt>
      <trkpt lat="46.26186" lon="-0.19328">
        <ele>124</ele>
        <time>2025-07-11T11:37:04.002000+02:00</time>
      </trkpt>
      <trkpt lat="46.26187" lon="-0.19335">
        <ele>124</ele>
        <time>2025-07-11T11:37:05.002000+02:00</time>
      </trkpt>
      <trkpt lat="46.26189" lon="-0.19343">
        <ele>124</ele>
        <time>2025-07-11T11:37:06.002000+02:00</time>
      </trkpt>
      <trkpt lat="46.26192" lon="-0.19361">
        <ele>124</ele>
        <time>2025-07-11T11:37:08.001000+02:00</time>
      </trkpt>
      <trkpt lat="46.26192" lon="-0.19368">
        <ele>124</ele>
        <time>2025-07-11T11:37:09.004000+02:00</time>
      </trkpt>
      <trkpt lat="46.26192" lon="-0.19382">
        <ele>124</ele>
        <time>2025-07-11T11:37:11.002000+02:00</time>
      </trkpt>
      <trkpt lat="46.26192" lon="-0.19389">
        <ele>124</ele>
        <time>2025-07-11T11:37:12.002000+02:00</time>
      </trkpt>
      <trkpt lat="46.26191" lon="-0.19397">
        <ele>124</ele>
        <time>2025-07-11T11:37:13.003000+02:00</time>
      </trkpt>
      <trkpt lat="46.2619" lon="-0.19413">
        <ele>124</ele>
        <time>2025-07-11T11:37:15.002000+02:00</time>
      </trkpt>
      <trkpt lat="46.2619" lon="-0.19421">
        <ele>124</ele>
        <time>2025-07-11T11:37:16.002000+02:00</time>
      </trkpt>
      <trkpt lat="46.2619" lon="-0.19436">
        <ele>124.1</ele>
        <time>2025-07-11T11:37:18+02:00</time>
      </trkpt>
      <trkpt lat="46.2619" lon="-0.19443">
        <ele>124.1</ele>
        <time>2025-07-11T11:37:19+02:00</time>
      </trkpt>
      <trkpt lat="46.26191" lon="-0.1945">
        <ele>124.1</ele>
        <time>2025-07-11T11:37:20.001000+02:00</time>
      </trkpt>
      <trkpt lat="46.2619" lon="-0.19464">
        <ele>124.1</ele>
        <time>2025-07-11T11:37:22.001000+02:00</time>
      </trkpt>
      <trkpt lat="46.2619" lon="-0.1947">
        <ele>124.2</ele>
        <time>2025-07-11T11:37:23.001000+02:00</time>
      </trkpt>
      <trkpt lat="46.26188" lon="-0.19475">
        <ele>124.2</ele>
        <time>2025-07-11T11:37:24.002000+02:00</time>
      </trkpt>
      <trkpt lat="46.26186" lon="-0.19485">
        <ele>124.3</ele>
        <time>2025-07-11T11:37:26.001000+02:00</time>
      </trkpt>
      <trkpt lat="46.26184" lon="-0.19489">
        <ele>124.4</ele>
        <time>2025-07-11T11:37:27.001000+02:00</time>
      </trkpt>
      <trkpt lat="46.26183" lon="-0.19494">
        <ele>124.4</ele>
        <time>2025-07-11T11:37:28.001000+02:00</time>
      </trkpt>
      <trkpt lat="46.26182" lon="-0.19499">
        <ele>124.4</ele>
        <time>2025-07-11T11:37:29.001000+02:00</time>
      </trkpt>
      <trkpt lat="46.26183" lon="-0.19509">
        <ele>124.4</ele>
        <time>2025-07-11T11:37:31.001000+02:00</time>
      </trkpt>
      <trkpt lat="46.26184" lon="-0.19515">
        <ele>124.4</ele>
        <time>2025-07-11T11:37:32.001000+02:00</time>
      </trkpt>
      <trkpt lat="46.26185" lon="-0.19522">
        <ele>124.4</ele>
        <time>2025-07-11T11:37:33.001000+02:00</time>
      </trkpt>
      <trkpt lat="46.26186" lon="-0.19528">
        <ele>124.3</ele>
        <time>2025-07-11T11:37:34.001000+02:00</time>
      </trkpt>
      <trkpt lat="46.26187" lon="-0.19534">
        <ele>124.3</ele>
        <time>2025-07-11T11:37:35.001000+02:00</time>
      </trkpt>
      <trkpt lat="46.26191" lon="-0.19546">
        <ele>124.1</ele>
        <time>2025-07-11T11:37:37.001000+02:00</time>
      </trkpt>
      <trkpt lat="46.26193" lon="-0.19551">
        <ele>124</ele>
        <time>2025-07-11T11:37:38.001000+02:00</time>
      </trkpt>
      <trkpt lat="46.26195" lon="-0.19555">
        <ele>124</ele>
        <time>2025-07-11T11:37:39.007000+02:00</time>
      </trkpt>
      <trkpt lat="46.26197" lon="-0.19563">
        <ele>124</ele>
        <time>2025-07-11T11:37:41.001000+02:00</time>
      </trkpt>
      <trkpt lat="46.26199" lon="-0.19567">
        <ele>124</ele>
        <time>2025-07-11T11:37:42.001000+02:00</time>
      </trkpt>
      <trkpt lat="46.26201" lon="-0.19572">
        <ele>124</ele>
        <time>2025-07-11T11:37:43.003000+02:00</time>
      </trkpt>
      <trkpt lat="46.26203" lon="-0.19577">
        <ele>124</ele>
        <time>2025-07-11T11:37:44.006000+02:00</time>
      </trkpt>
      <trkpt lat="46.26208" lon="-0.19587">
        <ele>124</ele>
        <time>2025-07-11T11:37:46.001000+02:00</time>
      </trkpt>
      <trkpt lat="46.2621" lon="-0.19593">
        <ele>124</ele>
        <time>2025-07-11T11:37:47.002000+02:00</time>
      </trkpt>
      <trkpt lat="46.26212" lon="-0.19598">
        <ele>124</ele>
        <time>2025-07-11T11:37:48.002000+02:00</time>
      </trkpt>
      <trkpt lat="46.26214" lon="-0.19603">
        <ele>124</ele>
        <time>2025-07-11T11:37:49.003000+02:00</time>
      </trkpt>
      <trkpt lat="46.26219" lon="-0.19613">
        <ele>124.1</ele>
        <time>2025-07-11T11:37:51.002000+02:00</time>
      </trkpt>
      <trkpt lat="46.26222" lon="-0.19617">
        <ele>124.2</ele>
        <time>2025-07-11T11:37:52.002000+02:00</time>
      </trkpt>
      <trkpt lat="46.26224" lon="-0.19621">
        <ele>124.3</ele>
        <time>2025-07-11T11:37:53.002000+02:00</time>
      </trkpt>
      <trkpt lat="46.26225" lon="-0.19626">
        <ele>124.5</ele>
        <time>2025-07-11T11:37:54.002000+02:00</time>
      </trkpt>
      <trkpt lat="46.26227" lon="-0.1963">
        <ele>124.6</ele>
        <time>2025-07-11T11:37:55.002000+02:00</time>
      </trkpt>
      <trkpt lat="46.2623" lon="-0.19635">
        <ele>124.6</ele>
        <time>2025-07-11T11:37:56.002000+02:00</time>
      </trkpt>
      <trkpt lat="46.26232" lon="-0.1964">
        <ele>124.7</ele>
        <time>2025-07-11T11:37:57.002000+02:00</time>
      </trkpt>
      <trkpt lat="46.26234" lon="-0.19645">
        <ele>124.7</ele>
        <time>2025-07-11T11:37:58.002000+02:00</time>
      </trkpt>
      <trkpt lat="46.26236" lon="-0.19649">
        <ele>124.7</ele>
        <time>2025-07-11T11:37:59.003000+02:00</time>
      </trkpt>
      <trkpt lat="46.26238" lon="-0.19653">
        <ele>124.7</ele>
        <time>2025-07-11T11:38:00.006000+02:00</time>
      </trkpt>
      <trkpt lat="46.26242" lon="-0.19662">
        <ele>124.9</ele>
        <time>2025-07-11T11:38:02+02:00</time>
      </trkpt>
      <trkpt lat="46.26243" lon="-0.19666">
        <ele>125</ele>
        <time>2025-07-11T11:38:03.001000+02:00</time>
      </trkpt>
      <trkpt lat="46.26245" lon="-0.19671">
        <ele>125.2</ele>
        <time>2025-07-11T11:38:04.001000+02:00</time>
      </trkpt>
      <trkpt lat="46.26246" lon="-0.19676">
        <ele>125.3</ele>
        <time>2025-07-11T11:38:05.004000+02:00</time>
      </trkpt>
      <trkpt lat="46.26246" lon="-0.19684">
        <ele>125.6</ele>
        <time>2025-07-11T11:38:07.002000+02:00</time>
      </trkpt>
      <trkpt lat="46.26247" lon="-0.19688">
        <ele>125.8</ele>
        <time>2025-07-11T11:38:08.002000+02:00</time>
      </trkpt>
      <trkpt lat="46.26248" lon="-0.19692">
        <ele>125.9</ele>
        <time>2025-07-11T11:38:09.002000+02:00</time>
      </trkpt>
      <trkpt lat="46.2625" lon="-0.19699">
        <ele>126.2</ele>
        <time>2025-07-11T11:38:11.002000+02:00</time>
      </trkpt>
      <trkpt lat="46.26251" lon="-0.19703">
        <ele>126.3</ele>
        <time>2025-07-11T11:38:12.002000+02:00</time>
      </trkpt>
      <trkpt lat="46.26252" lon="-0.19707">
        <ele>126.4</ele>
        <time>2025-07-11T11:38:13.003000+02:00</time>
      </trkpt>
      <trkpt lat="46.26255" lon="-0.19713">
        <ele>126.5</ele>
        <time>2025-07-11T11:38:15.002000+02:00</time>
      </trkpt>
      <trkpt lat="46.26256" lon="-0.19716">
        <ele>126.6</ele>
        <time>2025-07-11T11:38:16.002000+02:00</time>
      </trkpt>
      <trkpt lat="46.26257" lon="-0.19719">
        <ele>126.6</ele>
        <time>2025-07-11T11:38:17.002000+02:00</time>
      </trkpt>
      <trkpt lat="46.26258" lon="-0.19721">
        <ele>126.6</ele>
        <time>2025-07-11T11:38:18.003000+02:00</time>
      </trkpt>
      <trkpt lat="46.26261" lon="-0.19725">
        <ele>126.8</ele>
        <time>2025-07-11T11:38:20.002000+02:00</time>
      </trkpt>
      <trkpt lat="46.26262" lon="-0.19727">
        <ele>127</ele>
        <time>2025-07-11T11:38:21.003000+02:00</time>
      </trkpt>
      <trkpt lat="46.26264" lon="-0.19733">
        <ele>127.5</ele>
        <time>2025-07-11T11:38:23+02:00</time>
      </trkpt>
      <trkpt lat="46.26265" lon="-0.19735">
        <ele>127.6</ele>
        <time>2025-07-11T11:38:24.002000+02:00</time>
      </trkpt>
      <trkpt lat="46.26267" lon="-0.19736">
        <ele>127.7</ele>
        <time>2025-07-11T11:38:25.003000+02:00</time>
      </trkpt>
      <trkpt lat="46.2627" lon="-0.1974">
        <ele>128</ele>
        <time>2025-07-11T11:38:27.003000+02:00</time>
      </trkpt>
      <trkpt lat="46.26272" lon="-0.19746">
        <ele>128.6</ele>
        <time>2025-07-11T11:38:29.002000+02:00</time>
      </trkpt>
      <trkpt lat="46.26273" lon="-0.19748">
        <ele>128.8</ele>
        <time>2025-07-11T11:38:30.002000+02:00</time>
      </trkpt>
      <trkpt lat="46.26274" lon="-0.19751">
        <ele>129.1</ele>
        <time>2025-07-11T11:38:31.003000+02:00</time>
      </trkpt>
      <trkpt lat="46.26277" lon="-0.19758">
        <ele>129.6</ele>
        <time>2025-07-11T11:38:33.002000+02:00</time>
      </trkpt>
      <trkpt lat="46.26278" lon="-0.19761">
        <ele>129.8</ele>
        <time>2025-07-11T11:38:34.002000+02:00</time>
      </trkpt>
      <trkpt lat="46.26279" lon="-0.19765">
        <ele>129.9</ele>
        <time>2025-07-11T11:38:35.002000+02:00</time>
      </trkpt>
      <trkpt lat="46.2628" lon="-0.19767">
        <ele>130.1</ele>
        <time>2025-07-11T11:38:36.007000+02:00</time>
      </trkpt>
      <trkpt lat="46.26284" lon="-0.19772">
        <ele>130.2</ele>
        <time>2025-07-11T11:38:38.002000+02:00</time>
      </trkpt>
      <trkpt lat="46.26285" lon="-0.19775">
        <ele>130.2</ele>
        <time>2025-07-11T11:38:39.003000+02:00</time>
      </trkpt>
      <trkpt lat="46.26288" lon="-0.1978">
        <ele>130.5</ele>
        <time>2025-07-11T11:38:41.002000+02:00</time>
      </trkpt>
      <trkpt lat="46.26289" lon="-0.19783">
        <ele>130.6</ele>
        <time>2025-07-11T11:38:42.002000+02:00</time>
      </trkpt>
      <trkpt lat="46.2629" lon="-0.19786">
        <ele>130.8</ele>
        <time>2025-07-11T11:38:43.003000+02:00</time>
      </trkpt>
      <trkpt lat="46.26292" lon="-0.1979">
        <ele>131.1</ele>
        <time>2025-07-11T11:38:45.003000+02:00</time>
      </trkpt>
      <trkpt lat="46.26293" lon="-0.19796">
        <ele>131.6</ele>
        <time>2025-07-11T11:38:47.003000+02:00</time>
      </trkpt>
      <trkpt lat="46.26295" lon="-0.19801">
        <ele>132</ele>
        <time>2025-07-11T11:38:49.004000+02:00</time>
      </trkpt>
      <trkpt lat="46.26296" lon="-0.19807">
        <ele>132.5</ele>
        <time>2025-07-11T11:38:51.002000+02:00</time>
      </trkpt>
      <trkpt lat="46.26296" lon="-0.1981">
        <ele>132.9</ele>
        <time>2025-07-11T11:38:52.002000+02:00</time>
      </trkpt>
      <trkpt lat="46.26297" lon="-0.19812">
        <ele>133.2</ele>
        <time>2025-07-11T11:38:53.002000+02:00</time>
      </trkpt>
      <trkpt lat="46.26297" lon="-0.19814">
        <ele>133.5</ele>
        <time>2025-07-11T11:38:54.002000+02:00</time>
      </trkpt>
      <trkpt lat="46.26298" lon="-0.19816">
        <ele>133.7</ele>
        <time>2025-07-11T11:38:55.003000+02:00</time>
      </trkpt>
      <trkpt lat="46.26299" lon="-0.19821">
        <ele>134.4</ele>
        <time>2025-07-11T11:38:57.001000+02:00</time>
      </trkpt>
      <trkpt lat="46.26299" lon="-0.19825">
        <ele>134.8</ele>
        <time>2025-07-11T11:38:58.001000+02:00</time>
      </trkpt>
      <trkpt lat="46.26299" lon="-0.19829">
        <ele>135.4</ele>
        <time>2025-07-11T11:39:00+02:00</time>
      </trkpt>
      <trkpt lat="46.26299" lon="-0.1983">
        <ele>135.6</ele>
        <time>2025-07-11T11:39:01.001000+02:00</time>
      </trkpt>
      <trkpt lat="46.26299" lon="-0.19833">
        <ele>136</ele>
        <time>2025-07-11T11:39:02.001000+02:00</time>
      </trkpt>
      <trkpt lat="46.26299" lon="-0.19837">
        <ele>136.1</ele>
        <time>2025-07-11T11:39:03.002000+02:00</time>
      </trkpt>
      <trkpt lat="46.26299" lon="-0.19839">
        <ele>136.2</ele>
        <time>2025-07-11T11:39:04.002000+02:00</time>
      </trkpt>
      <trkpt lat="46.26298" lon="-0.19845">
        <ele>136.4</ele>
        <time>2025-07-11T11:39:06.001000+02:00</time>
      </trkpt>
      <trkpt lat="46.26298" lon="-0.19847">
        <ele>136.5</ele>
        <time>2025-07-11T11:39:07.001000+02:00</time>
      </trkpt>
      <trkpt lat="46.26298" lon="-0.1985">
        <ele>136.6</ele>
        <time>2025-07-11T11:39:08.001000+02:00</time>
      </trkpt>
      <trkpt lat="46.26299" lon="-0.19851">
        <ele>136.6</ele>
        <time>2025-07-11T11:39:09.002000+02:00</time>
      </trkpt>
      <trkpt lat="46.26295" lon="-0.19858">
        <ele>136.9</ele>
        <time>2025-07-11T11:39:11.002000+02:00</time>
      </trkpt>
      <trkpt lat="46.26296" lon="-0.19861">
        <ele>137</ele>
        <time>2025-07-11T11:39:12.002000+02:00</time>
      </trkpt>
      <trkpt lat="46.26295" lon="-0.19865">
        <ele>137</ele>
        <time>2025-07-11T11:39:14.002000+02:00</time>
      </trkpt>
      <trkpt lat="46.26294" lon="-0.19867">
        <ele>137</ele>
        <time>2025-07-11T11:39:15.002000+02:00</time>
      </trkpt>
      <trkpt lat="46.26295" lon="-0.19875">
        <ele>137</ele>
        <time>2025-07-11T11:39:17+02:00</time>
      </trkpt>
      <trkpt lat="46.26295" lon="-0.19878">
        <ele>137</ele>
        <time>2025-07-11T11:39:18.003000+02:00</time>
      </trkpt>
      <trkpt lat="46.26294" lon="-0.19885">
        <ele>137</ele>
        <time>2025-07-11T11:39:20.002000+02:00</time>
      </trkpt>
      <trkpt lat="46.26293" lon="-0.19891">
        <ele>137</ele>
        <time>2025-07-11T11:39:22.001000+02:00</time>
      </trkpt>
      <trkpt lat="46.26293" lon="-0.19895">
        <ele>137</ele>
        <time>2025-07-11T11:39:23.001000+02:00</time>
      </trkpt>
      <trkpt lat="46.26293" lon="-0.19898">
        <ele>137</ele>
        <time>2025-07-11T11:39:24.002000+02:00</time>
      </trkpt>
      <trkpt lat="46.26291" lon="-0.19906">
        <ele>137</ele>
        <time>2025-07-11T11:39:26.001000+02:00</time>
      </trkpt>
      <trkpt lat="46.26291" lon="-0.19909">
        <ele>137</ele>
        <time>2025-07-11T11:39:27.002000+02:00</time>
      </trkpt>
      <trkpt lat="46.26289" lon="-0.19916">
        <ele>137</ele>
        <time>2025-07-11T11:39:29+02:00</time>
      </trkpt>
      <trkpt lat="46.26288" lon="-0.1992">
        <ele>137</ele>
        <time>2025-07-11T11:39:30.002000+02:00</time>
      </trkpt>
      <trkpt lat="46.26287" lon="-0.19928">
        <ele>137</ele>
        <time>2025-07-11T11:39:32.002000+02:00</time>
      </trkpt>
      <trkpt lat="46.26287" lon="-0.19932">
        <ele>137</ele>
        <time>2025-07-11T11:39:33.002000+02:00</time>
      </trkpt>
      <trkpt lat="46.26286" lon="-0.19941">
        <ele>137</ele>
        <time>2025-07-11T11:39:35.001000+02:00</time>
      </trkpt>
      <trkpt lat="46.26285" lon="-0.19945">
        <ele>137</ele>
        <time>2025-07-11T11:39:36.001000+02:00</time>
      </trkpt>
      <trkpt lat="46.26285" lon="-0.19954">
        <ele>137</ele>
        <time>2025-07-11T11:39:38+02:00</time>
      </trkpt>
      <trkpt lat="46.26285" lon="-0.19958">
        <ele>137</ele>
        <time>2025-07-11T11:39:39.002000+02:00</time>
      </trkpt>
      <trkpt lat="46.26284" lon="-0.19967">
        <ele>137</ele>
        <time>2025-07-11T11:39:41.001000+02:00</time>
      </trkpt>
      <trkpt lat="46.26284" lon="-0.19971">
        <ele>137</ele>
        <time>2025-07-11T11:39:42.001000+02:00</time>
      </trkpt>
      <trkpt lat="46.26285" lon="-0.19976">
        <ele>137</ele>
        <time>2025-07-11T11:39:43.001000+02:00</time>
      </trkpt>
      <trkpt lat="46.26285" lon="-0.19981">
        <ele>136.9</ele>
        <time>2025-07-11T11:39:44.002000+02:00</time>
      </trkpt>
      <trkpt lat="46.26285" lon="-0.1999">
        <ele>136.8</ele>
        <time>2025-07-11T11:39:46.002000+02:00</time>
      </trkpt>
      <trkpt lat="46.26283" lon="-0.19998">
        <ele>136.8</ele>
        <time>2025-07-11T11:39:48.001000+02:00</time>
      </trkpt>
      <trkpt lat="46.26282" lon="-0.20001">
        <ele>136.8</ele>
        <time>2025-07-11T11:39:49.002000+02:00</time>
      </trkpt>
      <trkpt lat="46.2628" lon="-0.20003">
        <ele>136.8</ele>
        <time>2025-07-11T11:39:50.002000+02:00</time>
      </trkpt>
      <trkpt lat="46.26277" lon="-0.20005">
        <ele>136.8</ele>
        <time>2025-07-11T11:39:51.003000+02:00</time>
      </trkpt>
      <trkpt lat="46.26271" lon="-0.20009">
        <ele>136.8</ele>
        <time>2025-07-11T11:39:53.002000+02:00</time>
      </trkpt>
      <trkpt lat="46.26269" lon="-0.20011">
        <ele>136.7</ele>
        <time>2025-07-11T11:39:54.002000+02:00</time>
      </trkpt>
      <trkpt lat="46.26266" lon="-0.20012">
        <ele>136.8</ele>
        <time>2025-07-11T11:39:55.003000+02:00</time>
      </trkpt>
      <trkpt lat="46.2626" lon="-0.20016">
        <ele>136.8</ele>
        <time>2025-07-11T11:39:57.003000+02:00</time>
      </trkpt>
      <trkpt lat="46.26253" lon="-0.2002">
        <ele>136.9</ele>
        <time>2025-07-11T11:39:59.002000+02:00</time>
      </trkpt>
      <trkpt lat="46.26251" lon="-0.20022">
        <ele>137</ele>
        <time>2025-07-11T11:40:00.003000+02:00</time>
      </trkpt>
      <trkpt lat="46.26248" lon="-0.20024">
        <ele>137</ele>
        <time>2025-07-11T11:40:01.003000+02:00</time>
      </trkpt>
      <trkpt lat="46.26243" lon="-0.20028">
        <ele>137</ele>
        <time>2025-07-11T11:40:03.003000+02:00</time>
      </trkpt>
      <trkpt lat="46.26238" lon="-0.20032">
        <ele>137</ele>
        <time>2025-07-11T11:40:05.001000+02:00</time>
      </trkpt>
      <trkpt lat="46.26235" lon="-0.20034">
        <ele>137</ele>
        <time>2025-07-11T11:40:06.003000+02:00</time>
      </trkpt>
      <trkpt lat="46.2623" lon="-0.2004">
        <ele>137.2</ele>
        <time>2025-07-11T11:40:08.002000+02:00</time>
      </trkpt>
      <trkpt lat="46.26224" lon="-0.20045">
        <ele>137.5</ele>
        <time>2025-07-11T11:40:10.001000+02:00</time>
      </trkpt>
      <trkpt lat="46.26221" lon="-0.20049">
        <ele>137.8</ele>
        <time>2025-07-11T11:40:11.003000+02:00</time>
      </trkpt>
      <trkpt lat="46.26216" lon="-0.20055">
        <ele>138.2</ele>
        <time>2025-07-11T11:40:13.002000+02:00</time>
      </trkpt>
      <trkpt lat="46.26214" lon="-0.20059">
        <ele>138.3</ele>
        <time>2025-07-11T11:40:14.002000+02:00</time>
      </trkpt>
      <trkpt lat="46.26211" lon="-0.20068">
        <ele>138.4</ele>
        <time>2025-07-11T11:40:16.002000+02:00</time>
      </trkpt>
      <trkpt lat="46.26208" lon="-0.20077">
        <ele>138.5</ele>
        <time>2025-07-11T11:40:18.001000+02:00</time>
      </trkpt>
      <trkpt lat="46.26206" lon="-0.20081">
        <ele>138.6</ele>
        <time>2025-07-11T11:40:19.001000+02:00</time>
      </trkpt>
      <trkpt lat="46.26205" lon="-0.20086">
        <ele>138.6</ele>
        <time>2025-07-11T11:40:20.002000+02:00</time>
      </trkpt>
      <trkpt lat="46.26203" lon="-0.2009">
        <ele>138.7</ele>
        <time>2025-07-11T11:40:21.002000+02:00</time>
      </trkpt>
      <trkpt lat="46.262" lon="-0.20099">
        <ele>138.8</ele>
        <time>2025-07-11T11:40:23.001000+02:00</time>
      </trkpt>
      <trkpt lat="46.26198" lon="-0.20103">
        <ele>138.9</ele>
        <time>2025-07-11T11:40:24.001000+02:00</time>
      </trkpt>
      <trkpt lat="46.26196" lon="-0.20107">
        <ele>138.9</ele>
        <time>2025-07-11T11:40:25.001000+02:00</time>
      </trkpt>
      <trkpt lat="46.26194" lon="-0.20115">
        <ele>139.2</ele>
        <time>2025-07-11T11:40:27.002000+02:00</time>
      </trkpt>
      <trkpt lat="46.26192" lon="-0.20119">
        <ele>139.3</ele>
        <time>2025-07-11T11:40:28.002000+02:00</time>
      </trkpt>
      <trkpt lat="46.26191" lon="-0.20123">
        <ele>139.5</ele>
        <time>2025-07-11T11:40:29.002000+02:00</time>
      </trkpt>
      <trkpt lat="46.26189" lon="-0.20126">
        <ele>139.6</ele>
        <time>2025-07-11T11:40:30.002000+02:00</time>
      </trkpt>
      <trkpt lat="46.26188" lon="-0.2013">
        <ele>139.8</ele>
        <time>2025-07-11T11:40:31.003000+02:00</time>
      </trkpt>
      <trkpt lat="46.26186" lon="-0.20139">
        <ele>140</ele>
        <time>2025-07-11T11:40:33.002000+02:00</time>
      </trkpt>
      <trkpt lat="46.26183" lon="-0.20149">
        <ele>139.9</ele>
        <time>2025-07-11T11:40:35.002000+02:00</time>
      </trkpt>
      <trkpt lat="46.26181" lon="-0.20153">
        <ele>139.8</ele>
        <time>2025-07-11T11:40:36.002000+02:00</time>
      </trkpt>
      <trkpt lat="46.26177" lon="-0.20163">
        <ele>139.5</ele>
        <time>2025-07-11T11:40:38.001000+02:00</time>
      </trkpt>
      <trkpt lat="46.26176" lon="-0.20169">
        <ele>139.2</ele>
        <time>2025-07-11T11:40:39.002000+02:00</time>
      </trkpt>
      <trkpt lat="46.26175" lon="-0.2018">
        <ele>138.7</ele>
        <time>2025-07-11T11:40:41.002000+02:00</time>
      </trkpt>
      <trkpt lat="46.26176" lon="-0.20189">
        <ele>138.2</ele>
        <time>2025-07-11T11:40:43+02:00</time>
      </trkpt>
      <trkpt lat="46.26178" lon="-0.20195">
        <ele>138</ele>
        <time>2025-07-11T11:40:44.002000+02:00</time>
      </trkpt>
      <trkpt lat="46.26183" lon="-0.20205">
        <ele>137.4</ele>
        <time>2025-07-11T11:40:46.001000+02:00</time>
      </trkpt>
      <trkpt lat="46.26187" lon="-0.20209">
        <ele>137.1</ele>
        <time>2025-07-11T11:40:47.001000+02:00</time>
      </trkpt>
      <trkpt lat="46.2619" lon="-0.20215">
        <ele>136.7</ele>
        <time>2025-07-11T11:40:48.001000+02:00</time>
      </trkpt>
      <trkpt lat="46.26198" lon="-0.20227">
        <ele>136</ele>
        <time>2025-07-11T11:40:50.002000+02:00</time>
      </trkpt>
      <trkpt lat="46.26202" lon="-0.20232">
        <ele>135.9</ele>
        <time>2025-07-11T11:40:51.002000+02:00</time>
      </trkpt>
      <trkpt lat="46.26205" lon="-0.20239">
        <ele>135.8</ele>
        <time>2025-07-11T11:40:52.003000+02:00</time>
      </trkpt>
      <trkpt lat="46.26208" lon="-0.20247">
        <ele>135.6</ele>
        <time>2025-07-11T11:40:53.003000+02:00</time>
      </trkpt>
      <trkpt lat="46.26211" lon="-0.20255">
        <ele>135.3</ele>
        <time>2025-07-11T11:40:54.003000+02:00</time>
      </trkpt>
      <trkpt lat="46.26213" lon="-0.20262">
        <ele>135.2</ele>
        <time>2025-07-11T11:40:55.003000+02:00</time>
      </trkpt>
      <trkpt lat="46.2622" lon="-0.20277">
        <ele>135</ele>
        <time>2025-07-11T11:40:57.003000+02:00</time>
      </trkpt>
      <trkpt lat="46.26226" lon="-0.20291">
        <ele>134.9</ele>
        <time>2025-07-11T11:40:59.002000+02:00</time>
      </trkpt>
      <trkpt lat="46.26228" lon="-0.20297">
        <ele>134.8</ele>
        <time>2025-07-11T11:41:00.003000+02:00</time>
      </trkpt>
      <trkpt lat="46.26234" lon="-0.2031">
        <ele>134.5</ele>
        <time>2025-07-11T11:41:02.002000+02:00</time>
      </trkpt>
      <trkpt lat="46.26237" lon="-0.20317">
        <ele>134.3</ele>
        <time>2025-07-11T11:41:03.006000+02:00</time>
      </trkpt>
      <trkpt lat="46.26241" lon="-0.20329">
        <ele>134.1</ele>
        <time>2025-07-11T11:41:05.001000+02:00</time>
      </trkpt>
      <trkpt lat="46.26244" lon="-0.20335">
        <ele>134</ele>
        <time>2025-07-11T11:41:06.003000+02:00</time>
      </trkpt>
      <trkpt lat="46.2625" lon="-0.2035">
        <ele>133.4</ele>
        <time>2025-07-11T11:41:08.002000+02:00</time>
      </trkpt>
      <trkpt lat="46.26254" lon="-0.20357">
        <ele>133</ele>
        <time>2025-07-11T11:41:09.003000+02:00</time>
      </trkpt>
      <trkpt lat="46.26261" lon="-0.20372">
        <ele>132.6</ele>
        <time>2025-07-11T11:41:11.001000+02:00</time>
      </trkpt>
      <trkpt lat="46.26267" lon="-0.20387">
        <ele>132.4</ele>
        <time>2025-07-11T11:41:13.001000+02:00</time>
      </trkpt>
      <trkpt lat="46.26273" lon="-0.20402">
        <ele>132.1</ele>
        <time>2025-07-11T11:41:15.003000+02:00</time>
      </trkpt>
      <trkpt lat="46.26279" lon="-0.20417">
        <ele>131.9</ele>
        <time>2025-07-11T11:41:17.001000+02:00</time>
      </trkpt>
      <trkpt lat="46.26282" lon="-0.20424">
        <ele>131.6</ele>
        <time>2025-07-11T11:41:18.002000+02:00</time>
      </trkpt>
      <trkpt lat="46.26288" lon="-0.20437">
        <ele>130.9</ele>
        <time>2025-07-11T11:41:20.002000+02:00</time>
      </trkpt>
      <trkpt lat="46.26291" lon="-0.20444">
        <ele>130.5</ele>
        <time>2025-07-11T11:41:21.002000+02:00</time>
      </trkpt>
      <trkpt lat="46.26298" lon="-0.20458">
        <ele>130.3</ele>
        <time>2025-07-11T11:41:23.001000+02:00</time>
      </trkpt>
      <trkpt lat="46.263" lon="-0.20465">
        <ele>130.2</ele>
        <time>2025-07-11T11:41:24.001000+02:00</time>
      </trkpt>
      <trkpt lat="46.26304" lon="-0.20472">
        <ele>130.1</ele>
        <time>2025-07-11T11:41:25.002000+02:00</time>
      </trkpt>
      <trkpt lat="46.26307" lon="-0.20479">
        <ele>130</ele>
        <time>2025-07-11T11:41:26.002000+02:00</time>
      </trkpt>
      <trkpt lat="46.2631" lon="-0.20486">
        <ele>129.8</ele>
        <time>2025-07-11T11:41:27.002000+02:00</time>
      </trkpt>
      <trkpt lat="46.26316" lon="-0.20501">
        <ele>129.6</ele>
        <time>2025-07-11T11:41:29.002000+02:00</time>
      </trkpt>
      <trkpt lat="46.2632" lon="-0.20507">
        <ele>129.2</ele>
        <time>2025-07-11T11:41:30.002000+02:00</time>
      </trkpt>
      <trkpt lat="46.26323" lon="-0.20514">
        <ele>128.9</ele>
        <time>2025-07-11T11:41:31.006000+02:00</time>
      </trkpt>
      <trkpt lat="46.26328" lon="-0.20526">
        <ele>128.3</ele>
        <time>2025-07-11T11:41:33.002000+02:00</time>
      </trkpt>
      <trkpt lat="46.2633" lon="-0.20531">
        <ele>128.1</ele>
        <time>2025-07-11T11:41:34.004000+02:00</time>
      </trkpt>
      <trkpt lat="46.26335" lon="-0.20541">
        <ele>128</ele>
        <time>2025-07-11T11:41:36.002000+02:00</time>
      </trkpt>
      <trkpt lat="46.2634" lon="-0.20552">
        <ele>127.8</ele>
        <time>2025-07-11T11:41:38.002000+02:00</time>
      </trkpt>
      <trkpt lat="46.26346" lon="-0.20562">
        <ele>127.3</ele>
        <time>2025-07-11T11:41:40+02:00</time>
      </trkpt>
      <trkpt lat="46.26348" lon="-0.20568">
        <ele>127</ele>
        <time>2025-07-11T11:41:41.001000+02:00</time>
      </trkpt>
      <trkpt lat="46.2635" lon="-0.20573">
        <ele>126.8</ele>
        <time>2025-07-11T11:41:42.002000+02:00</time>
      </trkpt>
      <trkpt lat="46.26355" lon="-0.20584">
        <ele>126.2</ele>
        <time>2025-07-11T11:41:44.001000+02:00</time>
      </trkpt>
      <trkpt lat="46.26356" lon="-0.20587">
        <ele>125.9</ele>
        <time>2025-07-11T11:41:45.002000+02:00</time>
      </trkpt>
      <trkpt lat="46.26359" lon="-0.20595">
        <ele>125.3</ele>
        <time>2025-07-11T11:41:47.001000+02:00</time>
      </trkpt>
      <trkpt lat="46.2636" lon="-0.20598">
        <ele>125</ele>
        <time>2025-07-11T11:41:48.003000+02:00</time>
      </trkpt>
      <trkpt lat="46.2636" lon="-0.20605">
        <ele>124.5</ele>
        <time>2025-07-11T11:41:50.002000+02:00</time>
      </trkpt>
      <trkpt lat="46.2636" lon="-0.20608">
        <ele>124.3</ele>
        <time>2025-07-11T11:41:51.003000+02:00</time>
      </trkpt>
      <trkpt lat="46.26361" lon="-0.20614">
        <ele>123.9</ele>
        <time>2025-07-11T11:41:53.001000+02:00</time>
      </trkpt>
      <trkpt lat="46.26363" lon="-0.20616">
        <ele>123.9</ele>
        <time>2025-07-11T11:41:54.001000+02:00</time>
      </trkpt>
      <trkpt lat="46.26365" lon="-0.20619">
        <ele>123.9</ele>
        <time>2025-07-11T11:41:55.001000+02:00</time>
      </trkpt>
      <trkpt lat="46.26365" lon="-0.20621">
        <ele>123.8</ele>
        <time>2025-07-11T11:41:56.002000+02:00</time>
      </trkpt>
      <trkpt lat="46.26366" lon="-0.20622">
        <ele>123.8</ele>
        <time>2025-07-11T11:41:57.003000+02:00</time>
      </trkpt>
      <trkpt lat="46.26365" lon="-0.20627">
        <ele>123.6</ele>
        <time>2025-07-11T11:41:59.002000+02:00</time>
      </trkpt>
      <trkpt lat="46.26365" lon="-0.20633">
        <ele>123.4</ele>
        <time>2025-07-11T11:42:01.002000+02:00</time>
      </trkpt>
      <trkpt lat="46.26367" lon="-0.20642">
        <ele>122.9</ele>
        <time>2025-07-11T11:42:03.002000+02:00</time>
      </trkpt>
      <trkpt lat="46.26372" lon="-0.20651">
        <ele>122.2</ele>
        <time>2025-07-11T11:42:05.001000+02:00</time>
      </trkpt>
      <trkpt lat="46.26377" lon="-0.20661">
        <ele>121.6</ele>
        <time>2025-07-11T11:42:07.002000+02:00</time>
      </trkpt>
      <trkpt lat="46.2638" lon="-0.2067">
        <ele>121</ele>
        <time>2025-07-11T11:42:09.001000+02:00</time>
      </trkpt>
      <trkpt lat="46.26381" lon="-0.20674">
        <ele>120.7</ele>
        <time>2025-07-11T11:42:10.001000+02:00</time>
      </trkpt>
      <trkpt lat="46.26383" lon="-0.20677">
        <ele>120.4</ele>
        <time>2025-07-11T11:42:11.001000+02:00</time>
      </trkpt>
      <trkpt lat="46.26385" lon="-0.2068">
        <ele>120.3</ele>
        <time>2025-07-11T11:42:12.002000+02:00</time>
      </trkpt>
      <trkpt lat="46.2639" lon="-0.20687">
        <ele>119.8</ele>
        <time>2025-07-11T11:42:14.003000+02:00</time>
      </trkpt>
      <trkpt lat="46.26395" lon="-0.20695">
        <ele>119.3</ele>
        <time>2025-07-11T11:42:16.001000+02:00</time>
      </trkpt>
      <trkpt lat="46.26398" lon="-0.20699">
        <ele>118.9</ele>
        <time>2025-07-11T11:42:17.001000+02:00</time>
      </trkpt>
      <trkpt lat="46.264" lon="-0.20703">
        <ele>118.5</ele>
        <time>2025-07-11T11:42:18.002000+02:00</time>
      </trkpt>
      <trkpt lat="46.26404" lon="-0.2071">
        <ele>117.8</ele>
        <time>2025-07-11T11:42:20.004000+02:00</time>
      </trkpt>
      <trkpt lat="46.26408" lon="-0.20717">
        <ele>117.1</ele>
        <time>2025-07-11T11:42:22.002000+02:00</time>
      </trkpt>
      <trkpt lat="46.2641" lon="-0.20725">
        <ele>116.1</ele>
        <time>2025-07-11T11:42:24.001000+02:00</time>
      </trkpt>
      <trkpt lat="46.2641" lon="-0.20729">
        <ele>115.4</ele>
        <time>2025-07-11T11:42:25.001000+02:00</time>
      </trkpt>
      <trkpt lat="46.26411" lon="-0.20733">
        <ele>114.9</ele>
        <time>2025-07-11T11:42:26.001000+02:00</time>
      </trkpt>
      <trkpt lat="46.26412" lon="-0.20736">
        <ele>114.5</ele>
        <time>2025-07-11T11:42:27.001000+02:00</time>
      </trkpt>
      <trkpt lat="46.26413" lon="-0.20739">
        <ele>114.2</ele>
        <time>2025-07-11T11:42:28.001000+02:00</time>
      </trkpt>
      <trkpt lat="46.26416" lon="-0.20742">
        <ele>114</ele>
        <time>2025-07-11T11:42:29.002000+02:00</time>
      </trkpt>
      <trkpt lat="46.26419" lon="-0.20744">
        <ele>113.8</ele>
        <time>2025-07-11T11:42:30.002000+02:00</time>
      </trkpt>
      <trkpt lat="46.26425" lon="-0.20747">
        <ele>113.2</ele>
        <time>2025-07-11T11:42:32.003000+02:00</time>
      </trkpt>
      <trkpt lat="46.2643" lon="-0.20748">
        <ele>112.9</ele>
        <time>2025-07-11T11:42:34.001000+02:00</time>
      </trkpt>
      <trkpt lat="46.26432" lon="-0.20748">
        <ele>112.8</ele>
        <time>2025-07-11T11:42:35.003000+02:00</time>
      </trkpt>
      <trkpt lat="46.26438" lon="-0.20747">
        <ele>112.8</ele>
        <time>2025-07-11T11:42:37.002000+02:00</time>
      </trkpt>
      <trkpt lat="46.26441" lon="-0.20745">
        <ele>112.9</ele>
        <time>2025-07-11T11:42:38.002000+02:00</time>
      </trkpt>
      <trkpt lat="46.26443" lon="-0.20745">
        <ele>113</ele>
        <time>2025-07-11T11:42:39.003000+02:00</time>
      </trkpt>
      <trkpt lat="46.2645" lon="-0.20742">
        <ele>112.9</ele>
        <time>2025-07-11T11:42:41.001000+02:00</time>
      </trkpt>
      <trkpt lat="46.26454" lon="-0.20741">
        <ele>112.8</ele>
        <time>2025-07-11T11:42:42.002000+02:00</time>
      </trkpt>
      <trkpt lat="46.26459" lon="-0.20738">
        <ele>112.8</ele>
        <time>2025-07-11T11:42:44.003000+02:00</time>
      </trkpt>
      <trkpt lat="46.26463" lon="-0.20736">
        <ele>112.9</ele>
        <time>2025-07-11T11:42:46+02:00</time>
      </trkpt>
      <trkpt lat="46.26465" lon="-0.20734">
        <ele>113</ele>
        <time>2025-07-11T11:42:47.002000+02:00</time>
      </trkpt>
      <trkpt lat="46.26466" lon="-0.20732">
        <ele>113.3</ele>
        <time>2025-07-11T11:42:48.002000+02:00</time>
      </trkpt>
      <trkpt lat="46.26468" lon="-0.2073">
        <ele>113.8</ele>
        <time>2025-07-11T11:42:49.002000+02:00</time>
      </trkpt>
      <trkpt lat="46.2647" lon="-0.20724">
        <ele>114.7</ele>
        <time>2025-07-11T11:42:51.002000+02:00</time>
      </trkpt>
      <trkpt lat="46.26473" lon="-0.2072">
        <ele>115</ele>
        <time>2025-07-11T11:42:53.003000+02:00</time>
      </trkpt>
      <trkpt lat="46.26477" lon="-0.20717">
        <ele>114.4</ele>
        <time>2025-07-11T11:42:55.002000+02:00</time>
      </trkpt>
      <trkpt lat="46.26479" lon="-0.20716">
        <ele>114</ele>
        <time>2025-07-11T11:42:56.002000+02:00</time>
      </trkpt>
      <trkpt lat="46.26482" lon="-0.20715">
        <ele>113.3</ele>
        <time>2025-07-11T11:42:57.002000+02:00</time>
      </trkpt>
      <trkpt lat="46.26488" lon="-0.20713">
        <ele>112.1</ele>
        <time>2025-07-11T11:42:59.001000+02:00</time>
      </trkpt>
      <trkpt lat="46.26491" lon="-0.20711">
        <ele>111.7</ele>
        <time>2025-07-11T11:43:00.001000+02:00</time>
      </trkpt>
      <trkpt lat="46.26494" lon="-0.20709">
        <ele>111.2</ele>
        <time>2025-07-11T11:43:01.002000+02:00</time>
      </trkpt>
      <trkpt lat="46.26497" lon="-0.20707">
        <ele>110.9</ele>
        <time>2025-07-11T11:43:02.003000+02:00</time>
      </trkpt>
      <trkpt lat="46.26503" lon="-0.20702">
        <ele>110.4</ele>
        <time>2025-07-11T11:43:04.003000+02:00</time>
      </trkpt>
      <trkpt lat="46.26508" lon="-0.20696">
        <ele>110.2</ele>
        <time>2025-07-11T11:43:06.003000+02:00</time>
      </trkpt>
      <trkpt lat="46.2651" lon="-0.20693">
        <ele>109.9</ele>
        <time>2025-07-11T11:43:07.003000+02:00</time>
      </trkpt>
      <trkpt lat="46.26515" lon="-0.20688">
        <ele>109.4</ele>
        <time>2025-07-11T11:43:09.005000+02:00</time>
      </trkpt>
      <trkpt lat="46.2652" lon="-0.20683">
        <ele>108.6</ele>
        <time>2025-07-11T11:43:11.002000+02:00</time>
      </trkpt>
      <trkpt lat="46.26523" lon="-0.2068">
        <ele>108.1</ele>
        <time>2025-07-11T11:43:12.003000+02:00</time>
      </trkpt>
      <trkpt lat="46.26527" lon="-0.20677">
        <ele>107.5</ele>
        <time>2025-07-11T11:43:13.004000+02:00</time>
      </trkpt>
      <trkpt lat="46.26529" lon="-0.20674">
        <ele>107.3</ele>
        <time>2025-07-11T11:43:14.004000+02:00</time>
      </trkpt>
      <trkpt lat="46.26536" lon="-0.20668">
        <ele>107</ele>
        <time>2025-07-11T11:43:16.002000+02:00</time>
      </trkpt>
      <trkpt lat="46.26539" lon="-0.20664">
        <ele>106.9</ele>
        <time>2025-07-11T11:43:17.002000+02:00</time>
      </trkpt>
      <trkpt lat="46.26543" lon="-0.20659">
        <ele>106.7</ele>
        <time>2025-07-11T11:43:18.002000+02:00</time>
      </trkpt>
      <trkpt lat="46.26547" lon="-0.20654">
        <ele>106.6</ele>
        <time>2025-07-11T11:43:19.002000+02:00</time>
      </trkpt>
      <trkpt lat="46.2655" lon="-0.20648">
        <ele>106.5</ele>
        <time>2025-07-11T11:43:20.003000+02:00</time>
      </trkpt>
      <trkpt lat="46.26553" lon="-0.20642">
        <ele>106.4</ele>
        <time>2025-07-11T11:43:21.003000+02:00</time>
      </trkpt>
      <trkpt lat="46.26557" lon="-0.20632">
        <ele>106.8</ele>
        <time>2025-07-11T11:43:23.002000+02:00</time>
      </trkpt>
      <trkpt lat="46.26559" lon="-0.20628">
        <ele>107.1</ele>
        <time>2025-07-11T11:43:24.002000+02:00</time>
      </trkpt>
      <trkpt lat="46.26561" lon="-0.20625">
        <ele>107.2</ele>
        <time>2025-07-11T11:43:25.003000+02:00</time>
      </trkpt>
      <trkpt lat="46.26564" lon="-0.20621">
        <ele>107.3</ele>
        <time>2025-07-11T11:43:27.002000+02:00</time>
      </trkpt>
      <trkpt lat="46.26565" lon="-0.2062">
        <ele>107.3</ele>
        <time>2025-07-11T11:43:28.003000+02:00</time>
      </trkpt>
      <trkpt lat="46.26566" lon="-0.20615">
        <ele>107.7</ele>
        <time>2025-07-11T11:43:30.002000+02:00</time>
      </trkpt>
      <trkpt lat="46.26567" lon="-0.20612">
        <ele>107.9</ele>
        <time>2025-07-11T11:43:31.003000+02:00</time>
      </trkpt>
      <trkpt lat="46.26568" lon="-0.20606">
        <ele>108.2</ele>
        <time>2025-07-11T11:43:33.002000+02:00</time>
      </trkpt>
      <trkpt lat="46.26569" lon="-0.20603">
        <ele>108.3</ele>
        <time>2025-07-11T11:43:34.002000+02:00</time>
      </trkpt>
      <trkpt lat="46.2657" lon="-0.206">
        <ele>108.3</ele>
        <time>2025-07-11T11:43:35.002000+02:00</time>
      </trkpt>
      <trkpt lat="46.26571" lon="-0.20597">
        <ele>108.4</ele>
        <time>2025-07-11T11:43:36.002000+02:00</time>
      </trkpt>
      <trkpt lat="46.26572" lon="-0.20594">
        <ele>108.5</ele>
        <time>2025-07-11T11:43:37.002000+02:00</time>
      </trkpt>
      <trkpt lat="46.26574" lon="-0.20591">
        <ele>108.4</ele>
        <time>2025-07-11T11:43:38.002000+02:00</time>
      </trkpt>
      <trkpt lat="46.26576" lon="-0.20587">
        <ele>108.4</ele>
        <time>2025-07-11T11:43:39.002000+02:00</time>
      </trkpt>
      <trkpt lat="46.26578" lon="-0.20583">
        <ele>108.2</ele>
        <time>2025-07-11T11:43:40.003000+02:00</time>
      </trkpt>
      <trkpt lat="46.2658" lon="-0.20578">
        <ele>108.5</ele>
        <time>2025-07-11T11:43:42.002000+02:00</time>
      </trkpt>
      <trkpt lat="46.26582" lon="-0.20573">
        <ele>108.7</ele>
        <time>2025-07-11T11:43:44.002000+02:00</time>
      </trkpt>
      <trkpt lat="46.26584" lon="-0.20571">
        <ele>108.7</ele>
        <time>2025-07-11T11:43:45.003000+02:00</time>
      </trkpt>
      <trkpt lat="46.26585" lon="-0.20568">
        <ele>108.9</ele>
        <time>2025-07-11T11:43:46.003000+02:00</time>
      </trkpt>
      <trkpt lat="46.2659" lon="-0.2056">
        <ele>109.1</ele>
        <time>2025-07-11T11:43:48.002000+02:00</time>
      </trkpt>
      <trkpt lat="46.26591" lon="-0.20556">
        <ele>109.4</ele>
        <time>2025-07-11T11:43:49.002000+02:00</time>
      </trkpt>
      <trkpt lat="46.26592" lon="-0.20552">
        <ele>109.6</ele>
        <time>2025-07-11T11:43:50.003000+02:00</time>
      </trkpt>
      <trkpt lat="46.26593" lon="-0.20548">
        <ele>109.8</ele>
        <time>2025-07-11T11:43:51.003000+02:00</time>
      </trkpt>
      <trkpt lat="46.26596" lon="-0.20541">
        <ele>109.9</ele>
        <time>2025-07-11T11:43:53.002000+02:00</time>
      </trkpt>
      <trkpt lat="46.26596" lon="-0.20539">
        <ele>110</ele>
        <time>2025-07-11T11:43:54.002000+02:00</time>
      </trkpt>
      <trkpt lat="46.26598" lon="-0.20536">
        <ele>109.8</ele>
        <time>2025-07-11T11:43:55.002000+02:00</time>
      </trkpt>
      <trkpt lat="46.26602" lon="-0.20531">
        <ele>109.3</ele>
        <time>2025-07-11T11:43:57.004000+02:00</time>
      </trkpt>
      <trkpt lat="46.26605" lon="-0.20526">
        <ele>109</ele>
        <time>2025-07-11T11:43:59.003000+02:00</time>
      </trkpt>
      <trkpt lat="46.26609" lon="-0.2052">
        <ele>108.4</ele>
        <time>2025-07-11T11:44:01.002000+02:00</time>
      </trkpt>
      <trkpt lat="46.26612" lon="-0.20515">
        <ele>108.3</ele>
        <time>2025-07-11T11:44:03.002000+02:00</time>
      </trkpt>
      <trkpt lat="46.26613" lon="-0.20512">
        <ele>108.4</ele>
        <time>2025-07-11T11:44:04.002000+02:00</time>
      </trkpt>
      <trkpt lat="46.26616" lon="-0.20506">
        <ele>108.6</ele>
        <time>2025-07-11T11:44:06.002000+02:00</time>
      </trkpt>
      <trkpt lat="46.26617" lon="-0.20503">
        <ele>108.7</ele>
        <time>2025-07-11T11:44:07.003000+02:00</time>
      </trkpt>
      <trkpt lat="46.26618" lon="-0.205">
        <ele>108.8</ele>
        <time>2025-07-11T11:44:08.003000+02:00</time>
      </trkpt>
      <trkpt lat="46.26621" lon="-0.20494">
        <ele>108.8</ele>
        <time>2025-07-11T11:44:10.004000+02:00</time>
      </trkpt>
      <trkpt lat="46.26624" lon="-0.20487">
        <ele>108.9</ele>
        <time>2025-07-11T11:44:12.002000+02:00</time>
      </trkpt>
      <trkpt lat="46.26625" lon="-0.20484">
        <ele>108.9</ele>
        <time>2025-07-11T11:44:13.003000+02:00</time>
      </trkpt>
      <trkpt lat="46.26627" lon="-0.20481">
        <ele>108.8</ele>
        <time>2025-07-11T11:44:14.003000+02:00</time>
      </trkpt>
      <trkpt lat="46.26629" lon="-0.20478">
        <ele>108.7</ele>
        <time>2025-07-11T11:44:15.003000+02:00</time>
      </trkpt>
      <trkpt lat="46.26633" lon="-0.2047">
        <ele>108.5</ele>
        <time>2025-07-11T11:44:17.002000+02:00</time>
      </trkpt>
      <trkpt lat="46.26635" lon="-0.20466">
        <ele>108.3</ele>
        <time>2025-07-11T11:44:18.002000+02:00</time>
      </trkpt>
      <trkpt lat="46.26637" lon="-0.20462">
        <ele>107.9</ele>
        <time>2025-07-11T11:44:19.002000+02:00</time>
      </trkpt>
      <trkpt lat="46.26639" lon="-0.20455">
        <ele>107.6</ele>
        <time>2025-07-11T11:44:21.003000+02:00</time>
      </trkpt>
      <trkpt lat="46.26643" lon="-0.20449">
        <ele>107.4</ele>
        <time>2025-07-11T11:44:23.003000+02:00</time>
      </trkpt>
      <trkpt lat="46.26647" lon="-0.20442">
        <ele>107.4</ele>
        <time>2025-07-11T11:44:25.003000+02:00</time>
      </trkpt>
      <trkpt lat="46.26651" lon="-0.20434">
        <ele>107.6</ele>
        <time>2025-07-11T11:44:27.003000+02:00</time>
      </trkpt>
      <trkpt lat="46.26655" lon="-0.20429">
        <ele>107.6</ele>
        <time>2025-07-11T11:44:29+02:00</time>
      </trkpt>
      <trkpt lat="46.26657" lon="-0.20426">
        <ele>107.5</ele>
        <time>2025-07-11T11:44:30.002000+02:00</time>
      </trkpt>
      <trkpt lat="46.26661" lon="-0.20423">
        <ele>107.3</ele>
        <time>2025-07-11T11:44:31.002000+02:00</time>
      </trkpt>
      <trkpt lat="46.26665" lon="-0.2042">
        <ele>107.1</ele>
        <time>2025-07-11T11:44:32.002000+02:00</time>
      </trkpt>
      <trkpt lat="46.2667" lon="-0.20415">
        <ele>106.9</ele>
        <time>2025-07-11T11:44:34.002000+02:00</time>
      </trkpt>
      <trkpt lat="46.26673" lon="-0.20414">
        <ele>106.9</ele>
        <time>2025-07-11T11:44:35.002000+02:00</time>
      </trkpt>
      <trkpt lat="46.26677" lon="-0.20412">
        <ele>106.8</ele>
        <time>2025-07-11T11:44:36.002000+02:00</time>
      </trkpt>
      <trkpt lat="46.26683" lon="-0.20407">
        <ele>106.8</ele>
        <time>2025-07-11T11:44:38.002000+02:00</time>
      </trkpt>
      <trkpt lat="46.2669" lon="-0.20403">
        <ele>106.8</ele>
        <time>2025-07-11T11:44:40.001000+02:00</time>
      </trkpt>
      <trkpt lat="46.26694" lon="-0.20402">
        <ele>106.7</ele>
        <time>2025-07-11T11:44:41.001000+02:00</time>
      </trkpt>
      <trkpt lat="46.26698" lon="-0.20401">
        <ele>106.6</ele>
        <time>2025-07-11T11:44:42.001000+02:00</time>
      </trkpt>
      <trkpt lat="46.26706" lon="-0.20402">
        <ele>106.4</ele>
        <time>2025-07-11T11:44:44.002000+02:00</time>
      </trkpt>
      <trkpt lat="46.2671" lon="-0.20402">
        <ele>106.3</ele>
        <time>2025-07-11T11:44:45.003000+02:00</time>
      </trkpt>
      <trkpt lat="46.26717" lon="-0.20401">
        <ele>106.3</ele>
        <time>2025-07-11T11:44:47.002000+02:00</time>
      </trkpt>
      <trkpt lat="46.26723" lon="-0.20399">
        <ele>106.2</ele>
        <time>2025-07-11T11:44:49+02:00</time>
      </trkpt>
      <trkpt lat="46.26727" lon="-0.20398">
        <ele>106.2</ele>
        <time>2025-07-11T11:44:50.002000+02:00</time>
      </trkpt>
      <trkpt lat="46.26732" lon="-0.20395">
        <ele>106.2</ele>
        <time>2025-07-11T11:44:52.001000+02:00</time>
      </trkpt>
      <trkpt lat="46.26736" lon="-0.20394">
        <ele>106.1</ele>
        <time>2025-07-11T11:44:53.001000+02:00</time>
      </trkpt>
      <trkpt lat="46.26739" lon="-0.20394">
        <ele>106</ele>
        <time>2025-07-11T11:44:54.002000+02:00</time>
      </trkpt>
      <trkpt lat="46.26746" lon="-0.20391">
        <ele>105.9</ele>
        <time>2025-07-11T11:44:56.002000+02:00</time>
      </trkpt>
      <trkpt lat="46.26753" lon="-0.20389">
        <ele>106</ele>
        <time>2025-07-11T11:44:58.002000+02:00</time>
      </trkpt>
      <trkpt lat="46.26758" lon="-0.20388">
        <ele>106.1</ele>
        <time>2025-07-11T11:45:00.001000+02:00</time>
      </trkpt>
      <trkpt lat="46.26761" lon="-0.20387">
        <ele>106.3</ele>
        <time>2025-07-11T11:45:01.001000+02:00</time>
      </trkpt>
      <trkpt lat="46.26764" lon="-0.20386">
        <ele>106.4</ele>
        <time>2025-07-11T11:45:02.001000+02:00</time>
      </trkpt>
      <trkpt lat="46.26767" lon="-0.20385">
        <ele>106.5</ele>
        <time>2025-07-11T11:45:03.003000+02:00</time>
      </trkpt>
      <trkpt lat="46.26773" lon="-0.20382">
        <ele>106.7</ele>
        <time>2025-07-11T11:45:05.001000+02:00</time>
      </trkpt>
      <trkpt lat="46.26777" lon="-0.20381">
        <ele>106.9</ele>
        <time>2025-07-11T11:45:06.001000+02:00</time>
      </trkpt>
      <trkpt lat="46.26781" lon="-0.20379">
        <ele>107</ele>
        <time>2025-07-11T11:45:07.004000+02:00</time>
      </trkpt>
      <trkpt lat="46.26786" lon="-0.20378">
        <ele>107.2</ele>
        <time>2025-07-11T11:45:09.003000+02:00</time>
      </trkpt>
      <trkpt lat="46.26792" lon="-0.20375">
        <ele>107.5</ele>
        <time>2025-07-11T11:45:11.001000+02:00</time>
      </trkpt>
      <trkpt lat="46.26798" lon="-0.20373">
        <ele>107.8</ele>
        <time>2025-07-11T11:45:13+02:00</time>
      </trkpt>
      <trkpt lat="46.268" lon="-0.20371">
        <ele>107.9</ele>
        <time>2025-07-11T11:45:14.006000+02:00</time>
      </trkpt>
      <trkpt lat="46.26806" lon="-0.20368">
        <ele>108.2</ele>
        <time>2025-07-11T11:45:16.001000+02:00</time>
      </trkpt>
      <trkpt lat="46.26808" lon="-0.20367">
        <ele>108.3</ele>
        <time>2025-07-11T11:45:17.002000+02:00</time>
      </trkpt>
      <trkpt lat="46.26814" lon="-0.20364">
        <ele>108.7</ele>
        <time>2025-07-11T11:45:19.001000+02:00</time>
      </trkpt>
      <trkpt lat="46.26817" lon="-0.20362">
        <ele>108.9</ele>
        <time>2025-07-11T11:45:20.001000+02:00</time>
      </trkpt>
      <trkpt lat="46.26819" lon="-0.2036">
        <ele>109.1</ele>
        <time>2025-07-11T11:45:21.001000+02:00</time>
      </trkpt>
      <trkpt lat="46.26823" lon="-0.20355">
        <ele>109.8</ele>
        <time>2025-07-11T11:45:23.001000+02:00</time>
      </trkpt>
      <trkpt lat="46.26825" lon="-0.20352">
        <ele>110.1</ele>
        <time>2025-07-11T11:45:24.001000+02:00</time>
      </trkpt>
      <trkpt lat="46.26825" lon="-0.20349">
        <ele>110.4</ele>
        <time>2025-07-11T11:45:25.001000+02:00</time>
      </trkpt>
      <trkpt lat="46.26826" lon="-0.20346">
        <ele>110.7</ele>
        <time>2025-07-11T11:45:26.001000+02:00</time>
      </trkpt>
      <trkpt lat="46.26827" lon="-0.20343">
        <ele>111.1</ele>
        <time>2025-07-11T11:45:27.001000+02:00</time>
      </trkpt>
      <trkpt lat="46.26828" lon="-0.20338">
        <ele>111.7</ele>
        <time>2025-07-11T11:45:29.001000+02:00</time>
      </trkpt>
      <trkpt lat="46.2683" lon="-0.20331">
        <ele>112.4</ele>
        <time>2025-07-11T11:45:31.001000+02:00</time>
      </trkpt>
      <trkpt lat="46.2683" lon="-0.20329">
        <ele>112.6</ele>
        <time>2025-07-11T11:45:32.003000+02:00</time>
      </trkpt>
      <trkpt lat="46.2683" lon="-0.20324">
        <ele>113.2</ele>
        <time>2025-07-11T11:45:34.002000+02:00</time>
      </trkpt>
      <trkpt lat="46.26829" lon="-0.20322">
        <ele>113.4</ele>
        <time>2025-07-11T11:45:35.002000+02:00</time>
      </trkpt>
      <trkpt lat="46.26828" lon="-0.20321">
        <ele>113.6</ele>
        <time>2025-07-11T11:45:36.002000+02:00</time>
      </trkpt>
      <trkpt lat="46.26828" lon="-0.20319">
        <ele>113.8</ele>
        <time>2025-07-11T11:45:38.001000+02:00</time>
      </trkpt>
      <trkpt lat="46.26828" lon="-0.20319">
        <ele>113.8</ele>
        <time>2025-07-11T11:45:39.002000+02:00</time>
      </trkpt>
      <trkpt lat="46.26828" lon="-0.20307">
        <ele>115.2</ele>
        <time>2025-07-11T11:45:51.001000+02:00</time>
      </trkpt>
      <trkpt lat="46.26828" lon="-0.20305">
        <ele>115.5</ele>
        <time>2025-07-11T11:45:52.001000+02:00</time>
      </trkpt>
      <trkpt lat="46.26827" lon="-0.20303">
        <ele>115.7</ele>
        <time>2025-07-11T11:45:53.001000+02:00</time>
      </trkpt>
      <trkpt lat="46.26827" lon="-0.20302">
        <ele>115.9</ele>
        <time>2025-07-11T11:45:54.001000+02:00</time>
      </trkpt>
      <trkpt lat="46.26827" lon="-0.20301">
        <ele>115.9</ele>
        <time>2025-07-11T11:45:55.001000+02:00</time>
      </trkpt>
      <trkpt lat="46.26827" lon="-0.20301">
        <ele>115.9</ele>
        <time>2025-07-11T11:45:56.001000+02:00</time>
      </trkpt>
      <trkpt lat="46.26829" lon="-0.2029">
        <ele>117</ele>
        <time>2025-07-11T11:46:06.001000+02:00</time>
      </trkpt>
      <trkpt lat="46.2683" lon="-0.20287">
        <ele>117.2</ele>
        <time>2025-07-11T11:46:07.001000+02:00</time>
      </trkpt>
      <trkpt lat="46.26831" lon="-0.20286">
        <ele>117.3</ele>
        <time>2025-07-11T11:46:08.002000+02:00</time>
      </trkpt>
      <trkpt lat="46.26832" lon="-0.20285">
        <ele>117.4</ele>
        <time>2025-07-11T11:46:09.003000+02:00</time>
      </trkpt>
      <trkpt lat="46.26834" lon="-0.20283">
        <ele>117.4</ele>
        <time>2025-07-11T11:46:11.001000+02:00</time>
      </trkpt>
      <trkpt lat="46.26834" lon="-0.20282">
        <ele>117.5</ele>
        <time>2025-07-11T11:46:12.002000+02:00</time>
      </trkpt>
      <trkpt lat="46.26834" lon="-0.20281">
        <ele>117.6</ele>
        <time>2025-07-11T11:46:14.002000+02:00</time>
      </trkpt>
      <trkpt lat="46.26834" lon="-0.20281">
        <ele>117.6</ele>
        <time>2025-07-11T11:46:15.002000+02:00</time>
      </trkpt>
      <trkpt lat="46.26834" lon="-0.20281">
        <ele>117.6</ele>
        <time>2025-07-11T11:46:16.002000+02:00</time>
      </trkpt>
      <trkpt lat="46.26838" lon="-0.20274">
        <ele>118</ele>
        <time>2025-07-11T11:46:24.002000+02:00</time>
      </trkpt>
      <trkpt lat="46.2684" lon="-0.20271">
        <ele>118.3</ele>
        <time>2025-07-11T11:46:25.002000+02:00</time>
      </trkpt>
      <trkpt lat="46.26841" lon="-0.20269">
        <ele>118.5</ele>
        <time>2025-07-11T11:46:26.003000+02:00</time>
      </trkpt>
      <trkpt lat="46.26842" lon="-0.20263">
        <ele>119</ele>
        <time>2025-07-11T11:46:28.002000+02:00</time>
      </trkpt>
      <trkpt lat="46.26843" lon="-0.2026">
        <ele>119.3</ele>
        <time>2025-07-11T11:46:29.002000+02:00</time>
      </trkpt>
      <trkpt lat="46.26845" lon="-0.20254">
        <ele>119.7</ele>
        <time>2025-07-11T11:46:31.001000+02:00</time>
      </trkpt>
      <trkpt lat="46.26846" lon="-0.20251">
        <ele>119.9</ele>
        <time>2025-07-11T11:46:32.002000+02:00</time>
      </trkpt>
      <trkpt lat="46.26847" lon="-0.20249">
        <ele>120.1</ele>
        <time>2025-07-11T11:46:33.003000+02:00</time>
      </trkpt>
      <trkpt lat="46.26849" lon="-0.20244">
        <ele>120.5</ele>
        <time>2025-07-11T11:46:35+02:00</time>
      </trkpt>
      <trkpt lat="46.2685" lon="-0.20241">
        <ele>120.7</ele>
        <time>2025-07-11T11:46:36.002000+02:00</time>
      </trkpt>
      <trkpt lat="46.2685" lon="-0.20237">
        <ele>121</ele>
        <time>2025-07-11T11:46:38.001000+02:00</time>
      </trkpt>
      <trkpt lat="46.26851" lon="-0.20235">
        <ele>121.2</ele>
        <time>2025-07-11T11:46:39.001000+02:00</time>
      </trkpt>
      <trkpt lat="46.26852" lon="-0.20233">
        <ele>121.3</ele>
        <time>2025-07-11T11:46:40.001000+02:00</time>
      </trkpt>
      <trkpt lat="46.26854" lon="-0.2023">
        <ele>121.5</ele>
        <time>2025-07-11T11:46:41.003000+02:00</time>
      </trkpt>
      <trkpt lat="46.26858" lon="-0.20225">
        <ele>121.9</ele>
        <time>2025-07-11T11:46:43.001000+02:00</time>
      </trkpt>
      <trkpt lat="46.26859" lon="-0.20222">
        <ele>122.1</ele>
        <time>2025-07-11T11:46:44.002000+02:00</time>
      </trkpt>
      <trkpt lat="46.2686" lon="-0.2022">
        <ele>122.2</ele>
        <time>2025-07-11T11:46:45.002000+02:00</time>
      </trkpt>
      <trkpt lat="46.26861" lon="-0.20217">
        <ele>122.4</ele>
        <time>2025-07-11T11:46:47.001000+02:00</time>
      </trkpt>
      <trkpt lat="46.26862" lon="-0.20216">
        <ele>122.4</ele>
        <time>2025-07-11T11:46:48.002000+02:00</time>
      </trkpt>
      <trkpt lat="46.26863" lon="-0.20213">
        <ele>122.4</ele>
        <time>2025-07-11T11:46:50.002000+02:00</time>
      </trkpt>
      <trkpt lat="46.26864" lon="-0.20212">
        <ele>122.4</ele>
        <time>2025-07-11T11:46:51.002000+02:00</time>
      </trkpt>
      <trkpt lat="46.26866" lon="-0.2021">
        <ele>122.4</ele>
        <time>2025-07-11T11:46:53.001000+02:00</time>
      </trkpt>
      <trkpt lat="46.26868" lon="-0.20211">
        <ele>122.1</ele>
        <time>2025-07-11T11:46:54.002000+02:00</time>
      </trkpt>
      <trkpt lat="46.26874" lon="-0.20214">
        <ele>121.2</ele>
        <time>2025-07-11T11:46:56.002000+02:00</time>
      </trkpt>
      <trkpt lat="46.26877" lon="-0.20218">
        <ele>120.6</ele>
        <time>2025-07-11T11:46:58+02:00</time>
      </trkpt>
      <trkpt lat="46.26879" lon="-0.20218">
        <ele>120.3</ele>
        <time>2025-07-11T11:46:59+02:00</time>
      </trkpt>
      <trkpt lat="46.26882" lon="-0.20219">
        <ele>120</ele>
        <time>2025-07-11T11:47:00.001000+02:00</time>
      </trkpt>
      <trkpt lat="46.26885" lon="-0.2022">
        <ele>119.6</ele>
        <time>2025-07-11T11:47:01.001000+02:00</time>
      </trkpt>
      <trkpt lat="46.26887" lon="-0.20222">
        <ele>119.2</ele>
        <time>2025-07-11T11:47:02.002000+02:00</time>
      </trkpt>
      <trkpt lat="46.26889" lon="-0.20224">
        <ele>118.9</ele>
        <time>2025-07-11T11:47:03.002000+02:00</time>
      </trkpt>
      <trkpt lat="46.26893" lon="-0.20227">
        <ele>118.2</ele>
        <time>2025-07-11T11:47:05.002000+02:00</time>
      </trkpt>
      <trkpt lat="46.26897" lon="-0.20229">
        <ele>117.6</ele>
        <time>2025-07-11T11:47:07.001000+02:00</time>
      </trkpt>
      <trkpt lat="46.269" lon="-0.20231">
        <ele>117.2</ele>
        <time>2025-07-11T11:47:08.001000+02:00</time>
      </trkpt>
      <trkpt lat="46.26902" lon="-0.20233">
        <ele>116.8</ele>
        <time>2025-07-11T11:47:09.002000+02:00</time>
      </trkpt>
      <trkpt lat="46.26907" lon="-0.20236">
        <ele>116.1</ele>
        <time>2025-07-11T11:47:11.001000+02:00</time>
      </trkpt>
      <trkpt lat="46.26912" lon="-0.20237">
        <ele>115.5</ele>
        <time>2025-07-11T11:47:13.001000+02:00</time>
      </trkpt>
      <trkpt lat="46.26914" lon="-0.20238">
        <ele>115.2</ele>
        <time>2025-07-11T11:47:14.001000+02:00</time>
      </trkpt>
      <trkpt lat="46.26916" lon="-0.2024">
        <ele>114.9</ele>
        <time>2025-07-11T11:47:15.002000+02:00</time>
      </trkpt>
      <trkpt lat="46.26918" lon="-0.20243">
        <ele>114.3</ele>
        <time>2025-07-11T11:47:17+02:00</time>
      </trkpt>
      <trkpt lat="46.2692" lon="-0.20244">
        <ele>114</ele>
        <time>2025-07-11T11:47:18.002000+02:00</time>
      </trkpt>
      <trkpt lat="46.26922" lon="-0.20246">
        <ele>113.4</ele>
        <time>2025-07-11T11:47:20.001000+02:00</time>
      </trkpt>
      <trkpt lat="46.26925" lon="-0.20247">
        <ele>113</ele>
        <time>2025-07-11T11:47:21.002000+02:00</time>
      </trkpt>
      <trkpt lat="46.2693" lon="-0.20251">
        <ele>112</ele>
        <time>2025-07-11T11:47:23.001000+02:00</time>
      </trkpt>
      <trkpt lat="46.26935" lon="-0.20253">
        <ele>111.2</ele>
        <time>2025-07-11T11:47:25.001000+02:00</time>
      </trkpt>
      <trkpt lat="46.26937" lon="-0.20254">
        <ele>110.8</ele>
        <time>2025-07-11T11:47:26.003000+02:00</time>
      </trkpt>
      <trkpt lat="46.26939" lon="-0.20255">
        <ele>110.4</ele>
        <time>2025-07-11T11:47:27.006000+02:00</time>
      </trkpt>
      <trkpt lat="46.26945" lon="-0.20256">
        <ele>109.5</ele>
        <time>2025-07-11T11:47:29.001000+02:00</time>
      </trkpt>
      <trkpt lat="46.26947" lon="-0.20257">
        <ele>109.1</ele>
        <time>2025-07-11T11:47:30.001000+02:00</time>
      </trkpt>
      <trkpt lat="46.26949" lon="-0.20261">
        <ele>108.5</ele>
        <time>2025-07-11T11:47:32.001000+02:00</time>
      </trkpt>
      <trkpt lat="46.26951" lon="-0.20261">
        <ele>108.2</ele>
        <time>2025-07-11T11:47:33.004000+02:00</time>
      </trkpt>
      <trkpt lat="46.26955" lon="-0.20262">
        <ele>107.6</ele>
        <time>2025-07-11T11:47:35.002000+02:00</time>
      </trkpt>
      <trkpt lat="46.26958" lon="-0.20261">
        <ele>107.2</ele>
        <time>2025-07-11T11:47:37.001000+02:00</time>
      </trkpt>
      <trkpt lat="46.2696" lon="-0.20262">
        <ele>106.9</ele>
        <time>2025-07-11T11:47:38.001000+02:00</time>
      </trkpt>
      <trkpt lat="46.26962" lon="-0.20263">
        <ele>106.5</ele>
        <time>2025-07-11T11:47:39.002000+02:00</time>
      </trkpt>
      <trkpt lat="46.26966" lon="-0.20266">
        <ele>105.7</ele>
        <time>2025-07-11T11:47:41.001000+02:00</time>
      </trkpt>
      <trkpt lat="46.26968" lon="-0.20269">
        <ele>105.2</ele>
        <time>2025-07-11T11:47:42.001000+02:00</time>
      </trkpt>
      <trkpt lat="46.2697" lon="-0.20272">
        <ele>104.8</ele>
        <time>2025-07-11T11:47:43.002000+02:00</time>
      </trkpt>
      <trkpt lat="46.26972" lon="-0.20278">
        <ele>104.1</ele>
        <time>2025-07-11T11:47:45.001000+02:00</time>
      </trkpt>
      <trkpt lat="46.26971" lon="-0.20282">
        <ele>104</ele>
        <time>2025-07-11T11:47:46.001000+02:00</time>
      </trkpt>
      <trkpt lat="46.2697" lon="-0.20287">
        <ele>103.9</ele>
        <time>2025-07-11T11:47:47.001000+02:00</time>
      </trkpt>
      <trkpt lat="46.26969" lon="-0.20291">
        <ele>103.9</ele>
        <time>2025-07-11T11:47:48.001000+02:00</time>
      </trkpt>
      <trkpt lat="46.26967" lon="-0.20301">
        <ele>103.8</ele>
        <time>2025-07-11T11:47:50.001000+02:00</time>
      </trkpt>
      <trkpt lat="46.26964" lon="-0.20291">
        <ele>104.5</ele>
        <time>2025-07-11T11:47:51.003000+02:00</time>
      </trkpt>
      <trkpt lat="46.26961" lon="-0.20303">
        <ele>104.3</ele>
        <time>2025-07-11T11:47:53.001000+02:00</time>
      </trkpt>
      <trkpt lat="46.2696" lon="-0.2031">
        <ele>104.3</ele>
        <time>2025-07-11T11:47:54.001000+02:00</time>
      </trkpt>
      <trkpt lat="46.26958" lon="-0.20318">
        <ele>104.3</ele>
        <time>2025-07-11T11:47:55.002000+02:00</time>
      </trkpt>
      <trkpt lat="46.26953" lon="-0.20334">
        <ele>104.3</ele>
        <time>2025-07-11T11:47:57.003000+02:00</time>
      </trkpt>
      <trkpt lat="46.26954" lon="-0.20347">
        <ele>103.7</ele>
        <time>2025-07-11T11:47:59.002000+02:00</time>
      </trkpt>
      <trkpt lat="46.26957" lon="-0.2036">
        <ele>103</ele>
        <time>2025-07-11T11:48:01.001000+02:00</time>
      </trkpt>
      <trkpt lat="46.26965" lon="-0.20371">
        <ele>102.9</ele>
        <time>2025-07-11T11:48:03.001000+02:00</time>
      </trkpt>
      <trkpt lat="46.26969" lon="-0.20375">
        <ele>102.9</ele>
        <time>2025-07-11T11:48:04.002000+02:00</time>
      </trkpt>
      <trkpt lat="46.26977" lon="-0.20388">
        <ele>103</ele>
        <time>2025-07-11T11:48:06.001000+02:00</time>
      </trkpt>
      <trkpt lat="46.26978" lon="-0.20394">
        <ele>103</ele>
        <time>2025-07-11T11:48:07.001000+02:00</time>
      </trkpt>
      <trkpt lat="46.2698" lon="-0.204">
        <ele>103</ele>
        <time>2025-07-11T11:48:08.001000+02:00</time>
      </trkpt>
      <trkpt lat="46.26982" lon="-0.20405">
        <ele>103</ele>
        <time>2025-07-11T11:48:09.002000+02:00</time>
      </trkpt>
      <trkpt lat="46.26982" lon="-0.20414">
        <ele>103</ele>
        <time>2025-07-11T11:48:11.002000+02:00</time>
      </trkpt>
      <trkpt lat="46.26982" lon="-0.2042">
        <ele>103</ele>
        <time>2025-07-11T11:48:12.002000+02:00</time>
      </trkpt>
      <trkpt lat="46.26983" lon="-0.20432">
        <ele>103</ele>
        <time>2025-07-11T11:48:14.001000+02:00</time>
      </trkpt>
      <trkpt lat="46.26985" lon="-0.20437">
        <ele>103</ele>
        <time>2025-07-11T11:48:15.003000+02:00</time>
      </trkpt>
      <trkpt lat="46.26988" lon="-0.20446">
        <ele>103.2</ele>
        <time>2025-07-11T11:48:17.002000+02:00</time>
      </trkpt>
      <trkpt lat="46.26991" lon="-0.20455">
        <ele>104</ele>
        <time>2025-07-11T11:48:19+02:00</time>
      </trkpt>
      <trkpt lat="46.26992" lon="-0.20459">
        <ele>104.4</ele>
        <time>2025-07-11T11:48:20.001000+02:00</time>
      </trkpt>
      <trkpt lat="46.26994" lon="-0.20463">
        <ele>104.8</ele>
        <time>2025-07-11T11:48:21.002000+02:00</time>
      </trkpt>
      <trkpt lat="46.26994" lon="-0.20472">
        <ele>105.7</ele>
        <time>2025-07-11T11:48:22.002000+02:00</time>
      </trkpt>
      <trkpt lat="46.2699" lon="-0.20476">
        <ele>105.8</ele>
        <time>2025-07-11T11:48:23.002000+02:00</time>
      </trkpt>
      <trkpt lat="46.2699" lon="-0.20483">
        <ele>106.2</ele>
        <time>2025-07-11T11:48:25.001000+02:00</time>
      </trkpt>
      <trkpt lat="46.26993" lon="-0.20486">
        <ele>106.4</ele>
        <time>2025-07-11T11:48:26.001000+02:00</time>
      </trkpt>
      <trkpt lat="46.26995" lon="-0.2049">
        <ele>106.6</ele>
        <time>2025-07-11T11:48:27.001000+02:00</time>
      </trkpt>
      <trkpt lat="46.26997" lon="-0.20493">
        <ele>106.7</ele>
        <time>2025-07-11T11:48:28.002000+02:00</time>
      </trkpt>
      <trkpt lat="46.27001" lon="-0.20499">
        <ele>107</ele>
        <time>2025-07-11T11:48:30.001000+02:00</time>
      </trkpt>
      <trkpt lat="46.27003" lon="-0.20501">
        <ele>107.4</ele>
        <time>2025-07-11T11:48:31.002000+02:00</time>
      </trkpt>
      <trkpt lat="46.27007" lon="-0.20505">
        <ele>108.1</ele>
        <time>2025-07-11T11:48:33.001000+02:00</time>
      </trkpt>
      <trkpt lat="46.27009" lon="-0.20507">
        <ele>108.5</ele>
        <time>2025-07-11T11:48:34.001000+02:00</time>
      </trkpt>
      <trkpt lat="46.27011" lon="-0.20509">
        <ele>108.8</ele>
        <time>2025-07-11T11:48:35.001000+02:00</time>
      </trkpt>
      <trkpt lat="46.27012" lon="-0.20511">
        <ele>109.1</ele>
        <time>2025-07-11T11:48:36.001000+02:00</time>
      </trkpt>
      <trkpt lat="46.27014" lon="-0.20513">
        <ele>109.4</ele>
        <time>2025-07-11T11:48:37.001000+02:00</time>
      </trkpt>
      <trkpt lat="46.27016" lon="-0.20515">
        <ele>109.7</ele>
        <time>2025-07-11T11:48:38.002000+02:00</time>
      </trkpt>
      <trkpt lat="46.27019" lon="-0.2052">
        <ele>110.3</ele>
        <time>2025-07-11T11:48:40.001000+02:00</time>
      </trkpt>
      <trkpt lat="46.2702" lon="-0.20523">
        <ele>110.5</ele>
        <time>2025-07-11T11:48:41.001000+02:00</time>
      </trkpt>
      <trkpt lat="46.27021" lon="-0.20526">
        <ele>110.8</ele>
        <time>2025-07-11T11:48:42.001000+02:00</time>
      </trkpt>
      <trkpt lat="46.27022" lon="-0.20529">
        <ele>111.1</ele>
        <time>2025-07-11T11:48:43.001000+02:00</time>
      </trkpt>
      <trkpt lat="46.27023" lon="-0.20533">
        <ele>111.3</ele>
        <time>2025-07-11T11:48:44.003000+02:00</time>
      </trkpt>
      <trkpt lat="46.27023" lon="-0.20536">
        <ele>111.6</ele>
        <time>2025-07-11T11:48:45.003000+02:00</time>
      </trkpt>
      <trkpt lat="46.27023" lon="-0.20544">
        <ele>112</ele>
        <time>2025-07-11T11:48:47.002000+02:00</time>
      </trkpt>
      <trkpt lat="46.27022" lon="-0.20547">
        <ele>112.3</ele>
        <time>2025-07-11T11:48:48.003000+02:00</time>
      </trkpt>
      <trkpt lat="46.27022" lon="-0.20554">
        <ele>112.7</ele>
        <time>2025-07-11T11:48:50.001000+02:00</time>
      </trkpt>
      <trkpt lat="46.27022" lon="-0.20557">
        <ele>112.8</ele>
        <time>2025-07-11T11:48:51.002000+02:00</time>
      </trkpt>
      <trkpt lat="46.27021" lon="-0.20562">
        <ele>113</ele>
        <time>2025-07-11T11:48:53.002000+02:00</time>
      </trkpt>
      <trkpt lat="46.27021" lon="-0.2057">
        <ele>113.3</ele>
        <time>2025-07-11T11:48:55.001000+02:00</time>
      </trkpt>
      <trkpt lat="46.27021" lon="-0.20574">
        <ele>113.4</ele>
        <time>2025-07-11T11:48:56.002000+02:00</time>
      </trkpt>
      <trkpt lat="46.27022" lon="-0.20579">
        <ele>113.6</ele>
        <time>2025-07-11T11:48:57.003000+02:00</time>
      </trkpt>
      <trkpt lat="46.27022" lon="-0.20586">
        <ele>113.8</ele>
        <time>2025-07-11T11:48:59.001000+02:00</time>
      </trkpt>
      <trkpt lat="46.27023" lon="-0.2059">
        <ele>113.9</ele>
        <time>2025-07-11T11:49:00.002000+02:00</time>
      </trkpt>
      <trkpt lat="46.27026" lon="-0.20596">
        <ele>114</ele>
        <time>2025-07-11T11:49:02.002000+02:00</time>
      </trkpt>
      <trkpt lat="46.27028" lon="-0.20598">
        <ele>114</ele>
        <time>2025-07-11T11:49:03.003000+02:00</time>
      </trkpt>
      <trkpt lat="46.27032" lon="-0.20602">
        <ele>114.1</ele>
        <time>2025-07-11T11:49:05.001000+02:00</time>
      </trkpt>
      <trkpt lat="46.27035" lon="-0.20602">
        <ele>114.1</ele>
        <time>2025-07-11T11:49:06.001000+02:00</time>
      </trkpt>
      <trkpt lat="46.27037" lon="-0.20603">
        <ele>114.1</ele>
        <time>2025-07-11T11:49:07.001000+02:00</time>
      </trkpt>
      <trkpt lat="46.27039" lon="-0.20603">
        <ele>114.2</ele>
        <time>2025-07-11T11:49:08.002000+02:00</time>
      </trkpt>
      <trkpt lat="46.27041" lon="-0.20605">
        <ele>114.3</ele>
        <time>2025-07-11T11:49:09.003000+02:00</time>
      </trkpt>
      <trkpt lat="46.27043" lon="-0.2061">
        <ele>114.5</ele>
        <time>2025-07-11T11:49:11.001000+02:00</time>
      </trkpt>
      <trkpt lat="46.27044" lon="-0.20614">
        <ele>114.6</ele>
        <time>2025-07-11T11:49:12.001000+02:00</time>
      </trkpt>
      <trkpt lat="46.27044" lon="-0.20621">
        <ele>114.6</ele>
        <time>2025-07-11T11:49:14.002000+02:00</time>
      </trkpt>
      <trkpt lat="46.27044" lon="-0.20624">
        <ele>114.6</ele>
        <time>2025-07-11T11:49:15.002000+02:00</time>
      </trkpt>
      <trkpt lat="46.27044" lon="-0.20632">
        <ele>114.6</ele>
        <time>2025-07-11T11:49:17.001000+02:00</time>
      </trkpt>
      <trkpt lat="46.27044" lon="-0.20636">
        <ele>114.6</ele>
        <time>2025-07-11T11:49:18.002000+02:00</time>
      </trkpt>
      <trkpt lat="46.27043" lon="-0.20644">
        <ele>114.6</ele>
        <time>2025-07-11T11:49:20.003000+02:00</time>
      </trkpt>
      <trkpt lat="46.27042" lon="-0.20652">
        <ele>114.5</ele>
        <time>2025-07-11T11:49:22.001000+02:00</time>
      </trkpt>
      <trkpt lat="46.27041" lon="-0.20656">
        <ele>114.5</ele>
        <time>2025-07-11T11:49:23.001000+02:00</time>
      </trkpt>
      <trkpt lat="46.27041" lon="-0.20661">
        <ele>114.5</ele>
        <time>2025-07-11T11:49:24.002000+02:00</time>
      </trkpt>
      <trkpt lat="46.27039" lon="-0.2067">
        <ele>114.4</ele>
        <time>2025-07-11T11:49:26+02:00</time>
      </trkpt>
      <trkpt lat="46.27039" lon="-0.20674">
        <ele>114.4</ele>
        <time>2025-07-11T11:49:27.003000+02:00</time>
      </trkpt>
      <trkpt lat="46.27038" lon="-0.20683">
        <ele>114.4</ele>
        <time>2025-07-11T11:49:29+02:00</time>
      </trkpt>
      <trkpt lat="46.27037" lon="-0.20687">
        <ele>114.3</ele>
        <time>2025-07-11T11:49:30.003000+02:00</time>
      </trkpt>
      <trkpt lat="46.2703" lon="-0.20688">
        <ele>114.1</ele>
        <time>2025-07-11T11:49:31.003000+02:00</time>
      </trkpt>
      <trkpt lat="46.27032" lon="-0.20698">
        <ele>114.2</ele>
        <time>2025-07-11T11:49:33.003000+02:00</time>
      </trkpt>
      <trkpt lat="46.27032" lon="-0.20708">
        <ele>114.1</ele>
        <time>2025-07-11T11:49:35.002000+02:00</time>
      </trkpt>
      <trkpt lat="46.27032" lon="-0.2071">
        <ele>114.1</ele>
        <time>2025-07-11T11:49:36.002000+02:00</time>
      </trkpt>
      <trkpt lat="46.27032" lon="-0.20718">
        <ele>114.1</ele>
        <time>2025-07-11T11:49:37.003000+02:00</time>
      </trkpt>
      <trkpt lat="46.27031" lon="-0.20726">
        <ele>114.1</ele>
        <time>2025-07-11T11:49:39.001000+02:00</time>
      </trkpt>
      <trkpt lat="46.2703" lon="-0.20736">
        <ele>114</ele>
        <time>2025-07-11T11:49:41+02:00</time>
      </trkpt>
      <trkpt lat="46.2703" lon="-0.2074">
        <ele>114</ele>
        <time>2025-07-11T11:49:42.002000+02:00</time>
      </trkpt>
      <trkpt lat="46.2703" lon="-0.20745">
        <ele>114</ele>
        <time>2025-07-11T11:49:43.002000+02:00</time>
      </trkpt>
      <trkpt lat="46.27029" lon="-0.20749">
        <ele>114</ele>
        <time>2025-07-11T11:49:44.002000+02:00</time>
      </trkpt>
      <trkpt lat="46.27029" lon="-0.20754">
        <ele>113.9</ele>
        <time>2025-07-11T11:49:45.004000+02:00</time>
      </trkpt>
      <trkpt lat="46.27027" lon="-0.20761">
        <ele>113.6</ele>
        <time>2025-07-11T11:49:47.002000+02:00</time>
      </trkpt>
      <trkpt lat="46.27026" lon="-0.20765">
        <ele>113.5</ele>
        <time>2025-07-11T11:49:48.002000+02:00</time>
      </trkpt>
      <trkpt lat="46.27026" lon="-0.20769">
        <ele>113.3</ele>
        <time>2025-07-11T11:49:49.002000+02:00</time>
      </trkpt>
      <trkpt lat="46.27025" lon="-0.20775">
        <ele>113.1</ele>
        <time>2025-07-11T11:49:51.005000+02:00</time>
      </trkpt>
      <trkpt lat="46.27023" lon="-0.20782">
        <ele>113</ele>
        <time>2025-07-11T11:49:53.001000+02:00</time>
      </trkpt>
      <trkpt lat="46.27022" lon="-0.20786">
        <ele>113.1</ele>
        <time>2025-07-11T11:49:54.002000+02:00</time>
      </trkpt>
      <trkpt lat="46.27021" lon="-0.20794">
        <ele>113.1</ele>
        <time>2025-07-11T11:49:56.003000+02:00</time>
      </trkpt>
      <trkpt lat="46.27019" lon="-0.20801">
        <ele>113.3</ele>
        <time>2025-07-11T11:49:58.001000+02:00</time>
      </trkpt>
      <trkpt lat="46.27018" lon="-0.20805">
        <ele>113.3</ele>
        <time>2025-07-11T11:49:59.001000+02:00</time>
      </trkpt>
      <trkpt lat="46.27017" lon="-0.20809">
        <ele>113.4</ele>
        <time>2025-07-11T11:50:00.001000+02:00</time>
      </trkpt>
      <trkpt lat="46.27016" lon="-0.20813">
        <ele>113.4</ele>
        <time>2025-07-11T11:50:01.001000+02:00</time>
      </trkpt>
      <trkpt lat="46.27014" lon="-0.20819">
        <ele>113.5</ele>
        <time>2025-07-11T11:50:03.001000+02:00</time>
      </trkpt>
      <trkpt lat="46.27012" lon="-0.20827">
        <ele>113.6</ele>
        <time>2025-07-11T11:50:05+02:00</time>
      </trkpt>
      <trkpt lat="46.27011" lon="-0.2083">
        <ele>113.6</ele>
        <time>2025-07-11T11:50:06.001000+02:00</time>
      </trkpt>
      <trkpt lat="46.27009" lon="-0.20838">
        <ele>113.7</ele>
        <time>2025-07-11T11:50:08.001000+02:00</time>
      </trkpt>
      <trkpt lat="46.27008" lon="-0.20842">
        <ele>113.7</ele>
        <time>2025-07-11T11:50:09.003000+02:00</time>
      </trkpt>
      <trkpt lat="46.27005" lon="-0.20849">
        <ele>113.8</ele>
        <time>2025-07-11T11:50:11.005000+02:00</time>
      </trkpt>
      <trkpt lat="46.27003" lon="-0.20855">
        <ele>113.9</ele>
        <time>2025-07-11T11:50:13.001000+02:00</time>
      </trkpt>
      <trkpt lat="46.27003" lon="-0.20858">
        <ele>113.9</ele>
        <time>2025-07-11T11:50:14.001000+02:00</time>
      </trkpt>
      <trkpt lat="46.27004" lon="-0.2086">
        <ele>113.9</ele>
        <time>2025-07-11T11:50:15.003000+02:00</time>
      </trkpt>
      <trkpt lat="46.27004" lon="-0.20862">
        <ele>113.9</ele>
        <time>2025-07-11T11:50:16.003000+02:00</time>
      </trkpt>
      <trkpt lat="46.27005" lon="-0.20865">
        <ele>113.8</ele>
        <time>2025-07-11T11:50:17.003000+02:00</time>
      </trkpt>
      <trkpt lat="46.27009" lon="-0.20871">
        <ele>113.8</ele>
        <time>2025-07-11T11:50:19.003000+02:00</time>
      </trkpt>
      <trkpt lat="46.27016" lon="-0.20873">
        <ele>113.7</ele>
        <time>2025-07-11T11:50:21.002000+02:00</time>
      </trkpt>
      <trkpt lat="46.27023" lon="-0.20877">
        <ele>113.6</ele>
        <time>2025-07-11T11:50:23+02:00</time>
      </trkpt>
      <trkpt lat="46.27026" lon="-0.20879">
        <ele>113.7</ele>
        <time>2025-07-11T11:50:24.002000+02:00</time>
      </trkpt>
      <trkpt lat="46.27032" lon="-0.20881">
        <ele>113.8</ele>
        <time>2025-07-11T11:50:26.002000+02:00</time>
      </trkpt>
      <trkpt lat="46.27034" lon="-0.20882">
        <ele>113.8</ele>
        <time>2025-07-11T11:50:27.002000+02:00</time>
      </trkpt>
      <trkpt lat="46.27041" lon="-0.20883">
        <ele>113.9</ele>
        <time>2025-07-11T11:50:29.002000+02:00</time>
      </trkpt>
      <trkpt lat="46.27044" lon="-0.20884">
        <ele>113.9</ele>
        <time>2025-07-11T11:50:30.002000+02:00</time>
      </trkpt>
      <trkpt lat="46.2705" lon="-0.20885">
        <ele>114</ele>
        <time>2025-07-11T11:50:32.002000+02:00</time>
      </trkpt>
      <trkpt lat="46.27056" lon="-0.20885">
        <ele>114</ele>
        <time>2025-07-11T11:50:34.001000+02:00</time>
      </trkpt>
      <trkpt lat="46.27063" lon="-0.20883">
        <ele>114.3</ele>
        <time>2025-07-11T11:50:36.001000+02:00</time>
      </trkpt>
      <trkpt lat="46.27066" lon="-0.20882">
        <ele>114.4</ele>
        <time>2025-07-11T11:50:37.002000+02:00</time>
      </trkpt>
      <trkpt lat="46.27072" lon="-0.20881">
        <ele>114.6</ele>
        <time>2025-07-11T11:50:39.002000+02:00</time>
      </trkpt>
      <trkpt lat="46.27075" lon="-0.2088">
        <ele>114.7</ele>
        <time>2025-07-11T11:50:41.002000+02:00</time>
      </trkpt>
      <trkpt lat="46.27078" lon="-0.20879">
        <ele>114.8</ele>
        <time>2025-07-11T11:50:43.002000+02:00</time>
      </trkpt>
      <trkpt lat="46.2708" lon="-0.20879">
        <ele>114.9</ele>
        <time>2025-07-11T11:50:44.002000+02:00</time>
      </trkpt>
      <trkpt lat="46.27081" lon="-0.20878">
        <ele>114.9</ele>
        <time>2025-07-11T11:50:45.002000+02:00</time>
      </trkpt>
      <trkpt lat="46.27085" lon="-0.20875">
        <ele>115</ele>
        <time>2025-07-11T11:50:47.001000+02:00</time>
      </trkpt>
      <trkpt lat="46.27087" lon="-0.20873">
        <ele>115.1</ele>
        <time>2025-07-11T11:50:48.001000+02:00</time>
      </trkpt>
      <trkpt lat="46.27089" lon="-0.2087">
        <ele>115.1</ele>
        <time>2025-07-11T11:50:49.001000+02:00</time>
      </trkpt>
      <trkpt lat="46.27091" lon="-0.20868">
        <ele>115.1</ele>
        <time>2025-07-11T11:50:50.001000+02:00</time>
      </trkpt>
      <trkpt lat="46.27094" lon="-0.20866">
        <ele>115.1</ele>
        <time>2025-07-11T11:50:51.003000+02:00</time>
      </trkpt>
      <trkpt lat="46.27101" lon="-0.20863">
        <ele>115</ele>
        <time>2025-07-11T11:50:53+02:00</time>
      </trkpt>
      <trkpt lat="46.27105" lon="-0.20862">
        <ele>115</ele>
        <time>2025-07-11T11:50:54.001000+02:00</time>
      </trkpt>
      <trkpt lat="46.27108" lon="-0.20861">
        <ele>115</ele>
        <time>2025-07-11T11:50:55.002000+02:00</time>
      </trkpt>
      <trkpt lat="46.27111" lon="-0.20859">
        <ele>114.9</ele>
        <time>2025-07-11T11:50:56.002000+02:00</time>
      </trkpt>
      <trkpt lat="46.27114" lon="-0.20858">
        <ele>115</ele>
        <time>2025-07-11T11:50:57.002000+02:00</time>
      </trkpt>
      <trkpt lat="46.2712" lon="-0.20855">
        <ele>115.1</ele>
        <time>2025-07-11T11:50:59.002000+02:00</time>
      </trkpt>
      <trkpt lat="46.27123" lon="-0.20853">
        <ele>115.2</ele>
        <time>2025-07-11T11:51:00.004000+02:00</time>
      </trkpt>
      <trkpt lat="46.27129" lon="-0.20851">
        <ele>115.3</ele>
        <time>2025-07-11T11:51:02+02:00</time>
      </trkpt>
      <trkpt lat="46.27132" lon="-0.2085">
        <ele>115.3</ele>
        <time>2025-07-11T11:51:03.002000+02:00</time>
      </trkpt>
      <trkpt lat="46.27138" lon="-0.20848">
        <ele>115.5</ele>
        <time>2025-07-11T11:51:05.001000+02:00</time>
      </trkpt>
      <trkpt lat="46.27141" lon="-0.20847">
        <ele>115.5</ele>
        <time>2025-07-11T11:51:06.005000+02:00</time>
      </trkpt>
      <trkpt lat="46.27148" lon="-0.20845">
        <ele>115.4</ele>
        <time>2025-07-11T11:51:08.002000+02:00</time>
      </trkpt>
      <trkpt lat="46.2715" lon="-0.20844">
        <ele>115.4</ele>
        <time>2025-07-11T11:51:09.002000+02:00</time>
      </trkpt>
      <trkpt lat="46.27156" lon="-0.20842">
        <ele>115.3</ele>
        <time>2025-07-11T11:51:11+02:00</time>
      </trkpt>
      <trkpt lat="46.2716" lon="-0.20841">
        <ele>115.3</ele>
        <time>2025-07-11T11:51:12.001000+02:00</time>
      </trkpt>
      <trkpt lat="46.27163" lon="-0.20841">
        <ele>115.3</ele>
        <time>2025-07-11T11:51:13.001000+02:00</time>
      </trkpt>
      <trkpt lat="46.27167" lon="-0.2084">
        <ele>115.2</ele>
        <time>2025-07-11T11:51:14.002000+02:00</time>
      </trkpt>
      <trkpt lat="46.2717" lon="-0.20838">
        <ele>115.3</ele>
        <time>2025-07-11T11:51:15.002000+02:00</time>
      </trkpt>
      <trkpt lat="46.27173" lon="-0.20837">
        <ele>115.4</ele>
        <time>2025-07-11T11:51:16.002000+02:00</time>
      </trkpt>
      <trkpt lat="46.27176" lon="-0.20836">
        <ele>115.4</ele>
        <time>2025-07-11T11:51:17.002000+02:00</time>
      </trkpt>
      <trkpt lat="46.2718" lon="-0.20834">
        <ele>115.5</ele>
        <time>2025-07-11T11:51:18.003000+02:00</time>
      </trkpt>
      <trkpt lat="46.27186" lon="-0.2083">
        <ele>115.6</ele>
        <time>2025-07-11T11:51:20.001000+02:00</time>
      </trkpt>
      <trkpt lat="46.27189" lon="-0.20829">
        <ele>115.7</ele>
        <time>2025-07-11T11:51:21.002000+02:00</time>
      </trkpt>
      <trkpt lat="46.27196" lon="-0.20826">
        <ele>115.8</ele>
        <time>2025-07-11T11:51:23.002000+02:00</time>
      </trkpt>
      <trkpt lat="46.27202" lon="-0.20823">
        <ele>115.9</ele>
        <time>2025-07-11T11:51:25.001000+02:00</time>
      </trkpt>
      <trkpt lat="46.27209" lon="-0.2082">
        <ele>116</ele>
        <time>2025-07-11T11:51:27.001000+02:00</time>
      </trkpt>
      <trkpt lat="46.27212" lon="-0.20819">
        <ele>116.1</ele>
        <time>2025-07-11T11:51:28.002000+02:00</time>
      </trkpt>
      <trkpt lat="46.27215" lon="-0.20817">
        <ele>116.1</ele>
        <time>2025-07-11T11:51:29.003000+02:00</time>
      </trkpt>
      <trkpt lat="46.27221" lon="-0.20813">
        <ele>116.2</ele>
        <time>2025-07-11T11:51:31.001000+02:00</time>
      </trkpt>
      <trkpt lat="46.27225" lon="-0.20811">
        <ele>116.3</ele>
        <time>2025-07-11T11:51:32.003000+02:00</time>
      </trkpt>
      <trkpt lat="46.27231" lon="-0.20808">
        <ele>116.4</ele>
        <time>2025-07-11T11:51:34.001000+02:00</time>
      </trkpt>
      <trkpt lat="46.27234" lon="-0.20806">
        <ele>116.5</ele>
        <time>2025-07-11T11:51:35.003000+02:00</time>
      </trkpt>
      <trkpt lat="46.27241" lon="-0.20804">
        <ele>116.7</ele>
        <time>2025-07-11T11:51:37.001000+02:00</time>
      </trkpt>
      <trkpt lat="46.27244" lon="-0.20803">
        <ele>116.8</ele>
        <time>2025-07-11T11:51:38.002000+02:00</time>
      </trkpt>
      <trkpt lat="46.27247" lon="-0.20802">
        <ele>116.9</ele>
        <time>2025-07-11T11:51:39.002000+02:00</time>
      </trkpt>
      <trkpt lat="46.27253" lon="-0.20801">
        <ele>117.1</ele>
        <time>2025-07-11T11:51:41.001000+02:00</time>
      </trkpt>
      <trkpt lat="46.27256" lon="-0.208">
        <ele>117.2</ele>
        <time>2025-07-11T11:51:42.002000+02:00</time>
      </trkpt>
      <trkpt lat="46.27259" lon="-0.20799">
        <ele>117.2</ele>
        <time>2025-07-11T11:51:43.002000+02:00</time>
      </trkpt>
      <trkpt lat="46.27265" lon="-0.20797">
        <ele>117.4</ele>
        <time>2025-07-11T11:51:45.002000+02:00</time>
      </trkpt>
      <trkpt lat="46.2727" lon="-0.20797">
        <ele>117.5</ele>
        <time>2025-07-11T11:51:47.001000+02:00</time>
      </trkpt>
      <trkpt lat="46.27273" lon="-0.20796">
        <ele>117.6</ele>
        <time>2025-07-11T11:51:48.002000+02:00</time>
      </trkpt>
      <trkpt lat="46.27277" lon="-0.20795">
        <ele>117.6</ele>
        <time>2025-07-11T11:51:49.003000+02:00</time>
      </trkpt>
      <trkpt lat="46.27283" lon="-0.20794">
        <ele>117.6</ele>
        <time>2025-07-11T11:51:51.003000+02:00</time>
      </trkpt>
      <trkpt lat="46.27286" lon="-0.20794">
        <ele>117.6</ele>
        <time>2025-07-11T11:51:52.003000+02:00</time>
      </trkpt>
      <trkpt lat="46.27292" lon="-0.20794">
        <ele>117.6</ele>
        <time>2025-07-11T11:51:54.002000+02:00</time>
      </trkpt>
      <trkpt lat="46.27295" lon="-0.20793">
        <ele>117.5</ele>
        <time>2025-07-11T11:51:55.002000+02:00</time>
      </trkpt>
      <trkpt lat="46.27299" lon="-0.20793">
        <ele>117.5</ele>
        <time>2025-07-11T11:51:56.003000+02:00</time>
      </trkpt>
      <trkpt lat="46.27302" lon="-0.20793">
        <ele>117.5</ele>
        <time>2025-07-11T11:51:57.004000+02:00</time>
      </trkpt>
      <trkpt lat="46.27309" lon="-0.20792">
        <ele>117.6</ele>
        <time>2025-07-11T11:51:59.001000+02:00</time>
      </trkpt>
      <trkpt lat="46.27312" lon="-0.20791">
        <ele>117.7</ele>
        <time>2025-07-11T11:52:00.003000+02:00</time>
      </trkpt>
      <trkpt lat="46.27316" lon="-0.2079">
        <ele>117.8</ele>
        <time>2025-07-11T11:52:01.003000+02:00</time>
      </trkpt>
      <trkpt lat="46.27319" lon="-0.20788">
        <ele>117.9</ele>
        <time>2025-07-11T11:52:02.003000+02:00</time>
      </trkpt>
      <trkpt lat="46.27326" lon="-0.20786">
        <ele>118</ele>
        <time>2025-07-11T11:52:04.002000+02:00</time>
      </trkpt>
      <trkpt lat="46.27329" lon="-0.20785">
        <ele>118.1</ele>
        <time>2025-07-11T11:52:05.003000+02:00</time>
      </trkpt>
      <trkpt lat="46.27335" lon="-0.20783">
        <ele>118.2</ele>
        <time>2025-07-11T11:52:07.001000+02:00</time>
      </trkpt>
      <trkpt lat="46.27337" lon="-0.20782">
        <ele>118.1</ele>
        <time>2025-07-11T11:52:08.003000+02:00</time>
      </trkpt>
      <trkpt lat="46.27343" lon="-0.20779">
        <ele>118.1</ele>
        <time>2025-07-11T11:52:10.001000+02:00</time>
      </trkpt>
      <trkpt lat="46.27346" lon="-0.20778">
        <ele>118</ele>
        <time>2025-07-11T11:52:11.003000+02:00</time>
      </trkpt>
      <trkpt lat="46.27351" lon="-0.20776">
        <ele>118</ele>
        <time>2025-07-11T11:52:13.001000+02:00</time>
      </trkpt>
      <trkpt lat="46.27354" lon="-0.20775">
        <ele>118</ele>
        <time>2025-07-11T11:52:14.001000+02:00</time>
      </trkpt>
      <trkpt lat="46.27359" lon="-0.20773">
        <ele>118</ele>
        <time>2025-07-11T11:52:16+02:00</time>
      </trkpt>
      <trkpt lat="46.27362" lon="-0.20772">
        <ele>118</ele>
        <time>2025-07-11T11:52:17.002000+02:00</time>
      </trkpt>
      <trkpt lat="46.27367" lon="-0.2077">
        <ele>118.2</ele>
        <time>2025-07-11T11:52:19+02:00</time>
      </trkpt>
      <trkpt lat="46.2737" lon="-0.20769">
        <ele>118.2</ele>
        <time>2025-07-11T11:52:20.001000+02:00</time>
      </trkpt>
      <trkpt lat="46.27374" lon="-0.20768">
        <ele>118.3</ele>
        <time>2025-07-11T11:52:22.001000+02:00</time>
      </trkpt>
      <trkpt lat="46.2738" lon="-0.20766">
        <ele>118.4</ele>
        <time>2025-07-11T11:52:24.001000+02:00</time>
      </trkpt>
      <trkpt lat="46.27383" lon="-0.20765">
        <ele>118.4</ele>
        <time>2025-07-11T11:52:25.001000+02:00</time>
      </trkpt>
      <trkpt lat="46.2739" lon="-0.20764">
        <ele>118.6</ele>
        <time>2025-07-11T11:52:27.001000+02:00</time>
      </trkpt>
      <trkpt lat="46.27397" lon="-0.20764">
        <ele>118.8</ele>
        <time>2025-07-11T11:52:29+02:00</time>
      </trkpt>
      <trkpt lat="46.27401" lon="-0.20763">
        <ele>118.9</ele>
        <time>2025-07-11T11:52:30.001000+02:00</time>
      </trkpt>
      <trkpt lat="46.27404" lon="-0.20763">
        <ele>119</ele>
        <time>2025-07-11T11:52:31.001000+02:00</time>
      </trkpt>
      <trkpt lat="46.27412" lon="-0.20761">
        <ele>119.2</ele>
        <time>2025-07-11T11:52:33.002000+02:00</time>
      </trkpt>
      <trkpt lat="46.27418" lon="-0.20759">
        <ele>119.4</ele>
        <time>2025-07-11T11:52:35+02:00</time>
      </trkpt>
      <trkpt lat="46.27422" lon="-0.20758">
        <ele>119.4</ele>
        <time>2025-07-11T11:52:36+02:00</time>
      </trkpt>
      <trkpt lat="46.27425" lon="-0.20757">
        <ele>119.5</ele>
        <time>2025-07-11T11:52:37+02:00</time>
      </trkpt>
      <trkpt lat="46.27428" lon="-0.20756">
        <ele>119.5</ele>
        <time>2025-07-11T11:52:38+02:00</time>
      </trkpt>
      <trkpt lat="46.27435" lon="-0.20754">
        <ele>119.7</ele>
        <time>2025-07-11T11:52:40+02:00</time>
      </trkpt>
      <trkpt lat="46.27438" lon="-0.20754">
        <ele>119.8</ele>
        <time>2025-07-11T11:52:41+02:00</time>
      </trkpt>
      <trkpt lat="46.27441" lon="-0.20754">
        <ele>119.9</ele>
        <time>2025-07-11T11:52:42.001000+02:00</time>
      </trkpt>
      <trkpt lat="46.27444" lon="-0.20753">
        <ele>120</ele>
        <time>2025-07-11T11:52:43.001000+02:00</time>
      </trkpt>
      <trkpt lat="46.2745" lon="-0.20752">
        <ele>120</ele>
        <time>2025-07-11T11:52:45.001000+02:00</time>
      </trkpt>
      <trkpt lat="46.27457" lon="-0.20751">
        <ele>120</ele>
        <time>2025-07-11T11:52:47.001000+02:00</time>
      </trkpt>
      <trkpt lat="46.27464" lon="-0.2075">
        <ele>120</ele>
        <time>2025-07-11T11:52:49.001000+02:00</time>
      </trkpt>
      <trkpt lat="46.27471" lon="-0.20748">
        <ele>120</ele>
        <time>2025-07-11T11:52:51.001000+02:00</time>
      </trkpt>
      <trkpt lat="46.27478" lon="-0.20747">
        <ele>120.2</ele>
        <time>2025-07-11T11:52:52.999000+02:00</time>
      </trkpt>
      <trkpt lat="46.27482" lon="-0.20746">
        <ele>120.3</ele>
        <time>2025-07-11T11:52:54.001000+02:00</time>
      </trkpt>
      <trkpt lat="46.2749" lon="-0.20742">
        <ele>120.5</ele>
        <time>2025-07-11T11:52:56.001000+02:00</time>
      </trkpt>
      <trkpt lat="46.27494" lon="-0.20741">
        <ele>120.5</ele>
        <time>2025-07-11T11:52:57.001000+02:00</time>
      </trkpt>
      <trkpt lat="46.27498" lon="-0.20739">
        <ele>120.6</ele>
        <time>2025-07-11T11:52:58.001000+02:00</time>
      </trkpt>
      <trkpt lat="46.27501" lon="-0.20739">
        <ele>120.6</ele>
        <time>2025-07-11T11:52:59.002000+02:00</time>
      </trkpt>
      <trkpt lat="46.27503" lon="-0.20738">
        <ele>120.6</ele>
        <time>2025-07-11T11:53:00.002000+02:00</time>
      </trkpt>
      <trkpt lat="46.27509" lon="-0.20737">
        <ele>120.5</ele>
        <time>2025-07-11T11:53:02+02:00</time>
      </trkpt>
      <trkpt lat="46.27512" lon="-0.20737">
        <ele>120.5</ele>
        <time>2025-07-11T11:53:03.001000+02:00</time>
      </trkpt>
      <trkpt lat="46.27517" lon="-0.20737">
        <ele>120.5</ele>
        <time>2025-07-11T11:53:04.999000+02:00</time>
      </trkpt>
      <trkpt lat="46.2752" lon="-0.20737">
        <ele>120.5</ele>
        <time>2025-07-11T11:53:06+02:00</time>
      </trkpt>
      <trkpt lat="46.27523" lon="-0.20737">
        <ele>120.5</ele>
        <time>2025-07-11T11:53:07.001000+02:00</time>
      </trkpt>
      <trkpt lat="46.27528" lon="-0.20736">
        <ele>120.5</ele>
        <time>2025-07-11T11:53:09+02:00</time>
      </trkpt>
      <trkpt lat="46.27531" lon="-0.20735">
        <ele>120.6</ele>
        <time>2025-07-11T11:53:10.001000+02:00</time>
      </trkpt>
      <trkpt lat="46.27536" lon="-0.20733">
        <ele>120.7</ele>
        <time>2025-07-11T11:53:12+02:00</time>
      </trkpt>
      <trkpt lat="46.27539" lon="-0.20732">
        <ele>120.8</ele>
        <time>2025-07-11T11:53:13.001000+02:00</time>
      </trkpt>
      <trkpt lat="46.27546" lon="-0.20731">
        <ele>121</ele>
        <time>2025-07-11T11:53:15.001000+02:00</time>
      </trkpt>
      <trkpt lat="46.27552" lon="-0.20729">
        <ele>121.1</ele>
        <time>2025-07-11T11:53:17+02:00</time>
      </trkpt>
      <trkpt lat="46.27555" lon="-0.20728">
        <ele>121.2</ele>
        <time>2025-07-11T11:53:18.001000+02:00</time>
      </trkpt>
      <trkpt lat="46.27559" lon="-0.20727">
        <ele>121.3</ele>
        <time>2025-07-11T11:53:19.001000+02:00</time>
      </trkpt>
      <trkpt lat="46.27562" lon="-0.20726">
        <ele>121.4</ele>
        <time>2025-07-11T11:53:20.001000+02:00</time>
      </trkpt>
      <trkpt lat="46.27565" lon="-0.20725">
        <ele>121.4</ele>
        <time>2025-07-11T11:53:21.001000+02:00</time>
      </trkpt>
      <trkpt lat="46.27571" lon="-0.20724">
        <ele>121.6</ele>
        <time>2025-07-11T11:53:23.001000+02:00</time>
      </trkpt>
      <trkpt lat="46.27577" lon="-0.20724">
        <ele>121.9</ele>
        <time>2025-07-11T11:53:25+02:00</time>
      </trkpt>
      <trkpt lat="46.27583" lon="-0.20724">
        <ele>122</ele>
        <time>2025-07-11T11:53:27.001000+02:00</time>
      </trkpt>
      <trkpt lat="46.2759" lon="-0.20723">
        <ele>122.1</ele>
        <time>2025-07-11T11:53:29.001000+02:00</time>
      </trkpt>
      <trkpt lat="46.27596" lon="-0.20722">
        <ele>122</ele>
        <time>2025-07-11T11:53:30.999000+02:00</time>
      </trkpt>
      <trkpt lat="46.27599" lon="-0.2072">
        <ele>122</ele>
        <time>2025-07-11T11:53:32.001000+02:00</time>
      </trkpt>
      <trkpt lat="46.27602" lon="-0.2072">
        <ele>122</ele>
        <time>2025-07-11T11:53:33.001000+02:00</time>
      </trkpt>
      <trkpt lat="46.27607" lon="-0.20719">
        <ele>122</ele>
        <time>2025-07-11T11:53:35.001000+02:00</time>
      </trkpt>
      <trkpt lat="46.27614" lon="-0.20718">
        <ele>122.1</ele>
        <time>2025-07-11T11:53:37.001000+02:00</time>
      </trkpt>
      <trkpt lat="46.2762" lon="-0.20718">
        <ele>122.3</ele>
        <time>2025-07-11T11:53:39.002000+02:00</time>
      </trkpt>
      <trkpt lat="46.27625" lon="-0.20718">
        <ele>122.5</ele>
        <time>2025-07-11T11:53:41+02:00</time>
      </trkpt>
      <trkpt lat="46.27628" lon="-0.20718">
        <ele>122.6</ele>
        <time>2025-07-11T11:53:42+02:00</time>
      </trkpt>
      <trkpt lat="46.2763" lon="-0.20718">
        <ele>122.7</ele>
        <time>2025-07-11T11:53:43.003000+02:00</time>
      </trkpt>
      <trkpt lat="46.27634" lon="-0.20717">
        <ele>122.8</ele>
        <time>2025-07-11T11:53:45.001000+02:00</time>
      </trkpt>
      <trkpt lat="46.27637" lon="-0.20717">
        <ele>122.9</ele>
        <time>2025-07-11T11:53:46.001000+02:00</time>
      </trkpt>
      <trkpt lat="46.27639" lon="-0.20717">
        <ele>123</ele>
        <time>2025-07-11T11:53:47.001000+02:00</time>
      </trkpt>
      <trkpt lat="46.27646" lon="-0.20717">
        <ele>123.4</ele>
        <time>2025-07-11T11:53:49.003000+02:00</time>
      </trkpt>
      <trkpt lat="46.27652" lon="-0.20715">
        <ele>123.8</ele>
        <time>2025-07-11T11:53:51.001000+02:00</time>
      </trkpt>
      <trkpt lat="46.27655" lon="-0.20715">
        <ele>124</ele>
        <time>2025-07-11T11:53:52.002000+02:00</time>
      </trkpt>
      <trkpt lat="46.27662" lon="-0.20714">
        <ele>124.4</ele>
        <time>2025-07-11T11:53:54.002000+02:00</time>
      </trkpt>
      <trkpt lat="46.27664" lon="-0.20713">
        <ele>124.5</ele>
        <time>2025-07-11T11:53:55.003000+02:00</time>
      </trkpt>
      <trkpt lat="46.2767" lon="-0.20711">
        <ele>124.6</ele>
        <time>2025-07-11T11:53:57.001000+02:00</time>
      </trkpt>
      <trkpt lat="46.27677" lon="-0.2071">
        <ele>124.5</ele>
        <time>2025-07-11T11:53:59+02:00</time>
      </trkpt>
      <trkpt lat="46.27681" lon="-0.20709">
        <ele>124.5</ele>
        <time>2025-07-11T11:54:00+02:00</time>
      </trkpt>
      <trkpt lat="46.27684" lon="-0.20709">
        <ele>124.5</ele>
        <time>2025-07-11T11:54:01+02:00</time>
      </trkpt>
      <trkpt lat="46.27687" lon="-0.20708">
        <ele>124.5</ele>
        <time>2025-07-11T11:54:02.001000+02:00</time>
      </trkpt>
      <trkpt lat="46.2769" lon="-0.20707">
        <ele>124.4</ele>
        <time>2025-07-11T11:54:03.001000+02:00</time>
      </trkpt>
      <trkpt lat="46.27693" lon="-0.20706">
        <ele>124.4</ele>
        <time>2025-07-11T11:54:04.001000+02:00</time>
      </trkpt>
      <trkpt lat="46.27696" lon="-0.20705">
        <ele>124.4</ele>
        <time>2025-07-11T11:54:05.001000+02:00</time>
      </trkpt>
      <trkpt lat="46.27699" lon="-0.20704">
        <ele>124.5</ele>
        <time>2025-07-11T11:54:06.001000+02:00</time>
      </trkpt>
      <trkpt lat="46.27706" lon="-0.20702">
        <ele>124.7</ele>
        <time>2025-07-11T11:54:08.001000+02:00</time>
      </trkpt>
      <trkpt lat="46.27713" lon="-0.207">
        <ele>124.9</ele>
        <time>2025-07-11T11:54:10+02:00</time>
      </trkpt>
      <trkpt lat="46.27717" lon="-0.207">
        <ele>125</ele>
        <time>2025-07-11T11:54:11.001000+02:00</time>
      </trkpt>
      <trkpt lat="46.27724" lon="-0.20698">
        <ele>125.2</ele>
        <time>2025-07-11T11:54:12.999000+02:00</time>
      </trkpt>
      <trkpt lat="46.27728" lon="-0.20697">
        <ele>125.3</ele>
        <time>2025-07-11T11:54:14+02:00</time>
      </trkpt>
      <trkpt lat="46.27731" lon="-0.20697">
        <ele>125.4</ele>
        <time>2025-07-11T11:54:15.001000+02:00</time>
      </trkpt>
      <trkpt lat="46.27738" lon="-0.20696">
        <ele>125.6</ele>
        <time>2025-07-11T11:54:16.999000+02:00</time>
      </trkpt>
      <trkpt lat="46.27742" lon="-0.20695">
        <ele>125.7</ele>
        <time>2025-07-11T11:54:18.001000+02:00</time>
      </trkpt>
      <trkpt lat="46.27749" lon="-0.20694">
        <ele>125.9</ele>
        <time>2025-07-11T11:54:19.999000+02:00</time>
      </trkpt>
      <trkpt lat="46.27752" lon="-0.20693">
        <ele>126</ele>
        <time>2025-07-11T11:54:21.001000+02:00</time>
      </trkpt>
      <trkpt lat="46.27758" lon="-0.20691">
        <ele>125.9</ele>
        <time>2025-07-11T11:54:23+02:00</time>
      </trkpt>
      <trkpt lat="46.2776" lon="-0.20691">
        <ele>125.9</ele>
        <time>2025-07-11T11:54:24+02:00</time>
      </trkpt>
      <trkpt lat="46.27764" lon="-0.2069">
        <ele>125.9</ele>
        <time>2025-07-11T11:54:25.001000+02:00</time>
      </trkpt>
      <trkpt lat="46.2777" lon="-0.20688">
        <ele>125.9</ele>
        <time>2025-07-11T11:54:27+02:00</time>
      </trkpt>
      <trkpt lat="46.27773" lon="-0.20687">
        <ele>126</ele>
        <time>2025-07-11T11:54:28.001000+02:00</time>
      </trkpt>
      <trkpt lat="46.2778" lon="-0.20685">
        <ele>126</ele>
        <time>2025-07-11T11:54:30+02:00</time>
      </trkpt>
      <trkpt lat="46.27784" lon="-0.20684">
        <ele>126.1</ele>
        <time>2025-07-11T11:54:31.001000+02:00</time>
      </trkpt>
      <trkpt lat="46.27787" lon="-0.20683">
        <ele>126.1</ele>
        <time>2025-07-11T11:54:32.001000+02:00</time>
      </trkpt>
      <trkpt lat="46.2779" lon="-0.20682">
        <ele>126.2</ele>
        <time>2025-07-11T11:54:33.001000+02:00</time>
      </trkpt>
      <trkpt lat="46.27797" lon="-0.2068">
        <ele>126.4</ele>
        <time>2025-07-11T11:54:35.001000+02:00</time>
      </trkpt>
      <trkpt lat="46.278" lon="-0.20679">
        <ele>126.4</ele>
        <time>2025-07-11T11:54:36.001000+02:00</time>
      </trkpt>
      <trkpt lat="46.27807" lon="-0.20677">
        <ele>126.6</ele>
        <time>2025-07-11T11:54:38+02:00</time>
      </trkpt>
      <trkpt lat="46.2781" lon="-0.20676">
        <ele>126.7</ele>
        <time>2025-07-11T11:54:39.001000+02:00</time>
      </trkpt>
      <trkpt lat="46.27813" lon="-0.20675">
        <ele>126.8</ele>
        <time>2025-07-11T11:54:40.003000+02:00</time>
      </trkpt>
      <trkpt lat="46.27821" lon="-0.20673">
        <ele>126.9</ele>
        <time>2025-07-11T11:54:41.999000+02:00</time>
      </trkpt>
      <trkpt lat="46.27824" lon="-0.20671">
        <ele>126.9</ele>
        <time>2025-07-11T11:54:43+02:00</time>
      </trkpt>
      <trkpt lat="46.27827" lon="-0.2067">
        <ele>127</ele>
        <time>2025-07-11T11:54:44+02:00</time>
      </trkpt>
      <trkpt lat="46.27831" lon="-0.20669">
        <ele>127</ele>
        <time>2025-07-11T11:54:45.002000+02:00</time>
      </trkpt>
      <trkpt lat="46.27834" lon="-0.20668">
        <ele>127</ele>
        <time>2025-07-11T11:54:46.002000+02:00</time>
      </trkpt>
      <trkpt lat="46.27841" lon="-0.20666">
        <ele>127.3</ele>
        <time>2025-07-11T11:54:48+02:00</time>
      </trkpt>
      <trkpt lat="46.27845" lon="-0.20665">
        <ele>127.5</ele>
        <time>2025-07-11T11:54:49.001000+02:00</time>
      </trkpt>
      <trkpt lat="46.27849" lon="-0.20663">
        <ele>127.7</ele>
        <time>2025-07-11T11:54:50.001000+02:00</time>
      </trkpt>
      <trkpt lat="46.27852" lon="-0.20662">
        <ele>127.9</ele>
        <time>2025-07-11T11:54:51.001000+02:00</time>
      </trkpt>
      <trkpt lat="46.27855" lon="-0.20661">
        <ele>128</ele>
        <time>2025-07-11T11:54:52.001000+02:00</time>
      </trkpt>
      <trkpt lat="46.27858" lon="-0.20659">
        <ele>128.2</ele>
        <time>2025-07-11T11:54:53.001000+02:00</time>
      </trkpt>
      <trkpt lat="46.27861" lon="-0.20658">
        <ele>128.3</ele>
        <time>2025-07-11T11:54:54.002000+02:00</time>
      </trkpt>
      <trkpt lat="46.27865" lon="-0.20656">
        <ele>128.5</ele>
        <time>2025-07-11T11:54:55.004000+02:00</time>
      </trkpt>
      <trkpt lat="46.2787" lon="-0.20653">
        <ele>128.7</ele>
        <time>2025-07-11T11:54:57.001000+02:00</time>
      </trkpt>
      <trkpt lat="46.27873" lon="-0.20651">
        <ele>128.7</ele>
        <time>2025-07-11T11:54:58.001000+02:00</time>
      </trkpt>
      <trkpt lat="46.27876" lon="-0.2065">
        <ele>128.8</ele>
        <time>2025-07-11T11:54:59.001000+02:00</time>
      </trkpt>
      <trkpt lat="46.27879" lon="-0.20649">
        <ele>128.9</ele>
        <time>2025-07-11T11:55:00.002000+02:00</time>
      </trkpt>
      <trkpt lat="46.27885" lon="-0.20647">
        <ele>129</ele>
        <time>2025-07-11T11:55:02.001000+02:00</time>
      </trkpt>
      <trkpt lat="46.27889" lon="-0.20647">
        <ele>129</ele>
        <time>2025-07-11T11:55:03.002000+02:00</time>
      </trkpt>
      <trkpt lat="46.27896" lon="-0.20646">
        <ele>129</ele>
        <time>2025-07-11T11:55:05.001000+02:00</time>
      </trkpt>
      <trkpt lat="46.27898" lon="-0.20646">
        <ele>129</ele>
        <time>2025-07-11T11:55:06.001000+02:00</time>
      </trkpt>
      <trkpt lat="46.27903" lon="-0.20647">
        <ele>129</ele>
        <time>2025-07-11T11:55:08.001000+02:00</time>
      </trkpt>
      <trkpt lat="46.27905" lon="-0.20647">
        <ele>129</ele>
        <time>2025-07-11T11:55:09.001000+02:00</time>
      </trkpt>
      <trkpt lat="46.27907" lon="-0.20648">
        <ele>129</ele>
        <time>2025-07-11T11:55:10.001000+02:00</time>
      </trkpt>
      <trkpt lat="46.27912" lon="-0.2065">
        <ele>129</ele>
        <time>2025-07-11T11:55:12.001000+02:00</time>
      </trkpt>
      <trkpt lat="46.27916" lon="-0.20652">
        <ele>129</ele>
        <time>2025-07-11T11:55:14.001000+02:00</time>
      </trkpt>
      <trkpt lat="46.27919" lon="-0.20654">
        <ele>129</ele>
        <time>2025-07-11T11:55:15.001000+02:00</time>
      </trkpt>
      <trkpt lat="46.27922" lon="-0.20655">
        <ele>129.1</ele>
        <time>2025-07-11T11:55:17+02:00</time>
      </trkpt>
      <trkpt lat="46.27924" lon="-0.20655">
        <ele>129.1</ele>
        <time>2025-07-11T11:55:18+02:00</time>
      </trkpt>
      <trkpt lat="46.27925" lon="-0.20655">
        <ele>129.1</ele>
        <time>2025-07-11T11:55:19.001000+02:00</time>
      </trkpt>
      <trkpt lat="46.27926" lon="-0.20656">
        <ele>129.1</ele>
        <time>2025-07-11T11:55:21+02:00</time>
      </trkpt>
      <trkpt lat="46.27925" lon="-0.20656">
        <ele>129.1</ele>
        <time>2025-07-11T11:55:23+02:00</time>
      </trkpt>
      <trkpt lat="46.27945" lon="-0.2066">
        <ele>129.2</ele>
        <time>2025-07-11T11:56:40.001000+02:00</time>
      </trkpt>
      <trkpt lat="46.27946" lon="-0.20659">
        <ele>129.3</ele>
        <time>2025-07-11T11:56:41.001000+02:00</time>
      </trkpt>
      <trkpt lat="46.27946" lon="-0.20657">
        <ele>129.3</ele>
        <time>2025-07-11T11:56:42.003000+02:00</time>
      </trkpt>
      <trkpt lat="46.27949" lon="-0.20653">
        <ele>129.4</ele>
        <time>2025-07-11T11:56:44.002000+02:00</time>
      </trkpt>
      <trkpt lat="46.27951" lon="-0.20652">
        <ele>129.4</ele>
        <time>2025-07-11T11:56:45.004000+02:00</time>
      </trkpt>
      <trkpt lat="46.27957" lon="-0.20652">
        <ele>129.3</ele>
        <time>2025-07-11T11:56:47+02:00</time>
      </trkpt>
      <trkpt lat="46.2796" lon="-0.20652">
        <ele>129.2</ele>
        <time>2025-07-11T11:56:48.001000+02:00</time>
      </trkpt>
      <trkpt lat="46.27964" lon="-0.20652">
        <ele>129.2</ele>
        <time>2025-07-11T11:56:49.001000+02:00</time>
      </trkpt>
      <trkpt lat="46.27968" lon="-0.20652">
        <ele>129.1</ele>
        <time>2025-07-11T11:56:50.002000+02:00</time>
      </trkpt>
      <trkpt lat="46.27972" lon="-0.20652">
        <ele>129</ele>
        <time>2025-07-11T11:56:51.003000+02:00</time>
      </trkpt>
      <trkpt lat="46.27979" lon="-0.20651">
        <ele>128.9</ele>
        <time>2025-07-11T11:56:53.001000+02:00</time>
      </trkpt>
      <trkpt lat="46.27988" lon="-0.20651">
        <ele>128.8</ele>
        <time>2025-07-11T11:56:55.001000+02:00</time>
      </trkpt>
      <trkpt lat="46.27992" lon="-0.20651">
        <ele>128.7</ele>
        <time>2025-07-11T11:56:56.001000+02:00</time>
      </trkpt>
      <trkpt lat="46.27996" lon="-0.2065">
        <ele>128.6</ele>
        <time>2025-07-11T11:56:57.001000+02:00</time>
      </trkpt>
      <trkpt lat="46.28001" lon="-0.2065">
        <ele>128.6</ele>
        <time>2025-07-11T11:56:58.001000+02:00</time>
      </trkpt>
      <trkpt lat="46.28005" lon="-0.20649">
        <ele>128.5</ele>
        <time>2025-07-11T11:56:59.001000+02:00</time>
      </trkpt>
      <trkpt lat="46.28009" lon="-0.20649">
        <ele>128.4</ele>
        <time>2025-07-11T11:57:00.001000+02:00</time>
      </trkpt>
      <trkpt lat="46.28013" lon="-0.20649">
        <ele>128.3</ele>
        <time>2025-07-11T11:57:01.001000+02:00</time>
      </trkpt>
      <trkpt lat="46.28017" lon="-0.20648">
        <ele>128.2</ele>
        <time>2025-07-11T11:57:02.001000+02:00</time>
      </trkpt>
      <trkpt lat="46.28023" lon="-0.20648">
        <ele>128.1</ele>
        <time>2025-07-11T11:57:03.001000+02:00</time>
      </trkpt>
      <trkpt lat="46.28028" lon="-0.20649">
        <ele>128</ele>
        <time>2025-07-11T11:57:04.001000+02:00</time>
      </trkpt>
      <trkpt lat="46.28036" lon="-0.20648">
        <ele>128.1</ele>
        <time>2025-07-11T11:57:06+02:00</time>
      </trkpt>
      <trkpt lat="46.28041" lon="-0.20648">
        <ele>128.1</ele>
        <time>2025-07-11T11:57:07+02:00</time>
      </trkpt>
      <trkpt lat="46.28045" lon="-0.20648">
        <ele>128.2</ele>
        <time>2025-07-11T11:57:08+02:00</time>
      </trkpt>
      <trkpt lat="46.28049" lon="-0.20647">
        <ele>128.2</ele>
        <time>2025-07-11T11:57:09.001000+02:00</time>
      </trkpt>
      <trkpt lat="46.28054" lon="-0.20647">
        <ele>128.3</ele>
        <time>2025-07-11T11:57:10.001000+02:00</time>
      </trkpt>
      <trkpt lat="46.28063" lon="-0.20647">
        <ele>128.3</ele>
        <time>2025-07-11T11:57:12+02:00</time>
      </trkpt>
      <trkpt lat="46.28067" lon="-0.20648">
        <ele>128.3</ele>
        <time>2025-07-11T11:57:13+02:00</time>
      </trkpt>
      <trkpt lat="46.28072" lon="-0.20648">
        <ele>128.3</ele>
        <time>2025-07-11T11:57:14+02:00</time>
      </trkpt>
      <trkpt lat="46.28077" lon="-0.20651">
        <ele>128.4</ele>
        <time>2025-07-11T11:57:15.001000+02:00</time>
      </trkpt>
      <trkpt lat="46.28083" lon="-0.20653">
        <ele>128.5</ele>
        <time>2025-07-11T11:57:16.001000+02:00</time>
      </trkpt>
      <trkpt lat="46.28089" lon="-0.20653">
        <ele>128.7</ele>
        <time>2025-07-11T11:57:17.002000+02:00</time>
      </trkpt>
      <trkpt lat="46.28099" lon="-0.20653">
        <ele>129.1</ele>
        <time>2025-07-11T11:57:19.001000+02:00</time>
      </trkpt>
      <trkpt lat="46.28103" lon="-0.20652">
        <ele>129.2</ele>
        <time>2025-07-11T11:57:20.001000+02:00</time>
      </trkpt>
      <trkpt lat="46.28107" lon="-0.20652">
        <ele>129.3</ele>
        <time>2025-07-11T11:57:21.091000+02:00</time>
      </trkpt>
      <trkpt lat="46.28115" lon="-0.20652">
        <ele>129.6</ele>
        <time>2025-07-11T11:57:23+02:00</time>
      </trkpt>
      <trkpt lat="46.28119" lon="-0.20652">
        <ele>129.7</ele>
        <time>2025-07-11T11:57:24.002000+02:00</time>
      </trkpt>
      <trkpt lat="46.28123" lon="-0.20651">
        <ele>129.9</ele>
        <time>2025-07-11T11:57:25.002000+02:00</time>
      </trkpt>
      <trkpt lat="46.28131" lon="-0.2065">
        <ele>130.1</ele>
        <time>2025-07-11T11:57:27.002000+02:00</time>
      </trkpt>
      <trkpt lat="46.28139" lon="-0.2065">
        <ele>130.4</ele>
        <time>2025-07-11T11:57:29.002000+02:00</time>
      </trkpt>
      <trkpt lat="46.28147" lon="-0.20651">
        <ele>130.4</ele>
        <time>2025-07-11T11:57:31.002000+02:00</time>
      </trkpt>
      <trkpt lat="46.28151" lon="-0.20651">
        <ele>130.4</ele>
        <time>2025-07-11T11:57:32.002000+02:00</time>
      </trkpt>
      <trkpt lat="46.28155" lon="-0.20651">
        <ele>130.5</ele>
        <time>2025-07-11T11:57:33.003000+02:00</time>
      </trkpt>
      <trkpt lat="46.28163" lon="-0.20652">
        <ele>130.5</ele>
        <time>2025-07-11T11:57:35.002000+02:00</time>
      </trkpt>
      <trkpt lat="46.28167" lon="-0.20653">
        <ele>130.5</ele>
        <time>2025-07-11T11:57:36.002000+02:00</time>
      </trkpt>
      <trkpt lat="46.2817" lon="-0.20654">
        <ele>130.4</ele>
        <time>2025-07-11T11:57:37.003000+02:00</time>
      </trkpt>
      <trkpt lat="46.28178" lon="-0.20655">
        <ele>130.2</ele>
        <time>2025-07-11T11:57:39.002000+02:00</time>
      </trkpt>
      <trkpt lat="46.28186" lon="-0.20656">
        <ele>129.9</ele>
        <time>2025-07-11T11:57:41.001000+02:00</time>
      </trkpt>
      <trkpt lat="46.28195" lon="-0.20658">
        <ele>129.7</ele>
        <time>2025-07-11T11:57:43.001000+02:00</time>
      </trkpt>
      <trkpt lat="46.28199" lon="-0.20661">
        <ele>129.8</ele>
        <time>2025-07-11T11:57:44.002000+02:00</time>
      </trkpt>
      <trkpt lat="46.28203" lon="-0.20672">
        <ele>130.3</ele>
        <time>2025-07-11T11:57:46+02:00</time>
      </trkpt>
      <trkpt lat="46.28203" lon="-0.20678">
        <ele>130.7</ele>
        <time>2025-07-11T11:57:47.004000+02:00</time>
      </trkpt>
      <trkpt lat="46.28203" lon="-0.2069">
        <ele>131.4</ele>
        <time>2025-07-11T11:57:49+02:00</time>
      </trkpt>
      <trkpt lat="46.28203" lon="-0.20695">
        <ele>131.7</ele>
        <time>2025-07-11T11:57:50+02:00</time>
      </trkpt>
      <trkpt lat="46.28202" lon="-0.20699">
        <ele>131.8</ele>
        <time>2025-07-11T11:57:51.002000+02:00</time>
      </trkpt>
      <trkpt lat="46.28202" lon="-0.20704">
        <ele>131.9</ele>
        <time>2025-07-11T11:57:52.002000+02:00</time>
      </trkpt>
      <trkpt lat="46.28202" lon="-0.20709">
        <ele>132</ele>
        <time>2025-07-11T11:57:53.002000+02:00</time>
      </trkpt>
      <trkpt lat="46.28201" lon="-0.20715">
        <ele>132.1</ele>
        <time>2025-07-11T11:57:54.002000+02:00</time>
      </trkpt>
      <trkpt lat="46.28201" lon="-0.20719">
        <ele>132.2</ele>
        <time>2025-07-11T11:57:55.002000+02:00</time>
      </trkpt>
      <trkpt lat="46.28199" lon="-0.20724">
        <ele>132.3</ele>
        <time>2025-07-11T11:57:56.002000+02:00</time>
      </trkpt>
      <trkpt lat="46.28198" lon="-0.20728">
        <ele>132.5</ele>
        <time>2025-07-11T11:57:57.002000+02:00</time>
      </trkpt>
      <trkpt lat="46.28195" lon="-0.20738">
        <ele>133.1</ele>
        <time>2025-07-11T11:57:59.001000+02:00</time>
      </trkpt>
      <trkpt lat="46.28194" lon="-0.20743">
        <ele>133.5</ele>
        <time>2025-07-11T11:58:00.001000+02:00</time>
      </trkpt>
      <trkpt lat="46.28192" lon="-0.20747">
        <ele>133.7</ele>
        <time>2025-07-11T11:58:01.001000+02:00</time>
      </trkpt>
      <trkpt lat="46.28191" lon="-0.20752">
        <ele>133.9</ele>
        <time>2025-07-11T11:58:02.001000+02:00</time>
      </trkpt>
      <trkpt lat="46.2819" lon="-0.20757">
        <ele>133.9</ele>
        <time>2025-07-11T11:58:03.001000+02:00</time>
      </trkpt>
      <trkpt lat="46.28188" lon="-0.20761">
        <ele>133.9</ele>
        <time>2025-07-11T11:58:04.001000+02:00</time>
      </trkpt>
      <trkpt lat="46.28186" lon="-0.20768">
        <ele>133.9</ele>
        <time>2025-07-11T11:58:06.001000+02:00</time>
      </trkpt>
      <trkpt lat="46.28184" lon="-0.20776">
        <ele>134</ele>
        <time>2025-07-11T11:58:08.001000+02:00</time>
      </trkpt>
      <trkpt lat="46.28182" lon="-0.2078">
        <ele>134.1</ele>
        <time>2025-07-11T11:58:09.002000+02:00</time>
      </trkpt>
      <trkpt lat="46.28181" lon="-0.20783">
        <ele>134.2</ele>
        <time>2025-07-11T11:58:10.002000+02:00</time>
      </trkpt>
      <trkpt lat="46.28178" lon="-0.20792">
        <ele>134.5</ele>
        <time>2025-07-11T11:58:12.001000+02:00</time>
      </trkpt>
      <trkpt lat="46.28176" lon="-0.20796">
        <ele>134.6</ele>
        <time>2025-07-11T11:58:13.002000+02:00</time>
      </trkpt>
      <trkpt lat="46.28175" lon="-0.208">
        <ele>134.8</ele>
        <time>2025-07-11T11:58:14.002000+02:00</time>
      </trkpt>
      <trkpt lat="46.28174" lon="-0.20804">
        <ele>135</ele>
        <time>2025-07-11T11:58:15.002000+02:00</time>
      </trkpt>
      <trkpt lat="46.28173" lon="-0.20809">
        <ele>134.9</ele>
        <time>2025-07-11T11:58:16.002000+02:00</time>
      </trkpt>
      <trkpt lat="46.28171" lon="-0.20819">
        <ele>134.6</ele>
        <time>2025-07-11T11:58:18.003000+02:00</time>
      </trkpt>
      <trkpt lat="46.28168" lon="-0.20828">
        <ele>134.2</ele>
        <time>2025-07-11T11:58:20+02:00</time>
      </trkpt>
      <trkpt lat="46.28166" lon="-0.20834">
        <ele>134</ele>
        <time>2025-07-11T11:58:21.002000+02:00</time>
      </trkpt>
      <trkpt lat="46.28165" lon="-0.20844">
        <ele>134.3</ele>
        <time>2025-07-11T11:58:23.002000+02:00</time>
      </trkpt>
      <trkpt lat="46.28163" lon="-0.20855">
        <ele>134.6</ele>
        <time>2025-07-11T11:58:25.001000+02:00</time>
      </trkpt>
      <trkpt lat="46.28162" lon="-0.20861">
        <ele>134.7</ele>
        <time>2025-07-11T11:58:26.001000+02:00</time>
      </trkpt>
      <trkpt lat="46.28162" lon="-0.20866">
        <ele>134.6</ele>
        <time>2025-07-11T11:58:27.002000+02:00</time>
      </trkpt>
      <trkpt lat="46.28162" lon="-0.20878">
        <ele>134.6</ele>
        <time>2025-07-11T11:58:29.001000+02:00</time>
      </trkpt>
      <trkpt lat="46.28162" lon="-0.20883">
        <ele>134.7</ele>
        <time>2025-07-11T11:58:30.001000+02:00</time>
      </trkpt>
      <trkpt lat="46.28163" lon="-0.20889">
        <ele>134.7</ele>
        <time>2025-07-11T11:58:31.003000+02:00</time>
      </trkpt>
      <trkpt lat="46.28164" lon="-0.20894">
        <ele>134.8</ele>
        <time>2025-07-11T11:58:32.003000+02:00</time>
      </trkpt>
      <trkpt lat="46.28165" lon="-0.20906">
        <ele>134.9</ele>
        <time>2025-07-11T11:58:34+02:00</time>
      </trkpt>
      <trkpt lat="46.28166" lon="-0.20912">
        <ele>134.9</ele>
        <time>2025-07-11T11:58:35.001000+02:00</time>
      </trkpt>
      <trkpt lat="46.28167" lon="-0.20918">
        <ele>135</ele>
        <time>2025-07-11T11:58:36.001000+02:00</time>
      </trkpt>
      <trkpt lat="46.28168" lon="-0.20923">
        <ele>134.8</ele>
        <time>2025-07-11T11:58:37.002000+02:00</time>
      </trkpt>
      <trkpt lat="46.28169" lon="-0.20936">
        <ele>134.4</ele>
        <time>2025-07-11T11:58:39.002000+02:00</time>
      </trkpt>
      <trkpt lat="46.28171" lon="-0.20948">
        <ele>134.1</ele>
        <time>2025-07-11T11:58:41.003000+02:00</time>
      </trkpt>
      <trkpt lat="46.28172" lon="-0.20961">
        <ele>134.2</ele>
        <time>2025-07-11T11:58:43.002000+02:00</time>
      </trkpt>
      <trkpt lat="46.28173" lon="-0.20974">
        <ele>134.2</ele>
        <time>2025-07-11T11:58:45.002000+02:00</time>
      </trkpt>
      <trkpt lat="46.28174" lon="-0.2098">
        <ele>134.3</ele>
        <time>2025-07-11T11:58:46.002000+02:00</time>
      </trkpt>
      <trkpt lat="46.28176" lon="-0.20994">
        <ele>134.3</ele>
        <time>2025-07-11T11:58:48+02:00</time>
      </trkpt>
      <trkpt lat="46.28177" lon="-0.21">
        <ele>134.4</ele>
        <time>2025-07-11T11:58:49.002000+02:00</time>
      </trkpt>
      <trkpt lat="46.28179" lon="-0.21013">
        <ele>134.4</ele>
        <time>2025-07-11T11:58:51.002000+02:00</time>
      </trkpt>
      <trkpt lat="46.2818" lon="-0.21027">
        <ele>134.5</ele>
        <time>2025-07-11T11:58:53+02:00</time>
      </trkpt>
      <trkpt lat="46.28181" lon="-0.21034">
        <ele>134.4</ele>
        <time>2025-07-11T11:58:54+02:00</time>
      </trkpt>
      <trkpt lat="46.28182" lon="-0.21041">
        <ele>134.3</ele>
        <time>2025-07-11T11:58:55.001000+02:00</time>
      </trkpt>
      <trkpt lat="46.28183" lon="-0.21048">
        <ele>134.3</ele>
        <time>2025-07-11T11:58:56.001000+02:00</time>
      </trkpt>
      <trkpt lat="46.28184" lon="-0.21055">
        <ele>134.2</ele>
        <time>2025-07-11T11:58:57.002000+02:00</time>
      </trkpt>
      <trkpt lat="46.28187" lon="-0.21069">
        <ele>134.4</ele>
        <time>2025-07-11T11:58:58.999000+02:00</time>
      </trkpt>
      <trkpt lat="46.28188" lon="-0.21076">
        <ele>134.5</ele>
        <time>2025-07-11T11:59:00.003000+02:00</time>
      </trkpt>
      <trkpt lat="46.28189" lon="-0.21083">
        <ele>134.6</ele>
        <time>2025-07-11T11:59:01.004000+02:00</time>
      </trkpt>
      <trkpt lat="46.28193" lon="-0.21097">
        <ele>134.9</ele>
        <time>2025-07-11T11:59:03.001000+02:00</time>
      </trkpt>
      <trkpt lat="46.28195" lon="-0.21103">
        <ele>135</ele>
        <time>2025-07-11T11:59:04.002000+02:00</time>
      </trkpt>
      <trkpt lat="46.28199" lon="-0.21117">
        <ele>134.8</ele>
        <time>2025-07-11T11:59:06.003000+02:00</time>
      </trkpt>
      <trkpt lat="46.28204" lon="-0.2113">
        <ele>134.5</ele>
        <time>2025-07-11T11:59:08.003000+02:00</time>
      </trkpt>
      <trkpt lat="46.2821" lon="-0.21144">
        <ele>134.5</ele>
        <time>2025-07-11T11:59:10.001000+02:00</time>
      </trkpt>
      <trkpt lat="46.28214" lon="-0.21151">
        <ele>134.4</ele>
        <time>2025-07-11T11:59:11.001000+02:00</time>
      </trkpt>
      <trkpt lat="46.28217" lon="-0.21159">
        <ele>134.2</ele>
        <time>2025-07-11T11:59:12.003000+02:00</time>
      </trkpt>
      <trkpt lat="46.2822" lon="-0.21166">
        <ele>134</ele>
        <time>2025-07-11T11:59:13.003000+02:00</time>
      </trkpt>
      <trkpt lat="46.28226" lon="-0.2118">
        <ele>133.9</ele>
        <time>2025-07-11T11:59:15.001000+02:00</time>
      </trkpt>
      <trkpt lat="46.2823" lon="-0.21188">
        <ele>133.8</ele>
        <time>2025-07-11T11:59:16.001000+02:00</time>
      </trkpt>
      <trkpt lat="46.28233" lon="-0.21196">
        <ele>133.6</ele>
        <time>2025-07-11T11:59:17.002000+02:00</time>
      </trkpt>
      <trkpt lat="46.28236" lon="-0.21204">
        <ele>133.1</ele>
        <time>2025-07-11T11:59:18.002000+02:00</time>
      </trkpt>
      <trkpt lat="46.2824" lon="-0.21213">
        <ele>132.7</ele>
        <time>2025-07-11T11:59:19.002000+02:00</time>
      </trkpt>
      <trkpt lat="46.28244" lon="-0.21222">
        <ele>132.2</ele>
        <time>2025-07-11T11:59:20.002000+02:00</time>
      </trkpt>
      <trkpt lat="46.28247" lon="-0.21231">
        <ele>131.8</ele>
        <time>2025-07-11T11:59:21.002000+02:00</time>
      </trkpt>
      <trkpt lat="46.28251" lon="-0.21241">
        <ele>131.3</ele>
        <time>2025-07-11T11:59:22.002000+02:00</time>
      </trkpt>
      <trkpt lat="46.28257" lon="-0.21263">
        <ele>130</ele>
        <time>2025-07-11T11:59:24.002000+02:00</time>
      </trkpt>
      <trkpt lat="46.2826" lon="-0.21275">
        <ele>129.4</ele>
        <time>2025-07-11T11:59:25.002000+02:00</time>
      </trkpt>
      <trkpt lat="46.28266" lon="-0.21288">
        <ele>128.3</ele>
        <time>2025-07-11T11:59:27.001000+02:00</time>
      </trkpt>
      <trkpt lat="46.2827" lon="-0.21297">
        <ele>127.7</ele>
        <time>2025-07-11T11:59:28.002000+02:00</time>
      </trkpt>
      <trkpt lat="46.28274" lon="-0.2131">
        <ele>127.1</ele>
        <time>2025-07-11T11:59:29.002000+02:00</time>
      </trkpt>
      <trkpt lat="46.2828" lon="-0.21343">
        <ele>126.6</ele>
        <time>2025-07-11T11:59:31.002000+02:00</time>
      </trkpt>
      <trkpt lat="46.28286" lon="-0.21372">
        <ele>125.7</ele>
        <time>2025-07-11T11:59:33.002000+02:00</time>
      </trkpt>
      <trkpt lat="46.28288" lon="-0.21386">
        <ele>125.4</ele>
        <time>2025-07-11T11:59:34.003000+02:00</time>
      </trkpt>
      <trkpt lat="46.28294" lon="-0.21413">
        <ele>125.2</ele>
        <time>2025-07-11T11:59:36.002000+02:00</time>
      </trkpt>
      <trkpt lat="46.28297" lon="-0.21425">
        <ele>125</ele>
        <time>2025-07-11T11:59:37.002000+02:00</time>
      </trkpt>
      <trkpt lat="46.28299" lon="-0.21438">
        <ele>124.8</ele>
        <time>2025-07-11T11:59:38.002000+02:00</time>
      </trkpt>
      <trkpt lat="46.28301" lon="-0.21449">
        <ele>124.7</ele>
        <time>2025-07-11T11:59:39.002000+02:00</time>
      </trkpt>
      <trkpt lat="46.28303" lon="-0.21461">
        <ele>124.8</ele>
        <time>2025-07-11T11:59:40.002000+02:00</time>
      </trkpt>
      <trkpt lat="46.28308" lon="-0.21482">
        <ele>125.4</ele>
        <time>2025-07-11T11:59:42.002000+02:00</time>
      </trkpt>
      <trkpt lat="46.2831" lon="-0.21492">
        <ele>125.9</ele>
        <time>2025-07-11T11:59:43.002000+02:00</time>
      </trkpt>
      <trkpt lat="46.28314" lon="-0.21509">
        <ele>126.1</ele>
        <time>2025-07-11T11:59:45.004000+02:00</time>
      </trkpt>
      <trkpt lat="46.28316" lon="-0.21524">
        <ele>125.9</ele>
        <time>2025-07-11T11:59:47+02:00</time>
      </trkpt>
      <trkpt lat="46.28317" lon="-0.21531">
        <ele>125.8</ele>
        <time>2025-07-11T11:59:48.001000+02:00</time>
      </trkpt>
      <trkpt lat="46.28318" lon="-0.21538">
        <ele>125.9</ele>
        <time>2025-07-11T11:59:49.003000+02:00</time>
      </trkpt>
      <trkpt lat="46.28319" lon="-0.21546">
        <ele>125.9</ele>
        <time>2025-07-11T11:59:50.003000+02:00</time>
      </trkpt>
      <trkpt lat="46.28319" lon="-0.21553">
        <ele>126</ele>
        <time>2025-07-11T11:59:51.005000+02:00</time>
      </trkpt>
      <trkpt lat="46.28319" lon="-0.21569">
        <ele>126.2</ele>
        <time>2025-07-11T11:59:53.002000+02:00</time>
      </trkpt>
      <trkpt lat="46.28319" lon="-0.21576">
        <ele>126.3</ele>
        <time>2025-07-11T11:59:54.002000+02:00</time>
      </trkpt>
      <trkpt lat="46.28319" lon="-0.21583">
        <ele>126.5</ele>
        <time>2025-07-11T11:59:55.003000+02:00</time>
      </trkpt>
      <trkpt lat="46.28317" lon="-0.21597">
        <ele>126.4</ele>
        <time>2025-07-11T11:59:57.003000+02:00</time>
      </trkpt>
      <trkpt lat="46.28316" lon="-0.2161">
        <ele>126.4</ele>
        <time>2025-07-11T11:59:59.002000+02:00</time>
      </trkpt>
      <trkpt lat="46.28316" lon="-0.21617">
        <ele>126.4</ele>
        <time>2025-07-11T12:00:00.005000+02:00</time>
      </trkpt>
      <trkpt lat="46.28314" lon="-0.2163">
        <ele>126.3</ele>
        <time>2025-07-11T12:00:02.002000+02:00</time>
      </trkpt>
      <trkpt lat="46.28313" lon="-0.21637">
        <ele>126.3</ele>
        <time>2025-07-11T12:00:03.003000+02:00</time>
      </trkpt>
      <trkpt lat="46.28312" lon="-0.21644">
        <ele>126.3</ele>
        <time>2025-07-11T12:00:04.003000+02:00</time>
      </trkpt>
      <trkpt lat="46.28311" lon="-0.21657">
        <ele>126.3</ele>
        <time>2025-07-11T12:00:06.003000+02:00</time>
      </trkpt>
      <trkpt lat="46.28311" lon="-0.21664">
        <ele>126.4</ele>
        <time>2025-07-11T12:00:07.003000+02:00</time>
      </trkpt>
      <trkpt lat="46.2831" lon="-0.21671">
        <ele>126.4</ele>
        <time>2025-07-11T12:00:08.003000+02:00</time>
      </trkpt>
      <trkpt lat="46.2831" lon="-0.21677">
        <ele>126.6</ele>
        <time>2025-07-11T12:00:09.003000+02:00</time>
      </trkpt>
      <trkpt lat="46.28309" lon="-0.21691">
        <ele>127</ele>
        <time>2025-07-11T12:00:11.002000+02:00</time>
      </trkpt>
      <trkpt lat="46.28308" lon="-0.21697">
        <ele>127.2</ele>
        <time>2025-07-11T12:00:12.002000+02:00</time>
      </trkpt>
      <trkpt lat="46.28307" lon="-0.21703">
        <ele>127.4</ele>
        <time>2025-07-11T12:00:13.003000+02:00</time>
      </trkpt>
      <trkpt lat="46.28306" lon="-0.21716">
        <ele>127.8</ele>
        <time>2025-07-11T12:00:15.002000+02:00</time>
      </trkpt>
      <trkpt lat="46.28305" lon="-0.21729">
        <ele>128</ele>
        <time>2025-07-11T12:00:17+02:00</time>
      </trkpt>
      <trkpt lat="46.28304" lon="-0.21735">
        <ele>127.9</ele>
        <time>2025-07-11T12:00:18.001000+02:00</time>
      </trkpt>
      <trkpt lat="46.28304" lon="-0.21741">
        <ele>127.9</ele>
        <time>2025-07-11T12:00:19.002000+02:00</time>
      </trkpt>
      <trkpt lat="46.28303" lon="-0.21755">
        <ele>127.8</ele>
        <time>2025-07-11T12:00:21.002000+02:00</time>
      </trkpt>
      <trkpt lat="46.28303" lon="-0.21768">
        <ele>127.9</ele>
        <time>2025-07-11T12:00:23.001000+02:00</time>
      </trkpt>
      <trkpt lat="46.28303" lon="-0.21775">
        <ele>127.9</ele>
        <time>2025-07-11T12:00:24.001000+02:00</time>
      </trkpt>
      <trkpt lat="46.28304" lon="-0.21781">
        <ele>127.9</ele>
        <time>2025-07-11T12:00:25.001000+02:00</time>
      </trkpt>
      <trkpt lat="46.28305" lon="-0.21788">
        <ele>128</ele>
        <time>2025-07-11T12:00:26.001000+02:00</time>
      </trkpt>
      <trkpt lat="46.28306" lon="-0.21794">
        <ele>128</ele>
        <time>2025-07-11T12:00:27.008000+02:00</time>
      </trkpt>
      <trkpt lat="46.28309" lon="-0.21806">
        <ele>128.2</ele>
        <time>2025-07-11T12:00:29.003000+02:00</time>
      </trkpt>
      <trkpt lat="46.2831" lon="-0.21812">
        <ele>128.5</ele>
        <time>2025-07-11T12:00:30.003000+02:00</time>
      </trkpt>
      <trkpt lat="46.28313" lon="-0.21823">
        <ele>129</ele>
        <time>2025-07-11T12:00:32.002000+02:00</time>
      </trkpt>
      <trkpt lat="46.28315" lon="-0.21834">
        <ele>129.3</ele>
        <time>2025-07-11T12:00:34.002000+02:00</time>
      </trkpt>
      <trkpt lat="46.28317" lon="-0.21845">
        <ele>129.4</ele>
        <time>2025-07-11T12:00:36.002000+02:00</time>
      </trkpt>
      <trkpt lat="46.28318" lon="-0.2185">
        <ele>129.5</ele>
        <time>2025-07-11T12:00:37.002000+02:00</time>
      </trkpt>
      <trkpt lat="46.28319" lon="-0.21855">
        <ele>129.5</ele>
        <time>2025-07-11T12:00:38.003000+02:00</time>
      </trkpt>
      <trkpt lat="46.28321" lon="-0.21865">
        <ele>129.6</ele>
        <time>2025-07-11T12:00:40.001000+02:00</time>
      </trkpt>
      <trkpt lat="46.28322" lon="-0.2187">
        <ele>129.8</ele>
        <time>2025-07-11T12:00:41.001000+02:00</time>
      </trkpt>
      <trkpt lat="46.28323" lon="-0.21874">
        <ele>129.9</ele>
        <time>2025-07-11T12:00:42.002000+02:00</time>
      </trkpt>
      <trkpt lat="46.28324" lon="-0.21883">
        <ele>130.2</ele>
        <time>2025-07-11T12:00:44.001000+02:00</time>
      </trkpt>
      <trkpt lat="46.28325" lon="-0.21888">
        <ele>130.4</ele>
        <time>2025-07-11T12:00:45.002000+02:00</time>
      </trkpt>
      <trkpt lat="46.28328" lon="-0.21898">
        <ele>130.6</ele>
        <time>2025-07-11T12:00:47.001000+02:00</time>
      </trkpt>
      <trkpt lat="46.28329" lon="-0.21903">
        <ele>130.7</ele>
        <time>2025-07-11T12:00:48.002000+02:00</time>
      </trkpt>
      <trkpt lat="46.28331" lon="-0.21915">
        <ele>130.9</ele>
        <time>2025-07-11T12:00:50.001000+02:00</time>
      </trkpt>
      <trkpt lat="46.28332" lon="-0.21922">
        <ele>130.9</ele>
        <time>2025-07-11T12:00:51.003000+02:00</time>
      </trkpt>
      <trkpt lat="46.28333" lon="-0.21934">
        <ele>131</ele>
        <time>2025-07-11T12:00:53.002000+02:00</time>
      </trkpt>
      <trkpt lat="46.28333" lon="-0.21941">
        <ele>131</ele>
        <time>2025-07-11T12:00:54.002000+02:00</time>
      </trkpt>
      <trkpt lat="46.28334" lon="-0.21947">
        <ele>130.9</ele>
        <time>2025-07-11T12:00:55.002000+02:00</time>
      </trkpt>
      <trkpt lat="46.28335" lon="-0.21961">
        <ele>130.4</ele>
        <time>2025-07-11T12:00:57.003000+02:00</time>
      </trkpt>
      <trkpt lat="46.28336" lon="-0.21975">
        <ele>130.1</ele>
        <time>2025-07-11T12:00:59.092000+02:00</time>
      </trkpt>
      <trkpt lat="46.28338" lon="-0.21989">
        <ele>130.1</ele>
        <time>2025-07-11T12:01:01.001000+02:00</time>
      </trkpt>
      <trkpt lat="46.2834" lon="-0.22004">
        <ele>129.9</ele>
        <time>2025-07-11T12:01:03.002000+02:00</time>
      </trkpt>
      <trkpt lat="46.28342" lon="-0.22018">
        <ele>129.4</ele>
        <time>2025-07-11T12:01:05.002000+02:00</time>
      </trkpt>
      <trkpt lat="46.28343" lon="-0.22034">
        <ele>129</ele>
        <time>2025-07-11T12:01:07.002000+02:00</time>
      </trkpt>
      <trkpt lat="46.28344" lon="-0.22042">
        <ele>129</ele>
        <time>2025-07-11T12:01:08.002000+02:00</time>
      </trkpt>
      <trkpt lat="46.28345" lon="-0.22049">
        <ele>129</ele>
        <time>2025-07-11T12:01:09.002000+02:00</time>
      </trkpt>
      <trkpt lat="46.28348" lon="-0.22064">
        <ele>128.9</ele>
        <time>2025-07-11T12:01:11.002000+02:00</time>
      </trkpt>
      <trkpt lat="46.2835" lon="-0.22072">
        <ele>128.8</ele>
        <time>2025-07-11T12:01:12.002000+02:00</time>
      </trkpt>
      <trkpt lat="46.28353" lon="-0.22086">
        <ele>128.7</ele>
        <time>2025-07-11T12:01:14.002000+02:00</time>
      </trkpt>
      <trkpt lat="46.28356" lon="-0.22093">
        <ele>128.5</ele>
        <time>2025-07-11T12:01:15.002000+02:00</time>
      </trkpt>
      <trkpt lat="46.2836" lon="-0.22106">
        <ele>128.2</ele>
        <time>2025-07-11T12:01:17.001000+02:00</time>
      </trkpt>
      <trkpt lat="46.28362" lon="-0.22113">
        <ele>128</ele>
        <time>2025-07-11T12:01:18.001000+02:00</time>
      </trkpt>
      <trkpt lat="46.28364" lon="-0.22119">
        <ele>128</ele>
        <time>2025-07-11T12:01:19.001000+02:00</time>
      </trkpt>
      <trkpt lat="46.28366" lon="-0.22126">
        <ele>128</ele>
        <time>2025-07-11T12:01:20.002000+02:00</time>
      </trkpt>
      <trkpt lat="46.28368" lon="-0.22132">
        <ele>128</ele>
        <time>2025-07-11T12:01:21.002000+02:00</time>
      </trkpt>
      <trkpt lat="46.28373" lon="-0.22144">
        <ele>127.9</ele>
        <time>2025-07-11T12:01:23+02:00</time>
      </trkpt>
      <trkpt lat="46.28375" lon="-0.2215">
        <ele>127.8</ele>
        <time>2025-07-11T12:01:24+02:00</time>
      </trkpt>
      <trkpt lat="46.28377" lon="-0.22156">
        <ele>127.8</ele>
        <time>2025-07-11T12:01:25+02:00</time>
      </trkpt>
      <trkpt lat="46.2838" lon="-0.22161">
        <ele>127.7</ele>
        <time>2025-07-11T12:01:26.001000+02:00</time>
      </trkpt>
      <trkpt lat="46.28382" lon="-0.22167">
        <ele>127.8</ele>
        <time>2025-07-11T12:01:27.005000+02:00</time>
      </trkpt>
      <trkpt lat="46.28386" lon="-0.22179">
        <ele>127.9</ele>
        <time>2025-07-11T12:01:29.001000+02:00</time>
      </trkpt>
      <trkpt lat="46.28389" lon="-0.22185">
        <ele>128</ele>
        <time>2025-07-11T12:01:30.002000+02:00</time>
      </trkpt>
      <trkpt lat="46.28391" lon="-0.22189">
        <ele>127.9</ele>
        <time>2025-07-11T12:01:31.002000+02:00</time>
      </trkpt>
      <trkpt lat="46.28397" lon="-0.22196">
        <ele>127.7</ele>
        <time>2025-07-11T12:01:33.001000+02:00</time>
      </trkpt>
      <trkpt lat="46.284" lon="-0.22195">
        <ele>127.6</ele>
        <time>2025-07-11T12:01:34.001000+02:00</time>
      </trkpt>
      <trkpt lat="46.28403" lon="-0.22194">
        <ele>127.5</ele>
        <time>2025-07-11T12:01:35.002000+02:00</time>
      </trkpt>
      <trkpt lat="46.28407" lon="-0.22188">
        <ele>127.5</ele>
        <time>2025-07-11T12:01:37.001000+02:00</time>
      </trkpt>
      <trkpt lat="46.2841" lon="-0.22184">
        <ele>127.5</ele>
        <time>2025-07-11T12:01:38.002000+02:00</time>
      </trkpt>
      <trkpt lat="46.28416" lon="-0.22177">
        <ele>127.7</ele>
        <time>2025-07-11T12:01:40.002000+02:00</time>
      </trkpt>
      <trkpt lat="46.28418" lon="-0.22172">
        <ele>127.8</ele>
        <time>2025-07-11T12:01:41.002000+02:00</time>
      </trkpt>
      <trkpt lat="46.28424" lon="-0.22164">
        <ele>127.8</ele>
        <time>2025-07-11T12:01:43.001000+02:00</time>
      </trkpt>
      <trkpt lat="46.28429" lon="-0.22156">
        <ele>127.7</ele>
        <time>2025-07-11T12:01:45.001000+02:00</time>
      </trkpt>
      <trkpt lat="46.28434" lon="-0.22148">
        <ele>127.8</ele>
        <time>2025-07-11T12:01:46.999000+02:00</time>
      </trkpt>
      <trkpt lat="46.28437" lon="-0.22144">
        <ele>127.9</ele>
        <time>2025-07-11T12:01:48.001000+02:00</time>
      </trkpt>
      <trkpt lat="46.28442" lon="-0.22136">
        <ele>128.1</ele>
        <time>2025-07-11T12:01:50+02:00</time>
      </trkpt>
      <trkpt lat="46.28445" lon="-0.22132">
        <ele>128.2</ele>
        <time>2025-07-11T12:01:51+02:00</time>
      </trkpt>
      <trkpt lat="46.28447" lon="-0.22128">
        <ele>128.3</ele>
        <time>2025-07-11T12:01:52.001000+02:00</time>
      </trkpt>
      <trkpt lat="46.28452" lon="-0.2212">
        <ele>128.4</ele>
        <time>2025-07-11T12:01:54+02:00</time>
      </trkpt>
      <trkpt lat="46.28454" lon="-0.22116">
        <ele>128.5</ele>
        <time>2025-07-11T12:01:55.001000+02:00</time>
      </trkpt>
      <trkpt lat="46.28456" lon="-0.22112">
        <ele>128.6</ele>
        <time>2025-07-11T12:01:56.001000+02:00</time>
      </trkpt>
      <trkpt lat="46.28458" lon="-0.22108">
        <ele>128.6</ele>
        <time>2025-07-11T12:01:57.001000+02:00</time>
      </trkpt>
      <trkpt lat="46.28463" lon="-0.22101">
        <ele>128.6</ele>
        <time>2025-07-11T12:01:59.001000+02:00</time>
      </trkpt>
      <trkpt lat="46.28465" lon="-0.22097">
        <ele>128.6</ele>
        <time>2025-07-11T12:02:00.001000+02:00</time>
      </trkpt>
      <trkpt lat="46.28469" lon="-0.22089">
        <ele>128.8</ele>
        <time>2025-07-11T12:02:02+02:00</time>
      </trkpt>
      <trkpt lat="46.28471" lon="-0.22085">
        <ele>128.9</ele>
        <time>2025-07-11T12:02:03.001000+02:00</time>
      </trkpt>
      <trkpt lat="46.28476" lon="-0.22077">
        <ele>128.8</ele>
        <time>2025-07-11T12:02:05.002000+02:00</time>
      </trkpt>
      <trkpt lat="46.28478" lon="-0.22073">
        <ele>128.7</ele>
        <time>2025-07-11T12:02:06.002000+02:00</time>
      </trkpt>
      <trkpt lat="46.2848" lon="-0.2207">
        <ele>128.6</ele>
        <time>2025-07-11T12:02:07.002000+02:00</time>
      </trkpt>
      <trkpt lat="46.28483" lon="-0.22066">
        <ele>128.5</ele>
        <time>2025-07-11T12:02:08.003000+02:00</time>
      </trkpt>
      <trkpt lat="46.28488" lon="-0.22058">
        <ele>128.4</ele>
        <time>2025-07-11T12:02:10+02:00</time>
      </trkpt>
      <trkpt lat="46.2849" lon="-0.22053">
        <ele>128.4</ele>
        <time>2025-07-11T12:02:11.001000+02:00</time>
      </trkpt>
      <trkpt lat="46.28495" lon="-0.22045">
        <ele>128.5</ele>
        <time>2025-07-11T12:02:13+02:00</time>
      </trkpt>
      <trkpt lat="46.28497" lon="-0.22041">
        <ele>128.6</ele>
        <time>2025-07-11T12:02:14.002000+02:00</time>
      </trkpt>
      <trkpt lat="46.285" lon="-0.22038">
        <ele>128.7</ele>
        <time>2025-07-11T12:02:15.002000+02:00</time>
      </trkpt>
      <trkpt lat="46.28503" lon="-0.22034">
        <ele>128.7</ele>
        <time>2025-07-11T12:02:16.002000+02:00</time>
      </trkpt>
      <trkpt lat="46.28507" lon="-0.22026">
        <ele>128.8</ele>
        <time>2025-07-11T12:02:18.001000+02:00</time>
      </trkpt>
      <trkpt lat="46.28512" lon="-0.22017">
        <ele>128.7</ele>
        <time>2025-07-11T12:02:20+02:00</time>
      </trkpt>
      <trkpt lat="46.28515" lon="-0.22013">
        <ele>128.7</ele>
        <time>2025-07-11T12:02:21+02:00</time>
      </trkpt>
      <trkpt lat="46.28517" lon="-0.22009">
        <ele>128.8</ele>
        <time>2025-07-11T12:02:22+02:00</time>
      </trkpt>
      <trkpt lat="46.28519" lon="-0.22005">
        <ele>128.9</ele>
        <time>2025-07-11T12:02:23.001000+02:00</time>
      </trkpt>
      <trkpt lat="46.28524" lon="-0.21997">
        <ele>129.1</ele>
        <time>2025-07-11T12:02:25+02:00</time>
      </trkpt>
      <trkpt lat="46.28526" lon="-0.21993">
        <ele>129.3</ele>
        <time>2025-07-11T12:02:26+02:00</time>
      </trkpt>
      <trkpt lat="46.28527" lon="-0.21989">
        <ele>129.4</ele>
        <time>2025-07-11T12:02:27.001000+02:00</time>
      </trkpt>
      <trkpt lat="46.28529" lon="-0.21985">
        <ele>129.5</ele>
        <time>2025-07-11T12:02:28.002000+02:00</time>
      </trkpt>
      <trkpt lat="46.28531" lon="-0.21982">
        <ele>129.5</ele>
        <time>2025-07-11T12:02:29.002000+02:00</time>
      </trkpt>
      <trkpt lat="46.28535" lon="-0.21974">
        <ele>129.7</ele>
        <time>2025-07-11T12:02:31.002000+02:00</time>
      </trkpt>
      <trkpt lat="46.28537" lon="-0.2197">
        <ele>129.8</ele>
        <time>2025-07-11T12:02:32.002000+02:00</time>
      </trkpt>
      <trkpt lat="46.28539" lon="-0.21966">
        <ele>129.8</ele>
        <time>2025-07-11T12:02:33.002000+02:00</time>
      </trkpt>
      <trkpt lat="46.2854" lon="-0.21962">
        <ele>129.9</ele>
        <time>2025-07-11T12:02:34.002000+02:00</time>
      </trkpt>
      <trkpt lat="46.28542" lon="-0.21958">
        <ele>130</ele>
        <time>2025-07-11T12:02:35.002000+02:00</time>
      </trkpt>
      <trkpt lat="46.28545" lon="-0.2195">
        <ele>130.2</ele>
        <time>2025-07-11T12:02:37.001000+02:00</time>
      </trkpt>
      <trkpt lat="46.28546" lon="-0.21946">
        <ele>130.3</ele>
        <time>2025-07-11T12:02:38.002000+02:00</time>
      </trkpt>
      <trkpt lat="46.28547" lon="-0.21942">
        <ele>130.4</ele>
        <time>2025-07-11T12:02:39.003000+02:00</time>
      </trkpt>
      <trkpt lat="46.2855" lon="-0.21934">
        <ele>130.5</ele>
        <time>2025-07-11T12:02:41.002000+02:00</time>
      </trkpt>
      <trkpt lat="46.28552" lon="-0.21931">
        <ele>130.5</ele>
        <time>2025-07-11T12:02:42.004000+02:00</time>
      </trkpt>
      <trkpt lat="46.28554" lon="-0.21925">
        <ele>130.7</ele>
        <time>2025-07-11T12:02:44.002000+02:00</time>
      </trkpt>
      <trkpt lat="46.28555" lon="-0.21922">
        <ele>130.8</ele>
        <time>2025-07-11T12:02:45.002000+02:00</time>
      </trkpt>
      <trkpt lat="46.28556" lon="-0.21919">
        <ele>130.9</ele>
        <time>2025-07-11T12:02:46.002000+02:00</time>
      </trkpt>
      <trkpt lat="46.28559" lon="-0.21913">
        <ele>131</ele>
        <time>2025-07-11T12:02:48+02:00</time>
      </trkpt>
      <trkpt lat="46.28561" lon="-0.21909">
        <ele>131.1</ele>
        <time>2025-07-11T12:02:49.001000+02:00</time>
      </trkpt>
      <trkpt lat="46.28562" lon="-0.21904">
        <ele>131.2</ele>
        <time>2025-07-11T12:02:50.002000+02:00</time>
      </trkpt>
      <trkpt lat="46.28564" lon="-0.219">
        <ele>131.3</ele>
        <time>2025-07-11T12:02:51.004000+02:00</time>
      </trkpt>
      <trkpt lat="46.28567" lon="-0.21892">
        <ele>131.5</ele>
        <time>2025-07-11T12:02:53.002000+02:00</time>
      </trkpt>
      <trkpt lat="46.28569" lon="-0.21888">
        <ele>131.6</ele>
        <time>2025-07-11T12:02:54.002000+02:00</time>
      </trkpt>
      <trkpt lat="46.28572" lon="-0.21879">
        <ele>131.8</ele>
        <time>2025-07-11T12:02:56.001000+02:00</time>
      </trkpt>
      <trkpt lat="46.28573" lon="-0.21876">
        <ele>131.8</ele>
        <time>2025-07-11T12:02:57.002000+02:00</time>
      </trkpt>
      <trkpt lat="46.28575" lon="-0.21872">
        <ele>131.9</ele>
        <time>2025-07-11T12:02:58.002000+02:00</time>
      </trkpt>
      <trkpt lat="46.28576" lon="-0.21868">
        <ele>132</ele>
        <time>2025-07-11T12:02:59.002000+02:00</time>
      </trkpt>
      <trkpt lat="46.28577" lon="-0.21864">
        <ele>132.1</ele>
        <time>2025-07-11T12:03:00.002000+02:00</time>
      </trkpt>
      <trkpt lat="46.28579" lon="-0.21857">
        <ele>132.3</ele>
        <time>2025-07-11T12:03:02.002000+02:00</time>
      </trkpt>
      <trkpt lat="46.28581" lon="-0.21853">
        <ele>132.3</ele>
        <time>2025-07-11T12:03:03.003000+02:00</time>
      </trkpt>
      <trkpt lat="46.28583" lon="-0.21846">
        <ele>132.5</ele>
        <time>2025-07-11T12:03:05.002000+02:00</time>
      </trkpt>
      <trkpt lat="46.28584" lon="-0.21843">
        <ele>132.6</ele>
        <time>2025-07-11T12:03:06.002000+02:00</time>
      </trkpt>
      <trkpt lat="46.28585" lon="-0.21839">
        <ele>132.7</ele>
        <time>2025-07-11T12:03:07.002000+02:00</time>
      </trkpt>
      <trkpt lat="46.28587" lon="-0.21835">
        <ele>132.8</ele>
        <time>2025-07-11T12:03:08.002000+02:00</time>
      </trkpt>
      <trkpt lat="46.28588" lon="-0.21832">
        <ele>132.8</ele>
        <time>2025-07-11T12:03:09.003000+02:00</time>
      </trkpt>
      <trkpt lat="46.28591" lon="-0.21826">
        <ele>132.7</ele>
        <time>2025-07-11T12:03:11.001000+02:00</time>
      </trkpt>
      <trkpt lat="46.28592" lon="-0.21823">
        <ele>132.7</ele>
        <time>2025-07-11T12:03:12.003000+02:00</time>
      </trkpt>
      <trkpt lat="46.28595" lon="-0.21817">
        <ele>132.6</ele>
        <time>2025-07-11T12:03:14.003000+02:00</time>
      </trkpt>
      <trkpt lat="46.28599" lon="-0.21811">
        <ele>132.4</ele>
        <time>2025-07-11T12:03:16.001000+02:00</time>
      </trkpt>
      <trkpt lat="46.28602" lon="-0.21807">
        <ele>132.3</ele>
        <time>2025-07-11T12:03:17.001000+02:00</time>
      </trkpt>
      <trkpt lat="46.28605" lon="-0.21803">
        <ele>132.3</ele>
        <time>2025-07-11T12:03:18.001000+02:00</time>
      </trkpt>
      <trkpt lat="46.2861" lon="-0.21796">
        <ele>132.3</ele>
        <time>2025-07-11T12:03:20.001000+02:00</time>
      </trkpt>
      <trkpt lat="46.28613" lon="-0.21793">
        <ele>132.4</ele>
        <time>2025-07-11T12:03:21.001000+02:00</time>
      </trkpt>
      <trkpt lat="46.28616" lon="-0.2179">
        <ele>132.3</ele>
        <time>2025-07-11T12:03:22.001000+02:00</time>
      </trkpt>
      <trkpt lat="46.28618" lon="-0.21787">
        <ele>132.3</ele>
        <time>2025-07-11T12:03:23.002000+02:00</time>
      </trkpt>
      <trkpt lat="46.28623" lon="-0.21781">
        <ele>132.1</ele>
        <time>2025-07-11T12:03:25.001000+02:00</time>
      </trkpt>
      <trkpt lat="46.28627" lon="-0.21778">
        <ele>131.9</ele>
        <time>2025-07-11T12:03:26.003000+02:00</time>
      </trkpt>
      <trkpt lat="46.28635" lon="-0.21771">
        <ele>131.2</ele>
        <time>2025-07-11T12:03:28.002000+02:00</time>
      </trkpt>
      <trkpt lat="46.28644" lon="-0.21765">
        <ele>130.7</ele>
        <time>2025-07-11T12:03:30+02:00</time>
      </trkpt>
      <trkpt lat="46.28649" lon="-0.21761">
        <ele>130.5</ele>
        <time>2025-07-11T12:03:31.001000+02:00</time>
      </trkpt>
      <trkpt lat="46.28654" lon="-0.21757">
        <ele>130.3</ele>
        <time>2025-07-11T12:03:32.001000+02:00</time>
      </trkpt>
      <trkpt lat="46.28659" lon="-0.21754">
        <ele>130.2</ele>
        <time>2025-07-11T12:03:33.001000+02:00</time>
      </trkpt>
      <trkpt lat="46.28669" lon="-0.21747">
        <ele>129.9</ele>
        <time>2025-07-11T12:03:35.001000+02:00</time>
      </trkpt>
      <trkpt lat="46.28679" lon="-0.2174">
        <ele>129.6</ele>
        <time>2025-07-11T12:03:37.001000+02:00</time>
      </trkpt>
      <trkpt lat="46.28689" lon="-0.21733">
        <ele>129.2</ele>
        <time>2025-07-11T12:03:39+02:00</time>
      </trkpt>
      <trkpt lat="46.28694" lon="-0.2173">
        <ele>129</ele>
        <time>2025-07-11T12:03:40+02:00</time>
      </trkpt>
      <trkpt lat="46.287" lon="-0.21727">
        <ele>128.8</ele>
        <time>2025-07-11T12:03:41.002000+02:00</time>
      </trkpt>
      <trkpt lat="46.28709" lon="-0.2172">
        <ele>128.5</ele>
        <time>2025-07-11T12:03:43+02:00</time>
      </trkpt>
      <trkpt lat="46.28713" lon="-0.21717">
        <ele>128.3</ele>
        <time>2025-07-11T12:03:44.001000+02:00</time>
      </trkpt>
      <trkpt lat="46.28724" lon="-0.21712">
        <ele>128</ele>
        <time>2025-07-11T12:03:46.002000+02:00</time>
      </trkpt>
      <trkpt lat="46.28733" lon="-0.21708">
        <ele>128</ele>
        <time>2025-07-11T12:03:48.001000+02:00</time>
      </trkpt>
      <trkpt lat="46.28742" lon="-0.21703">
        <ele>128</ele>
        <time>2025-07-11T12:03:50.002000+02:00</time>
      </trkpt>
      <trkpt lat="46.28747" lon="-0.21701">
        <ele>128</ele>
        <time>2025-07-11T12:03:51.002000+02:00</time>
      </trkpt>
      <trkpt lat="46.28756" lon="-0.21697">
        <ele>128</ele>
        <time>2025-07-11T12:03:53+02:00</time>
      </trkpt>
      <trkpt lat="46.2876" lon="-0.21695">
        <ele>128</ele>
        <time>2025-07-11T12:03:54.001000+02:00</time>
      </trkpt>
      <trkpt lat="46.28764" lon="-0.21693">
        <ele>128</ele>
        <time>2025-07-11T12:03:55.001000+02:00</time>
      </trkpt>
      <trkpt lat="46.28768" lon="-0.21692">
        <ele>128</ele>
        <time>2025-07-11T12:03:56.001000+02:00</time>
      </trkpt>
      <trkpt lat="46.28772" lon="-0.2169">
        <ele>128</ele>
        <time>2025-07-11T12:03:57.001000+02:00</time>
      </trkpt>
      <trkpt lat="46.28776" lon="-0.21688">
        <ele>128</ele>
        <time>2025-07-11T12:03:58.001000+02:00</time>
      </trkpt>
      <trkpt lat="46.28784" lon="-0.21685">
        <ele>127.9</ele>
        <time>2025-07-11T12:04:00.001000+02:00</time>
      </trkpt>
      <trkpt lat="46.28788" lon="-0.21684">
        <ele>127.8</ele>
        <time>2025-07-11T12:04:01.002000+02:00</time>
      </trkpt>
      <trkpt lat="46.28795" lon="-0.21681">
        <ele>127.7</ele>
        <time>2025-07-11T12:04:03.001000+02:00</time>
      </trkpt>
      <trkpt lat="46.28802" lon="-0.21679">
        <ele>127.6</ele>
        <time>2025-07-11T12:04:05+02:00</time>
      </trkpt>
      <trkpt lat="46.28806" lon="-0.21678">
        <ele>127.6</ele>
        <time>2025-07-11T12:04:06.001000+02:00</time>
      </trkpt>
      <trkpt lat="46.2881" lon="-0.21677">
        <ele>127.6</ele>
        <time>2025-07-11T12:04:07.001000+02:00</time>
      </trkpt>
      <trkpt lat="46.28817" lon="-0.21674">
        <ele>127.7</ele>
        <time>2025-07-11T12:04:09.001000+02:00</time>
      </trkpt>
      <trkpt lat="46.28821" lon="-0.21673">
        <ele>127.8</ele>
        <time>2025-07-11T12:04:10.002000+02:00</time>
      </trkpt>
      <trkpt lat="46.28829" lon="-0.2167">
        <ele>127.9</ele>
        <time>2025-07-11T12:04:12.001000+02:00</time>
      </trkpt>
      <trkpt lat="46.28832" lon="-0.21669">
        <ele>127.9</ele>
        <time>2025-07-11T12:04:13.001000+02:00</time>
      </trkpt>
      <trkpt lat="46.28836" lon="-0.21668">
        <ele>128</ele>
        <time>2025-07-11T12:04:14.002000+02:00</time>
      </trkpt>
      <trkpt lat="46.28843" lon="-0.21665">
        <ele>128</ele>
        <time>2025-07-11T12:04:16.002000+02:00</time>
      </trkpt>
      <trkpt lat="46.28847" lon="-0.21664">
        <ele>128.1</ele>
        <time>2025-07-11T12:04:17.002000+02:00</time>
      </trkpt>
      <trkpt lat="46.2885" lon="-0.21662">
        <ele>128.1</ele>
        <time>2025-07-11T12:04:18.002000+02:00</time>
      </trkpt>
      <trkpt lat="46.28854" lon="-0.21661">
        <ele>128.2</ele>
        <time>2025-07-11T12:04:19.002000+02:00</time>
      </trkpt>
      <trkpt lat="46.28861" lon="-0.21659">
        <ele>128.3</ele>
        <time>2025-07-11T12:04:21.002000+02:00</time>
      </trkpt>
      <trkpt lat="46.28867" lon="-0.21656">
        <ele>128.6</ele>
        <time>2025-07-11T12:04:23.002000+02:00</time>
      </trkpt>
      <trkpt lat="46.2887" lon="-0.21653">
        <ele>128.8</ele>
        <time>2025-07-11T12:04:24.002000+02:00</time>
      </trkpt>
      <trkpt lat="46.28873" lon="-0.21651">
        <ele>128.9</ele>
        <time>2025-07-11T12:04:25.002000+02:00</time>
      </trkpt>
      <trkpt lat="46.28876" lon="-0.21649">
        <ele>129</ele>
        <time>2025-07-11T12:04:26.002000+02:00</time>
      </trkpt>
      <trkpt lat="46.28882" lon="-0.21646">
        <ele>129.1</ele>
        <time>2025-07-11T12:04:28.002000+02:00</time>
      </trkpt>
      <trkpt lat="46.28885" lon="-0.21644">
        <ele>129.1</ele>
        <time>2025-07-11T12:04:29.002000+02:00</time>
      </trkpt>
      <trkpt lat="46.28887" lon="-0.21641">
        <ele>129.1</ele>
        <time>2025-07-11T12:04:30.003000+02:00</time>
      </trkpt>
      <trkpt lat="46.28892" lon="-0.21633">
        <ele>129.2</ele>
        <time>2025-07-11T12:04:32.003000+02:00</time>
      </trkpt>
      <trkpt lat="46.28894" lon="-0.21629">
        <ele>129.3</ele>
        <time>2025-07-11T12:04:33.003000+02:00</time>
      </trkpt>
      <trkpt lat="46.28895" lon="-0.21618">
        <ele>129.4</ele>
        <time>2025-07-11T12:04:35.003000+02:00</time>
      </trkpt>
      <trkpt lat="46.28897" lon="-0.21609">
        <ele>129.6</ele>
        <time>2025-07-11T12:04:37.003000+02:00</time>
      </trkpt>
      <trkpt lat="46.28898" lon="-0.21599">
        <ele>129.8</ele>
        <time>2025-07-11T12:04:39.002000+02:00</time>
      </trkpt>
      <trkpt lat="46.28899" lon="-0.2159">
        <ele>130</ele>
        <time>2025-07-11T12:04:41.003000+02:00</time>
      </trkpt>
      <trkpt lat="46.289" lon="-0.21581">
        <ele>130.2</ele>
        <time>2025-07-11T12:04:43.001000+02:00</time>
      </trkpt>
      <trkpt lat="46.289" lon="-0.21576">
        <ele>130.4</ele>
        <time>2025-07-11T12:04:44.001000+02:00</time>
      </trkpt>
      <trkpt lat="46.28901" lon="-0.21568">
        <ele>130.6</ele>
        <time>2025-07-11T12:04:46+02:00</time>
      </trkpt>
      <trkpt lat="46.28901" lon="-0.21564">
        <ele>130.7</ele>
        <time>2025-07-11T12:04:47+02:00</time>
      </trkpt>
      <trkpt lat="46.28902" lon="-0.2156">
        <ele>130.9</ele>
        <time>2025-07-11T12:04:48+02:00</time>
      </trkpt>
      <trkpt lat="46.28902" lon="-0.21556">
        <ele>131</ele>
        <time>2025-07-11T12:04:49.001000+02:00</time>
      </trkpt>
      <trkpt lat="46.28902" lon="-0.21552">
        <ele>131</ele>
        <time>2025-07-11T12:04:50.001000+02:00</time>
      </trkpt>
      <trkpt lat="46.28903" lon="-0.21548">
        <ele>131</ele>
        <time>2025-07-11T12:04:51.002000+02:00</time>
      </trkpt>
      <trkpt lat="46.28903" lon="-0.2154">
        <ele>131</ele>
        <time>2025-07-11T12:04:53.001000+02:00</time>
      </trkpt>
      <trkpt lat="46.28904" lon="-0.21535">
        <ele>131.1</ele>
        <time>2025-07-11T12:04:54.002000+02:00</time>
      </trkpt>
      <trkpt lat="46.28904" lon="-0.21527">
        <ele>131.1</ele>
        <time>2025-07-11T12:04:56.001000+02:00</time>
      </trkpt>
      <trkpt lat="46.28904" lon="-0.21523">
        <ele>131.1</ele>
        <time>2025-07-11T12:04:57.001000+02:00</time>
      </trkpt>
      <trkpt lat="46.28905" lon="-0.21515">
        <ele>131.1</ele>
        <time>2025-07-11T12:04:59.001000+02:00</time>
      </trkpt>
      <trkpt lat="46.28905" lon="-0.21511">
        <ele>131.1</ele>
        <time>2025-07-11T12:05:00.001000+02:00</time>
      </trkpt>
      <trkpt lat="46.28905" lon="-0.21507">
        <ele>131.2</ele>
        <time>2025-07-11T12:05:01.001000+02:00</time>
      </trkpt>
      <trkpt lat="46.28905" lon="-0.21502">
        <ele>131.2</ele>
        <time>2025-07-11T12:05:02.002000+02:00</time>
      </trkpt>
      <trkpt lat="46.28906" lon="-0.21494">
        <ele>131.2</ele>
        <time>2025-07-11T12:05:04.001000+02:00</time>
      </trkpt>
      <trkpt lat="46.28905" lon="-0.21484">
        <ele>131.2</ele>
        <time>2025-07-11T12:05:06+02:00</time>
      </trkpt>
      <trkpt lat="46.28905" lon="-0.21479">
        <ele>131.2</ele>
        <time>2025-07-11T12:05:07.001000+02:00</time>
      </trkpt>
      <trkpt lat="46.28905" lon="-0.2147">
        <ele>131.2</ele>
        <time>2025-07-11T12:05:09.001000+02:00</time>
      </trkpt>
      <trkpt lat="46.28905" lon="-0.21465">
        <ele>131.2</ele>
        <time>2025-07-11T12:05:10.001000+02:00</time>
      </trkpt>
      <trkpt lat="46.28905" lon="-0.2146">
        <ele>131.2</ele>
        <time>2025-07-11T12:05:11.001000+02:00</time>
      </trkpt>
      <trkpt lat="46.28905" lon="-0.21455">
        <ele>131.1</ele>
        <time>2025-07-11T12:05:12.002000+02:00</time>
      </trkpt>
      <trkpt lat="46.28904" lon="-0.21445">
        <ele>131.1</ele>
        <time>2025-07-11T12:05:14+02:00</time>
      </trkpt>
      <trkpt lat="46.28904" lon="-0.2144">
        <ele>131.2</ele>
        <time>2025-07-11T12:05:15.001000+02:00</time>
      </trkpt>
      <trkpt lat="46.28904" lon="-0.21431">
        <ele>131.3</ele>
        <time>2025-07-11T12:05:17.001000+02:00</time>
      </trkpt>
      <trkpt lat="46.28904" lon="-0.21426">
        <ele>131.4</ele>
        <time>2025-07-11T12:05:18.002000+02:00</time>
      </trkpt>
      <trkpt lat="46.28906" lon="-0.21417">
        <ele>131.6</ele>
        <time>2025-07-11T12:05:20.001000+02:00</time>
      </trkpt>
      <trkpt lat="46.28907" lon="-0.21414">
        <ele>131.8</ele>
        <time>2025-07-11T12:05:21.002000+02:00</time>
      </trkpt>
      <trkpt lat="46.28912" lon="-0.21408">
        <ele>132.1</ele>
        <time>2025-07-11T12:05:23.001000+02:00</time>
      </trkpt>
      <trkpt lat="46.28917" lon="-0.21404">
        <ele>132.5</ele>
        <time>2025-07-11T12:05:25.001000+02:00</time>
      </trkpt>
      <trkpt lat="46.2892" lon="-0.21402">
        <ele>132.5</ele>
        <time>2025-07-11T12:05:26.002000+02:00</time>
      </trkpt>
      <trkpt lat="46.28927" lon="-0.214">
        <ele>132.5</ele>
        <time>2025-07-11T12:05:28.001000+02:00</time>
      </trkpt>
      <trkpt lat="46.2893" lon="-0.21399">
        <ele>132.5</ele>
        <time>2025-07-11T12:05:29.001000+02:00</time>
      </trkpt>
      <trkpt lat="46.28933" lon="-0.21397">
        <ele>132.5</ele>
        <time>2025-07-11T12:05:30.001000+02:00</time>
      </trkpt>
      <trkpt lat="46.28937" lon="-0.21396">
        <ele>132.4</ele>
        <time>2025-07-11T12:05:31.001000+02:00</time>
      </trkpt>
      <trkpt lat="46.2894" lon="-0.21395">
        <ele>132.3</ele>
        <time>2025-07-11T12:05:32.002000+02:00</time>
      </trkpt>
      <trkpt lat="46.28943" lon="-0.21394">
        <ele>132.2</ele>
        <time>2025-07-11T12:05:33.002000+02:00</time>
      </trkpt>
      <trkpt lat="46.2895" lon="-0.21392">
        <ele>132.3</ele>
        <time>2025-07-11T12:05:35+02:00</time>
      </trkpt>
      <trkpt lat="46.28953" lon="-0.2139">
        <ele>132.4</ele>
        <time>2025-07-11T12:05:36.001000+02:00</time>
      </trkpt>
      <trkpt lat="46.28956" lon="-0.21389">
        <ele>132.4</ele>
        <time>2025-07-11T12:05:37.007000+02:00</time>
      </trkpt>
      <trkpt lat="46.28962" lon="-0.21387">
        <ele>132.7</ele>
        <time>2025-07-11T12:05:39.001000+02:00</time>
      </trkpt>
      <trkpt lat="46.28965" lon="-0.21387">
        <ele>132.8</ele>
        <time>2025-07-11T12:05:40.001000+02:00</time>
      </trkpt>
      <trkpt lat="46.28967" lon="-0.21386">
        <ele>132.9</ele>
        <time>2025-07-11T12:05:41.002000+02:00</time>
      </trkpt>
      <trkpt lat="46.2897" lon="-0.21385">
        <ele>133.1</ele>
        <time>2025-07-11T12:05:42.002000+02:00</time>
      </trkpt>
      <trkpt lat="46.28975" lon="-0.21383">
        <ele>133.4</ele>
        <time>2025-07-11T12:05:44.002000+02:00</time>
      </trkpt>
      <trkpt lat="46.2898" lon="-0.21382">
        <ele>133.7</ele>
        <time>2025-07-11T12:05:46+02:00</time>
      </trkpt>
      <trkpt lat="46.28983" lon="-0.21382">
        <ele>133.8</ele>
        <time>2025-07-11T12:05:47.002000+02:00</time>
      </trkpt>
      <trkpt lat="46.28987" lon="-0.21381">
        <ele>134</ele>
        <time>2025-07-11T12:05:49.001000+02:00</time>
      </trkpt>
      <trkpt lat="46.28989" lon="-0.2138">
        <ele>134.1</ele>
        <time>2025-07-11T12:05:50.003000+02:00</time>
      </trkpt>
      <trkpt lat="46.28994" lon="-0.21379">
        <ele>134.4</ele>
        <time>2025-07-11T12:05:52.001000+02:00</time>
      </trkpt>
      <trkpt lat="46.28999" lon="-0.21378">
        <ele>134.6</ele>
        <time>2025-07-11T12:05:54.001000+02:00</time>
      </trkpt>
      <trkpt lat="46.29002" lon="-0.21377">
        <ele>134.6</ele>
        <time>2025-07-11T12:05:55.001000+02:00</time>
      </trkpt>
      <trkpt lat="46.29004" lon="-0.21377">
        <ele>134.7</ele>
        <time>2025-07-11T12:05:56.001000+02:00</time>
      </trkpt>
      <trkpt lat="46.29007" lon="-0.21377">
        <ele>134.8</ele>
        <time>2025-07-11T12:05:57.001000+02:00</time>
      </trkpt>
      <trkpt lat="46.29009" lon="-0.21377">
        <ele>134.9</ele>
        <time>2025-07-11T12:05:58.004000+02:00</time>
      </trkpt>
      <trkpt lat="46.29014" lon="-0.21377">
        <ele>135.1</ele>
        <time>2025-07-11T12:06:00.001000+02:00</time>
      </trkpt>
      <trkpt lat="46.29016" lon="-0.21378">
        <ele>135.2</ele>
        <time>2025-07-11T12:06:01.001000+02:00</time>
      </trkpt>
      <trkpt lat="46.29018" lon="-0.21378">
        <ele>135.3</ele>
        <time>2025-07-11T12:06:02.001000+02:00</time>
      </trkpt>
      <trkpt lat="46.29021" lon="-0.21379">
        <ele>135.4</ele>
        <time>2025-07-11T12:06:03.001000+02:00</time>
      </trkpt>
      <trkpt lat="46.29024" lon="-0.2138">
        <ele>135.5</ele>
        <time>2025-07-11T12:06:04.005000+02:00</time>
      </trkpt>
      <trkpt lat="46.29029" lon="-0.2138">
        <ele>135.7</ele>
        <time>2025-07-11T12:06:06+02:00</time>
      </trkpt>
      <trkpt lat="46.29031" lon="-0.21379">
        <ele>135.8</ele>
        <time>2025-07-11T12:06:07.001000+02:00</time>
      </trkpt>
      <trkpt lat="46.29034" lon="-0.21379">
        <ele>135.9</ele>
        <time>2025-07-11T12:06:08.001000+02:00</time>
      </trkpt>
      <trkpt lat="46.29037" lon="-0.21379">
        <ele>136</ele>
        <time>2025-07-11T12:06:09.001000+02:00</time>
      </trkpt>
      <trkpt lat="46.2904" lon="-0.21379">
        <ele>136.1</ele>
        <time>2025-07-11T12:06:10.001000+02:00</time>
      </trkpt>
      <trkpt lat="46.29046" lon="-0.2138">
        <ele>136.3</ele>
        <time>2025-07-11T12:06:12+02:00</time>
      </trkpt>
      <trkpt lat="46.29048" lon="-0.2138">
        <ele>136.4</ele>
        <time>2025-07-11T12:06:13.001000+02:00</time>
      </trkpt>
      <trkpt lat="46.2905" lon="-0.21381">
        <ele>136.5</ele>
        <time>2025-07-11T12:06:14.001000+02:00</time>
      </trkpt>
      <trkpt lat="46.29053" lon="-0.21382">
        <ele>136.6</ele>
        <time>2025-07-11T12:06:15.002000+02:00</time>
      </trkpt>
      <trkpt lat="46.29057" lon="-0.21382">
        <ele>136.8</ele>
        <time>2025-07-11T12:06:17.001000+02:00</time>
      </trkpt>
      <trkpt lat="46.29062" lon="-0.21382">
        <ele>137</ele>
        <time>2025-07-11T12:06:18.999000+02:00</time>
      </trkpt>
      <trkpt lat="46.29064" lon="-0.21383">
        <ele>137.1</ele>
        <time>2025-07-11T12:06:20.002000+02:00</time>
      </trkpt>
      <trkpt lat="46.29066" lon="-0.21383">
        <ele>137.2</ele>
        <time>2025-07-11T12:06:21.002000+02:00</time>
      </trkpt>
      <trkpt lat="46.29071" lon="-0.21383">
        <ele>137.3</ele>
        <time>2025-07-11T12:06:23.001000+02:00</time>
      </trkpt>
      <trkpt lat="46.29074" lon="-0.21382">
        <ele>137.4</ele>
        <time>2025-07-11T12:06:24.001000+02:00</time>
      </trkpt>
      <trkpt lat="46.29077" lon="-0.21382">
        <ele>137.5</ele>
        <time>2025-07-11T12:06:25.001000+02:00</time>
      </trkpt>
      <trkpt lat="46.29079" lon="-0.21382">
        <ele>137.6</ele>
        <time>2025-07-11T12:06:26.001000+02:00</time>
      </trkpt>
      <trkpt lat="46.29082" lon="-0.21382">
        <ele>137.7</ele>
        <time>2025-07-11T12:06:27.003000+02:00</time>
      </trkpt>
      <trkpt lat="46.29087" lon="-0.21383">
        <ele>137.9</ele>
        <time>2025-07-11T12:06:29.002000+02:00</time>
      </trkpt>
      <trkpt lat="46.29091" lon="-0.21384">
        <ele>138.1</ele>
        <time>2025-07-11T12:06:31.001000+02:00</time>
      </trkpt>
      <trkpt lat="46.29094" lon="-0.21384">
        <ele>138.2</ele>
        <time>2025-07-11T12:06:32.004000+02:00</time>
      </trkpt>
      <trkpt lat="46.29099" lon="-0.21386">
        <ele>138.4</ele>
        <time>2025-07-11T12:06:34.003000+02:00</time>
      </trkpt>
      <trkpt lat="46.29103" lon="-0.21387">
        <ele>138.6</ele>
        <time>2025-07-11T12:06:36.003000+02:00</time>
      </trkpt>
      <trkpt lat="46.29105" lon="-0.21388">
        <ele>138.7</ele>
        <time>2025-07-11T12:06:37.003000+02:00</time>
      </trkpt>
      <trkpt lat="46.2911" lon="-0.21389">
        <ele>138.9</ele>
        <time>2025-07-11T12:06:39.003000+02:00</time>
      </trkpt>
      <trkpt lat="46.29114" lon="-0.2139">
        <ele>139.1</ele>
        <time>2025-07-11T12:06:41.001000+02:00</time>
      </trkpt>
      <trkpt lat="46.29116" lon="-0.2139">
        <ele>139.2</ele>
        <time>2025-07-11T12:06:42.001000+02:00</time>
      </trkpt>
      <trkpt lat="46.29118" lon="-0.2139">
        <ele>139.3</ele>
        <time>2025-07-11T12:06:43.001000+02:00</time>
      </trkpt>
      <trkpt lat="46.2912" lon="-0.2139">
        <ele>139.3</ele>
        <time>2025-07-11T12:06:44.002000+02:00</time>
      </trkpt>
      <trkpt lat="46.29122" lon="-0.2139">
        <ele>139.4</ele>
        <time>2025-07-11T12:06:45.002000+02:00</time>
      </trkpt>
      <trkpt lat="46.29124" lon="-0.21389">
        <ele>139.5</ele>
        <time>2025-07-11T12:06:46.002000+02:00</time>
      </trkpt>
      <trkpt lat="46.29126" lon="-0.21389">
        <ele>139.5</ele>
        <time>2025-07-11T12:06:47.002000+02:00</time>
      </trkpt>
      <trkpt lat="46.29128" lon="-0.21388">
        <ele>139.6</ele>
        <time>2025-07-11T12:06:48.002000+02:00</time>
      </trkpt>
      <trkpt lat="46.2913" lon="-0.21387">
        <ele>139.6</ele>
        <time>2025-07-11T12:06:49.002000+02:00</time>
      </trkpt>
      <trkpt lat="46.29132" lon="-0.21388">
        <ele>139.7</ele>
        <time>2025-07-11T12:06:50.003000+02:00</time>
      </trkpt>
      <trkpt lat="46.29137" lon="-0.21389">
        <ele>139.9</ele>
        <time>2025-07-11T12:06:52.002000+02:00</time>
      </trkpt>
      <trkpt lat="46.29139" lon="-0.21389">
        <ele>140</ele>
        <time>2025-07-11T12:06:53.002000+02:00</time>
      </trkpt>
      <trkpt lat="46.29144" lon="-0.21391">
        <ele>140.2</ele>
        <time>2025-07-11T12:06:55.002000+02:00</time>
      </trkpt>
      <trkpt lat="46.29148" lon="-0.2139">
        <ele>140.3</ele>
        <time>2025-07-11T12:06:57.006000+02:00</time>
      </trkpt>
      <trkpt lat="46.29153" lon="-0.2139">
        <ele>140.5</ele>
        <time>2025-07-11T12:06:59.001000+02:00</time>
      </trkpt>
      <trkpt lat="46.29156" lon="-0.2139">
        <ele>140.6</ele>
        <time>2025-07-11T12:07:00.002000+02:00</time>
      </trkpt>
      <trkpt lat="46.29159" lon="-0.21391">
        <ele>140.7</ele>
        <time>2025-07-11T12:07:02.002000+02:00</time>
      </trkpt>
      <trkpt lat="46.29161" lon="-0.21391">
        <ele>140.8</ele>
        <time>2025-07-11T12:07:03.003000+02:00</time>
      </trkpt>
      <trkpt lat="46.29163" lon="-0.21391">
        <ele>140.9</ele>
        <time>2025-07-11T12:07:04.004000+02:00</time>
      </trkpt>
      <trkpt lat="46.29168" lon="-0.21391">
        <ele>141</ele>
        <time>2025-07-11T12:07:06.002000+02:00</time>
      </trkpt>
      <trkpt lat="46.2917" lon="-0.2139">
        <ele>141.1</ele>
        <time>2025-07-11T12:07:07.003000+02:00</time>
      </trkpt>
      <trkpt lat="46.29176" lon="-0.21388">
        <ele>141.3</ele>
        <time>2025-07-11T12:07:09.003000+02:00</time>
      </trkpt>
      <trkpt lat="46.29181" lon="-0.21388">
        <ele>141.5</ele>
        <time>2025-07-11T12:07:11.002000+02:00</time>
      </trkpt>
      <trkpt lat="46.29184" lon="-0.21388">
        <ele>141.6</ele>
        <time>2025-07-11T12:07:12.002000+02:00</time>
      </trkpt>
      <trkpt lat="46.29187" lon="-0.21388">
        <ele>141.7</ele>
        <time>2025-07-11T12:07:13.002000+02:00</time>
      </trkpt>
      <trkpt lat="46.2919" lon="-0.21388">
        <ele>141.8</ele>
        <time>2025-07-11T12:07:14.002000+02:00</time>
      </trkpt>
      <trkpt lat="46.29193" lon="-0.21388">
        <ele>141.9</ele>
        <time>2025-07-11T12:07:15.003000+02:00</time>
      </trkpt>
      <trkpt lat="46.29196" lon="-0.21388">
        <ele>142</ele>
        <time>2025-07-11T12:07:16.003000+02:00</time>
      </trkpt>
      <trkpt lat="46.29201" lon="-0.2139">
        <ele>142.2</ele>
        <time>2025-07-11T12:07:18.003000+02:00</time>
      </trkpt>
      <trkpt lat="46.29203" lon="-0.21391">
        <ele>142.3</ele>
        <time>2025-07-11T12:07:19.003000+02:00</time>
      </trkpt>
      <trkpt lat="46.29206" lon="-0.21393">
        <ele>142.4</ele>
        <time>2025-07-11T12:07:21.003000+02:00</time>
      </trkpt>
      <trkpt lat="46.29207" lon="-0.21398">
        <ele>142.5</ele>
        <time>2025-07-11T12:07:23.003000+02:00</time>
      </trkpt>
      <trkpt lat="46.29207" lon="-0.21404">
        <ele>142.5</ele>
        <time>2025-07-11T12:07:25+02:00</time>
      </trkpt>
      <trkpt lat="46.29206" lon="-0.21408">
        <ele>142.4</ele>
        <time>2025-07-11T12:07:26.002000+02:00</time>
      </trkpt>
      <trkpt lat="46.29206" lon="-0.21416">
        <ele>142.4</ele>
        <time>2025-07-11T12:07:28.001000+02:00</time>
      </trkpt>
      <trkpt lat="46.29206" lon="-0.2142">
        <ele>142.4</ele>
        <time>2025-07-11T12:07:29.002000+02:00</time>
      </trkpt>
      <trkpt lat="46.29206" lon="-0.21424">
        <ele>142.4</ele>
        <time>2025-07-11T12:07:30.002000+02:00</time>
      </trkpt>
      <trkpt lat="46.29206" lon="-0.21428">
        <ele>142.4</ele>
        <time>2025-07-11T12:07:31.002000+02:00</time>
      </trkpt>
      <trkpt lat="46.29206" lon="-0.21432">
        <ele>142.4</ele>
        <time>2025-07-11T12:07:32.002000+02:00</time>
      </trkpt>
      <trkpt lat="46.29205" lon="-0.21437">
        <ele>142.4</ele>
        <time>2025-07-11T12:07:33.003000+02:00</time>
      </trkpt>
      <trkpt lat="46.29205" lon="-0.21446">
        <ele>142.4</ele>
        <time>2025-07-11T12:07:35.002000+02:00</time>
      </trkpt>
      <trkpt lat="46.29204" lon="-0.21451">
        <ele>142.4</ele>
        <time>2025-07-11T12:07:36.003000+02:00</time>
      </trkpt>
      <trkpt lat="46.29204" lon="-0.21461">
        <ele>142.4</ele>
        <time>2025-07-11T12:07:38.002000+02:00</time>
      </trkpt>
      <trkpt lat="46.29204" lon="-0.21466">
        <ele>142.3</ele>
        <time>2025-07-11T12:07:39.003000+02:00</time>
      </trkpt>
    </trkseg>
  </trk>
</gpx>